<?xml version='1.0' encoding='UTF-8'?><gpx version="1.1" creator="JPX - https://github.com/jenetics/jpx" xmlns="http://www.topografix.com/GPX/1/1"><trk><trkseg><trkpt lat="44.590131504289694" lon="9.203285037614299"><ele>1390.0</ele><time>2026-05-03T10:39:30Z</time></trkpt><trkpt lat="44.59018719449324" lon="9.203382205833483"><ele>1390.0</ele><time>2026-05-03T10:39:32Z</time></trkpt><trkpt lat="44.590240074011085" lon="9.203443726175967"><ele>1390.0</ele><time>2026-05-03T10:39:33Z</time></trkpt><trkpt lat="44.59031809508112" lon="9.203540141135957"><ele>1390.0</ele><time>2026-05-03T10:39:35Z</time></trkpt><trkpt lat="44.59037179358866" lon="9.203644002207"><ele>1390.0</ele><time>2026-05-03T10:39:37Z</time></trkpt><trkpt lat="44.59041886591819" lon="9.2037496885017"><ele>1390.0</ele><time>2026-05-03T10:39:39Z</time></trkpt><trkpt lat="44.59047886968122" lon="9.203862426047676"><ele>1391.1666666666665</ele><time>2026-05-03T10:39:41Z</time></trkpt><trkpt lat="44.590517969997386" lon="9.203993677328164"><ele>1392.3333333333333</ele><time>2026-05-03T10:39:43Z</time></trkpt><trkpt lat="44.59055885112914" lon="9.2040867090651"><ele>1393.5</ele><time>2026-05-03T10:39:45Z</time></trkpt><trkpt lat="44.59057400172098" lon="9.204177228501024"><ele>1394.6666666666667</ele><time>2026-05-03T10:39:47Z</time></trkpt><trkpt lat="44.59047288262616" lon="9.20416650393496"><ele>1395.8333333333335</ele><time>2026-05-03T10:39:50Z</time></trkpt><trkpt lat="44.5904204914173" lon="9.204084774559954"><ele>1397.0</ele><time>2026-05-03T10:39:51Z</time></trkpt><trkpt lat="44.59037759248006" lon="9.2039731807762"><ele>1395.6</ele><time>2026-05-03T10:39:52Z</time></trkpt><trkpt lat="44.59032689941052" lon="9.20387224444211"><ele>1394.1999999999998</ele><time>2026-05-03T10:39:53Z</time></trkpt><trkpt lat="44.59026356048708" lon="9.203767109798088"><ele>1392.8</ele><time>2026-05-03T10:39:54Z</time></trkpt><trkpt lat="44.59019770513987" lon="9.203662712700005"><ele>1391.4</ele><time>2026-05-03T10:39:55Z</time></trkpt><trkpt lat="44.590122428015675" lon="9.203567207758184"><ele>1390.0</ele><time>2026-05-03T10:39:56Z</time></trkpt><trkpt lat="44.590016810408166" lon="9.20351162923882"><ele>1390.0</ele><time>2026-05-03T10:39:57Z</time></trkpt><trkpt lat="44.58989606912379" lon="9.203502852970214"><ele>1390.0</ele><time>2026-05-03T10:39:58Z</time></trkpt><trkpt lat="44.58977532353979" lon="9.203528452559889"><ele>1390.0</ele><time>2026-05-03T10:39:59Z</time></trkpt><trkpt lat="44.58965814349613" lon="9.203593603830184"><ele>1390.0</ele><time>2026-05-03T10:40:00Z</time></trkpt><trkpt lat="44.589551658960154" lon="9.203695490323469"><ele>1388.0</ele><time>2026-05-03T10:40:01Z</time></trkpt><trkpt lat="44.589444143443174" lon="9.203795562614962"><ele>1386.0</ele><time>2026-05-03T10:40:02Z</time></trkpt><trkpt lat="44.58932067295052" lon="9.203823881744988"><ele>1384.0</ele><time>2026-05-03T10:40:03Z</time></trkpt><trkpt lat="44.589206163291585" lon="9.203869109191164"><ele>1382.0</ele><time>2026-05-03T10:40:03.999Z</time></trkpt><trkpt lat="44.589109321873984" lon="9.203945067852777"><ele>1380.1999999999998</ele><time>2026-05-03T10:40:04.999Z</time></trkpt><trkpt lat="44.589005119000994" lon="9.203997717372621"><ele>1378.4</ele><time>2026-05-03T10:40:05.999Z</time></trkpt><trkpt lat="44.58890525415556" lon="9.204059820160566"><ele>1376.6</ele><time>2026-05-03T10:40:06.999Z</time></trkpt><trkpt lat="44.58882433311416" lon="9.204095534961695"><ele>1374.8000000000002</ele><time>2026-05-03T10:40:07.999Z</time></trkpt><trkpt lat="44.58874448038792" lon="9.204090608620907"><ele>1373.0</ele><time>2026-05-03T10:40:08.999Z</time></trkpt><trkpt lat="44.58866908409852" lon="9.204015236542949"><ele>1372.0</ele><time>2026-05-03T10:40:09.999Z</time></trkpt><trkpt lat="44.58861976512843" lon="9.203885349662198"><ele>1371.0</ele><time>2026-05-03T10:40:10.999Z</time></trkpt><trkpt lat="44.58858796096962" lon="9.203721057177015"><ele>1370.0</ele><time>2026-05-03T10:40:11.999Z</time></trkpt><trkpt lat="44.58856531675061" lon="9.20353003741566"><ele>1369.0</ele><time>2026-05-03T10:40:12.999Z</time></trkpt><trkpt lat="44.58848816232355" lon="9.203363770088158"><ele>1369.0</ele><time>2026-05-03T10:40:13.999Z</time></trkpt><trkpt lat="44.588404984632085" lon="9.203231022418967"><ele>1369.0</ele><time>2026-05-03T10:40:14.999Z</time></trkpt><trkpt lat="44.58830511730223" lon="9.203131509332247"><ele>1369.0</ele><time>2026-05-03T10:40:15.999Z</time></trkpt><trkpt lat="44.5882597249736" lon="9.2030188749444"><ele>1369.0</ele><time>2026-05-03T10:40:16.999Z</time></trkpt><trkpt lat="44.588237004329095" lon="9.20293533757445"><ele>1369.0</ele><time>2026-05-03T10:40:17.999Z</time></trkpt><trkpt lat="44.58824906608037" lon="9.202758233906017"><ele>1367.6</ele><time>2026-05-03T10:40:19.999Z</time></trkpt><trkpt lat="44.58831098231427" lon="9.202692332605457"><ele>1366.2</ele><time>2026-05-03T10:40:20.999Z</time></trkpt><trkpt lat="44.58841133801974" lon="9.202684651024464"><ele>1364.8</ele><time>2026-05-03T10:40:21.999Z</time></trkpt><trkpt lat="44.58852102904346" lon="9.202658845555002"><ele>1363.3999999999999</ele><time>2026-05-03T10:40:22.999Z</time></trkpt><trkpt lat="44.58862665783692" lon="9.202607626146493"><ele>1362.0</ele><time>2026-05-03T10:40:23.999Z</time></trkpt><trkpt lat="44.58871791400813" lon="9.202553661945085"><ele>1361.0</ele><time>2026-05-03T10:40:24.999Z</time></trkpt><trkpt lat="44.58877602819331" lon="9.202449896932668"><ele>1360.0</ele><time>2026-05-03T10:40:25.999Z</time></trkpt><trkpt lat="44.58878625054051" lon="9.202312329455186"><ele>1359.0</ele><time>2026-05-03T10:40:26.999Z</time></trkpt><trkpt lat="44.58874613323148" lon="9.20215841465573"><ele>1358.0</ele><time>2026-05-03T10:40:27.999Z</time></trkpt><trkpt lat="44.58867689529308" lon="9.202020790503864"><ele>1357.0</ele><time>2026-05-03T10:40:28.999Z</time></trkpt><trkpt lat="44.58859698026625" lon="9.201908635477402"><ele>1357.0</ele><time>2026-05-03T10:40:29.999Z</time></trkpt><trkpt lat="44.58853595050395" lon="9.201766954487807"><ele>1357.0</ele><time>2026-05-03T10:40:30.999Z</time></trkpt><trkpt lat="44.588441075623315" lon="9.20160255001407"><ele>1357.0</ele><time>2026-05-03T10:40:31.999Z</time></trkpt><trkpt lat="44.58833737427594" lon="9.201460781880895"><ele>1357.0</ele><time>2026-05-03T10:40:32.999Z</time></trkpt><trkpt lat="44.58825716154955" lon="9.201295223217906"><ele>1359.0</ele><time>2026-05-03T10:40:33.999Z</time></trkpt><trkpt lat="44.58817025640627" lon="9.201155115072174"><ele>1361.0</ele><time>2026-05-03T10:40:34.999Z</time></trkpt><trkpt lat="44.58809377175822" lon="9.20102292928513"><ele>1363.0</ele><time>2026-05-03T10:40:35.999Z</time></trkpt><trkpt lat="44.588013006179224" lon="9.200879460120634"><ele>1365.0</ele><time>2026-05-03T10:40:36.999Z</time></trkpt><trkpt lat="44.58790569174018" lon="9.200753165765438"><ele>1363.5</ele><time>2026-05-03T10:40:37.999Z</time></trkpt><trkpt lat="44.58776189834743" lon="9.20071254406729"><ele>1362.0</ele><time>2026-05-03T10:40:38.999Z</time></trkpt><trkpt lat="44.5876410350463" lon="9.200594771121786"><ele>1360.5</ele><time>2026-05-03T10:40:39.999Z</time></trkpt><trkpt lat="44.58751515654643" lon="9.200490272811397"><ele>1359.0</ele><time>2026-05-03T10:40:40.999Z</time></trkpt><trkpt lat="44.587394517422545" lon="9.200382950373255"><ele>1359.0</ele><time>2026-05-03T10:40:41.999Z</time></trkpt><trkpt lat="44.58727810618657" lon="9.200284843381114"><ele>1359.0</ele><time>2026-05-03T10:40:42.999Z</time></trkpt><trkpt lat="44.58716881944375" lon="9.200186401622899"><ele>1359.0</ele><time>2026-05-03T10:40:43.999Z</time></trkpt><trkpt lat="44.587063658726514" lon="9.20009545856018"><ele>1359.0</ele><time>2026-05-03T10:40:44.999Z</time></trkpt><trkpt lat="44.58696690026664" lon="9.200014910926484"><ele>1359.8000000000002</ele><time>2026-05-03T10:40:45.999Z</time></trkpt><trkpt lat="44.58688610804073" lon="9.199952940999408"><ele>1360.6000000000001</ele><time>2026-05-03T10:40:46.999Z</time></trkpt><trkpt lat="44.58682495262379" lon="9.199892220074094"><ele>1361.4</ele><time>2026-05-03T10:40:47.999Z</time></trkpt><trkpt lat="44.58683559481481" lon="9.199750451512656"><ele>1362.2</ele><time>2026-05-03T10:40:48.999Z</time></trkpt><trkpt lat="44.58679273256757" lon="9.199618388947455"><ele>1363.0</ele><time>2026-05-03T10:40:49.999Z</time></trkpt><trkpt lat="44.586733478724035" lon="9.199501660139296"><ele>1363.0</ele><time>2026-05-03T10:40:50.999Z</time></trkpt><trkpt lat="44.58661948321516" lon="9.199447655903407"><ele>1363.0</ele><time>2026-05-03T10:40:51.999Z</time></trkpt><trkpt lat="44.58649478839807" lon="9.199432298813932"><ele>1363.0</ele><time>2026-05-03T10:40:52.999Z</time></trkpt><trkpt lat="44.586375744252464" lon="9.199366143228868"><ele>1363.0</ele><time>2026-05-03T10:40:53.999Z</time></trkpt><trkpt lat="44.58626758626779" lon="9.199288366368245"><ele>1360.25</ele><time>2026-05-03T10:40:54.999Z</time></trkpt><trkpt lat="44.586137016005516" lon="9.199227538643784"><ele>1357.5</ele><time>2026-05-03T10:40:55.998Z</time></trkpt><trkpt lat="44.58598860394659" lon="9.199179169014409"><ele>1354.75</ele><time>2026-05-03T10:40:56.998Z</time></trkpt><trkpt lat="44.58584695262489" lon="9.19913486678131"><ele>1352.0</ele><time>2026-05-03T10:40:57.998Z</time></trkpt><trkpt lat="44.58572811997164" lon="9.199095910729968"><ele>1352.0</ele><time>2026-05-03T10:40:58.998Z</time></trkpt><trkpt lat="44.58563117561245" lon="9.199036332193602"><ele>1352.0</ele><time>2026-05-03T10:40:59.998Z</time></trkpt><trkpt lat="44.58551443216746" lon="9.198884829275121"><ele>1352.0</ele><time>2026-05-03T10:41:00.998Z</time></trkpt><trkpt lat="44.58540358809295" lon="9.198783135692715"><ele>1352.0</ele><time>2026-05-03T10:41:01.998Z</time></trkpt><trkpt lat="44.58526615057016" lon="9.198710212190347"><ele>1352.0</ele><time>2026-05-03T10:41:02.998Z</time></trkpt><trkpt lat="44.58513841389398" lon="9.198621790435032"><ele>1352.0</ele><time>2026-05-03T10:41:03.998Z</time></trkpt><trkpt lat="44.585017346622834" lon="9.198529948264117"><ele>1352.0</ele><time>2026-05-03T10:41:04.998Z</time></trkpt><trkpt lat="44.584893351092184" lon="9.19843608196637"><ele>1352.0</ele><time>2026-05-03T10:41:05.998Z</time></trkpt><trkpt lat="44.58475938146612" lon="9.198344693671938"><ele>1352.0</ele><time>2026-05-03T10:41:06.998Z</time></trkpt><trkpt lat="44.584656402164065" lon="9.198223369188906"><ele>1352.0</ele><time>2026-05-03T10:41:07.998Z</time></trkpt><trkpt lat="44.58457619250654" lon="9.198081874433308"><ele>1352.0</ele><time>2026-05-03T10:41:08.998Z</time></trkpt><trkpt lat="44.58449178367634" lon="9.19791108214001"><ele>1352.0</ele><time>2026-05-03T10:41:09.998Z</time></trkpt><trkpt lat="44.58439641061628" lon="9.197768822078032"><ele>1351.5</ele><time>2026-05-03T10:41:10.998Z</time></trkpt><trkpt lat="44.58432168264011" lon="9.197609896732574"><ele>1351.0</ele><time>2026-05-03T10:41:11.998Z</time></trkpt><trkpt lat="44.58425092337451" lon="9.197436845594037"><ele>1350.5</ele><time>2026-05-03T10:41:12.998Z</time></trkpt><trkpt lat="44.58417322651665" lon="9.197296753674873"><ele>1350.0</ele><time>2026-05-03T10:41:13.998Z</time></trkpt><trkpt lat="44.58409585362436" lon="9.197159070491924"><ele>1347.0</ele><time>2026-05-03T10:41:14.998Z</time></trkpt><trkpt lat="44.58400469352851" lon="9.197053174785752"><ele>1344.0</ele><time>2026-05-03T10:41:15.998Z</time></trkpt><trkpt lat="44.58387908327801" lon="9.197005585516973"><ele>1341.0</ele><time>2026-05-03T10:41:16.998Z</time></trkpt><trkpt lat="44.58373055516567" lon="9.196970764637335"><ele>1338.0</ele><time>2026-05-03T10:41:17.998Z</time></trkpt><trkpt lat="44.58356848722869" lon="9.196920811940021"><ele>1338.0</ele><time>2026-05-03T10:41:18.998Z</time></trkpt><trkpt lat="44.58341184708691" lon="9.196869947394248"><ele>1338.0</ele><time>2026-05-03T10:41:19.998Z</time></trkpt><trkpt lat="44.58326191858691" lon="9.196830814931694"><ele>1338.0</ele><time>2026-05-03T10:41:20.998Z</time></trkpt><trkpt lat="44.583113830658206" lon="9.196783602928912"><ele>1338.0</ele><time>2026-05-03T10:41:21.998Z</time></trkpt><trkpt lat="44.582968785277025" lon="9.19674418211137"><ele>1338.0</ele><time>2026-05-03T10:41:22.998Z</time></trkpt><trkpt lat="44.58283330696359" lon="9.196699786500377"><ele>1338.0</ele><time>2026-05-03T10:41:23.998Z</time></trkpt><trkpt lat="44.58269959324627" lon="9.19664462574091"><ele>1338.0</ele><time>2026-05-03T10:41:24.998Z</time></trkpt><trkpt lat="44.582541967563365" lon="9.196661787810756"><ele>1337.0</ele><time>2026-05-03T10:41:25.998Z</time></trkpt><trkpt lat="44.58237848116293" lon="9.196669650584285"><ele>1336.0</ele><time>2026-05-03T10:41:27Z</time></trkpt><trkpt lat="44.582230307632614" lon="9.19665420091872"><ele>1335.0</ele><time>2026-05-03T10:41:28Z</time></trkpt><trkpt lat="44.58208389373724" lon="9.19670550192057"><ele>1331.25</ele><time>2026-05-03T10:41:29Z</time></trkpt><trkpt lat="44.58194509586183" lon="9.196694526404986"><ele>1327.5</ele><time>2026-05-03T10:41:30Z</time></trkpt><trkpt lat="44.58180495281204" lon="9.19670755742026"><ele>1323.75</ele><time>2026-05-03T10:41:31Z</time></trkpt><trkpt lat="44.58167830132299" lon="9.196752256046985"><ele>1320.0</ele><time>2026-05-03T10:41:32Z</time></trkpt><trkpt lat="44.58155618544094" lon="9.196840386618414"><ele>1320.0</ele><time>2026-05-03T10:41:33Z</time></trkpt><trkpt lat="44.58142724573793" lon="9.196969025710061"><ele>1320.0</ele><time>2026-05-03T10:41:34Z</time></trkpt><trkpt lat="44.58127440810852" lon="9.19702384215522"><ele>1320.0</ele><time>2026-05-03T10:41:35Z</time></trkpt><trkpt lat="44.5811458899095" lon="9.197065345721413"><ele>1320.0</ele><time>2026-05-03T10:41:36Z</time></trkpt><trkpt lat="44.581023967863565" lon="9.197140163714364"><ele>1319.5</ele><time>2026-05-03T10:41:37Z</time></trkpt><trkpt lat="44.58092039381932" lon="9.197214165034168"><ele>1319.0</ele><time>2026-05-03T10:41:38Z</time></trkpt><trkpt lat="44.58084276341036" lon="9.197355895734947"><ele>1318.5</ele><time>2026-05-03T10:41:39Z</time></trkpt><trkpt lat="44.58076517209205" lon="9.197527056216842"><ele>1318.0</ele><time>2026-05-03T10:41:40Z</time></trkpt><trkpt lat="44.580651173266936" lon="9.197648398064862"><ele>1318.0</ele><time>2026-05-03T10:41:41Z</time></trkpt><trkpt lat="44.58052330903394" lon="9.19776737143839"><ele>1318.0</ele><time>2026-05-03T10:41:42Z</time></trkpt><trkpt lat="44.58039089933231" lon="9.197876069439026"><ele>1318.0</ele><time>2026-05-03T10:41:43Z</time></trkpt><trkpt lat="44.580267393616865" lon="9.197977352830533"><ele>1313.0</ele><time>2026-05-03T10:41:44Z</time></trkpt><trkpt lat="44.58014533843283" lon="9.198049342462921"><ele>1308.0</ele><time>2026-05-03T10:41:45Z</time></trkpt><trkpt lat="44.58000590508549" lon="9.198084475251731"><ele>1303.0</ele><time>2026-05-03T10:41:46Z</time></trkpt><trkpt lat="44.579850796234425" lon="9.198076227556172"><ele>1298.0</ele><time>2026-05-03T10:41:47Z</time></trkpt><trkpt lat="44.57969597165428" lon="9.198045259688442"><ele>1298.0</ele><time>2026-05-03T10:41:48Z</time></trkpt><trkpt lat="44.57952397212225" lon="9.197995630548263"><ele>1298.0</ele><time>2026-05-03T10:41:49Z</time></trkpt><trkpt lat="44.57935726259016" lon="9.197939203152643"><ele>1298.0</ele><time>2026-05-03T10:41:50Z</time></trkpt><trkpt lat="44.57918444091092" lon="9.19791612637393"><ele>1295.6666666666667</ele><time>2026-05-03T10:41:51Z</time></trkpt><trkpt lat="44.579025017218775" lon="9.197873928148613"><ele>1293.3333333333333</ele><time>2026-05-03T10:41:52Z</time></trkpt><trkpt lat="44.578879157431395" lon="9.197799619824368"><ele>1291.0</ele><time>2026-05-03T10:41:53Z</time></trkpt><trkpt lat="44.578740728557136" lon="9.197738516290475"><ele>1291.0</ele><time>2026-05-03T10:41:54Z</time></trkpt><trkpt lat="44.57859194363475" lon="9.197697279161343"><ele>1291.0</ele><time>2026-05-03T10:41:55Z</time></trkpt><trkpt lat="44.57844033572971" lon="9.197667097048985"><ele>1291.0</ele><time>2026-05-03T10:41:56Z</time></trkpt><trkpt lat="44.57826188112863" lon="9.197671258500883"><ele>1291.0</ele><time>2026-05-03T10:41:57Z</time></trkpt><trkpt lat="44.57809801769703" lon="9.197666926333941"><ele>1291.0</ele><time>2026-05-03T10:41:58Z</time></trkpt><trkpt lat="44.577942912098536" lon="9.19759410869321"><ele>1291.0</ele><time>2026-05-03T10:41:59Z</time></trkpt><trkpt lat="44.577785218456846" lon="9.19755516882334"><ele>1290.1999999999998</ele><time>2026-05-03T10:42:00Z</time></trkpt><trkpt lat="44.57765109925217" lon="9.19752205041797"><ele>1289.3999999999999</ele><time>2026-05-03T10:42:01Z</time></trkpt><trkpt lat="44.5775279434433" lon="9.197484469605083"><ele>1288.6</ele><time>2026-05-03T10:42:02Z</time></trkpt><trkpt lat="44.577432829996994" lon="9.197444393257442"><ele>1287.8</ele><time>2026-05-03T10:42:03Z</time></trkpt><trkpt lat="44.57736132278557" lon="9.197395211591406"><ele>1287.0</ele><time>2026-05-03T10:42:04Z</time></trkpt><trkpt lat="44.577331658804056" lon="9.197299488932726"><ele>1282.1999999999998</ele><time>2026-05-03T10:42:05Z</time></trkpt><trkpt lat="44.57733752637001" lon="9.197195109875096"><ele>1277.3999999999999</ele><time>2026-05-03T10:42:06Z</time></trkpt><trkpt lat="44.57738002759587" lon="9.197085385068986"><ele>1272.6</ele><time>2026-05-03T10:42:07Z</time></trkpt><trkpt lat="44.57749203975286" lon="9.19706000542511"><ele>1267.8</ele><time>2026-05-03T10:42:08Z</time></trkpt><trkpt lat="44.577606244339094" lon="9.197056987525832"><ele>1263.0</ele><time>2026-05-03T10:42:09Z</time></trkpt><trkpt lat="44.57773238561755" lon="9.197076505853405"><ele>1261.25</ele><time>2026-05-03T10:42:09.999Z</time></trkpt><trkpt lat="44.5778632430101" lon="9.197137141229325"><ele>1259.5</ele><time>2026-05-03T10:42:10.999Z</time></trkpt><trkpt lat="44.57798674770136" lon="9.197185301507036"><ele>1257.75</ele><time>2026-05-03T10:42:11.999Z</time></trkpt><trkpt lat="44.57810526314388" lon="9.197244474854376"><ele>1256.0</ele><time>2026-05-03T10:42:12.999Z</time></trkpt><trkpt lat="44.57821258807714" lon="9.197319445213006"><ele>1256.0</ele><time>2026-05-03T10:42:13.999Z</time></trkpt><trkpt lat="44.57832829212681" lon="9.197331229966075"><ele>1256.0</ele><time>2026-05-03T10:42:14.999Z</time></trkpt><trkpt lat="44.57846896924158" lon="9.197277198031392"><ele>1256.0</ele><time>2026-05-03T10:42:15.999Z</time></trkpt><trkpt lat="44.578621237857426" lon="9.197216945624207"><ele>1256.0</ele><time>2026-05-03T10:42:16.999Z</time></trkpt><trkpt lat="44.578792611496354" lon="9.197192151571373"><ele>1257.3333333333335</ele><time>2026-05-03T10:42:17.999Z</time></trkpt><trkpt lat="44.57895025370764" lon="9.19715037661747"><ele>1258.6666666666667</ele><time>2026-05-03T10:42:18.999Z</time></trkpt><trkpt lat="44.579108101702836" lon="9.197159489828286"><ele>1260.0</ele><time>2026-05-03T10:42:19.999Z</time></trkpt><trkpt lat="44.579250527335944" lon="9.19703736284417"><ele>1260.0</ele><time>2026-05-03T10:42:20.999Z</time></trkpt><trkpt lat="44.579391166076405" lon="9.196937684001066"><ele>1260.0</ele><time>2026-05-03T10:42:21.999Z</time></trkpt><trkpt lat="44.57952877599205" lon="9.19683238169609"><ele>1260.0</ele><time>2026-05-03T10:42:22.999Z</time></trkpt><trkpt lat="44.57967680879569" lon="9.196739832746273"><ele>1257.75</ele><time>2026-05-03T10:42:23.999Z</time></trkpt><trkpt lat="44.57979189369411" lon="9.196593942210251"><ele>1255.5</ele><time>2026-05-03T10:42:24.999Z</time></trkpt><trkpt lat="44.57990065379786" lon="9.196465410006722"><ele>1253.25</ele><time>2026-05-03T10:42:25.999Z</time></trkpt><trkpt lat="44.57998298924163" lon="9.196364979785088"><ele>1251.0</ele><time>2026-05-03T10:42:26.999Z</time></trkpt><trkpt lat="44.58003302090353" lon="9.196265191345164"><ele>1251.0</ele><time>2026-05-03T10:42:27.999Z</time></trkpt><trkpt lat="44.58005795129054" lon="9.196170547585465"><ele>1251.0</ele><time>2026-05-03T10:42:28.999Z</time></trkpt><trkpt lat="44.58001742922258" lon="9.196038461813702"><ele>1251.0</ele><time>2026-05-03T10:42:29.999Z</time></trkpt><trkpt lat="44.57992495774459" lon="9.195928273077723"><ele>1251.0</ele><time>2026-05-03T10:42:30.999Z</time></trkpt><trkpt lat="44.579809891829285" lon="9.195920450220058"><ele>1251.0</ele><time>2026-05-03T10:42:31.999Z</time></trkpt><trkpt lat="44.57966584346382" lon="9.195960921832434"><ele>1251.0</ele><time>2026-05-03T10:42:32.999Z</time></trkpt><trkpt lat="44.57952907517475" lon="9.195972098045944"><ele>1251.0</ele><time>2026-05-03T10:42:33.999Z</time></trkpt><trkpt lat="44.57940406236048" lon="9.19608101815315"><ele>1251.0</ele><time>2026-05-03T10:42:34.999Z</time></trkpt><trkpt lat="44.57928776268739" lon="9.196209825767724"><ele>1251.0</ele><time>2026-05-03T10:42:35.999Z</time></trkpt><trkpt lat="44.579173405107994" lon="9.19640466501481"><ele>1253.25</ele><time>2026-05-03T10:42:36.999Z</time></trkpt><trkpt lat="44.579054683781486" lon="9.196523306291144"><ele>1255.5</ele><time>2026-05-03T10:42:37.999Z</time></trkpt><trkpt lat="44.5788961416695" lon="9.196542010033859"><ele>1257.75</ele><time>2026-05-03T10:42:39.999Z</time></trkpt><trkpt lat="44.57875367867986" lon="9.196515650230747"><ele>1260.0</ele><time>2026-05-03T10:42:40.999Z</time></trkpt><trkpt lat="44.57860816992647" lon="9.196486467900598"><ele>1249.0</ele><time>2026-05-03T10:42:41.999Z</time></trkpt><trkpt lat="44.57844877508292" lon="9.196436215142517"><ele>1238.0</ele><time>2026-05-03T10:42:42.999Z</time></trkpt><trkpt lat="44.57828166830364" lon="9.196328299494757"><ele>1227.0</ele><time>2026-05-03T10:42:43.999Z</time></trkpt><trkpt lat="44.57810068093798" lon="9.19622203605264"><ele>1227.0</ele><time>2026-05-03T10:42:44.999Z</time></trkpt><trkpt lat="44.57793454173414" lon="9.19614067119216"><ele>1227.0</ele><time>2026-05-03T10:42:45.999Z</time></trkpt><trkpt lat="44.5777820255067" lon="9.196051196748005"><ele>1227.0</ele><time>2026-05-03T10:42:46.999Z</time></trkpt><trkpt lat="44.57763427490782" lon="9.19596217645144"><ele>1227.25</ele><time>2026-05-03T10:42:47.999Z</time></trkpt><trkpt lat="44.577492588810586" lon="9.195869272789544"><ele>1227.5</ele><time>2026-05-03T10:42:48.999Z</time></trkpt><trkpt lat="44.577383242257184" lon="9.195785511163079"><ele>1227.75</ele><time>2026-05-03T10:42:49.999Z</time></trkpt><trkpt lat="44.57726024941641" lon="9.195712830852287"><ele>1228.0</ele><time>2026-05-03T10:42:50.999Z</time></trkpt><trkpt lat="44.5771513648819" lon="9.195728398148006"><ele>1228.0</ele><time>2026-05-03T10:42:51.999Z</time></trkpt><trkpt lat="44.57702221062357" lon="9.195805735765664"><ele>1228.0</ele><time>2026-05-03T10:42:52.999Z</time></trkpt><trkpt lat="44.576862954796795" lon="9.195856313391818"><ele>1228.0</ele><time>2026-05-03T10:42:53.999Z</time></trkpt><trkpt lat="44.576688529886376" lon="9.195862951834384"><ele>1227.6666666666665</ele><time>2026-05-03T10:42:54.999Z</time></trkpt><trkpt lat="44.57653508111919" lon="9.19585613273554"><ele>1227.3333333333333</ele><time>2026-05-03T10:42:55.999Z</time></trkpt><trkpt lat="44.57637680540324" lon="9.195871514732723"><ele>1227.0</ele><time>2026-05-03T10:42:56.999Z</time></trkpt><trkpt lat="44.57622308362298" lon="9.195881183455977"><ele>1224.0</ele><time>2026-05-03T10:42:57.999Z</time></trkpt><trkpt lat="44.5760743020608" lon="9.195887139032337"><ele>1221.0</ele><time>2026-05-03T10:42:58.999Z</time></trkpt><trkpt lat="44.57596415959993" lon="9.195962542205274"><ele>1218.0</ele><time>2026-05-03T10:42:59.998Z</time></trkpt><trkpt lat="44.57584547643124" lon="9.19604793686559"><ele>1215.0</ele><time>2026-05-03T10:43:00.998Z</time></trkpt><trkpt lat="44.575737556832166" lon="9.195948602803556"><ele>1215.0</ele><time>2026-05-03T10:43:01.998Z</time></trkpt><trkpt lat="44.57563554201675" lon="9.195965211839129"><ele>1215.0</ele><time>2026-05-03T10:43:02.998Z</time></trkpt><trkpt lat="44.57551933465955" lon="9.195961540124333"><ele>1215.0</ele><time>2026-05-03T10:43:03.998Z</time></trkpt><trkpt lat="44.575444906244876" lon="9.195810066888615"><ele>1215.0</ele><time>2026-05-03T10:43:05.998Z</time></trkpt><trkpt lat="44.57540823325095" lon="9.195658039234445"><ele>1210.2</ele><time>2026-05-03T10:43:06.998Z</time></trkpt><trkpt lat="44.57535295556371" lon="9.195541766454523"><ele>1205.4</ele><time>2026-05-03T10:43:07.998Z</time></trkpt><trkpt lat="44.57525479871564" lon="9.195404157312598"><ele>1200.6</ele><time>2026-05-03T10:43:09.998Z</time></trkpt><trkpt lat="44.575174117411805" lon="9.19543338301343"><ele>1195.8</ele><time>2026-05-03T10:43:10.998Z</time></trkpt><trkpt lat="44.57510823370764" lon="9.195558830356166"><ele>1191.0</ele><time>2026-05-03T10:43:11.998Z</time></trkpt><trkpt lat="44.57503282716059" lon="9.195662868468924"><ele>1191.0</ele><time>2026-05-03T10:43:12.998Z</time></trkpt><trkpt lat="44.5749350859327" lon="9.195713816357774"><ele>1191.0</ele><time>2026-05-03T10:43:13.998Z</time></trkpt><trkpt lat="44.5748520300635" lon="9.195729430396943"><ele>1191.0</ele><time>2026-05-03T10:43:14.998Z</time></trkpt><trkpt lat="44.57472547000741" lon="9.195625453083267"><ele>1191.0</ele><time>2026-05-03T10:43:16.998Z</time></trkpt><trkpt lat="44.574655344903135" lon="9.195476086068116"><ele>1191.0</ele><time>2026-05-03T10:43:17.998Z</time></trkpt><trkpt lat="44.57461349994962" lon="9.195343604219675"><ele>1191.0</ele><time>2026-05-03T10:43:18.998Z</time></trkpt><trkpt lat="44.57458174945769" lon="9.19525186307718"><ele>1191.0</ele><time>2026-05-03T10:43:19.998Z</time></trkpt><trkpt lat="44.57449542019662" lon="9.195152926842157"><ele>1191.0</ele><time>2026-05-03T10:43:21.998Z</time></trkpt><trkpt lat="44.57440569940442" lon="9.195116803303412"><ele>1191.0</ele><time>2026-05-03T10:43:22.998Z</time></trkpt><trkpt lat="44.574314139400045" lon="9.19515998969546"><ele>1192.8</ele><time>2026-05-03T10:43:23.998Z</time></trkpt><trkpt lat="44.57424334365838" lon="9.195177755184382"><ele>1194.6</ele><time>2026-05-03T10:43:24.998Z</time></trkpt><trkpt lat="44.57418470527083" lon="9.19511917637723"><ele>1196.4</ele><time>2026-05-03T10:43:26.998Z</time></trkpt><trkpt lat="44.574187545149286" lon="9.194967186066634"><ele>1198.2</ele><time>2026-05-03T10:43:28.998Z</time></trkpt><trkpt lat="44.57413175949845" lon="9.194787335986794"><ele>1200.0</ele><time>2026-05-03T10:43:30.998Z</time></trkpt><trkpt lat="44.57410331975465" lon="9.194688854703196"><ele>1196.5</ele><time>2026-05-03T10:43:32Z</time></trkpt><trkpt lat="44.574044740209445" lon="9.194625863114242"><ele>1193.0</ele><time>2026-05-03T10:43:33Z</time></trkpt><trkpt lat="44.573955080322975" lon="9.194602314035905"><ele>1189.5</ele><time>2026-05-03T10:43:34Z</time></trkpt><trkpt lat="44.57389037420417" lon="9.19455099997553"><ele>1186.0</ele><time>2026-05-03T10:43:35Z</time></trkpt><trkpt lat="44.57385242383251" lon="9.1944660484932"><ele>1182.5</ele><time>2026-05-03T10:43:36Z</time></trkpt><trkpt lat="44.57380044852024" lon="9.194394997013573"><ele>1179.0</ele><time>2026-05-03T10:43:37Z</time></trkpt><trkpt lat="44.57373821005005" lon="9.194359581262086"><ele>1178.5</ele><time>2026-05-03T10:43:38Z</time></trkpt><trkpt lat="44.57367463569415" lon="9.194328879312744"><ele>1178.0</ele><time>2026-05-03T10:43:39Z</time></trkpt><trkpt lat="44.57358693114674" lon="9.194409093956624"><ele>1177.5</ele><time>2026-05-03T10:43:40Z</time></trkpt><trkpt lat="44.57351365178037" lon="9.194483052230101"><ele>1177.0</ele><time>2026-05-03T10:43:41Z</time></trkpt><trkpt lat="44.57344298818849" lon="9.19452483063381"><ele>1176.5</ele><time>2026-05-03T10:43:42Z</time></trkpt><trkpt lat="44.57336730675079" lon="9.194493911733094"><ele>1176.0</ele><time>2026-05-03T10:43:43Z</time></trkpt><trkpt lat="44.573272707904685" lon="9.194493911727827"><ele>1176.0</ele><time>2026-05-03T10:43:44Z</time></trkpt><trkpt lat="44.573164927662646" lon="9.194493579004194"><ele>1176.0</ele><time>2026-05-03T10:43:45Z</time></trkpt><trkpt lat="44.57305358997934" lon="9.194472109133558"><ele>1176.0</ele><time>2026-05-03T10:43:46Z</time></trkpt><trkpt lat="44.57295159801183" lon="9.194397183901751"><ele>1176.0</ele><time>2026-05-03T10:43:47Z</time></trkpt><trkpt lat="44.57285200202635" lon="9.19435634061636"><ele>1176.0</ele><time>2026-05-03T10:43:48Z</time></trkpt><trkpt lat="44.57275707990078" lon="9.194300719062106"><ele>1175.8</ele><time>2026-05-03T10:43:49Z</time></trkpt><trkpt lat="44.57267416259454" lon="9.194217354337244"><ele>1175.6</ele><time>2026-05-03T10:43:50Z</time></trkpt><trkpt lat="44.57259724075834" lon="9.19414891367808"><ele>1175.4</ele><time>2026-05-03T10:43:51Z</time></trkpt><trkpt lat="44.572531154264055" lon="9.194071090338513"><ele>1175.2</ele><time>2026-05-03T10:43:52Z</time></trkpt><trkpt lat="44.572453668584046" lon="9.194051011353483"><ele>1175.0</ele><time>2026-05-03T10:43:53Z</time></trkpt><trkpt lat="44.5723629670338" lon="9.194081085488857"><ele>1175.0</ele><time>2026-05-03T10:43:54Z</time></trkpt><trkpt lat="44.57226222620859" lon="9.194133388370618"><ele>1175.0</ele><time>2026-05-03T10:43:55Z</time></trkpt><trkpt lat="44.572168676487244" lon="9.194138965757691"><ele>1175.0</ele><time>2026-05-03T10:43:56Z</time></trkpt><trkpt lat="44.5720840496966" lon="9.194159651207627"><ele>1175.0</ele><time>2026-05-03T10:43:57Z</time></trkpt><trkpt lat="44.5719970107551" lon="9.194108473805779"><ele>1175.0</ele><time>2026-05-03T10:43:58Z</time></trkpt><trkpt lat="44.571909906997924" lon="9.19409292389985"><ele>1174.0</ele><time>2026-05-03T10:43:59Z</time></trkpt><trkpt lat="44.57182956893758" lon="9.19409406842715"><ele>1173.0</ele><time>2026-05-03T10:44:00Z</time></trkpt><trkpt lat="44.57175000286159" lon="9.194145780608547"><ele>1172.0</ele><time>2026-05-03T10:44:01Z</time></trkpt><trkpt lat="44.57168678103681" lon="9.194247198955393"><ele>1171.0</ele><time>2026-05-03T10:44:02Z</time></trkpt><trkpt lat="44.57161266572824" lon="9.194307619493058"><ele>1170.0</ele><time>2026-05-03T10:44:03Z</time></trkpt><trkpt lat="44.57154582175103" lon="9.194351536762126"><ele>1169.0</ele><time>2026-05-03T10:44:04Z</time></trkpt><trkpt lat="44.571474103621384" lon="9.194345548787883"><ele>1169.0</ele><time>2026-05-03T10:44:05Z</time></trkpt><trkpt lat="44.57138544348997" lon="9.194338153291758"><ele>1169.0</ele><time>2026-05-03T10:44:06Z</time></trkpt><trkpt lat="44.571301422510466" lon="9.194320645540447"><ele>1169.0</ele><time>2026-05-03T10:44:07Z</time></trkpt><trkpt lat="44.57122961786431" lon="9.194247862066847"><ele>1169.0</ele><time>2026-05-03T10:44:08Z</time></trkpt><trkpt lat="44.571178912233115" lon="9.194145214098683"><ele>1169.0</ele><time>2026-05-03T10:44:09Z</time></trkpt><trkpt lat="44.57116655688997" lon="9.194022781622404"><ele>1169.0</ele><time>2026-05-03T10:44:10Z</time></trkpt><trkpt lat="44.5711818053909" lon="9.19390039234453"><ele>1167.5</ele><time>2026-05-03T10:44:10.999Z</time></trkpt><trkpt lat="44.571160914691546" lon="9.193728470137334"><ele>1166.0</ele><time>2026-05-03T10:44:12.999Z</time></trkpt><trkpt lat="44.57111218464129" lon="9.193660328900233"><ele>1164.5</ele><time>2026-05-03T10:44:13.999Z</time></trkpt><trkpt lat="44.57104038635704" lon="9.193613045584772"><ele>1163.0</ele><time>2026-05-03T10:44:14.999Z</time></trkpt><trkpt lat="44.57096388616487" lon="9.1935888163994"><ele>1161.5</ele><time>2026-05-03T10:44:15.999Z</time></trkpt><trkpt lat="44.57089499816174" lon="9.193555308076231"><ele>1160.0</ele><time>2026-05-03T10:44:16.999Z</time></trkpt><trkpt lat="44.57084925562521" lon="9.193477521851685"><ele>1160.0</ele><time>2026-05-03T10:44:17.999Z</time></trkpt><trkpt lat="44.57085679796704" lon="9.193355205263208"><ele>1160.0</ele><time>2026-05-03T10:44:18.999Z</time></trkpt><trkpt lat="44.57086439881791" lon="9.193238338268806"><ele>1160.0</ele><time>2026-05-03T10:44:19.999Z</time></trkpt><trkpt lat="44.57085970215496" lon="9.19311905286097"><ele>1160.0</ele><time>2026-05-03T10:44:20.999Z</time></trkpt><trkpt lat="44.57085373138796" lon="9.193011542696235"><ele>1160.0</ele><time>2026-05-03T10:44:21.999Z</time></trkpt><trkpt lat="44.57080947327006" lon="9.192909121754816"><ele>1160.0</ele><time>2026-05-03T10:44:22.999Z</time></trkpt><trkpt lat="44.57075210011555" lon="9.192821787337161"><ele>1160.6666666666667</ele><time>2026-05-03T10:44:23.999Z</time></trkpt><trkpt lat="44.57071760366888" lon="9.192733871500192"><ele>1161.3333333333335</ele><time>2026-05-03T10:44:24.999Z</time></trkpt><trkpt lat="44.57064561380325" lon="9.192696375802912"><ele>1162.0</ele><time>2026-05-03T10:44:25.999Z</time></trkpt><trkpt lat="44.570538959633126" lon="9.192713051711873"><ele>1162.6666666666667</ele><time>2026-05-03T10:44:26.999Z</time></trkpt><trkpt lat="44.5704311105725" lon="9.19271353970175"><ele>1163.3333333333333</ele><time>2026-05-03T10:44:27.999Z</time></trkpt><trkpt lat="44.57035210906996" lon="9.192691962765013"><ele>1164.0</ele><time>2026-05-03T10:44:28.999Z</time></trkpt><trkpt lat="44.570303138304965" lon="9.19255002677593"><ele>1164.0</ele><time>2026-05-03T10:44:30.999Z</time></trkpt><trkpt lat="44.570289864417646" lon="9.19241170186947"><ele>1164.0</ele><time>2026-05-03T10:44:31.999Z</time></trkpt><trkpt lat="44.57025666262812" lon="9.19223956543932"><ele>1164.0</ele><time>2026-05-03T10:44:32.999Z</time></trkpt><trkpt lat="44.57020768020751" lon="9.192045538432085"><ele>1164.0</ele><time>2026-05-03T10:44:33.999Z</time></trkpt><trkpt lat="44.57012971249704" lon="9.19182468604336"><ele>1159.5</ele><time>2026-05-03T10:44:34.999Z</time></trkpt><trkpt lat="44.57007018183218" lon="9.19165318647542"><ele>1155.0</ele><time>2026-05-03T10:44:35.999Z</time></trkpt><trkpt lat="44.57004618059768" lon="9.191452977268527"><ele>1150.5</ele><time>2026-05-03T10:44:36.999Z</time></trkpt><trkpt lat="44.56998583529173" lon="9.191324699693071"><ele>1146.0</ele><time>2026-05-03T10:44:37.999Z</time></trkpt><trkpt lat="44.56989924257582" lon="9.191297694278518"><ele>1142.0</ele><time>2026-05-03T10:44:38.999Z</time></trkpt><trkpt lat="44.56984163292251" lon="9.191187425701699"><ele>1138.0</ele><time>2026-05-03T10:44:39.999Z</time></trkpt><trkpt lat="44.569820578486485" lon="9.191042963526508"><ele>1134.0</ele><time>2026-05-03T10:44:40.999Z</time></trkpt><trkpt lat="44.56979006703418" lon="9.19087856808059"><ele>1130.0</ele><time>2026-05-03T10:44:41.999Z</time></trkpt><trkpt lat="44.56978410212569" lon="9.190709196986832"><ele>1126.0</ele><time>2026-05-03T10:44:42.999Z</time></trkpt><trkpt lat="44.56977777766971" lon="9.190543605798213"><ele>1126.25</ele><time>2026-05-03T10:44:43.999Z</time></trkpt><trkpt lat="44.569734891469174" lon="9.19038304438738"><ele>1126.5</ele><time>2026-05-03T10:44:44.999Z</time></trkpt><trkpt lat="44.569671290014384" lon="9.190228661262774"><ele>1126.75</ele><time>2026-05-03T10:44:45.999Z</time></trkpt><trkpt lat="44.56956673029739" lon="9.190101492011282"><ele>1127.0</ele><time>2026-05-03T10:44:46.999Z</time></trkpt><trkpt lat="44.569455436125374" lon="9.190009864778032"><ele>1127.0</ele><time>2026-05-03T10:44:47.999Z</time></trkpt><trkpt lat="44.56932371589171" lon="9.189929967394503"><ele>1127.0</ele><time>2026-05-03T10:44:48.999Z</time></trkpt><trkpt lat="44.56918958283381" lon="9.189843675960867"><ele>1127.0</ele><time>2026-05-03T10:44:49.999Z</time></trkpt><trkpt lat="44.569075992279" lon="9.189750257369543"><ele>1127.0</ele><time>2026-05-03T10:44:50.999Z</time></trkpt><trkpt lat="44.5690031648734" lon="9.189623689895797"><ele>1121.0</ele><time>2026-05-03T10:44:51.999Z</time></trkpt><trkpt lat="44.568904627256586" lon="9.189531504660815"><ele>1115.0</ele><time>2026-05-03T10:44:52.999Z</time></trkpt><trkpt lat="44.56878156303415" lon="9.189495367822245"><ele>1109.0</ele><time>2026-05-03T10:44:53.999Z</time></trkpt><trkpt lat="44.568655301355015" lon="9.18945278120777"><ele>1103.0</ele><time>2026-05-03T10:44:54.999Z</time></trkpt><trkpt lat="44.56852627255981" lon="9.189414333793783"><ele>1103.0</ele><time>2026-05-03T10:44:55.999Z</time></trkpt><trkpt lat="44.56840015306915" lon="9.189409682825843"><ele>1103.0</ele><time>2026-05-03T10:44:56.999Z</time></trkpt><trkpt lat="44.56828322837965" lon="9.18945953703929"><ele>1103.0</ele><time>2026-05-03T10:44:57.999Z</time></trkpt><trkpt lat="44.56819073232651" lon="9.189548902882155"><ele>1103.0</ele><time>2026-05-03T10:44:58.999Z</time></trkpt><trkpt lat="44.56809005396923" lon="9.189657533551973"><ele>1103.0</ele><time>2026-05-03T10:44:59.999Z</time></trkpt><trkpt lat="44.567977187195375" lon="9.189789879287732"><ele>1103.0</ele><time>2026-05-03T10:45:00.999Z</time></trkpt><trkpt lat="44.56785385799847" lon="9.189893146301692"><ele>1103.0</ele><time>2026-05-03T10:45:01.999Z</time></trkpt><trkpt lat="44.56774149751984" lon="9.189947964904398"><ele>1103.0</ele><time>2026-05-03T10:45:02.999Z</time></trkpt><trkpt lat="44.56762197189775" lon="9.18999221526991"><ele>1103.5</ele><time>2026-05-03T10:45:03.998Z</time></trkpt><trkpt lat="44.567506019171255" lon="9.189996615281089"><ele>1104.0</ele><time>2026-05-03T10:45:04.998Z</time></trkpt><trkpt lat="44.56741268929155" lon="9.189957830270655"><ele>1104.5</ele><time>2026-05-03T10:45:05.998Z</time></trkpt><trkpt lat="44.567306460185456" lon="9.189882974357753"><ele>1105.0</ele><time>2026-05-03T10:45:06.998Z</time></trkpt><trkpt lat="44.56719377023214" lon="9.18982665875506"><ele>1103.5</ele><time>2026-05-03T10:45:07.998Z</time></trkpt><trkpt lat="44.56709514596008" lon="9.18984099151892"><ele>1102.0</ele><time>2026-05-03T10:45:08.998Z</time></trkpt><trkpt lat="44.566987982529824" lon="9.189929413419009"><ele>1100.5</ele><time>2026-05-03T10:45:09.998Z</time></trkpt><trkpt lat="44.566882405456695" lon="9.190026176123512"><ele>1099.0</ele><time>2026-05-03T10:45:10.998Z</time></trkpt><trkpt lat="44.56676384733666" lon="9.190028625928461"><ele>1099.0</ele><time>2026-05-03T10:45:11.998Z</time></trkpt><trkpt lat="44.566628195015944" lon="9.189847704686116"><ele>1099.0</ele><time>2026-05-03T10:45:12.998Z</time></trkpt><trkpt lat="44.566507092432914" lon="9.189810900246753"><ele>1099.0</ele><time>2026-05-03T10:45:13.998Z</time></trkpt><trkpt lat="44.566363594777684" lon="9.189788173189228"><ele>1096.75</ele><time>2026-05-03T10:45:14.998Z</time></trkpt><trkpt lat="44.56623013681923" lon="9.189793773233566"><ele>1094.5</ele><time>2026-05-03T10:45:15.998Z</time></trkpt><trkpt lat="44.56610273695454" lon="9.189806551510639"><ele>1092.25</ele><time>2026-05-03T10:45:16.998Z</time></trkpt><trkpt lat="44.56596352895769" lon="9.189835067401125"><ele>1090.0</ele><time>2026-05-03T10:45:17.998Z</time></trkpt><trkpt lat="44.56582008610618" lon="9.189921561588536"><ele>1090.0</ele><time>2026-05-03T10:45:18.998Z</time></trkpt><trkpt lat="44.56567288792573" lon="9.190058048960719"><ele>1090.0</ele><time>2026-05-03T10:45:19.998Z</time></trkpt><trkpt lat="44.5655152624513" lon="9.19015246781145"><ele>1090.0</ele><time>2026-05-03T10:45:20.998Z</time></trkpt><trkpt lat="44.56534658770649" lon="9.190238113972907"><ele>1085.0</ele><time>2026-05-03T10:45:21.998Z</time></trkpt><trkpt lat="44.56514934079602" lon="9.190268747773551"><ele>1080.0</ele><time>2026-05-03T10:45:22.998Z</time></trkpt><trkpt lat="44.56499538625262" lon="9.190274385308077"><ele>1075.0</ele><time>2026-05-03T10:45:23.998Z</time></trkpt><trkpt lat="44.56484039922602" lon="9.190297406480626"><ele>1075.0</ele><time>2026-05-03T10:45:24.998Z</time></trkpt><trkpt lat="44.56467717918779" lon="9.190325194451313"><ele>1075.0</ele><time>2026-05-03T10:45:25.998Z</time></trkpt><trkpt lat="44.56451819226695" lon="9.190365765686103"><ele>1075.0</ele><time>2026-05-03T10:45:26.998Z</time></trkpt><trkpt lat="44.56437236478728" lon="9.19039257792905"><ele>1073.25</ele><time>2026-05-03T10:45:27.998Z</time></trkpt><trkpt lat="44.56422356325494" lon="9.190374451846452"><ele>1071.5</ele><time>2026-05-03T10:45:28.998Z</time></trkpt><trkpt lat="44.56409210254914" lon="9.190321508400572"><ele>1069.75</ele><time>2026-05-03T10:45:29.998Z</time></trkpt><trkpt lat="44.56395806743242" lon="9.190226533950806"><ele>1068.0</ele><time>2026-05-03T10:45:30.998Z</time></trkpt><trkpt lat="44.56384037509395" lon="9.190113131462462"><ele>1068.0</ele><time>2026-05-03T10:45:31.998Z</time></trkpt><trkpt lat="44.56373579262686" lon="9.189998025465245"><ele>1068.0</ele><time>2026-05-03T10:45:32.998Z</time></trkpt><trkpt lat="44.563667995869594" lon="9.189893981893313"><ele>1068.0</ele><time>2026-05-03T10:45:33.998Z</time></trkpt><trkpt lat="44.563625453382485" lon="9.189796216158909"><ele>1068.0</ele><time>2026-05-03T10:45:34.998Z</time></trkpt><trkpt lat="44.56363637813559" lon="9.189702233000808"><ele>1068.0</ele><time>2026-05-03T10:45:35.998Z</time></trkpt><trkpt lat="44.563679302393695" lon="9.189599421418963"><ele>1064.0</ele><time>2026-05-03T10:45:36.998Z</time></trkpt><trkpt lat="44.56372832637802" lon="9.189510852691056"><ele>1060.0</ele><time>2026-05-03T10:45:38Z</time></trkpt><trkpt lat="44.56384592256618" lon="9.189668593002235"><ele>1056.0</ele><time>2026-05-03T10:45:39Z</time></trkpt><trkpt lat="44.56395121300607" lon="9.189720871749772"><ele>1052.0</ele><time>2026-05-03T10:45:40Z</time></trkpt><trkpt lat="44.56408290885662" lon="9.189839312868365"><ele>1052.0</ele><time>2026-05-03T10:45:41Z</time></trkpt><trkpt lat="44.56418071744981" lon="9.189908142551582"><ele>1052.0</ele><time>2026-05-03T10:45:42Z</time></trkpt><trkpt lat="44.564272767681196" lon="9.189908842909844"><ele>1052.0</ele><time>2026-05-03T10:45:43Z</time></trkpt><trkpt lat="44.56431373370573" lon="9.189794915920622"><ele>1052.0</ele><time>2026-05-03T10:45:44Z</time></trkpt><trkpt lat="44.564356112758446" lon="9.189668642355107"><ele>1052.0</ele><time>2026-05-03T10:45:45Z</time></trkpt><trkpt lat="44.56438018887487" lon="9.189500491991769"><ele>1052.0</ele><time>2026-05-03T10:45:46Z</time></trkpt><trkpt lat="44.564453299429616" lon="9.18939407089798"><ele>1052.0</ele><time>2026-05-03T10:45:47Z</time></trkpt><trkpt lat="44.56455248102863" lon="9.189336925321674"><ele>1052.0</ele><time>2026-05-03T10:45:48Z</time></trkpt><trkpt lat="44.56469094750727" lon="9.189273158565323"><ele>1052.0</ele><time>2026-05-03T10:45:49Z</time></trkpt><trkpt lat="44.564820019130764" lon="9.189227216940992"><ele>1052.25</ele><time>2026-05-03T10:45:50Z</time></trkpt><trkpt lat="44.56496297329987" lon="9.189197268097049"><ele>1052.5</ele><time>2026-05-03T10:45:51Z</time></trkpt><trkpt lat="44.56511265711241" lon="9.189129494580353"><ele>1052.75</ele><time>2026-05-03T10:45:52Z</time></trkpt><trkpt lat="44.56524062358616" lon="9.189033883206235"><ele>1053.0</ele><time>2026-05-03T10:45:53Z</time></trkpt><trkpt lat="44.565354682688216" lon="9.188911820162543"><ele>1050.25</ele><time>2026-05-03T10:45:54Z</time></trkpt><trkpt lat="44.565446589821406" lon="9.188780436795751"><ele>1047.5</ele><time>2026-05-03T10:45:55Z</time></trkpt><trkpt lat="44.56551744333307" lon="9.188624540027917"><ele>1044.75</ele><time>2026-05-03T10:45:56Z</time></trkpt><trkpt lat="44.56555726988953" lon="9.188413270448567"><ele>1042.0</ele><time>2026-05-03T10:45:57Z</time></trkpt><trkpt lat="44.56566771534388" lon="9.188230535488737"><ele>1037.3333333333333</ele><time>2026-05-03T10:45:58Z</time></trkpt><trkpt lat="44.56575120427631" lon="9.1880379723999"><ele>1032.6666666666667</ele><time>2026-05-03T10:45:59Z</time></trkpt><trkpt lat="44.565832628154354" lon="9.187858715697324"><ele>1028.0</ele><time>2026-05-03T10:46:00Z</time></trkpt><trkpt lat="44.5659110512515" lon="9.187676694539865"><ele>1028.0</ele><time>2026-05-03T10:46:01Z</time></trkpt><trkpt lat="44.56599440415299" lon="9.18753336174553"><ele>1028.0</ele><time>2026-05-03T10:46:02Z</time></trkpt><trkpt lat="44.56607297242219" lon="9.187476879394232"><ele>1028.0</ele><time>2026-05-03T10:46:03Z</time></trkpt><trkpt lat="44.56618408745744" lon="9.187452893810475"><ele>1028.0</ele><time>2026-05-03T10:46:04Z</time></trkpt><trkpt lat="44.56631495756641" lon="9.187407149643118"><ele>1030.5</ele><time>2026-05-03T10:46:05Z</time></trkpt><trkpt lat="44.566469730283345" lon="9.187384158552094"><ele>1033.0</ele><time>2026-05-03T10:46:06Z</time></trkpt><trkpt lat="44.56660206937183" lon="9.18737003720641"><ele>1035.5</ele><time>2026-05-03T10:46:07Z</time></trkpt><trkpt lat="44.566719208177254" lon="9.187368308319865"><ele>1038.0</ele><time>2026-05-03T10:46:08Z</time></trkpt><trkpt lat="44.566834472315065" lon="9.187365031802827"><ele>1038.0</ele><time>2026-05-03T10:46:09Z</time></trkpt><trkpt lat="44.56692330540583" lon="9.187351526874156"><ele>1038.0</ele><time>2026-05-03T10:46:10Z</time></trkpt><trkpt lat="44.56691560861841" lon="9.1871546614349"><ele>1038.0</ele><time>2026-05-03T10:46:12Z</time></trkpt><trkpt lat="44.566851816609116" lon="9.187092624931946"><ele>1038.0</ele><time>2026-05-03T10:46:13Z</time></trkpt><trkpt lat="44.566736806675195" lon="9.187028835745648"><ele>1038.0</ele><time>2026-05-03T10:46:14Z</time></trkpt><trkpt lat="44.566631184206905" lon="9.186986949880422"><ele>1033.5</ele><time>2026-05-03T10:46:15Z</time></trkpt><trkpt lat="44.56649586829275" lon="9.186922554394359"><ele>1029.0</ele><time>2026-05-03T10:46:16Z</time></trkpt><trkpt lat="44.566352213019904" lon="9.186855900465499"><ele>1024.5</ele><time>2026-05-03T10:46:17Z</time></trkpt><trkpt lat="44.566214825938246" lon="9.186801537261047"><ele>1020.0</ele><time>2026-05-03T10:46:18Z</time></trkpt><trkpt lat="44.56609677941206" lon="9.186729166089469"><ele>1018.5</ele><time>2026-05-03T10:46:19Z</time></trkpt><trkpt lat="44.56597067129328" lon="9.186712248409622"><ele>1017.0</ele><time>2026-05-03T10:46:20Z</time></trkpt><trkpt lat="44.565849495256906" lon="9.186716241540257"><ele>1015.5</ele><time>2026-05-03T10:46:20.999Z</time></trkpt><trkpt lat="44.56572637711811" lon="9.18679374700981"><ele>1014.0</ele><time>2026-05-03T10:46:21.999Z</time></trkpt><trkpt lat="44.56561197450423" lon="9.186934074817259"><ele>1014.0</ele><time>2026-05-03T10:46:22.999Z</time></trkpt><trkpt lat="44.56551609740383" lon="9.187083804138343"><ele>1014.0</ele><time>2026-05-03T10:46:23.999Z</time></trkpt><trkpt lat="44.56539641137759" lon="9.187139098828432"><ele>1014.0</ele><time>2026-05-03T10:46:24.999Z</time></trkpt><trkpt lat="44.565304451756205" lon="9.187230519001279"><ele>1014.0</ele><time>2026-05-03T10:46:25.999Z</time></trkpt><trkpt lat="44.56522741493704" lon="9.187347516514256"><ele>1012.75</ele><time>2026-05-03T10:46:26.999Z</time></trkpt><trkpt lat="44.56517266641558" lon="9.187521536569259"><ele>1011.5</ele><time>2026-05-03T10:46:27.999Z</time></trkpt><trkpt lat="44.56513559562571" lon="9.187690613308277"><ele>1010.25</ele><time>2026-05-03T10:46:28.999Z</time></trkpt><trkpt lat="44.56510324908856" lon="9.18784763931706"><ele>1009.0</ele><time>2026-05-03T10:46:29.999Z</time></trkpt><trkpt lat="44.565037110880965" lon="9.187944774346267"><ele>1009.0</ele><time>2026-05-03T10:46:30.999Z</time></trkpt><trkpt lat="44.56497002907554" lon="9.18799249805786"><ele>1009.0000000000001</ele><time>2026-05-03T10:46:31.999Z</time></trkpt><trkpt lat="44.56488649272452" lon="9.187935311404585"><ele>1009.0000000000001</ele><time>2026-05-03T10:46:32.999Z</time></trkpt><trkpt lat="44.56480834070173" lon="9.187874024469624"><ele>1009.0</ele><time>2026-05-03T10:46:33.999Z</time></trkpt><trkpt lat="44.56475896455882" lon="9.187767492783012"><ele>1009.0</ele><time>2026-05-03T10:46:34.999Z</time></trkpt><trkpt lat="44.56466440466745" lon="9.18763636142782"><ele>1009.0</ele><time>2026-05-03T10:46:35.999Z</time></trkpt><trkpt lat="44.564584937600564" lon="9.18751282329044"><ele>1009.0</ele><time>2026-05-03T10:46:36.999Z</time></trkpt><trkpt lat="44.5644831315518" lon="9.187413238467448"><ele>1009.0</ele><time>2026-05-03T10:46:37.999Z</time></trkpt><trkpt lat="44.564386144695504" lon="9.187321529756579"><ele>1009.0</ele><time>2026-05-03T10:46:38.999Z</time></trkpt><trkpt lat="44.56430175272045" lon="9.187200754356573"><ele>1004.0</ele><time>2026-05-03T10:46:39.999Z</time></trkpt><trkpt lat="44.56417178128899" lon="9.18714101571901"><ele>999.0</ele><time>2026-05-03T10:46:40.999Z</time></trkpt><trkpt lat="44.5640856607034" lon="9.187081213897281"><ele>994.0</ele><time>2026-05-03T10:46:41.999Z</time></trkpt><trkpt lat="44.56396643242267" lon="9.187093670963199"><ele>989.0</ele><time>2026-05-03T10:46:42.999Z</time></trkpt><trkpt lat="44.5638418284037" lon="9.18706199845832"><ele>989.0</ele><time>2026-05-03T10:46:43.999Z</time></trkpt><trkpt lat="44.56374709492553" lon="9.187036354281622"><ele>989.0000000000001</ele><time>2026-05-03T10:46:44.999Z</time></trkpt><trkpt lat="44.56365733579809" lon="9.186985590601962"><ele>989.0000000000001</ele><time>2026-05-03T10:46:45.999Z</time></trkpt><trkpt lat="44.56356765768025" lon="9.18691253606762"><ele>989.0</ele><time>2026-05-03T10:46:46.999Z</time></trkpt><trkpt lat="44.56347319635588" lon="9.186858114709326"><ele>989.0</ele><time>2026-05-03T10:46:47.999Z</time></trkpt><trkpt lat="44.56339282001561" lon="9.18680482595688"><ele>989.0</ele><time>2026-05-03T10:46:48.999Z</time></trkpt><trkpt lat="44.563337653832875" lon="9.186743114540107"><ele>989.0000000000001</ele><time>2026-05-03T10:46:49.999Z</time></trkpt><trkpt lat="44.56331060901737" lon="9.18665368116051"><ele>989.0000000000001</ele><time>2026-05-03T10:46:51.999Z</time></trkpt><trkpt lat="44.56319510564608" lon="9.18659578669753"><ele>989.0</ele><time>2026-05-03T10:46:53.999Z</time></trkpt><trkpt lat="44.56311301984393" lon="9.186530282058477"><ele>989.0</ele><time>2026-05-03T10:46:54.999Z</time></trkpt><trkpt lat="44.56300831759043" lon="9.186521035921398"><ele>985.0</ele><time>2026-05-03T10:46:55.999Z</time></trkpt><trkpt lat="44.56289359444228" lon="9.186504951105938"><ele>981.0</ele><time>2026-05-03T10:46:56.999Z</time></trkpt><trkpt lat="44.562780902265224" lon="9.18644324676682"><ele>977.0</ele><time>2026-05-03T10:46:57.999Z</time></trkpt><trkpt lat="44.56266407432311" lon="9.18639265308481"><ele>973.0</ele><time>2026-05-03T10:46:58.999Z</time></trkpt><trkpt lat="44.56253698196217" lon="9.186379127770964"><ele>972.0</ele><time>2026-05-03T10:46:59.999Z</time></trkpt><trkpt lat="44.5623930926411" lon="9.186363978094825"><ele>971.0</ele><time>2026-05-03T10:47:00.999Z</time></trkpt><trkpt lat="44.56223265642695" lon="9.186341471670218"><ele>970.0</ele><time>2026-05-03T10:47:01.999Z</time></trkpt><trkpt lat="44.562068133255465" lon="9.186317723152113"><ele>970.75</ele><time>2026-05-03T10:47:02.999Z</time></trkpt><trkpt lat="44.561914487443524" lon="9.186298241966728"><ele>971.5</ele><time>2026-05-03T10:47:03.999Z</time></trkpt><trkpt lat="44.561774525982145" lon="9.186279770876666"><ele>972.25</ele><time>2026-05-03T10:47:04.999Z</time></trkpt><trkpt lat="44.56164283189834" lon="9.186252161714725"><ele>973.0</ele><time>2026-05-03T10:47:05.999Z</time></trkpt><trkpt lat="44.561531665614055" lon="9.186220139370981"><ele>973.0</ele><time>2026-05-03T10:47:06.999Z</time></trkpt><trkpt lat="44.561453852965904" lon="9.186129973892257"><ele>973.0</ele><time>2026-05-03T10:47:07.999Z</time></trkpt><trkpt lat="44.5614083188494" lon="9.18597036909202"><ele>973.0</ele><time>2026-05-03T10:47:08.999Z</time></trkpt><trkpt lat="44.56133471136984" lon="9.1857731692339"><ele>973.0</ele><time>2026-05-03T10:47:09.999Z</time></trkpt><trkpt lat="44.56126768867509" lon="9.185591775106595"><ele>979.5</ele><time>2026-05-03T10:47:10.999Z</time></trkpt><trkpt lat="44.56119365489611" lon="9.185410788707545"><ele>986.0</ele><time>2026-05-03T10:47:11.999Z</time></trkpt><trkpt lat="44.56116371766333" lon="9.185201472380992"><ele>992.5</ele><time>2026-05-03T10:47:12.999Z</time></trkpt><trkpt lat="44.561112315824175" lon="9.185013680641731"><ele>999.0</ele><time>2026-05-03T10:47:13.999Z</time></trkpt><trkpt lat="44.561081894870775" lon="9.184850237571503"><ele>993.75</ele><time>2026-05-03T10:47:14.999Z</time></trkpt><trkpt lat="44.56104249246646" lon="9.184689046062823"><ele>988.5</ele><time>2026-05-03T10:47:15.999Z</time></trkpt><trkpt lat="44.56098294046136" lon="9.184536018691942"><ele>983.25</ele><time>2026-05-03T10:47:16.999Z</time></trkpt><trkpt lat="44.56089729171587" lon="9.18438816951354"><ele>978.0</ele><time>2026-05-03T10:47:17.998Z</time></trkpt><trkpt lat="44.56078477431498" lon="9.184262481775026"><ele>978.0</ele><time>2026-05-03T10:47:18.998Z</time></trkpt><trkpt lat="44.5606491373846" lon="9.184152229007815"><ele>978.0</ele><time>2026-05-03T10:47:19.998Z</time></trkpt><trkpt lat="44.56050955625086" lon="9.184059217413127"><ele>978.0</ele><time>2026-05-03T10:47:20.998Z</time></trkpt><trkpt lat="44.56035078460342" lon="9.18399344132334"><ele>981.25</ele><time>2026-05-03T10:47:21.998Z</time></trkpt><trkpt lat="44.5601859829526" lon="9.183973013886476"><ele>984.5</ele><time>2026-05-03T10:47:22.998Z</time></trkpt><trkpt lat="44.56003279657389" lon="9.183968362988509"><ele>987.75</ele><time>2026-05-03T10:47:23.998Z</time></trkpt><trkpt lat="44.559908941104375" lon="9.183994807800342"><ele>991.0</ele><time>2026-05-03T10:47:24.998Z</time></trkpt><trkpt lat="44.55980832385401" lon="9.184078192831008"><ele>991.0</ele><time>2026-05-03T10:47:25.998Z</time></trkpt><trkpt lat="44.55972105867713" lon="9.18423496599328"><ele>991.0</ele><time>2026-05-03T10:47:26.998Z</time></trkpt><trkpt lat="44.559633195906834" lon="9.184432859455304"><ele>991.0</ele><time>2026-05-03T10:47:27.998Z</time></trkpt><trkpt lat="44.55951419038287" lon="9.184604890286105"><ele>992.6666666666666</ele><time>2026-05-03T10:47:28.998Z</time></trkpt><trkpt lat="44.55940237232144" lon="9.184765383089255"><ele>994.3333333333333</ele><time>2026-05-03T10:47:29.998Z</time></trkpt><trkpt lat="44.55928201414652" lon="9.184905947935222"><ele>996.0</ele><time>2026-05-03T10:47:30.998Z</time></trkpt><trkpt lat="44.55913108624028" lon="9.184981857131291"><ele>996.0</ele><time>2026-05-03T10:47:31.998Z</time></trkpt><trkpt lat="44.558970650843655" lon="9.185036866756606"><ele>996.0</ele><time>2026-05-03T10:47:32.998Z</time></trkpt><trkpt lat="44.55879201203175" lon="9.185095293421021"><ele>996.0</ele><time>2026-05-03T10:47:33.998Z</time></trkpt><trkpt lat="44.558588821313904" lon="9.18512900526714"><ele>994.0</ele><time>2026-05-03T10:47:34.998Z</time></trkpt><trkpt lat="44.55839644553454" lon="9.185148022519638"><ele>992.0</ele><time>2026-05-03T10:47:35.998Z</time></trkpt><trkpt lat="44.558238517683165" lon="9.185154093313724"><ele>990.0</ele><time>2026-05-03T10:47:36.998Z</time></trkpt><trkpt lat="44.55809065113494" lon="9.185149947381358"><ele>990.0</ele><time>2026-05-03T10:47:37.998Z</time></trkpt><trkpt lat="44.557964659751434" lon="9.185151918671904"><ele>990.0</ele><time>2026-05-03T10:47:38.998Z</time></trkpt><trkpt lat="44.55786993322121" lon="9.185100101702368"><ele>990.0</ele><time>2026-05-03T10:47:39.998Z</time></trkpt><trkpt lat="44.55780243545348" lon="9.184991278025626"><ele>990.0</ele><time>2026-05-03T10:47:40.998Z</time></trkpt><trkpt lat="44.5576974328717" lon="9.184839112318006"><ele>985.75</ele><time>2026-05-03T10:47:41.998Z</time></trkpt><trkpt lat="44.55758312053237" lon="9.18474547290667"><ele>981.5</ele><time>2026-05-03T10:47:42.998Z</time></trkpt><trkpt lat="44.55744356379888" lon="9.184709475611523"><ele>977.25</ele><time>2026-05-03T10:47:44Z</time></trkpt><trkpt lat="44.557276784912816" lon="9.184727080075694"><ele>973.0</ele><time>2026-05-03T10:47:45Z</time></trkpt><trkpt lat="44.557100003467845" lon="9.184832611637175"><ele>979.0</ele><time>2026-05-03T10:47:46Z</time></trkpt><trkpt lat="44.55694083247196" lon="9.184932948383963"><ele>985.0</ele><time>2026-05-03T10:47:47Z</time></trkpt><trkpt lat="44.5567986966708" lon="9.18497578041709"><ele>991.0</ele><time>2026-05-03T10:47:48Z</time></trkpt><trkpt lat="44.55669398722805" lon="9.184974918678725"><ele>997.0</ele><time>2026-05-03T10:47:49Z</time></trkpt><trkpt lat="44.55660403411915" lon="9.184908665267496"><ele>986.3333333333333</ele><time>2026-05-03T10:47:50Z</time></trkpt><trkpt lat="44.55644423829802" lon="9.184804020588654"><ele>975.6666666666667</ele><time>2026-05-03T10:47:51Z</time></trkpt><trkpt lat="44.55629366400371" lon="9.184723340086938"><ele>965.0</ele><time>2026-05-03T10:47:52Z</time></trkpt><trkpt lat="44.55617995463514" lon="9.184730202953356"><ele>965.0</ele><time>2026-05-03T10:47:53Z</time></trkpt><trkpt lat="44.556059986396725" lon="9.18478331905057"><ele>965.0</ele><time>2026-05-03T10:47:54Z</time></trkpt><trkpt lat="44.55596602967636" lon="9.184908773386086"><ele>965.0</ele><time>2026-05-03T10:47:55Z</time></trkpt><trkpt lat="44.555855024571585" lon="9.185033236561727"><ele>965.0</ele><time>2026-05-03T10:47:56Z</time></trkpt><trkpt lat="44.555742194813064" lon="9.185068816085952"><ele>966.0</ele><time>2026-05-03T10:47:57Z</time></trkpt><trkpt lat="44.555648197914955" lon="9.185010156608975"><ele>967.0</ele><time>2026-05-03T10:47:58Z</time></trkpt><trkpt lat="44.55549895838486" lon="9.184962811381745"><ele>968.0</ele><time>2026-05-03T10:47:59Z</time></trkpt><trkpt lat="44.55535511406925" lon="9.184872036220161"><ele>969.0</ele><time>2026-05-03T10:48:00Z</time></trkpt><trkpt lat="44.55522213200095" lon="9.184818287400729"><ele>969.0</ele><time>2026-05-03T10:48:01Z</time></trkpt><trkpt lat="44.555058372703144" lon="9.184778060393116"><ele>969.0</ele><time>2026-05-03T10:48:02Z</time></trkpt><trkpt lat="44.554901441004084" lon="9.184808022380848"><ele>969.0</ele><time>2026-05-03T10:48:03Z</time></trkpt><trkpt lat="44.55472714493565" lon="9.184876087572533"><ele>979.3333333333333</ele><time>2026-05-03T10:48:04Z</time></trkpt><trkpt lat="44.55455466933639" lon="9.184899416355869"><ele>989.6666666666666</ele><time>2026-05-03T10:48:05Z</time></trkpt><trkpt lat="44.554382826750825" lon="9.184938246551763"><ele>1000.0</ele><time>2026-05-03T10:48:06Z</time></trkpt><trkpt lat="44.55423109455112" lon="9.184973195319127"><ele>1000.0</ele><time>2026-05-03T10:48:07Z</time></trkpt><trkpt lat="44.554085286342506" lon="9.185021436483845"><ele>1000.0</ele><time>2026-05-03T10:48:08Z</time></trkpt><trkpt lat="44.553931615336694" lon="9.185004982549852"><ele>1000.0</ele><time>2026-05-03T10:48:09Z</time></trkpt><trkpt lat="44.55377801224109" lon="9.184933134541417"><ele>997.5</ele><time>2026-05-03T10:48:10Z</time></trkpt><trkpt lat="44.55363481663057" lon="9.18486472452653"><ele>995.0</ele><time>2026-05-03T10:48:11Z</time></trkpt><trkpt lat="44.553509600362524" lon="9.184820716933464"><ele>992.5</ele><time>2026-05-03T10:48:12Z</time></trkpt><trkpt lat="44.553400634853936" lon="9.18480399220718"><ele>990.0</ele><time>2026-05-03T10:48:13Z</time></trkpt><trkpt lat="44.553311903110306" lon="9.184862775258818"><ele>990.0</ele><time>2026-05-03T10:48:14Z</time></trkpt><trkpt lat="44.55322337128145" lon="9.184989946774516"><ele>990.0</ele><time>2026-05-03T10:48:15Z</time></trkpt><trkpt lat="44.553157886102746" lon="9.18519108353384"><ele>990.0</ele><time>2026-05-03T10:48:16Z</time></trkpt><trkpt lat="44.553070803636736" lon="9.185371481333602"><ele>990.0</ele><time>2026-05-03T10:48:17Z</time></trkpt><trkpt lat="44.552939764183655" lon="9.185486608564167"><ele>983.3333333333333</ele><time>2026-05-03T10:48:18Z</time></trkpt><trkpt lat="44.55277125152395" lon="9.185554915713071"><ele>976.6666666666666</ele><time>2026-05-03T10:48:19Z</time></trkpt><trkpt lat="44.552592286446256" lon="9.18557345622232"><ele>970.0</ele><time>2026-05-03T10:48:20Z</time></trkpt><trkpt lat="44.55243841398746" lon="9.18551921119484"><ele>970.0</ele><time>2026-05-03T10:48:21Z</time></trkpt><trkpt lat="44.552297490114874" lon="9.185558767144725"><ele>970.0</ele><time>2026-05-03T10:48:22Z</time></trkpt><trkpt lat="44.55215415501844" lon="9.185632496690507"><ele>970.0</ele><time>2026-05-03T10:48:23Z</time></trkpt><trkpt lat="44.55202366649532" lon="9.185773957843468"><ele>971.3333333333333</ele><time>2026-05-03T10:48:24Z</time></trkpt><trkpt lat="44.551884713873804" lon="9.185878644316288"><ele>972.6666666666667</ele><time>2026-05-03T10:48:25Z</time></trkpt><trkpt lat="44.551730842575964" lon="9.186000553880659"><ele>974.0</ele><time>2026-05-03T10:48:26Z</time></trkpt><trkpt lat="44.55160022678744" lon="9.18608118759813"><ele>974.0</ele><time>2026-05-03T10:48:27Z</time></trkpt><trkpt lat="44.55150478042717" lon="9.186182763659147"><ele>974.0000000000001</ele><time>2026-05-03T10:48:28Z</time></trkpt><trkpt lat="44.551427929096555" lon="9.186320259786672"><ele>974.0000000000001</ele><time>2026-05-03T10:48:29Z</time></trkpt><trkpt lat="44.55149399871479" lon="9.186442932146608"><ele>974.0</ele><time>2026-05-03T10:48:30Z</time></trkpt><trkpt lat="44.55155287159974" lon="9.186542154342606"><ele>974.0</ele><time>2026-05-03T10:48:31Z</time></trkpt><trkpt lat="44.5516359034768" lon="9.186644553868547"><ele>975.6666666666667</ele><time>2026-05-03T10:48:32Z</time></trkpt><trkpt lat="44.55173014837297" lon="9.186796331492756"><ele>977.3333333333333</ele><time>2026-05-03T10:48:33Z</time></trkpt><trkpt lat="44.551846927735674" lon="9.186989300514773"><ele>979.0</ele><time>2026-05-03T10:48:33.999Z</time></trkpt><trkpt lat="44.55191972009425" lon="9.187193956858676"><ele>973.3333333333333</ele><time>2026-05-03T10:48:34.999Z</time></trkpt><trkpt lat="44.5519941864339" lon="9.18740056206044"><ele>967.6666666666667</ele><time>2026-05-03T10:48:35.999Z</time></trkpt><trkpt lat="44.55207738814196" lon="9.187628414349973"><ele>962.0</ele><time>2026-05-03T10:48:36.999Z</time></trkpt><trkpt lat="44.55214097623902" lon="9.187837944192067"><ele>959.75</ele><time>2026-05-03T10:48:37.999Z</time></trkpt><trkpt lat="44.55218990961008" lon="9.18800796086943"><ele>957.5</ele><time>2026-05-03T10:48:38.999Z</time></trkpt><trkpt lat="44.552192754335785" lon="9.188200814129033"><ele>955.25</ele><time>2026-05-03T10:48:39.999Z</time></trkpt><trkpt lat="44.55212590147663" lon="9.188369247919615"><ele>953.0</ele><time>2026-05-03T10:48:40.999Z</time></trkpt><trkpt lat="44.55203268824044" lon="9.188561276411445"><ele>953.0</ele><time>2026-05-03T10:48:41.999Z</time></trkpt><trkpt lat="44.55193813704066" lon="9.188765168458746"><ele>953.0</ele><time>2026-05-03T10:48:42.999Z</time></trkpt><trkpt lat="44.55187063007903" lon="9.188936365927313"><ele>953.0</ele><time>2026-05-03T10:48:43.999Z</time></trkpt><trkpt lat="44.55179115380672" lon="9.189100026603219"><ele>952.25</ele><time>2026-05-03T10:48:44.999Z</time></trkpt><trkpt lat="44.5518023382643" lon="9.189258295823471"><ele>951.5</ele><time>2026-05-03T10:48:45.999Z</time></trkpt><trkpt lat="44.55184451403261" lon="9.18941951300359"><ele>950.75</ele><time>2026-05-03T10:48:46.999Z</time></trkpt><trkpt lat="44.55195015336531" lon="9.189571983721645"><ele>950.0</ele><time>2026-05-03T10:48:47.999Z</time></trkpt><trkpt lat="44.55204090968921" lon="9.189789087030757"><ele>947.25</ele><time>2026-05-03T10:48:48.999Z</time></trkpt><trkpt lat="44.55210665776333" lon="9.189978162419344"><ele>944.5</ele><time>2026-05-03T10:48:49.999Z</time></trkpt><trkpt lat="44.55210595244748" lon="9.1901785841002"><ele>941.75</ele><time>2026-05-03T10:48:50.999Z</time></trkpt><trkpt lat="44.552072714347624" lon="9.190385321585198"><ele>939.0</ele><time>2026-05-03T10:48:51.999Z</time></trkpt><trkpt lat="44.55199961305595" lon="9.190565476102796"><ele>938.4000000000001</ele><time>2026-05-03T10:48:52.999Z</time></trkpt><trkpt lat="44.551949267290155" lon="9.190755012274938"><ele>937.8000000000001</ele><time>2026-05-03T10:48:53.999Z</time></trkpt><trkpt lat="44.55193560782907" lon="9.190935529281706"><ele>937.1999999999999</ele><time>2026-05-03T10:48:54.999Z</time></trkpt><trkpt lat="44.55193903279987" lon="9.191039531872063"><ele>936.5999999999999</ele><time>2026-05-03T10:48:55.999Z</time></trkpt><trkpt lat="44.55198784058327" lon="9.191132818262815"><ele>936.0</ele><time>2026-05-03T10:48:56.999Z</time></trkpt><trkpt lat="44.55205856040873" lon="9.19122670297419"><ele>939.25</ele><time>2026-05-03T10:48:57.999Z</time></trkpt><trkpt lat="44.55215856699026" lon="9.191377570000592"><ele>942.5</ele><time>2026-05-03T10:48:58.999Z</time></trkpt><trkpt lat="44.55224788981306" lon="9.191504013824284"><ele>945.75</ele><time>2026-05-03T10:48:59.999Z</time></trkpt><trkpt lat="44.55232824563479" lon="9.191621436347434"><ele>949.0</ele><time>2026-05-03T10:49:00.999Z</time></trkpt><trkpt lat="44.552397397796675" lon="9.191753977068378"><ele>949.0</ele><time>2026-05-03T10:49:01.999Z</time></trkpt><trkpt lat="44.55242551307537" lon="9.191913690643052"><ele>949.0000000000001</ele><time>2026-05-03T10:49:02.999Z</time></trkpt><trkpt lat="44.55248877470303" lon="9.192047648584138"><ele>949.0000000000001</ele><time>2026-05-03T10:49:03.999Z</time></trkpt><trkpt lat="44.55254825749661" lon="9.19217801615618"><ele>949.0</ele><time>2026-05-03T10:49:04.999Z</time></trkpt><trkpt lat="44.55263070752348" lon="9.1922736936671"><ele>949.0</ele><time>2026-05-03T10:49:05.999Z</time></trkpt><trkpt lat="44.55273185517703" lon="9.192337131226079"><ele>949.75</ele><time>2026-05-03T10:49:06.999Z</time></trkpt><trkpt lat="44.55284246696025" lon="9.192363186132106"><ele>950.5</ele><time>2026-05-03T10:49:07.999Z</time></trkpt><trkpt lat="44.55296609094579" lon="9.192382347188424"><ele>951.25</ele><time>2026-05-03T10:49:08.999Z</time></trkpt><trkpt lat="44.55307451420353" lon="9.192438200539595"><ele>952.0</ele><time>2026-05-03T10:49:09.999Z</time></trkpt><trkpt lat="44.553181366023225" lon="9.192486151612513"><ele>952.0</ele><time>2026-05-03T10:49:10.999Z</time></trkpt><trkpt lat="44.55328914569985" lon="9.192539933290172"><ele>952.0</ele><time>2026-05-03T10:49:11.999Z</time></trkpt><trkpt lat="44.55338644236387" lon="9.1926062451666"><ele>952.0</ele><time>2026-05-03T10:49:12.999Z</time></trkpt><trkpt lat="44.553484540170494" lon="9.192710987862574"><ele>952.0</ele><time>2026-05-03T10:49:13.999Z</time></trkpt><trkpt lat="44.553561238559155" lon="9.192837932436532"><ele>952.0</ele><time>2026-05-03T10:49:14.999Z</time></trkpt><trkpt lat="44.553641387698924" lon="9.192976318914546"><ele>952.0</ele><time>2026-05-03T10:49:15.999Z</time></trkpt><trkpt lat="44.55372518582422" lon="9.193097404371233"><ele>952.0</ele><time>2026-05-03T10:49:16.999Z</time></trkpt><trkpt lat="44.55381101090275" lon="9.193229323580633"><ele>952.0</ele><time>2026-05-03T10:49:17.999Z</time></trkpt><trkpt lat="44.55389518344133" lon="9.19335494740848"><ele>952.75</ele><time>2026-05-03T10:49:18.999Z</time></trkpt><trkpt lat="44.553965177474716" lon="9.193469234245853"><ele>953.5</ele><time>2026-05-03T10:49:19.999Z</time></trkpt><trkpt lat="44.55404647054302" lon="9.193561937486077"><ele>954.25</ele><time>2026-05-03T10:49:20.999Z</time></trkpt><trkpt lat="44.55419856012787" lon="9.193499344047549"><ele>955.0</ele><time>2026-05-03T10:49:21.999Z</time></trkpt><trkpt lat="44.55431764114004" lon="9.19344797553904"><ele>955.0</ele><time>2026-05-03T10:49:22.999Z</time></trkpt><trkpt lat="44.55442031820455" lon="9.193342023442062"><ele>955.0</ele><time>2026-05-03T10:49:23.999Z</time></trkpt><trkpt lat="44.554493265766205" lon="9.193219733838802"><ele>955.0</ele><time>2026-05-03T10:49:24.999Z</time></trkpt><trkpt lat="44.55457158389818" lon="9.193076048554122"><ele>955.0</ele><time>2026-05-03T10:49:25.999Z</time></trkpt><trkpt lat="44.554632524987674" lon="9.192873255698027"><ele>956.25</ele><time>2026-05-03T10:49:26.999Z</time></trkpt><trkpt lat="44.554703982821735" lon="9.192682099940793"><ele>957.5</ele><time>2026-05-03T10:49:27.999Z</time></trkpt><trkpt lat="44.55477303739047" lon="9.192515059194374"><ele>958.75</ele><time>2026-05-03T10:49:28.999Z</time></trkpt><trkpt lat="44.554828325732885" lon="9.192335275888391"><ele>960.0</ele><time>2026-05-03T10:49:29.999Z</time></trkpt><trkpt lat="44.55489152299251" lon="9.192119139917434"><ele>964.5</ele><time>2026-05-03T10:49:30.999Z</time></trkpt><trkpt lat="44.5549527191024" lon="9.191913755935788"><ele>969.0</ele><time>2026-05-03T10:49:31.999Z</time></trkpt><trkpt lat="44.55499801510114" lon="9.191774593410722"><ele>973.5</ele><time>2026-05-03T10:49:32.998Z</time></trkpt><trkpt lat="44.555065446871104" lon="9.191665285407865"><ele>978.0</ele><time>2026-05-03T10:49:33.998Z</time></trkpt><trkpt lat="44.55516980449745" lon="9.191621146783929"><ele>978.0</ele><time>2026-05-03T10:49:34.998Z</time></trkpt><trkpt lat="44.555286289211736" lon="9.191623179540924"><ele>978.0</ele><time>2026-05-03T10:49:35.998Z</time></trkpt><trkpt lat="44.55541878644273" lon="9.191688061957924"><ele>978.0</ele><time>2026-05-03T10:49:36.998Z</time></trkpt><trkpt lat="44.55557113118635" lon="9.191727609505993"><ele>978.0</ele><time>2026-05-03T10:49:37.998Z</time></trkpt><trkpt lat="44.555715806893765" lon="9.191799930793227"><ele>981.3333333333333</ele><time>2026-05-03T10:49:38.998Z</time></trkpt><trkpt lat="44.55588094645607" lon="9.191851793057454"><ele>984.6666666666666</ele><time>2026-05-03T10:49:39.998Z</time></trkpt><trkpt lat="44.55604805510232" lon="9.191892925165629"><ele>988.0</ele><time>2026-05-03T10:49:40.998Z</time></trkpt><trkpt lat="44.556222995547245" lon="9.191946887195229"><ele>995.0</ele><time>2026-05-03T10:49:41.998Z</time></trkpt><trkpt lat="44.55637332653358" lon="9.19199186603265"><ele>1002.0</ele><time>2026-05-03T10:49:42.998Z</time></trkpt><trkpt lat="44.55652267170372" lon="9.192083403671031"><ele>1009.0</ele><time>2026-05-03T10:49:43.998Z</time></trkpt><trkpt lat="44.55665531817037" lon="9.192180275663311"><ele>1009.0</ele><time>2026-05-03T10:49:44.998Z</time></trkpt><trkpt lat="44.55678193106897" lon="9.192319624857198"><ele>1009.0</ele><time>2026-05-03T10:49:45.998Z</time></trkpt><trkpt lat="44.556896080486226" lon="9.192493440266135"><ele>1009.0</ele><time>2026-05-03T10:49:46.998Z</time></trkpt><trkpt lat="44.55697796821776" lon="9.192680256462257"><ele>1007.3333333333333</ele><time>2026-05-03T10:49:47.998Z</time></trkpt><trkpt lat="44.55705322489163" lon="9.192899251782606"><ele>1005.6666666666667</ele><time>2026-05-03T10:49:48.998Z</time></trkpt><trkpt lat="44.55714624199981" lon="9.193106452227338"><ele>1004.0</ele><time>2026-05-03T10:49:50Z</time></trkpt><trkpt lat="44.55726351461662" lon="9.19326975186879"><ele>1004.0</ele><time>2026-05-03T10:49:51Z</time></trkpt><trkpt lat="44.55736924174578" lon="9.19343660095362"><ele>1004.0</ele><time>2026-05-03T10:49:52Z</time></trkpt><trkpt lat="44.55748571647664" lon="9.19357382751641"><ele>1004.0</ele><time>2026-05-03T10:49:53Z</time></trkpt><trkpt lat="44.55762058025881" lon="9.19362385689821"><ele>1004.0</ele><time>2026-05-03T10:49:54Z</time></trkpt><trkpt lat="44.55775357208664" lon="9.193687441561753"><ele>1004.0000000000001</ele><time>2026-05-03T10:49:55Z</time></trkpt><trkpt lat="44.55782763778894" lon="9.193695537921938"><ele>1004.0000000000001</ele><time>2026-05-03T10:49:56Z</time></trkpt><trkpt lat="44.55786888704313" lon="9.193846793170051"><ele>1004.0</ele><time>2026-05-03T10:49:57Z</time></trkpt><trkpt lat="44.55787394836985" lon="9.194008544926998"><ele>1004.0</ele><time>2026-05-03T10:49:58Z</time></trkpt><trkpt lat="44.55786526836215" lon="9.194177640595617"><ele>1009.0</ele><time>2026-05-03T10:49:59Z</time></trkpt><trkpt lat="44.5578823785284" lon="9.194358807827207"><ele>1014.0</ele><time>2026-05-03T10:50:00Z</time></trkpt><trkpt lat="44.55790799099095" lon="9.19450139323591"><ele>1019.0</ele><time>2026-05-03T10:50:01Z</time></trkpt><trkpt lat="44.55800357911169" lon="9.194582717892954"><ele>1024.0</ele><time>2026-05-03T10:50:02Z</time></trkpt><trkpt lat="44.55811987957339" lon="9.194629396499547"><ele>1024.0</ele><time>2026-05-03T10:50:03Z</time></trkpt><trkpt lat="44.55825461257821" lon="9.194691718027716"><ele>1024.0</ele><time>2026-05-03T10:50:04Z</time></trkpt><trkpt lat="44.558392435610834" lon="9.19476159523429"><ele>1024.0</ele><time>2026-05-03T10:50:05Z</time></trkpt><trkpt lat="44.558520684395155" lon="9.194857335326498"><ele>1024.0</ele><time>2026-05-03T10:50:06Z</time></trkpt><trkpt lat="44.55866478451679" lon="9.19493825962247"><ele>1023.0</ele><time>2026-05-03T10:50:07Z</time></trkpt><trkpt lat="44.5588253531557" lon="9.194964642125392"><ele>1022.0</ele><time>2026-05-03T10:50:08Z</time></trkpt><trkpt lat="44.55898911743321" lon="9.194970017830013"><ele>1021.0</ele><time>2026-05-03T10:50:09Z</time></trkpt><trkpt lat="44.559147204854916" lon="9.194921980143693"><ele>1021.0</ele><time>2026-05-03T10:50:10Z</time></trkpt><trkpt lat="44.55927741138056" lon="9.194995075695322"><ele>1021.0</ele><time>2026-05-03T10:50:11Z</time></trkpt><trkpt lat="44.55939711514758" lon="9.195132927785565"><ele>1021.0</ele><time>2026-05-03T10:50:12Z</time></trkpt><trkpt lat="44.55954035695626" lon="9.19522327717149"><ele>1028.3333333333333</ele><time>2026-05-03T10:50:13Z</time></trkpt><trkpt lat="44.55969732509154" lon="9.195255592069126"><ele>1035.6666666666667</ele><time>2026-05-03T10:50:14Z</time></trkpt><trkpt lat="44.55983281060784" lon="9.195308896663596"><ele>1043.0</ele><time>2026-05-03T10:50:15Z</time></trkpt><trkpt lat="44.55997398660051" lon="9.195432333008618"><ele>1043.0</ele><time>2026-05-03T10:50:16Z</time></trkpt><trkpt lat="44.560088897756046" lon="9.195554551347927"><ele>1043.0</ele><time>2026-05-03T10:50:17Z</time></trkpt><trkpt lat="44.56017509417872" lon="9.195648573820147"><ele>1043.0</ele><time>2026-05-03T10:50:18Z</time></trkpt><trkpt lat="44.56024357074727" lon="9.19567376266118"><ele>1043.0</ele><time>2026-05-03T10:50:19Z</time></trkpt><trkpt lat="44.56033516833428" lon="9.19565723120828"><ele>1043.0</ele><time>2026-05-03T10:50:20Z</time></trkpt><trkpt lat="44.56040812358065" lon="9.195413172956473"><ele>1048.0</ele><time>2026-05-03T10:50:21Z</time></trkpt><trkpt lat="44.56051902272563" lon="9.195341307630427"><ele>1053.0</ele><time>2026-05-03T10:50:22Z</time></trkpt><trkpt lat="44.560624265628014" lon="9.195351881243873"><ele>1058.0</ele><time>2026-05-03T10:50:23Z</time></trkpt><trkpt lat="44.56070880097284" lon="9.195430703487594"><ele>1063.0</ele><time>2026-05-03T10:50:24Z</time></trkpt><trkpt lat="44.56082212111307" lon="9.195494791927366"><ele>1063.0</ele><time>2026-05-03T10:50:25Z</time></trkpt><trkpt lat="44.56095425639572" lon="9.195497510830688"><ele>1063.0</ele><time>2026-05-03T10:50:26Z</time></trkpt><trkpt lat="44.56109034793047" lon="9.195440458210392"><ele>1063.0</ele><time>2026-05-03T10:50:27Z</time></trkpt><trkpt lat="44.561207355024315" lon="9.195375560562756"><ele>1063.0</ele><time>2026-05-03T10:50:28Z</time></trkpt><trkpt lat="44.56133046698467" lon="9.195289962876155"><ele>1066.2</ele><time>2026-05-03T10:50:29Z</time></trkpt><trkpt lat="44.561448260480546" lon="9.19523592165284"><ele>1069.4</ele><time>2026-05-03T10:50:30Z</time></trkpt><trkpt lat="44.56152361068274" lon="9.1952403750434"><ele>1072.6000000000001</ele><time>2026-05-03T10:50:31Z</time></trkpt><trkpt lat="44.56155783379308" lon="9.195348630332102"><ele>1075.8</ele><time>2026-05-03T10:50:32Z</time></trkpt><trkpt lat="44.56158863950957" lon="9.195565121833058"><ele>1079.0</ele><time>2026-05-03T10:50:34Z</time></trkpt><trkpt lat="44.56173247340042" lon="9.195677138553156"><ele>1070.5</ele><time>2026-05-03T10:50:35Z</time></trkpt><trkpt lat="44.561828232157985" lon="9.19579115367677"><ele>1062.0</ele><time>2026-05-03T10:50:36Z</time></trkpt><trkpt lat="44.561892998368094" lon="9.195913228068862"><ele>1053.5</ele><time>2026-05-03T10:50:37Z</time></trkpt><trkpt lat="44.56188469107348" lon="9.196049244489028"><ele>1045.0</ele><time>2026-05-03T10:50:38Z</time></trkpt><trkpt lat="44.561792944385054" lon="9.196159913627627"><ele>1045.0</ele><time>2026-05-03T10:50:39Z</time></trkpt><trkpt lat="44.561664892340914" lon="9.196232411314401"><ele>1045.0</ele><time>2026-05-03T10:50:40Z</time></trkpt><trkpt lat="44.56155496574627" lon="9.19628823118342"><ele>1045.0</ele><time>2026-05-03T10:50:41Z</time></trkpt><trkpt lat="44.56147859883046" lon="9.196405929376352"><ele>1045.0</ele><time>2026-05-03T10:50:42Z</time></trkpt><trkpt lat="44.56143129461086" lon="9.196556793280728"><ele>1046.3333333333333</ele><time>2026-05-03T10:50:43Z</time></trkpt><trkpt lat="44.56139422987356" lon="9.196763856997269"><ele>1047.6666666666667</ele><time>2026-05-03T10:50:44Z</time></trkpt><trkpt lat="44.56133120365542" lon="9.19694531052588"><ele>1049.0</ele><time>2026-05-03T10:50:45Z</time></trkpt><trkpt lat="44.561250454331656" lon="9.197132222167342"><ele>1052.0</ele><time>2026-05-03T10:50:46Z</time></trkpt><trkpt lat="44.56119741414643" lon="9.197295571575903"><ele>1055.0</ele><time>2026-05-03T10:50:46.999Z</time></trkpt><trkpt lat="44.56120628245181" lon="9.197451751695898"><ele>1058.0</ele><time>2026-05-03T10:50:47.999Z</time></trkpt><trkpt lat="44.56127313653516" lon="9.197605041839044"><ele>1061.0</ele><time>2026-05-03T10:50:48.999Z</time></trkpt><trkpt lat="44.56134044630801" lon="9.197752205677114"><ele>1061.0</ele><time>2026-05-03T10:50:49.999Z</time></trkpt><trkpt lat="44.561424887335946" lon="9.19790504702916"><ele>1061.0</ele><time>2026-05-03T10:50:50.999Z</time></trkpt><trkpt lat="44.561448373070256" lon="9.198065195847192"><ele>1061.0</ele><time>2026-05-03T10:50:51.999Z</time></trkpt><trkpt lat="44.56141537925477" lon="9.198233662721984"><ele>1061.0</ele><time>2026-05-03T10:50:52.999Z</time></trkpt><trkpt lat="44.56138586472864" lon="9.1984290732851"><ele>1059.3333333333335</ele><time>2026-05-03T10:50:53.999Z</time></trkpt><trkpt lat="44.56137100637249" lon="9.198677685574523"><ele>1057.6666666666667</ele><time>2026-05-03T10:50:54.999Z</time></trkpt><trkpt lat="44.561371125413864" lon="9.198910417270616"><ele>1056.0</ele><time>2026-05-03T10:50:55.999Z</time></trkpt><trkpt lat="44.561329698866295" lon="9.199148958530337"><ele>1056.0</ele><time>2026-05-03T10:50:56.999Z</time></trkpt><trkpt lat="44.56129432548695" lon="9.199385996275238"><ele>1056.0</ele><time>2026-05-03T10:50:57.999Z</time></trkpt><trkpt lat="44.56123263287278" lon="9.199614530245663"><ele>1056.0</ele><time>2026-05-03T10:50:58.999Z</time></trkpt><trkpt lat="44.56117014759596" lon="9.199819979030421"><ele>1057.0</ele><time>2026-05-03T10:50:59.999Z</time></trkpt><trkpt lat="44.56113023231819" lon="9.199943599966435"><ele>1058.0</ele><time>2026-05-03T10:51:00.999Z</time></trkpt><trkpt lat="44.561134661517244" lon="9.200113977546355"><ele>1059.0</ele><time>2026-05-03T10:51:01.999Z</time></trkpt><trkpt lat="44.56120653567559" lon="9.200289518745532"><ele>1060.0</ele><time>2026-05-03T10:51:02.999Z</time></trkpt><trkpt lat="44.56130545561583" lon="9.200419667186555"><ele>1060.0</ele><time>2026-05-03T10:51:03.999Z</time></trkpt><trkpt lat="44.561359869408626" lon="9.200554392721784"><ele>1060.0</ele><time>2026-05-03T10:51:04.999Z</time></trkpt><trkpt lat="44.56131408124971" lon="9.200643564884455"><ele>1060.0</ele><time>2026-05-03T10:51:05.999Z</time></trkpt><trkpt lat="44.56120936781753" lon="9.200708780252805"><ele>1060.0</ele><time>2026-05-03T10:51:06.999Z</time></trkpt><trkpt lat="44.5611011964772" lon="9.200729525662913"><ele>1060.0</ele><time>2026-05-03T10:51:07.999Z</time></trkpt><trkpt lat="44.56099698712262" lon="9.20080270617621"><ele>1056.5</ele><time>2026-05-03T10:51:08.999Z</time></trkpt><trkpt lat="44.56090915023372" lon="9.20095207860035"><ele>1053.0</ele><time>2026-05-03T10:51:09.999Z</time></trkpt><trkpt lat="44.56082484794402" lon="9.201142760900927"><ele>1049.5</ele><time>2026-05-03T10:51:10.999Z</time></trkpt><trkpt lat="44.560747919714586" lon="9.201316238748921"><ele>1046.0</ele><time>2026-05-03T10:51:11.999Z</time></trkpt><trkpt lat="44.56066176010955" lon="9.201478014807812"><ele>1046.25</ele><time>2026-05-03T10:51:12.999Z</time></trkpt><trkpt lat="44.56056769429091" lon="9.201628161022205"><ele>1046.5</ele><time>2026-05-03T10:51:13.999Z</time></trkpt><trkpt lat="44.560466372532844" lon="9.201772897750514"><ele>1046.75</ele><time>2026-05-03T10:51:14.999Z</time></trkpt><trkpt lat="44.560366130257876" lon="9.20193308064008"><ele>1047.0</ele><time>2026-05-03T10:51:15.999Z</time></trkpt><trkpt lat="44.56025845479085" lon="9.20206870069215"><ele>1047.0</ele><time>2026-05-03T10:51:16.999Z</time></trkpt><trkpt lat="44.56014905377107" lon="9.20216598388561"><ele>1047.0</ele><time>2026-05-03T10:51:17.999Z</time></trkpt><trkpt lat="44.56004597858993" lon="9.202259530015324"><ele>1047.0</ele><time>2026-05-03T10:51:18.999Z</time></trkpt><trkpt lat="44.5599560436763" lon="9.202164982730842"><ele>1047.0</ele><time>2026-05-03T10:51:19.999Z</time></trkpt><trkpt lat="44.55987703162943" lon="9.202116112561644"><ele>1047.0</ele><time>2026-05-03T10:51:20.999Z</time></trkpt><trkpt lat="44.55976312225735" lon="9.202087175127122"><ele>1047.0</ele><time>2026-05-03T10:51:21.999Z</time></trkpt><trkpt lat="44.55965406468136" lon="9.202119204349204"><ele>1047.0</ele><time>2026-05-03T10:51:22.999Z</time></trkpt><trkpt lat="44.55955541617078" lon="9.202223139816956"><ele>1047.0</ele><time>2026-05-03T10:51:23.999Z</time></trkpt><trkpt lat="44.55944944006835" lon="9.202331395694806"><ele>1052.0</ele><time>2026-05-03T10:51:24.999Z</time></trkpt><trkpt lat="44.55932997355541" lon="9.20239860538528"><ele>1057.0</ele><time>2026-05-03T10:51:25.999Z</time></trkpt><trkpt lat="44.55919380167369" lon="9.202438619826596"><ele>1062.0</ele><time>2026-05-03T10:51:26.999Z</time></trkpt><trkpt lat="44.55905779958891" lon="9.202461325512271"><ele>1067.0</ele><time>2026-05-03T10:51:27.999Z</time></trkpt><trkpt lat="44.558900659713494" lon="9.202432440879644"><ele>1067.0</ele><time>2026-05-03T10:51:28.999Z</time></trkpt><trkpt lat="44.55875308683582" lon="9.202427605043255"><ele>1067.0</ele><time>2026-05-03T10:51:29.999Z</time></trkpt><trkpt lat="44.55865444242065" lon="9.202409429786337"><ele>1067.0</ele><time>2026-05-03T10:51:30.999Z</time></trkpt><trkpt lat="44.55857750919727" lon="9.202437853896797"><ele>1067.0</ele><time>2026-05-03T10:51:31.999Z</time></trkpt><trkpt lat="44.558529709327665" lon="9.202531868676015"><ele>1067.0</ele><time>2026-05-03T10:51:32.999Z</time></trkpt><trkpt lat="44.55855699285251" lon="9.202625133090969"><ele>1065.2</ele><time>2026-05-03T10:51:33.999Z</time></trkpt><trkpt lat="44.55855327097837" lon="9.202745370078441"><ele>1063.4</ele><time>2026-05-03T10:51:34.999Z</time></trkpt><trkpt lat="44.558521909801485" lon="9.202887787173001"><ele>1061.6</ele><time>2026-05-03T10:51:35.999Z</time></trkpt><trkpt lat="44.55848059716909" lon="9.203038733827249"><ele>1059.8</ele><time>2026-05-03T10:51:36.999Z</time></trkpt><trkpt lat="44.55844603904254" lon="9.203159421278118"><ele>1058.0</ele><time>2026-05-03T10:51:37.999Z</time></trkpt><trkpt lat="44.55842062932455" lon="9.203295526497826"><ele>1058.0</ele><time>2026-05-03T10:51:38.999Z</time></trkpt><trkpt lat="44.55849133236896" lon="9.203435661913838"><ele>1058.0</ele><time>2026-05-03T10:51:39.999Z</time></trkpt><trkpt lat="44.55857960467857" lon="9.203571451848768"><ele>1058.0</ele><time>2026-05-03T10:51:40.999Z</time></trkpt><trkpt lat="44.55863377482296" lon="9.203726942589805"><ele>1058.0</ele><time>2026-05-03T10:51:41.999Z</time></trkpt><trkpt lat="44.55865476594973" lon="9.203906665304997"><ele>1059.6666666666667</ele><time>2026-05-03T10:51:42.999Z</time></trkpt><trkpt lat="44.558652280505044" lon="9.204087762492748"><ele>1061.3333333333333</ele><time>2026-05-03T10:51:43.999Z</time></trkpt><trkpt lat="44.55862665455159" lon="9.204296602158097"><ele>1063.0</ele><time>2026-05-03T10:51:44.999Z</time></trkpt><trkpt lat="44.55862522703277" lon="9.204537476418558"><ele>1063.0</ele><time>2026-05-03T10:51:45.999Z</time></trkpt><trkpt lat="44.55865268085784" lon="9.204733787249888"><ele>1063.0</ele><time>2026-05-03T10:51:46.999Z</time></trkpt><trkpt lat="44.558654554626806" lon="9.204867277424778"><ele>1063.0</ele><time>2026-05-03T10:51:47.998Z</time></trkpt><trkpt lat="44.55860866276839" lon="9.204972633116439"><ele>1063.0</ele><time>2026-05-03T10:51:48.998Z</time></trkpt><trkpt lat="44.55850507423943" lon="9.205191701703937"><ele>1066.2</ele><time>2026-05-03T10:51:49.998Z</time></trkpt><trkpt lat="44.558438462779264" lon="9.205346831232603"><ele>1069.4</ele><time>2026-05-03T10:51:50.998Z</time></trkpt><trkpt lat="44.558385739947184" lon="9.2054259868282"><ele>1072.6000000000001</ele><time>2026-05-03T10:51:51.998Z</time></trkpt><trkpt lat="44.55831507029717" lon="9.205520735072051"><ele>1075.8</ele><time>2026-05-03T10:51:52.998Z</time></trkpt><trkpt lat="44.55821704939249" lon="9.20562108904664"><ele>1079.0</ele><time>2026-05-03T10:51:53.998Z</time></trkpt><trkpt lat="44.55808926195629" lon="9.205673242826274"><ele>1076.75</ele><time>2026-05-03T10:51:55Z</time></trkpt><trkpt lat="44.55791640080105" lon="9.205735533895568"><ele>1074.5</ele><time>2026-05-03T10:51:56Z</time></trkpt><trkpt lat="44.557864775162436" lon="9.205824243330609"><ele>1072.25</ele><time>2026-05-03T10:51:56.999Z</time></trkpt><trkpt lat="44.557786522773654" lon="9.205939399446265"><ele>1070.0</ele><time>2026-05-03T10:51:57.999Z</time></trkpt><trkpt lat="44.557701221034506" lon="9.206032108874712"><ele>1070.0</ele><time>2026-05-03T10:51:58.999Z</time></trkpt><trkpt lat="44.55760905042915" lon="9.206126144768005"><ele>1070.0</ele><time>2026-05-03T10:51:59.999Z</time></trkpt><trkpt lat="44.55752940123517" lon="9.206214380000613"><ele>1070.0</ele><time>2026-05-03T10:52:00.999Z</time></trkpt><trkpt lat="44.55747451715564" lon="9.206320215714573"><ele>1070.0</ele><time>2026-05-03T10:52:01.999Z</time></trkpt><trkpt lat="44.55739491426139" lon="9.206422036576686"><ele>1070.0</ele><time>2026-05-03T10:52:02.999Z</time></trkpt><trkpt lat="44.55731141207062" lon="9.206537515374821"><ele>1069.8</ele><time>2026-05-03T10:52:03.999Z</time></trkpt><trkpt lat="44.5572253776298" lon="9.20664993135047"><ele>1069.6</ele><time>2026-05-03T10:52:04.999Z</time></trkpt><trkpt lat="44.557137670180225" lon="9.206761020147056"><ele>1069.4</ele><time>2026-05-03T10:52:05.999Z</time></trkpt><trkpt lat="44.557061354577634" lon="9.206867081975929"><ele>1069.2</ele><time>2026-05-03T10:52:06.999Z</time></trkpt><trkpt lat="44.556988285715846" lon="9.20696423856317"><ele>1069.0</ele><time>2026-05-03T10:52:07.999Z</time></trkpt><trkpt lat="44.55691851722175" lon="9.207044359965462"><ele>1069.0</ele><time>2026-05-03T10:52:08.999Z</time></trkpt><trkpt lat="44.55683040552424" lon="9.207087872012009"><ele>1069.0</ele><time>2026-05-03T10:52:09.999Z</time></trkpt><trkpt lat="44.55674908087253" lon="9.20712294424596"><ele>1069.0</ele><time>2026-05-03T10:52:10.999Z</time></trkpt><trkpt lat="44.55666714694828" lon="9.207171975539314"><ele>1069.0</ele><time>2026-05-03T10:52:11.999Z</time></trkpt><trkpt lat="44.55659859407832" lon="9.207273429094874"><ele>1069.0</ele><time>2026-05-03T10:52:12.999Z</time></trkpt><trkpt lat="44.55653080849952" lon="9.207374692700254"><ele>1071.6000000000001</ele><time>2026-05-03T10:52:13.999Z</time></trkpt><trkpt lat="44.55649426905203" lon="9.207515339132101"><ele>1074.2</ele><time>2026-05-03T10:52:14.999Z</time></trkpt><trkpt lat="44.556477204636984" lon="9.207680161972625"><ele>1076.8000000000002</ele><time>2026-05-03T10:52:15.999Z</time></trkpt><trkpt lat="44.55642624069278" lon="9.20782305126194"><ele>1079.4</ele><time>2026-05-03T10:52:16.999Z</time></trkpt><trkpt lat="44.5563448065114" lon="9.207918596629051"><ele>1082.0</ele><time>2026-05-03T10:52:17.999Z</time></trkpt><trkpt lat="44.55631228209506" lon="9.208013897103847"><ele>1082.0</ele><time>2026-05-03T10:52:18.999Z</time></trkpt><trkpt lat="44.55632795251961" lon="9.208143220447877"><ele>1082.0</ele><time>2026-05-03T10:52:20.999Z</time></trkpt><trkpt lat="44.55639521153989" lon="9.208256401067803"><ele>1082.0</ele><time>2026-05-03T10:52:21.999Z</time></trkpt><trkpt lat="44.55645415152744" lon="9.208346096501439"><ele>1082.0</ele><time>2026-05-03T10:52:22.999Z</time></trkpt><trkpt lat="44.556558650154265" lon="9.20845089228317"><ele>1082.0</ele><time>2026-05-03T10:52:23.999Z</time></trkpt><trkpt lat="44.55661518929481" lon="9.20859991987461"><ele>1082.75</ele><time>2026-05-03T10:52:24.999Z</time></trkpt><trkpt lat="44.556672260313306" lon="9.208778597990161"><ele>1083.5</ele><time>2026-05-03T10:52:25.999Z</time></trkpt><trkpt lat="44.556726964646295" lon="9.208955590336169"><ele>1084.25</ele><time>2026-05-03T10:52:26.999Z</time></trkpt><trkpt lat="44.55680684584201" lon="9.20908679232638"><ele>1085.0</ele><time>2026-05-03T10:52:27.999Z</time></trkpt><trkpt lat="44.55690302931206" lon="9.209250126216578"><ele>1081.5</ele><time>2026-05-03T10:52:28.999Z</time></trkpt><trkpt lat="44.557007256024164" lon="9.20937946467206"><ele>1078.0</ele><time>2026-05-03T10:52:29.999Z</time></trkpt><trkpt lat="44.55712014497767" lon="9.209471470973195"><ele>1074.5</ele><time>2026-05-03T10:52:30.999Z</time></trkpt><trkpt lat="44.55719088727299" lon="9.209614874478177"><ele>1071.0</ele><time>2026-05-03T10:52:31.999Z</time></trkpt><trkpt lat="44.55720029006038" lon="9.209795000366618"><ele>1068.8</ele><time>2026-05-03T10:52:32.999Z</time></trkpt><trkpt lat="44.55717676471047" lon="9.209946774862264"><ele>1066.6</ele><time>2026-05-03T10:52:33.999Z</time></trkpt><trkpt lat="44.557148673421196" lon="9.210052114732171"><ele>1064.4</ele><time>2026-05-03T10:52:34.999Z</time></trkpt><trkpt lat="44.55708618292837" lon="9.210118939080543"><ele>1062.2</ele><time>2026-05-03T10:52:35.999Z</time></trkpt><trkpt lat="44.55693950183396" lon="9.210237586832873"><ele>1060.0</ele><time>2026-05-03T10:52:36.999Z</time></trkpt><trkpt lat="44.55688484796463" lon="9.210367659051157"><ele>1060.0</ele><time>2026-05-03T10:52:37.999Z</time></trkpt><trkpt lat="44.556908971763825" lon="9.210487882703084"><ele>1060.0</ele><time>2026-05-03T10:52:38.999Z</time></trkpt><trkpt lat="44.55698777819537" lon="9.210635100229345"><ele>1060.0</ele><time>2026-05-03T10:52:39.999Z</time></trkpt><trkpt lat="44.55703538341714" lon="9.21077777874901"><ele>1060.0</ele><time>2026-05-03T10:52:40.999Z</time></trkpt><trkpt lat="44.557009839650725" lon="9.210924646056242"><ele>1060.0</ele><time>2026-05-03T10:52:41.999Z</time></trkpt><trkpt lat="44.55691391561792" lon="9.211000885994212"><ele>1061.25</ele><time>2026-05-03T10:52:42.999Z</time></trkpt><trkpt lat="44.55681644351599" lon="9.211135884034158"><ele>1062.5</ele><time>2026-05-03T10:52:43.999Z</time></trkpt><trkpt lat="44.556719209062564" lon="9.211287529087029"><ele>1063.75</ele><time>2026-05-03T10:52:44.999Z</time></trkpt><trkpt lat="44.55663348805726" lon="9.211436637154408"><ele>1065.0</ele><time>2026-05-03T10:52:45.999Z</time></trkpt><trkpt lat="44.55659729733719" lon="9.211627635637184"><ele>1067.2</ele><time>2026-05-03T10:52:46.999Z</time></trkpt><trkpt lat="44.55655106780678" lon="9.211785458920266"><ele>1069.4</ele><time>2026-05-03T10:52:47.999Z</time></trkpt><trkpt lat="44.55645965637778" lon="9.211803326765876"><ele>1071.6</ele><time>2026-05-03T10:52:48.999Z</time></trkpt><trkpt lat="44.55633489570568" lon="9.211763570714409"><ele>1073.8</ele><time>2026-05-03T10:52:49.999Z</time></trkpt><trkpt lat="44.5562347318361" lon="9.211804261178228"><ele>1076.0</ele><time>2026-05-03T10:52:50.999Z</time></trkpt><trkpt lat="44.556136825108844" lon="9.211838966488843"><ele>1074.5</ele><time>2026-05-03T10:52:51.999Z</time></trkpt><trkpt lat="44.556083801476596" lon="9.211964812563588"><ele>1073.0</ele><time>2026-05-03T10:52:52.999Z</time></trkpt><trkpt lat="44.55607854612847" lon="9.212151363463898"><ele>1071.5</ele><time>2026-05-03T10:52:53.999Z</time></trkpt><trkpt lat="44.556040798952544" lon="9.212345170674013"><ele>1070.0</ele><time>2026-05-03T10:52:54.999Z</time></trkpt><trkpt lat="44.556004671742244" lon="9.212532749310201"><ele>1070.0</ele><time>2026-05-03T10:52:55.999Z</time></trkpt><trkpt lat="44.55593011830886" lon="9.212671357594694"><ele>1070.0</ele><time>2026-05-03T10:52:56.999Z</time></trkpt><trkpt lat="44.555808321022184" lon="9.212707703537472"><ele>1070.0</ele><time>2026-05-03T10:52:57.999Z</time></trkpt><trkpt lat="44.55567695317891" lon="9.212730068973007"><ele>1070.0</ele><time>2026-05-03T10:52:58.998Z</time></trkpt><trkpt lat="44.555593272857934" lon="9.21273003076518"><ele>1070.0</ele><time>2026-05-03T10:52:59.998Z</time></trkpt><trkpt lat="44.55552152590458" lon="9.212725361985328"><ele>1070.0</ele><time>2026-05-03T10:53:04.998Z</time></trkpt><trkpt lat="44.55540040248794" lon="9.21271043667612"><ele>1070.0</ele><time>2026-05-03T10:53:23.998Z</time></trkpt><trkpt lat="44.55531717651901" lon="9.212711723034037"><ele>1070.0</ele><time>2026-05-03T10:53:24.998Z</time></trkpt><trkpt lat="44.555222678501266" lon="9.212722072048463"><ele>1070.0</ele><time>2026-05-03T10:53:25.998Z</time></trkpt><trkpt lat="44.55513567966795" lon="9.212726269433466"><ele>1068.2</ele><time>2026-05-03T10:53:26.998Z</time></trkpt><trkpt lat="44.55505587299096" lon="9.212752802046431"><ele>1066.4</ele><time>2026-05-03T10:53:27.998Z</time></trkpt><trkpt lat="44.554969949614744" lon="9.212799442161733"><ele>1064.6</ele><time>2026-05-03T10:53:28.998Z</time></trkpt><trkpt lat="44.5548853194312" lon="9.212932051969835"><ele>1062.8</ele><time>2026-05-03T10:53:29.998Z</time></trkpt><trkpt lat="44.554806641038844" lon="9.21306810443598"><ele>1061.0</ele><time>2026-05-03T10:53:30.998Z</time></trkpt><trkpt lat="44.554708030546614" lon="9.213177809241856"><ele>1061.0</ele><time>2026-05-03T10:53:31.998Z</time></trkpt><trkpt lat="44.55460320700671" lon="9.213264578789321"><ele>1061.0</ele><time>2026-05-03T10:53:32.998Z</time></trkpt><trkpt lat="44.55449978660407" lon="9.213364542300727"><ele>1061.0</ele><time>2026-05-03T10:53:33.998Z</time></trkpt><trkpt lat="44.554377954251954" lon="9.213396691642986"><ele>1061.0</ele><time>2026-05-03T10:53:34.998Z</time></trkpt><trkpt lat="44.55424771740946" lon="9.213446614706982"><ele>1058.25</ele><time>2026-05-03T10:53:35.998Z</time></trkpt><trkpt lat="44.55412565122082" lon="9.213505275886805"><ele>1055.5</ele><time>2026-05-03T10:53:36.998Z</time></trkpt><trkpt lat="44.554021774464694" lon="9.21347678396676"><ele>1052.75</ele><time>2026-05-03T10:53:37.998Z</time></trkpt><trkpt lat="44.55390495157829" lon="9.213443252543613"><ele>1050.0</ele><time>2026-05-03T10:53:38.998Z</time></trkpt><trkpt lat="44.55378748725744" lon="9.21338369237106"><ele>1049.25</ele><time>2026-05-03T10:53:39.998Z</time></trkpt><trkpt lat="44.55367965519474" lon="9.213293310968425"><ele>1048.5</ele><time>2026-05-03T10:53:40.998Z</time></trkpt><trkpt lat="44.55355192752563" lon="9.213204694877637"><ele>1047.75</ele><time>2026-05-03T10:53:41.998Z</time></trkpt><trkpt lat="44.55342812368008" lon="9.213100012262325"><ele>1047.0</ele><time>2026-05-03T10:53:42.998Z</time></trkpt><trkpt lat="44.553303522451415" lon="9.21305577551978"><ele>1047.4</ele><time>2026-05-03T10:53:43.998Z</time></trkpt><trkpt lat="44.55319113720588" lon="9.213030686777964"><ele>1047.8000000000002</ele><time>2026-05-03T10:53:44.998Z</time></trkpt><trkpt lat="44.55308485230241" lon="9.213037727296337"><ele>1048.2</ele><time>2026-05-03T10:53:45.998Z</time></trkpt><trkpt lat="44.55298844536695" lon="9.213033955213097"><ele>1048.6000000000001</ele><time>2026-05-03T10:53:46.998Z</time></trkpt><trkpt lat="44.55287065982055" lon="9.213026033995563"><ele>1049.0</ele><time>2026-05-03T10:53:47.998Z</time></trkpt><trkpt lat="44.55274618740909" lon="9.213007198219856"><ele>1049.0</ele><time>2026-05-03T10:53:48.998Z</time></trkpt><trkpt lat="44.552602615317035" lon="9.212978991876062"><ele>1049.0</ele><time>2026-05-03T10:53:49.998Z</time></trkpt><trkpt lat="44.55244628479435" lon="9.212948278974121"><ele>1049.0</ele><time>2026-05-03T10:53:50.998Z</time></trkpt><trkpt lat="44.55230149714889" lon="9.212941125114664"><ele>1049.0</ele><time>2026-05-03T10:53:51.998Z</time></trkpt><trkpt lat="44.552166889572774" lon="9.212907825867543"><ele>1052.5</ele><time>2026-05-03T10:53:52.998Z</time></trkpt><trkpt lat="44.552031423626076" lon="9.212905833317212"><ele>1056.0</ele><time>2026-05-03T10:53:53.998Z</time></trkpt><trkpt lat="44.5519009902192" lon="9.212964147365458"><ele>1059.5</ele><time>2026-05-03T10:53:54.998Z</time></trkpt><trkpt lat="44.551782504142786" lon="9.213066088376"><ele>1063.0</ele><time>2026-05-03T10:53:55.998Z</time></trkpt><trkpt lat="44.55166778525794" lon="9.213129498482676"><ele>1063.0</ele><time>2026-05-03T10:53:56.998Z</time></trkpt><trkpt lat="44.55153193768763" lon="9.213147515752828"><ele>1063.0</ele><time>2026-05-03T10:53:57.998Z</time></trkpt><trkpt lat="44.551393357528646" lon="9.21315662733126"><ele>1063.0</ele><time>2026-05-03T10:53:58.998Z</time></trkpt><trkpt lat="44.551294078285636" lon="9.213229680120365"><ele>1063.0</ele><time>2026-05-03T10:53:59.998Z</time></trkpt><trkpt lat="44.55121087617882" lon="9.213362930508847"><ele>1061.25</ele><time>2026-05-03T10:54:00.999Z</time></trkpt><trkpt lat="44.55111801288864" lon="9.213493518097245"><ele>1059.5</ele><time>2026-05-03T10:54:01.999Z</time></trkpt><trkpt lat="44.551008377102214" lon="9.21359455877889"><ele>1057.75</ele><time>2026-05-03T10:54:02.999Z</time></trkpt><trkpt lat="44.550863273949886" lon="9.213597332489577"><ele>1056.0</ele><time>2026-05-03T10:54:03.999Z</time></trkpt><trkpt lat="44.55072431035439" lon="9.213670013054802"><ele>1056.0</ele><time>2026-05-03T10:54:04.999Z</time></trkpt><trkpt lat="44.55057820602436" lon="9.213730749677225"><ele>1056.0</ele><time>2026-05-03T10:54:05.999Z</time></trkpt><trkpt lat="44.550485963698804" lon="9.213878909027654"><ele>1056.0</ele><time>2026-05-03T10:54:06.999Z</time></trkpt><trkpt lat="44.55038517877987" lon="9.214107905682974"><ele>1053.0</ele><time>2026-05-03T10:54:07.999Z</time></trkpt><trkpt lat="44.55027717673481" lon="9.214265479352237"><ele>1050.0</ele><time>2026-05-03T10:54:08.999Z</time></trkpt><trkpt lat="44.550173220371235" lon="9.21435753541872"><ele>1047.0</ele><time>2026-05-03T10:54:09.999Z</time></trkpt><trkpt lat="44.55003590903895" lon="9.21443348294319"><ele>1044.0</ele><time>2026-05-03T10:54:10.999Z</time></trkpt><trkpt lat="44.5498784778095" lon="9.21450432235796"><ele>1044.0</ele><time>2026-05-03T10:54:11.999Z</time></trkpt><trkpt lat="44.549727075114646" lon="9.214681084036817"><ele>1044.0</ele><time>2026-05-03T10:54:12.999Z</time></trkpt><trkpt lat="44.54956411686193" lon="9.214775147574658"><ele>1044.0</ele><time>2026-05-03T10:54:13.999Z</time></trkpt><trkpt lat="44.54941024359873" lon="9.214873615094834"><ele>1033.6666666666667</ele><time>2026-05-03T10:54:14.999Z</time></trkpt><trkpt lat="44.54924280596733" lon="9.214922345394935"><ele>1023.3333333333334</ele><time>2026-05-03T10:54:15.999Z</time></trkpt><trkpt lat="44.54908056705545" lon="9.214970723444369"><ele>1013.0</ele><time>2026-05-03T10:54:16.999Z</time></trkpt><trkpt lat="44.548939999921544" lon="9.215063166932424"><ele>1013.0</ele><time>2026-05-03T10:54:17.999Z</time></trkpt><trkpt lat="44.54881720833035" lon="9.215221796302496"><ele>1013.0</ele><time>2026-05-03T10:54:18.999Z</time></trkpt><trkpt lat="44.54868176170885" lon="9.215369363081974"><ele>1013.0</ele><time>2026-05-03T10:54:19.999Z</time></trkpt><trkpt lat="44.548546401127446" lon="9.215539535045577"><ele>1010.6666666666667</ele><time>2026-05-03T10:54:20.999Z</time></trkpt><trkpt lat="44.54840759313412" lon="9.215720509350872"><ele>1008.3333333333333</ele><time>2026-05-03T10:54:21.999Z</time></trkpt><trkpt lat="44.548270904870996" lon="9.215893088223464"><ele>1006.0</ele><time>2026-05-03T10:54:22.999Z</time></trkpt><trkpt lat="44.54813633329638" lon="9.216029112304922"><ele>1006.0</ele><time>2026-05-03T10:54:23.999Z</time></trkpt><trkpt lat="44.548017796951136" lon="9.216137767944993"><ele>1006.0</ele><time>2026-05-03T10:54:24.999Z</time></trkpt><trkpt lat="44.54790543381883" lon="9.216274192538707"><ele>1006.0</ele><time>2026-05-03T10:54:25.999Z</time></trkpt><trkpt lat="44.54783076367459" lon="9.216452541528707"><ele>1006.0</ele><time>2026-05-03T10:54:26.999Z</time></trkpt><trkpt lat="44.54775207424303" lon="9.216630044455378"><ele>1006.0</ele><time>2026-05-03T10:54:27.999Z</time></trkpt><trkpt lat="44.54762981341178" lon="9.216748458738726"><ele>1006.0</ele><time>2026-05-03T10:54:28.999Z</time></trkpt><trkpt lat="44.54755338317283" lon="9.216894883046859"><ele>1006.0</ele><time>2026-05-03T10:54:29.999Z</time></trkpt><trkpt lat="44.54748487016029" lon="9.217088311882168"><ele>1006.0</ele><time>2026-05-03T10:54:30.999Z</time></trkpt><trkpt lat="44.547459571356036" lon="9.21733656711306"><ele>1006.0</ele><time>2026-05-03T10:54:31.999Z</time></trkpt><trkpt lat="44.54739528863262" lon="9.217550643573604"><ele>1006.0</ele><time>2026-05-03T10:54:32.999Z</time></trkpt><trkpt lat="44.54732981642806" lon="9.217752963260281"><ele>1006.0</ele><time>2026-05-03T10:54:33.999Z</time></trkpt><trkpt lat="44.54724441033924" lon="9.217925962406186"><ele>1006.0</ele><time>2026-05-03T10:54:34.999Z</time></trkpt><trkpt lat="44.54715232742183" lon="9.218077757684206"><ele>1006.0</ele><time>2026-05-03T10:54:35.999Z</time></trkpt><trkpt lat="44.54706529022867" lon="9.21818875928897"><ele>1006.0</ele><time>2026-05-03T10:54:36.999Z</time></trkpt><trkpt lat="44.546968440788724" lon="9.218243963657432"><ele>1006.0</ele><time>2026-05-03T10:54:37.999Z</time></trkpt><trkpt lat="44.54686013573392" lon="9.218227734753965"><ele>1007.0</ele><time>2026-05-03T10:54:38.999Z</time></trkpt><trkpt lat="44.54676739139603" lon="9.218168357653312"><ele>1008.0</ele><time>2026-05-03T10:54:39.999Z</time></trkpt><trkpt lat="44.546675242699834" lon="9.218081874755955"><ele>1009.0</ele><time>2026-05-03T10:54:40.999Z</time></trkpt><trkpt lat="44.54655571341146" lon="9.2179740461745"><ele>1010.0</ele><time>2026-05-03T10:54:41.999Z</time></trkpt><trkpt lat="44.54643010871455" lon="9.217899495911254"><ele>1008.0</ele><time>2026-05-03T10:54:42.999Z</time></trkpt><trkpt lat="44.54632820525047" lon="9.217903860346649"><ele>1006.0</ele><time>2026-05-03T10:54:43.999Z</time></trkpt><trkpt lat="44.54620900493293" lon="9.21797448993586"><ele>1004.0</ele><time>2026-05-03T10:54:44.999Z</time></trkpt><trkpt lat="44.54605433682968" lon="9.218068814330149"><ele>1002.0</ele><time>2026-05-03T10:54:45.999Z</time></trkpt><trkpt lat="44.54591927437363" lon="9.218155311694943"><ele>1002.0</ele><time>2026-05-03T10:54:46.999Z</time></trkpt><trkpt lat="44.545784817021264" lon="9.218167009909667"><ele>1002.0</ele><time>2026-05-03T10:54:47.999Z</time></trkpt><trkpt lat="44.545667770205654" lon="9.218149037367555"><ele>1002.0</ele><time>2026-05-03T10:54:48.999Z</time></trkpt><trkpt lat="44.5455667041447" lon="9.21818225123603"><ele>1002.0</ele><time>2026-05-03T10:54:49.999Z</time></trkpt><trkpt lat="44.54543251633955" lon="9.218276921154102"><ele>997.25</ele><time>2026-05-03T10:54:50.999Z</time></trkpt><trkpt lat="44.545305031911894" lon="9.218409090411518"><ele>992.5</ele><time>2026-05-03T10:54:51.999Z</time></trkpt><trkpt lat="44.54518642766008" lon="9.218445490871845"><ele>987.75</ele><time>2026-05-03T10:54:52.999Z</time></trkpt><trkpt lat="44.54505766722197" lon="9.218469598593998"><ele>983.0</ele><time>2026-05-03T10:54:53.999Z</time></trkpt><trkpt lat="44.54496383414061" lon="9.218551806107996"><ele>983.0</ele><time>2026-05-03T10:54:54.999Z</time></trkpt><trkpt lat="44.54485527476309" lon="9.218683368414442"><ele>983.0</ele><time>2026-05-03T10:54:55.999Z</time></trkpt><trkpt lat="44.54472653425276" lon="9.21876593920388"><ele>983.0</ele><time>2026-05-03T10:54:56.999Z</time></trkpt><trkpt lat="44.544605515561656" lon="9.218831241690408"><ele>983.0</ele><time>2026-05-03T10:54:57.999Z</time></trkpt><trkpt lat="44.544519946551915" lon="9.218881741523191"><ele>982.5</ele><time>2026-05-03T10:54:58.999Z</time></trkpt><trkpt lat="44.544395819050806" lon="9.218865742539593"><ele>982.0</ele><time>2026-05-03T10:55:00.999Z</time></trkpt><trkpt lat="44.544335228626935" lon="9.218731896888894"><ele>981.5</ele><time>2026-05-03T10:55:01.999Z</time></trkpt><trkpt lat="44.54430335127932" lon="9.218570789520623"><ele>981.0</ele><time>2026-05-03T10:55:02.999Z</time></trkpt><trkpt lat="44.544253891207525" lon="9.218396418607997"><ele>981.0</ele><time>2026-05-03T10:55:03.999Z</time></trkpt><trkpt lat="44.54415775537665" lon="9.218255660053693"><ele>981.0</ele><time>2026-05-03T10:55:04.999Z</time></trkpt><trkpt lat="44.5440183768461" lon="9.218122208705632"><ele>981.0</ele><time>2026-05-03T10:55:05.999Z</time></trkpt><trkpt lat="44.5439054095917" lon="9.218034715703242"><ele>981.0</ele><time>2026-05-03T10:55:06.999Z</time></trkpt><trkpt lat="44.54376437309025" lon="9.218007273344313"><ele>978.75</ele><time>2026-05-03T10:55:07.999Z</time></trkpt><trkpt lat="44.54363215409619" lon="9.217999843560207"><ele>976.5</ele><time>2026-05-03T10:55:08.999Z</time></trkpt><trkpt lat="44.54350714642279" lon="9.218001971140085"><ele>974.25</ele><time>2026-05-03T10:55:09.999Z</time></trkpt><trkpt lat="44.54342013302968" lon="9.217885228119313"><ele>972.0</ele><time>2026-05-03T10:55:10.999Z</time></trkpt><trkpt lat="44.54334078452858" lon="9.217687276135946"><ele>972.0</ele><time>2026-05-03T10:55:11.999Z</time></trkpt><trkpt lat="44.54325532221296" lon="9.217501637620655"><ele>972.0</ele><time>2026-05-03T10:55:12.999Z</time></trkpt><trkpt lat="44.54315360925089" lon="9.217358768771113"><ele>972.0</ele><time>2026-05-03T10:55:13.999Z</time></trkpt><trkpt lat="44.54305906790443" lon="9.217219228785488"><ele>972.0</ele><time>2026-05-03T10:55:14.999Z</time></trkpt><trkpt lat="44.542973290995576" lon="9.217081735648943"><ele>966.8</ele><time>2026-05-03T10:55:15.999Z</time></trkpt><trkpt lat="44.54287756179407" lon="9.216962625559109"><ele>961.6</ele><time>2026-05-03T10:55:16.999Z</time></trkpt><trkpt lat="44.54279075565438" lon="9.216867034466794"><ele>956.3999999999999</ele><time>2026-05-03T10:55:17.999Z</time></trkpt><trkpt lat="44.542696357534304" lon="9.216846222061358"><ele>951.1999999999999</ele><time>2026-05-03T10:55:18.999Z</time></trkpt><trkpt lat="44.54261635978091" lon="9.21691846608976"><ele>946.0</ele><time>2026-05-03T10:55:19.999Z</time></trkpt><trkpt lat="44.54253505624792" lon="9.217050826256827"><ele>946.0</ele><time>2026-05-03T10:55:20.999Z</time></trkpt><trkpt lat="44.54245251542918" lon="9.21722622458963"><ele>946.0</ele><time>2026-05-03T10:55:21.999Z</time></trkpt><trkpt lat="44.5423522485492" lon="9.217377968771926"><ele>946.0</ele><time>2026-05-03T10:55:22.999Z</time></trkpt><trkpt lat="44.542297109733454" lon="9.217548966855723"><ele>946.0</ele><time>2026-05-03T10:55:23.999Z</time></trkpt><trkpt lat="44.54219695227207" lon="9.217639331193489"><ele>948.75</ele><time>2026-05-03T10:55:24.999Z</time></trkpt><trkpt lat="44.542109979680866" lon="9.217658391959215"><ele>951.5</ele><time>2026-05-03T10:55:25.999Z</time></trkpt><trkpt lat="44.54200039365492" lon="9.217656001287038"><ele>954.25</ele><time>2026-05-03T10:55:26.998Z</time></trkpt><trkpt lat="44.54191287628328" lon="9.217498405651117"><ele>957.0</ele><time>2026-05-03T10:55:27.998Z</time></trkpt><trkpt lat="44.54179493817127" lon="9.217370331313116"><ele>950.25</ele><time>2026-05-03T10:55:28.998Z</time></trkpt><trkpt lat="44.54165778252156" lon="9.217264831925654"><ele>943.5</ele><time>2026-05-03T10:55:29.998Z</time></trkpt><trkpt lat="44.54153648485924" lon="9.217186705859499"><ele>936.75</ele><time>2026-05-03T10:55:30.998Z</time></trkpt><trkpt lat="44.541430653365175" lon="9.217202541395878"><ele>930.0</ele><time>2026-05-03T10:55:31.998Z</time></trkpt><trkpt lat="44.541335028107326" lon="9.217254909011311"><ele>933.5</ele><time>2026-05-03T10:55:32.998Z</time></trkpt><trkpt lat="44.5412121377605" lon="9.217336594142681"><ele>937.0</ele><time>2026-05-03T10:55:33.998Z</time></trkpt><trkpt lat="44.54111605033487" lon="9.217337024326037"><ele>940.5</ele><time>2026-05-03T10:55:34.998Z</time></trkpt><trkpt lat="44.541051944548244" lon="9.217213558256013"><ele>944.0</ele><time>2026-05-03T10:55:35.998Z</time></trkpt><trkpt lat="44.54098388896084" lon="9.217019928585756"><ele>944.0</ele><time>2026-05-03T10:55:36.998Z</time></trkpt><trkpt lat="44.540910435850726" lon="9.216840160185997"><ele>944.0</ele><time>2026-05-03T10:55:37.998Z</time></trkpt><trkpt lat="44.54089159627978" lon="9.216677644540164"><ele>944.0</ele><time>2026-05-03T10:55:38.998Z</time></trkpt><trkpt lat="44.54084183174222" lon="9.216538421090199"><ele>944.0</ele><time>2026-05-03T10:55:39.998Z</time></trkpt><trkpt lat="44.54075915865261" lon="9.21639307349573"><ele>939.5</ele><time>2026-05-03T10:55:40.998Z</time></trkpt><trkpt lat="44.54068809706501" lon="9.216228044332976"><ele>935.0</ele><time>2026-05-03T10:55:41.998Z</time></trkpt><trkpt lat="44.54062395105477" lon="9.21607075216731"><ele>930.5</ele><time>2026-05-03T10:55:42.998Z</time></trkpt><trkpt lat="44.54058528088157" lon="9.215906496637333"><ele>926.0</ele><time>2026-05-03T10:55:43.998Z</time></trkpt><trkpt lat="44.54057289566751" lon="9.21571454088542"><ele>923.0</ele><time>2026-05-03T10:55:44.998Z</time></trkpt><trkpt lat="44.540565817982916" lon="9.21551672677117"><ele>920.0</ele><time>2026-05-03T10:55:45.998Z</time></trkpt><trkpt lat="44.540542420116495" lon="9.215345035847891"><ele>917.0</ele><time>2026-05-03T10:55:46.998Z</time></trkpt><trkpt lat="44.540500591667886" lon="9.215185542896132"><ele>914.0</ele><time>2026-05-03T10:55:47.998Z</time></trkpt><trkpt lat="44.54041523430833" lon="9.215050906856845"><ele>911.8000000000001</ele><time>2026-05-03T10:55:48.998Z</time></trkpt><trkpt lat="44.540342460024384" lon="9.214931893141657"><ele>909.6000000000001</ele><time>2026-05-03T10:55:49.998Z</time></trkpt><trkpt lat="44.54030449240702" lon="9.214825087612788"><ele>907.4</ele><time>2026-05-03T10:55:50.998Z</time></trkpt><trkpt lat="44.54029210416224" lon="9.214718073629466"><ele>905.2</ele><time>2026-05-03T10:55:51.998Z</time></trkpt><trkpt lat="44.54036757400265" lon="9.214654470650146"><ele>903.0</ele><time>2026-05-03T10:55:53.998Z</time></trkpt><trkpt lat="44.54047435850267" lon="9.214609238454313"><ele>901.8</ele><time>2026-05-03T10:55:57.998Z</time></trkpt><trkpt lat="44.54053950590533" lon="9.214634497691357"><ele>900.5999999999999</ele><time>2026-05-03T10:55:58.998Z</time></trkpt><trkpt lat="44.54062772046952" lon="9.21471509913065"><ele>899.4000000000001</ele><time>2026-05-03T10:55:59.998Z</time></trkpt><trkpt lat="44.540722856543994" lon="9.21482116420012"><ele>898.2</ele><time>2026-05-03T10:56:00.998Z</time></trkpt><trkpt lat="44.54081970331624" lon="9.214961817656322"><ele>897.0</ele><time>2026-05-03T10:56:01.998Z</time></trkpt><trkpt lat="44.54086446371465" lon="9.215110200138078"><ele>900.4000000000001</ele><time>2026-05-03T10:56:02.998Z</time></trkpt><trkpt lat="44.54087283428037" lon="9.21527522712477"><ele>903.8000000000001</ele><time>2026-05-03T10:56:03.998Z</time></trkpt><trkpt lat="44.5408668215806" lon="9.215444279546288"><ele>907.2</ele><time>2026-05-03T10:56:04.998Z</time></trkpt><trkpt lat="44.54088772697303" lon="9.215596012882084"><ele>910.6</ele><time>2026-05-03T10:56:05.998Z</time></trkpt><trkpt lat="44.5409213498734" lon="9.215694428967325"><ele>914.0</ele><time>2026-05-03T10:56:06.999Z</time></trkpt><trkpt lat="44.54098797226847" lon="9.215724853282389"><ele>914.0</ele><time>2026-05-03T10:56:07.999Z</time></trkpt><trkpt lat="44.541097787068416" lon="9.215629643187311"><ele>914.0</ele><time>2026-05-03T10:56:09.999Z</time></trkpt><trkpt lat="44.54111902927614" lon="9.215435149379369"><ele>914.0</ele><time>2026-05-03T10:56:10.999Z</time></trkpt><trkpt lat="44.54112113317609" lon="9.215263876998762"><ele>914.0</ele><time>2026-05-03T10:56:11.999Z</time></trkpt><trkpt lat="44.54109441467761" lon="9.2150624118224"><ele>914.0</ele><time>2026-05-03T10:56:12.999Z</time></trkpt><trkpt lat="44.54104652818156" lon="9.214824065246447"><ele>914.0</ele><time>2026-05-03T10:56:13.999Z</time></trkpt><trkpt lat="44.540967056023916" lon="9.214636379750393"><ele>914.0</ele><time>2026-05-03T10:56:14.999Z</time></trkpt><trkpt lat="44.540886086705285" lon="9.2144747974106"><ele>909.75</ele><time>2026-05-03T10:56:15.999Z</time></trkpt><trkpt lat="44.54081378617152" lon="9.214307628831955"><ele>905.5</ele><time>2026-05-03T10:56:16.999Z</time></trkpt><trkpt lat="44.540745696109035" lon="9.214148703478424"><ele>901.25</ele><time>2026-05-03T10:56:17.999Z</time></trkpt><trkpt lat="44.54067369591894" lon="9.214000716379298"><ele>897.0</ele><time>2026-05-03T10:56:18.999Z</time></trkpt><trkpt lat="44.54063788435512" lon="9.213868179921356"><ele>892.8333333333334</ele><time>2026-05-03T10:56:19.999Z</time></trkpt><trkpt lat="44.540606530348725" lon="9.213759189081593"><ele>888.6666666666667</ele><time>2026-05-03T10:56:20.999Z</time></trkpt><trkpt lat="44.54064609193217" lon="9.213682379801275"><ele>884.5</ele><time>2026-05-03T10:56:21.999Z</time></trkpt><trkpt lat="44.54070918858947" lon="9.213604786937355"><ele>880.3333333333334</ele><time>2026-05-03T10:56:22.999Z</time></trkpt><trkpt lat="44.540790848106305" lon="9.213626396769502"><ele>876.1666666666667</ele><time>2026-05-03T10:56:23.999Z</time></trkpt><trkpt lat="44.54084757749273" lon="9.213692251166721"><ele>872.0</ele><time>2026-05-03T10:56:24.999Z</time></trkpt><trkpt lat="44.54086418151294" lon="9.213815319427026"><ele>880.3333333333334</ele><time>2026-05-03T10:56:25.999Z</time></trkpt><trkpt lat="44.54097414127181" lon="9.214080196061468"><ele>888.6666666666667</ele><time>2026-05-03T10:56:26.999Z</time></trkpt><trkpt lat="44.54104385888984" lon="9.214256428917624"><ele>897.0</ele><time>2026-05-03T10:56:27.999Z</time></trkpt><trkpt lat="44.54112112777103" lon="9.214392790848"><ele>897.0</ele><time>2026-05-03T10:56:28.999Z</time></trkpt><trkpt lat="44.54117735952348" lon="9.214480660373756"><ele>897.0</ele><time>2026-05-03T10:56:29.999Z</time></trkpt><trkpt lat="44.54126014252392" lon="9.214423191355644"><ele>897.0</ele><time>2026-05-03T10:56:30.999Z</time></trkpt><trkpt lat="44.54131127832676" lon="9.214230224415763"><ele>897.0</ele><time>2026-05-03T10:56:32.999Z</time></trkpt><trkpt lat="44.541291212134865" lon="9.21411500375384"><ele>897.0</ele><time>2026-05-03T10:56:33.999Z</time></trkpt><trkpt lat="44.54122685871636" lon="9.213964449438208"><ele>890.75</ele><time>2026-05-03T10:56:34.999Z</time></trkpt><trkpt lat="44.541146570122145" lon="9.213782516443255"><ele>884.5</ele><time>2026-05-03T10:56:35.999Z</time></trkpt><trkpt lat="44.541093302604864" lon="9.213620197595585"><ele>878.25</ele><time>2026-05-03T10:56:36.999Z</time></trkpt><trkpt lat="44.54104615736568" lon="9.213469114001743"><ele>872.0</ele><time>2026-05-03T10:56:37.999Z</time></trkpt><trkpt lat="44.54098555544167" lon="9.213331839228882"><ele>872.0</ele><time>2026-05-03T10:56:38.999Z</time></trkpt><trkpt lat="44.540879844214786" lon="9.213223108143957"><ele>872.0</ele><time>2026-05-03T10:56:39.999Z</time></trkpt><trkpt lat="44.54076895854299" lon="9.213166281482"><ele>872.0</ele><time>2026-05-03T10:56:40.999Z</time></trkpt><trkpt lat="44.54063639070476" lon="9.21320962012762"><ele>872.0</ele><time>2026-05-03T10:56:41.999Z</time></trkpt><trkpt lat="44.54049603049361" lon="9.21325263511912"><ele>868.5</ele><time>2026-05-03T10:56:42.999Z</time></trkpt><trkpt lat="44.54037902199541" lon="9.213365804311504"><ele>865.0</ele><time>2026-05-03T10:56:43.999Z</time></trkpt><trkpt lat="44.54025404435889" lon="9.213460544804262"><ele>861.5</ele><time>2026-05-03T10:56:44.999Z</time></trkpt><trkpt lat="44.540147476414475" lon="9.213584495464843"><ele>858.0</ele><time>2026-05-03T10:56:45.999Z</time></trkpt><trkpt lat="44.54003287901037" lon="9.213639807874385"><ele>858.0</ele><time>2026-05-03T10:56:46.999Z</time></trkpt><trkpt lat="44.53991165117867" lon="9.213670559469573"><ele>858.0</ele><time>2026-05-03T10:56:47.999Z</time></trkpt><trkpt lat="44.5397820416192" lon="9.213702046873522"><ele>858.0</ele><time>2026-05-03T10:56:48.999Z</time></trkpt><trkpt lat="44.539671878682476" lon="9.21375698820401"><ele>858.0</ele><time>2026-05-03T10:56:49.999Z</time></trkpt><trkpt lat="44.539579193391624" lon="9.213871121794304"><ele>855.5</ele><time>2026-05-03T10:56:50.999Z</time></trkpt><trkpt lat="44.539484862803064" lon="9.214031004419667"><ele>853.0</ele><time>2026-05-03T10:56:51.999Z</time></trkpt><trkpt lat="44.53941404052019" lon="9.214213344410172"><ele>850.5</ele><time>2026-05-03T10:56:52.999Z</time></trkpt><trkpt lat="44.539312822374754" lon="9.214335683616941"><ele>848.0</ele><time>2026-05-03T10:56:53.999Z</time></trkpt><trkpt lat="44.53924810021432" lon="9.214478888806426"><ele>848.0</ele><time>2026-05-03T10:56:54.999Z</time></trkpt><trkpt lat="44.53921114211884" lon="9.21467231118426"><ele>848.0</ele><time>2026-05-03T10:56:55.999Z</time></trkpt><trkpt lat="44.53922536590136" lon="9.214875212920498"><ele>848.0</ele><time>2026-05-03T10:56:56.999Z</time></trkpt><trkpt lat="44.53916874187742" lon="9.215028849227377"><ele>848.0</ele><time>2026-05-03T10:56:57.999Z</time></trkpt><trkpt lat="44.539127734855626" lon="9.21512018489782"><ele>848.0000000000001</ele><time>2026-05-03T10:56:58.999Z</time></trkpt><trkpt lat="44.53906438343772" lon="9.215173286589865"><ele>848.0</ele><time>2026-05-03T10:56:59.999Z</time></trkpt><trkpt lat="44.5389977425834" lon="9.215146573532147"><ele>848.0</ele><time>2026-05-03T10:57:01.999Z</time></trkpt><trkpt lat="44.53907295960218" lon="9.215038545449197"><ele>848.0</ele><time>2026-05-03T10:57:07.999Z</time></trkpt><trkpt lat="44.539129158819776" lon="9.214993888006587"><ele>848.0000000000001</ele><time>2026-05-03T10:57:08.999Z</time></trkpt><trkpt lat="44.53917359596334" lon="9.21491978787944"><ele>848.0</ele><time>2026-05-03T10:57:09.999Z</time></trkpt><trkpt lat="44.53920762277883" lon="9.214763623597877"><ele>848.0</ele><time>2026-05-03T10:57:10.999Z</time></trkpt><trkpt lat="44.539212755392896" lon="9.214623269371685"><ele>848.0</ele><time>2026-05-03T10:57:11.999Z</time></trkpt><trkpt lat="44.53918541317251" lon="9.214464215706297"><ele>848.0</ele><time>2026-05-03T10:57:12.999Z</time></trkpt><trkpt lat="44.53924017023099" lon="9.21432472609023"><ele>848.0</ele><time>2026-05-03T10:57:13.999Z</time></trkpt><trkpt lat="44.53930950266951" lon="9.214152147932003"><ele>848.0</ele><time>2026-05-03T10:57:14.999Z</time></trkpt><trkpt lat="44.53937751748668" lon="9.213992631630578"><ele>848.0</ele><time>2026-05-03T10:57:15.999Z</time></trkpt><trkpt lat="44.53943653131897" lon="9.213830813204092"><ele>848.0</ele><time>2026-05-03T10:57:16.999Z</time></trkpt><trkpt lat="44.539467969615615" lon="9.213699275723947"><ele>848.0</ele><time>2026-05-03T10:57:17.999Z</time></trkpt><trkpt lat="44.53949404763804" lon="9.213545815976865"><ele>850.0</ele><time>2026-05-03T10:57:18.999Z</time></trkpt><trkpt lat="44.53954080011453" lon="9.213450741822832"><ele>852.0</ele><time>2026-05-03T10:57:19.999Z</time></trkpt><trkpt lat="44.53965859230776" lon="9.21343216982175"><ele>854.0</ele><time>2026-05-03T10:57:21.999Z</time></trkpt><trkpt lat="44.539744415681795" lon="9.21345332958535"><ele>856.0</ele><time>2026-05-03T10:57:22.999Z</time></trkpt><trkpt lat="44.53984445157022" lon="9.21343020578238"><ele>858.0</ele><time>2026-05-03T10:57:23.999Z</time></trkpt><trkpt lat="44.539954809067325" lon="9.213363306326997"><ele>858.0</ele><time>2026-05-03T10:57:25.999Z</time></trkpt><trkpt lat="44.54003914942887" lon="9.213327098816174"><ele>858.0</ele><time>2026-05-03T10:57:26.999Z</time></trkpt><trkpt lat="44.5401465039309" lon="9.213250625021338"><ele>858.0</ele><time>2026-05-03T10:57:28.999Z</time></trkpt><trkpt lat="44.5402416986052" lon="9.21314772717883"><ele>858.0</ele><time>2026-05-03T10:57:30.999Z</time></trkpt><trkpt lat="44.540295447075586" lon="9.213057651100662"><ele>858.0</ele><time>2026-05-03T10:57:31.999Z</time></trkpt><trkpt lat="44.54041146966281" lon="9.212913401819511"><ele>853.75</ele><time>2026-05-03T10:57:33.998Z</time></trkpt><trkpt lat="44.54050916639363" lon="9.212854033873187"><ele>849.5</ele><time>2026-05-03T10:57:34.998Z</time></trkpt><trkpt lat="44.54062776849069" lon="9.212799449682127"><ele>845.25</ele><time>2026-05-03T10:57:35.998Z</time></trkpt><trkpt lat="44.5407493079924" lon="9.212752536698293"><ele>841.0</ele><time>2026-05-03T10:57:36.998Z</time></trkpt><trkpt lat="44.54085374675302" lon="9.21272526986947"><ele>841.0</ele><time>2026-05-03T10:57:37.998Z</time></trkpt><trkpt lat="44.54098240653721" lon="9.212702098736814"><ele>841.0</ele><time>2026-05-03T10:57:38.998Z</time></trkpt><trkpt lat="44.54111616608167" lon="9.212684647016564"><ele>841.0</ele><time>2026-05-03T10:57:39.998Z</time></trkpt><trkpt lat="44.541259413118205" lon="9.21267616476767"><ele>841.0</ele><time>2026-05-03T10:57:40.998Z</time></trkpt><trkpt lat="44.541385948508015" lon="9.212672384724032"><ele>839.75</ele><time>2026-05-03T10:57:41.998Z</time></trkpt><trkpt lat="44.541504130737835" lon="9.212677098574774"><ele>838.5</ele><time>2026-05-03T10:57:42.998Z</time></trkpt><trkpt lat="44.54161644141099" lon="9.212704520667568"><ele>837.25</ele><time>2026-05-03T10:57:43.998Z</time></trkpt><trkpt lat="44.54172379243757" lon="9.212752435671879"><ele>836.0</ele><time>2026-05-03T10:57:44.998Z</time></trkpt><trkpt lat="44.541805702523426" lon="9.212876923874848"><ele>836.0</ele><time>2026-05-03T10:57:45.998Z</time></trkpt><trkpt lat="44.54185999261024" lon="9.212985587261564"><ele>836.0</ele><time>2026-05-03T10:57:46.998Z</time></trkpt><trkpt lat="44.54185568896401" lon="9.213130460781107"><ele>836.0</ele><time>2026-05-03T10:57:47.998Z</time></trkpt><trkpt lat="44.541889753177465" lon="9.213290901188378"><ele>836.0</ele><time>2026-05-03T10:57:48.998Z</time></trkpt><trkpt lat="44.5419330184444" lon="9.21348734803541"><ele>839.75</ele><time>2026-05-03T10:57:49.998Z</time></trkpt><trkpt lat="44.54199005210766" lon="9.213646525736356"><ele>843.5</ele><time>2026-05-03T10:57:50.998Z</time></trkpt><trkpt lat="44.54205262246792" lon="9.213764376385058"><ele>847.25</ele><time>2026-05-03T10:57:51.998Z</time></trkpt><trkpt lat="44.542148512343985" lon="9.213822070686728"><ele>851.0</ele><time>2026-05-03T10:57:52.998Z</time></trkpt><trkpt lat="44.54228001954642" lon="9.21371728680531"><ele>851.0</ele><time>2026-05-03T10:57:54.998Z</time></trkpt><trkpt lat="44.542304580534314" lon="9.213596518096717"><ele>851.0</ele><time>2026-05-03T10:57:55.998Z</time></trkpt><trkpt lat="44.54231953697741" lon="9.213411926536114"><ele>851.0</ele><time>2026-05-03T10:57:56.998Z</time></trkpt><trkpt lat="44.54234795297566" lon="9.213225760751925"><ele>851.0</ele><time>2026-05-03T10:57:57.998Z</time></trkpt><trkpt lat="44.542373578065416" lon="9.213029526713486"><ele>845.5</ele><time>2026-05-03T10:57:58.998Z</time></trkpt><trkpt lat="44.542427982305185" lon="9.212829501843334"><ele>840.0</ele><time>2026-05-03T10:57:59.998Z</time></trkpt><trkpt lat="44.54247527422013" lon="9.212643164258171"><ele>834.5</ele><time>2026-05-03T10:58:00.998Z</time></trkpt><trkpt lat="44.54251363149666" lon="9.212538897861636"><ele>829.0</ele><time>2026-05-03T10:58:01.998Z</time></trkpt><trkpt lat="44.542580412395345" lon="9.21249818605469"><ele>829.0</ele><time>2026-05-03T10:58:02.998Z</time></trkpt><trkpt lat="44.54269870092799" lon="9.212513292365397"><ele>829.0</ele><time>2026-05-03T10:58:04.998Z</time></trkpt><trkpt lat="44.54284917152155" lon="9.21249811817341"><ele>829.0</ele><time>2026-05-03T10:58:05.998Z</time></trkpt><trkpt lat="44.54302674456703" lon="9.212410497804893"><ele>827.2</ele><time>2026-05-03T10:58:06.998Z</time></trkpt><trkpt lat="44.54314271068563" lon="9.212322075064035"><ele>825.4000000000001</ele><time>2026-05-03T10:58:07.998Z</time></trkpt><trkpt lat="44.543252480837744" lon="9.21225465015963"><ele>823.6</ele><time>2026-05-03T10:58:08.998Z</time></trkpt><trkpt lat="44.54332550771547" lon="9.212199514368674"><ele>821.8</ele><time>2026-05-03T10:58:09.998Z</time></trkpt><trkpt lat="44.54333118807232" lon="9.212073256766569"><ele>820.0</ele><time>2026-05-03T10:58:11.998Z</time></trkpt><trkpt lat="44.54326407816636" lon="9.211963355933598"><ele>820.0</ele><time>2026-05-03T10:58:12.999Z</time></trkpt><trkpt lat="44.54320273146414" lon="9.211900761139105"><ele>820.0</ele><time>2026-05-03T10:58:13.999Z</time></trkpt><trkpt lat="44.5430791378525" lon="9.21184620779433"><ele>820.0</ele><time>2026-05-03T10:58:14.999Z</time></trkpt><trkpt lat="44.542895583276334" lon="9.211786831473908"><ele>820.0</ele><time>2026-05-03T10:58:15.999Z</time></trkpt><trkpt lat="44.54274846826289" lon="9.21173801621095"><ele>817.5</ele><time>2026-05-03T10:58:16.999Z</time></trkpt><trkpt lat="44.54261484108057" lon="9.211691429607455"><ele>815.0</ele><time>2026-05-03T10:58:17.999Z</time></trkpt><trkpt lat="44.54248357166402" lon="9.211647532339995"><ele>812.5</ele><time>2026-05-03T10:58:18.999Z</time></trkpt><trkpt lat="44.54237233968568" lon="9.21157406321807"><ele>810.0</ele><time>2026-05-03T10:58:19.999Z</time></trkpt><trkpt lat="44.54227786553364" lon="9.211509937953249"><ele>810.0</ele><time>2026-05-03T10:58:20.999Z</time></trkpt><trkpt lat="44.54227446532032" lon="9.211391838042077"><ele>810.0</ele><time>2026-05-03T10:58:22.999Z</time></trkpt><trkpt lat="44.54238977495097" lon="9.211364360229396"><ele>810.0</ele><time>2026-05-03T10:58:24.999Z</time></trkpt><trkpt lat="44.54243849131074" lon="9.2114212086532"><ele>810.0</ele><time>2026-05-03T10:58:25.999Z</time></trkpt><trkpt lat="44.54254032080202" lon="9.211443345800737"><ele>810.0</ele><time>2026-05-03T10:58:26.999Z</time></trkpt><trkpt lat="44.54270954369796" lon="9.211497298318502"><ele>810.0</ele><time>2026-05-03T10:58:27.999Z</time></trkpt><trkpt lat="44.54283915724419" lon="9.211530751171555"><ele>810.0</ele><time>2026-05-03T10:58:28.999Z</time></trkpt><trkpt lat="44.54294604761374" lon="9.21153227693295"><ele>810.0</ele><time>2026-05-03T10:58:29.999Z</time></trkpt><trkpt lat="44.54302498886785" lon="9.211512796197283"><ele>810.0</ele><time>2026-05-03T10:58:30.999Z</time></trkpt><trkpt lat="44.543096374328314" lon="9.211348586486704"><ele>809.4</ele><time>2026-05-03T10:58:32.999Z</time></trkpt><trkpt lat="44.54307640480035" lon="9.211247962366526"><ele>808.8</ele><time>2026-05-03T10:58:33.999Z</time></trkpt><trkpt lat="44.54304698226696" lon="9.21115678075352"><ele>808.2</ele><time>2026-05-03T10:58:34.999Z</time></trkpt><trkpt lat="44.54299413942656" lon="9.211027882369974"><ele>807.6</ele><time>2026-05-03T10:58:35.999Z</time></trkpt><trkpt lat="44.54290433703218" lon="9.210860458647543"><ele>807.0</ele><time>2026-05-03T10:58:36.999Z</time></trkpt><trkpt lat="44.5428205311621" lon="9.210714035145008"><ele>815.5</ele><time>2026-05-03T10:58:37.999Z</time></trkpt><trkpt lat="44.5427338834057" lon="9.210572342738306"><ele>824.0</ele><time>2026-05-03T10:58:38.999Z</time></trkpt><trkpt lat="44.54264812713801" lon="9.210428093706264"><ele>832.5</ele><time>2026-05-03T10:58:39.999Z</time></trkpt><trkpt lat="44.54256899543697" lon="9.210329191498579"><ele>841.0</ele><time>2026-05-03T10:58:40.999Z</time></trkpt><trkpt lat="44.54248133111851" lon="9.21026228753247"><ele>841.0</ele><time>2026-05-03T10:58:41.999Z</time></trkpt><trkpt lat="44.542343376365444" lon="9.21021838629103"><ele>841.0</ele><time>2026-05-03T10:58:42.999Z</time></trkpt><trkpt lat="44.54221358495093" lon="9.210187775842781"><ele>841.0</ele><time>2026-05-03T10:58:43.999Z</time></trkpt><trkpt lat="44.54207423958856" lon="9.210162623372453"><ele>841.0</ele><time>2026-05-03T10:58:44.999Z</time></trkpt><trkpt lat="44.541935832952944" lon="9.210144015428696"><ele>837.5</ele><time>2026-05-03T10:58:45.999Z</time></trkpt><trkpt lat="44.54179152926925" lon="9.210165183094194"><ele>834.0</ele><time>2026-05-03T10:58:46.999Z</time></trkpt><trkpt lat="44.5416476240879" lon="9.210171933982501"><ele>830.5</ele><time>2026-05-03T10:58:47.999Z</time></trkpt><trkpt lat="44.54149322409563" lon="9.210180444937686"><ele>827.0</ele><time>2026-05-03T10:58:48.999Z</time></trkpt><trkpt lat="44.54133254578046" lon="9.21018791399554"><ele>828.25</ele><time>2026-05-03T10:58:49.999Z</time></trkpt><trkpt lat="44.54117598781962" lon="9.210189009807415"><ele>829.5</ele><time>2026-05-03T10:58:50.999Z</time></trkpt><trkpt lat="44.54102680153337" lon="9.210216817138665"><ele>830.75</ele><time>2026-05-03T10:58:51.999Z</time></trkpt><trkpt lat="44.54088703428136" lon="9.21021237850517"><ele>832.0</ele><time>2026-05-03T10:58:52.999Z</time></trkpt><trkpt lat="44.54073976035284" lon="9.210199496929997"><ele>832.0</ele><time>2026-05-03T10:58:53.999Z</time></trkpt><trkpt lat="44.54058114923872" lon="9.210194470093136"><ele>832.0</ele><time>2026-05-03T10:58:54.999Z</time></trkpt><trkpt lat="44.54043961927519" lon="9.21014422932595"><ele>832.0</ele><time>2026-05-03T10:58:55.999Z</time></trkpt><trkpt lat="44.54032341170466" lon="9.21010128271558"><ele>832.0</ele><time>2026-05-03T10:58:56.999Z</time></trkpt><trkpt lat="44.54021819573638" lon="9.209995895699619"><ele>832.0</ele><time>2026-05-03T10:58:57.999Z</time></trkpt><trkpt lat="44.54012202725271" lon="9.20996908952492"><ele>832.0</ele><time>2026-05-03T10:58:58.999Z</time></trkpt><trkpt lat="44.5400138112353" lon="9.209974361742454"><ele>832.0</ele><time>2026-05-03T10:58:59.999Z</time></trkpt><trkpt lat="44.53990364946357" lon="9.21008470430678"><ele>832.0</ele><time>2026-05-03T10:59:00.999Z</time></trkpt><trkpt lat="44.539800438951524" lon="9.210152308207643"><ele>832.0</ele><time>2026-05-03T10:59:01.999Z</time></trkpt><trkpt lat="44.53968726843022" lon="9.210118311583008"><ele>832.0</ele><time>2026-05-03T10:59:02.999Z</time></trkpt><trkpt lat="44.53955610258233" lon="9.21008060924909"><ele>832.0</ele><time>2026-05-03T10:59:03.999Z</time></trkpt><trkpt lat="44.539423786594796" lon="9.210062194280635"><ele>832.0</ele><time>2026-05-03T10:59:04.999Z</time></trkpt><trkpt lat="44.539309709125554" lon="9.209993048441671"><ele>833.25</ele><time>2026-05-03T10:59:05.999Z</time></trkpt><trkpt lat="44.53922332093243" lon="9.209957554907456"><ele>834.5</ele><time>2026-05-03T10:59:06.999Z</time></trkpt><trkpt lat="44.539144125093216" lon="9.210057978691973"><ele>835.75</ele><time>2026-05-03T10:59:07.999Z</time></trkpt><trkpt lat="44.53892962772166" lon="9.210181488006123"><ele>837.0</ele><time>2026-05-03T10:59:08.999Z</time></trkpt><trkpt lat="44.53885756830358" lon="9.21020905725"><ele>837.0</ele><time>2026-05-03T10:59:09.999Z</time></trkpt><trkpt lat="44.53876587044882" lon="9.210140662925104"><ele>837.0</ele><time>2026-05-03T10:59:10.999Z</time></trkpt><trkpt lat="44.53866378413048" lon="9.210081532882121"><ele>837.0</ele><time>2026-05-03T10:59:11.999Z</time></trkpt><trkpt lat="44.538529003965074" lon="9.2100615523842"><ele>837.0</ele><time>2026-05-03T10:59:12.999Z</time></trkpt><trkpt lat="44.53840069065434" lon="9.21004802024971"><ele>836.75</ele><time>2026-05-03T10:59:13.999Z</time></trkpt><trkpt lat="44.53824258870738" lon="9.21008133257644"><ele>836.5</ele><time>2026-05-03T10:59:14.999Z</time></trkpt><trkpt lat="44.538084832370245" lon="9.210080798718968"><ele>836.25</ele><time>2026-05-03T10:59:15.999Z</time></trkpt><trkpt lat="44.53795736545605" lon="9.210088754819218"><ele>836.0</ele><time>2026-05-03T10:59:16.999Z</time></trkpt><trkpt lat="44.53779711430614" lon="9.210093265290942"><ele>833.0</ele><time>2026-05-03T10:59:17.999Z</time></trkpt><trkpt lat="44.53764389998595" lon="9.210108969773684"><ele>830.0</ele><time>2026-05-03T10:59:18.999Z</time></trkpt><trkpt lat="44.53750183719166" lon="9.21010461344963"><ele>827.0</ele><time>2026-05-03T10:59:19.999Z</time></trkpt><trkpt lat="44.53738767838874" lon="9.210080855419726"><ele>824.0</ele><time>2026-05-03T10:59:20.999Z</time></trkpt><trkpt lat="44.53730623200156" lon="9.210056506436388"><ele>824.0</ele><time>2026-05-03T10:59:21.999Z</time></trkpt><trkpt lat="44.53729103020834" lon="9.209949920464984"><ele>824.0</ele><time>2026-05-03T10:59:23.999Z</time></trkpt><trkpt lat="44.537404681333605" lon="9.209786510353583"><ele>824.0</ele><time>2026-05-03T10:59:25.999Z</time></trkpt><trkpt lat="44.53748533476382" lon="9.20964989298247"><ele>824.0</ele><time>2026-05-03T10:59:26.999Z</time></trkpt><trkpt lat="44.53755500715232" lon="9.209496519811614"><ele>822.4000000000001</ele><time>2026-05-03T10:59:27.999Z</time></trkpt><trkpt lat="44.53761719871495" lon="9.209349094832966"><ele>820.8</ele><time>2026-05-03T10:59:28.999Z</time></trkpt><trkpt lat="44.53767260778824" lon="9.209217208488536"><ele>819.2</ele><time>2026-05-03T10:59:29.999Z</time></trkpt><trkpt lat="44.53772455855562" lon="9.209088613440063"><ele>817.5999999999999</ele><time>2026-05-03T10:59:30.999Z</time></trkpt><trkpt lat="44.53776429546089" lon="9.208950019004979"><ele>816.0</ele><time>2026-05-03T10:59:31.999Z</time></trkpt><trkpt lat="44.537819914126906" lon="9.208834224143194"><ele>814.75</ele><time>2026-05-03T10:59:32.999Z</time></trkpt><trkpt lat="44.53790297318389" lon="9.208774208138472"><ele>813.5</ele><time>2026-05-03T10:59:33.999Z</time></trkpt><trkpt lat="44.538054494713634" lon="9.208737428959115"><ele>812.25</ele><time>2026-05-03T10:59:35.999Z</time></trkpt><trkpt lat="44.53816349472132" lon="9.20868320441896"><ele>811.0</ele><time>2026-05-03T10:59:36.999Z</time></trkpt><trkpt lat="44.53824805044246" lon="9.208615028836153"><ele>811.0</ele><time>2026-05-03T10:59:37.999Z</time></trkpt><trkpt lat="44.53829363694785" lon="9.208520702400424"><ele>811.0</ele><time>2026-05-03T10:59:38.999Z</time></trkpt><trkpt lat="44.53834575673702" lon="9.208444112973538"><ele>811.0</ele><time>2026-05-03T10:59:39.999Z</time></trkpt><trkpt lat="44.53843984852144" lon="9.208385328586541"><ele>811.0</ele><time>2026-05-03T10:59:41.999Z</time></trkpt><trkpt lat="44.53853188751376" lon="9.208374832629877"><ele>811.0</ele><time>2026-05-03T10:59:42.999Z</time></trkpt><trkpt lat="44.538658743286035" lon="9.208359685955834"><ele>809.0</ele><time>2026-05-03T10:59:43.999Z</time></trkpt><trkpt lat="44.53871924742704" lon="9.208330159554816"><ele>807.0</ele><time>2026-05-03T10:59:44.999Z</time></trkpt><trkpt lat="44.53881501669371" lon="9.208344289815374"><ele>805.0</ele><time>2026-05-03T10:59:45.999Z</time></trkpt><trkpt lat="44.53888614534401" lon="9.208302903971349"><ele>803.0</ele><time>2026-05-03T10:59:46.999Z</time></trkpt><trkpt lat="44.53898663051398" lon="9.208217757379431"><ele>801.0</ele><time>2026-05-03T10:59:47.999Z</time></trkpt><trkpt lat="44.53909021616061" lon="9.208138010577676"><ele>801.0</ele><time>2026-05-03T10:59:48.999Z</time></trkpt><trkpt lat="44.53918334279095" lon="9.20807489451155"><ele>801.0</ele><time>2026-05-03T10:59:49.999Z</time></trkpt><trkpt lat="44.53923447862177" lon="9.207968992849231"><ele>801.0</ele><time>2026-05-03T10:59:50.999Z</time></trkpt><trkpt lat="44.53928028783661" lon="9.207841361349864"><ele>801.0</ele><time>2026-05-03T10:59:51.999Z</time></trkpt><trkpt lat="44.53930446611271" lon="9.207693076536655"><ele>801.0</ele><time>2026-05-03T10:59:52.999Z</time></trkpt><trkpt lat="44.53933218095589" lon="9.207556902672524"><ele>801.0</ele><time>2026-05-03T10:59:53.999Z</time></trkpt><trkpt lat="44.539373334543775" lon="9.207439493385614"><ele>801.0</ele><time>2026-05-03T10:59:54.999Z</time></trkpt><trkpt lat="44.53941375310149" lon="9.207354293929683"><ele>801.0</ele><time>2026-05-03T10:59:55.999Z</time></trkpt><trkpt lat="44.539468701428376" lon="9.207293614443818"><ele>801.0</ele><time>2026-05-03T10:59:56.999Z</time></trkpt><trkpt lat="44.539532475766215" lon="9.207287725863612"><ele>801.0</ele><time>2026-05-03T10:59:57.999Z</time></trkpt><trkpt lat="44.53960148963729" lon="9.20732500467367"><ele>801.0</ele><time>2026-05-03T10:59:58.999Z</time></trkpt><trkpt lat="44.539708995595966" lon="9.20734497314971"><ele>799.8</ele><time>2026-05-03T10:59:59.999Z</time></trkpt><trkpt lat="44.53978148775332" lon="9.207331152304523"><ele>798.5999999999999</ele><time>2026-05-03T11:00:00.999Z</time></trkpt><trkpt lat="44.53984755593194" lon="9.207154957769712"><ele>797.4</ele><time>2026-05-03T11:00:02.999Z</time></trkpt><trkpt lat="44.539817267777075" lon="9.207034859366054"><ele>796.2</ele><time>2026-05-03T11:00:03.998Z</time></trkpt><trkpt lat="44.53968471536746" lon="9.206974183394474"><ele>795.0</ele><time>2026-05-03T11:00:04.998Z</time></trkpt><trkpt lat="44.539595342248575" lon="9.206902876079136"><ele>792.8</ele><time>2026-05-03T11:00:05.998Z</time></trkpt><trkpt lat="44.53950535176833" lon="9.206831076722725"><ele>790.6</ele><time>2026-05-03T11:00:06.998Z</time></trkpt><trkpt lat="44.53940604694314" lon="9.206744845984906"><ele>788.4000000000001</ele><time>2026-05-03T11:00:07.998Z</time></trkpt><trkpt lat="44.53934078943865" lon="9.206697232935518"><ele>786.2</ele><time>2026-05-03T11:00:08.998Z</time></trkpt><trkpt lat="44.539263333883575" lon="9.206672855823983"><ele>784.0</ele><time>2026-05-03T11:00:09.998Z</time></trkpt><trkpt lat="44.539183109213845" lon="9.206701680929157"><ele>783.9999999999999</ele><time>2026-05-03T11:00:10.998Z</time></trkpt><trkpt lat="44.53912087962824" lon="9.206777975156312"><ele>784.0</ele><time>2026-05-03T11:00:11.998Z</time></trkpt><trkpt lat="44.53907344021135" lon="9.206852120366474"><ele>784.0</ele><time>2026-05-03T11:00:12.998Z</time></trkpt><trkpt lat="44.53905753413775" lon="9.2069514755547"><ele>784.0</ele><time>2026-05-03T11:00:13.998Z</time></trkpt><trkpt lat="44.53904269283231" lon="9.207103549218921"><ele>783.9999999999999</ele><time>2026-05-03T11:00:14.998Z</time></trkpt><trkpt lat="44.53902903267069" lon="9.207261685406923"><ele>784.0</ele><time>2026-05-03T11:00:15.998Z</time></trkpt><trkpt lat="44.5390227354059" lon="9.207392891550633"><ele>784.6</ele><time>2026-05-03T11:00:16.998Z</time></trkpt><trkpt lat="44.53899866155076" lon="9.207511580678183"><ele>785.2</ele><time>2026-05-03T11:00:17.998Z</time></trkpt><trkpt lat="44.53894647277036" lon="9.207608428348902"><ele>785.8000000000001</ele><time>2026-05-03T11:00:19Z</time></trkpt><trkpt lat="44.538866069633215" lon="9.207671575819491"><ele>786.4000000000001</ele><time>2026-05-03T11:00:20Z</time></trkpt><trkpt lat="44.53878650822694" lon="9.207690349493427"><ele>787.0</ele><time>2026-05-03T11:00:21Z</time></trkpt><trkpt lat="44.53863827823892" lon="9.207602811997925"><ele>786.9999999999999</ele><time>2026-05-03T11:00:23Z</time></trkpt><trkpt lat="44.53855157094246" lon="9.207534111081188"><ele>787.0</ele><time>2026-05-03T11:00:24Z</time></trkpt><trkpt lat="44.53846179585079" lon="9.207479891771033"><ele>787.0</ele><time>2026-05-03T11:00:25Z</time></trkpt><trkpt lat="44.538387875804005" lon="9.207458877315583"><ele>787.0</ele><time>2026-05-03T11:00:26Z</time></trkpt><trkpt lat="44.53831484894105" lon="9.20746699596701"><ele>786.9999999999999</ele><time>2026-05-03T11:00:27Z</time></trkpt><trkpt lat="44.538235217293185" lon="9.207479888920943"><ele>787.0</ele><time>2026-05-03T11:00:29Z</time></trkpt><trkpt lat="44.538167974393154" lon="9.207518190593037"><ele>786.9999999999999</ele><time>2026-05-03T11:00:31Z</time></trkpt><trkpt lat="44.538103071420714" lon="9.207584428383004"><ele>787.0</ele><time>2026-05-03T11:00:32Z</time></trkpt><trkpt lat="44.538037529114995" lon="9.207677197682596"><ele>787.0</ele><time>2026-05-03T11:00:33Z</time></trkpt><trkpt lat="44.5379851224673" lon="9.207744409368635"><ele>787.0</ele><time>2026-05-03T11:00:34Z</time></trkpt><trkpt lat="44.537948170249294" lon="9.207823187707888"><ele>786.9999999999999</ele><time>2026-05-03T11:00:35Z</time></trkpt><trkpt lat="44.53785088084944" lon="9.207890943105749"><ele>787.0</ele><time>2026-05-03T11:00:37Z</time></trkpt><trkpt lat="44.53776726845053" lon="9.20781666814832"><ele>783.6</ele><time>2026-05-03T11:00:40Z</time></trkpt><trkpt lat="44.537719039125" lon="9.207725889029376"><ele>780.2</ele><time>2026-05-03T11:00:41.999Z</time></trkpt><trkpt lat="44.537657184794455" lon="9.207630871302847"><ele>776.8</ele><time>2026-05-03T11:00:43.999Z</time></trkpt><trkpt lat="44.537590927665235" lon="9.207522290923876"><ele>773.4</ele><time>2026-05-03T11:00:45.999Z</time></trkpt><trkpt lat="44.537524128601234" lon="9.207420539365469"><ele>770.0</ele><time>2026-05-03T11:00:47.999Z</time></trkpt><trkpt lat="44.537444815071176" lon="9.20729036376312"><ele>770.0</ele><time>2026-05-03T11:00:49.999Z</time></trkpt><trkpt lat="44.5373902034691" lon="9.20716599211479"><ele>770.0</ele><time>2026-05-03T11:00:51.999Z</time></trkpt><trkpt lat="44.53732675946176" lon="9.207061563846576"><ele>770.0</ele><time>2026-05-03T11:00:53.999Z</time></trkpt><trkpt lat="44.53725584338761" lon="9.206946873508551"><ele>770.0</ele><time>2026-05-03T11:00:55.999Z</time></trkpt><trkpt lat="44.53717495938444" lon="9.206818786810404"><ele>770.0</ele><time>2026-05-03T11:00:57.999Z</time></trkpt><trkpt lat="44.53709696463299" lon="9.206695275415207"><ele>768.5000000000001</ele><time>2026-05-03T11:00:59.999Z</time></trkpt><trkpt lat="44.537026294517766" lon="9.206583363347585"><ele>767.0</ele><time>2026-05-03T11:01:01.999Z</time></trkpt><trkpt lat="44.53695969363891" lon="9.206477356276555"><ele>765.5</ele><time>2026-05-03T11:01:03.999Z</time></trkpt><trkpt lat="44.53691564476222" lon="9.206406845602059"><ele>764.0</ele><time>2026-05-03T11:01:04.999Z</time></trkpt><trkpt lat="44.53687146878602" lon="9.206336131515693"><ele>762.5</ele><time>2026-05-03T11:01:05.999Z</time></trkpt><trkpt lat="44.536827389774125" lon="9.206265572655186"><ele>761.0</ele><time>2026-05-03T11:01:06.999Z</time></trkpt><trkpt lat="44.536781672753236" lon="9.206192391717408"><ele>761.0</ele><time>2026-05-03T11:01:07.999Z</time></trkpt><trkpt lat="44.53673763195451" lon="9.20612189398658"><ele>761.0</ele><time>2026-05-03T11:01:08.999Z</time></trkpt><trkpt lat="44.536692564119996" lon="9.206050236854999"><ele>761.0</ele><time>2026-05-03T11:01:09.999Z</time></trkpt><trkpt lat="44.536647125833056" lon="9.205978316506396"><ele>761.0</ele><time>2026-05-03T11:01:10.999Z</time></trkpt><trkpt lat="44.5365725537581" lon="9.205862051417961"><ele>761.0</ele><time>2026-05-03T11:01:12.999Z</time></trkpt><trkpt lat="44.536505710308546" lon="9.205758598321642"><ele>761.0</ele><time>2026-05-03T11:01:14.999Z</time></trkpt><trkpt lat="44.53644199863073" lon="9.205658891687285"><ele>764.0</ele><time>2026-05-03T11:01:16.999Z</time></trkpt><trkpt lat="44.53636598174412" lon="9.205536385500311"><ele>767.0</ele><time>2026-05-03T11:01:18.999Z</time></trkpt><trkpt lat="44.53630826528321" lon="9.205430527479406"><ele>770.0</ele><time>2026-05-03T11:01:20.999Z</time></trkpt><trkpt lat="44.53626864833114" lon="9.205349176884331"><ele>773.0</ele><time>2026-05-03T11:01:22.999Z</time></trkpt><trkpt lat="44.536259908620416" lon="9.205252697934318"><ele>776.0000000000001</ele><time>2026-05-03T11:01:26.999Z</time></trkpt><trkpt lat="44.53625048657305" lon="9.205148081991084"><ele>779.0</ele><time>2026-05-03T11:03:53.999Z</time></trkpt><trkpt lat="44.53627301698773" lon="9.20505909920782"><ele>779.0</ele><time>2026-05-03T11:03:54.999Z</time></trkpt><trkpt lat="44.536274240988504" lon="9.204942190970224"><ele>779.0</ele><time>2026-05-03T11:03:55.999Z</time></trkpt><trkpt lat="44.536267444867214" lon="9.204816537637544"><ele>779.0</ele><time>2026-05-03T11:03:56.999Z</time></trkpt><trkpt lat="44.53625380514472" lon="9.204680581510026"><ele>779.0</ele><time>2026-05-03T11:03:57.999Z</time></trkpt><trkpt lat="44.53622677684728" lon="9.204549274971281"><ele>779.0</ele><time>2026-05-03T11:03:58.999Z</time></trkpt><trkpt lat="44.53617515379108" lon="9.204407838177948"><ele>784.25</ele><time>2026-05-03T11:03:59.998Z</time></trkpt><trkpt lat="44.536097168248446" lon="9.204275179133155"><ele>789.5</ele><time>2026-05-03T11:04:00.998Z</time></trkpt><trkpt lat="44.53602089673741" lon="9.204144087922888"><ele>794.75</ele><time>2026-05-03T11:04:01.998Z</time></trkpt><trkpt lat="44.535959743401584" lon="9.20402280056716"><ele>800.0</ele><time>2026-05-03T11:04:02.998Z</time></trkpt><trkpt lat="44.53591572998735" lon="9.20386558301649"><ele>800.0</ele><time>2026-05-03T11:04:03.998Z</time></trkpt><trkpt lat="44.53588371225399" lon="9.203698316001555"><ele>800.0</ele><time>2026-05-03T11:04:04.998Z</time></trkpt><trkpt lat="44.53587102575723" lon="9.203528223027783"><ele>800.0</ele><time>2026-05-03T11:04:05.998Z</time></trkpt><trkpt lat="44.53583661569237" lon="9.203364842966174"><ele>800.0</ele><time>2026-05-03T11:04:06.998Z</time></trkpt><trkpt lat="44.53577860528187" lon="9.203197973704581"><ele>797.75</ele><time>2026-05-03T11:04:07.998Z</time></trkpt><trkpt lat="44.535739575733814" lon="9.203016135464814"><ele>795.5</ele><time>2026-05-03T11:04:08.998Z</time></trkpt><trkpt lat="44.53571976755991" lon="9.202838844929968"><ele>793.25</ele><time>2026-05-03T11:04:09.998Z</time></trkpt><trkpt lat="44.53566272264674" lon="9.20269621858083"><ele>791.0</ele><time>2026-05-03T11:04:10.998Z</time></trkpt><trkpt lat="44.53561923813878" lon="9.202540181769727"><ele>791.0</ele><time>2026-05-03T11:04:11.998Z</time></trkpt><trkpt lat="44.53553088057929" lon="9.202417494511767"><ele>791.0</ele><time>2026-05-03T11:04:12.998Z</time></trkpt><trkpt lat="44.53550738870195" lon="9.20227146434337"><ele>791.0</ele><time>2026-05-03T11:04:13.998Z</time></trkpt><trkpt lat="44.53548595365129" lon="9.202145017612024"><ele>791.0</ele><time>2026-05-03T11:04:14.998Z</time></trkpt><trkpt lat="44.53547927703993" lon="9.202010471295756"><ele>791.0</ele><time>2026-05-03T11:04:15.998Z</time></trkpt><trkpt lat="44.53550236848309" lon="9.20187262128613"><ele>790.8</ele><time>2026-05-03T11:04:16.998Z</time></trkpt><trkpt lat="44.535573892828864" lon="9.201760883451092"><ele>790.5999999999999</ele><time>2026-05-03T11:04:17.998Z</time></trkpt><trkpt lat="44.535613891861644" lon="9.201636292423887"><ele>790.4</ele><time>2026-05-03T11:04:18.998Z</time></trkpt><trkpt lat="44.53560001471941" lon="9.201495856663003"><ele>790.2</ele><time>2026-05-03T11:04:19.998Z</time></trkpt><trkpt lat="44.535558993566895" lon="9.201377319710588"><ele>790.0</ele><time>2026-05-03T11:04:20.998Z</time></trkpt><trkpt lat="44.535522641900926" lon="9.20126853396182"><ele>790.0</ele><time>2026-05-03T11:04:21.998Z</time></trkpt><trkpt lat="44.535455107688264" lon="9.20117249441533"><ele>790.0</ele><time>2026-05-03T11:04:23.998Z</time></trkpt><trkpt lat="44.5353479479185" lon="9.201201372880414"><ele>790.0</ele><time>2026-05-03T11:04:24.998Z</time></trkpt><trkpt lat="44.535399389686155" lon="9.201434452449528"><ele>790.0</ele><time>2026-05-03T11:04:25.998Z</time></trkpt><trkpt lat="44.535373526554366" lon="9.201603871940728"><ele>799.5</ele><time>2026-05-03T11:04:27.998Z</time></trkpt><trkpt lat="44.53530392919485" lon="9.201713793980232"><ele>809.0</ele><time>2026-05-03T11:04:28.998Z</time></trkpt><trkpt lat="44.535266839565026" lon="9.201856030380544"><ele>818.5</ele><time>2026-05-03T11:04:29.998Z</time></trkpt><trkpt lat="44.535257413077815" lon="9.201969373229524"><ele>828.0</ele><time>2026-05-03T11:04:30.998Z</time></trkpt><trkpt lat="44.535216952280706" lon="9.202257596437807"><ele>827.75</ele><time>2026-05-03T11:04:32.998Z</time></trkpt><trkpt lat="44.5352521290966" lon="9.202409972063526"><ele>827.5</ele><time>2026-05-03T11:04:33.998Z</time></trkpt><trkpt lat="44.53528848108892" lon="9.20256732223685"><ele>827.25</ele><time>2026-05-03T11:04:34.998Z</time></trkpt><trkpt lat="44.53532644053774" lon="9.202778277563215"><ele>827.0</ele><time>2026-05-03T11:04:35.998Z</time></trkpt><trkpt lat="44.53534472580672" lon="9.202987931036056"><ele>826.5</ele><time>2026-05-03T11:04:36.998Z</time></trkpt><trkpt lat="44.53536493327436" lon="9.203195444084342"><ele>826.0</ele><time>2026-05-03T11:04:37.998Z</time></trkpt><trkpt lat="44.53537919214171" lon="9.20340010631697"><ele>825.5</ele><time>2026-05-03T11:04:38.998Z</time></trkpt><trkpt lat="44.53538345385465" lon="9.203588249606353"><ele>825.0</ele><time>2026-05-03T11:04:39.998Z</time></trkpt><trkpt lat="44.535375787082224" lon="9.203704424980245"><ele>825.0</ele><time>2026-05-03T11:04:40.998Z</time></trkpt><trkpt lat="44.535340115114764" lon="9.203822050261635"><ele>825.0</ele><time>2026-05-03T11:04:41.998Z</time></trkpt><trkpt lat="44.535287715722426" lon="9.203894105611369"><ele>825.0</ele><time>2026-05-03T11:04:42.998Z</time></trkpt><trkpt lat="44.53520808788333" lon="9.203888413147956"><ele>825.0</ele><time>2026-05-03T11:04:43.998Z</time></trkpt><trkpt lat="44.53509838043911" lon="9.203737237136682"><ele>825.0</ele><time>2026-05-03T11:04:45.998Z</time></trkpt><trkpt lat="44.53514895618399" lon="9.20359670928729"><ele>825.0</ele><time>2026-05-03T11:04:46.998Z</time></trkpt><trkpt lat="44.535163827411935" lon="9.2034535427419"><ele>825.0</ele><time>2026-05-03T11:04:47.998Z</time></trkpt><trkpt lat="44.5351666094741" lon="9.203294810303039"><ele>825.0</ele><time>2026-05-03T11:04:48.998Z</time></trkpt><trkpt lat="44.53517306213964" lon="9.203146631545055"><ele>825.0</ele><time>2026-05-03T11:04:49.998Z</time></trkpt><trkpt lat="44.53516388405932" lon="9.202986379136902"><ele>825.0</ele><time>2026-05-03T11:04:50.998Z</time></trkpt><trkpt lat="44.535147583656226" lon="9.202789747712565"><ele>825.5</ele><time>2026-05-03T11:04:51.998Z</time></trkpt><trkpt lat="44.53512329960584" lon="9.202583643058139"><ele>826.0</ele><time>2026-05-03T11:04:52.998Z</time></trkpt><trkpt lat="44.53508125628816" lon="9.202429018308615"><ele>826.5</ele><time>2026-05-03T11:04:53.998Z</time></trkpt><trkpt lat="44.53503614226612" lon="9.20220274224944"><ele>827.0</ele><time>2026-05-03T11:04:54.998Z</time></trkpt><trkpt lat="44.53500667117151" lon="9.202016032433805"><ele>827.3333333333334</ele><time>2026-05-03T11:04:55.998Z</time></trkpt><trkpt lat="44.5349642610261" lon="9.201788079079606"><ele>827.6666666666667</ele><time>2026-05-03T11:04:56.998Z</time></trkpt><trkpt lat="44.534931687500894" lon="9.20157873140433"><ele>828.0</ele><time>2026-05-03T11:04:57.998Z</time></trkpt><trkpt lat="44.534898128782864" lon="9.201390256346157"><ele>827.0</ele><time>2026-05-03T11:04:58.998Z</time></trkpt><trkpt lat="44.534872999816336" lon="9.201241144132615"><ele>826.0</ele><time>2026-05-03T11:04:59.999Z</time></trkpt><trkpt lat="44.53486072851071" lon="9.201105671768065"><ele>825.0</ele><time>2026-05-03T11:05:00.999Z</time></trkpt><trkpt lat="44.53482316819581" lon="9.200936521349494"><ele>824.0</ele><time>2026-05-03T11:05:01.999Z</time></trkpt><trkpt lat="44.53480361353278" lon="9.200800161179618"><ele>823.0</ele><time>2026-05-03T11:05:02.999Z</time></trkpt><trkpt lat="44.53475378010814" lon="9.200694538888346"><ele>822.0</ele><time>2026-05-03T11:05:03.999Z</time></trkpt><trkpt lat="44.5346613975692" lon="9.200611232782974"><ele>821.0</ele><time>2026-05-03T11:05:04.999Z</time></trkpt><trkpt lat="44.534555864781055" lon="9.200554511731548"><ele>820.0</ele><time>2026-05-03T11:05:05.999Z</time></trkpt><trkpt lat="44.53442877672867" lon="9.200503476714383"><ele>819.0</ele><time>2026-05-03T11:05:06.999Z</time></trkpt><trkpt lat="44.53427902568319" lon="9.200443137052076"><ele>823.4000000000001</ele><time>2026-05-03T11:05:07.999Z</time></trkpt><trkpt lat="44.534155272940964" lon="9.200365050124914"><ele>827.8</ele><time>2026-05-03T11:05:08.999Z</time></trkpt><trkpt lat="44.53407530104322" lon="9.200269755646042"><ele>832.2</ele><time>2026-05-03T11:05:09.999Z</time></trkpt><trkpt lat="44.53406643231685" lon="9.200135675705495"><ele>836.5999999999999</ele><time>2026-05-03T11:05:10.999Z</time></trkpt><trkpt lat="44.534088749786285" lon="9.20001590052989"><ele>841.0</ele><time>2026-05-03T11:05:11.999Z</time></trkpt><trkpt lat="44.53418116264918" lon="9.199958620047008"><ele>841.0</ele><time>2026-05-03T11:05:12.999Z</time></trkpt><trkpt lat="44.534260072623105" lon="9.199834604345257"><ele>841.0</ele><time>2026-05-03T11:05:13.999Z</time></trkpt><trkpt lat="44.534356688812444" lon="9.19969420300062"><ele>841.0</ele><time>2026-05-03T11:05:14.999Z</time></trkpt><trkpt lat="44.53444708081529" lon="9.19954551669288"><ele>841.0</ele><time>2026-05-03T11:05:15.999Z</time></trkpt><trkpt lat="44.534535767023456" lon="9.199362212434322"><ele>840.4</ele><time>2026-05-03T11:05:16.999Z</time></trkpt><trkpt lat="44.53460924683238" lon="9.199233443099832"><ele>839.8</ele><time>2026-05-03T11:05:17.999Z</time></trkpt><trkpt lat="44.53457726869973" lon="9.199095188384616"><ele>839.1999999999999</ele><time>2026-05-03T11:05:18.999Z</time></trkpt><trkpt lat="44.53455244287428" lon="9.19897339587393"><ele>838.5999999999999</ele><time>2026-05-03T11:05:19.999Z</time></trkpt><trkpt lat="44.534511030346415" lon="9.198886527812409"><ele>838.0</ele><time>2026-05-03T11:05:20.999Z</time></trkpt><trkpt lat="44.53443507419377" lon="9.198863237018408"><ele>841.2</ele><time>2026-05-03T11:05:21.999Z</time></trkpt><trkpt lat="44.53434947025905" lon="9.19889675163547"><ele>844.4</ele><time>2026-05-03T11:05:22.999Z</time></trkpt><trkpt lat="44.53426974188119" lon="9.198934598009465"><ele>847.6000000000001</ele><time>2026-05-03T11:05:23.999Z</time></trkpt><trkpt lat="44.53419811752636" lon="9.199106157587934"><ele>850.8000000000001</ele><time>2026-05-03T11:05:24.999Z</time></trkpt><trkpt lat="44.534177213095745" lon="9.199235457042738"><ele>854.0</ele><time>2026-05-03T11:05:25.999Z</time></trkpt><trkpt lat="44.534195937257216" lon="9.19940467012597"><ele>854.0</ele><time>2026-05-03T11:05:26.999Z</time></trkpt><trkpt lat="44.53418812997025" lon="9.199510333052128"><ele>854.0000000000001</ele><time>2026-05-03T11:05:27.999Z</time></trkpt><trkpt lat="44.53413732283521" lon="9.199589637033084"><ele>854.0000000000001</ele><time>2026-05-03T11:05:28.998Z</time></trkpt><trkpt lat="44.534013581641716" lon="9.19962513099103"><ele>854.0</ele><time>2026-05-03T11:05:29.998Z</time></trkpt><trkpt lat="44.533898602572954" lon="9.19959037908509"><ele>854.0</ele><time>2026-05-03T11:05:30.998Z</time></trkpt><trkpt lat="44.53382478285225" lon="9.199509876113156"><ele>854.0</ele><time>2026-05-03T11:05:31.998Z</time></trkpt><trkpt lat="44.53372617629909" lon="9.199467187566645"><ele>854.0</ele><time>2026-05-03T11:05:32.998Z</time></trkpt><trkpt lat="44.5335971627751" lon="9.199535242574264"><ele>854.0</ele><time>2026-05-03T11:05:33.998Z</time></trkpt><trkpt lat="44.533515376338" lon="9.199675645474853"><ele>854.0</ele><time>2026-05-03T11:05:34.998Z</time></trkpt><trkpt lat="44.533487653498874" lon="9.199789119260716"><ele>859.5</ele><time>2026-05-03T11:05:35.998Z</time></trkpt><trkpt lat="44.53352669626622" lon="9.19994168976005"><ele>865.0</ele><time>2026-05-03T11:05:36.998Z</time></trkpt><trkpt lat="44.533529344668544" lon="9.200115015893934"><ele>870.5</ele><time>2026-05-03T11:05:37.998Z</time></trkpt><trkpt lat="44.533543084603124" lon="9.200276158292588"><ele>876.0</ele><time>2026-05-03T11:05:38.998Z</time></trkpt><trkpt lat="44.53355007401836" lon="9.200427695167102"><ele>876.0</ele><time>2026-05-03T11:05:39.998Z</time></trkpt><trkpt lat="44.5335374714126" lon="9.200593983248694"><ele>876.0</ele><time>2026-05-03T11:05:40.998Z</time></trkpt><trkpt lat="44.53353392272787" lon="9.200797318433576"><ele>876.0</ele><time>2026-05-03T11:05:41.998Z</time></trkpt><trkpt lat="44.533499053600714" lon="9.2009880918565"><ele>876.0</ele><time>2026-05-03T11:05:42.998Z</time></trkpt><trkpt lat="44.53351761119767" lon="9.201188468732017"><ele>877.0</ele><time>2026-05-03T11:05:43.998Z</time></trkpt><trkpt lat="44.53354099760605" lon="9.201418629473999"><ele>878.0</ele><time>2026-05-03T11:05:44.998Z</time></trkpt><trkpt lat="44.53360398071057" lon="9.20165607437964"><ele>879.0</ele><time>2026-05-03T11:05:45.998Z</time></trkpt><trkpt lat="44.53367537903785" lon="9.201867535886013"><ele>876.0</ele><time>2026-05-03T11:05:46.998Z</time></trkpt><trkpt lat="44.533748598910776" lon="9.202035215717054"><ele>873.0000000000001</ele><time>2026-05-03T11:05:47.998Z</time></trkpt><trkpt lat="44.53381064475722" lon="9.202158482979097"><ele>870.0000000000001</ele><time>2026-05-03T11:05:48.998Z</time></trkpt><trkpt lat="44.53386546786884" lon="9.202254342503466"><ele>867.0</ele><time>2026-05-03T11:05:49.998Z</time></trkpt><trkpt lat="44.53392349272739" lon="9.202332130695163"><ele>864.0</ele><time>2026-05-03T11:05:50.998Z</time></trkpt><trkpt lat="44.53399134261937" lon="9.202424107856102"><ele>864.0</ele><time>2026-05-03T11:05:52.998Z</time></trkpt><trkpt lat="44.53402362755134" lon="9.20250174711171"><ele>864.0</ele><time>2026-05-03T11:06:01.998Z</time></trkpt><trkpt lat="44.53402274483488" lon="9.202632447457908"><ele>864.0</ele><time>2026-05-03T11:07:20.999Z</time></trkpt><trkpt lat="44.533985166567014" lon="9.202714617704586"><ele>864.0</ele><time>2026-05-03T11:07:21.999Z</time></trkpt><trkpt lat="44.53390982153996" lon="9.202765339355159"><ele>864.0</ele><time>2026-05-03T11:07:22.999Z</time></trkpt><trkpt lat="44.53384174366529" lon="9.202741372498737"><ele>864.0</ele><time>2026-05-03T11:07:23.999Z</time></trkpt><trkpt lat="44.53377955418737" lon="9.202677065201943"><ele>864.0</ele><time>2026-05-03T11:07:24.999Z</time></trkpt><trkpt lat="44.53373051601734" lon="9.202596736795202"><ele>864.0000000000001</ele><time>2026-05-03T11:07:25.999Z</time></trkpt><trkpt lat="44.53368545899172" lon="9.202489413740352"><ele>864.0000000000001</ele><time>2026-05-03T11:07:26.999Z</time></trkpt><trkpt lat="44.533644347844614" lon="9.202378891339785"><ele>864.0</ele><time>2026-05-03T11:07:27.999Z</time></trkpt><trkpt lat="44.53361064109302" lon="9.202254179523905"><ele>864.0</ele><time>2026-05-03T11:07:28.999Z</time></trkpt><trkpt lat="44.53357328175707" lon="9.2021210869718"><ele>868.5</ele><time>2026-05-03T11:07:29.999Z</time></trkpt><trkpt lat="44.53352933304722" lon="9.201980627497367"><ele>873.0</ele><time>2026-05-03T11:07:30.999Z</time></trkpt><trkpt lat="44.533478368626966" lon="9.20183437717703"><ele>877.5</ele><time>2026-05-03T11:07:31.999Z</time></trkpt><trkpt lat="44.53342370246905" lon="9.201684885946474"><ele>882.0</ele><time>2026-05-03T11:07:32.999Z</time></trkpt><trkpt lat="44.53336461724091" lon="9.201522791887502"><ele>881.25</ele><time>2026-05-03T11:07:33.999Z</time></trkpt><trkpt lat="44.533308363149985" lon="9.20136576720961"><ele>880.5</ele><time>2026-05-03T11:07:34.999Z</time></trkpt><trkpt lat="44.533244717334256" lon="9.201188109673753"><ele>879.75</ele><time>2026-05-03T11:07:35.999Z</time></trkpt><trkpt lat="44.533182019790694" lon="9.201015348095016"><ele>879.0</ele><time>2026-05-03T11:07:36.999Z</time></trkpt><trkpt lat="44.53309996692564" lon="9.200837967662084"><ele>878.0</ele><time>2026-05-03T11:07:37.999Z</time></trkpt><trkpt lat="44.53303281828218" lon="9.20064014653034"><ele>877.0</ele><time>2026-05-03T11:07:38.999Z</time></trkpt><trkpt lat="44.532964361625595" lon="9.200437724649875"><ele>876.0</ele><time>2026-05-03T11:07:39.999Z</time></trkpt><trkpt lat="44.53288780766486" lon="9.200222465465684"><ele>885.0</ele><time>2026-05-03T11:07:40.999Z</time></trkpt><trkpt lat="44.53281559558061" lon="9.200007539799063"><ele>894.0</ele><time>2026-05-03T11:07:41.999Z</time></trkpt><trkpt lat="44.53273716817587" lon="9.199809867465916"><ele>903.0</ele><time>2026-05-03T11:07:42.999Z</time></trkpt><trkpt lat="44.5326601107383" lon="9.199647087971108"><ele>903.0</ele><time>2026-05-03T11:07:43.999Z</time></trkpt><trkpt lat="44.53259417413569" lon="9.199516344703989"><ele>903.0</ele><time>2026-05-03T11:07:44.999Z</time></trkpt><trkpt lat="44.53254001904897" lon="9.19940153731385"><ele>903.0</ele><time>2026-05-03T11:07:45.999Z</time></trkpt><trkpt lat="44.53253615758641" lon="9.199256932011146"><ele>903.0</ele><time>2026-05-03T11:07:46.999Z</time></trkpt><trkpt lat="44.53257368540303" lon="9.199132422404325"><ele>903.0</ele><time>2026-05-03T11:07:47.999Z</time></trkpt><trkpt lat="44.532682698351934" lon="9.199098362776025"><ele>901.5999999999999</ele><time>2026-05-03T11:07:48.999Z</time></trkpt><trkpt lat="44.532775893508834" lon="9.198994364208538"><ele>900.1999999999999</ele><time>2026-05-03T11:07:49.999Z</time></trkpt><trkpt lat="44.53285893229036" lon="9.198927114944222"><ele>898.8</ele><time>2026-05-03T11:07:50.999Z</time></trkpt><trkpt lat="44.5328943531849" lon="9.198817930929051"><ele>897.4</ele><time>2026-05-03T11:07:51.999Z</time></trkpt><trkpt lat="44.53285883527369" lon="9.198653161941806"><ele>896.0</ele><time>2026-05-03T11:07:52.999Z</time></trkpt><trkpt lat="44.53280653506901" lon="9.198535830752572"><ele>896.0000000000001</ele><time>2026-05-03T11:07:53.999Z</time></trkpt><trkpt lat="44.53275610800826" lon="9.198420087397643"><ele>896.0</ele><time>2026-05-03T11:07:54.999Z</time></trkpt><trkpt lat="44.53277972927496" lon="9.198293351137742"><ele>896.0</ele><time>2026-05-03T11:07:55.999Z</time></trkpt><trkpt lat="44.53282973005879" lon="9.19821336922131"><ele>896.0</ele><time>2026-05-03T11:07:56.999Z</time></trkpt><trkpt lat="44.53289096726407" lon="9.198161044438132"><ele>896.0000000000001</ele><time>2026-05-03T11:07:57.999Z</time></trkpt><trkpt lat="44.53299624058577" lon="9.198162063270656"><ele>896.0</ele><time>2026-05-03T11:07:58.999Z</time></trkpt><trkpt lat="44.533117665714535" lon="9.19816926676951"><ele>902.75</ele><time>2026-05-03T11:07:59.999Z</time></trkpt><trkpt lat="44.53320686021005" lon="9.19810524575235"><ele>909.5</ele><time>2026-05-03T11:08:00.999Z</time></trkpt><trkpt lat="44.533355161893205" lon="9.198051323202485"><ele>916.25</ele><time>2026-05-03T11:08:01.999Z</time></trkpt><trkpt lat="44.53349912454828" lon="9.198006891872705"><ele>923.0</ele><time>2026-05-03T11:08:02.999Z</time></trkpt><trkpt lat="44.533644407997656" lon="9.197979663532236"><ele>916.5</ele><time>2026-05-03T11:08:03.999Z</time></trkpt><trkpt lat="44.53377341924415" lon="9.197887769621365"><ele>910.0</ele><time>2026-05-03T11:08:04.999Z</time></trkpt><trkpt lat="44.533852981676105" lon="9.197784597455902"><ele>903.5</ele><time>2026-05-03T11:08:05.999Z</time></trkpt><trkpt lat="44.53385916893211" lon="9.197627131648742"><ele>897.0</ele><time>2026-05-03T11:08:06.999Z</time></trkpt><trkpt lat="44.5338609152719" lon="9.197426413581507"><ele>896.25</ele><time>2026-05-03T11:08:07.999Z</time></trkpt><trkpt lat="44.53386864460756" lon="9.19724376375721"><ele>895.5</ele><time>2026-05-03T11:08:08.999Z</time></trkpt><trkpt lat="44.533845629522816" lon="9.197041548922263"><ele>894.75</ele><time>2026-05-03T11:08:09.999Z</time></trkpt><trkpt lat="44.5338030595632" lon="9.196832226859236"><ele>894.0</ele><time>2026-05-03T11:08:10.999Z</time></trkpt><trkpt lat="44.53369803724015" lon="9.196654923888259"><ele>901.6666666666667</ele><time>2026-05-03T11:08:11.999Z</time></trkpt><trkpt lat="44.53359052258065" lon="9.196473267130294"><ele>909.3333333333334</ele><time>2026-05-03T11:08:12.999Z</time></trkpt><trkpt lat="44.53350178394574" lon="9.196279389588597"><ele>917.0</ele><time>2026-05-03T11:08:13.999Z</time></trkpt><trkpt lat="44.53341182748232" lon="9.196062180077359"><ele>917.0</ele><time>2026-05-03T11:08:14.999Z</time></trkpt><trkpt lat="44.533340489037464" lon="9.195908699467926"><ele>917.0</ele><time>2026-05-03T11:08:15.999Z</time></trkpt><trkpt lat="44.533275754023535" lon="9.19582465111167"><ele>917.0</ele><time>2026-05-03T11:08:19.999Z</time></trkpt><trkpt lat="44.53320995727767" lon="9.195784917955212"><ele>917.0</ele><time>2026-05-03T11:08:21.999Z</time></trkpt><trkpt lat="44.53313734587944" lon="9.195781370140978"><ele>917.0</ele><time>2026-05-03T11:08:24.999Z</time></trkpt><trkpt lat="44.53300111587005" lon="9.195744987574926"><ele>917.0000000000001</ele><time>2026-05-03T11:08:26.999Z</time></trkpt><trkpt lat="44.53291322182534" lon="9.195715547845166"><ele>917.0</ele><time>2026-05-03T11:08:27.999Z</time></trkpt><trkpt lat="44.53283162622849" lon="9.195664386792394"><ele>917.0</ele><time>2026-05-03T11:08:28.999Z</time></trkpt><trkpt lat="44.532770527137515" lon="9.19558804904401"><ele>917.0</ele><time>2026-05-03T11:08:29.999Z</time></trkpt><trkpt lat="44.53276091836404" lon="9.195493633939066"><ele>917.0000000000001</ele><time>2026-05-03T11:08:30.999Z</time></trkpt><trkpt lat="44.532723605700035" lon="9.195419925199815"><ele>917.0</ele><time>2026-05-03T11:08:31.999Z</time></trkpt><trkpt lat="44.53267246222824" lon="9.195330498898029"><ele>920.25</ele><time>2026-05-03T11:08:32.999Z</time></trkpt><trkpt lat="44.53258603733405" lon="9.195251237268552"><ele>923.5</ele><time>2026-05-03T11:08:33.999Z</time></trkpt><trkpt lat="44.532513655549245" lon="9.19513917046886"><ele>926.75</ele><time>2026-05-03T11:08:34.999Z</time></trkpt><trkpt lat="44.5324070909478" lon="9.195042920518675"><ele>930.0</ele><time>2026-05-03T11:08:35.999Z</time></trkpt><trkpt lat="44.53228450065386" lon="9.194981613563536"><ele>930.0</ele><time>2026-05-03T11:08:36.999Z</time></trkpt><trkpt lat="44.532190416188946" lon="9.194928889630381"><ele>930.0</ele><time>2026-05-03T11:08:37.999Z</time></trkpt><trkpt lat="44.53214587717935" lon="9.194861820040291"><ele>930.0</ele><time>2026-05-03T11:08:38.999Z</time></trkpt><trkpt lat="44.53212922601627" lon="9.194735680260656"><ele>930.0</ele><time>2026-05-03T11:08:39.999Z</time></trkpt><trkpt lat="44.532130889359806" lon="9.194591521537442"><ele>930.0</ele><time>2026-05-03T11:08:41Z</time></trkpt><trkpt lat="44.532146109461586" lon="9.194442653835775"><ele>933.25</ele><time>2026-05-03T11:08:42Z</time></trkpt><trkpt lat="44.53223022915514" lon="9.19433527055222"><ele>936.5</ele><time>2026-05-03T11:08:43Z</time></trkpt><trkpt lat="44.53234593282811" lon="9.194259234287177"><ele>939.75</ele><time>2026-05-03T11:08:44Z</time></trkpt><trkpt lat="44.53248089619899" lon="9.19421010873084"><ele>943.0</ele><time>2026-05-03T11:08:45Z</time></trkpt><trkpt lat="44.532643940801286" lon="9.194176008000202"><ele>943.0</ele><time>2026-05-03T11:08:46Z</time></trkpt><trkpt lat="44.53277672708133" lon="9.19412940315561"><ele>943.0</ele><time>2026-05-03T11:08:47Z</time></trkpt><trkpt lat="44.53289756005153" lon="9.194079902311758"><ele>943.0</ele><time>2026-05-03T11:08:48Z</time></trkpt><trkpt lat="44.532990585625086" lon="9.194004045157916"><ele>943.0</ele><time>2026-05-03T11:08:49Z</time></trkpt><trkpt lat="44.53306776852199" lon="9.193926962739988"><ele>939.0</ele><time>2026-05-03T11:08:50Z</time></trkpt><trkpt lat="44.53306867792552" lon="9.193744035386683"><ele>935.0</ele><time>2026-05-03T11:08:51Z</time></trkpt><trkpt lat="44.53305073214628" lon="9.1935516609225"><ele>931.0</ele><time>2026-05-03T11:08:52Z</time></trkpt><trkpt lat="44.53305198307065" lon="9.193357131828995"><ele>927.0</ele><time>2026-05-03T11:08:53Z</time></trkpt><trkpt lat="44.53304664582136" lon="9.193211528329124"><ele>930.5</ele><time>2026-05-03T11:08:54Z</time></trkpt><trkpt lat="44.53306205101235" lon="9.193053670503069"><ele>934.0</ele><time>2026-05-03T11:08:55Z</time></trkpt><trkpt lat="44.5331022412731" lon="9.192862322985691"><ele>937.5</ele><time>2026-05-03T11:08:56Z</time></trkpt><trkpt lat="44.533154673245704" lon="9.192684064085327"><ele>941.0</ele><time>2026-05-03T11:08:57Z</time></trkpt><trkpt lat="44.533213539101126" lon="9.192484101884341"><ele>939.0</ele><time>2026-05-03T11:08:58Z</time></trkpt><trkpt lat="44.533240023796644" lon="9.19231431358275"><ele>936.9999999999999</ele><time>2026-05-03T11:08:59Z</time></trkpt><trkpt lat="44.5332379584772" lon="9.192197659440728"><ele>934.9999999999999</ele><time>2026-05-03T11:09:00Z</time></trkpt><trkpt lat="44.53320385879401" lon="9.192033891571526"><ele>933.0</ele><time>2026-05-03T11:09:02Z</time></trkpt><trkpt lat="44.53312190553503" lon="9.191966771640965"><ele>931.0</ele><time>2026-05-03T11:09:03Z</time></trkpt><trkpt lat="44.53302459795517" lon="9.191928083128726"><ele>931.0</ele><time>2026-05-03T11:09:04Z</time></trkpt><trkpt lat="44.532902513377465" lon="9.19191607139805"><ele>931.0</ele><time>2026-05-03T11:09:05Z</time></trkpt><trkpt lat="44.53275673514459" lon="9.191938139944304"><ele>931.0</ele><time>2026-05-03T11:09:06Z</time></trkpt><trkpt lat="44.53261814354113" lon="9.192005189471592"><ele>931.0</ele><time>2026-05-03T11:09:07Z</time></trkpt><trkpt lat="44.532488896819935" lon="9.192087050064295"><ele>932.5</ele><time>2026-05-03T11:09:08Z</time></trkpt><trkpt lat="44.532359228907616" lon="9.192149813086797"><ele>934.0</ele><time>2026-05-03T11:09:09Z</time></trkpt><trkpt lat="44.53226114533834" lon="9.192098021215395"><ele>935.5</ele><time>2026-05-03T11:09:10Z</time></trkpt><trkpt lat="44.53217902695208" lon="9.192017053037093"><ele>937.0</ele><time>2026-05-03T11:09:11Z</time></trkpt><trkpt lat="44.53205987402419" lon="9.191918356210833"><ele>939.5</ele><time>2026-05-03T11:09:12Z</time></trkpt><trkpt lat="44.531945356263655" lon="9.19186861724639"><ele>942.0</ele><time>2026-05-03T11:09:13Z</time></trkpt><trkpt lat="44.5318160438806" lon="9.19187805810579"><ele>944.5</ele><time>2026-05-03T11:09:14Z</time></trkpt><trkpt lat="44.53170250531098" lon="9.191874913901428"><ele>947.0</ele><time>2026-05-03T11:09:15Z</time></trkpt><trkpt lat="44.531561990751456" lon="9.191878274965381"><ele>947.0</ele><time>2026-05-03T11:09:16Z</time></trkpt><trkpt lat="44.5313944705369" lon="9.191879067930666"><ele>947.0</ele><time>2026-05-03T11:09:17Z</time></trkpt><trkpt lat="44.53120973445924" lon="9.191869732725339"><ele>947.0</ele><time>2026-05-03T11:09:18Z</time></trkpt><trkpt lat="44.53105759996973" lon="9.191854382184221"><ele>951.0</ele><time>2026-05-03T11:09:19Z</time></trkpt><trkpt lat="44.530936931145554" lon="9.191857529554463"><ele>955.0</ele><time>2026-05-03T11:09:20Z</time></trkpt><trkpt lat="44.53083525039049" lon="9.191802423366454"><ele>959.0</ele><time>2026-05-03T11:09:21Z</time></trkpt><trkpt lat="44.530706864270435" lon="9.191685173211363"><ele>963.0</ele><time>2026-05-03T11:09:22Z</time></trkpt><trkpt lat="44.53057202611782" lon="9.191564179489"><ele>963.5</ele><time>2026-05-03T11:09:23Z</time></trkpt><trkpt lat="44.530467565406056" lon="9.191403596548792"><ele>964.0</ele><time>2026-05-03T11:09:24Z</time></trkpt><trkpt lat="44.53039801799134" lon="9.191224080451507"><ele>964.5</ele><time>2026-05-03T11:09:25Z</time></trkpt><trkpt lat="44.53033863077896" lon="9.1910704515541"><ele>965.0</ele><time>2026-05-03T11:09:26Z</time></trkpt><trkpt lat="44.53025929095988" lon="9.190983437366077"><ele>965.0</ele><time>2026-05-03T11:09:27Z</time></trkpt><trkpt lat="44.53015179259803" lon="9.190984538824715"><ele>965.0</ele><time>2026-05-03T11:09:28Z</time></trkpt><trkpt lat="44.53004468108575" lon="9.190987456863171"><ele>965.0</ele><time>2026-05-03T11:09:29Z</time></trkpt><trkpt lat="44.52991036728677" lon="9.191016479603688"><ele>965.0</ele><time>2026-05-03T11:09:30Z</time></trkpt><trkpt lat="44.529770839161976" lon="9.191004425362138"><ele>965.0</ele><time>2026-05-03T11:09:31Z</time></trkpt><trkpt lat="44.52963655771091" lon="9.19098042155763"><ele>965.0</ele><time>2026-05-03T11:09:32Z</time></trkpt><trkpt lat="44.52951544143419" lon="9.190895829619992"><ele>965.0</ele><time>2026-05-03T11:09:33Z</time></trkpt><trkpt lat="44.52939655042503" lon="9.190758661534412"><ele>965.0</ele><time>2026-05-03T11:09:34Z</time></trkpt><trkpt lat="44.52927164703352" lon="9.190622037292334"><ele>964.5</ele><time>2026-05-03T11:09:35Z</time></trkpt><trkpt lat="44.52918119205566" lon="9.190486873056555"><ele>964.0</ele><time>2026-05-03T11:09:36Z</time></trkpt><trkpt lat="44.52906582413781" lon="9.190383314294104"><ele>963.5</ele><time>2026-05-03T11:09:37Z</time></trkpt><trkpt lat="44.52896102148102" lon="9.190347007992997"><ele>963.0</ele><time>2026-05-03T11:09:38Z</time></trkpt><trkpt lat="44.528842624492434" lon="9.19039509512717"><ele>963.0</ele><time>2026-05-03T11:09:39Z</time></trkpt><trkpt lat="44.52873893729637" lon="9.190502214150678"><ele>963.0</ele><time>2026-05-03T11:09:40Z</time></trkpt><trkpt lat="44.5286355009231" lon="9.190646674307382"><ele>963.0</ele><time>2026-05-03T11:09:41Z</time></trkpt><trkpt lat="44.528505462380075" lon="9.190770860337238"><ele>963.0</ele><time>2026-05-03T11:09:42Z</time></trkpt><trkpt lat="44.52837942492101" lon="9.19089094160493"><ele>969.0</ele><time>2026-05-03T11:09:43Z</time></trkpt><trkpt lat="44.52824148055888" lon="9.191002931653433"><ele>975.0</ele><time>2026-05-03T11:09:44Z</time></trkpt><trkpt lat="44.52810265843691" lon="9.191123311967033"><ele>981.0</ele><time>2026-05-03T11:09:45Z</time></trkpt><trkpt lat="44.527958002494366" lon="9.191245786600946"><ele>982.0</ele><time>2026-05-03T11:09:46Z</time></trkpt><trkpt lat="44.52782335044523" lon="9.191355740251602"><ele>983.0</ele><time>2026-05-03T11:09:47Z</time></trkpt><trkpt lat="44.527701345659224" lon="9.191466892905977"><ele>984.0</ele><time>2026-05-03T11:09:48Z</time></trkpt><trkpt lat="44.52759861193542" lon="9.191558322351925"><ele>985.0</ele><time>2026-05-03T11:09:49Z</time></trkpt><trkpt lat="44.52750400063449" lon="9.191639760552919"><ele>985.0</ele><time>2026-05-03T11:09:50Z</time></trkpt><trkpt lat="44.5273947656355" lon="9.191732421297623"><ele>985.0</ele><time>2026-05-03T11:09:51Z</time></trkpt><trkpt lat="44.52729400706723" lon="9.191820378871542"><ele>985.0</ele><time>2026-05-03T11:09:52Z</time></trkpt><trkpt lat="44.527212085425056" lon="9.191911664597807"><ele>985.0</ele><time>2026-05-03T11:09:53Z</time></trkpt><trkpt lat="44.527101267911576" lon="9.191898320828846"><ele>987.0</ele><time>2026-05-03T11:09:54Z</time></trkpt><trkpt lat="44.526983422200985" lon="9.191883182308423"><ele>989.0</ele><time>2026-05-03T11:09:55Z</time></trkpt><trkpt lat="44.52686042957487" lon="9.19186512410338"><ele>991.0</ele><time>2026-05-03T11:09:56Z</time></trkpt><trkpt lat="44.52675012740715" lon="9.191772553057762"><ele>993.0</ele><time>2026-05-03T11:09:57Z</time></trkpt><trkpt lat="44.52668107195323" lon="9.191644613627952"><ele>993.0</ele><time>2026-05-03T11:09:58Z</time></trkpt><trkpt lat="44.526599322548705" lon="9.191535592218562"><ele>993.0</ele><time>2026-05-03T11:09:59Z</time></trkpt><trkpt lat="44.526524281938315" lon="9.191438390908242"><ele>993.0</ele><time>2026-05-03T11:10:00Z</time></trkpt><trkpt lat="44.52644051056955" lon="9.191383115046047"><ele>993.0</ele><time>2026-05-03T11:10:01Z</time></trkpt><trkpt lat="44.526306100551324" lon="9.19138686341256"><ele>993.0</ele><time>2026-05-03T11:10:02Z</time></trkpt><trkpt lat="44.5261580211657" lon="9.191393297155821"><ele>992.5999999999999</ele><time>2026-05-03T11:10:02.999Z</time></trkpt><trkpt lat="44.52602647148287" lon="9.191382391740275"><ele>992.1999999999999</ele><time>2026-05-03T11:10:03.999Z</time></trkpt><trkpt lat="44.52591674416442" lon="9.1913323523626"><ele>991.8</ele><time>2026-05-03T11:10:04.999Z</time></trkpt><trkpt lat="44.525827393106276" lon="9.191278854988573"><ele>991.4</ele><time>2026-05-03T11:10:05.999Z</time></trkpt><trkpt lat="44.52575003865229" lon="9.191194077107557"><ele>991.0</ele><time>2026-05-03T11:10:06.999Z</time></trkpt><trkpt lat="44.52566554813189" lon="9.191051183162884"><ele>991.0</ele><time>2026-05-03T11:10:07.999Z</time></trkpt><trkpt lat="44.52555209030394" lon="9.190937179056444"><ele>991.0</ele><time>2026-05-03T11:10:08.999Z</time></trkpt><trkpt lat="44.52542191480838" lon="9.190842506698562"><ele>991.0</ele><time>2026-05-03T11:10:09.999Z</time></trkpt><trkpt lat="44.52529872971316" lon="9.190724372257122"><ele>991.0</ele><time>2026-05-03T11:10:10.999Z</time></trkpt><trkpt lat="44.525157770298414" lon="9.190630644318798"><ele>994.3333333333333</ele><time>2026-05-03T11:10:11.999Z</time></trkpt><trkpt lat="44.525016128182955" lon="9.190520193654567"><ele>997.6666666666667</ele><time>2026-05-03T11:10:12.999Z</time></trkpt><trkpt lat="44.52487774901259" lon="9.190402979872808"><ele>1001.0</ele><time>2026-05-03T11:10:13.999Z</time></trkpt><trkpt lat="44.524774844112166" lon="9.19027981875181"><ele>1001.0</ele><time>2026-05-03T11:10:14.999Z</time></trkpt><trkpt lat="44.52468913175763" lon="9.190176508783042"><ele>1001.0</ele><time>2026-05-03T11:10:15.999Z</time></trkpt><trkpt lat="44.524632796798464" lon="9.190037238016624"><ele>1001.0</ele><time>2026-05-03T11:10:16.999Z</time></trkpt><trkpt lat="44.524617837354405" lon="9.189870691772313"><ele>1001.0</ele><time>2026-05-03T11:10:17.999Z</time></trkpt><trkpt lat="44.52457834249162" lon="9.189722537699287"><ele>1003.25</ele><time>2026-05-03T11:10:18.999Z</time></trkpt><trkpt lat="44.52448889465363" lon="9.189614773610339"><ele>1005.5</ele><time>2026-05-03T11:10:19.999Z</time></trkpt><trkpt lat="44.52436148613326" lon="9.18951327710743"><ele>1007.75</ele><time>2026-05-03T11:10:20.999Z</time></trkpt><trkpt lat="44.524243355940925" lon="9.189408119679488"><ele>1010.0</ele><time>2026-05-03T11:10:21.999Z</time></trkpt><trkpt lat="44.52411927541335" lon="9.189288863283101"><ele>1010.0</ele><time>2026-05-03T11:10:22.999Z</time></trkpt><trkpt lat="44.523993408448355" lon="9.189166775611753"><ele>1010.0</ele><time>2026-05-03T11:10:23.999Z</time></trkpt><trkpt lat="44.52386734324689" lon="9.18904645398712"><ele>1010.0</ele><time>2026-05-03T11:10:24.999Z</time></trkpt><trkpt lat="44.52374852479253" lon="9.188918972207357"><ele>1012.0</ele><time>2026-05-03T11:10:25.999Z</time></trkpt><trkpt lat="44.523630380894616" lon="9.188804263742911"><ele>1014.0</ele><time>2026-05-03T11:10:26.999Z</time></trkpt><trkpt lat="44.523526243028975" lon="9.188691774260539"><ele>1016.0</ele><time>2026-05-03T11:10:27.999Z</time></trkpt><trkpt lat="44.52343533556804" lon="9.1886011390527"><ele>1018.0</ele><time>2026-05-03T11:10:28.999Z</time></trkpt><trkpt lat="44.52333533167323" lon="9.188553559508673"><ele>1018.0</ele><time>2026-05-03T11:10:29.999Z</time></trkpt><trkpt lat="44.5232111599218" lon="9.18854151282678"><ele>1018.0</ele><time>2026-05-03T11:10:30.999Z</time></trkpt><trkpt lat="44.523080325333574" lon="9.188544204980957"><ele>1018.0</ele><time>2026-05-03T11:10:31.999Z</time></trkpt><trkpt lat="44.52296396903755" lon="9.18847491658514"><ele>1018.0</ele><time>2026-05-03T11:10:32.999Z</time></trkpt><trkpt lat="44.52286654164545" lon="9.188352596528166"><ele>1021.6666666666666</ele><time>2026-05-03T11:10:33.999Z</time></trkpt><trkpt lat="44.52274872479333" lon="9.188225779154878"><ele>1025.3333333333333</ele><time>2026-05-03T11:10:34.999Z</time></trkpt><trkpt lat="44.52269035903243" lon="9.188025738877435"><ele>1029.0</ele><time>2026-05-03T11:10:35.999Z</time></trkpt><trkpt lat="44.522608919738396" lon="9.187850044796608"><ele>1029.0</ele><time>2026-05-03T11:10:36.999Z</time></trkpt><trkpt lat="44.52255016067605" lon="9.187662296774006"><ele>1029.0</ele><time>2026-05-03T11:10:37.999Z</time></trkpt><trkpt lat="44.52247996006957" lon="9.187532441612085"><ele>1029.0</ele><time>2026-05-03T11:10:38.999Z</time></trkpt><trkpt lat="44.52238198483637" lon="9.187424041921496"><ele>1029.0</ele><time>2026-05-03T11:10:39.999Z</time></trkpt><trkpt lat="44.522279822484435" lon="9.187324673358402"><ele>1028.8</ele><time>2026-05-03T11:10:40.999Z</time></trkpt><trkpt lat="44.52220571665389" lon="9.18722929150084"><ele>1028.6000000000001</ele><time>2026-05-03T11:10:41.999Z</time></trkpt><trkpt lat="44.52215230983259" lon="9.187121213508869"><ele>1028.4</ele><time>2026-05-03T11:10:42.999Z</time></trkpt><trkpt lat="44.522163174181756" lon="9.187018283406413"><ele>1028.2</ele><time>2026-05-03T11:10:43.999Z</time></trkpt><trkpt lat="44.52216311798067" lon="9.186908818709796"><ele>1028.0</ele><time>2026-05-03T11:10:44.999Z</time></trkpt><trkpt lat="44.522222305035015" lon="9.186783002101564"><ele>1028.0</ele><time>2026-05-03T11:10:45.999Z</time></trkpt><trkpt lat="44.52227770547175" lon="9.18666874646189"><ele>1028.0</ele><time>2026-05-03T11:10:47Z</time></trkpt><trkpt lat="44.522347462469355" lon="9.186545179366039"><ele>1028.0</ele><time>2026-05-03T11:10:48Z</time></trkpt><trkpt lat="44.52242019131475" lon="9.186404285003453"><ele>1028.0</ele><time>2026-05-03T11:10:49Z</time></trkpt><trkpt lat="44.52248509869786" lon="9.186264751499861"><ele>1027.5</ele><time>2026-05-03T11:10:50Z</time></trkpt><trkpt lat="44.522563643342764" lon="9.186144709552531"><ele>1027.0</ele><time>2026-05-03T11:10:51Z</time></trkpt><trkpt lat="44.522610889857575" lon="9.18599485337742"><ele>1026.5</ele><time>2026-05-03T11:10:52Z</time></trkpt><trkpt lat="44.522677379490545" lon="9.185856602193946"><ele>1026.0</ele><time>2026-05-03T11:10:53Z</time></trkpt><trkpt lat="44.52269000979868" lon="9.185654741073245"><ele>1026.8</ele><time>2026-05-03T11:10:54Z</time></trkpt><trkpt lat="44.522733768863006" lon="9.185484434942193"><ele>1027.6</ele><time>2026-05-03T11:10:55Z</time></trkpt><trkpt lat="44.52277219744569" lon="9.185347541370595"><ele>1028.4</ele><time>2026-05-03T11:10:56Z</time></trkpt><trkpt lat="44.522783029716614" lon="9.185223407741445"><ele>1029.2</ele><time>2026-05-03T11:10:57Z</time></trkpt><trkpt lat="44.52273267400709" lon="9.185068938260713"><ele>1030.0</ele><time>2026-05-03T11:10:58Z</time></trkpt><trkpt lat="44.522689404503815" lon="9.184908678364996"><ele>1034.75</ele><time>2026-05-03T11:10:59Z</time></trkpt><trkpt lat="44.522684412220755" lon="9.184747883117044"><ele>1039.5</ele><time>2026-05-03T11:11:00Z</time></trkpt><trkpt lat="44.52267875465593" lon="9.184576245551536"><ele>1044.25</ele><time>2026-05-03T11:11:01Z</time></trkpt><trkpt lat="44.522640069294404" lon="9.184450161985987"><ele>1049.0</ele><time>2026-05-03T11:11:02Z</time></trkpt><trkpt lat="44.5225238267503" lon="9.184366490995547"><ele>1049.0</ele><time>2026-05-03T11:11:03Z</time></trkpt><trkpt lat="44.52237706441508" lon="9.18437909908928"><ele>1049.0</ele><time>2026-05-03T11:11:04Z</time></trkpt><trkpt lat="44.522256850942405" lon="9.18433077850241"><ele>1049.0</ele><time>2026-05-03T11:11:05Z</time></trkpt><trkpt lat="44.52215772819846" lon="9.18425691681893"><ele>1049.0</ele><time>2026-05-03T11:11:06Z</time></trkpt><trkpt lat="44.52210209463986" lon="9.184138083148458"><ele>1047.5</ele><time>2026-05-03T11:11:07Z</time></trkpt><trkpt lat="44.522057096488325" lon="9.183975468111463"><ele>1046.0</ele><time>2026-05-03T11:11:08Z</time></trkpt><trkpt lat="44.52203374491581" lon="9.183773769032745"><ele>1044.5</ele><time>2026-05-03T11:11:09Z</time></trkpt><trkpt lat="44.52202525191265" lon="9.183580049820105"><ele>1043.0</ele><time>2026-05-03T11:11:10Z</time></trkpt><trkpt lat="44.52201095462749" lon="9.183402914544669"><ele>1043.0</ele><time>2026-05-03T11:11:11Z</time></trkpt><trkpt lat="44.52196037673144" lon="9.183269466993243"><ele>1043.0</ele><time>2026-05-03T11:11:12Z</time></trkpt><trkpt lat="44.52179706608227" lon="9.183235937853865"><ele>1043.0</ele><time>2026-05-03T11:11:13Z</time></trkpt><trkpt lat="44.52167317728171" lon="9.18315508531779"><ele>1043.0</ele><time>2026-05-03T11:11:14Z</time></trkpt><trkpt lat="44.5215751265703" lon="9.183044540949732"><ele>1051.6666666666667</ele><time>2026-05-03T11:11:15Z</time></trkpt><trkpt lat="44.521477869505254" lon="9.182893249521307"><ele>1060.3333333333333</ele><time>2026-05-03T11:11:16Z</time></trkpt><trkpt lat="44.521361886639006" lon="9.182753790592386"><ele>1069.0</ele><time>2026-05-03T11:11:17Z</time></trkpt><trkpt lat="44.521233837426585" lon="9.182623158113174"><ele>1067.0</ele><time>2026-05-03T11:11:18Z</time></trkpt><trkpt lat="44.5211224364892" lon="9.182509022348318"><ele>1065.0</ele><time>2026-05-03T11:11:19Z</time></trkpt><trkpt lat="44.52105538756729" lon="9.182367142379064"><ele>1063.0</ele><time>2026-05-03T11:11:20Z</time></trkpt><trkpt lat="44.520996278256526" lon="9.182174232210933"><ele>1061.0</ele><time>2026-05-03T11:11:21Z</time></trkpt><trkpt lat="44.520921192139184" lon="9.18195332545692"><ele>1061.0</ele><time>2026-05-03T11:11:22Z</time></trkpt><trkpt lat="44.52082898382544" lon="9.181743144654009"><ele>1061.0</ele><time>2026-05-03T11:11:23Z</time></trkpt><trkpt lat="44.52071975985262" lon="9.18156068826649"><ele>1061.0</ele><time>2026-05-03T11:11:24Z</time></trkpt><trkpt lat="44.52062336312583" lon="9.181399393385233"><ele>1060.8</ele><time>2026-05-03T11:11:25Z</time></trkpt><trkpt lat="44.52055166909199" lon="9.181260078142806"><ele>1060.6</ele><time>2026-05-03T11:11:26Z</time></trkpt><trkpt lat="44.52053546523992" lon="9.181142800355573"><ele>1060.4</ele><time>2026-05-03T11:11:27Z</time></trkpt><trkpt lat="44.520558880388165" lon="9.181024835832133"><ele>1060.2</ele><time>2026-05-03T11:11:28Z</time></trkpt><trkpt lat="44.52061042035293" lon="9.180909258632065"><ele>1060.0</ele><time>2026-05-03T11:11:29Z</time></trkpt><trkpt lat="44.520680058122984" lon="9.18084090761027"><ele>1060.0</ele><time>2026-05-03T11:11:30Z</time></trkpt><trkpt lat="44.52077994117421" lon="9.180839634627421"><ele>1060.0</ele><time>2026-05-03T11:11:31Z</time></trkpt><trkpt lat="44.52088766149394" lon="9.180860052196858"><ele>1060.0</ele><time>2026-05-03T11:11:32Z</time></trkpt><trkpt lat="44.52101075123132" lon="9.180889454457683"><ele>1060.0</ele><time>2026-05-03T11:11:33Z</time></trkpt><trkpt lat="44.521146933420425" lon="9.180902076604314"><ele>1058.5</ele><time>2026-05-03T11:11:34Z</time></trkpt><trkpt lat="44.52128886323439" lon="9.180915652055035"><ele>1057.0</ele><time>2026-05-03T11:11:35Z</time></trkpt><trkpt lat="44.52143578553773" lon="9.180941812157865"><ele>1055.5</ele><time>2026-05-03T11:11:36Z</time></trkpt><trkpt lat="44.521591348352985" lon="9.180965512345017"><ele>1054.0</ele><time>2026-05-03T11:11:37Z</time></trkpt><trkpt lat="44.52175643229209" lon="9.180992338735408"><ele>1054.0</ele><time>2026-05-03T11:11:38Z</time></trkpt><trkpt lat="44.52191639720366" lon="9.18101688765078"><ele>1054.0</ele><time>2026-05-03T11:11:39Z</time></trkpt><trkpt lat="44.522069569668126" lon="9.180993374897279"><ele>1054.0</ele><time>2026-05-03T11:11:40Z</time></trkpt><trkpt lat="44.52222424982309" lon="9.180923255882785"><ele>1056.6666666666665</ele><time>2026-05-03T11:11:41Z</time></trkpt><trkpt lat="44.52238732104451" lon="9.180829808936032"><ele>1059.3333333333333</ele><time>2026-05-03T11:11:42Z</time></trkpt><trkpt lat="44.52254200616694" lon="9.180765561301904"><ele>1062.0</ele><time>2026-05-03T11:11:43Z</time></trkpt><trkpt lat="44.522706111413605" lon="9.180697086486765"><ele>1060.0</ele><time>2026-05-03T11:11:44Z</time></trkpt><trkpt lat="44.52286120541495" lon="9.180624396568687"><ele>1058.0</ele><time>2026-05-03T11:11:45Z</time></trkpt><trkpt lat="44.52300219613278" lon="9.180545058680789"><ele>1056.0</ele><time>2026-05-03T11:11:46Z</time></trkpt><trkpt lat="44.52312259805181" lon="9.180423489767986"><ele>1056.0</ele><time>2026-05-03T11:11:47Z</time></trkpt><trkpt lat="44.52322808459689" lon="9.180262751216661"><ele>1056.0</ele><time>2026-05-03T11:11:48Z</time></trkpt><trkpt lat="44.52332294571229" lon="9.18008645087874"><ele>1056.0</ele><time>2026-05-03T11:11:49Z</time></trkpt><trkpt lat="44.523395941790284" lon="9.179922662344635"><ele>1056.5</ele><time>2026-05-03T11:11:50Z</time></trkpt><trkpt lat="44.523523885226524" lon="9.179837222887215"><ele>1057.0</ele><time>2026-05-03T11:11:51Z</time></trkpt><trkpt lat="44.52362451666295" lon="9.179728021640685"><ele>1057.5</ele><time>2026-05-03T11:11:52Z</time></trkpt><trkpt lat="44.52369512296372" lon="9.179661492750618"><ele>1058.0</ele><time>2026-05-03T11:11:53Z</time></trkpt><trkpt lat="44.52375595595048" lon="9.179526676571054"><ele>1058.0</ele><time>2026-05-03T11:11:55Z</time></trkpt><trkpt lat="44.5237959399973" lon="9.179391952954811"><ele>1058.0</ele><time>2026-05-03T11:11:57Z</time></trkpt><trkpt lat="44.52382188555171" lon="9.179240638291848"><ele>1058.0</ele><time>2026-05-03T11:11:59Z</time></trkpt><trkpt lat="44.52383736490792" lon="9.179099689846325"><ele>1058.0</ele><time>2026-05-03T11:12:01Z</time></trkpt><trkpt lat="44.523856987103336" lon="9.17895392385771"><ele>1058.0</ele><time>2026-05-03T11:12:03Z</time></trkpt><trkpt lat="44.523862640505875" lon="9.178814273418352"><ele>1054.8333333333335</ele><time>2026-05-03T11:12:05Z</time></trkpt><trkpt lat="44.523876331240274" lon="9.178682622219613"><ele>1051.6666666666667</ele><time>2026-05-03T11:12:07Z</time></trkpt><trkpt lat="44.52396335136177" lon="9.178589885892794"><ele>1048.5</ele><time>2026-05-03T11:12:09Z</time></trkpt><trkpt lat="44.52403434237746" lon="9.178582701796671"><ele>1045.3333333333333</ele><time>2026-05-03T11:12:10Z</time></trkpt><trkpt lat="44.52411669745195" lon="9.17859759635085"><ele>1042.1666666666665</ele><time>2026-05-03T11:12:11Z</time></trkpt><trkpt lat="44.52418000190111" lon="9.178638945756441"><ele>1039.0</ele><time>2026-05-03T11:12:12Z</time></trkpt><trkpt lat="44.52426060157276" lon="9.17879779891144"><ele>1039.0</ele><time>2026-05-03T11:12:14Z</time></trkpt><trkpt lat="44.52432699960178" lon="9.1789125141452"><ele>1039.0</ele><time>2026-05-03T11:12:15Z</time></trkpt><trkpt lat="44.524421165081705" lon="9.178996264664152"><ele>1039.0</ele><time>2026-05-03T11:12:16Z</time></trkpt><trkpt lat="44.52454794118343" lon="9.179012274816392"><ele>1039.0</ele><time>2026-05-03T11:12:17Z</time></trkpt><trkpt lat="44.52468335936185" lon="9.179003872219733"><ele>1038.5</ele><time>2026-05-03T11:12:18Z</time></trkpt><trkpt lat="44.5247985497208" lon="9.178972487398322"><ele>1038.0</ele><time>2026-05-03T11:12:19Z</time></trkpt><trkpt lat="44.524899741903404" lon="9.178916718890367"><ele>1037.5</ele><time>2026-05-03T11:12:20Z</time></trkpt><trkpt lat="44.52500423627573" lon="9.178827808443005"><ele>1037.0</ele><time>2026-05-03T11:12:21Z</time></trkpt><trkpt lat="44.525110569668335" lon="9.178714619025056"><ele>1037.0</ele><time>2026-05-03T11:12:22Z</time></trkpt><trkpt lat="44.52522686570845" lon="9.178643269979421"><ele>1037.0</ele><time>2026-05-03T11:12:23Z</time></trkpt><trkpt lat="44.52531468578606" lon="9.178597642811564"><ele>1037.0</ele><time>2026-05-03T11:12:24Z</time></trkpt><trkpt lat="44.52540747466633" lon="9.178593605892447"><ele>1037.0</ele><time>2026-05-03T11:12:25Z</time></trkpt><trkpt lat="44.5255104229459" lon="9.17863156861877"><ele>1037.0</ele><time>2026-05-03T11:12:26Z</time></trkpt><trkpt lat="44.525592210410004" lon="9.17877616792929"><ele>1035.5</ele><time>2026-05-03T11:12:27Z</time></trkpt><trkpt lat="44.5256953897158" lon="9.17893200720275"><ele>1034.0</ele><time>2026-05-03T11:12:28Z</time></trkpt><trkpt lat="44.52579969402196" lon="9.179036462269666"><ele>1032.5</ele><time>2026-05-03T11:12:29Z</time></trkpt><trkpt lat="44.52588204035854" lon="9.179088410137021"><ele>1031.0</ele><time>2026-05-03T11:12:30Z</time></trkpt><trkpt lat="44.52600523955858" lon="9.179076028475803"><ele>1032.0</ele><time>2026-05-03T11:12:31Z</time></trkpt><trkpt lat="44.52614592778585" lon="9.179048929312895"><ele>1033.0</ele><time>2026-05-03T11:12:32Z</time></trkpt><trkpt lat="44.526268292426" lon="9.178980999080018"><ele>1034.0</ele><time>2026-05-03T11:12:33Z</time></trkpt><trkpt lat="44.526410263410156" lon="9.178808382748588"><ele>1034.0</ele><time>2026-05-03T11:12:34Z</time></trkpt><trkpt lat="44.526553395251" lon="9.178675762757619"><ele>1034.0</ele><time>2026-05-03T11:12:35Z</time></trkpt><trkpt lat="44.52667895493876" lon="9.178549013739492"><ele>1034.0</ele><time>2026-05-03T11:12:36Z</time></trkpt><trkpt lat="44.52680307969833" lon="9.17841868904676"><ele>1034.0</ele><time>2026-05-03T11:12:37Z</time></trkpt><trkpt lat="44.526927040214325" lon="9.178285885497065"><ele>1034.0</ele><time>2026-05-03T11:12:38Z</time></trkpt><trkpt lat="44.52706219263284" lon="9.178179262237586"><ele>1034.0</ele><time>2026-05-03T11:12:39Z</time></trkpt><trkpt lat="44.52718698496526" lon="9.178057340234592"><ele>1033.75</ele><time>2026-05-03T11:12:40Z</time></trkpt><trkpt lat="44.52730161338685" lon="9.177918483831036"><ele>1033.5</ele><time>2026-05-03T11:12:41Z</time></trkpt><trkpt lat="44.527419443747874" lon="9.177803159091312"><ele>1033.25</ele><time>2026-05-03T11:12:42Z</time></trkpt><trkpt lat="44.52753233150831" lon="9.177674695478334"><ele>1033.0</ele><time>2026-05-03T11:12:43Z</time></trkpt><trkpt lat="44.52762977838471" lon="9.177521245460149"><ele>1033.5</ele><time>2026-05-03T11:12:44Z</time></trkpt><trkpt lat="44.52768949077291" lon="9.177321295606239"><ele>1034.0</ele><time>2026-05-03T11:12:45Z</time></trkpt><trkpt lat="44.52774015387682" lon="9.17712079811501"><ele>1034.5</ele><time>2026-05-03T11:12:46Z</time></trkpt><trkpt lat="44.52782011779766" lon="9.17695670892341"><ele>1035.0</ele><time>2026-05-03T11:12:47Z</time></trkpt><trkpt lat="44.52790857687201" lon="9.176830026395944"><ele>1035.0</ele><time>2026-05-03T11:12:48Z</time></trkpt><trkpt lat="44.528018484718196" lon="9.176740938883865"><ele>1035.0</ele><time>2026-05-03T11:12:49Z</time></trkpt><trkpt lat="44.528130843688594" lon="9.176694679973256"><ele>1035.0</ele><time>2026-05-03T11:12:50Z</time></trkpt><trkpt lat="44.52826740854721" lon="9.176646981633798"><ele>1035.0</ele><time>2026-05-03T11:12:51Z</time></trkpt><trkpt lat="44.528381140540304" lon="9.176580767653427"><ele>1031.5</ele><time>2026-05-03T11:12:52Z</time></trkpt><trkpt lat="44.52847361312272" lon="9.176499245492673"><ele>1028.0</ele><time>2026-05-03T11:12:53Z</time></trkpt><trkpt lat="44.52855526110117" lon="9.17632977295426"><ele>1024.5</ele><time>2026-05-03T11:12:54Z</time></trkpt><trkpt lat="44.52864257682051" lon="9.176158632466434"><ele>1021.0</ele><time>2026-05-03T11:12:55Z</time></trkpt><trkpt lat="44.52872633629541" lon="9.176015171352475"><ele>1021.0</ele><time>2026-05-03T11:12:56Z</time></trkpt><trkpt lat="44.528823846385485" lon="9.175869278511444"><ele>1021.0</ele><time>2026-05-03T11:12:57Z</time></trkpt><trkpt lat="44.5289141070157" lon="9.175719624849632"><ele>1021.0</ele><time>2026-05-03T11:12:58Z</time></trkpt><trkpt lat="44.52899793393717" lon="9.175564024297532"><ele>1021.0</ele><time>2026-05-03T11:12:59Z</time></trkpt><trkpt lat="44.52907152520375" lon="9.175390878050795"><ele>1021.0</ele><time>2026-05-03T11:13:00Z</time></trkpt><trkpt lat="44.52914004870202" lon="9.175228500665735"><ele>1021.0</ele><time>2026-05-03T11:13:01Z</time></trkpt><trkpt lat="44.529208516925" lon="9.175069968148549"><ele>1021.0</ele><time>2026-05-03T11:13:02Z</time></trkpt><trkpt lat="44.529256577147905" lon="9.17489773655417"><ele>1021.0</ele><time>2026-05-03T11:13:03Z</time></trkpt><trkpt lat="44.52927208076677" lon="9.174709230930036"><ele>1020.25</ele><time>2026-05-03T11:13:04Z</time></trkpt><trkpt lat="44.52924837677662" lon="9.174503578116106"><ele>1019.5</ele><time>2026-05-03T11:13:05Z</time></trkpt><trkpt lat="44.52919615562042" lon="9.174306365084812"><ele>1018.75</ele><time>2026-05-03T11:13:06Z</time></trkpt><trkpt lat="44.52915669892779" lon="9.174115711345655"><ele>1018.0</ele><time>2026-05-03T11:13:07Z</time></trkpt><trkpt lat="44.529106425152506" lon="9.17394983160346"><ele>1018.0</ele><time>2026-05-03T11:13:08Z</time></trkpt><trkpt lat="44.52909747734935" lon="9.173777418630213"><ele>1018.0</ele><time>2026-05-03T11:13:09Z</time></trkpt><trkpt lat="44.52914116739325" lon="9.173620478986978"><ele>1018.0</ele><time>2026-05-03T11:13:10Z</time></trkpt><trkpt lat="44.52918960190116" lon="9.173452357251161"><ele>1018.0</ele><time>2026-05-03T11:13:11Z</time></trkpt><trkpt lat="44.52926369504429" lon="9.173275128696604"><ele>1017.0</ele><time>2026-05-03T11:13:12Z</time></trkpt><trkpt lat="44.52932696539994" lon="9.173095734708843"><ele>1016.0</ele><time>2026-05-03T11:13:13Z</time></trkpt><trkpt lat="44.52938862705013" lon="9.172917583042999"><ele>1015.0</ele><time>2026-05-03T11:13:14Z</time></trkpt><trkpt lat="44.52945370702493" lon="9.17275232057854"><ele>1014.0</ele><time>2026-05-03T11:13:15Z</time></trkpt><trkpt lat="44.52952670914741" lon="9.17261436210682"><ele>1014.75</ele><time>2026-05-03T11:13:16Z</time></trkpt><trkpt lat="44.529619277823635" lon="9.17252297816907"><ele>1015.5</ele><time>2026-05-03T11:13:17Z</time></trkpt><trkpt lat="44.52973289376825" lon="9.172481219281845"><ele>1016.25</ele><time>2026-05-03T11:13:18Z</time></trkpt><trkpt lat="44.52984909895532" lon="9.172497144040479"><ele>1017.0</ele><time>2026-05-03T11:13:19Z</time></trkpt><trkpt lat="44.52996845094466" lon="9.172555670650334"><ele>1017.0</ele><time>2026-05-03T11:13:20Z</time></trkpt><trkpt lat="44.53008265418297" lon="9.172629854073417"><ele>1017.0</ele><time>2026-05-03T11:13:21Z</time></trkpt><trkpt lat="44.53018313775207" lon="9.17266034035963"><ele>1017.0</ele><time>2026-05-03T11:13:22Z</time></trkpt><trkpt lat="44.530275632335254" lon="9.172601710352318"><ele>1017.0</ele><time>2026-05-03T11:13:23Z</time></trkpt><trkpt lat="44.53035079964924" lon="9.17248409915271"><ele>1017.0</ele><time>2026-05-03T11:13:24Z</time></trkpt><trkpt lat="44.530406501422696" lon="9.172326460748145"><ele>1017.75</ele><time>2026-05-03T11:13:25Z</time></trkpt><trkpt lat="44.530420595347955" lon="9.172136347844814"><ele>1018.5</ele><time>2026-05-03T11:13:26Z</time></trkpt><trkpt lat="44.53044328555781" lon="9.171987300064945"><ele>1019.25</ele><time>2026-05-03T11:13:27Z</time></trkpt><trkpt lat="44.53050890273117" lon="9.171876067823579"><ele>1020.0</ele><time>2026-05-03T11:13:28Z</time></trkpt><trkpt lat="44.530621353553144" lon="9.171816833223456"><ele>1020.0</ele><time>2026-05-03T11:13:29Z</time></trkpt><trkpt lat="44.530715507273285" lon="9.171737360950322"><ele>1020.0</ele><time>2026-05-03T11:13:30Z</time></trkpt><trkpt lat="44.53081546774666" lon="9.171622998787512"><ele>1020.0</ele><time>2026-05-03T11:13:31Z</time></trkpt><trkpt lat="44.530891216845994" lon="9.171511791209328"><ele>1020.0</ele><time>2026-05-03T11:13:32Z</time></trkpt><trkpt lat="44.53096468900476" lon="9.171440417935786"><ele>1020.0</ele><time>2026-05-03T11:13:33Z</time></trkpt><trkpt lat="44.53103567338583" lon="9.171239451984937"><ele>1021.8333333333334</ele><time>2026-05-03T11:13:35Z</time></trkpt><trkpt lat="44.53109184700574" lon="9.17113320176098"><ele>1023.6666666666667</ele><time>2026-05-03T11:13:36Z</time></trkpt><trkpt lat="44.531150387097284" lon="9.17101737480724"><ele>1025.5</ele><time>2026-05-03T11:13:37Z</time></trkpt><trkpt lat="44.531207957145746" lon="9.170919642334894"><ele>1027.3333333333335</ele><time>2026-05-03T11:13:38Z</time></trkpt><trkpt lat="44.53126824640254" lon="9.17084683757427"><ele>1029.1666666666667</ele><time>2026-05-03T11:13:39Z</time></trkpt><trkpt lat="44.53132879011349" lon="9.170767733054053"><ele>1031.0</ele><time>2026-05-03T11:13:40Z</time></trkpt><trkpt lat="44.53138384827173" lon="9.170694458470967"><ele>1025.6666666666667</ele><time>2026-05-03T11:13:41Z</time></trkpt><trkpt lat="44.53143065696208" lon="9.170614068116896"><ele>1020.3333333333334</ele><time>2026-05-03T11:13:42Z</time></trkpt><trkpt lat="44.53148927173787" lon="9.170556200644402"><ele>1015.0</ele><time>2026-05-03T11:13:43Z</time></trkpt><trkpt lat="44.531557673735335" lon="9.170527770126528"><ele>1009.6666666666667</ele><time>2026-05-03T11:13:44Z</time></trkpt><trkpt lat="44.53163824905683" lon="9.170496780472625"><ele>1004.3333333333334</ele><time>2026-05-03T11:13:45Z</time></trkpt><trkpt lat="44.53171756570241" lon="9.170452728849325"><ele>999.0</ele><time>2026-05-03T11:13:46Z</time></trkpt><trkpt lat="44.53179741297547" lon="9.170381246569775"><ele>999.0</ele><time>2026-05-03T11:13:47Z</time></trkpt><trkpt lat="44.53188403083374" lon="9.17028630586867"><ele>999.0</ele><time>2026-05-03T11:13:48Z</time></trkpt><trkpt lat="44.53195867552576" lon="9.17016746956202"><ele>999.0</ele><time>2026-05-03T11:13:49Z</time></trkpt><trkpt lat="44.531995766022845" lon="9.16999693051232"><ele>999.0</ele><time>2026-05-03T11:13:50Z</time></trkpt><trkpt lat="44.5320322587118" lon="9.169816514297148"><ele>1000.0</ele><time>2026-05-03T11:13:51Z</time></trkpt><trkpt lat="44.53208279911754" lon="9.169687066973086"><ele>1001.0</ele><time>2026-05-03T11:13:52Z</time></trkpt><trkpt lat="44.53216507287659" lon="9.169605605228497"><ele>1002.0</ele><time>2026-05-03T11:13:53Z</time></trkpt><trkpt lat="44.53228663240819" lon="9.169548929265174"><ele>1003.0</ele><time>2026-05-03T11:13:54Z</time></trkpt><trkpt lat="44.53241814744914" lon="9.169488628662172"><ele>1003.0</ele><time>2026-05-03T11:13:55Z</time></trkpt><trkpt lat="44.53255725596492" lon="9.169414222812586"><ele>1003.0</ele><time>2026-05-03T11:13:56Z</time></trkpt><trkpt lat="44.53261914120697" lon="9.169291415750148"><ele>1003.0</ele><time>2026-05-03T11:13:57Z</time></trkpt><trkpt lat="44.532638920799926" lon="9.16912814111"><ele>1003.0</ele><time>2026-05-03T11:13:58Z</time></trkpt><trkpt lat="44.53267850366172" lon="9.169000114137582"><ele>1002.75</ele><time>2026-05-03T11:13:59Z</time></trkpt><trkpt lat="44.53277849369763" lon="9.16894817682077"><ele>1002.5</ele><time>2026-05-03T11:14:00Z</time></trkpt><trkpt lat="44.53291357575546" lon="9.168945387695773"><ele>1002.25</ele><time>2026-05-03T11:14:01Z</time></trkpt><trkpt lat="44.533051683744524" lon="9.168941793946681"><ele>1002.0</ele><time>2026-05-03T11:14:02Z</time></trkpt><trkpt lat="44.53319241023873" lon="9.168902793539509"><ele>1002.0</ele><time>2026-05-03T11:14:03Z</time></trkpt><trkpt lat="44.53332531109389" lon="9.168846330371291"><ele>1002.0</ele><time>2026-05-03T11:14:04Z</time></trkpt><trkpt lat="44.53344291551542" lon="9.168788720224308"><ele>1002.0</ele><time>2026-05-03T11:14:05Z</time></trkpt><trkpt lat="44.53351351181086" lon="9.168742537003608"><ele>1002.0</ele><time>2026-05-03T11:14:06Z</time></trkpt><trkpt lat="44.533538392508675" lon="9.168636271103722"><ele>1002.0</ele><time>2026-05-03T11:14:07Z</time></trkpt><trkpt lat="44.533539553965305" lon="9.168457690278787"><ele>1002.0</ele><time>2026-05-03T11:14:08Z</time></trkpt><trkpt lat="44.53349344659961" lon="9.1682991680772"><ele>1002.0</ele><time>2026-05-03T11:14:09Z</time></trkpt><trkpt lat="44.53337359331957" lon="9.168202922818237"><ele>1002.0</ele><time>2026-05-03T11:14:10Z</time></trkpt><trkpt lat="44.533231841922216" lon="9.168134258274424"><ele>1002.0</ele><time>2026-05-03T11:14:11Z</time></trkpt><trkpt lat="44.53310509629139" lon="9.16803701332916"><ele>1003.75</ele><time>2026-05-03T11:14:12Z</time></trkpt><trkpt lat="44.53299000473177" lon="9.167944022662489"><ele>1005.5</ele><time>2026-05-03T11:14:13Z</time></trkpt><trkpt lat="44.53289814261485" lon="9.167817546722667"><ele>1007.25</ele><time>2026-05-03T11:14:14Z</time></trkpt><trkpt lat="44.532803803452936" lon="9.167660669764533"><ele>1009.0</ele><time>2026-05-03T11:14:15Z</time></trkpt><trkpt lat="44.532716469232085" lon="9.167497814875375"><ele>1004.5</ele><time>2026-05-03T11:14:16Z</time></trkpt><trkpt lat="44.53265705207564" lon="9.167326485244692"><ele>1000.0</ele><time>2026-05-03T11:14:17Z</time></trkpt><trkpt lat="44.532612711621866" lon="9.16713714938028"><ele>995.5</ele><time>2026-05-03T11:14:18Z</time></trkpt><trkpt lat="44.53257050366929" lon="9.166930857620809"><ele>991.0</ele><time>2026-05-03T11:14:19Z</time></trkpt><trkpt lat="44.53252219209012" lon="9.166717126553255"><ele>992.6666666666666</ele><time>2026-05-03T11:14:20Z</time></trkpt><trkpt lat="44.53251102843309" lon="9.166481042104335"><ele>994.3333333333333</ele><time>2026-05-03T11:14:21Z</time></trkpt><trkpt lat="44.532507860864136" lon="9.166260454537781"><ele>996.0</ele><time>2026-05-03T11:14:22Z</time></trkpt><trkpt lat="44.532502190387355" lon="9.166050656026146"><ele>996.0</ele><time>2026-05-03T11:14:23Z</time></trkpt><trkpt lat="44.53249430977062" lon="9.16585702103135"><ele>996.0</ele><time>2026-05-03T11:14:24Z</time></trkpt><trkpt lat="44.53244619963091" lon="9.165680634555104"><ele>996.0</ele><time>2026-05-03T11:14:25Z</time></trkpt><trkpt lat="44.53237538224806" lon="9.16556481647614"><ele>996.0</ele><time>2026-05-03T11:14:26Z</time></trkpt><trkpt lat="44.532269455557135" lon="9.165496732271272"><ele>994.75</ele><time>2026-05-03T11:14:27Z</time></trkpt><trkpt lat="44.53216094508109" lon="9.16547571752361"><ele>993.5</ele><time>2026-05-03T11:14:28Z</time></trkpt><trkpt lat="44.53207225341086" lon="9.165601974605796"><ele>992.25</ele><time>2026-05-03T11:14:29Z</time></trkpt><trkpt lat="44.531978918776765" lon="9.165714653657894"><ele>991.0</ele><time>2026-05-03T11:14:30Z</time></trkpt><trkpt lat="44.53187160170338" lon="9.16584242760533"><ele>991.0</ele><time>2026-05-03T11:14:31Z</time></trkpt><trkpt lat="44.53176086771462" lon="9.16591666141479"><ele>991.0</ele><time>2026-05-03T11:14:32Z</time></trkpt><trkpt lat="44.53161931767049" lon="9.166026203683742"><ele>991.0</ele><time>2026-05-03T11:14:33Z</time></trkpt><trkpt lat="44.53151351974194" lon="9.166164652137141"><ele>991.0</ele><time>2026-05-03T11:14:34Z</time></trkpt><trkpt lat="44.53145623308334" lon="9.166345718054478"><ele>991.0</ele><time>2026-05-03T11:14:35Z</time></trkpt><trkpt lat="44.531350080694146" lon="9.16643231135453"><ele>991.0</ele><time>2026-05-03T11:14:36Z</time></trkpt><trkpt lat="44.531247029118916" lon="9.16645434819998"><ele>991.0</ele><time>2026-05-03T11:14:37Z</time></trkpt><trkpt lat="44.53113846085087" lon="9.166347205927009"><ele>991.0</ele><time>2026-05-03T11:14:38Z</time></trkpt><trkpt lat="44.53101459897517" lon="9.166240789892083"><ele>990.3333333333333</ele><time>2026-05-03T11:14:39Z</time></trkpt><trkpt lat="44.53088167756775" lon="9.166151307729388"><ele>989.6666666666667</ele><time>2026-05-03T11:14:40Z</time></trkpt><trkpt lat="44.530721369184825" lon="9.166144384416265"><ele>989.0</ele><time>2026-05-03T11:14:41Z</time></trkpt><trkpt lat="44.5305622482874" lon="9.166168423850516"><ele>989.0</ele><time>2026-05-03T11:14:42Z</time></trkpt><trkpt lat="44.53042348902852" lon="9.16614981041172"><ele>989.0</ele><time>2026-05-03T11:14:43Z</time></trkpt><trkpt lat="44.530294242605976" lon="9.16605696625381"><ele>989.0</ele><time>2026-05-03T11:14:44Z</time></trkpt><trkpt lat="44.530166496633" lon="9.165941304444624"><ele>989.0</ele><time>2026-05-03T11:14:45Z</time></trkpt><trkpt lat="44.53001929781788" lon="9.165825552219294"><ele>992.6666666666667</ele><time>2026-05-03T11:14:46Z</time></trkpt><trkpt lat="44.52988693108168" lon="9.165704062293244"><ele>996.3333333333333</ele><time>2026-05-03T11:14:47Z</time></trkpt><trkpt lat="44.52974877967173" lon="9.165590744690817"><ele>1000.0</ele><time>2026-05-03T11:14:48Z</time></trkpt><trkpt lat="44.52961642604984" lon="9.165481214231665"><ele>995.5</ele><time>2026-05-03T11:14:49Z</time></trkpt><trkpt lat="44.529479262684106" lon="9.16538344452043"><ele>991.0</ele><time>2026-05-03T11:14:50Z</time></trkpt><trkpt lat="44.52935584279511" lon="9.165288364703784"><ele>986.5</ele><time>2026-05-03T11:14:51Z</time></trkpt><trkpt lat="44.52924871890245" lon="9.165247534647188"><ele>982.0</ele><time>2026-05-03T11:14:52Z</time></trkpt><trkpt lat="44.529142685458126" lon="9.165289948122613"><ele>982.0</ele><time>2026-05-03T11:14:53Z</time></trkpt><trkpt lat="44.52903806870357" lon="9.165403713961915"><ele>982.0</ele><time>2026-05-03T11:14:54Z</time></trkpt><trkpt lat="44.52895497628928" lon="9.165574658302283"><ele>982.0</ele><time>2026-05-03T11:14:55Z</time></trkpt><trkpt lat="44.52886842293402" lon="9.165627507069734"><ele>982.0</ele><time>2026-05-03T11:14:56Z</time></trkpt><trkpt lat="44.52876091328181" lon="9.165630208876104"><ele>975.25</ele><time>2026-05-03T11:14:57Z</time></trkpt><trkpt lat="44.52866085664714" lon="9.165554471213133"><ele>968.5</ele><time>2026-05-03T11:14:58Z</time></trkpt><trkpt lat="44.528582917215004" lon="9.165416499318752"><ele>961.75</ele><time>2026-05-03T11:14:59Z</time></trkpt><trkpt lat="44.5284992293116" lon="9.165240312165967"><ele>955.0</ele><time>2026-05-03T11:15:00Z</time></trkpt><trkpt lat="44.52841993667913" lon="9.1650535088271"><ele>955.0</ele><time>2026-05-03T11:15:01Z</time></trkpt><trkpt lat="44.528377891459236" lon="9.164865088712714"><ele>955.0</ele><time>2026-05-03T11:15:02Z</time></trkpt><trkpt lat="44.52830877273569" lon="9.1647215863486"><ele>955.0</ele><time>2026-05-03T11:15:03Z</time></trkpt><trkpt lat="44.528222299948986" lon="9.164605182514654"><ele>955.0</ele><time>2026-05-03T11:15:04Z</time></trkpt><trkpt lat="44.52812554733763" lon="9.164487252315938"><ele>954.0</ele><time>2026-05-03T11:15:05Z</time></trkpt><trkpt lat="44.52799735225717" lon="9.164371169337636"><ele>953.0</ele><time>2026-05-03T11:15:06Z</time></trkpt><trkpt lat="44.52787073937828" lon="9.16432444504961"><ele>952.0</ele><time>2026-05-03T11:15:07Z</time></trkpt><trkpt lat="44.527723407338556" lon="9.164324853157343"><ele>951.0</ele><time>2026-05-03T11:15:08Z</time></trkpt><trkpt lat="44.52757551132006" lon="9.164343709007406"><ele>951.0</ele><time>2026-05-03T11:15:09Z</time></trkpt><trkpt lat="44.527468094769446" lon="9.164310524583433"><ele>950.9999999999999</ele><time>2026-05-03T11:15:10Z</time></trkpt><trkpt lat="44.527373281950865" lon="9.164253310244955"><ele>950.9999999999999</ele><time>2026-05-03T11:15:11Z</time></trkpt><trkpt lat="44.52729771836969" lon="9.164150653798078"><ele>951.0</ele><time>2026-05-03T11:15:12Z</time></trkpt><trkpt lat="44.527273571200666" lon="9.163988635585495"><ele>951.0</ele><time>2026-05-03T11:15:13Z</time></trkpt><trkpt lat="44.52725391780739" lon="9.163785268843517"><ele>951.5</ele><time>2026-05-03T11:15:14Z</time></trkpt><trkpt lat="44.527253889377086" lon="9.1635532890638"><ele>952.0</ele><time>2026-05-03T11:15:15Z</time></trkpt><trkpt lat="44.52724935053943" lon="9.163310043831432"><ele>952.5</ele><time>2026-05-03T11:15:16Z</time></trkpt><trkpt lat="44.52725207589521" lon="9.163203935168422"><ele>953.0</ele><time>2026-05-03T11:15:17Z</time></trkpt><trkpt lat="44.52727598816882" lon="9.163006362670966"><ele>951.3333333333334</ele><time>2026-05-03T11:15:18Z</time></trkpt><trkpt lat="44.527317440600505" lon="9.162794921509485"><ele>949.6666666666667</ele><time>2026-05-03T11:15:19Z</time></trkpt><trkpt lat="44.52736594631023" lon="9.162554992232451"><ele>948.0</ele><time>2026-05-03T11:15:20Z</time></trkpt><trkpt lat="44.52740541236644" lon="9.162345762885725"><ele>947.75</ele><time>2026-05-03T11:15:21Z</time></trkpt><trkpt lat="44.527444566772566" lon="9.162146230356889"><ele>947.5</ele><time>2026-05-03T11:15:22Z</time></trkpt><trkpt lat="44.52748047773449" lon="9.161958747482235"><ele>947.25</ele><time>2026-05-03T11:15:23Z</time></trkpt><trkpt lat="44.52749757308698" lon="9.161810892781396"><ele>947.0</ele><time>2026-05-03T11:15:24Z</time></trkpt><trkpt lat="44.52745655807651" lon="9.161641911500492"><ele>947.0</ele><time>2026-05-03T11:15:25Z</time></trkpt><trkpt lat="44.527320594903486" lon="9.161646285100785"><ele>947.0</ele><time>2026-05-03T11:15:26Z</time></trkpt><trkpt lat="44.527252166749356" lon="9.161547468751335"><ele>947.0</ele><time>2026-05-03T11:15:27Z</time></trkpt><trkpt lat="44.52716779562469" lon="9.16141879916283"><ele>947.0</ele><time>2026-05-03T11:15:28Z</time></trkpt><trkpt lat="44.527151065703976" lon="9.161266596136185"><ele>947.75</ele><time>2026-05-03T11:15:29Z</time></trkpt><trkpt lat="44.52714617952946" lon="9.16110568469815"><ele>948.5</ele><time>2026-05-03T11:15:30Z</time></trkpt><trkpt lat="44.52708462364868" lon="9.160916572661657"><ele>949.25</ele><time>2026-05-03T11:15:31Z</time></trkpt><trkpt lat="44.527008455482424" lon="9.160739982274734"><ele>950.0</ele><time>2026-05-03T11:15:32Z</time></trkpt><trkpt lat="44.52692835800605" lon="9.160564558083733"><ele>948.75</ele><time>2026-05-03T11:15:33Z</time></trkpt><trkpt lat="44.526902798192026" lon="9.160375511953681"><ele>947.5</ele><time>2026-05-03T11:15:34Z</time></trkpt><trkpt lat="44.526931859630274" lon="9.160205841847834"><ele>946.25</ele><time>2026-05-03T11:15:35Z</time></trkpt><trkpt lat="44.5269986884311" lon="9.160067065723903"><ele>945.0</ele><time>2026-05-03T11:15:36Z</time></trkpt><trkpt lat="44.52707962209614" lon="9.159909956098147"><ele>944.0</ele><time>2026-05-03T11:15:37Z</time></trkpt><trkpt lat="44.52713160648524" lon="9.159757088675379"><ele>943.0</ele><time>2026-05-03T11:15:38Z</time></trkpt><trkpt lat="44.52711263338601" lon="9.159587124109342"><ele>942.0</ele><time>2026-05-03T11:15:39Z</time></trkpt><trkpt lat="44.52702806469746" lon="9.159426456347997"><ele>941.0</ele><time>2026-05-03T11:15:40Z</time></trkpt><trkpt lat="44.52693430492627" lon="9.159307352865868"><ele>938.25</ele><time>2026-05-03T11:15:41Z</time></trkpt><trkpt lat="44.526809164964085" lon="9.159271740717882"><ele>935.5</ele><time>2026-05-03T11:15:42Z</time></trkpt><trkpt lat="44.52667198054018" lon="9.159319428901092"><ele>932.75</ele><time>2026-05-03T11:15:43Z</time></trkpt><trkpt lat="44.526526668507344" lon="9.159364081840021"><ele>930.0</ele><time>2026-05-03T11:15:44Z</time></trkpt><trkpt lat="44.52638769878831" lon="9.159391626786924"><ele>930.0</ele><time>2026-05-03T11:15:45Z</time></trkpt><trkpt lat="44.526254702397786" lon="9.159440047206377"><ele>930.0</ele><time>2026-05-03T11:15:46Z</time></trkpt><trkpt lat="44.52613146876492" lon="9.15942099711205"><ele>930.0</ele><time>2026-05-03T11:15:47Z</time></trkpt><trkpt lat="44.52604712648958" lon="9.159355842224576"><ele>930.0</ele><time>2026-05-03T11:15:48Z</time></trkpt><trkpt lat="44.52599750106592" lon="9.159223744491687"><ele>926.25</ele><time>2026-05-03T11:15:49Z</time></trkpt><trkpt lat="44.525932588950305" lon="9.159085296926293"><ele>922.5</ele><time>2026-05-03T11:15:50Z</time></trkpt><trkpt lat="44.52598552681404" lon="9.158961204011973"><ele>918.75</ele><time>2026-05-03T11:15:51Z</time></trkpt><trkpt lat="44.5260186688476" lon="9.158793549952117"><ele>915.0</ele><time>2026-05-03T11:15:52Z</time></trkpt><trkpt lat="44.52604433567737" lon="9.158627073677158"><ele>915.0</ele><time>2026-05-03T11:15:53Z</time></trkpt><trkpt lat="44.52602625473466" lon="9.158434488969684"><ele>915.0</ele><time>2026-05-03T11:15:54Z</time></trkpt><trkpt lat="44.52595061412761" lon="9.158253568183852"><ele>915.0</ele><time>2026-05-03T11:15:55Z</time></trkpt><trkpt lat="44.52590961106063" lon="9.158064962693238"><ele>915.0</ele><time>2026-05-03T11:15:56Z</time></trkpt><trkpt lat="44.5259323158342" lon="9.157856429015395"><ele>914.25</ele><time>2026-05-03T11:15:57Z</time></trkpt><trkpt lat="44.52597076577069" lon="9.157656068242993"><ele>913.5</ele><time>2026-05-03T11:15:58Z</time></trkpt><trkpt lat="44.525991559927775" lon="9.157461562817936"><ele>912.75</ele><time>2026-05-03T11:15:59Z</time></trkpt><trkpt lat="44.52603824052342" lon="9.157294286075645"><ele>912.0</ele><time>2026-05-03T11:16:00Z</time></trkpt><trkpt lat="44.526097814235435" lon="9.157195903272958"><ele>911.2</ele><time>2026-05-03T11:16:01Z</time></trkpt><trkpt lat="44.52617399105991" lon="9.157062800344585"><ele>910.4000000000001</ele><time>2026-05-03T11:16:02Z</time></trkpt><trkpt lat="44.526216235878316" lon="9.156971996425828"><ele>909.5999999999999</ele><time>2026-05-03T11:16:03Z</time></trkpt><trkpt lat="44.52627677544765" lon="9.156848794940474"><ele>908.8</ele><time>2026-05-03T11:16:04Z</time></trkpt><trkpt lat="44.52627501871636" lon="9.156708887565587"><ele>908.0</ele><time>2026-05-03T11:16:05Z</time></trkpt><trkpt lat="44.52616376057818" lon="9.156641316570544"><ele>908.0</ele><time>2026-05-03T11:16:06Z</time></trkpt><trkpt lat="44.526051020465616" lon="9.15663545964305"><ele>908.0</ele><time>2026-05-03T11:16:07Z</time></trkpt><trkpt lat="44.525956233981084" lon="9.15674142687033"><ele>908.0</ele><time>2026-05-03T11:16:08Z</time></trkpt><trkpt lat="44.52590898076852" lon="9.156879719510826"><ele>908.0</ele><time>2026-05-03T11:16:09Z</time></trkpt><trkpt lat="44.52587899615366" lon="9.157035806639731"><ele>908.0</ele><time>2026-05-03T11:16:10Z</time></trkpt><trkpt lat="44.525814786550846" lon="9.15723797891018"><ele>908.0</ele><time>2026-05-03T11:16:11Z</time></trkpt><trkpt lat="44.52575645476646" lon="9.15741864923558"><ele>908.0</ele><time>2026-05-03T11:16:12Z</time></trkpt><trkpt lat="44.5257037885731" lon="9.157603537234733"><ele>908.0</ele><time>2026-05-03T11:16:13Z</time></trkpt><trkpt lat="44.52563988969887" lon="9.157802465130205"><ele>909.0</ele><time>2026-05-03T11:16:14Z</time></trkpt><trkpt lat="44.52558183743686" lon="9.157980369384234"><ele>910.0</ele><time>2026-05-03T11:16:15Z</time></trkpt><trkpt lat="44.52554769029677" lon="9.15814674305895"><ele>911.0</ele><time>2026-05-03T11:16:16Z</time></trkpt><trkpt lat="44.525542564542086" lon="9.158331786272306"><ele>912.0</ele><time>2026-05-03T11:16:17Z</time></trkpt><trkpt lat="44.525605357885446" lon="9.158508655482139"><ele>912.0</ele><time>2026-05-03T11:16:18Z</time></trkpt><trkpt lat="44.52565034024281" lon="9.158688098953954"><ele>912.0</ele><time>2026-05-03T11:16:19Z</time></trkpt><trkpt lat="44.525618714134595" lon="9.158883561542044"><ele>912.0</ele><time>2026-05-03T11:16:20Z</time></trkpt><trkpt lat="44.52555659108837" lon="9.15910893061577"><ele>912.0</ele><time>2026-05-03T11:16:21Z</time></trkpt><trkpt lat="44.5255005371298" lon="9.15933096394693"><ele>912.0</ele><time>2026-05-03T11:16:22Z</time></trkpt><trkpt lat="44.52545554004063" lon="9.159513102828484"><ele>912.0</ele><time>2026-05-03T11:16:23Z</time></trkpt><trkpt lat="44.5254345184979" lon="9.159698909635502"><ele>912.0</ele><time>2026-05-03T11:16:24Z</time></trkpt><trkpt lat="44.525465677834895" lon="9.159863805942337"><ele>910.8</ele><time>2026-05-03T11:16:25Z</time></trkpt><trkpt lat="44.525564235151805" lon="9.159963997763917"><ele>909.6</ele><time>2026-05-03T11:16:26Z</time></trkpt><trkpt lat="44.525633621250854" lon="9.160065136533625"><ele>908.3999999999999</ele><time>2026-05-03T11:16:27Z</time></trkpt><trkpt lat="44.52567380488975" lon="9.160162371221324"><ele>907.1999999999999</ele><time>2026-05-03T11:16:28Z</time></trkpt><trkpt lat="44.52563857767766" lon="9.160270842570073"><ele>906.0</ele><time>2026-05-03T11:16:29Z</time></trkpt><trkpt lat="44.52555436341881" lon="9.160363782560973"><ele>906.0</ele><time>2026-05-03T11:16:30Z</time></trkpt><trkpt lat="44.525433394145026" lon="9.160345706104293"><ele>906.0</ele><time>2026-05-03T11:16:31Z</time></trkpt><trkpt lat="44.52529786592508" lon="9.160360162370598"><ele>906.0</ele><time>2026-05-03T11:16:32Z</time></trkpt><trkpt lat="44.52516601097712" lon="9.160319869873703"><ele>906.0</ele><time>2026-05-03T11:16:33Z</time></trkpt><trkpt lat="44.5250425306395" lon="9.160296296060727"><ele>903.0</ele><time>2026-05-03T11:16:34Z</time></trkpt><trkpt lat="44.524910947250504" lon="9.160312812008458"><ele>900.0</ele><time>2026-05-03T11:16:35Z</time></trkpt><trkpt lat="44.52479052065929" lon="9.160417956849672"><ele>897.0</ele><time>2026-05-03T11:16:36Z</time></trkpt><trkpt lat="44.524694107212746" lon="9.160588556879203"><ele>894.0</ele><time>2026-05-03T11:16:37Z</time></trkpt><trkpt lat="44.5246325915498" lon="9.160765057222015"><ele>894.0</ele><time>2026-05-03T11:16:38Z</time></trkpt><trkpt lat="44.52457212497148" lon="9.160941537074935"><ele>894.0</ele><time>2026-05-03T11:16:39Z</time></trkpt><trkpt lat="44.52452576348768" lon="9.16109462351948"><ele>894.0</ele><time>2026-05-03T11:16:40Z</time></trkpt><trkpt lat="44.52448295421501" lon="9.161251022648644"><ele>894.0</ele><time>2026-05-03T11:16:41Z</time></trkpt><trkpt lat="44.52444671356495" lon="9.161402196130336"><ele>890.8000000000001</ele><time>2026-05-03T11:16:42Z</time></trkpt><trkpt lat="44.524431137164015" lon="9.161556032606375"><ele>887.6000000000001</ele><time>2026-05-03T11:16:43Z</time></trkpt><trkpt lat="44.52444767496226" lon="9.161732829075955"><ele>884.4</ele><time>2026-05-03T11:16:44Z</time></trkpt><trkpt lat="44.52442630107274" lon="9.161854485752643"><ele>881.2</ele><time>2026-05-03T11:16:45Z</time></trkpt><trkpt lat="44.524408077138254" lon="9.161942817200973"><ele>878.0</ele><time>2026-05-03T11:16:46Z</time></trkpt><trkpt lat="44.524314396430206" lon="9.161952079974421"><ele>878.0</ele><time>2026-05-03T11:16:47Z</time></trkpt><trkpt lat="44.52421039999977" lon="9.161883787666703"><ele>878.0</ele><time>2026-05-03T11:16:48Z</time></trkpt><trkpt lat="44.524078931513294" lon="9.161896140839852"><ele>878.0</ele><time>2026-05-03T11:16:49Z</time></trkpt><trkpt lat="44.5239459922108" lon="9.161913462372977"><ele>878.0</ele><time>2026-05-03T11:16:50Z</time></trkpt><trkpt lat="44.52381783573522" lon="9.161985022154234"><ele>878.0</ele><time>2026-05-03T11:16:51Z</time></trkpt><trkpt lat="44.52369947337435" lon="9.162111800477009"><ele>878.0</ele><time>2026-05-03T11:16:52Z</time></trkpt><trkpt lat="44.52358292617933" lon="9.162256683709703"><ele>878.0</ele><time>2026-05-03T11:16:53Z</time></trkpt><trkpt lat="44.52347892527931" lon="9.162386852502847"><ele>878.0</ele><time>2026-05-03T11:16:54Z</time></trkpt><trkpt lat="44.523365464534876" lon="9.162506373546165"><ele>878.0</ele><time>2026-05-03T11:16:55Z</time></trkpt><trkpt lat="44.52324499338392" lon="9.162565589770372"><ele>878.0</ele><time>2026-05-03T11:16:56Z</time></trkpt><trkpt lat="44.52311086767759" lon="9.16256291459106"><ele>878.0</ele><time>2026-05-03T11:16:57Z</time></trkpt><trkpt lat="44.52299919297269" lon="9.16254648769196"><ele>878.0</ele><time>2026-05-03T11:16:58Z</time></trkpt><trkpt lat="44.52292673502143" lon="9.16259830352969"><ele>871.25</ele><time>2026-05-03T11:16:59Z</time></trkpt><trkpt lat="44.5228051120234" lon="9.162625459718432"><ele>864.5</ele><time>2026-05-03T11:17:00Z</time></trkpt><trkpt lat="44.522763095927296" lon="9.162767981487034"><ele>857.75</ele><time>2026-05-03T11:17:01Z</time></trkpt><trkpt lat="44.52275141141646" lon="9.162956325231495"><ele>851.0</ele><time>2026-05-03T11:17:02Z</time></trkpt><trkpt lat="44.52271137983582" lon="9.163150047008731"><ele>855.75</ele><time>2026-05-03T11:17:03Z</time></trkpt><trkpt lat="44.52266030016705" lon="9.163289458031288"><ele>860.5</ele><time>2026-05-03T11:17:04Z</time></trkpt><trkpt lat="44.522598249825" lon="9.163354662593113"><ele>865.25</ele><time>2026-05-03T11:17:05Z</time></trkpt><trkpt lat="44.522457487267395" lon="9.163383633818677"><ele>870.0</ele><time>2026-05-03T11:17:06Z</time></trkpt><trkpt lat="44.52231573628657" lon="9.163391381877258"><ele>870.0</ele><time>2026-05-03T11:17:07Z</time></trkpt><trkpt lat="44.522220320888735" lon="9.163489651816459"><ele>870.0</ele><time>2026-05-03T11:17:08Z</time></trkpt><trkpt lat="44.52212408679409" lon="9.163689820334644"><ele>870.0</ele><time>2026-05-03T11:17:09Z</time></trkpt><trkpt lat="44.52205671060639" lon="9.1638872689634"><ele>870.0</ele><time>2026-05-03T11:17:10Z</time></trkpt><trkpt lat="44.52196607889301" lon="9.164026838055236"><ele>871.5</ele><time>2026-05-03T11:17:11Z</time></trkpt><trkpt lat="44.52185360461393" lon="9.164116298008272"><ele>873.0</ele><time>2026-05-03T11:17:12Z</time></trkpt><trkpt lat="44.521739745356214" lon="9.164125505787057"><ele>874.5</ele><time>2026-05-03T11:17:13Z</time></trkpt><trkpt lat="44.52160768954879" lon="9.16400034762163"><ele>876.0</ele><time>2026-05-03T11:17:14Z</time></trkpt><trkpt lat="44.521494060057485" lon="9.16387814460773"><ele>868.25</ele><time>2026-05-03T11:17:15Z</time></trkpt><trkpt lat="44.52136368367621" lon="9.16378784667755"><ele>860.5</ele><time>2026-05-03T11:17:16Z</time></trkpt><trkpt lat="44.52122929269875" lon="9.163744899527856"><ele>852.75</ele><time>2026-05-03T11:17:17Z</time></trkpt><trkpt lat="44.52108273688836" lon="9.163768107366069"><ele>845.0</ele><time>2026-05-03T11:17:18Z</time></trkpt><trkpt lat="44.52094494115932" lon="9.163814822007021"><ele>840.6666666666667</ele><time>2026-05-03T11:17:19Z</time></trkpt><trkpt lat="44.52078386847617" lon="9.163899522843312"><ele>836.3333333333333</ele><time>2026-05-03T11:17:20Z</time></trkpt><trkpt lat="44.52064484144173" lon="9.163958499984657"><ele>832.0</ele><time>2026-05-03T11:17:21Z</time></trkpt><trkpt lat="44.52050613657337" lon="9.163965366614589"><ele>832.0</ele><time>2026-05-03T11:17:22Z</time></trkpt><trkpt lat="44.52038506134328" lon="9.164044192573488"><ele>832.0</ele><time>2026-05-03T11:17:23Z</time></trkpt><trkpt lat="44.52027865481019" lon="9.164128370452476"><ele>832.0</ele><time>2026-05-03T11:17:24Z</time></trkpt><trkpt lat="44.52021005832154" lon="9.164145299565389"><ele>832.0</ele><time>2026-05-03T11:17:25Z</time></trkpt><trkpt lat="44.52012106305148" lon="9.164112272545008"><ele>832.0</ele><time>2026-05-03T11:17:26Z</time></trkpt><trkpt lat="44.52009069458394" lon="9.164000809590677"><ele>832.0</ele><time>2026-05-03T11:17:27Z</time></trkpt><trkpt lat="44.520128133637215" lon="9.163896936346644"><ele>832.0</ele><time>2026-05-03T11:17:28Z</time></trkpt><trkpt lat="44.52018295052525" lon="9.16376078831618"><ele>832.0</ele><time>2026-05-03T11:17:29Z</time></trkpt><trkpt lat="44.52019177444726" lon="9.163623647354116"><ele>832.0</ele><time>2026-05-03T11:17:30Z</time></trkpt><trkpt lat="44.520119024592496" lon="9.163509916122305"><ele>832.0</ele><time>2026-05-03T11:17:31Z</time></trkpt><trkpt lat="44.520055414532195" lon="9.163481095342295"><ele>832.0</ele><time>2026-05-03T11:17:32Z</time></trkpt><trkpt lat="44.51992831664105" lon="9.163510696698157"><ele>832.0</ele><time>2026-05-03T11:17:33Z</time></trkpt><trkpt lat="44.51982023306989" lon="9.163478356571774"><ele>832.0</ele><time>2026-05-03T11:17:34Z</time></trkpt><trkpt lat="44.51973443574242" lon="9.16336487990329"><ele>832.0</ele><time>2026-05-03T11:17:35Z</time></trkpt><trkpt lat="44.519622825478905" lon="9.163209339280282"><ele>829.25</ele><time>2026-05-03T11:17:36Z</time></trkpt><trkpt lat="44.51950334018003" lon="9.163065491716187"><ele>826.5</ele><time>2026-05-03T11:17:37Z</time></trkpt><trkpt lat="44.51939621085919" lon="9.162953155809802"><ele>823.75</ele><time>2026-05-03T11:17:38Z</time></trkpt><trkpt lat="44.51926135171103" lon="9.16293683122657"><ele>821.0</ele><time>2026-05-03T11:17:39Z</time></trkpt><trkpt lat="44.51915801213029" lon="9.163009723393365"><ele>821.0</ele><time>2026-05-03T11:17:40Z</time></trkpt><trkpt lat="44.51903394983116" lon="9.163030792626472"><ele>821.0</ele><time>2026-05-03T11:17:41Z</time></trkpt><trkpt lat="44.51898069759898" lon="9.162957789887388"><ele>821.0</ele><time>2026-05-03T11:17:42Z</time></trkpt><trkpt lat="44.518889205795624" lon="9.162812651725936"><ele>821.0</ele><time>2026-05-03T11:17:43Z</time></trkpt><trkpt lat="44.51885161846099" lon="9.162634917058746"><ele>821.0</ele><time>2026-05-03T11:17:44Z</time></trkpt><trkpt lat="44.51878333534188" lon="9.16244843710144"><ele>821.0</ele><time>2026-05-03T11:17:45Z</time></trkpt><trkpt lat="44.51864619143259" lon="9.162330495447309"><ele>821.0</ele><time>2026-05-03T11:17:46Z</time></trkpt><trkpt lat="44.5184921939312" lon="9.162268238978713"><ele>821.25</ele><time>2026-05-03T11:17:47Z</time></trkpt><trkpt lat="44.51835206145447" lon="9.162241282086907"><ele>821.5</ele><time>2026-05-03T11:17:48Z</time></trkpt><trkpt lat="44.51822019112291" lon="9.16222759857231"><ele>821.75</ele><time>2026-05-03T11:17:49Z</time></trkpt><trkpt lat="44.518105382865095" lon="9.162329324056971"><ele>822.0</ele><time>2026-05-03T11:17:50Z</time></trkpt><trkpt lat="44.51801613746003" lon="9.162454260721397"><ele>822.0</ele><time>2026-05-03T11:17:51Z</time></trkpt><trkpt lat="44.5179554154844" lon="9.16265067088732"><ele>822.0</ele><time>2026-05-03T11:17:52Z</time></trkpt><trkpt lat="44.517985352230845" lon="9.162851998142244"><ele>822.0</ele><time>2026-05-03T11:17:53Z</time></trkpt><trkpt lat="44.51800650489233" lon="9.163022529162689"><ele>822.0</ele><time>2026-05-03T11:17:54Z</time></trkpt><trkpt lat="44.51813183772798" lon="9.16312755975659"><ele>822.0</ele><time>2026-05-03T11:17:55Z</time></trkpt><trkpt lat="44.518212486331265" lon="9.163192796200276"><ele>822.0</ele><time>2026-05-03T11:17:56Z</time></trkpt><trkpt lat="44.51825438575812" lon="9.163285554603918"><ele>822.0</ele><time>2026-05-03T11:17:57Z</time></trkpt><trkpt lat="44.51818506026899" lon="9.163330935898326"><ele>822.0</ele><time>2026-05-03T11:17:59Z</time></trkpt><trkpt lat="44.51808579518727" lon="9.163198420470108"><ele>822.0</ele><time>2026-05-03T11:18:22Z</time></trkpt><trkpt lat="44.518025048258636" lon="9.163080221955532"><ele>822.0</ele><time>2026-05-03T11:18:23Z</time></trkpt><trkpt lat="44.517963043478154" lon="9.162943744250057"><ele>822.0</ele><time>2026-05-03T11:18:24Z</time></trkpt><trkpt lat="44.51787849818635" lon="9.162825629313396"><ele>822.0</ele><time>2026-05-03T11:18:25Z</time></trkpt><trkpt lat="44.51782581168767" lon="9.16270338071895"><ele>822.0</ele><time>2026-05-03T11:18:26Z</time></trkpt><trkpt lat="44.51781592942394" lon="9.162562863157142"><ele>822.0</ele><time>2026-05-03T11:18:27Z</time></trkpt><trkpt lat="44.517857579620156" lon="9.162405222728296"><ele>817.5</ele><time>2026-05-03T11:18:28Z</time></trkpt><trkpt lat="44.51791174193777" lon="9.162224004283614"><ele>813.0</ele><time>2026-05-03T11:18:29Z</time></trkpt><trkpt lat="44.51797331408582" lon="9.16207208858732"><ele>808.5</ele><time>2026-05-03T11:18:30Z</time></trkpt><trkpt lat="44.51806429617015" lon="9.161940739503988"><ele>804.0</ele><time>2026-05-03T11:18:31Z</time></trkpt><trkpt lat="44.51817184975388" lon="9.161858900789637"><ele>804.0</ele><time>2026-05-03T11:18:32Z</time></trkpt><trkpt lat="44.51829915134121" lon="9.161841472052272"><ele>804.0</ele><time>2026-05-03T11:18:33Z</time></trkpt><trkpt lat="44.518425847358365" lon="9.161861556505853"><ele>804.0</ele><time>2026-05-03T11:18:34Z</time></trkpt><trkpt lat="44.51855796087453" lon="9.161905218815173"><ele>804.0</ele><time>2026-05-03T11:18:35Z</time></trkpt><trkpt lat="44.518677005148625" lon="9.161932885926495"><ele>801.25</ele><time>2026-05-03T11:18:36Z</time></trkpt><trkpt lat="44.51880363932787" lon="9.161918943039531"><ele>798.5</ele><time>2026-05-03T11:18:37Z</time></trkpt><trkpt lat="44.5189378018019" lon="9.161934766651552"><ele>795.75</ele><time>2026-05-03T11:18:38Z</time></trkpt><trkpt lat="44.51905841629411" lon="9.161949048148813"><ele>793.0</ele><time>2026-05-03T11:18:39Z</time></trkpt><trkpt lat="44.51917576104799" lon="9.162035097471787"><ele>793.0</ele><time>2026-05-03T11:18:40Z</time></trkpt><trkpt lat="44.519314249417796" lon="9.162096221466967"><ele>793.0</ele><time>2026-05-03T11:18:41Z</time></trkpt><trkpt lat="44.51946215267861" lon="9.162156254046273"><ele>793.0</ele><time>2026-05-03T11:18:42Z</time></trkpt><trkpt lat="44.51955493004328" lon="9.162189473437765"><ele>793.0</ele><time>2026-05-03T11:18:43Z</time></trkpt><trkpt lat="44.51966438305522" lon="9.162243605010325"><ele>791.2</ele><time>2026-05-03T11:18:44Z</time></trkpt><trkpt lat="44.519768064892595" lon="9.162222449968823"><ele>789.4</ele><time>2026-05-03T11:18:45Z</time></trkpt><trkpt lat="44.51985151601135" lon="9.162138826216399"><ele>787.6</ele><time>2026-05-03T11:18:46Z</time></trkpt><trkpt lat="44.51994521772737" lon="9.162087858561655"><ele>785.8000000000001</ele><time>2026-05-03T11:18:47Z</time></trkpt><trkpt lat="44.52005286908978" lon="9.162066524059396"><ele>784.0</ele><time>2026-05-03T11:18:48Z</time></trkpt><trkpt lat="44.520152710482776" lon="9.162133987529508"><ele>784.0</ele><time>2026-05-03T11:18:49Z</time></trkpt><trkpt lat="44.52027216788316" lon="9.162226147499437"><ele>784.0</ele><time>2026-05-03T11:18:50Z</time></trkpt><trkpt lat="44.520383140857625" lon="9.162324031547394"><ele>784.0</ele><time>2026-05-03T11:18:51Z</time></trkpt><trkpt lat="44.52047499235355" lon="9.162405647153347"><ele>784.0</ele><time>2026-05-03T11:18:52Z</time></trkpt><trkpt lat="44.520555043966354" lon="9.162463770824617"><ele>785.0</ele><time>2026-05-03T11:18:53Z</time></trkpt><trkpt lat="44.52064024499614" lon="9.162472952310509"><ele>786.0</ele><time>2026-05-03T11:18:54Z</time></trkpt><trkpt lat="44.52072277418792" lon="9.162422753375179"><ele>787.0</ele><time>2026-05-03T11:18:55Z</time></trkpt><trkpt lat="44.52078280060527" lon="9.162304091193949"><ele>788.0</ele><time>2026-05-03T11:18:56Z</time></trkpt><trkpt lat="44.520821399017294" lon="9.162124652683016"><ele>789.0</ele><time>2026-05-03T11:18:57Z</time></trkpt><trkpt lat="44.52083749052703" lon="9.161956793415307"><ele>789.0</ele><time>2026-05-03T11:18:58Z</time></trkpt><trkpt lat="44.52087159684677" lon="9.161832616781341"><ele>789.0</ele><time>2026-05-03T11:18:59Z</time></trkpt><trkpt lat="44.52094400705502" lon="9.16177708979214"><ele>789.0</ele><time>2026-05-03T11:19:00Z</time></trkpt><trkpt lat="44.521063758315506" lon="9.161791427944092"><ele>789.0</ele><time>2026-05-03T11:19:01Z</time></trkpt><trkpt lat="44.5211648274082" lon="9.161771207158493"><ele>789.0</ele><time>2026-05-03T11:19:02Z</time></trkpt><trkpt lat="44.5212562619161" lon="9.161730344346017"><ele>789.8000000000001</ele><time>2026-05-03T11:19:03Z</time></trkpt><trkpt lat="44.5213077354519" lon="9.161628798189415"><ele>790.6</ele><time>2026-05-03T11:19:04Z</time></trkpt><trkpt lat="44.52130346155828" lon="9.16149227992887"><ele>791.4</ele><time>2026-05-03T11:19:05Z</time></trkpt><trkpt lat="44.52125329957618" lon="9.161370748807803"><ele>792.2</ele><time>2026-05-03T11:19:06Z</time></trkpt><trkpt lat="44.521159263639085" lon="9.161290339915013"><ele>793.0</ele><time>2026-05-03T11:19:07Z</time></trkpt><trkpt lat="44.52104301248435" lon="9.161223443337885"><ele>793.0</ele><time>2026-05-03T11:19:08Z</time></trkpt><trkpt lat="44.52095033473369" lon="9.161157337457423"><ele>793.0</ele><time>2026-05-03T11:19:09Z</time></trkpt><trkpt lat="44.520866855524254" lon="9.161101681498424"><ele>793.0</ele><time>2026-05-03T11:19:10Z</time></trkpt><trkpt lat="44.520777392601666" lon="9.161045469573514"><ele>793.0</ele><time>2026-05-03T11:19:11Z</time></trkpt><trkpt lat="44.52069464580279" lon="9.160977554718295"><ele>793.0</ele><time>2026-05-03T11:19:12Z</time></trkpt><trkpt lat="44.52064115194818" lon="9.160874209096411"><ele>793.0</ele><time>2026-05-03T11:19:13Z</time></trkpt><trkpt lat="44.52059136449561" lon="9.160772460760095"><ele>793.0</ele><time>2026-05-03T11:19:14Z</time></trkpt><trkpt lat="44.52054904495044" lon="9.160658374112662"><ele>793.0</ele><time>2026-05-03T11:19:15Z</time></trkpt><trkpt lat="44.52051076190512" lon="9.160527818216542"><ele>793.0</ele><time>2026-05-03T11:19:16Z</time></trkpt><trkpt lat="44.52046370319582" lon="9.160399807920154"><ele>793.0</ele><time>2026-05-03T11:19:17Z</time></trkpt><trkpt lat="44.52046660154896" lon="9.16027854490068"><ele>792.9999999999999</ele><time>2026-05-03T11:19:18Z</time></trkpt><trkpt lat="44.52052091684815" lon="9.16018642432495"><ele>793.0</ele><time>2026-05-03T11:19:19Z</time></trkpt><trkpt lat="44.52055536794669" lon="9.160094938704507"><ele>793.0</ele><time>2026-05-03T11:19:20Z</time></trkpt><trkpt lat="44.52060155265151" lon="9.16001443774943"><ele>793.0</ele><time>2026-05-03T11:19:21Z</time></trkpt><trkpt lat="44.5206493073004" lon="9.159914610197605"><ele>792.9999999999999</ele><time>2026-05-03T11:19:22Z</time></trkpt><trkpt lat="44.520694375147364" lon="9.159801912515466"><ele>793.0</ele><time>2026-05-03T11:19:23Z</time></trkpt><trkpt lat="44.52074295377194" lon="9.159703077395585"><ele>791.5999999999999</ele><time>2026-05-03T11:19:24Z</time></trkpt><trkpt lat="44.52080057654149" lon="9.159605617158476"><ele>790.1999999999999</ele><time>2026-05-03T11:19:25Z</time></trkpt><trkpt lat="44.52083267827824" lon="9.159498423870208"><ele>788.8</ele><time>2026-05-03T11:19:26Z</time></trkpt><trkpt lat="44.52085568402271" lon="9.159375752821385"><ele>787.4</ele><time>2026-05-03T11:19:27Z</time></trkpt><trkpt lat="44.52086849544145" lon="9.15924825946374"><ele>786.0</ele><time>2026-05-03T11:19:28Z</time></trkpt><trkpt lat="44.52083305439078" lon="9.159123446451439"><ele>787.1666666666666</ele><time>2026-05-03T11:19:29Z</time></trkpt><trkpt lat="44.52079244886714" lon="9.15901904707975"><ele>788.3333333333333</ele><time>2026-05-03T11:19:30Z</time></trkpt><trkpt lat="44.52075541390583" lon="9.158911461946722"><ele>789.5</ele><time>2026-05-03T11:19:31Z</time></trkpt><trkpt lat="44.52072048647416" lon="9.158811743358845"><ele>790.6666666666666</ele><time>2026-05-03T11:19:32Z</time></trkpt><trkpt lat="44.520663706894894" lon="9.158753372917554"><ele>791.8333333333333</ele><time>2026-05-03T11:19:33Z</time></trkpt><trkpt lat="44.520600255219335" lon="9.158748339952824"><ele>793.0</ele><time>2026-05-03T11:19:34Z</time></trkpt><trkpt lat="44.52051857798835" lon="9.158795204915947"><ele>793.0000000000001</ele><time>2026-05-03T11:19:35Z</time></trkpt><trkpt lat="44.52044860276739" lon="9.15883672578021"><ele>793.0</ele><time>2026-05-03T11:19:36Z</time></trkpt><trkpt lat="44.52037940377031" lon="9.15884628041934"><ele>793.0</ele><time>2026-05-03T11:19:37Z</time></trkpt><trkpt lat="44.52031400644883" lon="9.158870845342193"><ele>793.0</ele><time>2026-05-03T11:19:38Z</time></trkpt><trkpt lat="44.52024728378048" lon="9.158889953866705"><ele>793.0</ele><time>2026-05-03T11:19:39Z</time></trkpt><trkpt lat="44.520171925179" lon="9.158921389364709"><ele>793.0000000000001</ele><time>2026-05-03T11:19:40Z</time></trkpt><trkpt lat="44.520091339508056" lon="9.158907922153764"><ele>793.0</ele><time>2026-05-03T11:19:41Z</time></trkpt><trkpt lat="44.52001013820008" lon="9.158902019911311"><ele>791.3333333333333</ele><time>2026-05-03T11:19:42Z</time></trkpt><trkpt lat="44.51992632160821" lon="9.158890412881897"><ele>789.6666666666666</ele><time>2026-05-03T11:19:43Z</time></trkpt><trkpt lat="44.51984241215126" lon="9.158879982841631"><ele>788.0</ele><time>2026-05-03T11:19:44Z</time></trkpt><trkpt lat="44.51975287926229" lon="9.15887274407765"><ele>786.3333333333333</ele><time>2026-05-03T11:19:45Z</time></trkpt><trkpt lat="44.51967043437802" lon="9.158868116637407"><ele>784.6666666666666</ele><time>2026-05-03T11:19:46Z</time></trkpt><trkpt lat="44.51959390131626" lon="9.15886418934395"><ele>783.0</ele><time>2026-05-03T11:19:47Z</time></trkpt><trkpt lat="44.51952586554317" lon="9.158860698090791"><ele>781.4</ele><time>2026-05-03T11:19:48Z</time></trkpt><trkpt lat="44.51945033088373" lon="9.158866539407835"><ele>779.8</ele><time>2026-05-03T11:19:49Z</time></trkpt><trkpt lat="44.51933629990625" lon="9.158861942108592"><ele>778.2</ele><time>2026-05-03T11:19:51Z</time></trkpt><trkpt lat="44.51922438678777" lon="9.158830732187536"><ele>776.6</ele><time>2026-05-03T11:19:53Z</time></trkpt><trkpt lat="44.51911892958854" lon="9.158825564404045"><ele>775.0</ele><time>2026-05-03T11:19:55Z</time></trkpt><trkpt lat="44.51905385825461" lon="9.15880793808559"><ele>774.9999999999999</ele><time>2026-05-03T11:19:56Z</time></trkpt><trkpt lat="44.51898843843553" lon="9.158783150488812"><ele>775.0</ele><time>2026-05-03T11:19:57Z</time></trkpt><trkpt lat="44.51892241084315" lon="9.158750210838258"><ele>775.0</ele><time>2026-05-03T11:19:58Z</time></trkpt><trkpt lat="44.51886408103733" lon="9.158694218422173"><ele>775.0</ele><time>2026-05-03T11:19:59Z</time></trkpt><trkpt lat="44.51880469500221" lon="9.158658266060153"><ele>774.9999999999999</ele><time>2026-05-03T11:20:00Z</time></trkpt><trkpt lat="44.51869564134906" lon="9.158577463427678"><ele>775.0</ele><time>2026-05-03T11:20:02Z</time></trkpt><trkpt lat="44.51859570409975" lon="9.158470240920831"><ele>773.2</ele><time>2026-05-03T11:20:04Z</time></trkpt><trkpt lat="44.518537376709375" lon="9.158408170817108"><ele>771.4</ele><time>2026-05-03T11:20:05Z</time></trkpt><trkpt lat="44.51844918265577" lon="9.158292626561467"><ele>769.5999999999999</ele><time>2026-05-03T11:20:07Z</time></trkpt><trkpt lat="44.5184027938988" lon="9.15816639017576"><ele>767.8</ele><time>2026-05-03T11:20:09Z</time></trkpt><trkpt lat="44.51839566564588" lon="9.157998857297954"><ele>766.0</ele><time>2026-05-03T11:20:11Z</time></trkpt><trkpt lat="44.518397547551075" lon="9.157886079610147"><ele>764.1999999999999</ele><time>2026-05-03T11:20:12Z</time></trkpt><trkpt lat="44.51844389492414" lon="9.157767293607233"><ele>762.4</ele><time>2026-05-03T11:20:13Z</time></trkpt><trkpt lat="44.51848010109554" lon="9.15765149537022"><ele>760.6</ele><time>2026-05-03T11:20:14Z</time></trkpt><trkpt lat="44.518532854707004" lon="9.157534650780034"><ele>758.8</ele><time>2026-05-03T11:20:15Z</time></trkpt><trkpt lat="44.518592741166366" lon="9.157411438815965"><ele>757.0</ele><time>2026-05-03T11:20:16Z</time></trkpt><trkpt lat="44.51865944850326" lon="9.15728418242658"><ele>758.2</ele><time>2026-05-03T11:20:17Z</time></trkpt><trkpt lat="44.518740888583764" lon="9.157169929530472"><ele>759.4000000000001</ele><time>2026-05-03T11:20:18Z</time></trkpt><trkpt lat="44.518844746919925" lon="9.1570904941276"><ele>760.5999999999999</ele><time>2026-05-03T11:20:19Z</time></trkpt><trkpt lat="44.51894008377905" lon="9.157011599005262"><ele>761.8</ele><time>2026-05-03T11:20:20Z</time></trkpt><trkpt lat="44.51900233663546" lon="9.156911715214047"><ele>763.0</ele><time>2026-05-03T11:20:21Z</time></trkpt><trkpt lat="44.519030994804986" lon="9.156781126574057"><ele>763.0</ele><time>2026-05-03T11:20:22Z</time></trkpt><trkpt lat="44.51902530628842" lon="9.156636041955034"><ele>763.0</ele><time>2026-05-03T11:20:23Z</time></trkpt><trkpt lat="44.518980929212724" lon="9.156469820931441"><ele>763.0</ele><time>2026-05-03T11:20:24Z</time></trkpt><trkpt lat="44.51891104227626" lon="9.156320465334591"><ele>763.0</ele><time>2026-05-03T11:20:25Z</time></trkpt><trkpt lat="44.518818985172814" lon="9.156192531735103"><ele>764.5</ele><time>2026-05-03T11:20:26Z</time></trkpt><trkpt lat="44.518728871270426" lon="9.156115201579444"><ele>766.0</ele><time>2026-05-03T11:20:27Z</time></trkpt><trkpt lat="44.51863301229824" lon="9.15607121332575"><ele>767.5</ele><time>2026-05-03T11:20:28Z</time></trkpt><trkpt lat="44.51852021682447" lon="9.15605366940734"><ele>769.0</ele><time>2026-05-03T11:20:29Z</time></trkpt><trkpt lat="44.51839501810312" lon="9.156110568669432"><ele>769.0</ele><time>2026-05-03T11:20:30Z</time></trkpt><trkpt lat="44.51827204145744" lon="9.156165844458258"><ele>769.0</ele><time>2026-05-03T11:20:31Z</time></trkpt><trkpt lat="44.518172047851735" lon="9.156225249850369"><ele>769.0</ele><time>2026-05-03T11:20:32Z</time></trkpt><trkpt lat="44.51809421283672" lon="9.156307349288872"><ele>769.0</ele><time>2026-05-03T11:20:33Z</time></trkpt><trkpt lat="44.518007937475495" lon="9.156375358290079"><ele>769.0</ele><time>2026-05-03T11:20:34Z</time></trkpt><trkpt lat="44.51791554177855" lon="9.156444486666876"><ele>767.75</ele><time>2026-05-03T11:20:35Z</time></trkpt><trkpt lat="44.517802001884135" lon="9.156519625616065"><ele>766.5</ele><time>2026-05-03T11:20:36Z</time></trkpt><trkpt lat="44.5176879791339" lon="9.156596358387382"><ele>765.25</ele><time>2026-05-03T11:20:37Z</time></trkpt><trkpt lat="44.51757040044807" lon="9.156674758116505"><ele>764.0</ele><time>2026-05-03T11:20:38Z</time></trkpt><trkpt lat="44.51743744932279" lon="9.156707578767753"><ele>764.0</ele><time>2026-05-03T11:20:39Z</time></trkpt><trkpt lat="44.5173150477618" lon="9.156698165450218"><ele>764.0</ele><time>2026-05-03T11:20:40Z</time></trkpt><trkpt lat="44.51718611953396" lon="9.156649721889622"><ele>764.0</ele><time>2026-05-03T11:20:41Z</time></trkpt><trkpt lat="44.517057063519815" lon="9.156575644675902"><ele>764.0</ele><time>2026-05-03T11:20:42Z</time></trkpt><trkpt lat="44.51694054843532" lon="9.156472633655289"><ele>764.5</ele><time>2026-05-03T11:20:43Z</time></trkpt><trkpt lat="44.51682422974655" lon="9.156354003225646"><ele>765.0</ele><time>2026-05-03T11:20:44Z</time></trkpt><trkpt lat="44.51673200139923" lon="9.15619388890557"><ele>765.5</ele><time>2026-05-03T11:20:45Z</time></trkpt><trkpt lat="44.51665358463615" lon="9.156029856505956"><ele>766.0</ele><time>2026-05-03T11:20:46Z</time></trkpt><trkpt lat="44.51656662402101" lon="9.155885450941831"><ele>766.0</ele><time>2026-05-03T11:20:47Z</time></trkpt><trkpt lat="44.51645402987598" lon="9.155815126935883"><ele>766.0</ele><time>2026-05-03T11:20:48Z</time></trkpt><trkpt lat="44.516318510757856" lon="9.155773291444602"><ele>766.0</ele><time>2026-05-03T11:20:49Z</time></trkpt><trkpt lat="44.51616656242967" lon="9.1557296221836"><ele>766.0</ele><time>2026-05-03T11:20:50Z</time></trkpt><trkpt lat="44.51602065452671" lon="9.155630709076748"><ele>766.3333333333334</ele><time>2026-05-03T11:20:51Z</time></trkpt><trkpt lat="44.515924689082745" lon="9.15546406214083"><ele>766.6666666666666</ele><time>2026-05-03T11:20:52Z</time></trkpt><trkpt lat="44.51578892231789" lon="9.155313151409315"><ele>767.0</ele><time>2026-05-03T11:20:53Z</time></trkpt><trkpt lat="44.51566765616408" lon="9.15514887513351"><ele>767.0</ele><time>2026-05-03T11:20:54Z</time></trkpt><trkpt lat="44.51555274779358" lon="9.15501443327533"><ele>767.0</ele><time>2026-05-03T11:20:55Z</time></trkpt><trkpt lat="44.515415683886914" lon="9.154881232284199"><ele>767.0</ele><time>2026-05-03T11:20:56Z</time></trkpt><trkpt lat="44.515255781209035" lon="9.154760828712677"><ele>768.3333333333333</ele><time>2026-05-03T11:20:57Z</time></trkpt><trkpt lat="44.51509443360201" lon="9.154648041774701"><ele>769.6666666666666</ele><time>2026-05-03T11:20:58Z</time></trkpt><trkpt lat="44.51492843409101" lon="9.15454024053635"><ele>771.0</ele><time>2026-05-03T11:20:59Z</time></trkpt><trkpt lat="44.51475547022062" lon="9.15442517856999"><ele>771.0</ele><time>2026-05-03T11:21:00Z</time></trkpt><trkpt lat="44.514578877885285" lon="9.154303314837644"><ele>771.0</ele><time>2026-05-03T11:21:01Z</time></trkpt><trkpt lat="44.51440370159092" lon="9.15418313662282"><ele>771.0</ele><time>2026-05-03T11:21:02Z</time></trkpt><trkpt lat="44.514235873352185" lon="9.154062359899669"><ele>777.6666666666667</ele><time>2026-05-03T11:21:03Z</time></trkpt><trkpt lat="44.514084550562345" lon="9.153957097228826"><ele>784.3333333333334</ele><time>2026-05-03T11:21:04Z</time></trkpt><trkpt lat="44.513950669864094" lon="9.153879904871273"><ele>791.0</ele><time>2026-05-03T11:21:05Z</time></trkpt><trkpt lat="44.51381399289921" lon="9.153886190629136"><ele>788.6666666666667</ele><time>2026-05-03T11:21:06Z</time></trkpt><trkpt lat="44.51367483126422" lon="9.153978229681906"><ele>786.3333333333333</ele><time>2026-05-03T11:21:07Z</time></trkpt><trkpt lat="44.513522838362434" lon="9.154059274541604"><ele>784.0</ele><time>2026-05-03T11:21:08Z</time></trkpt><trkpt lat="44.51336942987725" lon="9.154078830814312"><ele>779.75</ele><time>2026-05-03T11:21:09Z</time></trkpt><trkpt lat="44.51320384807137" lon="9.154084505058318"><ele>775.5</ele><time>2026-05-03T11:21:10Z</time></trkpt><trkpt lat="44.51305973699563" lon="9.154111467884634"><ele>771.25</ele><time>2026-05-03T11:21:11Z</time></trkpt><trkpt lat="44.51292814081996" lon="9.154121166848252"><ele>767.0</ele><time>2026-05-03T11:21:12Z</time></trkpt><trkpt lat="44.51280338937367" lon="9.154141336817517"><ele>766.25</ele><time>2026-05-03T11:21:13Z</time></trkpt><trkpt lat="44.51268387253152" lon="9.154168562000818"><ele>765.5</ele><time>2026-05-03T11:21:14Z</time></trkpt><trkpt lat="44.512574127255455" lon="9.154187523637042"><ele>764.75</ele><time>2026-05-03T11:21:15Z</time></trkpt><trkpt lat="44.51243140438841" lon="9.154210944029982"><ele>764.0</ele><time>2026-05-03T11:21:16.001Z</time></trkpt><trkpt lat="44.51228422038075" lon="9.154236598026765"><ele>764.0</ele><time>2026-05-03T11:21:17.001Z</time></trkpt><trkpt lat="44.51215269970354" lon="9.154198286033264"><ele>764.0</ele><time>2026-05-03T11:21:18.001Z</time></trkpt><trkpt lat="44.512014399818234" lon="9.154123968335949"><ele>764.0</ele><time>2026-05-03T11:21:19.001Z</time></trkpt><trkpt lat="44.511874642164095" lon="9.154001178796312"><ele>764.0</ele><time>2026-05-03T11:21:20.001Z</time></trkpt><trkpt lat="44.51171877603131" lon="9.1538732967166"><ele>762.25</ele><time>2026-05-03T11:21:21.001Z</time></trkpt><trkpt lat="44.51158914208507" lon="9.153713207186597"><ele>760.5</ele><time>2026-05-03T11:21:22.001Z</time></trkpt><trkpt lat="44.51147822838461" lon="9.153563953337565"><ele>758.75</ele><time>2026-05-03T11:21:23.001Z</time></trkpt><trkpt lat="44.51141245649323" lon="9.153451905041464"><ele>757.0</ele><time>2026-05-03T11:21:24.001Z</time></trkpt><trkpt lat="44.511368916429454" lon="9.153346491938237"><ele>757.0</ele><time>2026-05-03T11:21:25.001Z</time></trkpt><trkpt lat="44.51132398962296" lon="9.153220131739806"><ele>757.0</ele><time>2026-05-03T11:21:26.001Z</time></trkpt><trkpt lat="44.511267286652014" lon="9.153057681576149"><ele>757.0</ele><time>2026-05-03T11:21:27.001Z</time></trkpt><trkpt lat="44.511189967832976" lon="9.152893285852985"><ele>757.0</ele><time>2026-05-03T11:21:28.001Z</time></trkpt><trkpt lat="44.511077274207686" lon="9.15279094354686"><ele>756.6666666666667</ele><time>2026-05-03T11:21:29.001Z</time></trkpt><trkpt lat="44.510937792070884" lon="9.152749556868555"><ele>756.3333333333334</ele><time>2026-05-03T11:21:30.001Z</time></trkpt><trkpt lat="44.510786064677646" lon="9.152791244107714"><ele>756.0</ele><time>2026-05-03T11:21:31.001Z</time></trkpt><trkpt lat="44.51066197295151" lon="9.152919921787612"><ele>756.0</ele><time>2026-05-03T11:21:32.001Z</time></trkpt><trkpt lat="44.51051960740342" lon="9.153062077288276"><ele>756.0</ele><time>2026-05-03T11:21:33.001Z</time></trkpt><trkpt lat="44.51040877977551" lon="9.153227350328969"><ele>756.0</ele><time>2026-05-03T11:21:34.001Z</time></trkpt><trkpt lat="44.510291889187755" lon="9.153365474673297"><ele>752.0</ele><time>2026-05-03T11:21:35.001Z</time></trkpt><trkpt lat="44.51017416906064" lon="9.15348653989681"><ele>748.0</ele><time>2026-05-03T11:21:36.001Z</time></trkpt><trkpt lat="44.510053769488074" lon="9.153608619733278"><ele>744.0</ele><time>2026-05-03T11:21:37.001Z</time></trkpt><trkpt lat="44.50993685271418" lon="9.153708348028768"><ele>740.0</ele><time>2026-05-03T11:21:38.001Z</time></trkpt><trkpt lat="44.509785928979696" lon="9.153739667800103"><ele>740.0</ele><time>2026-05-03T11:21:39.001Z</time></trkpt><trkpt lat="44.50964023609052" lon="9.153758906543539"><ele>740.0</ele><time>2026-05-03T11:21:40.001Z</time></trkpt><trkpt lat="44.509477582943056" lon="9.15368958505926"><ele>740.0</ele><time>2026-05-03T11:21:41.001Z</time></trkpt><trkpt lat="44.509325305834416" lon="9.153592578262883"><ele>739.0</ele><time>2026-05-03T11:21:42.001Z</time></trkpt><trkpt lat="44.50917793319135" lon="9.153505183833746"><ele>738.0</ele><time>2026-05-03T11:21:43.001Z</time></trkpt><trkpt lat="44.50899973910943" lon="9.153431504732383"><ele>737.0</ele><time>2026-05-03T11:21:44Z</time></trkpt><trkpt lat="44.508805333199476" lon="9.153396949035239"><ele>739.3333333333333</ele><time>2026-05-03T11:21:45Z</time></trkpt><trkpt lat="44.50861885406481" lon="9.153330166100842"><ele>741.6666666666666</ele><time>2026-05-03T11:21:46Z</time></trkpt><trkpt lat="44.50843301330956" lon="9.15324090023989"><ele>744.0</ele><time>2026-05-03T11:21:47Z</time></trkpt><trkpt lat="44.50825251672406" lon="9.153114701032656"><ele>745.3333333333334</ele><time>2026-05-03T11:21:48Z</time></trkpt><trkpt lat="44.50806858201762" lon="9.15296511058103"><ele>746.6666666666667</ele><time>2026-05-03T11:21:49Z</time></trkpt><trkpt lat="44.507881296075546" lon="9.152811652511517"><ele>748.0</ele><time>2026-05-03T11:21:50Z</time></trkpt><trkpt lat="44.50769440841854" lon="9.152663624218128"><ele>743.0</ele><time>2026-05-03T11:21:51Z</time></trkpt><trkpt lat="44.507508938239575" lon="9.152529193233146"><ele>738.0</ele><time>2026-05-03T11:21:52Z</time></trkpt><trkpt lat="44.50738360584721" lon="9.15239280101719"><ele>733.0</ele><time>2026-05-03T11:21:53Z</time></trkpt><trkpt lat="44.507161791137975" lon="9.152167403849994"><ele>731.0</ele><time>2026-05-03T11:21:54Z</time></trkpt><trkpt lat="44.50698925129931" lon="9.151983291408804"><ele>729.0</ele><time>2026-05-03T11:21:55Z</time></trkpt><trkpt lat="44.50680855855537" lon="9.151836420270342"><ele>727.0</ele><time>2026-05-03T11:21:56Z</time></trkpt><trkpt lat="44.50663015632499" lon="9.151673415599568"><ele>730.6666666666667</ele><time>2026-05-03T11:21:57Z</time></trkpt><trkpt lat="44.50645617407101" lon="9.151503776867163"><ele>734.3333333333334</ele><time>2026-05-03T11:21:58Z</time></trkpt><trkpt lat="44.506293303480014" lon="9.151319143723912"><ele>738.0</ele><time>2026-05-03T11:21:59Z</time></trkpt><trkpt lat="44.506124295792596" lon="9.15113099021077"><ele>747.0</ele><time>2026-05-03T11:22:00Z</time></trkpt><trkpt lat="44.5059431410621" lon="9.150935891346695"><ele>756.0</ele><time>2026-05-03T11:22:01Z</time></trkpt><trkpt lat="44.50576922577291" lon="9.150742878913787"><ele>757.0</ele><time>2026-05-03T11:22:02Z</time></trkpt><trkpt lat="44.5055987746859" lon="9.150547958747872"><ele>758.0</ele><time>2026-05-03T11:22:03Z</time></trkpt><trkpt lat="44.50542501832635" lon="9.150353961038498"><ele>759.0</ele><time>2026-05-03T11:22:04Z</time></trkpt><trkpt lat="44.505231251329036" lon="9.150174365561591"><ele>753.3333333333334</ele><time>2026-05-03T11:22:05.061Z</time></trkpt><trkpt lat="44.505050480009004" lon="9.149997976003927"><ele>747.6666666666667</ele><time>2026-05-03T11:22:06.063Z</time></trkpt><trkpt lat="44.50486887483878" lon="9.149819826600638"><ele>742.0</ele><time>2026-05-03T11:22:07.062Z</time></trkpt><trkpt lat="44.50468927619452" lon="9.14964364520986"><ele>732.0</ele><time>2026-05-03T11:22:08.054Z</time></trkpt><trkpt lat="44.50451164120449" lon="9.149468099165489"><ele>722.0</ele><time>2026-05-03T11:22:09.056Z</time></trkpt><trkpt lat="44.5043840926582" lon="9.14947262239239"><ele>712.0</ele><time>2026-05-03T11:22:10Z</time></trkpt><trkpt lat="44.50418825272259" lon="9.1492613935037"><ele>712.0</ele><time>2026-05-03T11:22:11Z</time></trkpt><trkpt lat="44.50403044570642" lon="9.149077731879364"><ele>712.0</ele><time>2026-05-03T11:22:12Z</time></trkpt><trkpt lat="44.50389248354241" lon="9.148870200873397"><ele>712.0</ele><time>2026-05-03T11:22:13Z</time></trkpt><trkpt lat="44.503745218649286" lon="9.148656567120527"><ele>713.0</ele><time>2026-05-03T11:22:14Z</time></trkpt><trkpt lat="44.50360849336306" lon="9.148432531213482"><ele>714.0</ele><time>2026-05-03T11:22:15Z</time></trkpt><trkpt lat="44.50347548438957" lon="9.148190414764771"><ele>715.0</ele><time>2026-05-03T11:22:16Z</time></trkpt><trkpt lat="44.50333378315442" lon="9.147953660636247"><ele>715.0</ele><time>2026-05-03T11:22:17Z</time></trkpt><trkpt lat="44.50322220786754" lon="9.14769301568176"><ele>715.0</ele><time>2026-05-03T11:22:18Z</time></trkpt><trkpt lat="44.503107684609255" lon="9.147439157178216"><ele>715.0</ele><time>2026-05-03T11:22:19Z</time></trkpt><trkpt lat="44.50301246289331" lon="9.14716664940382"><ele>716.6666666666667</ele><time>2026-05-03T11:22:20Z</time></trkpt><trkpt lat="44.502938112459304" lon="9.146879888211306"><ele>718.3333333333334</ele><time>2026-05-03T11:22:21Z</time></trkpt><trkpt lat="44.50285635548192" lon="9.146595774212887"><ele>720.0</ele><time>2026-05-03T11:22:22Z</time></trkpt><trkpt lat="44.5027793921838" lon="9.146317584506212"><ele>718.0</ele><time>2026-05-03T11:22:23Z</time></trkpt><trkpt lat="44.50270530759656" lon="9.146036666780617"><ele>716.0</ele><time>2026-05-03T11:22:24Z</time></trkpt><trkpt lat="44.50263177507968" lon="9.145752701349192"><ele>714.0</ele><time>2026-05-03T11:22:25Z</time></trkpt><trkpt lat="44.5025565589412" lon="9.145462783647059"><ele>714.0</ele><time>2026-05-03T11:22:26Z</time></trkpt><trkpt lat="44.50246944831939" lon="9.145179957128814"><ele>714.0</ele><time>2026-05-03T11:22:27Z</time></trkpt><trkpt lat="44.50240130873697" lon="9.144898339704211"><ele>714.0</ele><time>2026-05-03T11:22:28Z</time></trkpt><trkpt lat="44.50233164326129" lon="9.144619023053636"><ele>717.6666666666666</ele><time>2026-05-03T11:22:29Z</time></trkpt><trkpt lat="44.50226570482733" lon="9.144351591508075"><ele>721.3333333333333</ele><time>2026-05-03T11:22:30Z</time></trkpt><trkpt lat="44.50220013738609" lon="9.144080511973776"><ele>725.0</ele><time>2026-05-03T11:22:31Z</time></trkpt><trkpt lat="44.50213330546542" lon="9.143815003396455"><ele>729.0</ele><time>2026-05-03T11:22:32Z</time></trkpt><trkpt lat="44.502065430688525" lon="9.143543920588721"><ele>733.0</ele><time>2026-05-03T11:22:33Z</time></trkpt><trkpt lat="44.50199873425059" lon="9.143276388689847"><ele>737.0</ele><time>2026-05-03T11:22:34Z</time></trkpt><trkpt lat="44.50193435797239" lon="9.143010105464365"><ele>737.3333333333333</ele><time>2026-05-03T11:22:35Z</time></trkpt><trkpt lat="44.50186250238016" lon="9.142727970908284"><ele>737.6666666666666</ele><time>2026-05-03T11:22:36.074Z</time></trkpt><trkpt lat="44.501798917750136" lon="9.142474105673031"><ele>738.0</ele><time>2026-05-03T11:22:37.057Z</time></trkpt><trkpt lat="44.501728812153516" lon="9.142216386530988"><ele>738.0</ele><time>2026-05-03T11:22:38.054Z</time></trkpt><trkpt lat="44.501659635725126" lon="9.141956171968872"><ele>738.0</ele><time>2026-05-03T11:22:39.038Z</time></trkpt><trkpt lat="44.50159081323315" lon="9.141688189311829"><ele>738.0</ele><time>2026-05-03T11:22:40.033Z</time></trkpt><trkpt lat="44.501521349748195" lon="9.141420606568943"><ele>732.0</ele><time>2026-05-03T11:22:41.032Z</time></trkpt><trkpt lat="44.50145274512403" lon="9.14115443200716"><ele>726.0</ele><time>2026-05-03T11:22:42.033Z</time></trkpt><trkpt lat="44.5002543731078" lon="9.139151866956086"><ele>709.3333333333334</ele><time>2026-05-03T11:22:49Z</time></trkpt><trkpt lat="44.500122840493034" lon="9.13891226131755"><ele>692.6666666666667</ele><time>2026-05-03T11:22:50Z</time></trkpt><trkpt lat="44.50000530170238" lon="9.138656418782222"><ele>676.0</ele><time>2026-05-03T11:22:51Z</time></trkpt><trkpt lat="44.49990501807462" lon="9.138475265711875"><ele>676.0</ele><time>2026-05-03T11:22:52Z</time></trkpt><trkpt lat="44.49976281248144" lon="9.138240241922382"><ele>676.0</ele><time>2026-05-03T11:22:53Z</time></trkpt><trkpt lat="44.49963961444641" lon="9.138031344122105"><ele>676.0</ele><time>2026-05-03T11:22:54Z</time></trkpt><trkpt lat="44.499516532178234" lon="9.137844023937317"><ele>675.3333333333334</ele><time>2026-05-03T11:22:55Z</time></trkpt><trkpt lat="44.499370434449595" lon="9.137622591417008"><ele>674.6666666666666</ele><time>2026-05-03T11:22:56Z</time></trkpt><trkpt lat="44.49922856025086" lon="9.137402651208944"><ele>674.0</ele><time>2026-05-03T11:22:57Z</time></trkpt><trkpt lat="44.4990746056215" lon="9.137181368765429"><ele>670.0</ele><time>2026-05-03T11:22:58Z</time></trkpt><trkpt lat="44.49892465944129" lon="9.13696501870117"><ele>666.0</ele><time>2026-05-03T11:22:59Z</time></trkpt><trkpt lat="44.49877234647615" lon="9.136761789837442"><ele>662.0</ele><time>2026-05-03T11:23:00Z</time></trkpt><trkpt lat="44.498614984824684" lon="9.136550789165709"><ele>660.0</ele><time>2026-05-03T11:23:01Z</time></trkpt><trkpt lat="44.49845453203358" lon="9.13634197828471"><ele>658.0</ele><time>2026-05-03T11:23:02Z</time></trkpt><trkpt lat="44.49828868941313" lon="9.136130487598118"><ele>656.0</ele><time>2026-05-03T11:23:03Z</time></trkpt><trkpt lat="44.498120344759904" lon="9.135921660083627"><ele>654.0</ele><time>2026-05-03T11:23:04Z</time></trkpt><trkpt lat="44.49795370428116" lon="9.135704435672311"><ele>652.0</ele><time>2026-05-03T11:23:05Z</time></trkpt><trkpt lat="44.49779075935045" lon="9.135494821585194"><ele>650.0</ele><time>2026-05-03T11:23:06Z</time></trkpt><trkpt lat="44.497626597177636" lon="9.135278666757257"><ele>649.6666666666666</ele><time>2026-05-03T11:23:07Z</time></trkpt><trkpt lat="44.4974590507161" lon="9.13506851474257"><ele>649.3333333333334</ele><time>2026-05-03T11:23:08Z</time></trkpt><trkpt lat="44.4972877326545" lon="9.134866366872306"><ele>649.0</ele><time>2026-05-03T11:23:09Z</time></trkpt><trkpt lat="44.497114719050664" lon="9.134656455055708"><ele>649.0</ele><time>2026-05-03T11:23:10Z</time></trkpt><trkpt lat="44.49693511598596" lon="9.134432134565419"><ele>649.0</ele><time>2026-05-03T11:23:11Z</time></trkpt><trkpt lat="44.4967617090043" lon="9.134226067637528"><ele>648.0</ele><time>2026-05-03T11:23:12Z</time></trkpt><trkpt lat="44.49657520884729" lon="9.134042050904018"><ele>647.0</ele><time>2026-05-03T11:23:13Z</time></trkpt><trkpt lat="44.4963759169811" lon="9.13387044105848"><ele>652.5</ele><time>2026-05-03T11:23:14Z</time></trkpt><trkpt lat="44.49618449397521" lon="9.133714217079163"><ele>658.0</ele><time>2026-05-03T11:23:15Z</time></trkpt><trkpt lat="44.495986405480735" lon="9.133549672726224"><ele>658.0</ele><time>2026-05-03T11:23:16Z</time></trkpt><trkpt lat="44.495786775212615" lon="9.133400226382992"><ele>658.0</ele><time>2026-05-03T11:23:17Z</time></trkpt><trkpt lat="44.4955873683897" lon="9.133243213676893"><ele>658.5</ele><time>2026-05-03T11:23:18Z</time></trkpt><trkpt lat="44.49537029258545" lon="9.133077881401407"><ele>659.0</ele><time>2026-05-03T11:23:19.065Z</time></trkpt><trkpt lat="44.495166754141515" lon="9.132936941735597"><ele>659.0</ele><time>2026-05-03T11:23:20.066Z</time></trkpt><trkpt lat="44.49495949273512" lon="9.132791331734019"><ele>659.0</ele><time>2026-05-03T11:23:21.064Z</time></trkpt><trkpt lat="44.49475912424514" lon="9.132646270187442"><ele>625.0</ele><time>2026-05-03T11:23:22.061Z</time></trkpt><trkpt lat="44.4938216018009" lon="9.131438577646085"><ele>622.75</ele><time>2026-05-03T11:23:28Z</time></trkpt><trkpt lat="44.49366258993265" lon="9.13128646740089"><ele>620.5</ele><time>2026-05-03T11:23:29Z</time></trkpt><trkpt lat="44.49355850863169" lon="9.131274632108745"><ele>618.25</ele><time>2026-05-03T11:23:30Z</time></trkpt><trkpt lat="44.49344518282863" lon="9.131153858162362"><ele>616.0</ele><time>2026-05-03T11:23:31.001Z</time></trkpt><trkpt lat="44.49333689096982" lon="9.130986924379412"><ele>616.0</ele><time>2026-05-03T11:23:32.001Z</time></trkpt><trkpt lat="44.4932714183432" lon="9.130833941251533"><ele>616.0</ele><time>2026-05-03T11:23:33.001Z</time></trkpt><trkpt lat="44.49321426954369" lon="9.130635355995405"><ele>616.0</ele><time>2026-05-03T11:23:34.001Z</time></trkpt><trkpt lat="44.493167324041586" lon="9.130408156860616"><ele>616.0</ele><time>2026-05-03T11:23:35.001Z</time></trkpt><trkpt lat="44.4931046319829" lon="9.130180071135348"><ele>612.25</ele><time>2026-05-03T11:23:36.001Z</time></trkpt><trkpt lat="44.49302670851907" lon="9.129996424241696"><ele>608.5</ele><time>2026-05-03T11:23:37.001Z</time></trkpt><trkpt lat="44.49294532293577" lon="9.12992335757512"><ele>604.75</ele><time>2026-05-03T11:23:38.001Z</time></trkpt><trkpt lat="44.492822898039066" lon="9.129845275471903"><ele>601.0</ele><time>2026-05-03T11:23:39.001Z</time></trkpt><trkpt lat="44.49269006338947" lon="9.129854140294151"><ele>598.6</ele><time>2026-05-03T11:23:40.001Z</time></trkpt><trkpt lat="44.49258647738706" lon="9.129925005012776"><ele>596.2</ele><time>2026-05-03T11:23:41.001Z</time></trkpt><trkpt lat="44.492508138852685" lon="9.130028500438284"><ele>593.8</ele><time>2026-05-03T11:23:42.001Z</time></trkpt><trkpt lat="44.49246417418547" lon="9.130162299075"><ele>591.4</ele><time>2026-05-03T11:23:43.001Z</time></trkpt><trkpt lat="44.49246935870242" lon="9.130310603296662"><ele>589.0</ele><time>2026-05-03T11:23:44.001Z</time></trkpt><trkpt lat="44.492497981448594" lon="9.130438166822723"><ele>589.0</ele><time>2026-05-03T11:23:45.001Z</time></trkpt><trkpt lat="44.492533741161246" lon="9.130531898931215"><ele>589.0</ele><time>2026-05-03T11:23:46.001Z</time></trkpt><trkpt lat="44.492585388689676" lon="9.13058734431203"><ele>589.0</ele><time>2026-05-03T11:23:47.001Z</time></trkpt><trkpt lat="44.492648266264496" lon="9.130602291691869"><ele>589.0</ele><time>2026-05-03T11:23:49.001Z</time></trkpt><trkpt lat="44.4927542748361" lon="9.130677893212512"><ele>589.0</ele><time>2026-05-03T11:23:51.001Z</time></trkpt><trkpt lat="44.49290678876309" lon="9.13067912685867"><ele>592.0</ele><time>2026-05-03T11:23:52.001Z</time></trkpt><trkpt lat="44.493018539864735" lon="9.130641243095116"><ele>595.0</ele><time>2026-05-03T11:23:53.001Z</time></trkpt><trkpt lat="44.49313694615673" lon="9.130629039865378"><ele>598.0</ele><time>2026-05-03T11:23:54.001Z</time></trkpt><trkpt lat="44.493281112412674" lon="9.130622601870417"><ele>601.0</ele><time>2026-05-03T11:23:55.001Z</time></trkpt><trkpt lat="44.49342080532485" lon="9.130615862895153"><ele>601.0</ele><time>2026-05-03T11:23:56.001Z</time></trkpt><trkpt lat="44.493587087553585" lon="9.130566558656657"><ele>601.0</ele><time>2026-05-03T11:23:57.001Z</time></trkpt><trkpt lat="44.493723959566545" lon="9.130501756879932"><ele>601.0</ele><time>2026-05-03T11:23:58.001Z</time></trkpt><trkpt lat="44.49384172639582" lon="9.130420735942407"><ele>601.0</ele><time>2026-05-03T11:23:59.001Z</time></trkpt><trkpt lat="44.493953664088984" lon="9.130327192510256"><ele>603.8</ele><time>2026-05-03T11:24:00.001Z</time></trkpt><trkpt lat="44.49405178586585" lon="9.13022639345997"><ele>606.6</ele><time>2026-05-03T11:24:01.001Z</time></trkpt><trkpt lat="44.494151672541314" lon="9.130150337965722"><ele>609.4</ele><time>2026-05-03T11:24:02.001Z</time></trkpt><trkpt lat="44.49421756408141" lon="9.130068268220787"><ele>612.2</ele><time>2026-05-03T11:24:03.001Z</time></trkpt><trkpt lat="44.49427604198609" lon="9.130029428235757"><ele>615.0</ele><time>2026-05-03T11:24:05.001Z</time></trkpt><trkpt lat="44.49438803456918" lon="9.130264976922374"><ele>615.0</ele><time>2026-05-03T11:24:06.001Z</time></trkpt><trkpt lat="44.49437905322103" lon="9.13041472531017"><ele>615.0</ele><time>2026-05-03T11:24:07.001Z</time></trkpt><trkpt lat="44.494351885664194" lon="9.130546369196411"><ele>615.0</ele><time>2026-05-03T11:24:08.001Z</time></trkpt><trkpt lat="44.49432088437833" lon="9.13069923558173"><ele>615.0</ele><time>2026-05-03T11:24:09.001Z</time></trkpt><trkpt lat="44.49428606093347" lon="9.130845433388604"><ele>615.0</ele><time>2026-05-03T11:24:10.001Z</time></trkpt><trkpt lat="44.49424266996387" lon="9.131003904652438"><ele>616.6666666666666</ele><time>2026-05-03T11:24:11.001Z</time></trkpt><trkpt lat="44.494205898027445" lon="9.131110311482187"><ele>618.3333333333334</ele><time>2026-05-03T11:24:12.001Z</time></trkpt><trkpt lat="44.4941601134185" lon="9.131201508316536"><ele>620.0</ele><time>2026-05-03T11:24:13.001Z</time></trkpt><trkpt lat="44.4941009745313" lon="9.131267808882038"><ele>621.6666666666667</ele><time>2026-05-03T11:24:14Z</time></trkpt><trkpt lat="44.49400035604576" lon="9.13130871002357"><ele>623.3333333333334</ele><time>2026-05-03T11:24:15Z</time></trkpt><trkpt lat="44.493929185152695" lon="9.131262442788804"><ele>625.0</ele><time>2026-05-03T11:24:16Z</time></trkpt><trkpt lat="44.49387918991437" lon="9.13118174686126"><ele>625.0</ele><time>2026-05-03T11:24:17Z</time></trkpt><trkpt lat="44.493789436472596" lon="9.131101677786583"><ele>625.0</ele><time>2026-05-03T11:24:18Z</time></trkpt><trkpt lat="44.493705020119265" lon="9.1310314850915"><ele>625.0</ele><time>2026-05-03T11:24:19Z</time></trkpt><trkpt lat="44.49362557494318" lon="9.131009148791867"><ele>625.0</ele><time>2026-05-03T11:24:20Z</time></trkpt><trkpt lat="44.49356033071837" lon="9.13099990948219"><ele>625.0</ele><time>2026-05-03T11:24:23Z</time></trkpt><trkpt lat="44.49360269616615" lon="9.131236715192918"><ele>625.0</ele><time>2026-05-03T11:24:25Z</time></trkpt><trkpt lat="44.49368423505242" lon="9.13130923730887"><ele>625.0</ele><time>2026-05-03T11:24:26Z</time></trkpt><trkpt lat="44.49376028612275" lon="9.131366033298619"><ele>625.0</ele><time>2026-05-03T11:24:27Z</time></trkpt><trkpt lat="44.49384277969262" lon="9.13145207093325"><ele>625.0</ele><time>2026-05-03T11:24:28Z</time></trkpt><trkpt lat="44.493929190845705" lon="9.131546607564358"><ele>625.0</ele><time>2026-05-03T11:24:29Z</time></trkpt><trkpt lat="44.49401004880183" lon="9.13161625529744"><ele>625.0</ele><time>2026-05-03T11:24:30Z</time></trkpt><trkpt lat="44.494105794918774" lon="9.13167280469207"><ele>625.0</ele><time>2026-05-03T11:24:31Z</time></trkpt><trkpt lat="44.494216197500506" lon="9.131671768516638"><ele>625.0</ele><time>2026-05-03T11:24:32Z</time></trkpt><trkpt lat="44.49430339832018" lon="9.131565287530636"><ele>625.0</ele><time>2026-05-03T11:24:33Z</time></trkpt><trkpt lat="44.49438330197372" lon="9.13144493812457"><ele>625.0</ele><time>2026-05-03T11:24:34Z</time></trkpt><trkpt lat="44.49441992103727" lon="9.13125078996583"><ele>625.0</ele><time>2026-05-03T11:24:35Z</time></trkpt><trkpt lat="44.49442314796492" lon="9.131006070078968"><ele>625.0</ele><time>2026-05-03T11:24:36Z</time></trkpt><trkpt lat="44.49447177174387" lon="9.130824076383027"><ele>625.0</ele><time>2026-05-03T11:24:37Z</time></trkpt><trkpt lat="44.49450572719177" lon="9.130649209140866"><ele>625.0</ele><time>2026-05-03T11:24:38Z</time></trkpt><trkpt lat="44.494540426260016" lon="9.130434558335603"><ele>622.5</ele><time>2026-05-03T11:24:39Z</time></trkpt><trkpt lat="44.49458138961017" lon="9.130224533944538"><ele>620.0</ele><time>2026-05-03T11:24:40Z</time></trkpt><trkpt lat="44.49464342977405" lon="9.130060742236429"><ele>617.5</ele><time>2026-05-03T11:24:41Z</time></trkpt><trkpt lat="44.494695599707875" lon="9.129937155016355"><ele>615.0</ele><time>2026-05-03T11:24:42Z</time></trkpt><trkpt lat="44.494792683246" lon="9.129895658920105"><ele>617.3333333333334</ele><time>2026-05-03T11:24:43Z</time></trkpt><trkpt lat="44.49494577000194" lon="9.129937862224853"><ele>619.6666666666667</ele><time>2026-05-03T11:24:44Z</time></trkpt><trkpt lat="44.49506828943126" lon="9.129828907997611"><ele>622.0</ele><time>2026-05-03T11:24:45Z</time></trkpt><trkpt lat="44.49520866113371" lon="9.130174471279487"><ele>625.5</ele><time>2026-05-03T11:24:46Z</time></trkpt><trkpt lat="44.49533174241275" lon="9.130175104174919"><ele>629.0</ele><time>2026-05-03T11:24:47Z</time></trkpt><trkpt lat="44.49544188559445" lon="9.130069942196508"><ele>632.5</ele><time>2026-05-03T11:24:48Z</time></trkpt><trkpt lat="44.49550288576831" lon="9.129909060568115"><ele>636.0</ele><time>2026-05-03T11:24:49Z</time></trkpt><trkpt lat="44.49562252091706" lon="9.129818925103335"><ele>636.0</ele><time>2026-05-03T11:24:50Z</time></trkpt><trkpt lat="44.49573624920919" lon="9.129734569044418"><ele>636.0</ele><time>2026-05-03T11:24:51Z</time></trkpt><trkpt lat="44.4958528406136" lon="9.129667640679072"><ele>636.0</ele><time>2026-05-03T11:24:52Z</time></trkpt><trkpt lat="44.49596515930128" lon="9.129645302382876"><ele>636.0</ele><time>2026-05-03T11:24:53Z</time></trkpt><trkpt lat="44.49605073433672" lon="9.12968639417164"><ele>636.0</ele><time>2026-05-03T11:24:54Z</time></trkpt><trkpt lat="44.49613017892314" lon="9.129838729067371"><ele>636.0</ele><time>2026-05-03T11:24:55Z</time></trkpt><trkpt lat="44.496208230879326" lon="9.130006268475402"><ele>636.0</ele><time>2026-05-03T11:24:56Z</time></trkpt><trkpt lat="44.4962157654127" lon="9.13019144065744"><ele>636.0</ele><time>2026-05-03T11:24:57Z</time></trkpt><trkpt lat="44.496163862683666" lon="9.13031757168834"><ele>638.6</ele><time>2026-05-03T11:24:58Z</time></trkpt><trkpt lat="44.49609926069143" lon="9.13035915625718"><ele>641.2</ele><time>2026-05-03T11:24:59Z</time></trkpt><trkpt lat="44.49601615294068" lon="9.130397737844007"><ele>643.8000000000001</ele><time>2026-05-03T11:25:00Z</time></trkpt><trkpt lat="44.49593165388222" lon="9.130498554250337"><ele>646.4000000000001</ele><time>2026-05-03T11:25:01Z</time></trkpt><trkpt lat="44.4958756558549" lon="9.130706657561209"><ele>649.0</ele><time>2026-05-03T11:25:02Z</time></trkpt><trkpt lat="44.49586899034037" lon="9.130908218167487"><ele>650.0</ele><time>2026-05-03T11:25:03Z</time></trkpt><trkpt lat="44.4958577504969" lon="9.13110566657459"><ele>651.0</ele><time>2026-05-03T11:25:04Z</time></trkpt><trkpt lat="44.49583415115463" lon="9.131318100562211"><ele>652.0</ele><time>2026-05-03T11:25:05Z</time></trkpt><trkpt lat="44.49581146705335" lon="9.131530666403686"><ele>653.0</ele><time>2026-05-03T11:25:06Z</time></trkpt><trkpt lat="44.49580011336616" lon="9.131702188218027"><ele>654.0</ele><time>2026-05-03T11:25:07Z</time></trkpt><trkpt lat="44.495839930714446" lon="9.131869697883033"><ele>655.0</ele><time>2026-05-03T11:25:08Z</time></trkpt><trkpt lat="44.495947783741975" lon="9.131915717935817"><ele>656.0</ele><time>2026-05-03T11:25:09Z</time></trkpt><trkpt lat="44.49605872799337" lon="9.131906159096514"><ele>657.0</ele><time>2026-05-03T11:25:10Z</time></trkpt><trkpt lat="44.49617398841638" lon="9.13194880103141"><ele>657.0</ele><time>2026-05-03T11:25:11Z</time></trkpt><trkpt lat="44.49626087654245" lon="9.132044508145375"><ele>657.0</ele><time>2026-05-03T11:25:12Z</time></trkpt><trkpt lat="44.49627154980453" lon="9.132198566058099"><ele>657.0</ele><time>2026-05-03T11:25:13Z</time></trkpt><trkpt lat="44.496198623932266" lon="9.132292645351026"><ele>657.0</ele><time>2026-05-03T11:25:14Z</time></trkpt><trkpt lat="44.49610562064385" lon="9.132374041675495"><ele>657.0</ele><time>2026-05-03T11:25:15Z</time></trkpt><trkpt lat="44.496007766442794" lon="9.132466968958177"><ele>657.6666666666666</ele><time>2026-05-03T11:25:16Z</time></trkpt><trkpt lat="44.49589033805711" lon="9.132608857757718"><ele>658.3333333333333</ele><time>2026-05-03T11:25:17Z</time></trkpt><trkpt lat="44.495757525142125" lon="9.132760091120968"><ele>659.0</ele><time>2026-05-03T11:25:18Z</time></trkpt><trkpt lat="44.495649434089316" lon="9.132905453544037"><ele>659.0</ele><time>2026-05-03T11:25:19Z</time></trkpt><trkpt lat="44.49554179860577" lon="9.133042537522325"><ele>659.0</ele><time>2026-05-03T11:25:20Z</time></trkpt><trkpt lat="44.49542095257365" lon="9.133197402803704"><ele>659.0</ele><time>2026-05-03T11:25:21Z</time></trkpt><trkpt lat="44.4952856847688" lon="9.13331703909604"><ele>661.0</ele><time>2026-05-03T11:25:22Z</time></trkpt><trkpt lat="44.49517130497474" lon="9.133415396466239"><ele>663.0</ele><time>2026-05-03T11:25:23Z</time></trkpt><trkpt lat="44.495048723007244" lon="9.133483362394408"><ele>665.0</ele><time>2026-05-03T11:25:24Z</time></trkpt><trkpt lat="44.49492227403792" lon="9.133501028738188"><ele>667.0</ele><time>2026-05-03T11:25:25Z</time></trkpt><trkpt lat="44.49479276483632" lon="9.13348619062873"><ele>667.0</ele><time>2026-05-03T11:25:26Z</time></trkpt><trkpt lat="44.49464708603405" lon="9.133393995925022"><ele>667.0</ele><time>2026-05-03T11:25:27Z</time></trkpt><trkpt lat="44.49450135459307" lon="9.133313468398368"><ele>667.0</ele><time>2026-05-03T11:25:28Z</time></trkpt><trkpt lat="44.494374429839695" lon="9.133322702614375"><ele>667.0</ele><time>2026-05-03T11:25:29Z</time></trkpt><trkpt lat="44.49427343095476" lon="9.133412961358985"><ele>664.5</ele><time>2026-05-03T11:25:30Z</time></trkpt><trkpt lat="44.49425792043138" lon="9.133566094406403"><ele>662.0</ele><time>2026-05-03T11:25:31Z</time></trkpt><trkpt lat="44.49429928680684" lon="9.133711948657423"><ele>659.5</ele><time>2026-05-03T11:25:32Z</time></trkpt><trkpt lat="44.4943207908739" lon="9.133896524814448"><ele>657.0</ele><time>2026-05-03T11:25:33Z</time></trkpt><trkpt lat="44.494334987603686" lon="9.134090334907357"><ele>657.0</ele><time>2026-05-03T11:25:34Z</time></trkpt><trkpt lat="44.49441241532103" lon="9.134282471133117"><ele>657.0</ele><time>2026-05-03T11:25:35Z</time></trkpt><trkpt lat="44.49450812157926" lon="9.134395693870056"><ele>657.0</ele><time>2026-05-03T11:25:36Z</time></trkpt><trkpt lat="44.49463063006978" lon="9.134467489527587"><ele>657.0</ele><time>2026-05-03T11:25:37Z</time></trkpt><trkpt lat="44.494783727746" lon="9.134546160643701"><ele>663.0</ele><time>2026-05-03T11:25:38Z</time></trkpt><trkpt lat="44.49494102761757" lon="9.134619728375403"><ele>669.0</ele><time>2026-05-03T11:25:39Z</time></trkpt><trkpt lat="44.49509512781783" lon="9.134726605686316"><ele>675.0</ele><time>2026-05-03T11:25:40Z</time></trkpt><trkpt lat="44.49522636441451" lon="9.13484340600092"><ele>674.75</ele><time>2026-05-03T11:25:41Z</time></trkpt><trkpt lat="44.49532896621111" lon="9.134982421249891"><ele>674.5</ele><time>2026-05-03T11:25:42Z</time></trkpt><trkpt lat="44.49537385767793" lon="9.135163677496685"><ele>674.25</ele><time>2026-05-03T11:25:43Z</time></trkpt><trkpt lat="44.495409578167454" lon="9.13536753490994"><ele>674.0</ele><time>2026-05-03T11:25:44Z</time></trkpt><trkpt lat="44.495456078993165" lon="9.1355841292049"><ele>674.6666666666666</ele><time>2026-05-03T11:25:45Z</time></trkpt><trkpt lat="44.49550861418066" lon="9.135833323373225"><ele>675.3333333333334</ele><time>2026-05-03T11:25:46Z</time></trkpt><trkpt lat="44.49561901268961" lon="9.13602898439664"><ele>676.0</ele><time>2026-05-03T11:25:47Z</time></trkpt><trkpt lat="44.49573315439977" lon="9.136200408897539"><ele>676.0</ele><time>2026-05-03T11:25:48Z</time></trkpt><trkpt lat="44.495849551620005" lon="9.136389354893357"><ele>676.0</ele><time>2026-05-03T11:25:49Z</time></trkpt><trkpt lat="44.495917181483705" lon="9.136603191348412"><ele>676.0</ele><time>2026-05-03T11:25:50Z</time></trkpt><trkpt lat="44.495979491181345" lon="9.136837091234076"><ele>680.6666666666667</ele><time>2026-05-03T11:25:51Z</time></trkpt><trkpt lat="44.49604002506654" lon="9.137092248218979"><ele>685.3333333333334</ele><time>2026-05-03T11:25:52Z</time></trkpt><trkpt lat="44.49610393355449" lon="9.1373336814168"><ele>690.0</ele><time>2026-05-03T11:25:53Z</time></trkpt><trkpt lat="44.49617486611223" lon="9.13758037708185"><ele>689.6666666666666</ele><time>2026-05-03T11:25:54Z</time></trkpt><trkpt lat="44.49627785223845" lon="9.13774759273824"><ele>689.3333333333333</ele><time>2026-05-03T11:25:55Z</time></trkpt><trkpt lat="44.49640218017453" lon="9.137880959712117"><ele>689.0</ele><time>2026-05-03T11:25:56Z</time></trkpt><trkpt lat="44.4965637571308" lon="9.137939831248334"><ele>689.0</ele><time>2026-05-03T11:25:57Z</time></trkpt><trkpt lat="44.496728278905685" lon="9.138029917464415"><ele>689.0</ele><time>2026-05-03T11:25:58Z</time></trkpt><trkpt lat="44.49690149317196" lon="9.13809767987409"><ele>689.0</ele><time>2026-05-03T11:25:59Z</time></trkpt><trkpt lat="44.49703209749591" lon="9.138211313425277"><ele>690.6666666666666</ele><time>2026-05-03T11:26:00Z</time></trkpt><trkpt lat="44.497151689248405" lon="9.138381562341685"><ele>692.3333333333334</ele><time>2026-05-03T11:26:01Z</time></trkpt><trkpt lat="44.49728850120077" lon="9.138552711181804"><ele>694.0</ele><time>2026-05-03T11:26:02Z</time></trkpt><trkpt lat="44.49741702235618" lon="9.138670792480161"><ele>694.0</ele><time>2026-05-03T11:26:03Z</time></trkpt><trkpt lat="44.49761076632415" lon="9.138788550097505"><ele>694.0</ele><time>2026-05-03T11:26:04Z</time></trkpt><trkpt lat="44.49777283112121" lon="9.138916055847105"><ele>694.0</ele><time>2026-05-03T11:26:05Z</time></trkpt><trkpt lat="44.497928850151204" lon="9.139041404170907"><ele>697.3333333333334</ele><time>2026-05-03T11:26:06Z</time></trkpt><trkpt lat="44.49810964865062" lon="9.1391524229602"><ele>700.6666666666666</ele><time>2026-05-03T11:26:07Z</time></trkpt><trkpt lat="44.49826125721699" lon="9.139177263143313"><ele>704.0</ele><time>2026-05-03T11:26:08Z</time></trkpt><trkpt lat="44.4983981969436" lon="9.139253034816164"><ele>704.0</ele><time>2026-05-03T11:26:09Z</time></trkpt><trkpt lat="44.49851477267648" lon="9.139388709022302"><ele>704.0</ele><time>2026-05-03T11:26:10Z</time></trkpt><trkpt lat="44.498622689422405" lon="9.139528208782982"><ele>704.0</ele><time>2026-05-03T11:26:11Z</time></trkpt><trkpt lat="44.4987297495923" lon="9.139640256344912"><ele>704.0</ele><time>2026-05-03T11:26:12Z</time></trkpt><trkpt lat="44.498815737613725" lon="9.139778874899076"><ele>705.0</ele><time>2026-05-03T11:26:13Z</time></trkpt><trkpt lat="44.49893195339507" lon="9.139929338096675"><ele>706.0</ele><time>2026-05-03T11:26:14Z</time></trkpt><trkpt lat="44.499047215985065" lon="9.140073771156372"><ele>707.0</ele><time>2026-05-03T11:26:15Z</time></trkpt><trkpt lat="44.49913558767433" lon="9.14026442388267"><ele>707.0</ele><time>2026-05-03T11:26:16Z</time></trkpt><trkpt lat="44.49923163176207" lon="9.140472229251815"><ele>707.0</ele><time>2026-05-03T11:26:17Z</time></trkpt><trkpt lat="44.49933304330673" lon="9.140677299990498"><ele>707.0</ele><time>2026-05-03T11:26:18Z</time></trkpt><trkpt lat="44.49944785935398" lon="9.140871014572364"><ele>707.6666666666666</ele><time>2026-05-03T11:26:19Z</time></trkpt><trkpt lat="44.49952251982857" lon="9.141085427949603"><ele>708.3333333333334</ele><time>2026-05-03T11:26:20Z</time></trkpt><trkpt lat="44.49959541796169" lon="9.1412788661376"><ele>709.0</ele><time>2026-05-03T11:26:21Z</time></trkpt><trkpt lat="44.49960591257605" lon="9.141463283688676"><ele>712.3333333333334</ele><time>2026-05-03T11:26:22Z</time></trkpt><trkpt lat="44.49964824080847" lon="9.141668251640805"><ele>715.6666666666666</ele><time>2026-05-03T11:26:23Z</time></trkpt><trkpt lat="44.49969401702824" lon="9.141880972897395"><ele>719.0</ele><time>2026-05-03T11:26:24Z</time></trkpt><trkpt lat="44.49982678130979" lon="9.142035391492472"><ele>719.0</ele><time>2026-05-03T11:26:25Z</time></trkpt><trkpt lat="44.49997614444521" lon="9.142210572753427"><ele>719.0</ele><time>2026-05-03T11:26:26Z</time></trkpt><trkpt lat="44.50014445596214" lon="9.1423752957004"><ele>719.0</ele><time>2026-05-03T11:26:27Z</time></trkpt><trkpt lat="44.5003006081475" lon="9.142524496111085"><ele>721.3333333333333</ele><time>2026-05-03T11:26:28Z</time></trkpt><trkpt lat="44.50043842669221" lon="9.142720401347258"><ele>723.6666666666666</ele><time>2026-05-03T11:26:29Z</time></trkpt><trkpt lat="44.5006624441968" lon="9.14286162353535"><ele>726.0</ele><time>2026-05-03T11:26:30Z</time></trkpt><trkpt lat="44.50087817285079" lon="9.142975357075375"><ele>726.0</ele><time>2026-05-03T11:26:31Z</time></trkpt><trkpt lat="44.50105462606191" lon="9.143096633595926"><ele>726.0</ele><time>2026-05-03T11:26:32Z</time></trkpt><trkpt lat="44.50124691588834" lon="9.143226503849494"><ele>726.0</ele><time>2026-05-03T11:26:33Z</time></trkpt><trkpt lat="44.50143605595067" lon="9.143338135702951"><ele>729.6666666666666</ele><time>2026-05-03T11:26:34Z</time></trkpt><trkpt lat="44.50162864348448" lon="9.143472427124365"><ele>733.3333333333333</ele><time>2026-05-03T11:26:35Z</time></trkpt><trkpt lat="44.50181208866331" lon="9.143613895504242"><ele>737.0</ele><time>2026-05-03T11:26:36Z</time></trkpt><trkpt lat="44.501978699911625" lon="9.143736083025312"><ele>741.3333333333333</ele><time>2026-05-03T11:26:37Z</time></trkpt><trkpt lat="44.50213427280447" lon="9.143821656029166"><ele>745.6666666666666</ele><time>2026-05-03T11:26:38Z</time></trkpt><trkpt lat="44.50230391347435" lon="9.143841658033304"><ele>750.0</ele><time>2026-05-03T11:26:39Z</time></trkpt><trkpt lat="44.50248888994849" lon="9.143800535394778"><ele>750.0</ele><time>2026-05-03T11:26:40Z</time></trkpt><trkpt lat="44.50267127833379" lon="9.143678802639194"><ele>750.0</ele><time>2026-05-03T11:26:41Z</time></trkpt><trkpt lat="44.502854806936185" lon="9.14357360527945"><ele>750.0</ele><time>2026-05-03T11:26:42Z</time></trkpt><trkpt lat="44.50301720771316" lon="9.143485005681475"><ele>750.3333333333334</ele><time>2026-05-03T11:26:43Z</time></trkpt><trkpt lat="44.50316321448129" lon="9.143477335474095"><ele>750.6666666666667</ele><time>2026-05-03T11:26:44Z</time></trkpt><trkpt lat="44.503295466440086" lon="9.143543393128962"><ele>751.0</ele><time>2026-05-03T11:26:45Z</time></trkpt><trkpt lat="44.50347293893034" lon="9.143609233793676"><ele>751.0</ele><time>2026-05-03T11:26:46Z</time></trkpt><trkpt lat="44.503650929217095" lon="9.143631050216147"><ele>751.0</ele><time>2026-05-03T11:26:47Z</time></trkpt><trkpt lat="44.50380823804128" lon="9.143648999687679"><ele>751.0</ele><time>2026-05-03T11:26:48Z</time></trkpt><trkpt lat="44.503937696772574" lon="9.143663374964879"><ele>749.75</ele><time>2026-05-03T11:26:49Z</time></trkpt><trkpt lat="44.50402360228985" lon="9.143723595888614"><ele>748.5</ele><time>2026-05-03T11:26:50Z</time></trkpt><trkpt lat="44.50406746167109" lon="9.143890863245614"><ele>747.25</ele><time>2026-05-03T11:26:51Z</time></trkpt><trkpt lat="44.50412762611055" lon="9.14402915069842"><ele>746.0</ele><time>2026-05-03T11:26:52Z</time></trkpt><trkpt lat="44.50402523097367" lon="9.144219266400613"><ele>746.0</ele><time>2026-05-03T11:26:53Z</time></trkpt><trkpt lat="44.50397103206803" lon="9.14445026056024"><ele>746.0</ele><time>2026-05-03T11:26:54Z</time></trkpt><trkpt lat="44.50391535626376" lon="9.144679099200902"><ele>746.0</ele><time>2026-05-03T11:26:55Z</time></trkpt><trkpt lat="44.503879113369834" lon="9.144905203137736"><ele>747.25</ele><time>2026-05-03T11:26:56Z</time></trkpt><trkpt lat="44.503838533038625" lon="9.145126604934509"><ele>748.5</ele><time>2026-05-03T11:26:57Z</time></trkpt><trkpt lat="44.50386098139646" lon="9.145323504175467"><ele>749.75</ele><time>2026-05-03T11:26:58Z</time></trkpt><trkpt lat="44.5038881209407" lon="9.145510198603512"><ele>751.0</ele><time>2026-05-03T11:26:59Z</time></trkpt><trkpt lat="44.503976339191624" lon="9.145706540999452"><ele>752.6666666666667</ele><time>2026-05-03T11:27:00Z</time></trkpt><trkpt lat="44.504070808154886" lon="9.14594642571774"><ele>754.3333333333334</ele><time>2026-05-03T11:27:01Z</time></trkpt><trkpt lat="44.50418515102662" lon="9.146164847862389"><ele>756.0</ele><time>2026-05-03T11:27:02Z</time></trkpt><trkpt lat="44.50427975725395" lon="9.14638214819831"><ele>753.6666666666666</ele><time>2026-05-03T11:27:03Z</time></trkpt><trkpt lat="44.5043721978864" lon="9.146623702446616"><ele>751.3333333333333</ele><time>2026-05-03T11:27:04Z</time></trkpt><trkpt lat="44.504419682664604" lon="9.14686065143927"><ele>749.0</ele><time>2026-05-03T11:27:05Z</time></trkpt><trkpt lat="44.50447026515758" lon="9.14706099123173"><ele>749.0</ele><time>2026-05-03T11:27:06Z</time></trkpt><trkpt lat="44.50456465826718" lon="9.147262866436646"><ele>749.0</ele><time>2026-05-03T11:27:07Z</time></trkpt><trkpt lat="44.50469290430141" lon="9.147433573995036"><ele>749.0</ele><time>2026-05-03T11:27:08Z</time></trkpt><trkpt lat="44.504836707368945" lon="9.147551858081188"><ele>751.0</ele><time>2026-05-03T11:27:09Z</time></trkpt><trkpt lat="44.50495325712771" lon="9.147562148484846"><ele>753.0</ele><time>2026-05-03T11:27:10Z</time></trkpt><trkpt lat="44.50505644785249" lon="9.147509062823039"><ele>755.0</ele><time>2026-05-03T11:27:11Z</time></trkpt><trkpt lat="44.50519773899911" lon="9.147412236936287"><ele>757.0</ele><time>2026-05-03T11:27:12Z</time></trkpt><trkpt lat="44.50531983563193" lon="9.147381888732111"><ele>760.0</ele><time>2026-05-03T11:27:13Z</time></trkpt><trkpt lat="44.505441271374856" lon="9.147452156950097"><ele>763.0</ele><time>2026-05-03T11:27:14Z</time></trkpt><trkpt lat="44.50553557025622" lon="9.147579181773922"><ele>766.0</ele><time>2026-05-03T11:27:15Z</time></trkpt><trkpt lat="44.50559368577843" lon="9.147748357304417"><ele>769.0</ele><time>2026-05-03T11:27:16Z</time></trkpt><trkpt lat="44.50567310514778" lon="9.147962610639297"><ele>769.0</ele><time>2026-05-03T11:27:17Z</time></trkpt><trkpt lat="44.5057497134968" lon="9.148177930053956"><ele>769.0</ele><time>2026-05-03T11:27:18Z</time></trkpt><trkpt lat="44.50582794342382" lon="9.14839780699593"><ele>769.0</ele><time>2026-05-03T11:27:19Z</time></trkpt><trkpt lat="44.505916912984596" lon="9.148604415007826"><ele>770.25</ele><time>2026-05-03T11:27:20Z</time></trkpt><trkpt lat="44.50596543573612" lon="9.148792130341546"><ele>771.5</ele><time>2026-05-03T11:27:21Z</time></trkpt><trkpt lat="44.506057419436225" lon="9.148947494769827"><ele>772.75</ele><time>2026-05-03T11:27:22Z</time></trkpt><trkpt lat="44.50619938017525" lon="9.148995546565653"><ele>774.0</ele><time>2026-05-03T11:27:23Z</time></trkpt><trkpt lat="44.50635340842008" lon="9.14901034543733"><ele>774.0</ele><time>2026-05-03T11:27:24Z</time></trkpt><trkpt lat="44.50653419773894" lon="9.14904442897031"><ele>774.0</ele><time>2026-05-03T11:27:25Z</time></trkpt><trkpt lat="44.5067179408449" lon="9.149029588179102"><ele>774.0</ele><time>2026-05-03T11:27:26Z</time></trkpt><trkpt lat="44.506893045134454" lon="9.149030978980644"><ele>775.0</ele><time>2026-05-03T11:27:27Z</time></trkpt><trkpt lat="44.50706823554628" lon="9.149063569043118"><ele>776.0</ele><time>2026-05-03T11:27:28Z</time></trkpt><trkpt lat="44.50722640867331" lon="9.149024579045491"><ele>777.0</ele><time>2026-05-03T11:27:29Z</time></trkpt><trkpt lat="44.50738165223582" lon="9.148922962744987"><ele>777.0</ele><time>2026-05-03T11:27:30Z</time></trkpt><trkpt lat="44.50754129093107" lon="9.148773901239009"><ele>777.0</ele><time>2026-05-03T11:27:31Z</time></trkpt><trkpt lat="44.50770823532509" lon="9.148668155738767"><ele>777.0</ele><time>2026-05-03T11:27:32Z</time></trkpt><trkpt lat="44.50785261899595" lon="9.148579744062642"><ele>777.6666666666667</ele><time>2026-05-03T11:27:33Z</time></trkpt><trkpt lat="44.508014975878524" lon="9.148637297071787"><ele>778.3333333333334</ele><time>2026-05-03T11:27:34Z</time></trkpt><trkpt lat="44.508164398532784" lon="9.148689434985936"><ele>779.0</ele><time>2026-05-03T11:27:35Z</time></trkpt><trkpt lat="44.50830855981801" lon="9.148752106665759"><ele>779.0</ele><time>2026-05-03T11:27:36Z</time></trkpt><trkpt lat="44.508423136455725" lon="9.148881146623301"><ele>779.0</ele><time>2026-05-03T11:27:37Z</time></trkpt><trkpt lat="44.50854524544916" lon="9.149000346898983"><ele>779.0</ele><time>2026-05-03T11:27:38Z</time></trkpt><trkpt lat="44.50866643228905" lon="9.149115835714277"><ele>779.0</ele><time>2026-05-03T11:27:39Z</time></trkpt><trkpt lat="44.50877982126282" lon="9.149258644213242"><ele>777.3333333333334</ele><time>2026-05-03T11:27:40Z</time></trkpt><trkpt lat="44.508891551935555" lon="9.149406775927908"><ele>775.6666666666667</ele><time>2026-05-03T11:27:41Z</time></trkpt><trkpt lat="44.509010402709016" lon="9.149567938949746"><ele>774.0</ele><time>2026-05-03T11:27:42Z</time></trkpt><trkpt lat="44.50912476655858" lon="9.149730300992607"><ele>771.6666666666666</ele><time>2026-05-03T11:27:43Z</time></trkpt><trkpt lat="44.509228812024304" lon="9.149925001215468"><ele>769.3333333333333</ele><time>2026-05-03T11:27:44Z</time></trkpt><trkpt lat="44.509351561405424" lon="9.150112179047289"><ele>767.0</ele><time>2026-05-03T11:27:45Z</time></trkpt><trkpt lat="44.509474211966506" lon="9.150297923066757"><ele>768.3333333333333</ele><time>2026-05-03T11:27:46Z</time></trkpt><trkpt lat="44.509599398943855" lon="9.150482493197678"><ele>769.6666666666666</ele><time>2026-05-03T11:27:47Z</time></trkpt><trkpt lat="44.5097002082063" lon="9.150637003083421"><ele>771.0</ele><time>2026-05-03T11:27:48Z</time></trkpt><trkpt lat="44.50979763031563" lon="9.150789138160624"><ele>771.0</ele><time>2026-05-03T11:27:49Z</time></trkpt><trkpt lat="44.50989092004437" lon="9.150903546999057"><ele>771.0</ele><time>2026-05-03T11:27:50Z</time></trkpt><trkpt lat="44.51000814954081" lon="9.151005972594694"><ele>771.0</ele><time>2026-05-03T11:27:51Z</time></trkpt><trkpt lat="44.510147199063454" lon="9.151062529922639"><ele>771.0</ele><time>2026-05-03T11:27:52Z</time></trkpt><trkpt lat="44.510286286659316" lon="9.151091476137298"><ele>772.6666666666667</ele><time>2026-05-03T11:27:53Z</time></trkpt><trkpt lat="44.510432162801415" lon="9.151099271788532"><ele>774.3333333333334</ele><time>2026-05-03T11:27:54Z</time></trkpt><trkpt lat="44.51059005813959" lon="9.151078124842547"><ele>776.0</ele><time>2026-05-03T11:27:55Z</time></trkpt><trkpt lat="44.51073588805149" lon="9.151084247359403"><ele>776.0</ele><time>2026-05-03T11:27:56Z</time></trkpt><trkpt lat="44.510852802486646" lon="9.151078765936921"><ele>776.0</ele><time>2026-05-03T11:27:57Z</time></trkpt><trkpt lat="44.51105776319841" lon="9.151066743031766"><ele>776.0</ele><time>2026-05-03T11:27:59Z</time></trkpt><trkpt lat="44.51118234332153" lon="9.151059534906508"><ele>776.0</ele><time>2026-05-03T11:28:00Z</time></trkpt><trkpt lat="44.51130063412056" lon="9.151163172369452"><ele>773.3333333333334</ele><time>2026-05-03T11:28:01Z</time></trkpt><trkpt lat="44.511389092935595" lon="9.151333796830253"><ele>770.6666666666667</ele><time>2026-05-03T11:28:02Z</time></trkpt><trkpt lat="44.511497606292956" lon="9.1515054229668"><ele>768.0</ele><time>2026-05-03T11:28:03Z</time></trkpt><trkpt lat="44.51159541488095" lon="9.151705955442527"><ele>768.0</ele><time>2026-05-03T11:28:04Z</time></trkpt><trkpt lat="44.51170041483113" lon="9.151906699600328"><ele>768.0</ele><time>2026-05-03T11:28:05Z</time></trkpt><trkpt lat="44.51179050780913" lon="9.152090630326542"><ele>768.0</ele><time>2026-05-03T11:28:06Z</time></trkpt><trkpt lat="44.51186599989414" lon="9.15228329665685"><ele>765.0</ele><time>2026-05-03T11:28:07Z</time></trkpt><trkpt lat="44.51193047416276" lon="9.152491703467943"><ele>762.0</ele><time>2026-05-03T11:28:08Z</time></trkpt><trkpt lat="44.51199019759087" lon="9.15272056547102"><ele>759.0</ele><time>2026-05-03T11:28:09Z</time></trkpt><trkpt lat="44.51205009423658" lon="9.152957173566742"><ele>763.6666666666667</ele><time>2026-05-03T11:28:10Z</time></trkpt><trkpt lat="44.51210246652615" lon="9.1532022100143"><ele>768.3333333333334</ele><time>2026-05-03T11:28:11Z</time></trkpt><trkpt lat="44.51215725457994" lon="9.153443965399049"><ele>773.0</ele><time>2026-05-03T11:28:12Z</time></trkpt><trkpt lat="44.5122197054058" lon="9.15365970585833"><ele>773.0</ele><time>2026-05-03T11:28:13Z</time></trkpt><trkpt lat="44.51230469150212" lon="9.153830985125818"><ele>773.0</ele><time>2026-05-03T11:28:14Z</time></trkpt><trkpt lat="44.51240614090658" lon="9.153963309275948"><ele>773.0</ele><time>2026-05-03T11:28:15Z</time></trkpt><trkpt lat="44.51248648681697" lon="9.154040327395075"><ele>773.0</ele><time>2026-05-03T11:28:16Z</time></trkpt><trkpt lat="44.512557033411895" lon="9.154160732393162"><ele>771.0</ele><time>2026-05-03T11:28:18Z</time></trkpt><trkpt lat="44.51263799543517" lon="9.154267079857386"><ele>769.0</ele><time>2026-05-03T11:28:20Z</time></trkpt><trkpt lat="44.512785651259684" lon="9.154206332598946"><ele>767.0</ele><time>2026-05-03T11:28:21Z</time></trkpt><trkpt lat="44.51303534047603" lon="9.154143287215986"><ele>767.0</ele><time>2026-05-03T11:28:23Z</time></trkpt><trkpt lat="44.51317567092366" lon="9.154124013768238"><ele>767.0</ele><time>2026-05-03T11:28:24Z</time></trkpt><trkpt lat="44.51331531314986" lon="9.1541099667233"><ele>767.0</ele><time>2026-05-03T11:28:25Z</time></trkpt><trkpt lat="44.51348349912503" lon="9.154111360820226"><ele>767.0</ele><time>2026-05-03T11:28:25.999Z</time></trkpt><trkpt lat="44.51364210106605" lon="9.15407353359787"><ele>767.5</ele><time>2026-05-03T11:28:26.999Z</time></trkpt><trkpt lat="44.51376672561004" lon="9.15399650606384"><ele>768.0</ele><time>2026-05-03T11:28:27.999Z</time></trkpt><trkpt lat="44.5138909373655" lon="9.153913421083258"><ele>768.5</ele><time>2026-05-03T11:28:28.999Z</time></trkpt><trkpt lat="44.51402218592352" lon="9.153947861291215"><ele>769.0</ele><time>2026-05-03T11:28:29.999Z</time></trkpt><trkpt lat="44.51415921072381" lon="9.154051994134106"><ele>769.0</ele><time>2026-05-03T11:28:30.999Z</time></trkpt><trkpt lat="44.51430683711943" lon="9.154153586495276"><ele>769.0</ele><time>2026-05-03T11:28:31.999Z</time></trkpt><trkpt lat="44.51445955140697" lon="9.154267914047786"><ele>769.0</ele><time>2026-05-03T11:28:32.999Z</time></trkpt><trkpt lat="44.51461645283754" lon="9.154377627818311"><ele>769.6666666666666</ele><time>2026-05-03T11:28:33.999Z</time></trkpt><trkpt lat="44.51477965119625" lon="9.154485936875998"><ele>770.3333333333333</ele><time>2026-05-03T11:28:34.999Z</time></trkpt><trkpt lat="44.514948910330816" lon="9.15459976275804"><ele>771.0</ele><time>2026-05-03T11:28:35.999Z</time></trkpt><trkpt lat="44.51512808675541" lon="9.154718824378127"><ele>771.0</ele><time>2026-05-03T11:28:36.999Z</time></trkpt><trkpt lat="44.515304648186735" lon="9.154832060907134"><ele>771.0</ele><time>2026-05-03T11:28:37.999Z</time></trkpt><trkpt lat="44.515452075621155" lon="9.154951679194076"><ele>771.0</ele><time>2026-05-03T11:28:38.999Z</time></trkpt><trkpt lat="44.51557423987218" lon="9.155092204184221"><ele>770.0</ele><time>2026-05-03T11:28:39.999Z</time></trkpt><trkpt lat="44.51567652351866" lon="9.155224502802394"><ele>769.0</ele><time>2026-05-03T11:28:40.999Z</time></trkpt><trkpt lat="44.515784944409035" lon="9.155357632236482"><ele>768.0</ele><time>2026-05-03T11:28:41.999Z</time></trkpt><trkpt lat="44.515895570256916" lon="9.155495988155963"><ele>767.0</ele><time>2026-05-03T11:28:42.999Z</time></trkpt><trkpt lat="44.51599915305447" lon="9.155629795732315"><ele>767.25</ele><time>2026-05-03T11:28:43.999Z</time></trkpt><trkpt lat="44.51610759673661" lon="9.155735677421694"><ele>767.5</ele><time>2026-05-03T11:28:44.999Z</time></trkpt><trkpt lat="44.51623491049609" lon="9.155811339604846"><ele>767.75</ele><time>2026-05-03T11:28:45.999Z</time></trkpt><trkpt lat="44.51638560182438" lon="9.155859063911635"><ele>768.0</ele><time>2026-05-03T11:28:46.999Z</time></trkpt><trkpt lat="44.51653022969068" lon="9.155912719871644"><ele>767.3333333333334</ele><time>2026-05-03T11:28:47.999Z</time></trkpt><trkpt lat="44.51664084648215" lon="9.156031482570445"><ele>766.6666666666667</ele><time>2026-05-03T11:28:48.999Z</time></trkpt><trkpt lat="44.51672742178786" lon="9.156209094836406"><ele>766.0</ele><time>2026-05-03T11:28:49.999Z</time></trkpt><trkpt lat="44.516818203924394" lon="9.156397319392955"><ele>765.3333333333334</ele><time>2026-05-03T11:28:50.999Z</time></trkpt><trkpt lat="44.516932088456976" lon="9.156545271751561"><ele>764.6666666666666</ele><time>2026-05-03T11:28:51.999Z</time></trkpt><trkpt lat="44.517069005420815" lon="9.156663391712062"><ele>764.0</ele><time>2026-05-03T11:28:52.999Z</time></trkpt><trkpt lat="44.517214184435616" lon="9.156740026677074"><ele>764.0</ele><time>2026-05-03T11:28:53.999Z</time></trkpt><trkpt lat="44.51735926944566" lon="9.15676345041037"><ele>764.0</ele><time>2026-05-03T11:28:54.999Z</time></trkpt><trkpt lat="44.517498076302715" lon="9.156752181584949"><ele>764.0</ele><time>2026-05-03T11:28:55.999Z</time></trkpt><trkpt lat="44.51764257518606" lon="9.156683997674081"><ele>764.0</ele><time>2026-05-03T11:28:56.999Z</time></trkpt><trkpt lat="44.51779609818144" lon="9.156582071667176"><ele>765.25</ele><time>2026-05-03T11:28:57.999Z</time></trkpt><trkpt lat="44.5179427567404" lon="9.156477484726192"><ele>766.5</ele><time>2026-05-03T11:28:58.999Z</time></trkpt><trkpt lat="44.518075821678124" lon="9.156377615059574"><ele>767.75</ele><time>2026-05-03T11:28:59.999Z</time></trkpt><trkpt lat="44.518184531703334" lon="9.156289322720859"><ele>769.0</ele><time>2026-05-03T11:29:00.999Z</time></trkpt><trkpt lat="44.51828522824562" lon="9.156216728471541"><ele>769.0</ele><time>2026-05-03T11:29:01.999Z</time></trkpt><trkpt lat="44.518387462157754" lon="9.156155779182745"><ele>769.0</ele><time>2026-05-03T11:29:02.999Z</time></trkpt><trkpt lat="44.51850279457151" lon="9.156125316110517"><ele>769.0</ele><time>2026-05-03T11:29:03.999Z</time></trkpt><trkpt lat="44.518608492638606" lon="9.156118242122657"><ele>769.0</ele><time>2026-05-03T11:29:04.999Z</time></trkpt><trkpt lat="44.51870266125931" lon="9.156126197619127"><ele>769.0</ele><time>2026-05-03T11:29:05.999Z</time></trkpt><trkpt lat="44.51878519621873" lon="9.156187416519908"><ele>769.8000000000001</ele><time>2026-05-03T11:29:06.999Z</time></trkpt><trkpt lat="44.518860392269495" lon="9.156293903856277"><ele>770.6</ele><time>2026-05-03T11:29:07.999Z</time></trkpt><trkpt lat="44.518928541623545" lon="9.156427197171498"><ele>771.4</ele><time>2026-05-03T11:29:08.999Z</time></trkpt><trkpt lat="44.518981717694544" lon="9.15655843538302"><ele>772.2</ele><time>2026-05-03T11:29:09.999Z</time></trkpt><trkpt lat="44.519009250248516" lon="9.156694025934558"><ele>773.0</ele><time>2026-05-03T11:29:10.999Z</time></trkpt><trkpt lat="44.518977357574926" lon="9.15683198384753"><ele>771.0</ele><time>2026-05-03T11:29:11.999Z</time></trkpt><trkpt lat="44.51892695843464" lon="9.156945336848498"><ele>769.0</ele><time>2026-05-03T11:29:12.999Z</time></trkpt><trkpt lat="44.51883411732365" lon="9.157016917990122"><ele>767.0</ele><time>2026-05-03T11:29:13.999Z</time></trkpt><trkpt lat="44.51874451975342" lon="9.157135470442817"><ele>765.0</ele><time>2026-05-03T11:29:14.999Z</time></trkpt><trkpt lat="44.51864719882857" lon="9.157232640578965"><ele>763.0</ele><time>2026-05-03T11:29:15.999Z</time></trkpt><trkpt lat="44.51856552000669" lon="9.157368941789995"><ele>761.5</ele><time>2026-05-03T11:29:16.999Z</time></trkpt><trkpt lat="44.51850144545399" lon="9.1575292002752"><ele>760.0</ele><time>2026-05-03T11:29:17.999Z</time></trkpt><trkpt lat="44.51843526527946" lon="9.157688516088198"><ele>758.5</ele><time>2026-05-03T11:29:18.999Z</time></trkpt><trkpt lat="44.51837488672964" lon="9.157852917274928"><ele>757.0</ele><time>2026-05-03T11:29:19.999Z</time></trkpt><trkpt lat="44.518344730352034" lon="9.158014841346336"><ele>757.0</ele><time>2026-05-03T11:29:20.999Z</time></trkpt><trkpt lat="44.51834936165363" lon="9.15817319581541"><ele>757.0</ele><time>2026-05-03T11:29:21.999Z</time></trkpt><trkpt lat="44.518386667508395" lon="9.15830775306"><ele>757.0</ele><time>2026-05-03T11:29:22.999Z</time></trkpt><trkpt lat="44.51846528829808" lon="9.1584233729145"><ele>757.0</ele><time>2026-05-03T11:29:23.999Z</time></trkpt><trkpt lat="44.51854485243121" lon="9.158492371271704"><ele>757.0</ele><time>2026-05-03T11:29:24.999Z</time></trkpt><trkpt lat="44.518623058478475" lon="9.158542319520802"><ele>758.5</ele><time>2026-05-03T11:29:25.999Z</time></trkpt><trkpt lat="44.518684583528845" lon="9.158605159320276"><ele>760.0</ele><time>2026-05-03T11:29:26.999Z</time></trkpt><trkpt lat="44.51875103739744" lon="9.158662476215481"><ele>761.5</ele><time>2026-05-03T11:29:27.999Z</time></trkpt><trkpt lat="44.518832540437494" lon="9.158710958320063"><ele>763.0</ele><time>2026-05-03T11:29:28.999Z</time></trkpt><trkpt lat="44.51890882823368" lon="9.158763633685165"><ele>764.5</ele><time>2026-05-03T11:29:29.999Z</time></trkpt><trkpt lat="44.5189851775669" lon="9.158809277505862"><ele>766.0</ele><time>2026-05-03T11:29:30.999Z</time></trkpt><trkpt lat="44.51906643301814" lon="9.158828992713866"><ele>767.5</ele><time>2026-05-03T11:29:31.999Z</time></trkpt><trkpt lat="44.51913744964555" lon="9.15884585457084"><ele>769.0</ele><time>2026-05-03T11:29:32.999Z</time></trkpt><trkpt lat="44.51923358186237" lon="9.158884817950298"><ele>770.5</ele><time>2026-05-03T11:29:34.999Z</time></trkpt><trkpt lat="44.51929668539133" lon="9.158897159805628"><ele>772.0</ele><time>2026-05-03T11:29:36.999Z</time></trkpt><trkpt lat="44.51936332139061" lon="9.158907171712979"><ele>773.4999999999999</ele><time>2026-05-03T11:29:47.999Z</time></trkpt><trkpt lat="44.51943511472506" lon="9.158904000546364"><ele>775.0</ele><time>2026-05-03T11:29:49.999Z</time></trkpt><trkpt lat="44.519553774699055" lon="9.158916916795524"><ele>776.3333333333333</ele><time>2026-05-03T11:29:51.999Z</time></trkpt><trkpt lat="44.5196245633388" lon="9.158923341393468"><ele>777.6666666666666</ele><time>2026-05-03T11:29:52.999Z</time></trkpt><trkpt lat="44.51970473587154" lon="9.15893254949398"><ele>779.0</ele><time>2026-05-03T11:29:53.999Z</time></trkpt><trkpt lat="44.51980079597296" lon="9.158938829189928"><ele>780.3333333333333</ele><time>2026-05-03T11:29:54.999Z</time></trkpt><trkpt lat="44.519891225133556" lon="9.158945850764223"><ele>781.6666666666666</ele><time>2026-05-03T11:29:55.999Z</time></trkpt><trkpt lat="44.519984164646246" lon="9.158961808961575"><ele>783.0</ele><time>2026-05-03T11:29:56.999Z</time></trkpt><trkpt lat="44.520083605062524" lon="9.158979246560165"><ele>783.0</ele><time>2026-05-03T11:29:57.999Z</time></trkpt><trkpt lat="44.52018677842038" lon="9.158966768860646"><ele>783.0</ele><time>2026-05-03T11:29:58.999Z</time></trkpt><trkpt lat="44.520273979395604" lon="9.158949091981178"><ele>783.0</ele><time>2026-05-03T11:29:59.999Z</time></trkpt><trkpt lat="44.52034839746795" lon="9.158924257638535"><ele>783.0</ele><time>2026-05-03T11:30:00.999Z</time></trkpt><trkpt lat="44.52041334873383" lon="9.158889517335083"><ele>783.0</ele><time>2026-05-03T11:30:01.999Z</time></trkpt><trkpt lat="44.52047195122326" lon="9.158855267196229"><ele>783.0</ele><time>2026-05-03T11:30:02.999Z</time></trkpt><trkpt lat="44.520591772603" lon="9.158826768389346"><ele>783.4285714285714</ele><time>2026-05-03T11:30:04.999Z</time></trkpt><trkpt lat="44.520654766822325" lon="9.158857635933886"><ele>783.8571428571429</ele><time>2026-05-03T11:30:05.999Z</time></trkpt><trkpt lat="44.52070467854385" lon="9.158920246619926"><ele>784.2857142857143</ele><time>2026-05-03T11:30:06.999Z</time></trkpt><trkpt lat="44.520759356313015" lon="9.158971857628778"><ele>784.7142857142858</ele><time>2026-05-03T11:30:07.999Z</time></trkpt><trkpt lat="44.520765396068484" lon="9.159099912345342"><ele>785.1428571428571</ele><time>2026-05-03T11:30:08.999Z</time></trkpt><trkpt lat="44.520785532784394" lon="9.15919527507841"><ele>785.5714285714287</ele><time>2026-05-03T11:30:09.999Z</time></trkpt><trkpt lat="44.52080455692956" lon="9.159297083212474"><ele>786.0</ele><time>2026-05-03T11:30:10.999Z</time></trkpt><trkpt lat="44.520810580418356" lon="9.159398487384404"><ele>786.0</ele><time>2026-05-03T11:30:11.999Z</time></trkpt><trkpt lat="44.520796999570145" lon="9.159503227462126"><ele>786.0</ele><time>2026-05-03T11:30:12.999Z</time></trkpt><trkpt lat="44.52077040404359" lon="9.159605918140935"><ele>786.0</ele><time>2026-05-03T11:30:13.999Z</time></trkpt><trkpt lat="44.52073300818017" lon="9.159700056694348"><ele>786.0</ele><time>2026-05-03T11:30:14.999Z</time></trkpt><trkpt lat="44.52068478525815" lon="9.159793015908535"><ele>786.0</ele><time>2026-05-03T11:30:15.999Z</time></trkpt><trkpt lat="44.52063760394351" lon="9.159882504084173"><ele>786.0</ele><time>2026-05-03T11:30:16.999Z</time></trkpt><trkpt lat="44.52058962927349" lon="9.159975960959901"><ele>787.1666666666666</ele><time>2026-05-03T11:30:17.999Z</time></trkpt><trkpt lat="44.52054158058402" lon="9.160062474478554"><ele>788.3333333333333</ele><time>2026-05-03T11:30:18.999Z</time></trkpt><trkpt lat="44.52050539500652" lon="9.160170301859603"><ele>789.5</ele><time>2026-05-03T11:30:19.999Z</time></trkpt><trkpt lat="44.52046349187692" lon="9.160257810117624"><ele>790.6666666666666</ele><time>2026-05-03T11:30:20.999Z</time></trkpt><trkpt lat="44.52043650324837" lon="9.160357075619233"><ele>791.8333333333333</ele><time>2026-05-03T11:30:21.999Z</time></trkpt><trkpt lat="44.52043967401153" lon="9.160471908683713"><ele>793.0</ele><time>2026-05-03T11:30:22.999Z</time></trkpt><trkpt lat="44.52047269896523" lon="9.160580056476194"><ele>793.0</ele><time>2026-05-03T11:30:23.999Z</time></trkpt><trkpt lat="44.52051882137133" lon="9.160690062538446"><ele>793.0</ele><time>2026-05-03T11:30:24.999Z</time></trkpt><trkpt lat="44.52055825637051" lon="9.160816647162932"><ele>793.0</ele><time>2026-05-03T11:30:25.999Z</time></trkpt><trkpt lat="44.52061472829789" lon="9.16091826096991"><ele>793.0</ele><time>2026-05-03T11:30:26.999Z</time></trkpt><trkpt lat="44.52068403353045" lon="9.161011763132262"><ele>793.0</ele><time>2026-05-03T11:30:27.999Z</time></trkpt><trkpt lat="44.52077065023338" lon="9.16108123205516"><ele>793.0</ele><time>2026-05-03T11:30:28.999Z</time></trkpt><trkpt lat="44.52085018633307" lon="9.161149583980693"><ele>793.0</ele><time>2026-05-03T11:30:29.999Z</time></trkpt><trkpt lat="44.520940973038606" lon="9.161195713185911"><ele>793.0</ele><time>2026-05-03T11:30:30.999Z</time></trkpt><trkpt lat="44.52102294517037" lon="9.16126061790212"><ele>793.0</ele><time>2026-05-03T11:30:31.999Z</time></trkpt><trkpt lat="44.52110359392134" lon="9.161316271804719"><ele>793.0</ele><time>2026-05-03T11:30:32.999Z</time></trkpt><trkpt lat="44.521181810143766" lon="9.161378553579684"><ele>792.3333333333333</ele><time>2026-05-03T11:30:33.999Z</time></trkpt><trkpt lat="44.52124742863089" lon="9.161449338517414"><ele>791.6666666666666</ele><time>2026-05-03T11:30:34.999Z</time></trkpt><trkpt lat="44.52128115450072" lon="9.161546139440025"><ele>791.0</ele><time>2026-05-03T11:30:35.999Z</time></trkpt><trkpt lat="44.521275158990335" lon="9.161650243810685"><ele>790.3333333333333</ele><time>2026-05-03T11:30:36.999Z</time></trkpt><trkpt lat="44.5212272676964" lon="9.161741682327982"><ele>789.6666666666666</ele><time>2026-05-03T11:30:37.999Z</time></trkpt><trkpt lat="44.521142330958654" lon="9.16179362661973"><ele>789.0</ele><time>2026-05-03T11:30:38.999Z</time></trkpt><trkpt lat="44.521046243349005" lon="9.161752342324963"><ele>789.0</ele><time>2026-05-03T11:30:39.999Z</time></trkpt><trkpt lat="44.52094915967413" lon="9.161769412905539"><ele>789.0</ele><time>2026-05-03T11:30:40.999Z</time></trkpt><trkpt lat="44.520871126238" lon="9.16180288719004"><ele>789.0</ele><time>2026-05-03T11:30:41.999Z</time></trkpt><trkpt lat="44.520810569510346" lon="9.161895599417909"><ele>789.0</ele><time>2026-05-03T11:30:42.999Z</time></trkpt><trkpt lat="44.52078490285771" lon="9.162025368564821"><ele>789.0</ele><time>2026-05-03T11:30:43.999Z</time></trkpt><trkpt lat="44.52076634664328" lon="9.162161606036737"><ele>789.0</ele><time>2026-05-03T11:30:44.999Z</time></trkpt><trkpt lat="44.52075159199498" lon="9.162268505452133"><ele>789.0</ele><time>2026-05-03T11:30:45.999Z</time></trkpt><trkpt lat="44.520730305160555" lon="9.162366952938804"><ele>789.0</ele><time>2026-05-03T11:30:46.999Z</time></trkpt><trkpt lat="44.520659976145225" lon="9.162429632656423"><ele>789.0</ele><time>2026-05-03T11:30:47.999Z</time></trkpt><trkpt lat="44.52058555622022" lon="9.162436883046343"><ele>789.0</ele><time>2026-05-03T11:30:48.999Z</time></trkpt><trkpt lat="44.5205085750789" lon="9.162372852826975"><ele>789.0</ele><time>2026-05-03T11:30:49.999Z</time></trkpt><trkpt lat="44.52043147704645" lon="9.162341589203464"><ele>788.0</ele><time>2026-05-03T11:30:50.999Z</time></trkpt><trkpt lat="44.5203574075405" lon="9.162263170276967"><ele>787.0</ele><time>2026-05-03T11:30:51.999Z</time></trkpt><trkpt lat="44.52027434788311" lon="9.162186983572733"><ele>786.0</ele><time>2026-05-03T11:30:52.999Z</time></trkpt><trkpt lat="44.52019147754962" lon="9.162122917335417"><ele>785.0</ele><time>2026-05-03T11:30:53.999Z</time></trkpt><trkpt lat="44.52010381907436" lon="9.162053176742448"><ele>784.0</ele><time>2026-05-03T11:30:54.999Z</time></trkpt><trkpt lat="44.52001152092817" lon="9.16200109877503"><ele>784.0</ele><time>2026-05-03T11:30:55.999Z</time></trkpt><trkpt lat="44.51990796625969" lon="9.162011761434325"><ele>784.0</ele><time>2026-05-03T11:30:56.999Z</time></trkpt><trkpt lat="44.51982742519983" lon="9.162085469619969"><ele>784.0</ele><time>2026-05-03T11:30:57.999Z</time></trkpt><trkpt lat="44.51973757935821" lon="9.162172350879114"><ele>784.0</ele><time>2026-05-03T11:30:58.999Z</time></trkpt><trkpt lat="44.51965165093277" lon="9.162235069234388"><ele>784.0</ele><time>2026-05-03T11:30:59.999Z</time></trkpt><trkpt lat="44.5195641826233" lon="9.16217645644811"><ele>785.8000000000001</ele><time>2026-05-03T11:31:00.999Z</time></trkpt><trkpt lat="44.51948154150594" lon="9.162099726685371"><ele>787.6</ele><time>2026-05-03T11:31:01.999Z</time></trkpt><trkpt lat="44.51938626473413" lon="9.162055403384352"><ele>789.4</ele><time>2026-05-03T11:31:02.999Z</time></trkpt><trkpt lat="44.519297949034026" lon="9.162033925191466"><ele>791.2</ele><time>2026-05-03T11:31:03.999Z</time></trkpt><trkpt lat="44.519193889631616" lon="9.1620038739925"><ele>793.0</ele><time>2026-05-03T11:31:04.999Z</time></trkpt><trkpt lat="44.51909986315832" lon="9.161929355513452"><ele>793.0</ele><time>2026-05-03T11:31:05.999Z</time></trkpt><trkpt lat="44.519004664090666" lon="9.161892085411827"><ele>793.0</ele><time>2026-05-03T11:31:06.999Z</time></trkpt><trkpt lat="44.518888437034754" lon="9.161894872421597"><ele>793.0</ele><time>2026-05-03T11:31:07.999Z</time></trkpt><trkpt lat="44.518780786218855" lon="9.161868248263414"><ele>793.0</ele><time>2026-05-03T11:31:08.999Z</time></trkpt><trkpt lat="44.51867077884672" lon="9.161858880666774"><ele>793.0</ele><time>2026-05-03T11:31:09.999Z</time></trkpt><trkpt lat="44.518571952398965" lon="9.161843397662102"><ele>795.2</ele><time>2026-05-03T11:31:10.999Z</time></trkpt><trkpt lat="44.518472676301485" lon="9.1618275804067"><ele>797.4</ele><time>2026-05-03T11:31:11.999Z</time></trkpt><trkpt lat="44.51836661178833" lon="9.161811430957446"><ele>799.6</ele><time>2026-05-03T11:31:12.999Z</time></trkpt><trkpt lat="44.51825633385958" lon="9.161823642454923"><ele>801.8000000000001</ele><time>2026-05-03T11:31:13.999Z</time></trkpt><trkpt lat="44.51814915990352" lon="9.16183315008606"><ele>804.0</ele><time>2026-05-03T11:31:14.999Z</time></trkpt><trkpt lat="44.51804340268034" lon="9.16189632132685"><ele>804.0</ele><time>2026-05-03T11:31:15.999Z</time></trkpt><trkpt lat="44.517955109772274" lon="9.162008779620226"><ele>804.0</ele><time>2026-05-03T11:31:16.999Z</time></trkpt><trkpt lat="44.51788962195841" lon="9.1621413567454"><ele>804.0</ele><time>2026-05-03T11:31:17.999Z</time></trkpt><trkpt lat="44.5178522117764" lon="9.16230284505231"><ele>804.0</ele><time>2026-05-03T11:31:18.999Z</time></trkpt><trkpt lat="44.51782588049943" lon="9.162460479044107"><ele>802.8000000000001</ele><time>2026-05-03T11:31:19.999Z</time></trkpt><trkpt lat="44.51779637639627" lon="9.162616082752466"><ele>801.6</ele><time>2026-05-03T11:31:20.999Z</time></trkpt><trkpt lat="44.517792973591355" lon="9.162755565906812"><ele>800.4</ele><time>2026-05-03T11:31:21.999Z</time></trkpt><trkpt lat="44.51783324395654" lon="9.16288116228773"><ele>799.2</ele><time>2026-05-03T11:31:22.999Z</time></trkpt><trkpt lat="44.51792473732854" lon="9.162984298852056"><ele>798.0</ele><time>2026-05-03T11:31:23.999Z</time></trkpt><trkpt lat="44.51801074226748" lon="9.163079008693774"><ele>802.0</ele><time>2026-05-03T11:31:24.999Z</time></trkpt><trkpt lat="44.51805300866967" lon="9.163182374877445"><ele>806.0</ele><time>2026-05-03T11:31:25.999Z</time></trkpt><trkpt lat="44.518083147809016" lon="9.163293099738326"><ele>810.0</ele><time>2026-05-03T11:31:26.999Z</time></trkpt><trkpt lat="44.51810533822272" lon="9.163403898205392"><ele>814.0</ele><time>2026-05-03T11:31:27.999Z</time></trkpt><trkpt lat="44.51809468818208" lon="9.163517006802422"><ele>818.0</ele><time>2026-05-03T11:31:28.999Z</time></trkpt><trkpt lat="44.518040772698136" lon="9.163611233445927"><ele>822.0</ele><time>2026-05-03T11:31:29.999Z</time></trkpt><trkpt lat="44.5179724014315" lon="9.163704869484473"><ele>822.75</ele><time>2026-05-03T11:31:30.999Z</time></trkpt><trkpt lat="44.517907882336345" lon="9.163823447398824"><ele>823.5</ele><time>2026-05-03T11:31:31.999Z</time></trkpt><trkpt lat="44.51788090853597" lon="9.163966046990916"><ele>824.25</ele><time>2026-05-03T11:31:32.999Z</time></trkpt><trkpt lat="44.517897585458904" lon="9.16414295200567"><ele>825.0</ele><time>2026-05-03T11:31:33.999Z</time></trkpt><trkpt lat="44.51794762656177" lon="9.164334706365603"><ele>825.6</ele><time>2026-05-03T11:31:34.999Z</time></trkpt><trkpt lat="44.517973757840515" lon="9.164541869885978"><ele>826.2</ele><time>2026-05-03T11:31:35.999Z</time></trkpt><trkpt lat="44.51798806315395" lon="9.164717412323972"><ele>826.8</ele><time>2026-05-03T11:31:36.999Z</time></trkpt><trkpt lat="44.517970703921634" lon="9.16484345662994"><ele>827.4</ele><time>2026-05-03T11:31:37.999Z</time></trkpt><trkpt lat="44.51793881468247" lon="9.164945860098767"><ele>828.0</ele><time>2026-05-03T11:31:38.999Z</time></trkpt><trkpt lat="44.51785639805336" lon="9.164991083424223"><ele>828.0</ele><time>2026-05-03T11:31:39.999Z</time></trkpt><trkpt lat="44.51776125017912" lon="9.16500172663188"><ele>828.0</ele><time>2026-05-03T11:31:40.999Z</time></trkpt><trkpt lat="44.51770004057184" lon="9.16488663877214"><ele>828.0</ele><time>2026-05-03T11:31:41.999Z</time></trkpt><trkpt lat="44.51762704777205" lon="9.164825137616635"><ele>828.0</ele><time>2026-05-03T11:31:42.999Z</time></trkpt><trkpt lat="44.517556021914345" lon="9.16475383691312"><ele>828.0</ele><time>2026-05-03T11:31:43.999Z</time></trkpt><trkpt lat="44.51746081466266" lon="9.164696125432627"><ele>825.25</ele><time>2026-05-03T11:31:44.999Z</time></trkpt><trkpt lat="44.51735013110312" lon="9.164658736992266"><ele>822.5</ele><time>2026-05-03T11:31:45.999Z</time></trkpt><trkpt lat="44.51723344632378" lon="9.1646808871744"><ele>819.75</ele><time>2026-05-03T11:31:46.999Z</time></trkpt><trkpt lat="44.51713061910865" lon="9.16477365399835"><ele>817.0</ele><time>2026-05-03T11:31:47.999Z</time></trkpt><trkpt lat="44.51705639514935" lon="9.16492219405091"><ele>817.0</ele><time>2026-05-03T11:31:48.999Z</time></trkpt><trkpt lat="44.516983092339835" lon="9.165080983512471"><ele>817.0</ele><time>2026-05-03T11:31:49.999Z</time></trkpt><trkpt lat="44.516897774814325" lon="9.165244687770672"><ele>817.0</ele><time>2026-05-03T11:31:50.999Z</time></trkpt><trkpt lat="44.51679415494275" lon="9.165412248034686"><ele>817.0</ele><time>2026-05-03T11:31:51.999Z</time></trkpt><trkpt lat="44.51670159395911" lon="9.165590923248326"><ele>821.75</ele><time>2026-05-03T11:31:52.999Z</time></trkpt><trkpt lat="44.51663103446236" lon="9.165793873583526"><ele>826.5</ele><time>2026-05-03T11:31:53.999Z</time></trkpt><trkpt lat="44.51658504471527" lon="9.165988624190451"><ele>831.25</ele><time>2026-05-03T11:31:54.999Z</time></trkpt><trkpt lat="44.516540752520356" lon="9.166169114656793"><ele>836.0</ele><time>2026-05-03T11:31:55.999Z</time></trkpt><trkpt lat="44.5164935971104" lon="9.166360022084266"><ele>836.0</ele><time>2026-05-03T11:31:56.999Z</time></trkpt><trkpt lat="44.516443832629776" lon="9.166516474576593"><ele>836.0</ele><time>2026-05-03T11:31:57.999Z</time></trkpt><trkpt lat="44.51639428002636" lon="9.166655313548961"><ele>836.0</ele><time>2026-05-03T11:31:58.999Z</time></trkpt><trkpt lat="44.51631088153523" lon="9.166751281625197"><ele>836.0</ele><time>2026-05-03T11:31:59.999Z</time></trkpt><trkpt lat="44.516175206140865" lon="9.166761626117214"><ele>836.0</ele><time>2026-05-03T11:32:00.999Z</time></trkpt><trkpt lat="44.51603207315182" lon="9.166707743707507"><ele>836.0</ele><time>2026-05-03T11:32:01.999Z</time></trkpt><trkpt lat="44.515882400213144" lon="9.166689699799255"><ele>836.0</ele><time>2026-05-03T11:32:02.999Z</time></trkpt><trkpt lat="44.51573965505394" lon="9.16663082644907"><ele>836.0</ele><time>2026-05-03T11:32:03.999Z</time></trkpt><trkpt lat="44.51559636450958" lon="9.166580754615527"><ele>836.0</ele><time>2026-05-03T11:32:04.999Z</time></trkpt><trkpt lat="44.515456709255346" lon="9.166555935928988"><ele>836.0</ele><time>2026-05-03T11:32:05.999Z</time></trkpt><trkpt lat="44.51532620191834" lon="9.166589969693993"><ele>836.0</ele><time>2026-05-03T11:32:06.999Z</time></trkpt><trkpt lat="44.51522119997786" lon="9.166708321774243"><ele>836.0</ele><time>2026-05-03T11:32:08Z</time></trkpt><trkpt lat="44.51511050648042" lon="9.166839531683987"><ele>837.3333333333334</ele><time>2026-05-03T11:32:09Z</time></trkpt><trkpt lat="44.51496806538498" lon="9.166878629129418"><ele>838.6666666666667</ele><time>2026-05-03T11:32:10Z</time></trkpt><trkpt lat="44.51483323049745" lon="9.166986729818532"><ele>840.0</ele><time>2026-05-03T11:32:11Z</time></trkpt><trkpt lat="44.514707553795525" lon="9.16711647223498"><ele>840.0</ele><time>2026-05-03T11:32:12Z</time></trkpt><trkpt lat="44.51459071342313" lon="9.167217619323733"><ele>840.0</ele><time>2026-05-03T11:32:13Z</time></trkpt><trkpt lat="44.51445642054363" lon="9.16724492605346"><ele>840.0</ele><time>2026-05-03T11:32:14Z</time></trkpt><trkpt lat="44.51430598938146" lon="9.167198052787281"><ele>840.0</ele><time>2026-05-03T11:32:15Z</time></trkpt><trkpt lat="44.5141738243273" lon="9.16712990910497"><ele>840.25</ele><time>2026-05-03T11:32:16Z</time></trkpt><trkpt lat="44.51405613627962" lon="9.167105453594337"><ele>840.5</ele><time>2026-05-03T11:32:17Z</time></trkpt><trkpt lat="44.513933161161496" lon="9.167135745869148"><ele>840.75</ele><time>2026-05-03T11:32:18Z</time></trkpt><trkpt lat="44.51382139499" lon="9.167215394350054"><ele>841.0</ele><time>2026-05-03T11:32:19Z</time></trkpt><trkpt lat="44.513753756830845" lon="9.167357115891697"><ele>848.25</ele><time>2026-05-03T11:32:20Z</time></trkpt><trkpt lat="44.5137112258765" lon="9.167513037072812"><ele>855.5</ele><time>2026-05-03T11:32:21Z</time></trkpt><trkpt lat="44.51366186729213" lon="9.16767905902492"><ele>862.75</ele><time>2026-05-03T11:32:22Z</time></trkpt><trkpt lat="44.51360090978644" lon="9.167824342593288"><ele>870.0</ele><time>2026-05-03T11:32:23Z</time></trkpt><trkpt lat="44.513554677275486" lon="9.16799157454842"><ele>870.0</ele><time>2026-05-03T11:32:24Z</time></trkpt><trkpt lat="44.5135090422378" lon="9.16814509041405"><ele>870.0</ele><time>2026-05-03T11:32:25Z</time></trkpt><trkpt lat="44.513469030414434" lon="9.168278264308396"><ele>870.0</ele><time>2026-05-03T11:32:26Z</time></trkpt><trkpt lat="44.51342006886075" lon="9.168440950064456"><ele>870.0</ele><time>2026-05-03T11:32:28Z</time></trkpt><trkpt lat="44.51337642873606" lon="9.168531801938979"><ele>870.0</ele><time>2026-05-03T11:32:29Z</time></trkpt><trkpt lat="44.51337597058552" lon="9.16863499301694"><ele>869.6666666666667</ele><time>2026-05-03T11:32:30.062Z</time></trkpt><trkpt lat="44.513311677888815" lon="9.168859365063545"><ele>869.3333333333334</ele><time>2026-05-03T11:32:32Z</time></trkpt><trkpt lat="44.513244404734436" lon="9.169148306222699"><ele>869.0</ele><time>2026-05-03T11:32:34Z</time></trkpt><trkpt lat="44.513236054664176" lon="9.169060297227107"><ele>873.0</ele><time>2026-05-03T11:32:48Z</time></trkpt><trkpt lat="44.51297824472962" lon="9.168828426928654"><ele>877.0</ele><time>2026-05-03T11:32:50Z</time></trkpt><trkpt lat="44.512890535676576" lon="9.16871821116683"><ele>881.0</ele><time>2026-05-03T11:32:52Z</time></trkpt><trkpt lat="44.512825634735044" lon="9.168592990519617"><ele>881.0000000000001</ele><time>2026-05-03T11:32:54Z</time></trkpt><trkpt lat="44.51277558517718" lon="9.168450513441485"><ele>881.0</ele><time>2026-05-03T11:32:56Z</time></trkpt><trkpt lat="44.51273893464298" lon="9.168364779443412"><ele>881.0</ele><time>2026-05-03T11:32:57Z</time></trkpt><trkpt lat="44.51269245671989" lon="9.168266991321754"><ele>881.0</ele><time>2026-05-03T11:32:58Z</time></trkpt><trkpt lat="44.51263971397507" lon="9.168159660311943"><ele>881.0000000000001</ele><time>2026-05-03T11:32:59Z</time></trkpt><trkpt lat="44.512594650281045" lon="9.168066598254955"><ele>881.0</ele><time>2026-05-03T11:33:00Z</time></trkpt><trkpt lat="44.512542258697" lon="9.167964001053532"><ele>881.0</ele><time>2026-05-03T11:33:01Z</time></trkpt><trkpt lat="44.512481516299076" lon="9.16785797149623"><ele>880.9999999999999</ele><time>2026-05-03T11:33:02Z</time></trkpt><trkpt lat="44.512424208271966" lon="9.167769071466545"><ele>880.9999999999999</ele><time>2026-05-03T11:33:03Z</time></trkpt><trkpt lat="44.51234387369683" lon="9.16767511330276"><ele>881.0</ele><time>2026-05-03T11:33:04.999Z</time></trkpt><trkpt lat="44.51240294749135" lon="9.167708690003124"><ele>881.0</ele><time>2026-05-03T11:33:12.999Z</time></trkpt><trkpt lat="44.51249973211384" lon="9.167792119485409"><ele>881.0</ele><time>2026-05-03T11:33:14.999Z</time></trkpt><trkpt lat="44.512579472381454" lon="9.16783260122274"><ele>880.9999999999999</ele><time>2026-05-03T11:33:15.999Z</time></trkpt><trkpt lat="44.51257344050729" lon="9.167973589263946"><ele>880.9999999999999</ele><time>2026-05-03T11:33:16.999Z</time></trkpt><trkpt lat="44.51273241876872" lon="9.167919216654433"><ele>881.0</ele><time>2026-05-03T11:33:17.999Z</time></trkpt><trkpt lat="44.51280116923734" lon="9.167951742664094"><ele>881.0</ele><time>2026-05-03T11:33:18.999Z</time></trkpt><trkpt lat="44.512883363663015" lon="9.167998601185298"><ele>878.8</ele><time>2026-05-03T11:33:19.999Z</time></trkpt><trkpt lat="44.5129694768688" lon="9.168026021535761"><ele>876.5999999999999</ele><time>2026-05-03T11:33:20.999Z</time></trkpt><trkpt lat="44.51306512765339" lon="9.168036761133514"><ele>874.4</ele><time>2026-05-03T11:33:21.999Z</time></trkpt><trkpt lat="44.51316402568724" lon="9.168056987363652"><ele>872.2</ele><time>2026-05-03T11:33:22.999Z</time></trkpt><trkpt lat="44.51327046154834" lon="9.16809256243157"><ele>870.0</ele><time>2026-05-03T11:33:23.999Z</time></trkpt><trkpt lat="44.51336590691958" lon="9.168140999487857"><ele>870.0</ele><time>2026-05-03T11:33:24.999Z</time></trkpt><trkpt lat="44.513450044618146" lon="9.168183500135116"><ele>870.0</ele><time>2026-05-03T11:33:25.999Z</time></trkpt><trkpt lat="44.513540641740825" lon="9.16821309162783"><ele>870.0</ele><time>2026-05-03T11:33:26.999Z</time></trkpt><trkpt lat="44.51363335778723" lon="9.16823266863409"><ele>870.0</ele><time>2026-05-03T11:33:27.999Z</time></trkpt><trkpt lat="44.51373002102553" lon="9.168267852574546"><ele>870.0</ele><time>2026-05-03T11:33:28.999Z</time></trkpt><trkpt lat="44.51382937593752" lon="9.168294575915997"><ele>872.0</ele><time>2026-05-03T11:33:29.999Z</time></trkpt><trkpt lat="44.51392493950543" lon="9.168322142458448"><ele>874.0</ele><time>2026-05-03T11:33:30.999Z</time></trkpt><trkpt lat="44.51402449418674" lon="9.168349983518734"><ele>876.0</ele><time>2026-05-03T11:33:31.999Z</time></trkpt><trkpt lat="44.51410983559252" lon="9.168406279919987"><ele>878.0</ele><time>2026-05-03T11:33:32.999Z</time></trkpt><trkpt lat="44.514191513290484" lon="9.168450275901385"><ele>880.0</ele><time>2026-05-03T11:33:33.999Z</time></trkpt><trkpt lat="44.51427801345803" lon="9.168468379779585"><ele>879.9999999999999</ele><time>2026-05-03T11:33:34.999Z</time></trkpt><trkpt lat="44.514357747606525" lon="9.168470376814277"><ele>880.0</ele><time>2026-05-03T11:33:35.999Z</time></trkpt><trkpt lat="44.51443853110779" lon="9.168478956867787"><ele>880.0</ele><time>2026-05-03T11:33:36.999Z</time></trkpt><trkpt lat="44.51452732540514" lon="9.168489091652788"><ele>880.0</ele><time>2026-05-03T11:33:37.999Z</time></trkpt><trkpt lat="44.51461232020599" lon="9.16850599421423"><ele>879.9999999999999</ele><time>2026-05-03T11:33:38.999Z</time></trkpt><trkpt lat="44.51471243335873" lon="9.16853991712049"><ele>880.0</ele><time>2026-05-03T11:33:39.999Z</time></trkpt><trkpt lat="44.51480593196038" lon="9.168597245719663"><ele>879.0</ele><time>2026-05-03T11:33:40.999Z</time></trkpt><trkpt lat="44.51489104703413" lon="9.168637716439198"><ele>878.0</ele><time>2026-05-03T11:33:41.999Z</time></trkpt><trkpt lat="44.51498428639607" lon="9.168671367532703"><ele>877.0</ele><time>2026-05-03T11:33:43.999Z</time></trkpt><trkpt lat="44.51503698696517" lon="9.168732619005695"><ele>876.0</ele><time>2026-05-03T11:33:44.999Z</time></trkpt><trkpt lat="44.51509916167467" lon="9.168794558356977"><ele>875.0</ele><time>2026-05-03T11:33:45.999Z</time></trkpt><trkpt lat="44.51524593435006" lon="9.168791042895327"><ele>875.0</ele><time>2026-05-03T11:33:47.999Z</time></trkpt><trkpt lat="44.51535111513405" lon="9.168783999759995"><ele>875.0</ele><time>2026-05-03T11:33:48.999Z</time></trkpt><trkpt lat="44.51543876116038" lon="9.168771675730149"><ele>875.0</ele><time>2026-05-03T11:33:49.999Z</time></trkpt><trkpt lat="44.51553276923344" lon="9.16875289588172"><ele>875.0</ele><time>2026-05-03T11:33:50.999Z</time></trkpt><trkpt lat="44.51558778143459" lon="9.168707688659289"><ele>875.0</ele><time>2026-05-03T11:33:51.999Z</time></trkpt><trkpt lat="44.51568999613109" lon="9.168673825142868"><ele>875.0000000000001</ele><time>2026-05-03T11:33:53.999Z</time></trkpt><trkpt lat="44.51575611800826" lon="9.168675609475034"><ele>875.0</ele><time>2026-05-03T11:33:54.999Z</time></trkpt><trkpt lat="44.5158371455034" lon="9.168697713798283"><ele>875.0</ele><time>2026-05-03T11:33:55.999Z</time></trkpt><trkpt lat="44.515926147828466" lon="9.16873282359106"><ele>875.0</ele><time>2026-05-03T11:33:56.999Z</time></trkpt><trkpt lat="44.51600025896198" lon="9.168759209831679"><ele>875.0000000000001</ele><time>2026-05-03T11:33:57.999Z</time></trkpt><trkpt lat="44.51608471122714" lon="9.16877627268382"><ele>875.0</ele><time>2026-05-03T11:33:58.999Z</time></trkpt><trkpt lat="44.51617218386433" lon="9.168739714576201"><ele>874.3333333333334</ele><time>2026-05-03T11:33:59.999Z</time></trkpt><trkpt lat="44.51625758058897" lon="9.168714497777223"><ele>873.6666666666667</ele><time>2026-05-03T11:34:01Z</time></trkpt><trkpt lat="44.51633355385249" lon="9.168730002578316"><ele>873.0</ele><time>2026-05-03T11:34:02Z</time></trkpt><trkpt lat="44.51639635400506" lon="9.168722939849518"><ele>872.3333333333333</ele><time>2026-05-03T11:34:03Z</time></trkpt><trkpt lat="44.51647194287807" lon="9.168749069982082"><ele>871.6666666666666</ele><time>2026-05-03T11:34:04Z</time></trkpt><trkpt lat="44.51653655750858" lon="9.168791631010235"><ele>871.0</ele><time>2026-05-03T11:34:05Z</time></trkpt><trkpt lat="44.516617039544506" lon="9.168836559774029"><ele>870.9999999999999</ele><time>2026-05-03T11:34:06Z</time></trkpt><trkpt lat="44.51668813950947" lon="9.168860196300146"><ele>871.0</ele><time>2026-05-03T11:34:07Z</time></trkpt><trkpt lat="44.516753104704506" lon="9.168902479679462"><ele>871.0</ele><time>2026-05-03T11:34:08Z</time></trkpt><trkpt lat="44.51681368645264" lon="9.168937417134083"><ele>871.0</ele><time>2026-05-03T11:34:09Z</time></trkpt><trkpt lat="44.51690779048935" lon="9.168972458699937"><ele>870.9999999999999</ele><time>2026-05-03T11:34:11Z</time></trkpt><trkpt lat="44.51698993863926" lon="9.168985119527546"><ele>871.0</ele><time>2026-05-03T11:34:13Z</time></trkpt><trkpt lat="44.51706642365279" lon="9.168959154153795"><ele>873.0</ele><time>2026-05-03T11:34:15Z</time></trkpt><trkpt lat="44.51713460713089" lon="9.168914701801382"><ele>874.9999999999999</ele><time>2026-05-03T11:34:17Z</time></trkpt><trkpt lat="44.51721960138221" lon="9.168796265531999"><ele>876.9999999999999</ele><time>2026-05-03T11:34:19Z</time></trkpt><trkpt lat="44.51730713261827" lon="9.16870801449098"><ele>879.0</ele><time>2026-05-03T11:34:21Z</time></trkpt><trkpt lat="44.51737967028817" lon="9.168608645366726"><ele>881.0</ele><time>2026-05-03T11:34:23Z</time></trkpt><trkpt lat="44.51741938374815" lon="9.168515488850515"><ele>881.0</ele><time>2026-05-03T11:34:29Z</time></trkpt><trkpt lat="44.51746172243497" lon="9.168444477136084"><ele>881.0</ele><time>2026-05-03T11:34:31Z</time></trkpt><trkpt lat="44.51751651050008" lon="9.168377336401146"><ele>881.0</ele><time>2026-05-03T11:34:32Z</time></trkpt><trkpt lat="44.51756757594172" lon="9.16830664854327"><ele>881.0</ele><time>2026-05-03T11:34:33Z</time></trkpt><trkpt lat="44.51760158423034" lon="9.168225753230095"><ele>881.0</ele><time>2026-05-03T11:34:34Z</time></trkpt><trkpt lat="44.51762338471841" lon="9.168117298186651"><ele>881.0</ele><time>2026-05-03T11:34:35Z</time></trkpt><trkpt lat="44.517645946286656" lon="9.168031284937678"><ele>881.0</ele><time>2026-05-03T11:34:36Z</time></trkpt><trkpt lat="44.517677281668256" lon="9.167946795645594"><ele>880.5000000000001</ele><time>2026-05-03T11:34:37Z</time></trkpt><trkpt lat="44.51771485510298" lon="9.16786615802358"><ele>880.0</ele><time>2026-05-03T11:34:38Z</time></trkpt><trkpt lat="44.51777990180125" lon="9.167735851330253"><ele>879.5</ele><time>2026-05-03T11:34:40Z</time></trkpt><trkpt lat="44.5178368242843" lon="9.167638632118186"><ele>879.0</ele><time>2026-05-03T11:34:42Z</time></trkpt><trkpt lat="44.517906181349026" lon="9.167589614195384"><ele>878.5000000000001</ele><time>2026-05-03T11:34:44Z</time></trkpt><trkpt lat="44.517970469479515" lon="9.167554441406056"><ele>878.0</ele><time>2026-05-03T11:34:45Z</time></trkpt><trkpt lat="44.51804207929158" lon="9.167525007165414"><ele>877.8333333333334</ele><time>2026-05-03T11:34:46Z</time></trkpt><trkpt lat="44.51812693869968" lon="9.167474297039984"><ele>877.6666666666667</ele><time>2026-05-03T11:34:47Z</time></trkpt><trkpt lat="44.51820186760199" lon="9.167410500137924"><ele>877.5</ele><time>2026-05-03T11:34:48Z</time></trkpt><trkpt lat="44.518267997649396" lon="9.167347022931787"><ele>877.3333333333333</ele><time>2026-05-03T11:34:49Z</time></trkpt><trkpt lat="44.51833081768175" lon="9.167283359942914"><ele>877.1666666666666</ele><time>2026-05-03T11:34:50Z</time></trkpt><trkpt lat="44.51838985849276" lon="9.167223526996757"><ele>877.0</ele><time>2026-05-03T11:34:51Z</time></trkpt><trkpt lat="44.518444621258155" lon="9.167166016555742"><ele>876.9999999999999</ele><time>2026-05-03T11:34:52Z</time></trkpt><trkpt lat="44.518503439741885" lon="9.167104303771302"><ele>877.0</ele><time>2026-05-03T11:34:53Z</time></trkpt><trkpt lat="44.518555010877584" lon="9.167047697987947"><ele>877.0</ele><time>2026-05-03T11:34:54Z</time></trkpt><trkpt lat="44.518611007199524" lon="9.166989335347136"><ele>877.0</ele><time>2026-05-03T11:34:55Z</time></trkpt><trkpt lat="44.51867826018119" lon="9.166884668979005"><ele>876.9999999999999</ele><time>2026-05-03T11:34:57Z</time></trkpt><trkpt lat="44.51878172189887" lon="9.166773537352812"><ele>877.0</ele><time>2026-05-03T11:34:59Z</time></trkpt><trkpt lat="44.51886697617105" lon="9.166670466729506"><ele>876.3333333333333</ele><time>2026-05-03T11:35:01Z</time></trkpt><trkpt lat="44.51892891865817" lon="9.166632915599244"><ele>875.6666666666666</ele><time>2026-05-03T11:35:02Z</time></trkpt><trkpt lat="44.51898714265511" lon="9.166578415986173"><ele>875.0</ele><time>2026-05-03T11:35:03Z</time></trkpt><trkpt lat="44.51904482839996" lon="9.166449056591823"><ele>874.3333333333333</ele><time>2026-05-03T11:35:05Z</time></trkpt><trkpt lat="44.51910942822485" lon="9.166309229106142"><ele>873.6666666666666</ele><time>2026-05-03T11:35:07Z</time></trkpt><trkpt lat="44.51915636366128" lon="9.166234363707698"><ele>873.0</ele><time>2026-05-03T11:35:09Z</time></trkpt><trkpt lat="44.51924823510217" lon="9.166167123861761"><ele>873.0</ele><time>2026-05-03T11:35:12Z</time></trkpt><trkpt lat="44.51932004241365" lon="9.166083150092435"><ele>873.0</ele><time>2026-05-03T11:35:14Z</time></trkpt><trkpt lat="44.51939482290224" lon="9.1660529741921"><ele>873.0</ele><time>2026-05-03T11:35:16Z</time></trkpt><trkpt lat="44.51946082665148" lon="9.166012311889672"><ele>873.0</ele><time>2026-05-03T11:35:18Z</time></trkpt><trkpt lat="44.519515233760565" lon="9.165924469936476"><ele>873.0</ele><time>2026-05-03T11:35:21Z</time></trkpt><trkpt lat="44.519552225660995" lon="9.16566398418736"><ele>873.1666666666666</ele><time>2026-05-03T11:35:23Z</time></trkpt><trkpt lat="44.51963006429994" lon="9.165635926833279"><ele>873.3333333333333</ele><time>2026-05-03T11:35:24Z</time></trkpt><trkpt lat="44.519718208866365" lon="9.165617958022523"><ele>873.5</ele><time>2026-05-03T11:35:25Z</time></trkpt><trkpt lat="44.51979288277644" lon="9.16562182943471"><ele>873.6666666666666</ele><time>2026-05-03T11:35:26Z</time></trkpt><trkpt lat="44.519870278465156" lon="9.16557145205471"><ele>873.8333333333333</ele><time>2026-05-03T11:35:28Z</time></trkpt><trkpt lat="44.51988943276723" lon="9.165406567550452"><ele>874.0</ele><time>2026-05-03T11:35:30Z</time></trkpt><trkpt lat="44.51986482652817" lon="9.165323404833828"><ele>874.0</ele><time>2026-05-03T11:35:31Z</time></trkpt><trkpt lat="44.51985455468127" lon="9.165160201656665"><ele>874.0000000000001</ele><time>2026-05-03T11:35:33Z</time></trkpt><trkpt lat="44.51988233410707" lon="9.165050400903157"><ele>874.0000000000001</ele><time>2026-05-03T11:35:34Z</time></trkpt><trkpt lat="44.519904400395255" lon="9.164958093365776"><ele>874.0</ele><time>2026-05-03T11:35:35Z</time></trkpt><trkpt lat="44.5199623456909" lon="9.164816514648683"><ele>874.0</ele><time>2026-05-03T11:35:37Z</time></trkpt><trkpt lat="44.52002592963693" lon="9.164732541262701"><ele>874.0</ele><time>2026-05-03T11:35:39Z</time></trkpt><trkpt lat="44.52011196716813" lon="9.16478442895256"><ele>874.0000000000001</ele><time>2026-05-03T11:35:41Z</time></trkpt><trkpt lat="44.520173482763845" lon="9.164944179762541"><ele>874.0000000000001</ele><time>2026-05-03T11:35:43Z</time></trkpt><trkpt lat="44.5202106107587" lon="9.165037731120595"><ele>874.0</ele><time>2026-05-03T11:35:44Z</time></trkpt><trkpt lat="44.52025896374899" lon="9.165106125430027"><ele>874.0</ele><time>2026-05-03T11:35:45Z</time></trkpt><trkpt lat="44.52035871379389" lon="9.165135934077195"><ele>872.3333333333333</ele><time>2026-05-03T11:35:47Z</time></trkpt><trkpt lat="44.52042575788892" lon="9.165034896099405"><ele>870.6666666666666</ele><time>2026-05-03T11:35:49Z</time></trkpt><trkpt lat="44.52043936395744" lon="9.164941183372447"><ele>869.0</ele><time>2026-05-03T11:35:50Z</time></trkpt><trkpt lat="44.520455356303756" lon="9.16483100578615"><ele>867.3333333333333</ele><time>2026-05-03T11:35:51Z</time></trkpt><trkpt lat="44.52049755025869" lon="9.164726985848628"><ele>865.6666666666666</ele><time>2026-05-03T11:35:52Z</time></trkpt><trkpt lat="44.520551306842535" lon="9.16465651393709"><ele>864.0</ele><time>2026-05-03T11:35:53Z</time></trkpt><trkpt lat="44.520615960034405" lon="9.164576172637068"><ele>864.0</ele><time>2026-05-03T11:35:54Z</time></trkpt><trkpt lat="44.52068958600115" lon="9.164497700307113"><ele>864.0</ele><time>2026-05-03T11:35:55Z</time></trkpt><trkpt lat="44.52076810908178" lon="9.164429102700575"><ele>864.0</ele><time>2026-05-03T11:35:56Z</time></trkpt><trkpt lat="44.52083798017978" lon="9.164352520686144"><ele>864.0</ele><time>2026-05-03T11:35:57Z</time></trkpt><trkpt lat="44.52090283951045" lon="9.164290504413847"><ele>864.0</ele><time>2026-05-03T11:35:58Z</time></trkpt><trkpt lat="44.52096220471827" lon="9.164246377861131"><ele>864.0</ele><time>2026-05-03T11:35:59Z</time></trkpt><trkpt lat="44.52105554313679" lon="9.164154836824583"><ele>864.0</ele><time>2026-05-03T11:36:01Z</time></trkpt><trkpt lat="44.52114674703517" lon="9.164090600082595"><ele>864.0000000000001</ele><time>2026-05-03T11:36:03Z</time></trkpt><trkpt lat="44.52114816301426" lon="9.163838548726975"><ele>864.0000000000001</ele><time>2026-05-03T11:36:04Z</time></trkpt><trkpt lat="44.52123329162287" lon="9.163824528347233"><ele>864.0</ele><time>2026-05-03T11:36:05Z</time></trkpt><trkpt lat="44.52131151953449" lon="9.163829049709081"><ele>864.0</ele><time>2026-05-03T11:36:06Z</time></trkpt><trkpt lat="44.52137578550214" lon="9.163832679727548"><ele>866.4000000000001</ele><time>2026-05-03T11:36:06.999Z</time></trkpt><trkpt lat="44.52146513800655" lon="9.163910349292314"><ele>868.8000000000001</ele><time>2026-05-03T11:36:07.999Z</time></trkpt><trkpt lat="44.52155379136522" lon="9.16396590187388"><ele>871.1999999999999</ele><time>2026-05-03T11:36:09.999Z</time></trkpt><trkpt lat="44.52162458879162" lon="9.16400069524418"><ele>873.5999999999999</ele><time>2026-05-03T11:36:11.999Z</time></trkpt><trkpt lat="44.52174963237504" lon="9.164065022984447"><ele>876.0</ele><time>2026-05-03T11:36:13.999Z</time></trkpt><trkpt lat="44.52184631971538" lon="9.164086468647653"><ele>876.0</ele><time>2026-05-03T11:36:14.999Z</time></trkpt><trkpt lat="44.521950217163365" lon="9.164031575689215"><ele>876.0</ele><time>2026-05-03T11:36:15.999Z</time></trkpt><trkpt lat="44.52203354575188" lon="9.163941555099143"><ele>876.0</ele><time>2026-05-03T11:36:16.999Z</time></trkpt><trkpt lat="44.52210721083058" lon="9.163815876322568"><ele>876.0</ele><time>2026-05-03T11:36:17.999Z</time></trkpt><trkpt lat="44.52216363349499" lon="9.163662274420641"><ele>874.8</ele><time>2026-05-03T11:36:19Z</time></trkpt><trkpt lat="44.522226758140256" lon="9.163537391610419"><ele>873.5999999999999</ele><time>2026-05-03T11:36:20Z</time></trkpt><trkpt lat="44.52228996204785" lon="9.163451343448806"><ele>872.4</ele><time>2026-05-03T11:36:21Z</time></trkpt><trkpt lat="44.52237283172101" lon="9.16337887275254"><ele>871.2</ele><time>2026-05-03T11:36:22Z</time></trkpt><trkpt lat="44.52247030720224" lon="9.163334085491277"><ele>870.0</ele><time>2026-05-03T11:36:23Z</time></trkpt><trkpt lat="44.52257856211189" lon="9.163305041960479"><ele>870.0</ele><time>2026-05-03T11:36:24Z</time></trkpt><trkpt lat="44.52268298710232" lon="9.163257682321259"><ele>870.0</ele><time>2026-05-03T11:36:25Z</time></trkpt><trkpt lat="44.52276552596043" lon="9.163158411584613"><ele>870.0</ele><time>2026-05-03T11:36:26Z</time></trkpt><trkpt lat="44.52280448051379" lon="9.163016952886446"><ele>870.0</ele><time>2026-05-03T11:36:27Z</time></trkpt><trkpt lat="44.52282421305011" lon="9.162861733332914"><ele>870.0</ele><time>2026-05-03T11:36:28Z</time></trkpt><trkpt lat="44.52285600095276" lon="9.162735096667113"><ele>871.6</ele><time>2026-05-03T11:36:29Z</time></trkpt><trkpt lat="44.522920545571196" lon="9.162630231530168"><ele>873.2</ele><time>2026-05-03T11:36:30Z</time></trkpt><trkpt lat="44.52301456353461" lon="9.162585088995392"><ele>874.8</ele><time>2026-05-03T11:36:31Z</time></trkpt><trkpt lat="44.523117277591396" lon="9.162580441211842"><ele>876.4</ele><time>2026-05-03T11:36:32Z</time></trkpt><trkpt lat="44.52322314796231" lon="9.16256236646394"><ele>878.0</ele><time>2026-05-03T11:36:33Z</time></trkpt><trkpt lat="44.523323021733745" lon="9.162593505365997"><ele>878.0</ele><time>2026-05-03T11:36:34Z</time></trkpt><trkpt lat="44.52339219124072" lon="9.162509025871806"><ele>878.0</ele><time>2026-05-03T11:36:35Z</time></trkpt><trkpt lat="44.52346641182877" lon="9.162401325041595"><ele>878.0</ele><time>2026-05-03T11:36:36Z</time></trkpt><trkpt lat="44.52354840796017" lon="9.162307378183627"><ele>878.0</ele><time>2026-05-03T11:36:37Z</time></trkpt><trkpt lat="44.523635611219184" lon="9.162225884417786"><ele>878.0</ele><time>2026-05-03T11:36:38Z</time></trkpt><trkpt lat="44.523722463926035" lon="9.162144122806628"><ele>878.0</ele><time>2026-05-03T11:36:39Z</time></trkpt><trkpt lat="44.5238094890866" lon="9.162058321293658"><ele>878.0</ele><time>2026-05-03T11:36:40Z</time></trkpt><trkpt lat="44.523895703187414" lon="9.161977709664539"><ele>878.0</ele><time>2026-05-03T11:36:41Z</time></trkpt><trkpt lat="44.52398694114442" lon="9.161929041499237"><ele>878.0</ele><time>2026-05-03T11:36:42Z</time></trkpt><trkpt lat="44.52409109870881" lon="9.161924015809067"><ele>878.0</ele><time>2026-05-03T11:36:43Z</time></trkpt><trkpt lat="44.52420177339851" lon="9.161936248762949"><ele>878.0000000000001</ele><time>2026-05-03T11:36:44Z</time></trkpt><trkpt lat="44.52430210883904" lon="9.161957361958198"><ele>878.0</ele><time>2026-05-03T11:36:45Z</time></trkpt><trkpt lat="44.52438755678592" lon="9.161965667890234"><ele>878.0</ele><time>2026-05-03T11:36:46Z</time></trkpt><trkpt lat="44.52444966904955" lon="9.16190874024144"><ele>878.0</ele><time>2026-05-03T11:36:47Z</time></trkpt><trkpt lat="44.524476635425096" lon="9.161809174355199"><ele>878.0000000000001</ele><time>2026-05-03T11:36:48Z</time></trkpt><trkpt lat="44.52446223611833" lon="9.161690578059545"><ele>878.0</ele><time>2026-05-03T11:36:49Z</time></trkpt><trkpt lat="44.52445773923939" lon="9.161551256442058"><ele>876.0</ele><time>2026-05-03T11:36:50Z</time></trkpt><trkpt lat="44.524471698089606" lon="9.161412921931923"><ele>874.0</ele><time>2026-05-03T11:36:51Z</time></trkpt><trkpt lat="44.52450379602775" lon="9.16125944702403"><ele>872.0</ele><time>2026-05-03T11:36:52Z</time></trkpt><trkpt lat="44.52455117623202" lon="9.161100603155765"><ele>870.0</ele><time>2026-05-03T11:36:53Z</time></trkpt><trkpt lat="44.52460809730338" lon="9.160936490421157"><ele>873.0</ele><time>2026-05-03T11:36:54Z</time></trkpt><trkpt lat="44.52466252219631" lon="9.160769149421267"><ele>876.0</ele><time>2026-05-03T11:36:55Z</time></trkpt><trkpt lat="44.52472626134098" lon="9.1606157783107"><ele>879.0</ele><time>2026-05-03T11:36:56Z</time></trkpt><trkpt lat="44.524805748723246" lon="9.16048229060044"><ele>882.0</ele><time>2026-05-03T11:36:57Z</time></trkpt><trkpt lat="44.524900235822784" lon="9.16038207832124"><ele>882.0</ele><time>2026-05-03T11:36:58Z</time></trkpt><trkpt lat="44.52501364359835" lon="9.160341161015351"><ele>882.0</ele><time>2026-05-03T11:36:59Z</time></trkpt><trkpt lat="44.52513459312382" lon="9.160353540473924"><ele>882.0</ele><time>2026-05-03T11:37:00Z</time></trkpt><trkpt lat="44.52525936452878" lon="9.160399512217982"><ele>882.0</ele><time>2026-05-03T11:37:01Z</time></trkpt><trkpt lat="44.52538607751397" lon="9.160440258136983"><ele>886.8</ele><time>2026-05-03T11:37:02Z</time></trkpt><trkpt lat="44.52550717607479" lon="9.160422393814704"><ele>891.6</ele><time>2026-05-03T11:37:03Z</time></trkpt><trkpt lat="44.52560555308108" lon="9.160371408182568"><ele>896.3999999999999</ele><time>2026-05-03T11:37:04Z</time></trkpt><trkpt lat="44.525661181101185" lon="9.160272073568562"><ele>901.1999999999999</ele><time>2026-05-03T11:37:05Z</time></trkpt><trkpt lat="44.5256776222437" lon="9.16013037272711"><ele>906.0</ele><time>2026-05-03T11:37:06Z</time></trkpt><trkpt lat="44.52566248890924" lon="9.16000276026911"><ele>906.0</ele><time>2026-05-03T11:37:07Z</time></trkpt><trkpt lat="44.525567779745145" lon="9.159881741781938"><ele>905.9999999999999</ele><time>2026-05-03T11:37:08Z</time></trkpt><trkpt lat="44.52549978021987" lon="9.1597687688221"><ele>905.9999999999999</ele><time>2026-05-03T11:37:09Z</time></trkpt><trkpt lat="44.52548535702404" lon="9.15963808759596"><ele>906.0</ele><time>2026-05-03T11:37:10Z</time></trkpt><trkpt lat="44.5255028961539" lon="9.159486662116773"><ele>906.0</ele><time>2026-05-03T11:37:11Z</time></trkpt><trkpt lat="44.52553650388594" lon="9.159300973321008"><ele>907.5</ele><time>2026-05-03T11:37:12Z</time></trkpt><trkpt lat="44.52559100145646" lon="9.159116070833553"><ele>909.0</ele><time>2026-05-03T11:37:13Z</time></trkpt><trkpt lat="44.5256290713487" lon="9.15894082919972"><ele>910.5</ele><time>2026-05-03T11:37:14Z</time></trkpt><trkpt lat="44.52566216348466" lon="9.15878147775323"><ele>912.0</ele><time>2026-05-03T11:37:15Z</time></trkpt><trkpt lat="44.52568000341724" lon="9.158620052808933"><ele>912.0</ele><time>2026-05-03T11:37:16Z</time></trkpt><trkpt lat="44.52566318433849" lon="9.158441561172383"><ele>912.0</ele><time>2026-05-03T11:37:17Z</time></trkpt><trkpt lat="44.52558794839096" lon="9.158283516702761"><ele>912.0</ele><time>2026-05-03T11:37:18Z</time></trkpt><trkpt lat="44.52557032783473" lon="9.158131606970612"><ele>912.0</ele><time>2026-05-03T11:37:19Z</time></trkpt><trkpt lat="44.52560651801487" lon="9.15795983651569"><ele>912.0</ele><time>2026-05-03T11:37:20Z</time></trkpt><trkpt lat="44.52566889272136" lon="9.15777713048339"><ele>912.0</ele><time>2026-05-03T11:37:21Z</time></trkpt><trkpt lat="44.52573616736262" lon="9.157586793401007"><ele>912.0</ele><time>2026-05-03T11:37:22Z</time></trkpt><trkpt lat="44.52580159929526" lon="9.157377445266663"><ele>910.6666666666667</ele><time>2026-05-03T11:37:23Z</time></trkpt><trkpt lat="44.525869952657615" lon="9.157153267411072"><ele>909.3333333333334</ele><time>2026-05-03T11:37:24Z</time></trkpt><trkpt lat="44.52593529267511" lon="9.156949533569374"><ele>908.0</ele><time>2026-05-03T11:37:25Z</time></trkpt><trkpt lat="44.52598711129996" lon="9.156790939640379"><ele>908.0000000000001</ele><time>2026-05-03T11:37:26Z</time></trkpt><trkpt lat="44.52605465094749" lon="9.156699852902587"><ele>908.0</ele><time>2026-05-03T11:37:27Z</time></trkpt><trkpt lat="44.52612295866041" lon="9.15668910286283"><ele>908.0</ele><time>2026-05-03T11:37:28Z</time></trkpt><trkpt lat="44.52618977262953" lon="9.156781651133503"><ele>908.0</ele><time>2026-05-03T11:37:29Z</time></trkpt><trkpt lat="44.52623987184871" lon="9.15690070351611"><ele>908.0000000000001</ele><time>2026-05-03T11:37:30Z</time></trkpt><trkpt lat="44.52622659139024" lon="9.157015817477527"><ele>908.0</ele><time>2026-05-03T11:37:31Z</time></trkpt><trkpt lat="44.52612011847961" lon="9.157085255716714"><ele>908.0</ele><time>2026-05-03T11:37:32Z</time></trkpt><trkpt lat="44.52604687083954" lon="9.157212497085961"><ele>908.0</ele><time>2026-05-03T11:37:33Z</time></trkpt><trkpt lat="44.52597573113887" lon="9.157366558104636"><ele>908.0</ele><time>2026-05-03T11:37:34Z</time></trkpt><trkpt lat="44.525936965522156" lon="9.157547171098932"><ele>908.0</ele><time>2026-05-03T11:37:35Z</time></trkpt><trkpt lat="44.52592460959183" lon="9.157737856441432"><ele>909.0</ele><time>2026-05-03T11:37:36Z</time></trkpt><trkpt lat="44.52590608164627" lon="9.15793788562729"><ele>910.0</ele><time>2026-05-03T11:37:37Z</time></trkpt><trkpt lat="44.52588708195113" lon="9.158138929651939"><ele>911.0</ele><time>2026-05-03T11:37:38Z</time></trkpt><trkpt lat="44.52590098807952" lon="9.158321052174246"><ele>912.0</ele><time>2026-05-03T11:37:39Z</time></trkpt><trkpt lat="44.525964772163185" lon="9.158485382691238"><ele>912.0</ele><time>2026-05-03T11:37:40Z</time></trkpt><trkpt lat="44.526014983218865" lon="9.15865795994236"><ele>912.0</ele><time>2026-05-03T11:37:41Z</time></trkpt><trkpt lat="44.525996406144856" lon="9.158811334969247"><ele>912.0</ele><time>2026-05-03T11:37:42Z</time></trkpt><trkpt lat="44.52595288066651" lon="9.15898432575303"><ele>912.0</ele><time>2026-05-03T11:37:43Z</time></trkpt><trkpt lat="44.52593903844223" lon="9.159147138711663"><ele>912.0</ele><time>2026-05-03T11:37:44Z</time></trkpt><trkpt lat="44.52595760465831" lon="9.159287007037088"><ele>912.0</ele><time>2026-05-03T11:37:45Z</time></trkpt><trkpt lat="44.52603312433034" lon="9.159414242826037"><ele>912.0</ele><time>2026-05-03T11:37:46Z</time></trkpt><trkpt lat="44.526135126111306" lon="9.159493646146599"><ele>912.0</ele><time>2026-05-03T11:37:47Z</time></trkpt><trkpt lat="44.526245200987724" lon="9.159509806743763"><ele>912.0</ele><time>2026-05-03T11:37:48Z</time></trkpt><trkpt lat="44.526365121912555" lon="9.159462603974875"><ele>916.5</ele><time>2026-05-03T11:37:49Z</time></trkpt><trkpt lat="44.52649040993591" lon="9.159413917462857"><ele>921.0</ele><time>2026-05-03T11:37:50Z</time></trkpt><trkpt lat="44.526617410923606" lon="9.15938640682331"><ele>925.5</ele><time>2026-05-03T11:37:51Z</time></trkpt><trkpt lat="44.52674235914899" lon="9.159366768446844"><ele>930.0</ele><time>2026-05-03T11:37:52Z</time></trkpt><trkpt lat="44.52686121413184" lon="9.15935384396543"><ele>930.0</ele><time>2026-05-03T11:37:53Z</time></trkpt><trkpt lat="44.526966315410164" lon="9.159376472669418"><ele>930.0</ele><time>2026-05-03T11:37:54Z</time></trkpt><trkpt lat="44.52703661219073" lon="9.159503807651776"><ele>930.0</ele><time>2026-05-03T11:37:55Z</time></trkpt><trkpt lat="44.52706909971603" lon="9.15965905774275"><ele>930.0</ele><time>2026-05-03T11:37:56Z</time></trkpt><trkpt lat="44.52709230759781" lon="9.159830445794174"><ele>927.75</ele><time>2026-05-03T11:37:57Z</time></trkpt><trkpt lat="44.527044206643225" lon="9.159998058196287"><ele>925.5</ele><time>2026-05-03T11:37:58Z</time></trkpt><trkpt lat="44.52692990604783" lon="9.160123254018453"><ele>923.25</ele><time>2026-05-03T11:37:59Z</time></trkpt><trkpt lat="44.526877632576976" lon="9.160278825937239"><ele>921.0</ele><time>2026-05-03T11:38:00Z</time></trkpt><trkpt lat="44.526859338091846" lon="9.160442989644284"><ele>921.0</ele><time>2026-05-03T11:38:01Z</time></trkpt><trkpt lat="44.52689811079688" lon="9.160617735658048"><ele>921.0</ele><time>2026-05-03T11:38:02Z</time></trkpt><trkpt lat="44.52697561646849" lon="9.160775832658368"><ele>921.0</ele><time>2026-05-03T11:38:03Z</time></trkpt><trkpt lat="44.52705686623768" lon="9.160924273297857"><ele>921.0</ele><time>2026-05-03T11:38:04Z</time></trkpt><trkpt lat="44.52712051142714" lon="9.161092141422507"><ele>927.5</ele><time>2026-05-03T11:38:05Z</time></trkpt><trkpt lat="44.5271266919757" lon="9.16127564785106"><ele>934.0</ele><time>2026-05-03T11:38:06Z</time></trkpt><trkpt lat="44.52715090755794" lon="9.161435863587553"><ele>940.5</ele><time>2026-05-03T11:38:07Z</time></trkpt><trkpt lat="44.527191454905136" lon="9.16157565136507"><ele>947.0</ele><time>2026-05-03T11:38:08Z</time></trkpt><trkpt lat="44.52727439310301" lon="9.161691813003252"><ele>947.0</ele><time>2026-05-03T11:38:09Z</time></trkpt><trkpt lat="44.527379574203444" lon="9.161748483170989"><ele>947.0</ele><time>2026-05-03T11:38:10Z</time></trkpt><trkpt lat="44.52743593210607" lon="9.161806373683335"><ele>947.0</ele><time>2026-05-03T11:38:11Z</time></trkpt><trkpt lat="44.52745053477221" lon="9.1619455590108"><ele>947.0</ele><time>2026-05-03T11:38:12Z</time></trkpt><trkpt lat="44.52741861832913" lon="9.162102541927885"><ele>947.0</ele><time>2026-05-03T11:38:12.999Z</time></trkpt><trkpt lat="44.527383671342506" lon="9.162280633535149"><ele>947.3333333333334</ele><time>2026-05-03T11:38:13.999Z</time></trkpt><trkpt lat="44.52734480260692" lon="9.162483751393609"><ele>947.6666666666667</ele><time>2026-05-03T11:38:14.999Z</time></trkpt><trkpt lat="44.52731366778235" lon="9.162707823057435"><ele>948.0</ele><time>2026-05-03T11:38:15.999Z</time></trkpt><trkpt lat="44.52724930369642" lon="9.162916791128145"><ele>948.0</ele><time>2026-05-03T11:38:16.999Z</time></trkpt><trkpt lat="44.52719359895216" lon="9.16313820379971"><ele>948.0</ele><time>2026-05-03T11:38:17.999Z</time></trkpt><trkpt lat="44.52719568572464" lon="9.163365611877072"><ele>948.0</ele><time>2026-05-03T11:38:18.999Z</time></trkpt><trkpt lat="44.527194883779465" lon="9.163592389715145"><ele>949.0</ele><time>2026-05-03T11:38:19.999Z</time></trkpt><trkpt lat="44.52721448171186" lon="9.163818663335705"><ele>950.0</ele><time>2026-05-03T11:38:20.999Z</time></trkpt><trkpt lat="44.527229981627436" lon="9.164055266572472"><ele>951.0</ele><time>2026-05-03T11:38:21.999Z</time></trkpt><trkpt lat="44.527255320742434" lon="9.164222347235489"><ele>951.0</ele><time>2026-05-03T11:38:22.999Z</time></trkpt><trkpt lat="44.52736326358988" lon="9.164337748771253"><ele>951.0</ele><time>2026-05-03T11:38:23.999Z</time></trkpt><trkpt lat="44.52746138153939" lon="9.164365955811244"><ele>951.0</ele><time>2026-05-03T11:38:24.999Z</time></trkpt><trkpt lat="44.52759744220297" lon="9.164369510321949"><ele>951.0</ele><time>2026-05-03T11:38:25.999Z</time></trkpt><trkpt lat="44.5277520635275" lon="9.164360333313223"><ele>958.0</ele><time>2026-05-03T11:38:26.999Z</time></trkpt><trkpt lat="44.527897209376086" lon="9.164365917438445"><ele>965.0</ele><time>2026-05-03T11:38:27.999Z</time></trkpt><trkpt lat="44.52804282018275" lon="9.164429739015114"><ele>972.0</ele><time>2026-05-03T11:38:29Z</time></trkpt><trkpt lat="44.52815791460748" lon="9.16457732036644"><ele>972.0</ele><time>2026-05-03T11:38:30Z</time></trkpt><trkpt lat="44.528254011646695" lon="9.164725462654184"><ele>972.0</ele><time>2026-05-03T11:38:31Z</time></trkpt><trkpt lat="44.528356783387075" lon="9.164867088245018"><ele>972.0</ele><time>2026-05-03T11:38:32Z</time></trkpt><trkpt lat="44.52840481897125" lon="9.165065754053938"><ele>972.0</ele><time>2026-05-03T11:38:33Z</time></trkpt><trkpt lat="44.52846337287124" lon="9.165244525594705"><ele>967.75</ele><time>2026-05-03T11:38:34Z</time></trkpt><trkpt lat="44.528548042329135" lon="9.16543805543522"><ele>963.5</ele><time>2026-05-03T11:38:35Z</time></trkpt><trkpt lat="44.52863235716919" lon="9.165611761471943"><ele>959.25</ele><time>2026-05-03T11:38:36Z</time></trkpt><trkpt lat="44.52873120075431" lon="9.165711984287297"><ele>955.0</ele><time>2026-05-03T11:38:37Z</time></trkpt><trkpt lat="44.52884716529329" lon="9.165716573837363"><ele>961.75</ele><time>2026-05-03T11:38:38Z</time></trkpt><trkpt lat="44.52894798335355" lon="9.1656627490585"><ele>968.5</ele><time>2026-05-03T11:38:39Z</time></trkpt><trkpt lat="44.52904491839697" lon="9.165580842688643"><ele>975.25</ele><time>2026-05-03T11:38:40Z</time></trkpt><trkpt lat="44.529123791121755" lon="9.165418274141526"><ele>982.0</ele><time>2026-05-03T11:38:41Z</time></trkpt><trkpt lat="44.52920243801258" lon="9.16530582329435"><ele>982.0</ele><time>2026-05-03T11:38:42Z</time></trkpt><trkpt lat="44.52929985951028" lon="9.165293996754935"><ele>982.0</ele><time>2026-05-03T11:38:43Z</time></trkpt><trkpt lat="44.52939087775338" lon="9.165355314253087"><ele>982.0</ele><time>2026-05-03T11:38:44Z</time></trkpt><trkpt lat="44.529492942154334" lon="9.165437188666557"><ele>982.0</ele><time>2026-05-03T11:38:45Z</time></trkpt><trkpt lat="44.52963141488771" lon="9.165539063503456"><ele>979.3333333333333</ele><time>2026-05-03T11:38:46Z</time></trkpt><trkpt lat="44.529780230105416" lon="9.165651397433866"><ele>976.6666666666667</ele><time>2026-05-03T11:38:47Z</time></trkpt><trkpt lat="44.529907432288965" lon="9.165757573641658"><ele>974.0</ele><time>2026-05-03T11:38:48Z</time></trkpt><trkpt lat="44.530050732020236" lon="9.165882745801179"><ele>974.0</ele><time>2026-05-03T11:38:49Z</time></trkpt><trkpt lat="44.5301957571672" lon="9.166011455520344"><ele>974.0</ele><time>2026-05-03T11:38:50Z</time></trkpt><trkpt lat="44.530321164089756" lon="9.166133748368825"><ele>974.0</ele><time>2026-05-03T11:38:51Z</time></trkpt><trkpt lat="44.53043518741946" lon="9.166215499192484"><ele>979.0</ele><time>2026-05-03T11:38:52Z</time></trkpt><trkpt lat="44.530572285156964" lon="9.166222632370955"><ele>984.0</ele><time>2026-05-03T11:38:53Z</time></trkpt><trkpt lat="44.530733056975" lon="9.166224839927118"><ele>989.0</ele><time>2026-05-03T11:38:54Z</time></trkpt><trkpt lat="44.53089606220689" lon="9.166219977103172"><ele>989.0</ele><time>2026-05-03T11:38:55Z</time></trkpt><trkpt lat="44.531032058415974" lon="9.166267065404941"><ele>989.0</ele><time>2026-05-03T11:38:56Z</time></trkpt><trkpt lat="44.53114180676983" lon="9.1663785213572"><ele>989.0</ele><time>2026-05-03T11:38:57Z</time></trkpt><trkpt lat="44.53126660580114" lon="9.166470388827086"><ele>989.0</ele><time>2026-05-03T11:38:58Z</time></trkpt><trkpt lat="44.53137519997602" lon="9.166513312091357"><ele>989.5</ele><time>2026-05-03T11:38:59Z</time></trkpt><trkpt lat="44.531467826521485" lon="9.166433291764573"><ele>990.0</ele><time>2026-05-03T11:39:00Z</time></trkpt><trkpt lat="44.5315526743634" lon="9.166350569613163"><ele>990.5</ele><time>2026-05-03T11:39:01Z</time></trkpt><trkpt lat="44.53161090677204" lon="9.166181175738096"><ele>991.0</ele><time>2026-05-03T11:39:02Z</time></trkpt><trkpt lat="44.53168948302659" lon="9.16601968360032"><ele>991.0</ele><time>2026-05-03T11:39:03Z</time></trkpt><trkpt lat="44.53181014937149" lon="9.16591043464783"><ele>991.0</ele><time>2026-05-03T11:39:04Z</time></trkpt><trkpt lat="44.5319378754262" lon="9.16580501914235"><ele>991.0</ele><time>2026-05-03T11:39:05Z</time></trkpt><trkpt lat="44.532057520070936" lon="9.165679033401428"><ele>991.0</ele><time>2026-05-03T11:39:06Z</time></trkpt><trkpt lat="44.53217010634694" lon="9.165577844267155"><ele>992.0</ele><time>2026-05-03T11:39:07Z</time></trkpt><trkpt lat="44.53226274667524" lon="9.16552759984201"><ele>992.9999999999999</ele><time>2026-05-03T11:39:08Z</time></trkpt><trkpt lat="44.53235549111464" lon="9.165540077143739"><ele>993.9999999999999</ele><time>2026-05-03T11:39:09Z</time></trkpt><trkpt lat="44.53242225944981" lon="9.165683043820351"><ele>995.0</ele><time>2026-05-03T11:39:10Z</time></trkpt><trkpt lat="44.53247779601189" lon="9.165834647454675"><ele>996.0</ele><time>2026-05-03T11:39:11Z</time></trkpt><trkpt lat="44.53246964836314" lon="9.166028263555111"><ele>996.0</ele><time>2026-05-03T11:39:12Z</time></trkpt><trkpt lat="44.53247924160365" lon="9.166259822542141"><ele>996.0</ele><time>2026-05-03T11:39:13Z</time></trkpt><trkpt lat="44.53249217421869" lon="9.166496437069393"><ele>996.0</ele><time>2026-05-03T11:39:14Z</time></trkpt><trkpt lat="44.53250934099104" lon="9.166755942527507"><ele>994.3333333333333</ele><time>2026-05-03T11:39:15Z</time></trkpt><trkpt lat="44.53254347747441" lon="9.167007851061992"><ele>992.6666666666666</ele><time>2026-05-03T11:39:16Z</time></trkpt><trkpt lat="44.53258705218061" lon="9.167253554004214"><ele>991.0</ele><time>2026-05-03T11:39:17Z</time></trkpt><trkpt lat="44.53265068836309" lon="9.167476464465846"><ele>988.3333333333333</ele><time>2026-05-03T11:39:18Z</time></trkpt><trkpt lat="44.53271769362725" lon="9.167656722077837"><ele>985.6666666666667</ele><time>2026-05-03T11:39:19Z</time></trkpt><trkpt lat="44.53281579751033" lon="9.16782084853739"><ele>983.0</ele><time>2026-05-03T11:39:20Z</time></trkpt><trkpt lat="44.532927287061845" lon="9.167975673126442"><ele>989.3333333333334</ele><time>2026-05-03T11:39:21Z</time></trkpt><trkpt lat="44.53305541153286" lon="9.168113534714418"><ele>995.6666666666667</ele><time>2026-05-03T11:39:22Z</time></trkpt><trkpt lat="44.53321325303527" lon="9.168179457288577"><ele>1002.0</ele><time>2026-05-03T11:39:23Z</time></trkpt><trkpt lat="44.53334868931861" lon="9.168253919601588"><ele>1002.0</ele><time>2026-05-03T11:39:24Z</time></trkpt><trkpt lat="44.53345682714942" lon="9.168331590803207"><ele>1002.0</ele><time>2026-05-03T11:39:25Z</time></trkpt><trkpt lat="44.53350827024695" lon="9.168439831013128"><ele>1002.0</ele><time>2026-05-03T11:39:26Z</time></trkpt><trkpt lat="44.53351095448059" lon="9.168590611592752"><ele>1002.0</ele><time>2026-05-03T11:39:27Z</time></trkpt><trkpt lat="44.53349291937326" lon="9.168737882767592"><ele>1002.0</ele><time>2026-05-03T11:39:28Z</time></trkpt><trkpt lat="44.53340857021783" lon="9.168822388884166"><ele>1002.0</ele><time>2026-05-03T11:39:29Z</time></trkpt><trkpt lat="44.5332781454368" lon="9.168806313041289"><ele>1002.0</ele><time>2026-05-03T11:39:30Z</time></trkpt><trkpt lat="44.53314856264062" lon="9.168867003688089"><ele>1002.0</ele><time>2026-05-03T11:39:31Z</time></trkpt><trkpt lat="44.53300385713816" lon="9.168904530336997"><ele>1002.0</ele><time>2026-05-03T11:39:32Z</time></trkpt><trkpt lat="44.53285128736664" lon="9.168929125583979"><ele>1002.25</ele><time>2026-05-03T11:39:33Z</time></trkpt><trkpt lat="44.53271837168314" lon="9.168939106664958"><ele>1002.5</ele><time>2026-05-03T11:39:34Z</time></trkpt><trkpt lat="44.53261590416788" lon="9.16900575693291"><ele>1002.75</ele><time>2026-05-03T11:39:35Z</time></trkpt><trkpt lat="44.53256667630242" lon="9.169148347154135"><ele>1003.0</ele><time>2026-05-03T11:39:36Z</time></trkpt><trkpt lat="44.532538261174054" lon="9.16933926313364"><ele>1003.0</ele><time>2026-05-03T11:39:37Z</time></trkpt><trkpt lat="44.53248786413058" lon="9.16948837630004"><ele>1003.0</ele><time>2026-05-03T11:39:38Z</time></trkpt><trkpt lat="44.532371925392255" lon="9.169544269539918"><ele>1003.0</ele><time>2026-05-03T11:39:39Z</time></trkpt><trkpt lat="44.5322244306976" lon="9.169556429624212"><ele>1003.0</ele><time>2026-05-03T11:39:40Z</time></trkpt><trkpt lat="44.532106889911624" lon="9.169617703493461"><ele>1002.0</ele><time>2026-05-03T11:39:41Z</time></trkpt><trkpt lat="44.53201929119468" lon="9.169735439488749"><ele>1001.0</ele><time>2026-05-03T11:39:42Z</time></trkpt><trkpt lat="44.531957144923865" lon="9.169903833032148"><ele>1000.0</ele><time>2026-05-03T11:39:43Z</time></trkpt><trkpt lat="44.53192168658285" lon="9.170097816686795"><ele>999.0</ele><time>2026-05-03T11:39:44Z</time></trkpt><trkpt lat="44.531863904446936" lon="9.17030787182951"><ele>999.0</ele><time>2026-05-03T11:39:45Z</time></trkpt><trkpt lat="44.531748205951885" lon="9.170438540400445"><ele>999.0</ele><time>2026-05-03T11:39:46Z</time></trkpt><trkpt lat="44.531591081072186" lon="9.170528354532681"><ele>999.0</ele><time>2026-05-03T11:39:47Z</time></trkpt><trkpt lat="44.53144766247821" lon="9.170566147428733"><ele>999.0</ele><time>2026-05-03T11:39:48Z</time></trkpt><trkpt lat="44.53133899224874" lon="9.17065792232065"><ele>999.0</ele><time>2026-05-03T11:39:49Z</time></trkpt><trkpt lat="44.53124016080423" lon="9.170825871349923"><ele>999.0</ele><time>2026-05-03T11:39:50Z</time></trkpt><trkpt lat="44.53114109710114" lon="9.171013797749772"><ele>999.0</ele><time>2026-05-03T11:39:51Z</time></trkpt><trkpt lat="44.531055317611404" lon="9.171162604296972"><ele>998.2</ele><time>2026-05-03T11:39:52Z</time></trkpt><trkpt lat="44.530985512395716" lon="9.171261027376637"><ele>997.4000000000001</ele><time>2026-05-03T11:39:53Z</time></trkpt><trkpt lat="44.530951103759044" lon="9.171389520263778"><ele>996.6</ele><time>2026-05-03T11:39:54Z</time></trkpt><trkpt lat="44.53095860309741" lon="9.171479179954526"><ele>995.8</ele><time>2026-05-03T11:39:55Z</time></trkpt><trkpt lat="44.53103677484591" lon="9.171631197469596"><ele>995.0</ele><time>2026-05-03T11:39:57Z</time></trkpt><trkpt lat="44.53111780934621" lon="9.171753415836385"><ele>1001.25</ele><time>2026-05-03T11:39:58Z</time></trkpt><trkpt lat="44.53119410089541" lon="9.171880059234336"><ele>1007.5</ele><time>2026-05-03T11:39:59Z</time></trkpt><trkpt lat="44.53122748381435" lon="9.172056310687559"><ele>1013.75</ele><time>2026-05-03T11:40:00Z</time></trkpt><trkpt lat="44.53128251288388" lon="9.172179900631036"><ele>1020.0</ele><time>2026-05-03T11:40:01Z</time></trkpt><trkpt lat="44.53133727441853" lon="9.172302122381042"><ele>1020.25</ele><time>2026-05-03T11:40:02Z</time></trkpt><trkpt lat="44.5313933870225" lon="9.172419647897275"><ele>1020.5</ele><time>2026-05-03T11:40:03Z</time></trkpt><trkpt lat="44.53144293393901" lon="9.172543230953432"><ele>1020.75</ele><time>2026-05-03T11:40:04Z</time></trkpt><trkpt lat="44.53143739402478" lon="9.172756086083252"><ele>1021.0</ele><time>2026-05-03T11:40:05Z</time></trkpt><trkpt lat="44.531371764105074" lon="9.172997355729754"><ele>1021.3333333333333</ele><time>2026-05-03T11:40:06Z</time></trkpt><trkpt lat="44.53132616565322" lon="9.173211571714813"><ele>1021.6666666666667</ele><time>2026-05-03T11:40:07Z</time></trkpt><trkpt lat="44.531251871199025" lon="9.173399199744912"><ele>1022.0</ele><time>2026-05-03T11:40:08Z</time></trkpt><trkpt lat="44.531162664962366" lon="9.17355592115666"><ele>1022.0</ele><time>2026-05-03T11:40:09Z</time></trkpt><trkpt lat="44.53108974430088" lon="9.173686701844703"><ele>1022.0</ele><time>2026-05-03T11:40:10Z</time></trkpt><trkpt lat="44.5310694369569" lon="9.173825720352939"><ele>1022.0</ele><time>2026-05-03T11:40:11Z</time></trkpt><trkpt lat="44.53110607080694" lon="9.174000267747584"><ele>1022.0</ele><time>2026-05-03T11:40:12Z</time></trkpt><trkpt lat="44.53117790794369" lon="9.174189781041212"><ele>1020.6666666666667</ele><time>2026-05-03T11:40:13Z</time></trkpt><trkpt lat="44.531205445748306" lon="9.174405407455863"><ele>1019.3333333333333</ele><time>2026-05-03T11:40:14Z</time></trkpt><trkpt lat="44.53123405623693" lon="9.17463640806131"><ele>1018.0</ele><time>2026-05-03T11:40:15Z</time></trkpt><trkpt lat="44.53126189410302" lon="9.17485398098657"><ele>1016.5</ele><time>2026-05-03T11:40:16Z</time></trkpt><trkpt lat="44.53128000462378" lon="9.1750494441107"><ele>1015.0</ele><time>2026-05-03T11:40:17Z</time></trkpt><trkpt lat="44.53125967540533" lon="9.175211462266136"><ele>1013.5</ele><time>2026-05-03T11:40:18Z</time></trkpt><trkpt lat="44.531186786596386" lon="9.175357914937912"><ele>1012.0</ele><time>2026-05-03T11:40:19Z</time></trkpt><trkpt lat="44.53107538031235" lon="9.175493209982175"><ele>1012.0</ele><time>2026-05-03T11:40:20Z</time></trkpt><trkpt lat="44.53101552749627" lon="9.175674726327088"><ele>1012.0</ele><time>2026-05-03T11:40:21Z</time></trkpt><trkpt lat="44.531002307338824" lon="9.175867201055912"><ele>1012.0</ele><time>2026-05-03T11:40:22Z</time></trkpt><trkpt lat="44.53101679387233" lon="9.176079510225067"><ele>1012.0</ele><time>2026-05-03T11:40:23Z</time></trkpt><trkpt lat="44.53101095413754" lon="9.176188284565454"><ele>1008.2</ele><time>2026-05-03T11:40:24Z</time></trkpt><trkpt lat="44.53092850926462" lon="9.176197831862108"><ele>1004.4000000000001</ele><time>2026-05-03T11:40:25Z</time></trkpt><trkpt lat="44.530757369203236" lon="9.17603958591029"><ele>1000.5999999999999</ele><time>2026-05-03T11:40:27Z</time></trkpt><trkpt lat="44.53067399016339" lon="9.175991055132126"><ele>996.8</ele><time>2026-05-03T11:40:28Z</time></trkpt><trkpt lat="44.530624945476944" lon="9.17606314375211"><ele>993.0</ele><time>2026-05-03T11:40:29Z</time></trkpt><trkpt lat="44.53057888237895" lon="9.176158614930348"><ele>993.0</ele><time>2026-05-03T11:40:30Z</time></trkpt><trkpt lat="44.53057640304603" lon="9.176371683764494"><ele>993.0</ele><time>2026-05-03T11:40:31Z</time></trkpt><trkpt lat="44.530638580468256" lon="9.176487504618265"><ele>993.0</ele><time>2026-05-03T11:40:32Z</time></trkpt><trkpt lat="44.53070493546088" lon="9.176506215223265"><ele>993.0</ele><time>2026-05-03T11:40:33Z</time></trkpt><trkpt lat="44.530811654459946" lon="9.176492460828088"><ele>993.0</ele><time>2026-05-03T11:40:34Z</time></trkpt><trkpt lat="44.53093532285914" lon="9.176476039631257"><ele>993.0</ele><time>2026-05-03T11:40:35Z</time></trkpt><trkpt lat="44.53106938486118" lon="9.17642233564333"><ele>993.0</ele><time>2026-05-03T11:40:36Z</time></trkpt><trkpt lat="44.531165514740884" lon="9.176302059258145"><ele>993.0</ele><time>2026-05-03T11:40:37Z</time></trkpt><trkpt lat="44.53121719409829" lon="9.176154627088593"><ele>993.0</ele><time>2026-05-03T11:40:38Z</time></trkpt><trkpt lat="44.53119501709126" lon="9.175954595915586"><ele>993.0</ele><time>2026-05-03T11:40:39Z</time></trkpt><trkpt lat="44.53121195560571" lon="9.175767818298507"><ele>993.0</ele><time>2026-05-03T11:40:40Z</time></trkpt><trkpt lat="44.53128516191555" lon="9.175633269109927"><ele>993.0</ele><time>2026-05-03T11:40:41Z</time></trkpt><trkpt lat="44.5314023539221" lon="9.175567084932869"><ele>993.0</ele><time>2026-05-03T11:40:42Z</time></trkpt><trkpt lat="44.53150953213227" lon="9.175469590926093"><ele>989.8</ele><time>2026-05-03T11:40:43Z</time></trkpt><trkpt lat="44.531618729138515" lon="9.175374188543545"><ele>986.5999999999999</ele><time>2026-05-03T11:40:44Z</time></trkpt><trkpt lat="44.53170383128776" lon="9.175284590578514"><ele>983.4000000000001</ele><time>2026-05-03T11:40:45Z</time></trkpt><trkpt lat="44.53172507210271" lon="9.175160468988253"><ele>980.2</ele><time>2026-05-03T11:40:46Z</time></trkpt><trkpt lat="44.53168019786002" lon="9.175027603729173"><ele>977.0</ele><time>2026-05-03T11:40:47Z</time></trkpt><trkpt lat="44.531590469743506" lon="9.174876366707785"><ele>979.25</ele><time>2026-05-03T11:40:48Z</time></trkpt><trkpt lat="44.53156224307811" lon="9.174700613774002"><ele>981.5</ele><time>2026-05-03T11:40:49Z</time></trkpt><trkpt lat="44.53157631251645" lon="9.174543523659297"><ele>983.75</ele><time>2026-05-03T11:40:50Z</time></trkpt><trkpt lat="44.531647977730856" lon="9.174459117467457"><ele>986.0</ele><time>2026-05-03T11:40:51Z</time></trkpt><trkpt lat="44.531751775724736" lon="9.174350043303557"><ele>986.0</ele><time>2026-05-03T11:40:52Z</time></trkpt><trkpt lat="44.53184675583152" lon="9.174258751022023"><ele>986.0</ele><time>2026-05-03T11:40:53Z</time></trkpt><trkpt lat="44.531955755519824" lon="9.174230621653034"><ele>986.0</ele><time>2026-05-03T11:40:54Z</time></trkpt><trkpt lat="44.532076192672186" lon="9.174256036627428"><ele>986.0</ele><time>2026-05-03T11:40:55Z</time></trkpt><trkpt lat="44.53221179288757" lon="9.174296913823147"><ele>982.25</ele><time>2026-05-03T11:40:56Z</time></trkpt><trkpt lat="44.53233679023154" lon="9.174319151626278"><ele>978.5</ele><time>2026-05-03T11:40:57Z</time></trkpt><trkpt lat="44.532450692704266" lon="9.174338466132005"><ele>974.75</ele><time>2026-05-03T11:40:58Z</time></trkpt><trkpt lat="44.53256231707172" lon="9.174307789396956"><ele>971.0</ele><time>2026-05-03T11:40:59Z</time></trkpt><trkpt lat="44.53266273966126" lon="9.174244233937376"><ele>971.0</ele><time>2026-05-03T11:41:00Z</time></trkpt><trkpt lat="44.532769856360424" lon="9.174191590255205"><ele>970.9999999999999</ele><time>2026-05-03T11:41:01Z</time></trkpt><trkpt lat="44.532876418329316" lon="9.174171891521429"><ele>970.9999999999999</ele><time>2026-05-03T11:41:02Z</time></trkpt><trkpt lat="44.532980048509046" lon="9.174226758054738"><ele>971.0</ele><time>2026-05-03T11:41:03Z</time></trkpt><trkpt lat="44.533092192211804" lon="9.174256360273949"><ele>971.0</ele><time>2026-05-03T11:41:04Z</time></trkpt><trkpt lat="44.53319473256588" lon="9.17430931788421"><ele>970.8333333333334</ele><time>2026-05-03T11:41:05Z</time></trkpt><trkpt lat="44.533288068947634" lon="9.174341138665987"><ele>970.6666666666667</ele><time>2026-05-03T11:41:06Z</time></trkpt><trkpt lat="44.53337681542283" lon="9.17431853189672"><ele>970.5</ele><time>2026-05-03T11:41:07Z</time></trkpt><trkpt lat="44.5334541916913" lon="9.174241975886591"><ele>970.3333333333333</ele><time>2026-05-03T11:41:08Z</time></trkpt><trkpt lat="44.53352968683116" lon="9.174172933107146"><ele>970.1666666666666</ele><time>2026-05-03T11:41:09Z</time></trkpt><trkpt lat="44.53360198628968" lon="9.174207076019666"><ele>970.0</ele><time>2026-05-03T11:41:10Z</time></trkpt><trkpt lat="44.533671043057645" lon="9.174269951963302"><ele>970.2</ele><time>2026-05-03T11:41:11Z</time></trkpt><trkpt lat="44.53372775255296" lon="9.174359825491495"><ele>970.4</ele><time>2026-05-03T11:41:12Z</time></trkpt><trkpt lat="44.5337699833568" lon="9.174473695066757"><ele>970.5999999999999</ele><time>2026-05-03T11:41:13Z</time></trkpt><trkpt lat="44.53382021146269" lon="9.174594096864913"><ele>970.8</ele><time>2026-05-03T11:41:14Z</time></trkpt><trkpt lat="44.53388420667301" lon="9.174696836112258"><ele>971.0</ele><time>2026-05-03T11:41:15Z</time></trkpt><trkpt lat="44.533922770265015" lon="9.174801313516502"><ele>968.5000000000001</ele><time>2026-05-03T11:41:16Z</time></trkpt><trkpt lat="44.533977682280344" lon="9.17491163622482"><ele>966.0</ele><time>2026-05-03T11:41:17Z</time></trkpt><trkpt lat="44.53403371197469" lon="9.175021010314481"><ele>963.5</ele><time>2026-05-03T11:41:18Z</time></trkpt><trkpt lat="44.53408736695403" lon="9.175118127485801"><ele>961.0</ele><time>2026-05-03T11:41:19Z</time></trkpt><trkpt lat="44.534139319184014" lon="9.175219152899075"><ele>958.5000000000001</ele><time>2026-05-03T11:41:20Z</time></trkpt><trkpt lat="44.534193017586716" lon="9.175295190951612"><ele>956.0</ele><time>2026-05-03T11:41:21Z</time></trkpt><trkpt lat="44.53423988599269" lon="9.17535747515511"><ele>956.0</ele><time>2026-05-03T11:41:22Z</time></trkpt><trkpt lat="44.53430563040077" lon="9.175386123030998"><ele>955.9999999999999</ele><time>2026-05-03T11:41:23Z</time></trkpt><trkpt lat="44.534381536760826" lon="9.175426068252518"><ele>955.9999999999999</ele><time>2026-05-03T11:41:24Z</time></trkpt><trkpt lat="44.534487805121096" lon="9.175295454718755"><ele>956.0</ele><time>2026-05-03T11:41:25Z</time></trkpt><trkpt lat="44.534578727133415" lon="9.175234621727801"><ele>956.0</ele><time>2026-05-03T11:41:26Z</time></trkpt><trkpt lat="44.53468425484254" lon="9.175189648443501"><ele>955.8</ele><time>2026-05-03T11:41:27Z</time></trkpt><trkpt lat="44.534784865433345" lon="9.175151758320311"><ele>955.5999999999999</ele><time>2026-05-03T11:41:28Z</time></trkpt><trkpt lat="44.53489268863706" lon="9.175132623462881"><ele>955.4</ele><time>2026-05-03T11:41:29Z</time></trkpt><trkpt lat="44.53497517961956" lon="9.175162862537558"><ele>955.2</ele><time>2026-05-03T11:41:30Z</time></trkpt><trkpt lat="44.53503869532713" lon="9.175237239637674"><ele>955.0</ele><time>2026-05-03T11:41:31Z</time></trkpt><trkpt lat="44.53509967335794" lon="9.175323743081238"><ele>955.0</ele><time>2026-05-03T11:41:32Z</time></trkpt><trkpt lat="44.53517209894688" lon="9.17541077442366"><ele>955.0</ele><time>2026-05-03T11:41:33Z</time></trkpt><trkpt lat="44.53524377702214" lon="9.175509838772909"><ele>955.0</ele><time>2026-05-03T11:41:34Z</time></trkpt><trkpt lat="44.53531792405832" lon="9.175610024697875"><ele>955.0</ele><time>2026-05-03T11:41:35Z</time></trkpt><trkpt lat="44.53539385079523" lon="9.175702192813905"><ele>955.0</ele><time>2026-05-03T11:41:36Z</time></trkpt><trkpt lat="44.535476256371496" lon="9.175792677657277"><ele>952.4</ele><time>2026-05-03T11:41:37Z</time></trkpt><trkpt lat="44.535554263424665" lon="9.175875888275836"><ele>949.8</ele><time>2026-05-03T11:41:38Z</time></trkpt><trkpt lat="44.53562380019665" lon="9.17596837646755"><ele>947.2</ele><time>2026-05-03T11:41:39Z</time></trkpt><trkpt lat="44.53569129352993" lon="9.176060525195005"><ele>944.6</ele><time>2026-05-03T11:41:40Z</time></trkpt><trkpt lat="44.5357686800182" lon="9.176123621495167"><ele>942.0</ele><time>2026-05-03T11:41:41Z</time></trkpt><trkpt lat="44.53585798475415" lon="9.176142798377764"><ele>942.0</ele><time>2026-05-03T11:41:42Z</time></trkpt><trkpt lat="44.53594974131277" lon="9.176097634079822"><ele>942.0</ele><time>2026-05-03T11:41:43Z</time></trkpt><trkpt lat="44.536025014988255" lon="9.175990815847824"><ele>942.0</ele><time>2026-05-03T11:41:44Z</time></trkpt><trkpt lat="44.536115976248645" lon="9.175906660137464"><ele>942.0</ele><time>2026-05-03T11:41:45Z</time></trkpt><trkpt lat="44.53619766449529" lon="9.17592897112757"><ele>942.0</ele><time>2026-05-03T11:41:46Z</time></trkpt><trkpt lat="44.536302469689076" lon="9.17598769021657"><ele>942.4000000000001</ele><time>2026-05-03T11:41:47Z</time></trkpt><trkpt lat="44.53639745667158" lon="9.17608050895122"><ele>942.8000000000001</ele><time>2026-05-03T11:41:48Z</time></trkpt><trkpt lat="44.53649071642608" lon="9.17614287246289"><ele>943.2</ele><time>2026-05-03T11:41:49Z</time></trkpt><trkpt lat="44.536582289408024" lon="9.176192960917911"><ele>943.6</ele><time>2026-05-03T11:41:50Z</time></trkpt><trkpt lat="44.536687930487936" lon="9.176255006873369"><ele>944.0</ele><time>2026-05-03T11:41:51Z</time></trkpt><trkpt lat="44.53679482200337" lon="9.176311820286209"><ele>944.0</ele><time>2026-05-03T11:41:52Z</time></trkpt><trkpt lat="44.53689211122247" lon="9.176354612798194"><ele>944.0000000000001</ele><time>2026-05-03T11:41:53Z</time></trkpt><trkpt lat="44.53699447179721" lon="9.176391057659112"><ele>944.0000000000001</ele><time>2026-05-03T11:41:54Z</time></trkpt><trkpt lat="44.537101141184834" lon="9.176413365282093"><ele>944.0</ele><time>2026-05-03T11:41:55Z</time></trkpt><trkpt lat="44.53721438917128" lon="9.176434518453458"><ele>944.0</ele><time>2026-05-03T11:41:56Z</time></trkpt><trkpt lat="44.53732637384699" lon="9.176499816919293"><ele>942.25</ele><time>2026-05-03T11:41:57Z</time></trkpt><trkpt lat="44.537421883349374" lon="9.176605536006294"><ele>940.5</ele><time>2026-05-03T11:41:58Z</time></trkpt><trkpt lat="44.537498209682624" lon="9.176742072871887"><ele>938.75</ele><time>2026-05-03T11:41:59Z</time></trkpt><trkpt lat="44.53755287246221" lon="9.176883759095677"><ele>937.0</ele><time>2026-05-03T11:42:00Z</time></trkpt><trkpt lat="44.53761902930228" lon="9.17701720701469"><ele>937.0</ele><time>2026-05-03T11:42:01Z</time></trkpt><trkpt lat="44.537692846143884" lon="9.17712962434492"><ele>937.0</ele><time>2026-05-03T11:42:02Z</time></trkpt><trkpt lat="44.53777152313426" lon="9.177225239181265"><ele>937.0</ele><time>2026-05-03T11:42:03Z</time></trkpt><trkpt lat="44.53785890776667" lon="9.17728228487795"><ele>937.0</ele><time>2026-05-03T11:42:04Z</time></trkpt><trkpt lat="44.537961764595636" lon="9.177303118672766"><ele>937.0</ele><time>2026-05-03T11:42:05Z</time></trkpt><trkpt lat="44.53806715443234" lon="9.17728992142616"><ele>938.8</ele><time>2026-05-03T11:42:06Z</time></trkpt><trkpt lat="44.5381633416215" lon="9.177267713320726"><ele>940.6</ele><time>2026-05-03T11:42:07Z</time></trkpt><trkpt lat="44.53825246095286" lon="9.177238450985609"><ele>942.3999999999999</ele><time>2026-05-03T11:42:08Z</time></trkpt><trkpt lat="44.538345489625705" lon="9.177219651651669"><ele>944.1999999999999</ele><time>2026-05-03T11:42:09Z</time></trkpt><trkpt lat="44.53844471201633" lon="9.177222813045821"><ele>946.0</ele><time>2026-05-03T11:42:10Z</time></trkpt><trkpt lat="44.538543377666834" lon="9.177229760647903"><ele>946.0</ele><time>2026-05-03T11:42:11Z</time></trkpt><trkpt lat="44.53864410749887" lon="9.177252852001065"><ele>946.0</ele><time>2026-05-03T11:42:12Z</time></trkpt><trkpt lat="44.53875780620703" lon="9.177286492622649"><ele>946.0</ele><time>2026-05-03T11:42:13Z</time></trkpt><trkpt lat="44.538864302171014" lon="9.177391816879872"><ele>946.0</ele><time>2026-05-03T11:42:14Z</time></trkpt><trkpt lat="44.538994052909814" lon="9.177444051849603"><ele>941.0</ele><time>2026-05-03T11:42:15Z</time></trkpt><trkpt lat="44.539108422276115" lon="9.177483898237861"><ele>935.9999999999999</ele><time>2026-05-03T11:42:16Z</time></trkpt><trkpt lat="44.53920489374973" lon="9.177518252014682"><ele>930.9999999999999</ele><time>2026-05-03T11:42:17Z</time></trkpt><trkpt lat="44.53930689745774" lon="9.177537199915577"><ele>926.0</ele><time>2026-05-03T11:42:18Z</time></trkpt><trkpt lat="44.53940242428837" lon="9.177542993655404"><ele>921.0</ele><time>2026-05-03T11:42:19Z</time></trkpt><trkpt lat="44.539496315406545" lon="9.177556080247255"><ele>921.0</ele><time>2026-05-03T11:42:20Z</time></trkpt><trkpt lat="44.5395697393399" lon="9.177581783021802"><ele>921.0</ele><time>2026-05-03T11:42:21Z</time></trkpt><trkpt lat="44.53962619661584" lon="9.177645839456225"><ele>921.0</ele><time>2026-05-03T11:42:22Z</time></trkpt><trkpt lat="44.53964007482826" lon="9.17774806787223"><ele>921.0</ele><time>2026-05-03T11:42:23Z</time></trkpt><trkpt lat="44.53962077323146" lon="9.17785476505652"><ele>921.0</ele><time>2026-05-03T11:42:24Z</time></trkpt><trkpt lat="44.53955945546081" lon="9.177923326857869"><ele>921.0</ele><time>2026-05-03T11:42:25Z</time></trkpt><trkpt lat="44.539475822017366" lon="9.177929471815528"><ele>921.0</ele><time>2026-05-03T11:42:26Z</time></trkpt><trkpt lat="44.53938618023112" lon="9.177869299544918"><ele>921.0</ele><time>2026-05-03T11:42:27Z</time></trkpt><trkpt lat="44.53927898731063" lon="9.177779573312922"><ele>921.0</ele><time>2026-05-03T11:42:28Z</time></trkpt><trkpt lat="44.53915566085666" lon="9.17768579303057"><ele>921.0</ele><time>2026-05-03T11:42:29Z</time></trkpt><trkpt lat="44.53902089571569" lon="9.177598895002589"><ele>921.0</ele><time>2026-05-03T11:42:30Z</time></trkpt><trkpt lat="44.53887675777753" lon="9.177539604859229"><ele>921.0</ele><time>2026-05-03T11:42:31Z</time></trkpt><trkpt lat="44.53874405521189" lon="9.177470759590335"><ele>921.0</ele><time>2026-05-03T11:42:32Z</time></trkpt><trkpt lat="44.5386154136701" lon="9.17741967686206"><ele>921.0</ele><time>2026-05-03T11:42:33Z</time></trkpt><trkpt lat="44.53847825021092" lon="9.177482026473141"><ele>921.25</ele><time>2026-05-03T11:42:34Z</time></trkpt><trkpt lat="44.53835210584665" lon="9.177551115096954"><ele>921.5</ele><time>2026-05-03T11:42:35Z</time></trkpt><trkpt lat="44.538265586093814" lon="9.177662218848194"><ele>921.75</ele><time>2026-05-03T11:42:36Z</time></trkpt><trkpt lat="44.538223399483506" lon="9.177808876483613"><ele>922.0</ele><time>2026-05-03T11:42:37Z</time></trkpt><trkpt lat="44.53822486256457" lon="9.177971199582622"><ele>922.0</ele><time>2026-05-03T11:42:38Z</time></trkpt><trkpt lat="44.53826429735367" lon="9.178110942004421"><ele>922.0</ele><time>2026-05-03T11:42:39Z</time></trkpt><trkpt lat="44.53833219506398" lon="9.178244349476115"><ele>922.0</ele><time>2026-05-03T11:42:40Z</time></trkpt><trkpt lat="44.53837046766783" lon="9.17837769184428"><ele>922.0</ele><time>2026-05-03T11:42:41Z</time></trkpt><trkpt lat="44.53835158942146" lon="9.178511001628296"><ele>922.0</ele><time>2026-05-03T11:42:42Z</time></trkpt><trkpt lat="44.53825320363278" lon="9.178602075693401"><ele>919.25</ele><time>2026-05-03T11:42:43Z</time></trkpt><trkpt lat="44.53816427731793" lon="9.178737474150102"><ele>916.5</ele><time>2026-05-03T11:42:44Z</time></trkpt><trkpt lat="44.538061002321015" lon="9.17889152738264"><ele>913.75</ele><time>2026-05-03T11:42:45Z</time></trkpt><trkpt lat="44.53794731396177" lon="9.179034509733073"><ele>911.0</ele><time>2026-05-03T11:42:46Z</time></trkpt><trkpt lat="44.53781716104642" lon="9.179175974167764"><ele>908.0</ele><time>2026-05-03T11:42:47Z</time></trkpt><trkpt lat="44.537781199300014" lon="9.179424679995424"><ele>905.0</ele><time>2026-05-03T11:42:48Z</time></trkpt><trkpt lat="44.53773367061473" lon="9.179638202199982"><ele>902.0</ele><time>2026-05-03T11:42:49Z</time></trkpt><trkpt lat="44.5377078612285" lon="9.179860806608708"><ele>901.5</ele><time>2026-05-03T11:42:50Z</time></trkpt><trkpt lat="44.53768362462027" lon="9.180065898234286"><ele>901.0</ele><time>2026-05-03T11:42:51Z</time></trkpt><trkpt lat="44.53766574825372" lon="9.18024782646874"><ele>900.5</ele><time>2026-05-03T11:42:52Z</time></trkpt><trkpt lat="44.537675853367624" lon="9.180388065991117"><ele>900.0</ele><time>2026-05-03T11:42:53Z</time></trkpt><trkpt lat="44.53774716785173" lon="9.180505576814596"><ele>900.0</ele><time>2026-05-03T11:42:54Z</time></trkpt><trkpt lat="44.537863636656645" lon="9.18057081136629"><ele>900.0</ele><time>2026-05-03T11:42:55Z</time></trkpt><trkpt lat="44.53799401513272" lon="9.18054307604745"><ele>900.0</ele><time>2026-05-03T11:42:56Z</time></trkpt><trkpt lat="44.53807262183964" lon="9.180422535267386"><ele>900.0</ele><time>2026-05-03T11:42:57Z</time></trkpt><trkpt lat="44.538113250143525" lon="9.180248373001389"><ele>899.5</ele><time>2026-05-03T11:42:58Z</time></trkpt><trkpt lat="44.53811074777372" lon="9.180052681276942"><ele>899.0</ele><time>2026-05-03T11:42:59Z</time></trkpt><trkpt lat="44.538093229886265" lon="9.179853861323702"><ele>898.5</ele><time>2026-05-03T11:43:00Z</time></trkpt><trkpt lat="44.53814336086363" lon="9.179702820119475"><ele>898.0</ele><time>2026-05-03T11:43:01Z</time></trkpt><trkpt lat="44.53819544057989" lon="9.179584389942887"><ele>898.0</ele><time>2026-05-03T11:43:02Z</time></trkpt><trkpt lat="44.53833467008782" lon="9.179574919309147"><ele>898.0</ele><time>2026-05-03T11:43:03Z</time></trkpt><trkpt lat="44.53844551740284" lon="9.179492733470966"><ele>898.0</ele><time>2026-05-03T11:43:04Z</time></trkpt><trkpt lat="44.53852276886696" lon="9.179399403464078"><ele>898.0</ele><time>2026-05-03T11:43:05Z</time></trkpt><trkpt lat="44.5385332665075" lon="9.179220197247616"><ele>898.0</ele><time>2026-05-03T11:43:06Z</time></trkpt><trkpt lat="44.53853015158994" lon="9.179025952307793"><ele>898.0</ele><time>2026-05-03T11:43:07Z</time></trkpt><trkpt lat="44.538580182246555" lon="9.178876183856378"><ele>898.0</ele><time>2026-05-03T11:43:08Z</time></trkpt><trkpt lat="44.538642929582494" lon="9.17877515970059"><ele>898.0</ele><time>2026-05-03T11:43:09Z</time></trkpt><trkpt lat="44.53870722071807" lon="9.178707780448578"><ele>898.0</ele><time>2026-05-03T11:43:10Z</time></trkpt><trkpt lat="44.538783040861986" lon="9.178748493291307"><ele>897.0</ele><time>2026-05-03T11:43:11Z</time></trkpt><trkpt lat="44.53884429860631" lon="9.17880615513125"><ele>896.0</ele><time>2026-05-03T11:43:12Z</time></trkpt><trkpt lat="44.538844982097494" lon="9.17899465839491"><ele>895.0</ele><time>2026-05-03T11:43:13.001Z</time></trkpt><trkpt lat="44.53889036978264" lon="9.179177181295719"><ele>894.0</ele><time>2026-05-03T11:43:14.001Z</time></trkpt><trkpt lat="44.538922257690544" lon="9.179348383734581"><ele>894.0</ele><time>2026-05-03T11:43:15.001Z</time></trkpt><trkpt lat="44.539021074569014" lon="9.179511680261022"><ele>894.0</ele><time>2026-05-03T11:43:16.001Z</time></trkpt><trkpt lat="44.53914737221217" lon="9.179669102759638"><ele>894.0</ele><time>2026-05-03T11:43:17.001Z</time></trkpt><trkpt lat="44.539289707005445" lon="9.179802989434243"><ele>890.25</ele><time>2026-05-03T11:43:18.001Z</time></trkpt><trkpt lat="44.53940893762878" lon="9.179886447471025"><ele>886.5</ele><time>2026-05-03T11:43:19.001Z</time></trkpt><trkpt lat="44.53951780251492" lon="9.179958784770674"><ele>882.75</ele><time>2026-05-03T11:43:20.001Z</time></trkpt><trkpt lat="44.539604031974015" lon="9.18002386961239"><ele>879.0</ele><time>2026-05-03T11:43:21.001Z</time></trkpt><trkpt lat="44.53970572137956" lon="9.180080043172271"><ele>878.6666666666666</ele><time>2026-05-03T11:43:22.001Z</time></trkpt><trkpt lat="44.53978977651331" lon="9.180107820868638"><ele>878.3333333333333</ele><time>2026-05-03T11:43:23.001Z</time></trkpt><trkpt lat="44.539869462827966" lon="9.180122382336776"><ele>878.0</ele><time>2026-05-03T11:43:24.001Z</time></trkpt><trkpt lat="44.53995827845583" lon="9.180108138940978"><ele>877.6666666666666</ele><time>2026-05-03T11:43:25.001Z</time></trkpt><trkpt lat="44.5400464232224" lon="9.180071894108927"><ele>877.3333333333333</ele><time>2026-05-03T11:43:26.001Z</time></trkpt><trkpt lat="44.54012269658952" lon="9.179996069443973"><ele>877.0</ele><time>2026-05-03T11:43:27.001Z</time></trkpt><trkpt lat="44.54025362002934" lon="9.179880962896966"><ele>878.6666666666666</ele><time>2026-05-03T11:43:28.001Z</time></trkpt><trkpt lat="44.540413321811535" lon="9.179750935780422"><ele>880.3333333333333</ele><time>2026-05-03T11:43:29.001Z</time></trkpt><trkpt lat="44.54053032715232" lon="9.1796436641314"><ele>882.0</ele><time>2026-05-03T11:43:30.001Z</time></trkpt><trkpt lat="44.54063612240619" lon="9.179541316694115"><ele>882.0</ele><time>2026-05-03T11:43:31.001Z</time></trkpt><trkpt lat="44.540731288601805" lon="9.179405078006672"><ele>882.0</ele><time>2026-05-03T11:43:32.001Z</time></trkpt><trkpt lat="44.54081521308335" lon="9.179326373803118"><ele>882.0</ele><time>2026-05-03T11:43:33.001Z</time></trkpt><trkpt lat="44.54093826827258" lon="9.179336305906924"><ele>882.0</ele><time>2026-05-03T11:43:34.001Z</time></trkpt><trkpt lat="44.54106529903184" lon="9.179304194280403"><ele>882.0</ele><time>2026-05-03T11:43:35.001Z</time></trkpt><trkpt lat="44.54117219198332" lon="9.179248555749824"><ele>882.0</ele><time>2026-05-03T11:43:36.001Z</time></trkpt><trkpt lat="44.541269188801294" lon="9.179134295276311"><ele>882.0</ele><time>2026-05-03T11:43:37.001Z</time></trkpt><trkpt lat="44.54136591273705" lon="9.178978303231894"><ele>882.0</ele><time>2026-05-03T11:43:38.001Z</time></trkpt><trkpt lat="44.541454528381266" lon="9.178836681657428"><ele>883.6666666666667</ele><time>2026-05-03T11:43:39.001Z</time></trkpt><trkpt lat="44.5415662612234" lon="9.17875103366456"><ele>885.3333333333334</ele><time>2026-05-03T11:43:40.001Z</time></trkpt><trkpt lat="44.54173883095678" lon="9.178741782782545"><ele>887.0</ele><time>2026-05-03T11:43:41.001Z</time></trkpt><trkpt lat="44.54187767570326" lon="9.17863254167091"><ele>887.0</ele><time>2026-05-03T11:43:42.001Z</time></trkpt><trkpt lat="44.54201179779794" lon="9.178551935380067"><ele>887.0</ele><time>2026-05-03T11:43:43.001Z</time></trkpt><trkpt lat="44.54212702690049" lon="9.178465478694658"><ele>887.0</ele><time>2026-05-03T11:43:44.001Z</time></trkpt><trkpt lat="44.54224405965197" lon="9.178418887690967"><ele>887.0</ele><time>2026-05-03T11:43:45.001Z</time></trkpt><trkpt lat="44.542363605118275" lon="9.178441320982229"><ele>883.75</ele><time>2026-05-03T11:43:46.001Z</time></trkpt><trkpt lat="44.54247605774604" lon="9.17852405633091"><ele>880.5</ele><time>2026-05-03T11:43:47.001Z</time></trkpt><trkpt lat="44.54258077413304" lon="9.178656927742628"><ele>877.25</ele><time>2026-05-03T11:43:48.001Z</time></trkpt><trkpt lat="44.5426762011239" lon="9.17878660198081"><ele>874.0</ele><time>2026-05-03T11:43:49.001Z</time></trkpt><trkpt lat="44.54277699363197" lon="9.178875668346734"><ele>871.0</ele><time>2026-05-03T11:43:50.001Z</time></trkpt><trkpt lat="44.542897343319446" lon="9.178910858684256"><ele>868.0000000000001</ele><time>2026-05-03T11:43:51.001Z</time></trkpt><trkpt lat="44.54300875595684" lon="9.178894272370053"><ele>865.0000000000001</ele><time>2026-05-03T11:43:52.001Z</time></trkpt><trkpt lat="44.54307812895891" lon="9.17881952439846"><ele>862.0</ele><time>2026-05-03T11:43:53.001Z</time></trkpt><trkpt lat="44.54311571317503" lon="9.178690471440868"><ele>859.0</ele><time>2026-05-03T11:43:54.001Z</time></trkpt><trkpt lat="44.54312666231351" lon="9.178546417335529"><ele>859.0</ele><time>2026-05-03T11:43:55.001Z</time></trkpt><trkpt lat="44.543179828434" lon="9.178388148490697"><ele>859.0</ele><time>2026-05-03T11:43:56.001Z</time></trkpt><trkpt lat="44.54328893159162" lon="9.178257677746936"><ele>859.0</ele><time>2026-05-03T11:43:57.001Z</time></trkpt><trkpt lat="44.54342155218175" lon="9.17819461743423"><ele>859.0</ele><time>2026-05-03T11:43:58.001Z</time></trkpt><trkpt lat="44.543531050460224" lon="9.17818260225319"><ele>861.25</ele><time>2026-05-03T11:43:59.001Z</time></trkpt><trkpt lat="44.54362123093623" lon="9.178134463610107"><ele>863.5</ele><time>2026-05-03T11:44:00.001Z</time></trkpt><trkpt lat="44.54365023597772" lon="9.17792613930737"><ele>865.75</ele><time>2026-05-03T11:44:02.001Z</time></trkpt><trkpt lat="44.54357857019889" lon="9.177813075733267"><ele>868.0</ele><time>2026-05-03T11:44:03.001Z</time></trkpt><trkpt lat="44.54351943033048" lon="9.177708079778894"><ele>868.0</ele><time>2026-05-03T11:44:04.001Z</time></trkpt><trkpt lat="44.54347261508969" lon="9.177578718326021"><ele>868.0</ele><time>2026-05-03T11:44:05.001Z</time></trkpt><trkpt lat="44.54339706857568" lon="9.177433933236246"><ele>868.0</ele><time>2026-05-03T11:44:06.001Z</time></trkpt><trkpt lat="44.543357833317245" lon="9.177284297987109"><ele>868.0</ele><time>2026-05-03T11:44:07.001Z</time></trkpt><trkpt lat="44.54337741100745" lon="9.17712498149226"><ele>868.0</ele><time>2026-05-03T11:44:08.001Z</time></trkpt><trkpt lat="44.54342718076065" lon="9.176987900974426"><ele>868.0</ele><time>2026-05-03T11:44:09.001Z</time></trkpt><trkpt lat="44.54351898021202" lon="9.176832304609363"><ele>868.0</ele><time>2026-05-03T11:44:10.001Z</time></trkpt><trkpt lat="44.543591483467495" lon="9.176664350785442"><ele>868.0</ele><time>2026-05-03T11:44:11.001Z</time></trkpt><trkpt lat="44.5436162554261" lon="9.176450613764958"><ele>865.0</ele><time>2026-05-03T11:44:12.001Z</time></trkpt><trkpt lat="44.54361514553693" lon="9.176264374415382"><ele>862.0</ele><time>2026-05-03T11:44:13.001Z</time></trkpt><trkpt lat="44.54358357509401" lon="9.176094887046695"><ele>859.0</ele><time>2026-05-03T11:44:14.001Z</time></trkpt><trkpt lat="44.543544417250814" lon="9.176002383868324"><ele>856.0</ele><time>2026-05-03T11:44:15.001Z</time></trkpt><trkpt lat="44.543455395657446" lon="9.175867645565559"><ele>856.0</ele><time>2026-05-03T11:44:16.001Z</time></trkpt><trkpt lat="44.54333441436234" lon="9.175745358531497"><ele>856.0</ele><time>2026-05-03T11:44:17.001Z</time></trkpt><trkpt lat="44.54320775518592" lon="9.175597579483595"><ele>856.0</ele><time>2026-05-03T11:44:18.001Z</time></trkpt><trkpt lat="44.54310635059203" lon="9.175400241918554"><ele>860.0</ele><time>2026-05-03T11:44:19.001Z</time></trkpt><trkpt lat="44.54300803806475" lon="9.175176697607272"><ele>864.0</ele><time>2026-05-03T11:44:20.001Z</time></trkpt><trkpt lat="44.54290352502562" lon="9.174933994687"><ele>868.0</ele><time>2026-05-03T11:44:21.001Z</time></trkpt><trkpt lat="44.542829979651195" lon="9.174670761987814"><ele>868.0</ele><time>2026-05-03T11:44:22.001Z</time></trkpt><trkpt lat="44.54275495062154" lon="9.174439486001717"><ele>868.0</ele><time>2026-05-03T11:44:23.001Z</time></trkpt><trkpt lat="44.542697687248655" lon="9.174268418769605"><ele>868.0</ele><time>2026-05-03T11:44:24.001Z</time></trkpt><trkpt lat="44.542645082231324" lon="9.174118578436905"><ele>868.0</ele><time>2026-05-03T11:44:25.001Z</time></trkpt><trkpt lat="44.54262003805793" lon="9.174004970610843"><ele>868.1666666666666</ele><time>2026-05-03T11:44:26.001Z</time></trkpt><trkpt lat="44.54264107882942" lon="9.173904924796009"><ele>868.3333333333333</ele><time>2026-05-03T11:44:27.001Z</time></trkpt><trkpt lat="44.542704300986" lon="9.173844622769098"><ele>868.5</ele><time>2026-05-03T11:44:28.001Z</time></trkpt><trkpt lat="44.54278788782924" lon="9.173835568980124"><ele>868.6666666666667</ele><time>2026-05-03T11:44:29.001Z</time></trkpt><trkpt lat="44.54285445174799" lon="9.173831320988727"><ele>868.8333333333334</ele><time>2026-05-03T11:44:30.001Z</time></trkpt><trkpt lat="44.54291125693766" lon="9.173907735364361"><ele>869.0</ele><time>2026-05-03T11:44:31.001Z</time></trkpt><trkpt lat="44.5430391452343" lon="9.174054448234514"><ele>864.0</ele><time>2026-05-03T11:44:32.001Z</time></trkpt><trkpt lat="44.54316972222949" lon="9.174179284150364"><ele>859.0</ele><time>2026-05-03T11:44:33.001Z</time></trkpt><trkpt lat="44.54330008075336" lon="9.174273475753992"><ele>854.0</ele><time>2026-05-03T11:44:34.001Z</time></trkpt><trkpt lat="44.54342718298596" lon="9.174360489958147"><ele>849.0</ele><time>2026-05-03T11:44:35.001Z</time></trkpt><trkpt lat="44.543551407378175" lon="9.174434948631333"><ele>849.0</ele><time>2026-05-03T11:44:36.001Z</time></trkpt><trkpt lat="44.543687386831195" lon="9.174458733242266"><ele>849.0</ele><time>2026-05-03T11:44:37.001Z</time></trkpt><trkpt lat="44.543819741109985" lon="9.174457967362894"><ele>849.0</ele><time>2026-05-03T11:44:38.001Z</time></trkpt><trkpt lat="44.54394686706156" lon="9.174402066078397"><ele>849.0</ele><time>2026-05-03T11:44:39.001Z</time></trkpt><trkpt lat="44.54402682415638" lon="9.17431188767486"><ele>849.6</ele><time>2026-05-03T11:44:40.001Z</time></trkpt><trkpt lat="44.54410577353936" lon="9.174194640350722"><ele>850.2</ele><time>2026-05-03T11:44:41.001Z</time></trkpt><trkpt lat="44.54409343223289" lon="9.174003439027198"><ele>850.8000000000001</ele><time>2026-05-03T11:44:42.001Z</time></trkpt><trkpt lat="44.544146023578215" lon="9.173879756868047"><ele>851.4000000000001</ele><time>2026-05-03T11:44:43.001Z</time></trkpt><trkpt lat="44.54422826971702" lon="9.173821772473467"><ele>852.0</ele><time>2026-05-03T11:44:44.001Z</time></trkpt><trkpt lat="44.544294990273826" lon="9.173809599499029"><ele>856.0</ele><time>2026-05-03T11:44:45.001Z</time></trkpt><trkpt lat="44.54438730861658" lon="9.17383420202388"><ele>860.0</ele><time>2026-05-03T11:44:46.001Z</time></trkpt><trkpt lat="44.544484030759286" lon="9.173915086882856"><ele>864.0</ele><time>2026-05-03T11:44:47.001Z</time></trkpt><trkpt lat="44.544550437581336" lon="9.174081407965371"><ele>868.0</ele><time>2026-05-03T11:44:48.001Z</time></trkpt><trkpt lat="44.54462408145956" lon="9.174231376625471"><ele>868.0</ele><time>2026-05-03T11:44:49.001Z</time></trkpt><trkpt lat="44.54471713513259" lon="9.174361962708518"><ele>868.0</ele><time>2026-05-03T11:44:50.001Z</time></trkpt><trkpt lat="44.5448212319762" lon="9.174515074429662"><ele>868.0</ele><time>2026-05-03T11:44:51.001Z</time></trkpt><trkpt lat="44.54494039170491" lon="9.174629330067086"><ele>868.0</ele><time>2026-05-03T11:44:52.001Z</time></trkpt><trkpt lat="44.54505097735543" lon="9.174716120460836"><ele>868.0</ele><time>2026-05-03T11:44:53.001Z</time></trkpt><trkpt lat="44.54516055831828" lon="9.174799162210318"><ele>868.0</ele><time>2026-05-03T11:44:54.001Z</time></trkpt><trkpt lat="44.545261720397036" lon="9.174877302598068"><ele>868.0</ele><time>2026-05-03T11:44:55.001Z</time></trkpt><trkpt lat="44.54535573633893" lon="9.174955479342715"><ele>868.0</ele><time>2026-05-03T11:44:56.001Z</time></trkpt><trkpt lat="44.545441711079505" lon="9.175041515830724"><ele>868.4</ele><time>2026-05-03T11:44:57.001Z</time></trkpt><trkpt lat="44.545532024409844" lon="9.175108880384274"><ele>868.8</ele><time>2026-05-03T11:44:58.001Z</time></trkpt><trkpt lat="44.5456302694392" lon="9.175183231364985"><ele>869.2</ele><time>2026-05-03T11:44:59.001Z</time></trkpt><trkpt lat="44.545721029936374" lon="9.175271382164523"><ele>869.6</ele><time>2026-05-03T11:45:00.001Z</time></trkpt><trkpt lat="44.54581735155483" lon="9.175354060800895"><ele>870.0</ele><time>2026-05-03T11:45:01.001Z</time></trkpt><trkpt lat="44.54591983453658" lon="9.175434229541088"><ele>870.0</ele><time>2026-05-03T11:45:02.001Z</time></trkpt><trkpt lat="44.54602180877963" lon="9.1755138645756"><ele>870.0</ele><time>2026-05-03T11:45:03.001Z</time></trkpt><trkpt lat="44.54612986312267" lon="9.175584180859484"><ele>870.0</ele><time>2026-05-03T11:45:04.001Z</time></trkpt><trkpt lat="44.54623945332166" lon="9.175646040762961"><ele>870.0</ele><time>2026-05-03T11:45:05.001Z</time></trkpt><trkpt lat="44.546343648629154" lon="9.17571574909844"><ele>871.25</ele><time>2026-05-03T11:45:06.001Z</time></trkpt><trkpt lat="44.54646984066628" lon="9.175794468227833"><ele>872.5</ele><time>2026-05-03T11:45:07.001Z</time></trkpt><trkpt lat="44.546575969709444" lon="9.175860307803646"><ele>873.75</ele><time>2026-05-03T11:45:08.001Z</time></trkpt><trkpt lat="44.54667615430835" lon="9.175929335491512"><ele>875.0</ele><time>2026-05-03T11:45:09.001Z</time></trkpt><trkpt lat="44.54674780460888" lon="9.176043918835546"><ele>875.0</ele><time>2026-05-03T11:45:10.001Z</time></trkpt><trkpt lat="44.546798429937" lon="9.176167961311853"><ele>875.0</ele><time>2026-05-03T11:45:11.001Z</time></trkpt><trkpt lat="44.546860400494474" lon="9.176307485138238"><ele>875.0</ele><time>2026-05-03T11:45:12.001Z</time></trkpt><trkpt lat="44.54693082015278" lon="9.176444390179574"><ele>875.0</ele><time>2026-05-03T11:45:13.001Z</time></trkpt><trkpt lat="44.546986066793146" lon="9.17658642489361"><ele>877.5</ele><time>2026-05-03T11:45:14.001Z</time></trkpt><trkpt lat="44.547053051487026" lon="9.176720878053795"><ele>880.0</ele><time>2026-05-03T11:45:15.001Z</time></trkpt><trkpt lat="44.54709792265573" lon="9.176867857113082"><ele>882.5</ele><time>2026-05-03T11:45:16.001Z</time></trkpt><trkpt lat="44.54716628997704" lon="9.176990271090714"><ele>885.0</ele><time>2026-05-03T11:45:17.001Z</time></trkpt><trkpt lat="44.54725384777021" lon="9.17708751229539"><ele>885.0</ele><time>2026-05-03T11:45:18.001Z</time></trkpt><trkpt lat="44.547337804044666" lon="9.177180042607121"><ele>885.0</ele><time>2026-05-03T11:45:19.001Z</time></trkpt><trkpt lat="44.54741969622344" lon="9.177293263538807"><ele>885.0</ele><time>2026-05-03T11:45:20.001Z</time></trkpt><trkpt lat="44.54750045281375" lon="9.177408522138208"><ele>885.0</ele><time>2026-05-03T11:45:21.001Z</time></trkpt><trkpt lat="44.54757654966596" lon="9.177521437836766"><ele>885.0</ele><time>2026-05-03T11:45:22.001Z</time></trkpt><trkpt lat="44.54766717639149" lon="9.177591289589808"><ele>883.8</ele><time>2026-05-03T11:45:23.001Z</time></trkpt><trkpt lat="44.547768316134956" lon="9.177604525195974"><ele>882.6</ele><time>2026-05-03T11:45:24.001Z</time></trkpt><trkpt lat="44.54785934212762" lon="9.177556795384742"><ele>881.4000000000001</ele><time>2026-05-03T11:45:25.001Z</time></trkpt><trkpt lat="44.54795202078208" lon="9.177439111105988"><ele>880.2</ele><time>2026-05-03T11:45:26.001Z</time></trkpt><trkpt lat="44.547997012522416" lon="9.177305634701447"><ele>879.0</ele><time>2026-05-03T11:45:27.001Z</time></trkpt><trkpt lat="44.54800218883402" lon="9.177140476568587"><ele>879.75</ele><time>2026-05-03T11:45:28.001Z</time></trkpt><trkpt lat="44.54798622234714" lon="9.176981631460436"><ele>880.5</ele><time>2026-05-03T11:45:29.001Z</time></trkpt><trkpt lat="44.54796441477756" lon="9.176811553442345"><ele>881.25</ele><time>2026-05-03T11:45:30.001Z</time></trkpt><trkpt lat="44.54795863581986" lon="9.176662692399404"><ele>882.0</ele><time>2026-05-03T11:45:31.001Z</time></trkpt><trkpt lat="44.54795616065067" lon="9.17649215049405"><ele>882.0</ele><time>2026-05-03T11:45:32.001Z</time></trkpt><trkpt lat="44.54794614523165" lon="9.176329898028182"><ele>882.0</ele><time>2026-05-03T11:45:33.001Z</time></trkpt><trkpt lat="44.54794550842526" lon="9.176180764702266"><ele>882.0</ele><time>2026-05-03T11:45:34.001Z</time></trkpt><trkpt lat="44.54793935875754" lon="9.176053920141438"><ele>882.0</ele><time>2026-05-03T11:45:35.001Z</time></trkpt><trkpt lat="44.54791896911822" lon="9.175930471993615"><ele>882.0</ele><time>2026-05-03T11:45:36.001Z</time></trkpt><trkpt lat="44.547914824657695" lon="9.175810328673176"><ele>883.8</ele><time>2026-05-03T11:45:37.001Z</time></trkpt><trkpt lat="44.5478970626162" lon="9.175678186539887"><ele>885.6</ele><time>2026-05-03T11:45:38.001Z</time></trkpt><trkpt lat="44.54790300991205" lon="9.175564814681204"><ele>887.3999999999999</ele><time>2026-05-03T11:45:39.001Z</time></trkpt><trkpt lat="44.547934894813494" lon="9.175445615060061"><ele>889.1999999999999</ele><time>2026-05-03T11:45:40.001Z</time></trkpt><trkpt lat="44.54798241738288" lon="9.175318464445324"><ele>891.0</ele><time>2026-05-03T11:45:41.001Z</time></trkpt><trkpt lat="44.548059962947164" lon="9.175205892700951"><ele>891.0</ele><time>2026-05-03T11:45:42.001Z</time></trkpt><trkpt lat="44.548132636098664" lon="9.17506109573112"><ele>891.0</ele><time>2026-05-03T11:45:43.001Z</time></trkpt><trkpt lat="44.548211285387325" lon="9.174942063100703"><ele>891.0</ele><time>2026-05-03T11:45:44.001Z</time></trkpt><trkpt lat="44.54830272022262" lon="9.174820288569766"><ele>891.0</ele><time>2026-05-03T11:45:45.001Z</time></trkpt><trkpt lat="44.54840310497939" lon="9.174743492142703"><ele>891.0</ele><time>2026-05-03T11:45:46.001Z</time></trkpt><trkpt lat="44.54850718605914" lon="9.174724715914135"><ele>891.0</ele><time>2026-05-03T11:45:47.001Z</time></trkpt><trkpt lat="44.54862077370678" lon="9.174780994507291"><ele>891.0</ele><time>2026-05-03T11:45:48.001Z</time></trkpt><trkpt lat="44.54874568313781" lon="9.174842608959134"><ele>891.0</ele><time>2026-05-03T11:45:49.001Z</time></trkpt><trkpt lat="44.54886493837718" lon="9.174944559403636"><ele>891.0</ele><time>2026-05-03T11:45:50.001Z</time></trkpt><trkpt lat="44.54899771196662" lon="9.17504522274758"><ele>891.0</ele><time>2026-05-03T11:45:51.001Z</time></trkpt><trkpt lat="44.549148905233984" lon="9.175129788592201"><ele>891.0</ele><time>2026-05-03T11:45:52.001Z</time></trkpt><trkpt lat="44.54931139020466" lon="9.175207948640251"><ele>891.0</ele><time>2026-05-03T11:45:53.001Z</time></trkpt><trkpt lat="44.54947561292934" lon="9.175248170308759"><ele>891.0</ele><time>2026-05-03T11:45:54.001Z</time></trkpt><trkpt lat="44.54960789301069" lon="9.175341984631471"><ele>891.0</ele><time>2026-05-03T11:45:55.001Z</time></trkpt><trkpt lat="44.54973094856793" lon="9.175460245461132"><ele>891.0</ele><time>2026-05-03T11:45:56.001Z</time></trkpt><trkpt lat="44.549859046576564" lon="9.175662892256158"><ele>891.0</ele><time>2026-05-03T11:45:57.001Z</time></trkpt><trkpt lat="44.550000391790235" lon="9.175862769186882"><ele>891.0</ele><time>2026-05-03T11:45:58.001Z</time></trkpt><trkpt lat="44.55014784210344" lon="9.176033012969977"><ele>891.0</ele><time>2026-05-03T11:45:59.001Z</time></trkpt><trkpt lat="44.55028496600635" lon="9.176173500037462"><ele>891.0</ele><time>2026-05-03T11:46:00.001Z</time></trkpt><trkpt lat="44.55042160050665" lon="9.17626822415035"><ele>891.0</ele><time>2026-05-03T11:46:01.001Z</time></trkpt><trkpt lat="44.55057808346423" lon="9.17631620877054"><ele>895.3333333333333</ele><time>2026-05-03T11:46:02.001Z</time></trkpt><trkpt lat="44.55078890893542" lon="9.1763157429252"><ele>899.6666666666666</ele><time>2026-05-03T11:46:03.001Z</time></trkpt><trkpt lat="44.55101149795357" lon="9.176287397296006"><ele>904.0</ele><time>2026-05-03T11:46:04.001Z</time></trkpt><trkpt lat="44.551231387883405" lon="9.17627893153796"><ele>905.3333333333333</ele><time>2026-05-03T11:46:05.001Z</time></trkpt><trkpt lat="44.55143527613354" lon="9.17625781932924"><ele>906.6666666666667</ele><time>2026-05-03T11:46:06.001Z</time></trkpt><trkpt lat="44.55162094398284" lon="9.176235385376192"><ele>908.0</ele><time>2026-05-03T11:46:07.001Z</time></trkpt><trkpt lat="44.551779410004606" lon="9.176192910582381"><ele>908.0</ele><time>2026-05-03T11:46:08.001Z</time></trkpt><trkpt lat="44.5518870569579" lon="9.176121586586824"><ele>908.0</ele><time>2026-05-03T11:46:09.001Z</time></trkpt><trkpt lat="44.551971245914004" lon="9.176009133970798"><ele>908.0</ele><time>2026-05-03T11:46:10.001Z</time></trkpt><trkpt lat="44.55204956438464" lon="9.175857231595133"><ele>908.0</ele><time>2026-05-03T11:46:11.001Z</time></trkpt><trkpt lat="44.5521376553637" lon="9.175662183815286"><ele>905.0</ele><time>2026-05-03T11:46:12.001Z</time></trkpt><trkpt lat="44.55222968983066" lon="9.17547971312381"><ele>902.0</ele><time>2026-05-03T11:46:13.001Z</time></trkpt><trkpt lat="44.55232916231929" lon="9.175336691450834"><ele>899.0</ele><time>2026-05-03T11:46:14.001Z</time></trkpt><trkpt lat="44.552416066549995" lon="9.175223521645039"><ele>896.0</ele><time>2026-05-03T11:46:15.001Z</time></trkpt><trkpt lat="44.55247057773939" lon="9.175118588499169"><ele>896.0</ele><time>2026-05-03T11:46:16.001Z</time></trkpt><trkpt lat="44.552517545169636" lon="9.174999393705848"><ele>896.0</ele><time>2026-05-03T11:46:17.001Z</time></trkpt><trkpt lat="44.55249415197066" lon="9.174827346552712"><ele>896.0</ele><time>2026-05-03T11:46:18.001Z</time></trkpt><trkpt lat="44.55248780759122" lon="9.17460281614281"><ele>896.0</ele><time>2026-05-03T11:46:19.001Z</time></trkpt><trkpt lat="44.55249084340787" lon="9.17436244747989"><ele>898.75</ele><time>2026-05-03T11:46:20.001Z</time></trkpt><trkpt lat="44.55248022193546" lon="9.174172730002299"><ele>901.5</ele><time>2026-05-03T11:46:21.001Z</time></trkpt><trkpt lat="44.55250082271175" lon="9.174028408450909"><ele>904.25</ele><time>2026-05-03T11:46:22.001Z</time></trkpt><trkpt lat="44.55262564697211" lon="9.173872619636821"><ele>907.0</ele><time>2026-05-03T11:46:23.001Z</time></trkpt><trkpt lat="44.552694214508264" lon="9.173681848508567"><ele>913.0</ele><time>2026-05-03T11:46:24.001Z</time></trkpt><trkpt lat="44.552793420935714" lon="9.173484773894833"><ele>919.0</ele><time>2026-05-03T11:46:25.001Z</time></trkpt><trkpt lat="44.55291664938006" lon="9.173278812938541"><ele>925.0</ele><time>2026-05-03T11:46:26.001Z</time></trkpt><trkpt lat="44.55301402644903" lon="9.173043951326033"><ele>912.3333333333333</ele><time>2026-05-03T11:46:27.001Z</time></trkpt><trkpt lat="44.55309322504422" lon="9.172823712456953"><ele>899.6666666666667</ele><time>2026-05-03T11:46:28.001Z</time></trkpt><trkpt lat="44.5531772056264" lon="9.172617510167699"><ele>887.0</ele><time>2026-05-03T11:46:29.001Z</time></trkpt><trkpt lat="44.55327052394399" lon="9.172452562315197"><ele>896.0</ele><time>2026-05-03T11:46:30.001Z</time></trkpt><trkpt lat="44.55340198879732" lon="9.172307361969981"><ele>905.0</ele><time>2026-05-03T11:46:31.001Z</time></trkpt><trkpt lat="44.553532019715036" lon="9.17215304161495"><ele>914.0</ele><time>2026-05-03T11:46:32.001Z</time></trkpt><trkpt lat="44.553659239066874" lon="9.172038703782167"><ele>906.0</ele><time>2026-05-03T11:46:33.001Z</time></trkpt><trkpt lat="44.55376684381174" lon="9.171986049511748"><ele>898.0</ele><time>2026-05-03T11:46:34.001Z</time></trkpt><trkpt lat="44.553904802585755" lon="9.171951997963465"><ele>890.0</ele><time>2026-05-03T11:46:35.001Z</time></trkpt><trkpt lat="44.554032582758886" lon="9.171866043276248"><ele>882.0</ele><time>2026-05-03T11:46:36.001Z</time></trkpt><trkpt lat="44.554116669059596" lon="9.171769462441347"><ele>882.0</ele><time>2026-05-03T11:46:37.001Z</time></trkpt><trkpt lat="44.55409570619963" lon="9.171616389682663"><ele>882.0</ele><time>2026-05-03T11:46:38.001Z</time></trkpt><trkpt lat="44.55412083259679" lon="9.171424267161058"><ele>882.0</ele><time>2026-05-03T11:46:39.001Z</time></trkpt><trkpt lat="44.55410758666936" lon="9.17125159744958"><ele>882.0</ele><time>2026-05-03T11:46:40.001Z</time></trkpt><trkpt lat="44.55419674334564" lon="9.171167473436226"><ele>879.5</ele><time>2026-05-03T11:46:41.001Z</time></trkpt><trkpt lat="44.554280740801616" lon="9.171174346031142"><ele>877.0</ele><time>2026-05-03T11:46:42.001Z</time></trkpt><trkpt lat="44.554407447908694" lon="9.17111607520594"><ele>874.5</ele><time>2026-05-03T11:46:43.001Z</time></trkpt><trkpt lat="44.55451574634212" lon="9.171019027617895"><ele>872.0</ele><time>2026-05-03T11:46:44.001Z</time></trkpt><trkpt lat="44.55457468645098" lon="9.17087519474524"><ele>872.0</ele><time>2026-05-03T11:46:45.001Z</time></trkpt><trkpt lat="44.55461705266768" lon="9.17069404832131"><ele>872.0</ele><time>2026-05-03T11:46:46.001Z</time></trkpt><trkpt lat="44.55468023268452" lon="9.17049278070875"><ele>872.0</ele><time>2026-05-03T11:46:47.001Z</time></trkpt><trkpt lat="44.55477064273823" lon="9.170391829376644"><ele>872.0</ele><time>2026-05-03T11:46:48.001Z</time></trkpt><trkpt lat="44.554841924105915" lon="9.170296288683181"><ele>874.3333333333334</ele><time>2026-05-03T11:46:49.001Z</time></trkpt><trkpt lat="44.55489754410275" lon="9.170201903212728"><ele>876.6666666666667</ele><time>2026-05-03T11:46:50.001Z</time></trkpt><trkpt lat="44.55484583779693" lon="9.170063927682527"><ele>879.0</ele><time>2026-05-03T11:46:51.001Z</time></trkpt><trkpt lat="44.55485616664178" lon="9.169930197520857"><ele>881.3333333333333</ele><time>2026-05-03T11:46:52.001Z</time></trkpt><trkpt lat="44.554851261353825" lon="9.169826252291148"><ele>883.6666666666666</ele><time>2026-05-03T11:46:53.001Z</time></trkpt><trkpt lat="44.55489608079874" lon="9.16976211190934"><ele>886.0</ele><time>2026-05-03T11:46:54.001Z</time></trkpt><trkpt lat="44.554999516445456" lon="9.169744294226158"><ele>886.25</ele><time>2026-05-03T11:46:56.001Z</time></trkpt><trkpt lat="44.555081854756594" lon="9.16970650751526"><ele>886.5</ele><time>2026-05-03T11:46:57.001Z</time></trkpt><trkpt lat="44.55519722397199" lon="9.16953869706604"><ele>886.75</ele><time>2026-05-03T11:46:58.001Z</time></trkpt><trkpt lat="44.55530965206809" lon="9.16935021746773"><ele>887.0</ele><time>2026-05-03T11:46:59.001Z</time></trkpt><trkpt lat="44.55541744778413" lon="9.169165500512989"><ele>893.6666666666667</ele><time>2026-05-03T11:47:00.001Z</time></trkpt><trkpt lat="44.5555381834187" lon="9.168940979811383"><ele>900.3333333333333</ele><time>2026-05-03T11:47:01.001Z</time></trkpt><trkpt lat="44.555668680132406" lon="9.168786702145196"><ele>907.0</ele><time>2026-05-03T11:47:02.001Z</time></trkpt><trkpt lat="44.55578910576751" lon="9.16871883894066"><ele>907.0</ele><time>2026-05-03T11:47:03.001Z</time></trkpt><trkpt lat="44.55595195626897" lon="9.168617959687136"><ele>907.0</ele><time>2026-05-03T11:47:04.001Z</time></trkpt><trkpt lat="44.55608094889852" lon="9.16853569181293"><ele>907.0</ele><time>2026-05-03T11:47:05.001Z</time></trkpt><trkpt lat="44.55620988491613" lon="9.168490589944762"><ele>903.75</ele><time>2026-05-03T11:47:06.001Z</time></trkpt><trkpt lat="44.556338631408984" lon="9.168520369804376"><ele>900.5</ele><time>2026-05-03T11:47:07.001Z</time></trkpt><trkpt lat="44.55646184799182" lon="9.168589176070583"><ele>897.25</ele><time>2026-05-03T11:47:08.001Z</time></trkpt><trkpt lat="44.556542904870994" lon="9.16874767245667"><ele>894.0</ele><time>2026-05-03T11:47:09.001Z</time></trkpt><trkpt lat="44.556600399196704" lon="9.168873177900497"><ele>893.4000000000001</ele><time>2026-05-03T11:47:10.001Z</time></trkpt><trkpt lat="44.556601334118525" lon="9.169027723623977"><ele>892.8000000000001</ele><time>2026-05-03T11:47:11.001Z</time></trkpt><trkpt lat="44.55657003847995" lon="9.169157803259937"><ele>892.1999999999999</ele><time>2026-05-03T11:47:12.001Z</time></trkpt><trkpt lat="44.55652177252058" lon="9.169268034091774"><ele>891.5999999999999</ele><time>2026-05-03T11:47:13.001Z</time></trkpt><trkpt lat="44.55642702132939" lon="9.16935636129606"><ele>891.0</ele><time>2026-05-03T11:47:14.001Z</time></trkpt><trkpt lat="44.55629008214126" lon="9.169325637342455"><ele>890.0</ele><time>2026-05-03T11:47:15.001Z</time></trkpt><trkpt lat="44.55616931974025" lon="9.169426608749422"><ele>889.0</ele><time>2026-05-03T11:47:16.001Z</time></trkpt><trkpt lat="44.55607663794427" lon="9.16955007346782"><ele>888.0</ele><time>2026-05-03T11:47:17.001Z</time></trkpt><trkpt lat="44.55597702604132" lon="9.169694746921353"><ele>887.0</ele><time>2026-05-03T11:47:18.001Z</time></trkpt><trkpt lat="44.55592492829834" lon="9.16987447159778"><ele>885.0</ele><time>2026-05-03T11:47:19.001Z</time></trkpt><trkpt lat="44.555876510769394" lon="9.170055253006677"><ele>883.0</ele><time>2026-05-03T11:47:20.001Z</time></trkpt><trkpt lat="44.555878047300254" lon="9.17024079916281"><ele>881.0</ele><time>2026-05-03T11:47:21.001Z</time></trkpt><trkpt lat="44.55592520966101" lon="9.170394170972957"><ele>879.0</ele><time>2026-05-03T11:47:22.001Z</time></trkpt><trkpt lat="44.55592459172346" lon="9.170607367005829"><ele>880.0</ele><time>2026-05-03T11:47:23.001Z</time></trkpt><trkpt lat="44.55589325884336" lon="9.170814491614314"><ele>881.0</ele><time>2026-05-03T11:47:24.001Z</time></trkpt><trkpt lat="44.55590869380286" lon="9.17100508571133"><ele>882.0</ele><time>2026-05-03T11:47:25.001Z</time></trkpt><trkpt lat="44.55591473074927" lon="9.171172402435111"><ele>883.0</ele><time>2026-05-03T11:47:26.001Z</time></trkpt><trkpt lat="44.55584944947417" lon="9.171279976859822"><ele>883.0</ele><time>2026-05-03T11:47:27.001Z</time></trkpt><trkpt lat="44.555776569794745" lon="9.171377943370658"><ele>883.0</ele><time>2026-05-03T11:47:28.001Z</time></trkpt><trkpt lat="44.55571819090022" lon="9.171520556210456"><ele>883.0</ele><time>2026-05-03T11:47:29.001Z</time></trkpt><trkpt lat="44.55571221578338" lon="9.171678865311604"><ele>883.0</ele><time>2026-05-03T11:47:30.001Z</time></trkpt><trkpt lat="44.555744077426695" lon="9.171875904452374"><ele>885.6666666666666</ele><time>2026-05-03T11:47:31.001Z</time></trkpt><trkpt lat="44.55580315702301" lon="9.172062179899326"><ele>888.3333333333333</ele><time>2026-05-03T11:47:32.001Z</time></trkpt><trkpt lat="44.555828054913896" lon="9.172270764123772"><ele>891.0</ele><time>2026-05-03T11:47:33.001Z</time></trkpt><trkpt lat="44.555864786683465" lon="9.172506796530616"><ele>893.0</ele><time>2026-05-03T11:47:34.001Z</time></trkpt><trkpt lat="44.55581191450405" lon="9.1727658268513"><ele>895.0</ele><time>2026-05-03T11:47:35.001Z</time></trkpt><trkpt lat="44.55572105352639" lon="9.173011522778644"><ele>897.0</ele><time>2026-05-03T11:47:36.001Z</time></trkpt><trkpt lat="44.55563089586516" lon="9.173185115600287"><ele>898.0</ele><time>2026-05-03T11:47:37.001Z</time></trkpt><trkpt lat="44.55556717810042" lon="9.173328275005122"><ele>899.0</ele><time>2026-05-03T11:47:38.001Z</time></trkpt><trkpt lat="44.55555575250522" lon="9.173485458627793"><ele>900.0</ele><time>2026-05-03T11:47:39.001Z</time></trkpt><trkpt lat="44.555579505217345" lon="9.173641095098489"><ele>901.0</ele><time>2026-05-03T11:47:40.001Z</time></trkpt><trkpt lat="44.55565047400109" lon="9.173823532273499"><ele>901.0</ele><time>2026-05-03T11:47:41.001Z</time></trkpt><trkpt lat="44.55572919652073" lon="9.174019745721948"><ele>901.0</ele><time>2026-05-03T11:47:42.001Z</time></trkpt><trkpt lat="44.55579849053972" lon="9.174231577172744"><ele>901.0</ele><time>2026-05-03T11:47:43.001Z</time></trkpt><trkpt lat="44.55582485946055" lon="9.174471946952249"><ele>899.3333333333333</ele><time>2026-05-03T11:47:44.001Z</time></trkpt><trkpt lat="44.555857900812434" lon="9.174750770363232"><ele>897.6666666666667</ele><time>2026-05-03T11:47:45.001Z</time></trkpt><trkpt lat="44.55590513543285" lon="9.175038108697596"><ele>896.0</ele><time>2026-05-03T11:47:46.001Z</time></trkpt><trkpt lat="44.555960674777914" lon="9.17526590803916"><ele>896.0</ele><time>2026-05-03T11:47:47.001Z</time></trkpt><trkpt lat="44.555992340283815" lon="9.175420057446837"><ele>896.0</ele><time>2026-05-03T11:47:48.001Z</time></trkpt><trkpt lat="44.55608313112532" lon="9.17556989534943"><ele>896.0</ele><time>2026-05-03T11:47:49.001Z</time></trkpt><trkpt lat="44.55620841951866" lon="9.175647124198914"><ele>896.0</ele><time>2026-05-03T11:47:50.001Z</time></trkpt><trkpt lat="44.55635782406819" lon="9.175697531237331"><ele>896.0</ele><time>2026-05-03T11:47:51.001Z</time></trkpt><trkpt lat="44.55651461044024" lon="9.175716333228436"><ele>896.0</ele><time>2026-05-03T11:47:52.001Z</time></trkpt><trkpt lat="44.556693346194784" lon="9.175698787331418"><ele>896.0</ele><time>2026-05-03T11:47:53.001Z</time></trkpt><trkpt lat="44.55684342925851" lon="9.175758145134955"><ele>896.0</ele><time>2026-05-03T11:47:54.001Z</time></trkpt><trkpt lat="44.55693803165746" lon="9.175894320687561"><ele>896.0</ele><time>2026-05-03T11:47:55.001Z</time></trkpt><trkpt lat="44.55703550464867" lon="9.176060417610469"><ele>896.0</ele><time>2026-05-03T11:47:56.001Z</time></trkpt><trkpt lat="44.55714980699321" lon="9.17620499565778"><ele>896.0</ele><time>2026-05-03T11:47:57.001Z</time></trkpt><trkpt lat="44.55725279124913" lon="9.17628295833736"><ele>900.3333333333334</ele><time>2026-05-03T11:47:58.001Z</time></trkpt><trkpt lat="44.55739793882681" lon="9.176298628444064"><ele>904.6666666666667</ele><time>2026-05-03T11:47:59.001Z</time></trkpt><trkpt lat="44.55754511707422" lon="9.176247141144685"><ele>909.0</ele><time>2026-05-03T11:48:00.001Z</time></trkpt><trkpt lat="44.55769085121782" lon="9.176146225783075"><ele>909.0</ele><time>2026-05-03T11:48:01.001Z</time></trkpt><trkpt lat="44.557861047089695" lon="9.176024494689008"><ele>909.0</ele><time>2026-05-03T11:48:02.001Z</time></trkpt><trkpt lat="44.558017273908" lon="9.175875111683848"><ele>909.0</ele><time>2026-05-03T11:48:03.001Z</time></trkpt><trkpt lat="44.55815523731475" lon="9.175741879136629"><ele>909.0</ele><time>2026-05-03T11:48:04.001Z</time></trkpt><trkpt lat="44.5582514687279" lon="9.175694359786903"><ele>909.0</ele><time>2026-05-03T11:48:05.001Z</time></trkpt><trkpt lat="44.55836766031288" lon="9.175746591448588"><ele>909.0</ele><time>2026-05-03T11:48:07.001Z</time></trkpt><trkpt lat="44.5584482320659" lon="9.175885789404191"><ele>909.0</ele><time>2026-05-03T11:48:08.001Z</time></trkpt><trkpt lat="44.558548795610264" lon="9.176013171394805"><ele>909.0</ele><time>2026-05-03T11:48:09.001Z</time></trkpt><trkpt lat="44.558594009447766" lon="9.176198331440387"><ele>909.0</ele><time>2026-05-03T11:48:10.001Z</time></trkpt><trkpt lat="44.55860699827319" lon="9.176431178505082"><ele>909.0</ele><time>2026-05-03T11:48:11.001Z</time></trkpt><trkpt lat="44.55862164747729" lon="9.176620295216654"><ele>909.0</ele><time>2026-05-03T11:48:12.001Z</time></trkpt><trkpt lat="44.55860424174911" lon="9.176782008454023"><ele>907.0</ele><time>2026-05-03T11:48:13.001Z</time></trkpt><trkpt lat="44.55857038452934" lon="9.176943554035866"><ele>905.0</ele><time>2026-05-03T11:48:14.001Z</time></trkpt><trkpt lat="44.55850707801619" lon="9.177086126846792"><ele>903.0</ele><time>2026-05-03T11:48:15.001Z</time></trkpt><trkpt lat="44.55845253061303" lon="9.17728101751366"><ele>901.0</ele><time>2026-05-03T11:48:16.001Z</time></trkpt><trkpt lat="44.55837005491929" lon="9.177481562638864"><ele>900.75</ele><time>2026-05-03T11:48:17.001Z</time></trkpt><trkpt lat="44.55831152291319" lon="9.177634899241987"><ele>900.5</ele><time>2026-05-03T11:48:18.001Z</time></trkpt><trkpt lat="44.55829684577386" lon="9.177811845960678"><ele>900.25</ele><time>2026-05-03T11:48:19.001Z</time></trkpt><trkpt lat="44.55831260584603" lon="9.178005069581477"><ele>900.0</ele><time>2026-05-03T11:48:20.001Z</time></trkpt><trkpt lat="44.55839038088393" lon="9.178172631343184"><ele>901.0</ele><time>2026-05-03T11:48:21.001Z</time></trkpt><trkpt lat="44.55850008807733" lon="9.178338959112079"><ele>902.0</ele><time>2026-05-03T11:48:22.001Z</time></trkpt><trkpt lat="44.558628758401994" lon="9.178468482248032"><ele>903.0</ele><time>2026-05-03T11:48:23.001Z</time></trkpt><trkpt lat="44.558781213460996" lon="9.1785034853999"><ele>903.0</ele><time>2026-05-03T11:48:24.001Z</time></trkpt><trkpt lat="44.55894184938438" lon="9.178483907657947"><ele>903.0</ele><time>2026-05-03T11:48:25.001Z</time></trkpt><trkpt lat="44.55910629683836" lon="9.178445244211188"><ele>903.0</ele><time>2026-05-03T11:48:26.001Z</time></trkpt><trkpt lat="44.55929937855149" lon="9.17835949851605"><ele>903.0</ele><time>2026-05-03T11:48:27.001Z</time></trkpt><trkpt lat="44.559485107144795" lon="9.178287759719977"><ele>903.0</ele><time>2026-05-03T11:48:28.001Z</time></trkpt><trkpt lat="44.55965484647196" lon="9.178242056547145"><ele>903.0</ele><time>2026-05-03T11:48:29.001Z</time></trkpt><trkpt lat="44.55981773221052" lon="9.178252894326809"><ele>904.0</ele><time>2026-05-03T11:48:30.001Z</time></trkpt><trkpt lat="44.55995470495399" lon="9.178341667388834"><ele>905.0</ele><time>2026-05-03T11:48:31.001Z</time></trkpt><trkpt lat="44.56010463553986" lon="9.17840525059217"><ele>906.0</ele><time>2026-05-03T11:48:32.001Z</time></trkpt><trkpt lat="44.56025059472014" lon="9.178484713673125"><ele>909.0</ele><time>2026-05-03T11:48:33.001Z</time></trkpt><trkpt lat="44.560415950354304" lon="9.178473483462092"><ele>912.0</ele><time>2026-05-03T11:48:34.001Z</time></trkpt><trkpt lat="44.560593225209374" lon="9.17844284419495"><ele>915.0</ele><time>2026-05-03T11:48:35.001Z</time></trkpt><trkpt lat="44.5607777273384" lon="9.178395720025343"><ele>915.0</ele><time>2026-05-03T11:48:36.001Z</time></trkpt><trkpt lat="44.560977176025794" lon="9.178398743996764"><ele>915.0</ele><time>2026-05-03T11:48:37.001Z</time></trkpt><trkpt lat="44.56118045584222" lon="9.1784164313434"><ele>915.0</ele><time>2026-05-03T11:48:38.001Z</time></trkpt><trkpt lat="44.56137792703023" lon="9.178464205918221"><ele>915.3333333333333</ele><time>2026-05-03T11:48:39.001Z</time></trkpt><trkpt lat="44.56158488342837" lon="9.178405463891433"><ele>915.6666666666666</ele><time>2026-05-03T11:48:40.001Z</time></trkpt><trkpt lat="44.56180067916862" lon="9.178354188871536"><ele>916.0</ele><time>2026-05-03T11:48:41.001Z</time></trkpt><trkpt lat="44.56196437269486" lon="9.17832743272444"><ele>917.3333333333333</ele><time>2026-05-03T11:48:42.001Z</time></trkpt><trkpt lat="44.562135321345" lon="9.178341084115678"><ele>918.6666666666667</ele><time>2026-05-03T11:48:43.001Z</time></trkpt><trkpt lat="44.56229198871421" lon="9.178346787015201"><ele>920.0</ele><time>2026-05-03T11:48:44.001Z</time></trkpt><trkpt lat="44.56243929535762" lon="9.17826032385517"><ele>924.5</ele><time>2026-05-03T11:48:45.001Z</time></trkpt><trkpt lat="44.56256809297479" lon="9.178126673727323"><ele>929.0</ele><time>2026-05-03T11:48:46.001Z</time></trkpt><trkpt lat="44.56270726277496" lon="9.178053645149076"><ele>933.5</ele><time>2026-05-03T11:48:47.001Z</time></trkpt><trkpt lat="44.562832496719494" lon="9.178135870107019"><ele>938.0</ele><time>2026-05-03T11:48:48.001Z</time></trkpt><trkpt lat="44.56299022274305" lon="9.17820235721401"><ele>938.0</ele><time>2026-05-03T11:48:49.001Z</time></trkpt><trkpt lat="44.56309067185978" lon="9.178267086460613"><ele>938.0</ele><time>2026-05-03T11:48:50.001Z</time></trkpt><trkpt lat="44.5631529568423" lon="9.178423292816479"><ele>938.0</ele><time>2026-05-03T11:48:51.001Z</time></trkpt><trkpt lat="44.56323024094522" lon="9.178624114007597"><ele>938.0</ele><time>2026-05-03T11:48:52.001Z</time></trkpt><trkpt lat="44.56333117998299" lon="9.178731450736278"><ele>938.0</ele><time>2026-05-03T11:48:53.001Z</time></trkpt><trkpt lat="44.563456329552736" lon="9.178789288921365"><ele>938.0</ele><time>2026-05-03T11:48:54.001Z</time></trkpt><trkpt lat="44.563619506675" lon="9.178855145174026"><ele>938.0</ele><time>2026-05-03T11:48:55.001Z</time></trkpt><trkpt lat="44.5637522611666" lon="9.178979459908383"><ele>937.6666666666667</ele><time>2026-05-03T11:48:56.001Z</time></trkpt><trkpt lat="44.56387488203308" lon="9.179186911015162"><ele>937.3333333333333</ele><time>2026-05-03T11:48:57.001Z</time></trkpt><trkpt lat="44.56397895903417" lon="9.179377913694806"><ele>937.0</ele><time>2026-05-03T11:48:58.001Z</time></trkpt><trkpt lat="44.56406436508756" lon="9.17945826113918"><ele>937.0</ele><time>2026-05-03T11:48:59.001Z</time></trkpt><trkpt lat="44.56417175426773" lon="9.179467707103017"><ele>937.0</ele><time>2026-05-03T11:49:00.001Z</time></trkpt><trkpt lat="44.56433426552562" lon="9.179426118493483"><ele>937.0</ele><time>2026-05-03T11:49:01.001Z</time></trkpt><trkpt lat="44.564463971132106" lon="9.179404741515837"><ele>937.0</ele><time>2026-05-03T11:49:02.001Z</time></trkpt><trkpt lat="44.56460857775853" lon="9.179462734330547"><ele>943.3333333333333</ele><time>2026-05-03T11:49:03.001Z</time></trkpt><trkpt lat="44.564736934775645" lon="9.179529326543125"><ele>949.6666666666667</ele><time>2026-05-03T11:49:04.001Z</time></trkpt><trkpt lat="44.56492121181762" lon="9.179630748183945"><ele>956.0</ele><time>2026-05-03T11:49:05.001Z</time></trkpt><trkpt lat="44.5650358113452" lon="9.179641622248262"><ele>956.0</ele><time>2026-05-03T11:49:06.001Z</time></trkpt><trkpt lat="44.565186681094445" lon="9.179595602379912"><ele>956.0</ele><time>2026-05-03T11:49:07.001Z</time></trkpt><trkpt lat="44.565344140409394" lon="9.179542141710849"><ele>956.0</ele><time>2026-05-03T11:49:08.001Z</time></trkpt><trkpt lat="44.56550756746379" lon="9.179431476203993"><ele>957.3333333333334</ele><time>2026-05-03T11:49:09.001Z</time></trkpt><trkpt lat="44.565678831287016" lon="9.179367890296708"><ele>958.6666666666667</ele><time>2026-05-03T11:49:10.001Z</time></trkpt><trkpt lat="44.56586590833342" lon="9.179381849625802"><ele>960.0</ele><time>2026-05-03T11:49:11.001Z</time></trkpt><trkpt lat="44.5660308865886" lon="9.179473167845998"><ele>960.0</ele><time>2026-05-03T11:49:12.001Z</time></trkpt><trkpt lat="44.56616051461888" lon="9.179454775709994"><ele>960.0</ele><time>2026-05-03T11:49:13.001Z</time></trkpt><trkpt lat="44.56628002819676" lon="9.179381138654188"><ele>960.0</ele><time>2026-05-03T11:49:14.001Z</time></trkpt><trkpt lat="44.56638826193422" lon="9.179232238445168"><ele>960.0</ele><time>2026-05-03T11:49:15.001Z</time></trkpt><trkpt lat="44.566515631704064" lon="9.179106555641061"><ele>970.0</ele><time>2026-05-03T11:49:16.001Z</time></trkpt><trkpt lat="44.566659753510656" lon="9.178977821342718"><ele>980.0</ele><time>2026-05-03T11:49:17.001Z</time></trkpt><trkpt lat="44.56683265277156" lon="9.178837558833242"><ele>990.0</ele><time>2026-05-03T11:49:18.001Z</time></trkpt><trkpt lat="44.56700256289106" lon="9.17869398606325"><ele>982.3333333333333</ele><time>2026-05-03T11:49:19.001Z</time></trkpt><trkpt lat="44.56716661042441" lon="9.17854092913203"><ele>974.6666666666666</ele><time>2026-05-03T11:49:20.001Z</time></trkpt><trkpt lat="44.567308778972254" lon="9.178367970897753"><ele>967.0</ele><time>2026-05-03T11:49:21.001Z</time></trkpt><trkpt lat="44.567450889777895" lon="9.178216337306148"><ele>972.75</ele><time>2026-05-03T11:49:22.001Z</time></trkpt><trkpt lat="44.56750339721426" lon="9.178037091062615"><ele>978.5</ele><time>2026-05-03T11:49:23.001Z</time></trkpt><trkpt lat="44.56758086515746" lon="9.177871493681852"><ele>984.25</ele><time>2026-05-03T11:49:24.001Z</time></trkpt><trkpt lat="44.567651387841146" lon="9.177817487285257"><ele>990.0</ele><time>2026-05-03T11:49:25.001Z</time></trkpt><trkpt lat="44.56775266880914" lon="9.177912516411839"><ele>990.0</ele><time>2026-05-03T11:49:27.001Z</time></trkpt><trkpt lat="44.567807316552525" lon="9.177980109208823"><ele>990.0</ele><time>2026-05-03T11:49:28.001Z</time></trkpt><trkpt lat="44.56782623367771" lon="9.178118033535238"><ele>990.0</ele><time>2026-05-03T11:49:29.001Z</time></trkpt><trkpt lat="44.56782130274436" lon="9.178277582585118"><ele>990.0</ele><time>2026-05-03T11:49:30.001Z</time></trkpt><trkpt lat="44.567825276457434" lon="9.178484621096322"><ele>990.0</ele><time>2026-05-03T11:49:31.001Z</time></trkpt><trkpt lat="44.567808761750555" lon="9.178710379601213"><ele>982.3333333333333</ele><time>2026-05-03T11:49:32.001Z</time></trkpt><trkpt lat="44.567679517623404" lon="9.178936723358955"><ele>974.6666666666666</ele><time>2026-05-03T11:49:33.001Z</time></trkpt><trkpt lat="44.567559226940055" lon="9.179151554991217"><ele>967.0</ele><time>2026-05-03T11:49:34.001Z</time></trkpt><trkpt lat="44.567433150349515" lon="9.179335489661907"><ele>965.0</ele><time>2026-05-03T11:49:35.001Z</time></trkpt><trkpt lat="44.56731418482597" lon="9.179519539028448"><ele>963.0</ele><time>2026-05-03T11:49:36.001Z</time></trkpt><trkpt lat="44.567208465361425" lon="9.179726085492325"><ele>961.0</ele><time>2026-05-03T11:49:37.001Z</time></trkpt><trkpt lat="44.56718509125144" lon="9.17992781055326"><ele>961.0</ele><time>2026-05-03T11:49:38.001Z</time></trkpt><trkpt lat="44.567186818544386" lon="9.18011883706255"><ele>961.0</ele><time>2026-05-03T11:49:39.001Z</time></trkpt><trkpt lat="44.56721227285381" lon="9.180363265360889"><ele>961.0</ele><time>2026-05-03T11:49:40.001Z</time></trkpt><trkpt lat="44.56724929881226" lon="9.180631212770022"><ele>960.0</ele><time>2026-05-03T11:49:41.001Z</time></trkpt><trkpt lat="44.567270929656765" lon="9.180864911543596"><ele>959.0</ele><time>2026-05-03T11:49:42.001Z</time></trkpt><trkpt lat="44.56723618680117" lon="9.181076847187187"><ele>958.0</ele><time>2026-05-03T11:49:43.001Z</time></trkpt><trkpt lat="44.56719414780488" lon="9.181267533678959"><ele>958.0</ele><time>2026-05-03T11:49:44.001Z</time></trkpt><trkpt lat="44.56716265003093" lon="9.18142335083631"><ele>958.0</ele><time>2026-05-03T11:49:45.001Z</time></trkpt><trkpt lat="44.56717655440898" lon="9.181583920151455"><ele>958.0</ele><time>2026-05-03T11:49:46.001Z</time></trkpt><trkpt lat="44.567266942352475" lon="9.181745557091824"><ele>958.0</ele><time>2026-05-03T11:49:47.001Z</time></trkpt><trkpt lat="44.56733907746175" lon="9.181948586696835"><ele>956.25</ele><time>2026-05-03T11:49:48.001Z</time></trkpt><trkpt lat="44.56744910149797" lon="9.182069435992629"><ele>954.5</ele><time>2026-05-03T11:49:49.001Z</time></trkpt><trkpt lat="44.567559482622414" lon="9.182135350869087"><ele>952.75</ele><time>2026-05-03T11:49:50.001Z</time></trkpt><trkpt lat="44.56770835132666" lon="9.182201464323139"><ele>951.0</ele><time>2026-05-03T11:49:51.001Z</time></trkpt><trkpt lat="44.56784664644152" lon="9.182271644918357"><ele>952.5</ele><time>2026-05-03T11:49:52.001Z</time></trkpt><trkpt lat="44.567952988784924" lon="9.182256886386782"><ele>954.0</ele><time>2026-05-03T11:49:53.001Z</time></trkpt><trkpt lat="44.568047900442025" lon="9.182267737157746"><ele>955.5</ele><time>2026-05-03T11:49:54.001Z</time></trkpt><trkpt lat="44.568148176958" lon="9.182235407216293"><ele>957.0</ele><time>2026-05-03T11:49:55.001Z</time></trkpt><trkpt lat="44.568317006176876" lon="9.182033602798429"><ele>957.0</ele><time>2026-05-03T11:49:56.001Z</time></trkpt><trkpt lat="44.56844161466179" lon="9.181941705507922"><ele>957.0</ele><time>2026-05-03T11:49:57.001Z</time></trkpt><trkpt lat="44.56853699167827" lon="9.181938729942463"><ele>957.0</ele><time>2026-05-03T11:49:58.001Z</time></trkpt><trkpt lat="44.568607527175566" lon="9.182006690848162"><ele>957.0</ele><time>2026-05-03T11:49:59.001Z</time></trkpt><trkpt lat="44.56871428981166" lon="9.182119877287118"><ele>955.75</ele><time>2026-05-03T11:50:00.001Z</time></trkpt><trkpt lat="44.56878937219904" lon="9.182254246359687"><ele>954.5</ele><time>2026-05-03T11:50:01.001Z</time></trkpt><trkpt lat="44.56883133489337" lon="9.18236256664012"><ele>953.25</ele><time>2026-05-03T11:50:02.001Z</time></trkpt><trkpt lat="44.568858978119856" lon="9.182512313982526"><ele>952.0</ele><time>2026-05-03T11:50:03.001Z</time></trkpt><trkpt lat="44.56887206965161" lon="9.182714325904863"><ele>952.0</ele><time>2026-05-03T11:50:04.001Z</time></trkpt><trkpt lat="44.568918489189485" lon="9.182906431137503"><ele>952.0</ele><time>2026-05-03T11:50:05.001Z</time></trkpt><trkpt lat="44.569007728883776" lon="9.182990770941151"><ele>952.0</ele><time>2026-05-03T11:50:06.001Z</time></trkpt><trkpt lat="44.56909234737565" lon="9.183085172381135"><ele>952.0</ele><time>2026-05-03T11:50:07.001Z</time></trkpt><trkpt lat="44.56921824967937" lon="9.183155456121154"><ele>952.3333333333333</ele><time>2026-05-03T11:50:08.001Z</time></trkpt><trkpt lat="44.569333427992525" lon="9.183278295082818"><ele>952.6666666666667</ele><time>2026-05-03T11:50:09.001Z</time></trkpt><trkpt lat="44.569475088353705" lon="9.183409531768215"><ele>953.0</ele><time>2026-05-03T11:50:10.001Z</time></trkpt><trkpt lat="44.569632248544444" lon="9.1835212396773"><ele>953.0</ele><time>2026-05-03T11:50:11.001Z</time></trkpt><trkpt lat="44.56976859910589" lon="9.183627097631248"><ele>953.0</ele><time>2026-05-03T11:50:12.001Z</time></trkpt><trkpt lat="44.569876645939196" lon="9.183751342352299"><ele>953.0</ele><time>2026-05-03T11:50:13.001Z</time></trkpt><trkpt lat="44.56997701428978" lon="9.183917999633692"><ele>946.0</ele><time>2026-05-03T11:50:14.001Z</time></trkpt><trkpt lat="44.57010443527079" lon="9.184132749327883"><ele>939.0</ele><time>2026-05-03T11:50:15.001Z</time></trkpt><trkpt lat="44.57023665242534" lon="9.184281097507778"><ele>932.0</ele><time>2026-05-03T11:50:16.001Z</time></trkpt><trkpt lat="44.57033132678004" lon="9.184376324914636"><ele>933.4000000000001</ele><time>2026-05-03T11:50:17.001Z</time></trkpt><trkpt lat="44.57040143674357" lon="9.1844844964032"><ele>934.8000000000001</ele><time>2026-05-03T11:50:18.001Z</time></trkpt><trkpt lat="44.570414600172406" lon="9.184600131091036"><ele>936.2</ele><time>2026-05-03T11:50:19Z</time></trkpt><trkpt lat="44.570392991241555" lon="9.184745012405529"><ele>937.6</ele><time>2026-05-03T11:50:20Z</time></trkpt><trkpt lat="44.57033038657179" lon="9.184870895396529"><ele>939.0</ele><time>2026-05-03T11:50:21Z</time></trkpt><trkpt lat="44.570227645555754" lon="9.184947376847726"><ele>939.0</ele><time>2026-05-03T11:50:22Z</time></trkpt><trkpt lat="44.57010641879173" lon="9.18492361394908"><ele>939.0</ele><time>2026-05-03T11:50:23Z</time></trkpt><trkpt lat="44.56997359422071" lon="9.184919521603428"><ele>939.0</ele><time>2026-05-03T11:50:24Z</time></trkpt><trkpt lat="44.569824837089605" lon="9.184910793779938"><ele>939.0</ele><time>2026-05-03T11:50:25Z</time></trkpt><trkpt lat="44.56967182742325" lon="9.184874179487815"><ele>935.3333333333333</ele><time>2026-05-03T11:50:26Z</time></trkpt><trkpt lat="44.569496779079564" lon="9.184853338421847"><ele>931.6666666666666</ele><time>2026-05-03T11:50:27Z</time></trkpt><trkpt lat="44.5693409775008" lon="9.1848296863611"><ele>928.0</ele><time>2026-05-03T11:50:28Z</time></trkpt><trkpt lat="44.56918661313083" lon="9.184735748212214"><ele>928.0</ele><time>2026-05-03T11:50:29Z</time></trkpt><trkpt lat="44.56903200982632" lon="9.184645526130419"><ele>928.0</ele><time>2026-05-03T11:50:30Z</time></trkpt><trkpt lat="44.568899420855985" lon="9.184600030510591"><ele>928.0</ele><time>2026-05-03T11:50:31Z</time></trkpt><trkpt lat="44.56872536491599" lon="9.184620908183573"><ele>930.0</ele><time>2026-05-03T11:50:32Z</time></trkpt><trkpt lat="44.56856282341189" lon="9.184497030887467"><ele>932.0</ele><time>2026-05-03T11:50:33Z</time></trkpt><trkpt lat="44.568365564802846" lon="9.184427986490114"><ele>934.0</ele><time>2026-05-03T11:50:34Z</time></trkpt><trkpt lat="44.56817743210041" lon="9.184395639020636"><ele>934.0</ele><time>2026-05-03T11:50:35Z</time></trkpt><trkpt lat="44.56798038679408" lon="9.184338306849037"><ele>934.0</ele><time>2026-05-03T11:50:36Z</time></trkpt><trkpt lat="44.567775652487555" lon="9.1842987271034"><ele>934.0</ele><time>2026-05-03T11:50:37Z</time></trkpt><trkpt lat="44.56759944470101" lon="9.184311027425709"><ele>937.0</ele><time>2026-05-03T11:50:38Z</time></trkpt><trkpt lat="44.56743441502225" lon="9.184308570829785"><ele>940.0</ele><time>2026-05-03T11:50:39Z</time></trkpt><trkpt lat="44.56724996164266" lon="9.184390398796749"><ele>943.0</ele><time>2026-05-03T11:50:40Z</time></trkpt><trkpt lat="44.567069695660166" lon="9.184435364812266"><ele>945.0</ele><time>2026-05-03T11:50:41Z</time></trkpt><trkpt lat="44.56690868083707" lon="9.184536647480437"><ele>947.0</ele><time>2026-05-03T11:50:42Z</time></trkpt><trkpt lat="44.56678745048531" lon="9.184574776429924"><ele>949.0</ele><time>2026-05-03T11:50:43Z</time></trkpt><trkpt lat="44.566672513700894" lon="9.18456061434005"><ele>951.0</ele><time>2026-05-03T11:50:44Z</time></trkpt><trkpt lat="44.56656702955191" lon="9.184436972852295"><ele>951.0</ele><time>2026-05-03T11:50:45Z</time></trkpt><trkpt lat="44.56649372774884" lon="9.184292031922695"><ele>950.9999999999999</ele><time>2026-05-03T11:50:46Z</time></trkpt><trkpt lat="44.56637916607781" lon="9.184170055520811"><ele>950.9999999999999</ele><time>2026-05-03T11:50:47Z</time></trkpt><trkpt lat="44.566281730584585" lon="9.184088262260374"><ele>951.0</ele><time>2026-05-03T11:50:48.001Z</time></trkpt><trkpt lat="44.56622494984469" lon="9.184043435585329"><ele>951.0</ele><time>2026-05-03T11:50:49.001Z</time></trkpt><trkpt lat="44.56612753906272" lon="9.184057705152672"><ele>953.0</ele><time>2026-05-03T11:50:51.001Z</time></trkpt><trkpt lat="44.56604890489361" lon="9.184129780195146"><ele>954.9999999999999</ele><time>2026-05-03T11:50:52.001Z</time></trkpt><trkpt lat="44.565964797027554" lon="9.184202908833441"><ele>956.9999999999999</ele><time>2026-05-03T11:50:53.001Z</time></trkpt><trkpt lat="44.565866111337115" lon="9.18428930757633"><ele>959.0</ele><time>2026-05-03T11:50:54.001Z</time></trkpt><trkpt lat="44.56577884185304" lon="9.184358339684719"><ele>961.0</ele><time>2026-05-03T11:50:55.001Z</time></trkpt><trkpt lat="44.56567753105212" lon="9.184420710511505"><ele>961.0</ele><time>2026-05-03T11:50:56.001Z</time></trkpt><trkpt lat="44.56556963765028" lon="9.184482232478693"><ele>960.9999999999999</ele><time>2026-05-03T11:50:57.001Z</time></trkpt><trkpt lat="44.56546214771229" lon="9.184540575198165"><ele>960.9999999999999</ele><time>2026-05-03T11:50:58.001Z</time></trkpt><trkpt lat="44.56535351789833" lon="9.184597188142378"><ele>961.0</ele><time>2026-05-03T11:50:59.001Z</time></trkpt><trkpt lat="44.565259322008465" lon="9.184645961335109"><ele>961.0</ele><time>2026-05-03T11:51:00.001Z</time></trkpt><trkpt lat="44.5651849170652" lon="9.184694920489257"><ele>960.4</ele><time>2026-05-03T11:51:01.001Z</time></trkpt><trkpt lat="44.56512130973466" lon="9.184737755880207"><ele>959.8</ele><time>2026-05-03T11:51:02.001Z</time></trkpt><trkpt lat="44.565023404593965" lon="9.184832225670938"><ele>959.1999999999999</ele><time>2026-05-03T11:51:04.001Z</time></trkpt><trkpt lat="44.56493933115557" lon="9.184905585416772"><ele>958.5999999999999</ele><time>2026-05-03T11:51:06.001Z</time></trkpt><trkpt lat="44.56486972112869" lon="9.185022427500375"><ele>958.0</ele><time>2026-05-03T11:51:08.001Z</time></trkpt><trkpt lat="44.564806589395026" lon="9.185151268443011"><ele>960.4999999999999</ele><time>2026-05-03T11:51:10.001Z</time></trkpt><trkpt lat="44.56479006069591" lon="9.185262787857924"><ele>963.0</ele><time>2026-05-03T11:51:11.001Z</time></trkpt><trkpt lat="44.56477701958197" lon="9.185371486392182"><ele>965.5</ele><time>2026-05-03T11:51:12.001Z</time></trkpt><trkpt lat="44.56478095915678" lon="9.185492895959952"><ele>968.0</ele><time>2026-05-03T11:51:13.001Z</time></trkpt><trkpt lat="44.56478171734072" lon="9.185621569659032"><ele>970.4999999999999</ele><time>2026-05-03T11:51:14.001Z</time></trkpt><trkpt lat="44.564793372903495" lon="9.185767716315377"><ele>973.0</ele><time>2026-05-03T11:51:15.001Z</time></trkpt><trkpt lat="44.564796776281106" lon="9.18592513008255"><ele>976.5</ele><time>2026-05-03T11:51:16.001Z</time></trkpt><trkpt lat="44.56479774869635" lon="9.186099294895623"><ele>980.0</ele><time>2026-05-03T11:51:17.001Z</time></trkpt><trkpt lat="44.56476116140346" lon="9.186278661110945"><ele>983.5</ele><time>2026-05-03T11:51:18.001Z</time></trkpt><trkpt lat="44.56473287594916" lon="9.186461243506903"><ele>987.0</ele><time>2026-05-03T11:51:19.001Z</time></trkpt><trkpt lat="44.564709668766675" lon="9.186606327242291"><ele>987.3333333333334</ele><time>2026-05-03T11:51:20.001Z</time></trkpt><trkpt lat="44.56467779522217" lon="9.186698203141868"><ele>987.6666666666667</ele><time>2026-05-03T11:51:21.001Z</time></trkpt><trkpt lat="44.56461854676495" lon="9.186730798248902"><ele>988.0</ele><time>2026-05-03T11:51:22.001Z</time></trkpt><trkpt lat="44.56452968296988" lon="9.186737630884453"><ele>988.3333333333334</ele><time>2026-05-03T11:51:23.001Z</time></trkpt><trkpt lat="44.5644563395397" lon="9.186624326426813"><ele>988.6666666666667</ele><time>2026-05-03T11:51:24.001Z</time></trkpt><trkpt lat="44.564379754142486" lon="9.186562705749095"><ele>989.0</ele><time>2026-05-03T11:51:25.001Z</time></trkpt><trkpt lat="44.564288916522365" lon="9.186521653670214"><ele>987.2</ele><time>2026-05-03T11:51:26.001Z</time></trkpt><trkpt lat="44.56420158345389" lon="9.186478651626658"><ele>985.4000000000001</ele><time>2026-05-03T11:51:27.001Z</time></trkpt><trkpt lat="44.56411688852527" lon="9.18647105747838"><ele>983.6</ele><time>2026-05-03T11:51:28.001Z</time></trkpt><trkpt lat="44.56399884566782" lon="9.186463241853946"><ele>981.8</ele><time>2026-05-03T11:51:29.001Z</time></trkpt><trkpt lat="44.56390253336921" lon="9.18645686500367"><ele>980.0</ele><time>2026-05-03T11:51:30.001Z</time></trkpt><trkpt lat="44.56381123438492" lon="9.18644723868858"><ele>980.0</ele><time>2026-05-03T11:51:31Z</time></trkpt><trkpt lat="44.56370573720828" lon="9.1864409885832"><ele>980.0</ele><time>2026-05-03T11:51:32Z</time></trkpt><trkpt lat="44.56359545157991" lon="9.186410413775816"><ele>980.0</ele><time>2026-05-03T11:51:33Z</time></trkpt><trkpt lat="44.563479783364855" lon="9.186414913097638"><ele>980.0</ele><time>2026-05-03T11:51:34Z</time></trkpt><trkpt lat="44.56336619038502" lon="9.18643629372416"><ele>980.0</ele><time>2026-05-03T11:51:35Z</time></trkpt><trkpt lat="44.56324063778135" lon="9.186419416622332"><ele>977.6666666666667</ele><time>2026-05-03T11:51:36Z</time></trkpt><trkpt lat="44.56310289497371" lon="9.186416744787943"><ele>975.3333333333333</ele><time>2026-05-03T11:51:37Z</time></trkpt><trkpt lat="44.56295448166606" lon="9.1864128249913"><ele>973.0</ele><time>2026-05-03T11:51:38Z</time></trkpt><trkpt lat="44.56279023691835" lon="9.186435485697912"><ele>972.0</ele><time>2026-05-03T11:51:39Z</time></trkpt><trkpt lat="44.562611843063465" lon="9.186409463641743"><ele>971.0</ele><time>2026-05-03T11:51:40Z</time></trkpt><trkpt lat="44.562422006024285" lon="9.186392601422355"><ele>970.0</ele><time>2026-05-03T11:51:41Z</time></trkpt><trkpt lat="44.56222625410704" lon="9.186373247554632"><ele>970.0</ele><time>2026-05-03T11:51:42Z</time></trkpt><trkpt lat="44.56204366274528" lon="9.186314620316622"><ele>970.0</ele><time>2026-05-03T11:51:43Z</time></trkpt><trkpt lat="44.561869017316354" lon="9.186292476540267"><ele>970.0</ele><time>2026-05-03T11:51:44Z</time></trkpt><trkpt lat="44.56171608686322" lon="9.186268919423902"><ele>970.75</ele><time>2026-05-03T11:51:45Z</time></trkpt><trkpt lat="44.56158962937832" lon="9.186237258657819"><ele>971.5</ele><time>2026-05-03T11:51:46Z</time></trkpt><trkpt lat="44.56148407301342" lon="9.186206083089555"><ele>972.25</ele><time>2026-05-03T11:51:47Z</time></trkpt><trkpt lat="44.56143258989002" lon="9.186070109998683"><ele>973.0</ele><time>2026-05-03T11:51:48Z</time></trkpt><trkpt lat="44.56137633422629" lon="9.18587970177804"><ele>973.0</ele><time>2026-05-03T11:51:49Z</time></trkpt><trkpt lat="44.561288956281935" lon="9.185680748377388"><ele>973.0</ele><time>2026-05-03T11:51:50Z</time></trkpt><trkpt lat="44.561223761269915" lon="9.185486929953266"><ele>973.0</ele><time>2026-05-03T11:51:51Z</time></trkpt><trkpt lat="44.561176358226966" lon="9.185263496488739"><ele>974.6666666666666</ele><time>2026-05-03T11:51:52Z</time></trkpt><trkpt lat="44.56111114780826" lon="9.185022132100885"><ele>976.3333333333333</ele><time>2026-05-03T11:51:53Z</time></trkpt><trkpt lat="44.56107865901724" lon="9.184782880812808"><ele>978.0</ele><time>2026-05-03T11:51:54Z</time></trkpt><trkpt lat="44.561036347298945" lon="9.184602640409503"><ele>978.0</ele><time>2026-05-03T11:51:55Z</time></trkpt><trkpt lat="44.56094310014673" lon="9.184464523424474"><ele>978.0</ele><time>2026-05-03T11:51:56Z</time></trkpt><trkpt lat="44.56083055064399" lon="9.184321995506966"><ele>978.0</ele><time>2026-05-03T11:51:57Z</time></trkpt><trkpt lat="44.56069858981351" lon="9.184186298674131"><ele>978.0</ele><time>2026-05-03T11:51:58Z</time></trkpt><trkpt lat="44.56056851843649" lon="9.184085466327822"><ele>978.0</ele><time>2026-05-03T11:51:59Z</time></trkpt><trkpt lat="44.560429167317196" lon="9.184020049667408"><ele>978.0</ele><time>2026-05-03T11:52:00Z</time></trkpt><trkpt lat="44.56025728440225" lon="9.184008500365264"><ele>981.25</ele><time>2026-05-03T11:52:01Z</time></trkpt><trkpt lat="44.56009159897453" lon="9.18396756677985"><ele>984.5</ele><time>2026-05-03T11:52:02Z</time></trkpt><trkpt lat="44.55994778023756" lon="9.183986155322629"><ele>987.75</ele><time>2026-05-03T11:52:03Z</time></trkpt><trkpt lat="44.55983721106767" lon="9.184044514911962"><ele>991.0</ele><time>2026-05-03T11:52:04Z</time></trkpt><trkpt lat="44.55976075115859" lon="9.184192747233167"><ele>991.0</ele><time>2026-05-03T11:52:05Z</time></trkpt><trkpt lat="44.55966735838472" lon="9.184380840066742"><ele>991.0</ele><time>2026-05-03T11:52:06Z</time></trkpt><trkpt lat="44.55954806988664" lon="9.184552546349527"><ele>991.0</ele><time>2026-05-03T11:52:07Z</time></trkpt><trkpt lat="44.55943501542791" lon="9.184720473344425"><ele>992.6666666666666</ele><time>2026-05-03T11:52:08Z</time></trkpt><trkpt lat="44.55930459365424" lon="9.184887353789797"><ele>994.3333333333333</ele><time>2026-05-03T11:52:09Z</time></trkpt><trkpt lat="44.559188110770904" lon="9.184958865859752"><ele>996.0</ele><time>2026-05-03T11:52:10Z</time></trkpt><trkpt lat="44.559027537745195" lon="9.18501808670932"><ele>996.0</ele><time>2026-05-03T11:52:11Z</time></trkpt><trkpt lat="44.55886284186786" lon="9.185070210659564"><ele>996.0</ele><time>2026-05-03T11:52:12Z</time></trkpt><trkpt lat="44.55868211326346" lon="9.185113044331095"><ele>996.0</ele><time>2026-05-03T11:52:13Z</time></trkpt><trkpt lat="44.558477479862695" lon="9.185133315644109"><ele>994.0</ele><time>2026-05-03T11:52:14Z</time></trkpt><trkpt lat="44.558269722908065" lon="9.185142812718825"><ele>992.0</ele><time>2026-05-03T11:52:15Z</time></trkpt><trkpt lat="44.558088558107244" lon="9.185150029162314"><ele>990.0</ele><time>2026-05-03T11:52:16Z</time></trkpt><trkpt lat="44.5579668166447" lon="9.185146491221412"><ele>992.5</ele><time>2026-05-03T11:52:17Z</time></trkpt><trkpt lat="44.557863147255645" lon="9.185113074557147"><ele>995.0</ele><time>2026-05-03T11:52:18Z</time></trkpt><trkpt lat="44.557798808325664" lon="9.184986570245924"><ele>997.5</ele><time>2026-05-03T11:52:19Z</time></trkpt><trkpt lat="44.55768051976189" lon="9.184843695785393"><ele>1000.0</ele><time>2026-05-03T11:52:20Z</time></trkpt><trkpt lat="44.55754103673935" lon="9.184765806172068"><ele>1000.0</ele><time>2026-05-03T11:52:21Z</time></trkpt><trkpt lat="44.557389338964434" lon="9.184724165127724"><ele>1000.0</ele><time>2026-05-03T11:52:22Z</time></trkpt><trkpt lat="44.557217070012165" lon="9.184781187125223"><ele>1000.0</ele><time>2026-05-03T11:52:23Z</time></trkpt><trkpt lat="44.557037509182" lon="9.184872857705397"><ele>999.25</ele><time>2026-05-03T11:52:24Z</time></trkpt><trkpt lat="44.55687173617373" lon="9.184946883059196"><ele>998.5</ele><time>2026-05-03T11:52:25Z</time></trkpt><trkpt lat="44.55672773959559" lon="9.18498345101045"><ele>997.75</ele><time>2026-05-03T11:52:26Z</time></trkpt><trkpt lat="44.55661609464531" lon="9.184919046331848"><ele>997.0</ele><time>2026-05-03T11:52:27Z</time></trkpt><trkpt lat="44.556476867253345" lon="9.184827871640383"><ele>997.0</ele><time>2026-05-03T11:52:28Z</time></trkpt><trkpt lat="44.556335983231506" lon="9.184775352702946"><ele>997.0</ele><time>2026-05-03T11:52:29Z</time></trkpt><trkpt lat="44.55618946950401" lon="9.184762541620406"><ele>997.0</ele><time>2026-05-03T11:52:30Z</time></trkpt><trkpt lat="44.55605636035946" lon="9.184828292835931"><ele>997.0</ele><time>2026-05-03T11:52:31Z</time></trkpt><trkpt lat="44.5559693728184" lon="9.184931329628185"><ele>997.0</ele><time>2026-05-03T11:52:32Z</time></trkpt><trkpt lat="44.55587963929686" lon="9.185011484567097"><ele>997.0</ele><time>2026-05-03T11:52:33Z</time></trkpt><trkpt lat="44.5557708638104" lon="9.1850583709174"><ele>997.0</ele><time>2026-05-03T11:52:34Z</time></trkpt><trkpt lat="44.55562548250909" lon="9.18500311487979"><ele>997.0</ele><time>2026-05-03T11:52:35Z</time></trkpt><trkpt lat="44.55547371529136" lon="9.18495606562901"><ele>998.0</ele><time>2026-05-03T11:52:36Z</time></trkpt><trkpt lat="44.555311511887034" lon="9.184856292891954"><ele>999.0</ele><time>2026-05-03T11:52:37Z</time></trkpt><trkpt lat="44.55515233492616" lon="9.184791599874577"><ele>1000.0</ele><time>2026-05-03T11:52:38Z</time></trkpt><trkpt lat="44.554999404329656" lon="9.184783628837971"><ele>1000.0</ele><time>2026-05-03T11:52:39Z</time></trkpt><trkpt lat="44.55484645310733" lon="9.184830233657348"><ele>1000.0</ele><time>2026-05-03T11:52:40Z</time></trkpt><trkpt lat="44.55468556829763" lon="9.184883290002832"><ele>1000.0</ele><time>2026-05-03T11:52:41Z</time></trkpt><trkpt lat="44.55447187501193" lon="9.18491789395749"><ele>1000.0</ele><time>2026-05-03T11:52:42Z</time></trkpt><trkpt lat="44.554283092945546" lon="9.184961817243037"><ele>1000.0</ele><time>2026-05-03T11:52:43Z</time></trkpt><trkpt lat="44.55410101451508" lon="9.18499064938664"><ele>1000.0</ele><time>2026-05-03T11:52:44Z</time></trkpt><trkpt lat="44.55391823787536" lon="9.184940622596647"><ele>1000.0</ele><time>2026-05-03T11:52:45Z</time></trkpt><trkpt lat="44.55373631099408" lon="9.184883605868206"><ele>1000.0</ele><time>2026-05-03T11:52:46Z</time></trkpt><trkpt lat="44.55358155222576" lon="9.184826684593872"><ele>1000.0</ele><time>2026-05-03T11:52:47Z</time></trkpt><trkpt lat="44.55345055933924" lon="9.184805165561633"><ele>998.0</ele><time>2026-05-03T11:52:48Z</time></trkpt><trkpt lat="44.553343585650765" lon="9.184800411478335"><ele>996.0</ele><time>2026-05-03T11:52:49Z</time></trkpt><trkpt lat="44.55326049653313" lon="9.184844990938915"><ele>994.0</ele><time>2026-05-03T11:52:50Z</time></trkpt><trkpt lat="44.55319979378818" lon="9.184951301937527"><ele>992.0</ele><time>2026-05-03T11:52:51Z</time></trkpt><trkpt lat="44.553157733341415" lon="9.185125461421029"><ele>990.0</ele><time>2026-05-03T11:52:52Z</time></trkpt><trkpt lat="44.55307399434306" lon="9.185298049898082"><ele>990.0</ele><time>2026-05-03T11:52:53Z</time></trkpt><trkpt lat="44.55295177125176" lon="9.185407345241387"><ele>990.0</ele><time>2026-05-03T11:52:54.001Z</time></trkpt><trkpt lat="44.55279954190302" lon="9.185487598615568"><ele>990.0</ele><time>2026-05-03T11:52:55.001Z</time></trkpt><trkpt lat="44.5526491585947" lon="9.185505609366702"><ele>983.3333333333333</ele><time>2026-05-03T11:52:56.001Z</time></trkpt><trkpt lat="44.5524924972819" lon="9.185514464911362"><ele>976.6666666666666</ele><time>2026-05-03T11:52:57.001Z</time></trkpt><trkpt lat="44.552331117381165" lon="9.185548070323241"><ele>970.0</ele><time>2026-05-03T11:52:58.001Z</time></trkpt><trkpt lat="44.552187103674854" lon="9.185560347905875"><ele>971.3333333333333</ele><time>2026-05-03T11:52:59.001Z</time></trkpt><trkpt lat="44.55206384417166" lon="9.185708496284635"><ele>972.6666666666667</ele><time>2026-05-03T11:53:00.001Z</time></trkpt><trkpt lat="44.55191651394009" lon="9.18585871018037"><ele>974.0</ele><time>2026-05-03T11:53:01.001Z</time></trkpt><trkpt lat="44.551750320911886" lon="9.185977636791874"><ele>974.0</ele><time>2026-05-03T11:53:02.001Z</time></trkpt><trkpt lat="44.55161008927222" lon="9.186085087120832"><ele>974.0</ele><time>2026-05-03T11:53:03.001Z</time></trkpt><trkpt lat="44.55151461859856" lon="9.186177570351864"><ele>974.0</ele><time>2026-05-03T11:53:04.001Z</time></trkpt><trkpt lat="44.55146616727276" lon="9.186274804513515"><ele>974.0</ele><time>2026-05-03T11:53:05.001Z</time></trkpt><trkpt lat="44.55147892703312" lon="9.18641718800926"><ele>975.25</ele><time>2026-05-03T11:53:06.001Z</time></trkpt><trkpt lat="44.55154127769626" lon="9.186561284327546"><ele>976.5</ele><time>2026-05-03T11:53:07.001Z</time></trkpt><trkpt lat="44.55163198724868" lon="9.18666286422708"><ele>977.75</ele><time>2026-05-03T11:53:08.001Z</time></trkpt><trkpt lat="44.55174688308884" lon="9.18678174693288"><ele>979.0</ele><time>2026-05-03T11:53:09.001Z</time></trkpt><trkpt lat="44.55184030384471" lon="9.186943320536056"><ele>979.0</ele><time>2026-05-03T11:53:10.001Z</time></trkpt><trkpt lat="44.55191944233787" lon="9.18714089361152"><ele>979.0</ele><time>2026-05-03T11:53:11.001Z</time></trkpt><trkpt lat="44.55198890504105" lon="9.187372200594144"><ele>979.0</ele><time>2026-05-03T11:53:12.001Z</time></trkpt><trkpt lat="44.55206921658249" lon="9.187608767483079"><ele>984.3333333333333</ele><time>2026-05-03T11:53:13.001Z</time></trkpt><trkpt lat="44.55215122669757" lon="9.187821433695017"><ele>989.6666666666667</ele><time>2026-05-03T11:53:14.001Z</time></trkpt><trkpt lat="44.55220347184926" lon="9.18801482995279"><ele>995.0</ele><time>2026-05-03T11:53:15.001Z</time></trkpt><trkpt lat="44.55220578160698" lon="9.188224162660367"><ele>995.0</ele><time>2026-05-03T11:53:16.001Z</time></trkpt><trkpt lat="44.55211698818462" lon="9.188393061071343"><ele>995.0</ele><time>2026-05-03T11:53:17.001Z</time></trkpt><trkpt lat="44.55201840040917" lon="9.188592371085766"><ele>995.0</ele><time>2026-05-03T11:53:18.001Z</time></trkpt><trkpt lat="44.55192847391417" lon="9.188791342734126"><ele>984.5</ele><time>2026-05-03T11:53:19.001Z</time></trkpt><trkpt lat="44.55184150969938" lon="9.188957487992377"><ele>974.0</ele><time>2026-05-03T11:53:20.001Z</time></trkpt><trkpt lat="44.551789065555255" lon="9.189104596191832"><ele>963.5</ele><time>2026-05-03T11:53:21.001Z</time></trkpt><trkpt lat="44.55180858712679" lon="9.189254521829577"><ele>953.0</ele><time>2026-05-03T11:53:22.001Z</time></trkpt><trkpt lat="44.551861744761055" lon="9.189436836171444"><ele>952.0</ele><time>2026-05-03T11:53:23.001Z</time></trkpt><trkpt lat="44.55196642123462" lon="9.189622947996112"><ele>951.0</ele><time>2026-05-03T11:53:24.001Z</time></trkpt><trkpt lat="44.5520549494893" lon="9.189826053848837"><ele>950.0</ele><time>2026-05-03T11:53:25.001Z</time></trkpt><trkpt lat="44.55210230930704" lon="9.190022507973849"><ele>946.3333333333334</ele><time>2026-05-03T11:53:26.001Z</time></trkpt><trkpt lat="44.552118400740284" lon="9.190233649351859"><ele>942.6666666666667</ele><time>2026-05-03T11:53:27.001Z</time></trkpt><trkpt lat="44.55205519545293" lon="9.190444481440366"><ele>939.0</ele><time>2026-05-03T11:53:28.001Z</time></trkpt><trkpt lat="44.5519806606421" lon="9.190627440092053"><ele>938.4000000000001</ele><time>2026-05-03T11:53:29.001Z</time></trkpt><trkpt lat="44.55194272584122" lon="9.190786589932832"><ele>937.8000000000001</ele><time>2026-05-03T11:53:30.001Z</time></trkpt><trkpt lat="44.55192690513001" lon="9.190921851150188"><ele>937.1999999999999</ele><time>2026-05-03T11:53:31.001Z</time></trkpt><trkpt lat="44.551959904692595" lon="9.191053544902582"><ele>936.5999999999999</ele><time>2026-05-03T11:53:32.001Z</time></trkpt><trkpt lat="44.552028086650004" lon="9.191192221059765"><ele>936.0</ele><time>2026-05-03T11:53:33.001Z</time></trkpt><trkpt lat="44.5521280940423" lon="9.191320606558401"><ele>940.3333333333333</ele><time>2026-05-03T11:53:34.001Z</time></trkpt><trkpt lat="44.55225160693083" lon="9.19146314612488"><ele>944.6666666666666</ele><time>2026-05-03T11:53:35.001Z</time></trkpt><trkpt lat="44.55233780296501" lon="9.191648782248338"><ele>949.0</ele><time>2026-05-03T11:53:36.001Z</time></trkpt><trkpt lat="44.552417317242686" lon="9.191824493912394"><ele>949.0</ele><time>2026-05-03T11:53:37.001Z</time></trkpt><trkpt lat="44.552471586403534" lon="9.192017720576361"><ele>949.0</ele><time>2026-05-03T11:53:38.001Z</time></trkpt><trkpt lat="44.55254364919719" lon="9.192180751850955"><ele>949.0</ele><time>2026-05-03T11:53:39.001Z</time></trkpt><trkpt lat="44.552649063418215" lon="9.192303797955017"><ele>949.0</ele><time>2026-05-03T11:53:40.001Z</time></trkpt><trkpt lat="44.55277922351911" lon="9.192356902938103"><ele>949.75</ele><time>2026-05-03T11:53:41.001Z</time></trkpt><trkpt lat="44.552914081198026" lon="9.19238463633439"><ele>950.5</ele><time>2026-05-03T11:53:42.001Z</time></trkpt><trkpt lat="44.55304862402533" lon="9.192416788489961"><ele>951.25</ele><time>2026-05-03T11:53:43.001Z</time></trkpt><trkpt lat="44.55318280531" lon="9.192486818305326"><ele>952.0</ele><time>2026-05-03T11:53:44.001Z</time></trkpt><trkpt lat="44.553318365807456" lon="9.192555182576061"><ele>952.0</ele><time>2026-05-03T11:53:45Z</time></trkpt><trkpt lat="44.55343760074007" lon="9.192626799560498"><ele>952.0</ele><time>2026-05-03T11:53:46Z</time></trkpt><trkpt lat="44.553526317755335" lon="9.192746690208358"><ele>952.0</ele><time>2026-05-03T11:53:47Z</time></trkpt><trkpt lat="44.55359723819745" lon="9.192866810653376"><ele>952.0</ele><time>2026-05-03T11:53:48Z</time></trkpt><trkpt lat="44.55366342866666" lon="9.192996662720217"><ele>952.75</ele><time>2026-05-03T11:53:49Z</time></trkpt><trkpt lat="44.553744643708235" lon="9.193134438771938"><ele>953.5</ele><time>2026-05-03T11:53:50Z</time></trkpt><trkpt lat="44.55383536335469" lon="9.193278521560682"><ele>954.25</ele><time>2026-05-03T11:53:51Z</time></trkpt><trkpt lat="44.55392379641207" lon="9.193394278008105"><ele>955.0</ele><time>2026-05-03T11:53:52Z</time></trkpt><trkpt lat="44.5540066530739" lon="9.193517435481205"><ele>955.0</ele><time>2026-05-03T11:53:53Z</time></trkpt><trkpt lat="44.55417156988777" lon="9.193484472408064"><ele>955.0</ele><time>2026-05-03T11:53:54Z</time></trkpt><trkpt lat="44.5543095476816" lon="9.193426663925877"><ele>955.0</ele><time>2026-05-03T11:53:55Z</time></trkpt><trkpt lat="44.55443194011744" lon="9.193317450571755"><ele>956.6666666666666</ele><time>2026-05-03T11:53:56Z</time></trkpt><trkpt lat="44.554517276385134" lon="9.193150415910647"><ele>958.3333333333333</ele><time>2026-05-03T11:53:57Z</time></trkpt><trkpt lat="44.55458698505351" lon="9.19296078200124"><ele>960.0</ele><time>2026-05-03T11:53:58Z</time></trkpt><trkpt lat="44.55467024441883" lon="9.192772560429685"><ele>960.0</ele><time>2026-05-03T11:53:59Z</time></trkpt><trkpt lat="44.554750102379884" lon="9.19257060100018"><ele>960.0</ele><time>2026-05-03T11:54:00Z</time></trkpt><trkpt lat="44.55482412873584" lon="9.192344737713348"><ele>960.0</ele><time>2026-05-03T11:54:01Z</time></trkpt><trkpt lat="44.554893679976416" lon="9.192112411357133"><ele>964.5</ele><time>2026-05-03T11:54:02Z</time></trkpt><trkpt lat="44.5549551260009" lon="9.191905115097812"><ele>969.0</ele><time>2026-05-03T11:54:03Z</time></trkpt><trkpt lat="44.55500701077163" lon="9.191749994326432"><ele>973.5</ele><time>2026-05-03T11:54:04Z</time></trkpt><trkpt lat="44.55506836527325" lon="9.191660407914442"><ele>978.0</ele><time>2026-05-03T11:54:05Z</time></trkpt><trkpt lat="44.555173579635046" lon="9.191625807924797"><ele>978.0</ele><time>2026-05-03T11:54:06Z</time></trkpt><trkpt lat="44.55530282022442" lon="9.191614087883556"><ele>978.0</ele><time>2026-05-03T11:54:07Z</time></trkpt><trkpt lat="44.55544285898283" lon="9.19168512095246"><ele>978.0</ele><time>2026-05-03T11:54:08Z</time></trkpt><trkpt lat="44.55559839663094" lon="9.191752219184094"><ele>978.0</ele><time>2026-05-03T11:54:09Z</time></trkpt><trkpt lat="44.55576328784115" lon="9.191796229445297"><ele>981.3333333333333</ele><time>2026-05-03T11:54:10Z</time></trkpt><trkpt lat="44.555932789610644" lon="9.191865070250556"><ele>984.6666666666666</ele><time>2026-05-03T11:54:11Z</time></trkpt><trkpt lat="44.55610998002866" lon="9.191901314242234"><ele>988.0</ele><time>2026-05-03T11:54:12Z</time></trkpt><trkpt lat="44.556295438946925" lon="9.191960330975363"><ele>995.0</ele><time>2026-05-03T11:54:13Z</time></trkpt><trkpt lat="44.556476328713394" lon="9.19203046836106"><ele>1002.0</ele><time>2026-05-03T11:54:14Z</time></trkpt><trkpt lat="44.55663454661319" lon="9.19214405776856"><ele>1009.0</ele><time>2026-05-03T11:54:15Z</time></trkpt><trkpt lat="44.556763666422064" lon="9.192292418578496"><ele>1015.0</ele><time>2026-05-03T11:54:16Z</time></trkpt><trkpt lat="44.55688602185605" lon="9.192487215399035"><ele>1021.0</ele><time>2026-05-03T11:54:17Z</time></trkpt><trkpt lat="44.556984512046746" lon="9.192687478159488"><ele>1027.0</ele><time>2026-05-03T11:54:18Z</time></trkpt><trkpt lat="44.557061844016935" lon="9.192912327949651"><ele>1027.0</ele><time>2026-05-03T11:54:19Z</time></trkpt><trkpt lat="44.55717977955762" lon="9.193141328844245"><ele>1027.0</ele><time>2026-05-03T11:54:20Z</time></trkpt><trkpt lat="44.55731097738105" lon="9.193374320850646"><ele>1027.0</ele><time>2026-05-03T11:54:21Z</time></trkpt><trkpt lat="44.55742315103512" lon="9.193508073074076"><ele>1021.25</ele><time>2026-05-03T11:54:22Z</time></trkpt><trkpt lat="44.55754634839629" lon="9.193594091249278"><ele>1015.5</ele><time>2026-05-03T11:54:23Z</time></trkpt><trkpt lat="44.557699481544205" lon="9.193650269789638"><ele>1009.75</ele><time>2026-05-03T11:54:24Z</time></trkpt><trkpt lat="44.557810667163935" lon="9.193697217717801"><ele>1004.0</ele><time>2026-05-03T11:54:25Z</time></trkpt><trkpt lat="44.55786435632957" lon="9.193770443801512"><ele>999.5</ele><time>2026-05-03T11:54:26Z</time></trkpt><trkpt lat="44.557870083271304" lon="9.193938346650729"><ele>995.0</ele><time>2026-05-03T11:54:27Z</time></trkpt><trkpt lat="44.55786335320546" lon="9.194120799762896"><ele>990.5</ele><time>2026-05-03T11:54:28Z</time></trkpt><trkpt lat="44.55788678533308" lon="9.194310014529808"><ele>986.0</ele><time>2026-05-03T11:54:29Z</time></trkpt><trkpt lat="44.557922824386495" lon="9.19447103811162"><ele>995.5</ele><time>2026-05-03T11:54:30Z</time></trkpt><trkpt lat="44.5579979014447" lon="9.194545926849466"><ele>1005.0</ele><time>2026-05-03T11:54:31Z</time></trkpt><trkpt lat="44.55812586148085" lon="9.194619547582473"><ele>1014.5</ele><time>2026-05-03T11:54:32Z</time></trkpt><trkpt lat="44.55827559026166" lon="9.1946567629134"><ele>1024.0</ele><time>2026-05-03T11:54:33Z</time></trkpt><trkpt lat="44.55843523002251" lon="9.19475484386119"><ele>1023.0</ele><time>2026-05-03T11:54:34Z</time></trkpt><trkpt lat="44.5585912377765" lon="9.194866860550045"><ele>1022.0</ele><time>2026-05-03T11:54:35Z</time></trkpt><trkpt lat="44.5587803148342" lon="9.194943669074654"><ele>1021.0</ele><time>2026-05-03T11:54:36Z</time></trkpt><trkpt lat="44.5589631687591" lon="9.194924001134597"><ele>1021.0</ele><time>2026-05-03T11:54:37Z</time></trkpt><trkpt lat="44.55914151486075" lon="9.194932745571716"><ele>1021.0</ele><time>2026-05-03T11:54:38Z</time></trkpt><trkpt lat="44.55929240286855" lon="9.195022679373702"><ele>1021.0</ele><time>2026-05-03T11:54:39Z</time></trkpt><trkpt lat="44.559428609269546" lon="9.19515227722494"><ele>1028.3333333333333</ele><time>2026-05-03T11:54:40Z</time></trkpt><trkpt lat="44.55959565258887" lon="9.195193931970415"><ele>1035.6666666666667</ele><time>2026-05-03T11:54:41Z</time></trkpt><trkpt lat="44.55977190441895" lon="9.195262464010469"><ele>1043.0</ele><time>2026-05-03T11:54:42Z</time></trkpt><trkpt lat="44.5599137229094" lon="9.195375711679871"><ele>1043.0</ele><time>2026-05-03T11:54:43Z</time></trkpt><trkpt lat="44.56004812327456" lon="9.195509330416908"><ele>1043.0</ele><time>2026-05-03T11:54:44Z</time></trkpt><trkpt lat="44.56015142432975" lon="9.19560516995506"><ele>1043.0</ele><time>2026-05-03T11:54:45Z</time></trkpt><trkpt lat="44.56028639072364" lon="9.195571678544535"><ele>1043.0</ele><time>2026-05-03T11:54:47Z</time></trkpt><trkpt lat="44.5603497197177" lon="9.195446557194636"><ele>1048.0</ele><time>2026-05-03T11:54:48Z</time></trkpt><trkpt lat="44.5604628512338" lon="9.195371182027051"><ele>1053.0</ele><time>2026-05-03T11:54:49Z</time></trkpt><trkpt lat="44.5605707087203" lon="9.195344836776744"><ele>1058.0</ele><time>2026-05-03T11:54:50Z</time></trkpt><trkpt lat="44.56066491092101" lon="9.195405585643606"><ele>1063.0</ele><time>2026-05-03T11:54:51Z</time></trkpt><trkpt lat="44.56078853946519" lon="9.195476005311413"><ele>1063.0</ele><time>2026-05-03T11:54:52Z</time></trkpt><trkpt lat="44.56091874357153" lon="9.195498196660601"><ele>1063.0</ele><time>2026-05-03T11:54:53Z</time></trkpt><trkpt lat="44.561040819966934" lon="9.195491130513856"><ele>1063.0</ele><time>2026-05-03T11:54:54Z</time></trkpt><trkpt lat="44.56116880497066" lon="9.195402359215832"><ele>1063.0</ele><time>2026-05-03T11:54:55Z</time></trkpt><trkpt lat="44.56132561637407" lon="9.195290667340192"><ele>1066.2</ele><time>2026-05-03T11:54:56Z</time></trkpt><trkpt lat="44.56145261684316" lon="9.195245025007045"><ele>1069.4</ele><time>2026-05-03T11:54:57Z</time></trkpt><trkpt lat="44.561524273987914" lon="9.195225855948834"><ele>1072.6000000000001</ele><time>2026-05-03T11:54:58Z</time></trkpt><trkpt lat="44.56157067501629" lon="9.195318118704785"><ele>1075.8</ele><time>2026-05-03T11:54:59.001Z</time></trkpt><trkpt lat="44.561550234565416" lon="9.195436401176678"><ele>1079.0</ele><time>2026-05-03T11:55:00.001Z</time></trkpt><trkpt lat="44.561607201180614" lon="9.195603419300847"><ele>1070.5</ele><time>2026-05-03T11:55:01.001Z</time></trkpt><trkpt lat="44.56170714684147" lon="9.19573197028887"><ele>1062.0</ele><time>2026-05-03T11:55:02.001Z</time></trkpt><trkpt lat="44.56178493141328" lon="9.195844178231452"><ele>1053.5</ele><time>2026-05-03T11:55:03.001Z</time></trkpt><trkpt lat="44.561841619979226" lon="9.19597558042022"><ele>1045.0</ele><time>2026-05-03T11:55:04.001Z</time></trkpt><trkpt lat="44.561778925678794" lon="9.19608859031223"><ele>1045.0</ele><time>2026-05-03T11:55:05.001Z</time></trkpt><trkpt lat="44.56168474502345" lon="9.196151958629354"><ele>1045.0</ele><time>2026-05-03T11:55:06.001Z</time></trkpt><trkpt lat="44.561573772985334" lon="9.196163006900019"><ele>1045.0</ele><time>2026-05-03T11:55:07.001Z</time></trkpt><trkpt lat="44.561494263675115" lon="9.196290130724368"><ele>1045.0</ele><time>2026-05-03T11:55:08.001Z</time></trkpt><trkpt lat="44.56145227292627" lon="9.196439768365307"><ele>1046.3333333333333</ele><time>2026-05-03T11:55:09.001Z</time></trkpt><trkpt lat="44.56141170749624" lon="9.196667241308166"><ele>1047.6666666666667</ele><time>2026-05-03T11:55:10.001Z</time></trkpt><trkpt lat="44.56137006186885" lon="9.196879205962206"><ele>1049.0</ele><time>2026-05-03T11:55:11.001Z</time></trkpt><trkpt lat="44.56129858374566" lon="9.197075308907714"><ele>1049.0</ele><time>2026-05-03T11:55:12.001Z</time></trkpt><trkpt lat="44.56121704759404" lon="9.197251333169433"><ele>1049.0</ele><time>2026-05-03T11:55:13.001Z</time></trkpt><trkpt lat="44.56120653986374" lon="9.197423265328991"><ele>1049.0</ele><time>2026-05-03T11:55:14.001Z</time></trkpt><trkpt lat="44.561250172918555" lon="9.197502395223653"><ele>1049.0</ele><time>2026-05-03T11:55:15.001Z</time></trkpt><trkpt lat="44.561314957124345" lon="9.197670097120785"><ele>1050.75</ele><time>2026-05-03T11:55:16.001Z</time></trkpt><trkpt lat="44.56138563650667" lon="9.197846093618134"><ele>1052.5</ele><time>2026-05-03T11:55:17.001Z</time></trkpt><trkpt lat="44.561448795150966" lon="9.19800682739166"><ele>1054.25</ele><time>2026-05-03T11:55:18.001Z</time></trkpt><trkpt lat="44.56140077380177" lon="9.198178134339937"><ele>1056.0</ele><time>2026-05-03T11:55:19.001Z</time></trkpt><trkpt lat="44.56137241156985" lon="9.19841536567358"><ele>1056.0</ele><time>2026-05-03T11:55:20.001Z</time></trkpt><trkpt lat="44.56137513804" lon="9.198680505393275"><ele>1056.0</ele><time>2026-05-03T11:55:21.001Z</time></trkpt><trkpt lat="44.56137530731831" lon="9.198924291101225"><ele>1056.0</ele><time>2026-05-03T11:55:22.001Z</time></trkpt><trkpt lat="44.56132002147062" lon="9.199180537044754"><ele>1056.0</ele><time>2026-05-03T11:55:23.001Z</time></trkpt><trkpt lat="44.56128900094966" lon="9.19947475144677"><ele>1056.0</ele><time>2026-05-03T11:55:24.001Z</time></trkpt><trkpt lat="44.56119886139987" lon="9.199689144370014"><ele>1056.0</ele><time>2026-05-03T11:55:25.001Z</time></trkpt><trkpt lat="44.5611410243718" lon="9.199894956545684"><ele>1057.0</ele><time>2026-05-03T11:55:26.001Z</time></trkpt><trkpt lat="44.56111712170528" lon="9.200041767924187"><ele>1058.0</ele><time>2026-05-03T11:55:27.001Z</time></trkpt><trkpt lat="44.56116210891586" lon="9.200200555074842"><ele>1059.0</ele><time>2026-05-03T11:55:28.001Z</time></trkpt><trkpt lat="44.561245742181256" lon="9.200340625517116"><ele>1060.0</ele><time>2026-05-03T11:55:29.001Z</time></trkpt><trkpt lat="44.561319276770874" lon="9.200487569107965"><ele>1060.0</ele><time>2026-05-03T11:55:30.001Z</time></trkpt><trkpt lat="44.56132665452925" lon="9.200628281383837"><ele>1060.0</ele><time>2026-05-03T11:55:31.001Z</time></trkpt><trkpt lat="44.56115886693076" lon="9.200697914139308"><ele>1060.0</ele><time>2026-05-03T11:55:33.001Z</time></trkpt><trkpt lat="44.56104539740017" lon="9.200756047572128"><ele>1060.0</ele><time>2026-05-03T11:55:34.001Z</time></trkpt><trkpt lat="44.56094493943947" lon="9.200881851370042"><ele>1055.3333333333333</ele><time>2026-05-03T11:55:35.001Z</time></trkpt><trkpt lat="44.560860890274355" lon="9.201020964754262"><ele>1050.6666666666667</ele><time>2026-05-03T11:55:36.001Z</time></trkpt><trkpt lat="44.5608058550071" lon="9.201210852646252"><ele>1046.0</ele><time>2026-05-03T11:55:37.001Z</time></trkpt><trkpt lat="44.56069336075516" lon="9.2014109579108"><ele>1046.3333333333335</ele><time>2026-05-03T11:55:38.001Z</time></trkpt><trkpt lat="44.560588519546606" lon="9.201594389655169"><ele>1046.6666666666667</ele><time>2026-05-03T11:55:39.001Z</time></trkpt><trkpt lat="44.56046703778752" lon="9.2018007851672"><ele>1047.0</ele><time>2026-05-03T11:55:40.001Z</time></trkpt><trkpt lat="44.560335989513476" lon="9.202014587531385"><ele>1047.0</ele><time>2026-05-03T11:55:41.001Z</time></trkpt><trkpt lat="44.560217990182245" lon="9.202194027539395"><ele>1047.0</ele><time>2026-05-03T11:55:42.001Z</time></trkpt><trkpt lat="44.560081271240165" lon="9.202301942217103"><ele>1047.0</ele><time>2026-05-03T11:55:43.001Z</time></trkpt><trkpt lat="44.55996523724866" lon="9.202241625339758"><ele>1047.0</ele><time>2026-05-03T11:55:44.001Z</time></trkpt><trkpt lat="44.55989987393899" lon="9.202123297372768"><ele>1047.0</ele><time>2026-05-03T11:55:45Z</time></trkpt><trkpt lat="44.559777996221435" lon="9.202072752550606"><ele>1047.0</ele><time>2026-05-03T11:55:46Z</time></trkpt><trkpt lat="44.559656875019535" lon="9.202100240827406"><ele>1047.0</ele><time>2026-05-03T11:55:47Z</time></trkpt><trkpt lat="44.55955234704509" lon="9.202193060695597"><ele>1046.3333333333333</ele><time>2026-05-03T11:55:48Z</time></trkpt><trkpt lat="44.559426217361725" lon="9.202329757725648"><ele>1045.6666666666665</ele><time>2026-05-03T11:55:49Z</time></trkpt><trkpt lat="44.55926317704403" lon="9.202420423001016"><ele>1045.0</ele><time>2026-05-03T11:55:50Z</time></trkpt><trkpt lat="44.55908563446472" lon="9.202455510022451"><ele>1046.0</ele><time>2026-05-03T11:55:51Z</time></trkpt><trkpt lat="44.55891660050214" lon="9.202434541907083"><ele>1047.0</ele><time>2026-05-03T11:55:52Z</time></trkpt><trkpt lat="44.55875482159452" lon="9.20240573731569"><ele>1048.0</ele><time>2026-05-03T11:55:53Z</time></trkpt><trkpt lat="44.558644878549416" lon="9.202425310711616"><ele>1049.0</ele><time>2026-05-03T11:55:54Z</time></trkpt><trkpt lat="44.55853393623935" lon="9.202551606816895"><ele>1049.0</ele><time>2026-05-03T11:55:56Z</time></trkpt><trkpt lat="44.55855350019354" lon="9.202670480660366"><ele>1049.0</ele><time>2026-05-03T11:55:57Z</time></trkpt><trkpt lat="44.55854229265295" lon="9.202804125309472"><ele>1049.0</ele><time>2026-05-03T11:55:58Z</time></trkpt><trkpt lat="44.55849493862944" lon="9.202969741840041"><ele>1049.0</ele><time>2026-05-03T11:55:59Z</time></trkpt><trkpt lat="44.55843016399236" lon="9.203159364504748"><ele>1050.8</ele><time>2026-05-03T11:56:00Z</time></trkpt><trkpt lat="44.55840418095476" lon="9.203319262184031"><ele>1052.6000000000001</ele><time>2026-05-03T11:56:01Z</time></trkpt><trkpt lat="44.55845861024884" lon="9.203434507156528"><ele>1054.4</ele><time>2026-05-03T11:56:02Z</time></trkpt><trkpt lat="44.55853984189753" lon="9.203529938962498"><ele>1056.2</ele><time>2026-05-03T11:56:03Z</time></trkpt><trkpt lat="44.55860772244201" lon="9.203681103256807"><ele>1058.0</ele><time>2026-05-03T11:56:04Z</time></trkpt><trkpt lat="44.55865378037295" lon="9.203896419303526"><ele>1059.6666666666667</ele><time>2026-05-03T11:56:05Z</time></trkpt><trkpt lat="44.55865163733742" lon="9.204100395608384"><ele>1061.3333333333333</ele><time>2026-05-03T11:56:06Z</time></trkpt><trkpt lat="44.558626070790446" lon="9.204302704654065"><ele>1063.0</ele><time>2026-05-03T11:56:07Z</time></trkpt><trkpt lat="44.55862668240975" lon="9.204558371147586"><ele>1063.0</ele><time>2026-05-03T11:56:08Z</time></trkpt><trkpt lat="44.55865631491476" lon="9.204782512133184"><ele>1063.0</ele><time>2026-05-03T11:56:09Z</time></trkpt><trkpt lat="44.558654554626166" lon="9.204944693737934"><ele>1063.0</ele><time>2026-05-03T11:56:10Z</time></trkpt><trkpt lat="44.55855823304723" lon="9.205073343222583"><ele>1063.0</ele><time>2026-05-03T11:56:11Z</time></trkpt><trkpt lat="44.558463632417926" lon="9.205291494476183"><ele>1067.0</ele><time>2026-05-03T11:56:12Z</time></trkpt><trkpt lat="44.55836999712464" lon="9.205450690828169"><ele>1071.0</ele><time>2026-05-03T11:56:13Z</time></trkpt><trkpt lat="44.55828102418615" lon="9.205566069832066"><ele>1075.0</ele><time>2026-05-03T11:56:14Z</time></trkpt><trkpt lat="44.5581332255341" lon="9.205656460057309"><ele>1079.0</ele><time>2026-05-03T11:56:14.999Z</time></trkpt><trkpt lat="44.55795644574078" lon="9.205714673369636"><ele>1076.75</ele><time>2026-05-03T11:56:15.999Z</time></trkpt><trkpt lat="44.55786664291114" lon="9.205801189469083"><ele>1074.5</ele><time>2026-05-03T11:56:16.999Z</time></trkpt><trkpt lat="44.55782678196188" lon="9.205892380734676"><ele>1072.25</ele><time>2026-05-03T11:56:17.999Z</time></trkpt><trkpt lat="44.557735696145414" lon="9.205997186280245"><ele>1070.0</ele><time>2026-05-03T11:56:18.999Z</time></trkpt><trkpt lat="44.55757890667269" lon="9.206158575070814"><ele>1070.0</ele><time>2026-05-03T11:56:19.999Z</time></trkpt><trkpt lat="44.55745407113043" lon="9.206345846536383"><ele>1070.0</ele><time>2026-05-03T11:56:20.999Z</time></trkpt><trkpt lat="44.5573129911149" lon="9.206503994311653"><ele>1070.0</ele><time>2026-05-03T11:56:21.999Z</time></trkpt><trkpt lat="44.557157640517886" lon="9.20671618450139"><ele>1069.6666666666667</ele><time>2026-05-03T11:56:22.999Z</time></trkpt><trkpt lat="44.557006668418914" lon="9.206919007144572"><ele>1069.3333333333333</ele><time>2026-05-03T11:56:23.999Z</time></trkpt><trkpt lat="44.55687438665437" lon="9.207064233506408"><ele>1069.0</ele><time>2026-05-03T11:56:24.999Z</time></trkpt><trkpt lat="44.55671141034397" lon="9.20714148712849"><ele>1069.0</ele><time>2026-05-03T11:56:25.999Z</time></trkpt><trkpt lat="44.55662528516393" lon="9.20721475630457"><ele>1069.0</ele><time>2026-05-03T11:56:26.999Z</time></trkpt><trkpt lat="44.55655254094385" lon="9.207294678091296"><ele>1069.0</ele><time>2026-05-03T11:56:27.999Z</time></trkpt><trkpt lat="44.556499509139094" lon="9.207429700724935"><ele>1069.0</ele><time>2026-05-03T11:56:28.999Z</time></trkpt><trkpt lat="44.55646003406222" lon="9.207641893878622"><ele>1071.6000000000001</ele><time>2026-05-03T11:56:29.999Z</time></trkpt><trkpt lat="44.55641436997443" lon="9.207835798050608"><ele>1074.2</ele><time>2026-05-03T11:56:30.999Z</time></trkpt><trkpt lat="44.5563262307473" lon="9.207978372782058"><ele>1076.8000000000002</ele><time>2026-05-03T11:56:31.999Z</time></trkpt><trkpt lat="44.55627163528292" lon="9.2080894078427"><ele>1079.4</ele><time>2026-05-03T11:56:32.999Z</time></trkpt><trkpt lat="44.5562918160963" lon="9.208177448854206"><ele>1082.0</ele><time>2026-05-03T11:56:33.999Z</time></trkpt><trkpt lat="44.5563438800923" lon="9.208248222218453"><ele>1082.75</ele><time>2026-05-03T11:56:34.999Z</time></trkpt><trkpt lat="44.556423247423055" lon="9.208306403937137"><ele>1083.5</ele><time>2026-05-03T11:56:35.999Z</time></trkpt><trkpt lat="44.55654535238269" lon="9.208434770156158"><ele>1084.25</ele><time>2026-05-03T11:56:36.999Z</time></trkpt><trkpt lat="44.55662031318127" lon="9.208616194460609"><ele>1085.0</ele><time>2026-05-03T11:56:37.999Z</time></trkpt><trkpt lat="44.55669421311733" lon="9.20881006060482"><ele>1080.3333333333335</ele><time>2026-05-03T11:56:38.999Z</time></trkpt><trkpt lat="44.556750633170644" lon="9.209031560745643"><ele>1075.6666666666667</ele><time>2026-05-03T11:56:39.999Z</time></trkpt><trkpt lat="44.556848553885715" lon="9.2092228462251"><ele>1071.0</ele><time>2026-05-03T11:56:40.999Z</time></trkpt><trkpt lat="44.55695944490168" lon="9.20935961935419"><ele>1077.75</ele><time>2026-05-03T11:56:41.999Z</time></trkpt><trkpt lat="44.557081684143675" lon="9.209433210794185"><ele>1084.5</ele><time>2026-05-03T11:56:42.999Z</time></trkpt><trkpt lat="44.557169920103384" lon="9.209562830345835"><ele>1091.25</ele><time>2026-05-03T11:56:43.999Z</time></trkpt><trkpt lat="44.557189992362844" lon="9.20973160785663"><ele>1098.0</ele><time>2026-05-03T11:56:44.999Z</time></trkpt><trkpt lat="44.55719152205573" lon="9.209892887645319"><ele>1098.0</ele><time>2026-05-03T11:56:45.999Z</time></trkpt><trkpt lat="44.55713257777592" lon="9.209997835966766"><ele>1098.0</ele><time>2026-05-03T11:56:46.999Z</time></trkpt><trkpt lat="44.557024996458615" lon="9.2100927529779"><ele>1098.0</ele><time>2026-05-03T11:56:47.999Z</time></trkpt><trkpt lat="44.556918020328816" lon="9.21024671514999"><ele>1098.0</ele><time>2026-05-03T11:56:48.999Z</time></trkpt><trkpt lat="44.556880894798994" lon="9.210355106989642"><ele>1097.75</ele><time>2026-05-03T11:56:49.999Z</time></trkpt><trkpt lat="44.55689169308605" lon="9.210452180132025"><ele>1097.5</ele><time>2026-05-03T11:56:50.999Z</time></trkpt><trkpt lat="44.55694985341956" lon="9.210600192723787"><ele>1097.25</ele><time>2026-05-03T11:56:51.999Z</time></trkpt><trkpt lat="44.55703981296165" lon="9.210786730588271"><ele>1097.0</ele><time>2026-05-03T11:56:52.999Z</time></trkpt><trkpt lat="44.55700926539894" lon="9.210936826581023"><ele>1089.0</ele><time>2026-05-03T11:56:53.999Z</time></trkpt><trkpt lat="44.55691456828299" lon="9.2109999451446"><ele>1081.0</ele><time>2026-05-03T11:56:54.999Z</time></trkpt><trkpt lat="44.55681382981009" lon="9.211139678657277"><ele>1073.0</ele><time>2026-05-03T11:56:55.999Z</time></trkpt><trkpt lat="44.556727927391826" lon="9.211289478370142"><ele>1065.0</ele><time>2026-05-03T11:56:56.999Z</time></trkpt><trkpt lat="44.556628984136445" lon="9.211455731418795"><ele>1067.75</ele><time>2026-05-03T11:56:57.999Z</time></trkpt><trkpt lat="44.556591985705495" lon="9.211650990496302"><ele>1070.5</ele><time>2026-05-03T11:56:58.999Z</time></trkpt><trkpt lat="44.55655459992721" lon="9.211790102429621"><ele>1073.25</ele><time>2026-05-03T11:56:59.999Z</time></trkpt><trkpt lat="44.556440099258595" lon="9.211819499446"><ele>1076.0</ele><time>2026-05-03T11:57:00.999Z</time></trkpt><trkpt lat="44.55636277348367" lon="9.21176401934251"><ele>1076.0</ele><time>2026-05-03T11:57:01.999Z</time></trkpt><trkpt lat="44.55623749497462" lon="9.211781990250419"><ele>1076.0</ele><time>2026-05-03T11:57:02.999Z</time></trkpt><trkpt lat="44.55613479008451" lon="9.211857984761062"><ele>1076.0</ele><time>2026-05-03T11:57:03.999Z</time></trkpt><trkpt lat="44.556078246000325" lon="9.2119798017163"><ele>1076.0</ele><time>2026-05-03T11:57:04.999Z</time></trkpt><trkpt lat="44.55605564106527" lon="9.212180393256473"><ele>1074.5</ele><time>2026-05-03T11:57:05.999Z</time></trkpt><trkpt lat="44.55605008794844" lon="9.212377193297863"><ele>1073.0</ele><time>2026-05-03T11:57:06.999Z</time></trkpt><trkpt lat="44.55598705458591" lon="9.212577348355815"><ele>1071.5</ele><time>2026-05-03T11:57:07.999Z</time></trkpt><trkpt lat="44.55588223296202" lon="9.212666301091966"><ele>1070.0</ele><time>2026-05-03T11:57:08.999Z</time></trkpt><trkpt lat="44.55576254739129" lon="9.212668648626213"><ele>1070.0</ele><time>2026-05-03T11:57:09.999Z</time></trkpt><trkpt lat="44.55563888535168" lon="9.212698936035308"><ele>1070.0</ele><time>2026-05-03T11:57:10.999Z</time></trkpt><trkpt lat="44.55555542123835" lon="9.212738745700097"><ele>1070.0</ele><time>2026-05-03T11:57:11.999Z</time></trkpt><trkpt lat="44.55543314397017" lon="9.212711642841802"><ele>1070.0</ele><time>2026-05-03T11:57:31Z</time></trkpt><trkpt lat="44.555346926977805" lon="9.21271838539819"><ele>1070.0</ele><time>2026-05-03T11:57:32Z</time></trkpt><trkpt lat="44.55524203784836" lon="9.212725125163663"><ele>1066.6</ele><time>2026-05-03T11:57:33Z</time></trkpt><trkpt lat="44.55513578110366" lon="9.212730934037339"><ele>1063.2</ele><time>2026-05-03T11:57:34Z</time></trkpt><trkpt lat="44.55504391906391" lon="9.212751646849954"><ele>1059.8</ele><time>2026-05-03T11:57:35Z</time></trkpt><trkpt lat="44.55495421271718" lon="9.2128218990706"><ele>1056.4</ele><time>2026-05-03T11:57:36Z</time></trkpt><trkpt lat="44.554876483105886" lon="9.21294366988609"><ele>1053.0</ele><time>2026-05-03T11:57:37Z</time></trkpt><trkpt lat="44.554819040955316" lon="9.21307255242361"><ele>1053.0</ele><time>2026-05-03T11:57:38Z</time></trkpt><trkpt lat="44.55474043228912" lon="9.213139800981223"><ele>1053.0</ele><time>2026-05-03T11:57:39Z</time></trkpt><trkpt lat="44.55467408695589" lon="9.213208427141922"><ele>1053.0</ele><time>2026-05-03T11:57:40Z</time></trkpt><trkpt lat="44.554603797331964" lon="9.213264121937895"><ele>1053.0</ele><time>2026-05-03T11:57:41Z</time></trkpt><trkpt lat="44.55453757902606" lon="9.213347557028502"><ele>1053.0</ele><time>2026-05-03T11:57:42Z</time></trkpt><trkpt lat="44.55445976167855" lon="9.21337576092273"><ele>1053.0</ele><time>2026-05-03T11:57:43Z</time></trkpt><trkpt lat="44.55437554349397" lon="9.213401090936209"><ele>1052.4</ele><time>2026-05-03T11:57:44Z</time></trkpt><trkpt lat="44.55427118919983" lon="9.213427233976283"><ele>1051.8</ele><time>2026-05-03T11:57:45Z</time></trkpt><trkpt lat="44.55417533697707" lon="9.21348176423433"><ele>1051.2</ele><time>2026-05-03T11:57:46Z</time></trkpt><trkpt lat="44.55411485925408" lon="9.213556742385077"><ele>1050.6</ele><time>2026-05-03T11:57:47Z</time></trkpt><trkpt lat="44.55403323443905" lon="9.213478761026366"><ele>1050.0</ele><time>2026-05-03T11:57:48Z</time></trkpt><trkpt lat="44.55396206266304" lon="9.213461745594856"><ele>1050.0</ele><time>2026-05-03T11:57:49Z</time></trkpt><trkpt lat="44.553882396990396" lon="9.213435323625884"><ele>1050.0</ele><time>2026-05-03T11:57:50Z</time></trkpt><trkpt lat="44.55379618324735" lon="9.213384981420383"><ele>1050.0</ele><time>2026-05-03T11:57:51Z</time></trkpt><trkpt lat="44.553706813148345" lon="9.213315268881953"><ele>1050.0</ele><time>2026-05-03T11:57:52Z</time></trkpt><trkpt lat="44.553621645802906" lon="9.21324279627579"><ele>1050.0</ele><time>2026-05-03T11:57:53Z</time></trkpt><trkpt lat="44.55353513484306" lon="9.213167833629694"><ele>1047.0</ele><time>2026-05-03T11:57:54Z</time></trkpt><trkpt lat="44.55343747170057" lon="9.213100216440651"><ele>1044.0</ele><time>2026-05-03T11:57:55Z</time></trkpt><trkpt lat="44.55332903836546" lon="9.213079707893797"><ele>1041.0</ele><time>2026-05-03T11:57:56Z</time></trkpt><trkpt lat="44.55322872534082" lon="9.213050829347965"><ele>1038.0</ele><time>2026-05-03T11:57:57Z</time></trkpt><trkpt lat="44.55313720644635" lon="9.21304249318567"><ele>1035.0</ele><time>2026-05-03T11:57:58Z</time></trkpt><trkpt lat="44.553042469081014" lon="9.213050653719835"><ele>1035.0</ele><time>2026-05-03T11:57:59Z</time></trkpt><trkpt lat="44.55295131691665" lon="9.213032108860505"><ele>1035.0</ele><time>2026-05-03T11:58:00Z</time></trkpt><trkpt lat="44.552858052384224" lon="9.213024681663002"><ele>1035.0</ele><time>2026-05-03T11:58:01Z</time></trkpt><trkpt lat="44.55274138454109" lon="9.213006253094472"><ele>1035.0</ele><time>2026-05-03T11:58:02Z</time></trkpt><trkpt lat="44.5526108354829" lon="9.212980607193678"><ele>1035.0</ele><time>2026-05-03T11:58:03Z</time></trkpt><trkpt lat="44.55247277758744" lon="9.21295348416845"><ele>1038.5</ele><time>2026-05-03T11:58:04Z</time></trkpt><trkpt lat="44.55233316017773" lon="9.212927552398536"><ele>1042.0</ele><time>2026-05-03T11:58:05Z</time></trkpt><trkpt lat="44.55219973754212" lon="9.212905877995295"><ele>1045.5</ele><time>2026-05-03T11:58:06Z</time></trkpt><trkpt lat="44.552067642896965" lon="9.21289178544352"><ele>1049.0</ele><time>2026-05-03T11:58:07Z</time></trkpt><trkpt lat="44.551940900778874" lon="9.212937053872444"><ele>1047.25</ele><time>2026-05-03T11:58:08Z</time></trkpt><trkpt lat="44.55181310534402" lon="9.213049109413532"><ele>1045.5</ele><time>2026-05-03T11:58:09Z</time></trkpt><trkpt lat="44.551689848986605" lon="9.213145659096401"><ele>1043.75</ele><time>2026-05-03T11:58:10Z</time></trkpt><trkpt lat="44.551561375576675" lon="9.213196659086764"><ele>1042.0</ele><time>2026-05-03T11:58:11Z</time></trkpt><trkpt lat="44.55143426361333" lon="9.2131634547641"><ele>1042.0</ele><time>2026-05-03T11:58:12Z</time></trkpt><trkpt lat="44.5513306882324" lon="9.213203202657905"><ele>1042.0</ele><time>2026-05-03T11:58:13Z</time></trkpt><trkpt lat="44.55122494486807" lon="9.213302169866884"><ele>1042.0</ele><time>2026-05-03T11:58:14Z</time></trkpt><trkpt lat="44.55112605525099" lon="9.21346109769589"><ele>1042.0</ele><time>2026-05-03T11:58:15Z</time></trkpt><trkpt lat="44.55103277645" lon="9.213590724268963"><ele>1045.5</ele><time>2026-05-03T11:58:16Z</time></trkpt><trkpt lat="44.55092177024535" lon="9.213630893881263"><ele>1049.0</ele><time>2026-05-03T11:58:17Z</time></trkpt><trkpt lat="44.55079263769951" lon="9.21362210771558"><ele>1052.5</ele><time>2026-05-03T11:58:18Z</time></trkpt><trkpt lat="44.55063576198561" lon="9.213709066191065"><ele>1056.0</ele><time>2026-05-03T11:58:19Z</time></trkpt><trkpt lat="44.55052054068455" lon="9.213835751291427"><ele>1056.0</ele><time>2026-05-03T11:58:20Z</time></trkpt><trkpt lat="44.55043026059504" lon="9.213985161545624"><ele>1056.0</ele><time>2026-05-03T11:58:21Z</time></trkpt><trkpt lat="44.55035719102571" lon="9.214113371424048"><ele>1056.0</ele><time>2026-05-03T11:58:22Z</time></trkpt><trkpt lat="44.55023355784777" lon="9.214277027419717"><ele>1056.0</ele><time>2026-05-03T11:58:23Z</time></trkpt><trkpt lat="44.550098949717814" lon="9.214402966057508"><ele>1052.0</ele><time>2026-05-03T11:58:23.999Z</time></trkpt><trkpt lat="44.54994795466323" lon="9.214473381778717"><ele>1048.0</ele><time>2026-05-03T11:58:24.999Z</time></trkpt><trkpt lat="44.549778669072865" lon="9.214553823952949"><ele>1044.0</ele><time>2026-05-03T11:58:25.999Z</time></trkpt><trkpt lat="44.54962213193874" lon="9.214666156686778"><ele>1036.3333333333333</ele><time>2026-05-03T11:58:26.999Z</time></trkpt><trkpt lat="44.549474464077804" lon="9.214789467361674"><ele>1028.6666666666665</ele><time>2026-05-03T11:58:27.999Z</time></trkpt><trkpt lat="44.54931358616548" lon="9.214803421508726"><ele>1021.0</ele><time>2026-05-03T11:58:28.999Z</time></trkpt><trkpt lat="44.54915960425921" lon="9.214848815952706"><ele>1018.3333333333333</ele><time>2026-05-03T11:58:29.999Z</time></trkpt><trkpt lat="44.54902161935752" lon="9.214954714191398"><ele>1015.6666666666667</ele><time>2026-05-03T11:58:30.999Z</time></trkpt><trkpt lat="44.548904728589726" lon="9.215110618115972"><ele>1013.0</ele><time>2026-05-03T11:58:31.999Z</time></trkpt><trkpt lat="44.54878339597629" lon="9.215257172074615"><ele>1010.6666666666667</ele><time>2026-05-03T11:58:32.999Z</time></trkpt><trkpt lat="44.54864535428954" lon="9.215428267237467"><ele>1008.3333333333333</ele><time>2026-05-03T11:58:33.999Z</time></trkpt><trkpt lat="44.54850999843811" lon="9.215603431222544"><ele>1006.0</ele><time>2026-05-03T11:58:34.999Z</time></trkpt><trkpt lat="44.548376060797985" lon="9.21577529695024"><ele>1006.0</ele><time>2026-05-03T11:58:35.999Z</time></trkpt><trkpt lat="44.54823498081606" lon="9.215931446007442"><ele>1006.0</ele><time>2026-05-03T11:58:36.999Z</time></trkpt><trkpt lat="44.54809496709433" lon="9.216076696809589"><ele>1006.0</ele><time>2026-05-03T11:58:37.999Z</time></trkpt><trkpt lat="44.547966872938204" lon="9.216205796536071"><ele>1003.3333333333333</ele><time>2026-05-03T11:58:38.999Z</time></trkpt><trkpt lat="44.547872347127914" lon="9.21637426420384"><ele>1000.6666666666667</ele><time>2026-05-03T11:58:39.999Z</time></trkpt><trkpt lat="44.54778191704024" lon="9.216552692547555"><ele>998.0</ele><time>2026-05-03T11:58:40.999Z</time></trkpt><trkpt lat="44.54768140204005" lon="9.2166910733769"><ele>998.0</ele><time>2026-05-03T11:58:41.999Z</time></trkpt><trkpt lat="44.54757919155044" lon="9.216826351468564"><ele>998.0</ele><time>2026-05-03T11:58:42.999Z</time></trkpt><trkpt lat="44.54750406237758" lon="9.216974870058618"><ele>998.0</ele><time>2026-05-03T11:58:43.999Z</time></trkpt><trkpt lat="44.54746806923529" lon="9.21718899487134"><ele>998.0</ele><time>2026-05-03T11:58:44.999Z</time></trkpt><trkpt lat="44.5474303687824" lon="9.21740858789244"><ele>1000.6666666666667</ele><time>2026-05-03T11:58:45.999Z</time></trkpt><trkpt lat="44.54736778697878" lon="9.217644002446212"><ele>1003.3333333333333</ele><time>2026-05-03T11:58:46.999Z</time></trkpt><trkpt lat="44.547289502957305" lon="9.217838994313302"><ele>1006.0</ele><time>2026-05-03T11:58:47.999Z</time></trkpt><trkpt lat="44.54720668941206" lon="9.217988760198063"><ele>1006.0</ele><time>2026-05-03T11:58:48.999Z</time></trkpt><trkpt lat="44.54710975372244" lon="9.218139042181695"><ele>1006.0</ele><time>2026-05-03T11:58:49.999Z</time></trkpt><trkpt lat="44.547013324227684" lon="9.218245098834933"><ele>1006.0</ele><time>2026-05-03T11:58:50.999Z</time></trkpt><trkpt lat="44.54692525726447" lon="9.218245295168519"><ele>1006.0</ele><time>2026-05-03T11:58:51.999Z</time></trkpt><trkpt lat="44.546829788101746" lon="9.218213264045115"><ele>1007.3333333333333</ele><time>2026-05-03T11:58:52.999Z</time></trkpt><trkpt lat="44.54675296442985" lon="9.218160881993034"><ele>1008.6666666666667</ele><time>2026-05-03T11:58:53.999Z</time></trkpt><trkpt lat="44.54656504578228" lon="9.217986811546192"><ele>1010.0</ele><time>2026-05-03T11:58:54.999Z</time></trkpt><trkpt lat="44.54643030230552" lon="9.21790589717219"><ele>1008.0</ele><time>2026-05-03T11:58:55.999Z</time></trkpt><trkpt lat="44.546310026787054" lon="9.217904495750766"><ele>1006.0</ele><time>2026-05-03T11:58:56.999Z</time></trkpt><trkpt lat="44.54618773919062" lon="9.217952147752907"><ele>1004.0</ele><time>2026-05-03T11:58:57.999Z</time></trkpt><trkpt lat="44.5460413306446" lon="9.218044207639993"><ele>1002.0</ele><time>2026-05-03T11:58:58.999Z</time></trkpt><trkpt lat="44.54586064402667" lon="9.218152078307295"><ele>1002.0</ele><time>2026-05-03T11:58:59.999Z</time></trkpt><trkpt lat="44.54570604258298" lon="9.21814388820142"><ele>1002.0</ele><time>2026-05-03T11:59:00.999Z</time></trkpt><trkpt lat="44.54556657789146" lon="9.218181663316386"><ele>1002.0</ele><time>2026-05-03T11:59:01.999Z</time></trkpt><trkpt lat="44.545472310796015" lon="9.21819327837546"><ele>1002.0</ele><time>2026-05-03T11:59:02.999Z</time></trkpt><trkpt lat="44.54538424236699" lon="9.218329758940746"><ele>995.6666666666667</ele><time>2026-05-03T11:59:03.999Z</time></trkpt><trkpt lat="44.545238430639166" lon="9.21842030830089"><ele>989.3333333333334</ele><time>2026-05-03T11:59:04.999Z</time></trkpt><trkpt lat="44.545100393496575" lon="9.218491878029548"><ele>983.0</ele><time>2026-05-03T11:59:05.999Z</time></trkpt><trkpt lat="44.54495621658883" lon="9.218526194769629"><ele>983.0</ele><time>2026-05-03T11:59:06.999Z</time></trkpt><trkpt lat="44.54483833782702" lon="9.218642388025094"><ele>983.0</ele><time>2026-05-03T11:59:07.999Z</time></trkpt><trkpt lat="44.544722162573194" lon="9.218767113478501"><ele>983.0</ele><time>2026-05-03T11:59:08.999Z</time></trkpt><trkpt lat="44.54459488918111" lon="9.21885427453416"><ele>983.0</ele><time>2026-05-03T11:59:09.999Z</time></trkpt><trkpt lat="44.5444808049075" lon="9.21892058032863"><ele>982.5999999999999</ele><time>2026-05-03T11:59:11Z</time></trkpt><trkpt lat="44.54437561370152" lon="9.218916967788038"><ele>982.1999999999999</ele><time>2026-05-03T11:59:12Z</time></trkpt><trkpt lat="44.54435141955865" lon="9.218807017934624"><ele>981.8</ele><time>2026-05-03T11:59:14Z</time></trkpt><trkpt lat="44.54432373520561" lon="9.218657544869792"><ele>981.4</ele><time>2026-05-03T11:59:16Z</time></trkpt><trkpt lat="44.54426947396449" lon="9.218523675302936"><ele>981.0</ele><time>2026-05-03T11:59:17Z</time></trkpt><trkpt lat="44.544154566708734" lon="9.218350923671467"><ele>981.0</ele><time>2026-05-03T11:59:18Z</time></trkpt><trkpt lat="44.54403556308119" lon="9.21818293352892"><ele>981.0</ele><time>2026-05-03T11:59:19Z</time></trkpt><trkpt lat="44.54393493469857" lon="9.218070289084507"><ele>981.0</ele><time>2026-05-03T11:59:20Z</time></trkpt><trkpt lat="44.543843738371564" lon="9.217999293064087"><ele>981.0</ele><time>2026-05-03T11:59:21Z</time></trkpt><trkpt lat="44.54372805252764" lon="9.217963563906894"><ele>978.75</ele><time>2026-05-03T11:59:22Z</time></trkpt><trkpt lat="44.54357761771143" lon="9.217966560774013"><ele>976.5</ele><time>2026-05-03T11:59:23Z</time></trkpt><trkpt lat="44.54347445963772" lon="9.217867426391251"><ele>974.25</ele><time>2026-05-03T11:59:24Z</time></trkpt><trkpt lat="44.54340497114894" lon="9.21772061753518"><ele>972.0</ele><time>2026-05-03T11:59:25Z</time></trkpt><trkpt lat="44.54327243596454" lon="9.217620003173268"><ele>972.0</ele><time>2026-05-03T11:59:26Z</time></trkpt><trkpt lat="44.54316970056505" lon="9.21743971985899"><ele>972.0</ele><time>2026-05-03T11:59:27Z</time></trkpt><trkpt lat="44.54306761863854" lon="9.217259306115746"><ele>972.0</ele><time>2026-05-03T11:59:28Z</time></trkpt><trkpt lat="44.542973713262356" lon="9.217101557597653"><ele>966.8</ele><time>2026-05-03T11:59:29Z</time></trkpt><trkpt lat="44.54287178284368" lon="9.216950400802894"><ele>961.6</ele><time>2026-05-03T11:59:30Z</time></trkpt><trkpt lat="44.54277386746436" lon="9.216847807122594"><ele>956.3999999999999</ele><time>2026-05-03T11:59:31Z</time></trkpt><trkpt lat="44.54267833889389" lon="9.216821431866956"><ele>951.1999999999999</ele><time>2026-05-03T11:59:32Z</time></trkpt><trkpt lat="44.542611750892725" lon="9.216876435930487"><ele>946.0</ele><time>2026-05-03T11:59:33Z</time></trkpt><trkpt lat="44.542544701505165" lon="9.216966068363266"><ele>946.0</ele><time>2026-05-03T11:59:34Z</time></trkpt><trkpt lat="44.542458707154054" lon="9.217160782364092"><ele>946.0</ele><time>2026-05-03T11:59:35Z</time></trkpt><trkpt lat="44.54238168536692" lon="9.217331225221287"><ele>946.0</ele><time>2026-05-03T11:59:36Z</time></trkpt><trkpt lat="44.54229257549842" lon="9.217516262659803"><ele>948.1999999999999</ele><time>2026-05-03T11:59:37Z</time></trkpt><trkpt lat="44.54219202064226" lon="9.217644722384206"><ele>950.3999999999999</ele><time>2026-05-03T11:59:38Z</time></trkpt><trkpt lat="44.5421013862497" lon="9.217661956526609"><ele>952.6</ele><time>2026-05-03T11:59:39Z</time></trkpt><trkpt lat="44.54200031289337" lon="9.21763289951437"><ele>954.8</ele><time>2026-05-03T11:59:40Z</time></trkpt><trkpt lat="44.54193433568538" lon="9.217519260226682"><ele>957.0</ele><time>2026-05-03T11:59:41Z</time></trkpt><trkpt lat="44.54183255337676" lon="9.217410769681518"><ele>948.0</ele><time>2026-05-03T11:59:42Z</time></trkpt><trkpt lat="44.541697723869326" lon="9.217271699693365"><ele>939.0</ele><time>2026-05-03T11:59:43Z</time></trkpt><trkpt lat="44.54154851162799" lon="9.217191904224393"><ele>930.0</ele><time>2026-05-03T11:59:44Z</time></trkpt><trkpt lat="44.54142415508101" lon="9.217134190629142"><ele>930.0</ele><time>2026-05-03T11:59:45Z</time></trkpt><trkpt lat="44.541340467748846" lon="9.217228300977798"><ele>930.0</ele><time>2026-05-03T11:59:46Z</time></trkpt><trkpt lat="44.54122961779781" lon="9.217293980835404"><ele>930.0</ele><time>2026-05-03T11:59:47Z</time></trkpt><trkpt lat="44.54111574746202" lon="9.217373645119364"><ele>930.0</ele><time>2026-05-03T11:59:48Z</time></trkpt><trkpt lat="44.541040390344605" lon="9.217300297807725"><ele>930.0</ele><time>2026-05-03T11:59:49Z</time></trkpt><trkpt lat="44.54101760116427" lon="9.217128249509853"><ele>934.6666666666667</ele><time>2026-05-03T11:59:50Z</time></trkpt><trkpt lat="44.5409688276315" lon="9.216974303827186"><ele>939.3333333333334</ele><time>2026-05-03T11:59:51Z</time></trkpt><trkpt lat="44.54090318454174" lon="9.216770089684095"><ele>944.0</ele><time>2026-05-03T11:59:52Z</time></trkpt><trkpt lat="44.5408260160018" lon="9.21653838757142"><ele>938.0</ele><time>2026-05-03T11:59:53Z</time></trkpt><trkpt lat="44.540729838328524" lon="9.216312929728348"><ele>932.0</ele><time>2026-05-03T11:59:54Z</time></trkpt><trkpt lat="44.540648646831805" lon="9.216116602629766"><ele>926.0</ele><time>2026-05-03T11:59:55Z</time></trkpt><trkpt lat="44.54059234382345" lon="9.215918569542529"><ele>926.0</ele><time>2026-05-03T11:59:56Z</time></trkpt><trkpt lat="44.54057254525231" lon="9.215706104334723"><ele>926.0</ele><time>2026-05-03T11:59:57Z</time></trkpt><trkpt lat="44.540564897964344" lon="9.215490870546514"><ele>926.0</ele><time>2026-05-03T11:59:58Z</time></trkpt><trkpt lat="44.54056028589562" lon="9.215361250018416"><ele>926.0</ele><time>2026-05-03T11:59:59Z</time></trkpt><trkpt lat="44.54050725085176" lon="9.215218705843347"><ele>923.5999999999999</ele><time>2026-05-03T12:00:00Z</time></trkpt><trkpt lat="44.540434274041246" lon="9.215107289108099"><ele>921.1999999999999</ele><time>2026-05-03T12:00:01Z</time></trkpt><trkpt lat="44.540360693971245" lon="9.214963802680316"><ele>918.8000000000001</ele><time>2026-05-03T12:00:02Z</time></trkpt><trkpt lat="44.540304820704165" lon="9.214826042510374"><ele>916.4000000000001</ele><time>2026-05-03T12:00:03Z</time></trkpt><trkpt lat="44.54029253233223" lon="9.214720704166476"><ele>914.0</ele><time>2026-05-03T12:00:04Z</time></trkpt><trkpt lat="44.54032130642441" lon="9.21462208752903"><ele>914.0</ele><time>2026-05-03T12:00:05Z</time></trkpt><trkpt lat="44.54042982229094" lon="9.214629580702951"><ele>914.0</ele><time>2026-05-03T12:00:07Z</time></trkpt><trkpt lat="44.540546455974805" lon="9.214627699375407"><ele>914.0</ele><time>2026-05-03T12:00:08Z</time></trkpt><trkpt lat="44.540690487763186" lon="9.214756127477196"><ele>914.0</ele><time>2026-05-03T12:00:08.999Z</time></trkpt><trkpt lat="44.5407894648612" lon="9.214916002786968"><ele>914.0</ele><time>2026-05-03T12:00:09.999Z</time></trkpt><trkpt lat="44.540858304011806" lon="9.215071669328548"><ele>914.0</ele><time>2026-05-03T12:00:10.999Z</time></trkpt><trkpt lat="44.54084623406305" lon="9.215244998968439"><ele>914.0</ele><time>2026-05-03T12:00:11.999Z</time></trkpt><trkpt lat="44.54084721190382" lon="9.21540550782632"><ele>914.0</ele><time>2026-05-03T12:00:12.999Z</time></trkpt><trkpt lat="44.540857161188875" lon="9.215552050366737"><ele>914.0</ele><time>2026-05-03T12:00:13.999Z</time></trkpt><trkpt lat="44.540897060521644" lon="9.215648633435435"><ele>914.0000000000001</ele><time>2026-05-03T12:00:14.999Z</time></trkpt><trkpt lat="44.540962291469825" lon="9.215691200253435"><ele>914.0000000000001</ele><time>2026-05-03T12:00:15.999Z</time></trkpt><trkpt lat="44.54108886692033" lon="9.21555229682787"><ele>914.0</ele><time>2026-05-03T12:00:17.999Z</time></trkpt><trkpt lat="44.54111012540156" lon="9.215396181161292"><ele>914.0</ele><time>2026-05-03T12:00:18.999Z</time></trkpt><trkpt lat="44.54110594066361" lon="9.215226801244498"><ele>914.0</ele><time>2026-05-03T12:00:19.999Z</time></trkpt><trkpt lat="44.54108298699773" lon="9.215045748992587"><ele>914.0</ele><time>2026-05-03T12:00:20.999Z</time></trkpt><trkpt lat="44.54104917273186" lon="9.214853908255447"><ele>914.0</ele><time>2026-05-03T12:00:21.999Z</time></trkpt><trkpt lat="44.54097213139603" lon="9.214652982749012"><ele>914.0</ele><time>2026-05-03T12:00:22.999Z</time></trkpt><trkpt lat="44.54088128661255" lon="9.214457373061023"><ele>909.75</ele><time>2026-05-03T12:00:23.999Z</time></trkpt><trkpt lat="44.540798088976764" lon="9.214268464740499"><ele>905.5</ele><time>2026-05-03T12:00:24.999Z</time></trkpt><trkpt lat="44.540725381966176" lon="9.214104405712282"><ele>901.25</ele><time>2026-05-03T12:00:25.999Z</time></trkpt><trkpt lat="44.54067425180279" lon="9.213959930994392"><ele>897.0</ele><time>2026-05-03T12:00:26.999Z</time></trkpt><trkpt lat="44.540639969790085" lon="9.213873714425446"><ele>890.75</ele><time>2026-05-03T12:00:27.999Z</time></trkpt><trkpt lat="44.54064158357929" lon="9.21368476115739"><ele>884.5</ele><time>2026-05-03T12:00:29.999Z</time></trkpt><trkpt lat="44.540692983828016" lon="9.213624988648746"><ele>878.25</ele><time>2026-05-03T12:00:30.999Z</time></trkpt><trkpt lat="44.5408259796445" lon="9.213700256973159"><ele>872.0</ele><time>2026-05-03T12:00:31.999Z</time></trkpt><trkpt lat="44.540893957150786" lon="9.213839782608291"><ele>878.25</ele><time>2026-05-03T12:00:32.999Z</time></trkpt><trkpt lat="44.54095434338867" lon="9.214019112330941"><ele>884.5</ele><time>2026-05-03T12:00:33.999Z</time></trkpt><trkpt lat="44.54100866171669" lon="9.214206225555984"><ele>890.75</ele><time>2026-05-03T12:00:34.999Z</time></trkpt><trkpt lat="44.54107789073398" lon="9.214352570684005"><ele>897.0</ele><time>2026-05-03T12:00:35.999Z</time></trkpt><trkpt lat="44.54113076842968" lon="9.214438863674085"><ele>892.0</ele><time>2026-05-03T12:00:36.999Z</time></trkpt><trkpt lat="44.54122886959081" lon="9.21443075032913"><ele>887.0</ele><time>2026-05-03T12:00:38.999Z</time></trkpt><trkpt lat="44.54127920145406" lon="9.214347836027677"><ele>882.0</ele><time>2026-05-03T12:00:39.999Z</time></trkpt><trkpt lat="44.54130441400318" lon="9.214203192883744"><ele>877.0</ele><time>2026-05-03T12:00:40.999Z</time></trkpt><trkpt lat="44.5412479279353" lon="9.214070904209922"><ele>872.0</ele><time>2026-05-03T12:00:41.999Z</time></trkpt><trkpt lat="44.54115839593491" lon="9.213921123957928"><ele>872.0</ele><time>2026-05-03T12:00:42.999Z</time></trkpt><trkpt lat="44.54110153065835" lon="9.21375718396806"><ele>872.0</ele><time>2026-05-03T12:00:43.999Z</time></trkpt><trkpt lat="44.54104902039558" lon="9.2135560575363"><ele>872.0</ele><time>2026-05-03T12:00:44.999Z</time></trkpt><trkpt lat="44.54099683253792" lon="9.213393530101868"><ele>872.0</ele><time>2026-05-03T12:00:45.999Z</time></trkpt><trkpt lat="44.540904865101645" lon="9.213283735322634"><ele>872.0</ele><time>2026-05-03T12:00:46.999Z</time></trkpt><trkpt lat="44.54078824850563" lon="9.213216205045669"><ele>872.0</ele><time>2026-05-03T12:00:47.999Z</time></trkpt><trkpt lat="44.54065207114398" lon="9.213208667490097"><ele>872.0</ele><time>2026-05-03T12:00:48.999Z</time></trkpt><trkpt lat="44.54051707328574" lon="9.213295436700058"><ele>872.0</ele><time>2026-05-03T12:00:49.999Z</time></trkpt><trkpt lat="44.54037947587331" lon="9.213406619538237"><ele>868.5</ele><time>2026-05-03T12:00:50.999Z</time></trkpt><trkpt lat="44.540239685842195" lon="9.213522320448085"><ele>865.0</ele><time>2026-05-03T12:00:51.999Z</time></trkpt><trkpt lat="44.54011682644012" lon="9.213603554117546"><ele>861.5</ele><time>2026-05-03T12:00:52.999Z</time></trkpt><trkpt lat="44.53998321448764" lon="9.213655032211392"><ele>858.0</ele><time>2026-05-03T12:00:53.999Z</time></trkpt><trkpt lat="44.53983999011451" lon="9.213680831946677"><ele>858.0</ele><time>2026-05-03T12:00:54.999Z</time></trkpt><trkpt lat="44.539670470511545" lon="9.213729035099103"><ele>858.0</ele><time>2026-05-03T12:00:55.999Z</time></trkpt><trkpt lat="44.539592707391336" lon="9.213832546826021"><ele>858.0</ele><time>2026-05-03T12:00:56.999Z</time></trkpt><trkpt lat="44.53952165186319" lon="9.213969955238632"><ele>858.0</ele><time>2026-05-03T12:00:57.999Z</time></trkpt><trkpt lat="44.539456409971386" lon="9.214075755478826"><ele>854.6666666666667</ele><time>2026-05-03T12:00:58.999Z</time></trkpt><trkpt lat="44.53931370017596" lon="9.214302401565222"><ele>851.3333333333334</ele><time>2026-05-03T12:00:59.999Z</time></trkpt><trkpt lat="44.53925471562877" lon="9.214483797960533"><ele>848.0</ele><time>2026-05-03T12:01:00.999Z</time></trkpt><trkpt lat="44.53922430580981" lon="9.214673040229542"><ele>851.8</ele><time>2026-05-03T12:01:01.999Z</time></trkpt><trkpt lat="44.539189356768276" lon="9.21486239896412"><ele>855.5999999999999</ele><time>2026-05-03T12:01:02.999Z</time></trkpt><trkpt lat="44.53916957626065" lon="9.215029898981452"><ele>859.4000000000001</ele><time>2026-05-03T12:01:03.999Z</time></trkpt><trkpt lat="44.53911933170926" lon="9.21516899183424"><ele>863.2</ele><time>2026-05-03T12:01:04.999Z</time></trkpt><trkpt lat="44.53905485013706" lon="9.215190967240517"><ele>867.0</ele><time>2026-05-03T12:01:05.999Z</time></trkpt><trkpt lat="44.53899156258304" lon="9.215195010308548"><ele>867.0</ele><time>2026-05-03T12:01:06.999Z</time></trkpt><trkpt lat="44.53894450031208" lon="9.215112943902898"><ele>867.0</ele><time>2026-05-03T12:01:07.999Z</time></trkpt><trkpt lat="44.53880696327396" lon="9.215046667228224"><ele>867.0</ele><time>2026-05-03T12:01:09.999Z</time></trkpt><trkpt lat="44.538721735584694" lon="9.214971449583343"><ele>867.0</ele><time>2026-05-03T12:01:10.999Z</time></trkpt><trkpt lat="44.538638126202855" lon="9.214835290312049"><ele>867.0</ele><time>2026-05-03T12:01:11.999Z</time></trkpt><trkpt lat="44.538558233383405" lon="9.214677676804202"><ele>860.0</ele><time>2026-05-03T12:01:12.999Z</time></trkpt><trkpt lat="44.538456516607425" lon="9.214477256146063"><ele>853.0</ele><time>2026-05-03T12:01:13.999Z</time></trkpt><trkpt lat="44.53836584818024" lon="9.214267434204821"><ele>846.0</ele><time>2026-05-03T12:01:14.999Z</time></trkpt><trkpt lat="44.538270102154435" lon="9.214056687491643"><ele>836.6666666666667</ele><time>2026-05-03T12:01:15.999Z</time></trkpt><trkpt lat="44.53816104809956" lon="9.21385693884917"><ele>827.3333333333334</ele><time>2026-05-03T12:01:17Z</time></trkpt><trkpt lat="44.5380604973381" lon="9.213727568406266"><ele>818.0</ele><time>2026-05-03T12:01:18Z</time></trkpt><trkpt lat="44.53791336981869" lon="9.21364400281321"><ele>819.0</ele><time>2026-05-03T12:01:19Z</time></trkpt><trkpt lat="44.53774799076199" lon="9.213592205945142"><ele>820.0</ele><time>2026-05-03T12:01:20Z</time></trkpt><trkpt lat="44.53759676703545" lon="9.213544311817301"><ele>821.0</ele><time>2026-05-03T12:01:21Z</time></trkpt><trkpt lat="44.537477462266494" lon="9.213513674523783"><ele>822.0</ele><time>2026-05-03T12:01:22Z</time></trkpt><trkpt lat="44.537391850585806" lon="9.213513048659397"><ele>822.0</ele><time>2026-05-03T12:01:23Z</time></trkpt><trkpt lat="44.53730730343928" lon="9.213586836352993"><ele>822.0</ele><time>2026-05-03T12:01:24Z</time></trkpt><trkpt lat="44.53721942746664" lon="9.213759416593895"><ele>822.0</ele><time>2026-05-03T12:01:25Z</time></trkpt><trkpt lat="44.53714083282741" lon="9.213902613307708"><ele>822.0</ele><time>2026-05-03T12:01:26Z</time></trkpt><trkpt lat="44.53703596082132" lon="9.213835582369292"><ele>817.6666666666667</ele><time>2026-05-03T12:01:27Z</time></trkpt><trkpt lat="44.53689772363589" lon="9.21377809487114"><ele>813.3333333333334</ele><time>2026-05-03T12:01:28Z</time></trkpt><trkpt lat="44.5367325032471" lon="9.213720368134247"><ele>809.0</ele><time>2026-05-03T12:01:29Z</time></trkpt><trkpt lat="44.53657350997806" lon="9.213681210658034"><ele>809.0</ele><time>2026-05-03T12:01:30Z</time></trkpt><trkpt lat="44.536450515656945" lon="9.213653576090147"><ele>809.0</ele><time>2026-05-03T12:01:31Z</time></trkpt><trkpt lat="44.53635449859047" lon="9.213695813075434"><ele>809.0</ele><time>2026-05-03T12:01:32Z</time></trkpt><trkpt lat="44.536303873175456" lon="9.213847449098807"><ele>809.0</ele><time>2026-05-03T12:01:33Z</time></trkpt><trkpt lat="44.536253676700156" lon="9.213983339055321"><ele>810.3333333333334</ele><time>2026-05-03T12:01:34Z</time></trkpt><trkpt lat="44.536295821942886" lon="9.214162671356329"><ele>811.6666666666667</ele><time>2026-05-03T12:01:35Z</time></trkpt><trkpt lat="44.536212226292605" lon="9.214430781772116"><ele>813.0</ele><time>2026-05-03T12:01:36Z</time></trkpt><trkpt lat="44.53612420555065" lon="9.214580094147028"><ele>813.0</ele><time>2026-05-03T12:01:37Z</time></trkpt><trkpt lat="44.53599940404352" lon="9.214632225392982"><ele>813.0</ele><time>2026-05-03T12:01:38Z</time></trkpt><trkpt lat="44.53587470246458" lon="9.214649962534912"><ele>813.0</ele><time>2026-05-03T12:01:39Z</time></trkpt><trkpt lat="44.53574683013768" lon="9.214615493593309"><ele>813.0</ele><time>2026-05-03T12:01:40Z</time></trkpt><trkpt lat="44.53563639424807" lon="9.21454313320953"><ele>813.0</ele><time>2026-05-03T12:01:41Z</time></trkpt><trkpt lat="44.53554430708279" lon="9.214418055564954"><ele>813.0</ele><time>2026-05-03T12:01:42Z</time></trkpt><trkpt lat="44.53547502616769" lon="9.214239604858593"><ele>813.0</ele><time>2026-05-03T12:01:43Z</time></trkpt><trkpt lat="44.53537975369428" lon="9.214016853150117"><ele>807.3333333333333</ele><time>2026-05-03T12:01:44Z</time></trkpt><trkpt lat="44.53528189492131" lon="9.213787171771736"><ele>801.6666666666666</ele><time>2026-05-03T12:01:45Z</time></trkpt><trkpt lat="44.53517415323238" lon="9.213543108380717"><ele>796.0</ele><time>2026-05-03T12:01:46Z</time></trkpt><trkpt lat="44.535066535500235" lon="9.213398865095659"><ele>796.0</ele><time>2026-05-03T12:01:47Z</time></trkpt><trkpt lat="44.53494809109503" lon="9.213301801992376"><ele>796.0</ele><time>2026-05-03T12:01:48Z</time></trkpt><trkpt lat="44.53487239242384" lon="9.213260489971836"><ele>796.0</ele><time>2026-05-03T12:01:49Z</time></trkpt><trkpt lat="44.534746303834375" lon="9.213242009672218"><ele>796.0</ele><time>2026-05-03T12:01:50Z</time></trkpt><trkpt lat="44.534595331210284" lon="9.213260818319032"><ele>795.0</ele><time>2026-05-03T12:01:51Z</time></trkpt><trkpt lat="44.53450354296803" lon="9.213334937413224"><ele>794.0</ele><time>2026-05-03T12:01:52Z</time></trkpt><trkpt lat="44.53445532845957" lon="9.213485403219826"><ele>793.0</ele><time>2026-05-03T12:01:53Z</time></trkpt><trkpt lat="44.53445896615272" lon="9.213604706264356"><ele>792.0</ele><time>2026-05-03T12:01:54Z</time></trkpt><trkpt lat="44.534474750505275" lon="9.213767120607036"><ele>791.0</ele><time>2026-05-03T12:01:55Z</time></trkpt><trkpt lat="44.534468510955406" lon="9.213991679813168"><ele>791.0</ele><time>2026-05-03T12:01:56Z</time></trkpt><trkpt lat="44.53441740543767" lon="9.214124125479792"><ele>791.0</ele><time>2026-05-03T12:01:57Z</time></trkpt><trkpt lat="44.53430722368777" lon="9.214167715816362"><ele>791.0</ele><time>2026-05-03T12:01:58Z</time></trkpt><trkpt lat="44.534208639470144" lon="9.214129025454149"><ele>791.0</ele><time>2026-05-03T12:01:59Z</time></trkpt><trkpt lat="44.53404158092286" lon="9.214135836548762"><ele>791.0</ele><time>2026-05-03T12:02:00Z</time></trkpt><trkpt lat="44.53383142729712" lon="9.214147568569222"><ele>791.0</ele><time>2026-05-03T12:02:01Z</time></trkpt><trkpt lat="44.533640507757774" lon="9.214156926103895"><ele>791.0</ele><time>2026-05-03T12:02:02Z</time></trkpt><trkpt lat="44.533473318857695" lon="9.21415964097464"><ele>786.75</ele><time>2026-05-03T12:02:03Z</time></trkpt><trkpt lat="44.53333334099566" lon="9.214196446796057"><ele>782.5</ele><time>2026-05-03T12:02:04Z</time></trkpt><trkpt lat="44.53325304239632" lon="9.21422020916925"><ele>778.25</ele><time>2026-05-03T12:02:05Z</time></trkpt><trkpt lat="44.533154062646105" lon="9.21440396907955"><ele>774.0</ele><time>2026-05-03T12:02:07Z</time></trkpt><trkpt lat="44.53316062776583" lon="9.214584754666598"><ele>774.0</ele><time>2026-05-03T12:02:08Z</time></trkpt><trkpt lat="44.53319798670777" lon="9.214726539150332"><ele>774.0</ele><time>2026-05-03T12:02:09Z</time></trkpt><trkpt lat="44.533274165702565" lon="9.214849561710777"><ele>774.0</ele><time>2026-05-03T12:02:10Z</time></trkpt><trkpt lat="44.53338023854613" lon="9.21494096406226"><ele>774.0</ele><time>2026-05-03T12:02:11Z</time></trkpt><trkpt lat="44.533552917491825" lon="9.215061634073273"><ele>772.6666666666667</ele><time>2026-05-03T12:02:12Z</time></trkpt><trkpt lat="44.53370407936017" lon="9.215165614490916"><ele>771.3333333333334</ele><time>2026-05-03T12:02:13Z</time></trkpt><trkpt lat="44.5338593830424" lon="9.215288429415194"><ele>770.0</ele><time>2026-05-03T12:02:14Z</time></trkpt><trkpt lat="44.534003251092" lon="9.215465603898005"><ele>771.75</ele><time>2026-05-03T12:02:15Z</time></trkpt><trkpt lat="44.53412345039366" lon="9.215614249218987"><ele>773.5</ele><time>2026-05-03T12:02:16Z</time></trkpt><trkpt lat="44.5342053331789" lon="9.215743925520599"><ele>775.25</ele><time>2026-05-03T12:02:17Z</time></trkpt><trkpt lat="44.53420254367722" lon="9.21588793662307"><ele>777.0</ele><time>2026-05-03T12:02:18Z</time></trkpt><trkpt lat="44.53411993121945" lon="9.216086472363322"><ele>777.0</ele><time>2026-05-03T12:02:20Z</time></trkpt><trkpt lat="44.53401478090421" lon="9.216165832918326"><ele>777.0</ele><time>2026-05-03T12:02:21Z</time></trkpt><trkpt lat="44.533875897881984" lon="9.21616827288332"><ele>777.0</ele><time>2026-05-03T12:02:22Z</time></trkpt><trkpt lat="44.53371275205189" lon="9.21615796305908"><ele>777.0</ele><time>2026-05-03T12:02:23Z</time></trkpt><trkpt lat="44.533545551866425" lon="9.216152538875788"><ele>769.6666666666666</ele><time>2026-05-03T12:02:24Z</time></trkpt><trkpt lat="44.5333398710266" lon="9.216141656386784"><ele>762.3333333333333</ele><time>2026-05-03T12:02:25Z</time></trkpt><trkpt lat="44.533124255894265" lon="9.216139516708918"><ele>755.0</ele><time>2026-05-03T12:02:26Z</time></trkpt><trkpt lat="44.53288785095889" lon="9.216125586279896"><ele>751.0</ele><time>2026-05-03T12:02:27Z</time></trkpt><trkpt lat="44.53266500107779" lon="9.21611414467888"><ele>747.0</ele><time>2026-05-03T12:02:28Z</time></trkpt><trkpt lat="44.532458902471106" lon="9.216103386116119"><ele>743.0</ele><time>2026-05-03T12:02:29Z</time></trkpt><trkpt lat="44.53225361255052" lon="9.21609394481943"><ele>738.6666666666666</ele><time>2026-05-03T12:02:30Z</time></trkpt><trkpt lat="44.532050871537976" lon="9.216103238460787"><ele>734.3333333333334</ele><time>2026-05-03T12:02:31Z</time></trkpt><trkpt lat="44.531859072874354" lon="9.216085992640428"><ele>730.0</ele><time>2026-05-03T12:02:32Z</time></trkpt><trkpt lat="44.53170493940811" lon="9.216071639121257"><ele>730.0</ele><time>2026-05-03T12:02:33Z</time></trkpt><trkpt lat="44.53159568086108" lon="9.216108075018344"><ele>730.0</ele><time>2026-05-03T12:02:34Z</time></trkpt><trkpt lat="44.531479364267845" lon="9.21622512593136"><ele>730.0</ele><time>2026-05-03T12:02:35Z</time></trkpt><trkpt lat="44.53135281146564" lon="9.216361272099306"><ele>730.0</ele><time>2026-05-03T12:02:36Z</time></trkpt><trkpt lat="44.53124025082025" lon="9.216493343065677"><ele>727.8333333333334</ele><time>2026-05-03T12:02:37Z</time></trkpt><trkpt lat="44.531153873830924" lon="9.216640962837065"><ele>725.6666666666667</ele><time>2026-05-03T12:02:38Z</time></trkpt><trkpt lat="44.53114389256324" lon="9.216753277490511"><ele>723.5</ele><time>2026-05-03T12:02:39Z</time></trkpt><trkpt lat="44.53116894342511" lon="9.21684209105782"><ele>721.3333333333334</ele><time>2026-05-03T12:02:40Z</time></trkpt><trkpt lat="44.53122819046126" lon="9.216931822013535"><ele>719.1666666666666</ele><time>2026-05-03T12:02:41Z</time></trkpt><trkpt lat="44.53128798730856" lon="9.216968459863157"><ele>717.0</ele><time>2026-05-03T12:02:42Z</time></trkpt><trkpt lat="44.53143523984772" lon="9.217089190434432"><ele>724.5</ele><time>2026-05-03T12:02:43Z</time></trkpt><trkpt lat="44.53159947230088" lon="9.217215860984142"><ele>732.0</ele><time>2026-05-03T12:02:44Z</time></trkpt><trkpt lat="44.53171537192122" lon="9.217303830314249"><ele>739.5</ele><time>2026-05-03T12:02:45Z</time></trkpt><trkpt lat="44.53178273261719" lon="9.217394979338192"><ele>747.0</ele><time>2026-05-03T12:02:46Z</time></trkpt><trkpt lat="44.53174461378459" lon="9.217538476346697"><ele>747.0</ele><time>2026-05-03T12:02:48Z</time></trkpt><trkpt lat="44.531700108929265" lon="9.217601338991704"><ele>747.0</ele><time>2026-05-03T12:02:49Z</time></trkpt><trkpt lat="44.53162592054113" lon="9.217602332424647"><ele>747.0</ele><time>2026-05-03T12:02:50Z</time></trkpt><trkpt lat="44.53152686299305" lon="9.217579425907388"><ele>747.0</ele><time>2026-05-03T12:02:51Z</time></trkpt><trkpt lat="44.53135286486253" lon="9.217550502432713"><ele>747.0</ele><time>2026-05-03T12:02:52Z</time></trkpt><trkpt lat="44.53115713987646" lon="9.21756107568413"><ele>742.75</ele><time>2026-05-03T12:02:53Z</time></trkpt><trkpt lat="44.53098579756307" lon="9.217579980878568"><ele>738.5</ele><time>2026-05-03T12:02:54Z</time></trkpt><trkpt lat="44.53086561779108" lon="9.217521681668897"><ele>734.25</ele><time>2026-05-03T12:02:55Z</time></trkpt><trkpt lat="44.53074766317988" lon="9.217436082172865"><ele>730.0</ele><time>2026-05-03T12:02:56Z</time></trkpt><trkpt lat="44.53066011735846" lon="9.217390193085658"><ele>730.0</ele><time>2026-05-03T12:02:57Z</time></trkpt><trkpt lat="44.530521750670594" lon="9.217415975111333"><ele>730.0</ele><time>2026-05-03T12:02:58Z</time></trkpt><trkpt lat="44.53042547077089" lon="9.217525829714825"><ele>730.0</ele><time>2026-05-03T12:02:59Z</time></trkpt><trkpt lat="44.53036101458123" lon="9.217688174132567"><ele>730.0</ele><time>2026-05-03T12:03:00Z</time></trkpt><trkpt lat="44.53027042896337" lon="9.217867738612252"><ele>727.75</ele><time>2026-05-03T12:03:00.999Z</time></trkpt><trkpt lat="44.53014246885792" lon="9.217923179963584"><ele>725.5</ele><time>2026-05-03T12:03:01.999Z</time></trkpt><trkpt lat="44.5299952169426" lon="9.217989501282918"><ele>723.25</ele><time>2026-05-03T12:03:02.999Z</time></trkpt><trkpt lat="44.529877558470055" lon="9.218092499494805"><ele>721.0</ele><time>2026-05-03T12:03:03.999Z</time></trkpt><trkpt lat="44.529772938230785" lon="9.21821823091744"><ele>721.0</ele><time>2026-05-03T12:03:04.999Z</time></trkpt><trkpt lat="44.52970619707163" lon="9.218384708614614"><ele>721.0</ele><time>2026-05-03T12:03:05.999Z</time></trkpt><trkpt lat="44.529696856956065" lon="9.218595874304908"><ele>721.0</ele><time>2026-05-03T12:03:06.999Z</time></trkpt><trkpt lat="44.529660206542" lon="9.218785532482485"><ele>721.0</ele><time>2026-05-03T12:03:07.999Z</time></trkpt><trkpt lat="44.52961216158329" lon="9.218889227022329"><ele>716.75</ele><time>2026-05-03T12:03:08.999Z</time></trkpt><trkpt lat="44.529522475478466" lon="9.218999662383188"><ele>712.5</ele><time>2026-05-03T12:03:09.999Z</time></trkpt><trkpt lat="44.52940217738845" lon="9.219158428755554"><ele>708.25</ele><time>2026-05-03T12:03:10.999Z</time></trkpt><trkpt lat="44.529296828113935" lon="9.219306173913255"><ele>704.0</ele><time>2026-05-03T12:03:11.999Z</time></trkpt><trkpt lat="44.52920467540283" lon="9.219465365588132"><ele>704.0</ele><time>2026-05-03T12:03:12.999Z</time></trkpt><trkpt lat="44.52910840255079" lon="9.219591332892806"><ele>704.0</ele><time>2026-05-03T12:03:13.999Z</time></trkpt><trkpt lat="44.529023291771985" lon="9.219703065775274"><ele>704.0</ele><time>2026-05-03T12:03:14.999Z</time></trkpt><trkpt lat="44.52895800692102" lon="9.219805940037434"><ele>704.0</ele><time>2026-05-03T12:03:15.999Z</time></trkpt><trkpt lat="44.52891667330358" lon="9.219921437144748"><ele>704.0</ele><time>2026-05-03T12:03:16.999Z</time></trkpt><trkpt lat="44.52890909990895" lon="9.220043926153592"><ele>703.6666666666666</ele><time>2026-05-03T12:03:17.999Z</time></trkpt><trkpt lat="44.52890218983614" lon="9.220149803408264"><ele>703.3333333333333</ele><time>2026-05-03T12:03:18.999Z</time></trkpt><trkpt lat="44.52888306495033" lon="9.22023940454869"><ele>703.0</ele><time>2026-05-03T12:03:19.999Z</time></trkpt><trkpt lat="44.52879795948344" lon="9.22034532456692"><ele>702.6666666666666</ele><time>2026-05-03T12:03:21.999Z</time></trkpt><trkpt lat="44.5287129328064" lon="9.220451045287918"><ele>702.3333333333334</ele><time>2026-05-03T12:03:24Z</time></trkpt><trkpt lat="44.5286598413695" lon="9.220515309730986"><ele>702.0</ele><time>2026-05-03T12:03:25Z</time></trkpt><trkpt lat="44.528610740464096" lon="9.220577076365313"><ele>701.8</ele><time>2026-05-03T12:03:26Z</time></trkpt><trkpt lat="44.52856447524253" lon="9.22065149509712"><ele>701.6</ele><time>2026-05-03T12:03:27Z</time></trkpt><trkpt lat="44.52848805525738" lon="9.220802355471202"><ele>701.4</ele><time>2026-05-03T12:03:29Z</time></trkpt><trkpt lat="44.528444923965026" lon="9.22088909139319"><ele>701.1999999999999</ele><time>2026-05-03T12:03:30Z</time></trkpt><trkpt lat="44.52840397922706" lon="9.221001118985946"><ele>701.0</ele><time>2026-05-03T12:03:31Z</time></trkpt><trkpt lat="44.528367175171965" lon="9.221152971695126"><ele>701.0</ele><time>2026-05-03T12:03:32Z</time></trkpt><trkpt lat="44.528330710747134" lon="9.221328480300544"><ele>701.0</ele><time>2026-05-03T12:03:33Z</time></trkpt><trkpt lat="44.52829352655928" lon="9.221527331184701"><ele>701.0</ele><time>2026-05-03T12:03:34Z</time></trkpt><trkpt lat="44.528246842934124" lon="9.22174162626306"><ele>701.0</ele><time>2026-05-03T12:03:35Z</time></trkpt><trkpt lat="44.52820848626959" lon="9.221956887461358"><ele>701.0</ele><time>2026-05-03T12:03:36Z</time></trkpt><trkpt lat="44.528184143580035" lon="9.222149725410564"><ele>701.0</ele><time>2026-05-03T12:03:37Z</time></trkpt><trkpt lat="44.52817837054206" lon="9.222330536662255"><ele>701.0</ele><time>2026-05-03T12:03:38Z</time></trkpt><trkpt lat="44.528206711024275" lon="9.222492028284597"><ele>701.0</ele><time>2026-05-03T12:03:39Z</time></trkpt><trkpt lat="44.52828546783069" lon="9.222616681479295"><ele>701.0</ele><time>2026-05-03T12:03:40Z</time></trkpt><trkpt lat="44.52838790951071" lon="9.222732269635522"><ele>701.0</ele><time>2026-05-03T12:03:41Z</time></trkpt><trkpt lat="44.52850592639895" lon="9.22287256321637"><ele>701.0</ele><time>2026-05-03T12:03:42Z</time></trkpt><trkpt lat="44.52862479711198" lon="9.222994666103638"><ele>701.0</ele><time>2026-05-03T12:03:43Z</time></trkpt><trkpt lat="44.52872643916568" lon="9.223100118370164"><ele>701.25</ele><time>2026-05-03T12:03:44Z</time></trkpt><trkpt lat="44.52885756292668" lon="9.223158476263293"><ele>701.5</ele><time>2026-05-03T12:03:45Z</time></trkpt><trkpt lat="44.52899908895204" lon="9.22316943038181"><ele>701.75</ele><time>2026-05-03T12:03:46Z</time></trkpt><trkpt lat="44.529151262321186" lon="9.223213516025433"><ele>702.0</ele><time>2026-05-03T12:03:47Z</time></trkpt><trkpt lat="44.529290957938684" lon="9.223311793595247"><ele>702.0</ele><time>2026-05-03T12:03:48Z</time></trkpt><trkpt lat="44.529383845040094" lon="9.223503636314728"><ele>702.0</ele><time>2026-05-03T12:03:49Z</time></trkpt><trkpt lat="44.52948294543431" lon="9.223688056545837"><ele>702.0</ele><time>2026-05-03T12:03:50Z</time></trkpt><trkpt lat="44.52957226347444" lon="9.22388674504794"><ele>708.6666666666666</ele><time>2026-05-03T12:03:51Z</time></trkpt><trkpt lat="44.52962847704227" lon="9.224116879115332"><ele>715.3333333333333</ele><time>2026-05-03T12:03:52Z</time></trkpt><trkpt lat="44.52967805174209" lon="9.224359326652156"><ele>722.0</ele><time>2026-05-03T12:03:53Z</time></trkpt><trkpt lat="44.52968785355415" lon="9.224574580442614"><ele>723.0</ele><time>2026-05-03T12:03:54Z</time></trkpt><trkpt lat="44.52966027219269" lon="9.224819267998715"><ele>724.0</ele><time>2026-05-03T12:03:55Z</time></trkpt><trkpt lat="44.529617396173926" lon="9.225082793773058"><ele>725.0</ele><time>2026-05-03T12:03:56Z</time></trkpt><trkpt lat="44.52956331443171" lon="9.225332524786058"><ele>717.0</ele><time>2026-05-03T12:03:57Z</time></trkpt><trkpt lat="44.52948780395358" lon="9.225585941175446"><ele>709.0</ele><time>2026-05-03T12:03:58Z</time></trkpt><trkpt lat="44.529414156678364" lon="9.225808612267405"><ele>701.0</ele><time>2026-05-03T12:03:59Z</time></trkpt><trkpt lat="44.529327482180975" lon="9.22600572573955"><ele>701.0</ele><time>2026-05-03T12:04:00Z</time></trkpt><trkpt lat="44.52920814343188" lon="9.226204928394415"><ele>701.0</ele><time>2026-05-03T12:04:01Z</time></trkpt><trkpt lat="44.529078217412916" lon="9.226419900553497"><ele>701.0</ele><time>2026-05-03T12:04:02Z</time></trkpt><trkpt lat="44.52894043460969" lon="9.226587824494132"><ele>699.6666666666666</ele><time>2026-05-03T12:04:03Z</time></trkpt><trkpt lat="44.528799673126535" lon="9.22671990196423"><ele>698.3333333333334</ele><time>2026-05-03T12:04:04Z</time></trkpt><trkpt lat="44.52868215616665" lon="9.22684191522991"><ele>697.0</ele><time>2026-05-03T12:04:05Z</time></trkpt><trkpt lat="44.52859208967559" lon="9.22698449640863"><ele>697.0</ele><time>2026-05-03T12:04:06Z</time></trkpt><trkpt lat="44.528507388748494" lon="9.227146934129191"><ele>697.0</ele><time>2026-05-03T12:04:07Z</time></trkpt><trkpt lat="44.52841368660703" lon="9.22737781735111"><ele>697.0</ele><time>2026-05-03T12:04:08Z</time></trkpt><trkpt lat="44.52829203545552" lon="9.227557225770159"><ele>700.6666666666667</ele><time>2026-05-03T12:04:09Z</time></trkpt><trkpt lat="44.52817357460042" lon="9.227725844770571"><ele>704.3333333333334</ele><time>2026-05-03T12:04:10Z</time></trkpt><trkpt lat="44.52806828689929" lon="9.227888923953536"><ele>708.0</ele><time>2026-05-03T12:04:11Z</time></trkpt><trkpt lat="44.52796641126425" lon="9.228022064972487"><ele>706.5</ele><time>2026-05-03T12:04:12Z</time></trkpt><trkpt lat="44.52790600679587" lon="9.228144545071403"><ele>705.0</ele><time>2026-05-03T12:04:13Z</time></trkpt><trkpt lat="44.52788217675123" lon="9.22827210595243"><ele>703.5</ele><time>2026-05-03T12:04:14Z</time></trkpt><trkpt lat="44.52794798364447" lon="9.228388750415673"><ele>702.0</ele><time>2026-05-03T12:04:15Z</time></trkpt><trkpt lat="44.52801689138706" lon="9.228572497875827"><ele>702.0</ele><time>2026-05-03T12:04:16Z</time></trkpt><trkpt lat="44.52807408640358" lon="9.228773298478481"><ele>702.0</ele><time>2026-05-03T12:04:17Z</time></trkpt><trkpt lat="44.528099714524124" lon="9.228936490265426"><ele>702.0</ele><time>2026-05-03T12:04:18Z</time></trkpt><trkpt lat="44.528115027839476" lon="9.229078198255525"><ele>702.0</ele><time>2026-05-03T12:04:19Z</time></trkpt><trkpt lat="44.52820606255154" lon="9.229121839250217"><ele>702.0</ele><time>2026-05-03T12:04:20Z</time></trkpt><trkpt lat="44.528366648018114" lon="9.229275001038555"><ele>702.0</ele><time>2026-05-03T12:04:21Z</time></trkpt><trkpt lat="44.52851131363749" lon="9.229402957222296"><ele>702.0</ele><time>2026-05-03T12:04:22Z</time></trkpt><trkpt lat="44.5286594805945" lon="9.22952420011498"><ele>701.3333333333334</ele><time>2026-05-03T12:04:23Z</time></trkpt><trkpt lat="44.52883031688562" lon="9.229671476479059"><ele>700.6666666666667</ele><time>2026-05-03T12:04:24Z</time></trkpt><trkpt lat="44.52897787301906" lon="9.229811377731329"><ele>700.0</ele><time>2026-05-03T12:04:25Z</time></trkpt><trkpt lat="44.52908218418087" lon="9.229945554807998"><ele>700.0</ele><time>2026-05-03T12:04:26Z</time></trkpt><trkpt lat="44.52916655203854" lon="9.230128470298338"><ele>700.0</ele><time>2026-05-03T12:04:27Z</time></trkpt><trkpt lat="44.529206818295854" lon="9.230336596270309"><ele>700.0</ele><time>2026-05-03T12:04:28Z</time></trkpt><trkpt lat="44.52926084302283" lon="9.230578620475224"><ele>698.6666666666667</ele><time>2026-05-03T12:04:29Z</time></trkpt><trkpt lat="44.529335838327036" lon="9.230818961252625"><ele>697.3333333333334</ele><time>2026-05-03T12:04:30Z</time></trkpt><trkpt lat="44.529425825291675" lon="9.231109563986276"><ele>696.0</ele><time>2026-05-03T12:04:31Z</time></trkpt><trkpt lat="44.5295275298248" lon="9.231381918010236"><ele>704.0</ele><time>2026-05-03T12:04:32Z</time></trkpt><trkpt lat="44.529622713817794" lon="9.231621659845128"><ele>712.0</ele><time>2026-05-03T12:04:33Z</time></trkpt><trkpt lat="44.52965958349447" lon="9.231854325866738"><ele>720.0</ele><time>2026-05-03T12:04:34Z</time></trkpt><trkpt lat="44.52970820077424" lon="9.232055611696245"><ele>720.0</ele><time>2026-05-03T12:04:35Z</time></trkpt><trkpt lat="44.52972862174528" lon="9.232201708999312"><ele>720.0</ele><time>2026-05-03T12:04:36Z</time></trkpt><trkpt lat="44.52979156632466" lon="9.232348678522087"><ele>720.0</ele><time>2026-05-03T12:04:37Z</time></trkpt><trkpt lat="44.52985801365297" lon="9.23237448619429"><ele>720.0</ele><time>2026-05-03T12:04:38Z</time></trkpt><trkpt lat="44.5299500219581" lon="9.232462975635093"><ele>720.0</ele><time>2026-05-03T12:04:39Z</time></trkpt><trkpt lat="44.52998012459204" lon="9.232581657708447"><ele>717.4</ele><time>2026-05-03T12:04:40Z</time></trkpt><trkpt lat="44.529922198267066" lon="9.232648895884681"><ele>714.8</ele><time>2026-05-03T12:04:41Z</time></trkpt><trkpt lat="44.52984885409056" lon="9.232701172457347"><ele>712.2</ele><time>2026-05-03T12:04:42Z</time></trkpt><trkpt lat="44.529751163292204" lon="9.232685772385942"><ele>709.6</ele><time>2026-05-03T12:04:43Z</time></trkpt><trkpt lat="44.52961513093514" lon="9.232750760816137"><ele>707.0</ele><time>2026-05-03T12:04:44Z</time></trkpt><trkpt lat="44.52953919978249" lon="9.232916644159669"><ele>704.6666666666666</ele><time>2026-05-03T12:04:45Z</time></trkpt><trkpt lat="44.529426079263196" lon="9.233118846707441"><ele>702.3333333333334</ele><time>2026-05-03T12:04:46Z</time></trkpt><trkpt lat="44.52932312153297" lon="9.233314825364113"><ele>700.0</ele><time>2026-05-03T12:04:47Z</time></trkpt><trkpt lat="44.529208880818764" lon="9.23343792503179"><ele>700.0</ele><time>2026-05-03T12:04:48Z</time></trkpt><trkpt lat="44.529103685595004" lon="9.233457467703929"><ele>700.0</ele><time>2026-05-03T12:04:49Z</time></trkpt><trkpt lat="44.52894481846661" lon="9.23349651890174"><ele>700.0</ele><time>2026-05-03T12:04:50Z</time></trkpt><trkpt lat="44.52874982781736" lon="9.233563477785536"><ele>695.6666666666667</ele><time>2026-05-03T12:04:51Z</time></trkpt><trkpt lat="44.52860400302061" lon="9.233676494176473"><ele>691.3333333333334</ele><time>2026-05-03T12:04:52Z</time></trkpt><trkpt lat="44.52848031451796" lon="9.233785065757981"><ele>687.0</ele><time>2026-05-03T12:04:53Z</time></trkpt><trkpt lat="44.52836386182943" lon="9.233903918107451"><ele>687.0</ele><time>2026-05-03T12:04:54Z</time></trkpt><trkpt lat="44.52832582018537" lon="9.234013001952848"><ele>687.0</ele><time>2026-05-03T12:04:55Z</time></trkpt><trkpt lat="44.52833159716137" lon="9.234131635196709"><ele>687.0</ele><time>2026-05-03T12:04:56Z</time></trkpt><trkpt lat="44.52834826975601" lon="9.23432462931077"><ele>687.0</ele><time>2026-05-03T12:04:57Z</time></trkpt><trkpt lat="44.52833786647053" lon="9.234513683314141"><ele>687.0</ele><time>2026-05-03T12:04:58Z</time></trkpt><trkpt lat="44.52831426647296" lon="9.23474201337573"><ele>690.3333333333334</ele><time>2026-05-03T12:04:59Z</time></trkpt><trkpt lat="44.52828905342124" lon="9.234975624468044"><ele>693.6666666666667</ele><time>2026-05-03T12:05:00Z</time></trkpt><trkpt lat="44.52828923755175" lon="9.235239434168504"><ele>697.0</ele><time>2026-05-03T12:05:01Z</time></trkpt><trkpt lat="44.52829846407853" lon="9.235456663072227"><ele>696.75</ele><time>2026-05-03T12:05:02Z</time></trkpt><trkpt lat="44.52837573546102" lon="9.235651900967477"><ele>696.5</ele><time>2026-05-03T12:05:03Z</time></trkpt><trkpt lat="44.52848462507033" lon="9.23580113346621"><ele>696.25</ele><time>2026-05-03T12:05:04Z</time></trkpt><trkpt lat="44.52854480881867" lon="9.235945515964659"><ele>696.0</ele><time>2026-05-03T12:05:05Z</time></trkpt><trkpt lat="44.52848021004324" lon="9.23608565523234"><ele>696.0</ele><time>2026-05-03T12:05:06Z</time></trkpt><trkpt lat="44.52850220104214" lon="9.236263101557505"><ele>696.0</ele><time>2026-05-03T12:05:07Z</time></trkpt><trkpt lat="44.528537648223214" lon="9.23644213655859"><ele>696.0</ele><time>2026-05-03T12:05:07.999Z</time></trkpt><trkpt lat="44.52860845352391" lon="9.236656953733355"><ele>696.0</ele><time>2026-05-03T12:05:08.999Z</time></trkpt><trkpt lat="44.52867619295009" lon="9.236874264882148"><ele>700.6666666666666</ele><time>2026-05-03T12:05:09.999Z</time></trkpt><trkpt lat="44.52875837868109" lon="9.237118451436668"><ele>705.3333333333333</ele><time>2026-05-03T12:05:10.999Z</time></trkpt><trkpt lat="44.528847238643856" lon="9.237359593252016"><ele>710.0</ele><time>2026-05-03T12:05:11.999Z</time></trkpt><trkpt lat="44.528930589964666" lon="9.237582314368746"><ele>710.0</ele><time>2026-05-03T12:05:12.999Z</time></trkpt><trkpt lat="44.52896551151632" lon="9.237763557353194"><ele>710.0</ele><time>2026-05-03T12:05:13.999Z</time></trkpt><trkpt lat="44.528972747041195" lon="9.237900195684814"><ele>710.0</ele><time>2026-05-03T12:05:14.999Z</time></trkpt><trkpt lat="44.52892095351707" lon="9.238065112618049"><ele>710.0</ele><time>2026-05-03T12:05:15.999Z</time></trkpt><trkpt lat="44.52892607189525" lon="9.238263852810919"><ele>708.6666666666666</ele><time>2026-05-03T12:05:16.999Z</time></trkpt><trkpt lat="44.52892344596913" lon="9.238470990284727"><ele>707.3333333333334</ele><time>2026-05-03T12:05:17.999Z</time></trkpt><trkpt lat="44.528882025105716" lon="9.238676031727206"><ele>706.0</ele><time>2026-05-03T12:05:18.999Z</time></trkpt><trkpt lat="44.52881471160005" lon="9.238924939139574"><ele>709.0</ele><time>2026-05-03T12:05:19.999Z</time></trkpt><trkpt lat="44.52878628214064" lon="9.239183425105505"><ele>712.0</ele><time>2026-05-03T12:05:20.999Z</time></trkpt><trkpt lat="44.5286873128161" lon="9.239418854250342"><ele>715.0</ele><time>2026-05-03T12:05:21.999Z</time></trkpt><trkpt lat="44.52857132255274" lon="9.239659876304215"><ele>706.25</ele><time>2026-05-03T12:05:22.999Z</time></trkpt><trkpt lat="44.528474110427815" lon="9.239838897369971"><ele>697.5</ele><time>2026-05-03T12:05:23.999Z</time></trkpt><trkpt lat="44.528418485872244" lon="9.239986391737192"><ele>688.75</ele><time>2026-05-03T12:05:24.999Z</time></trkpt><trkpt lat="44.52836963115939" lon="9.240084638813265"><ele>680.0</ele><time>2026-05-03T12:05:25.999Z</time></trkpt><trkpt lat="44.52836280236099" lon="9.240214038551244"><ele>680.0</ele><time>2026-05-03T12:05:26.999Z</time></trkpt><trkpt lat="44.52844614270377" lon="9.240347254797129"><ele>680.0</ele><time>2026-05-03T12:05:27.999Z</time></trkpt><trkpt lat="44.52849680835259" lon="9.240406763348224"><ele>680.0</ele><time>2026-05-03T12:05:29Z</time></trkpt><trkpt lat="44.528474453500046" lon="9.240534867434189"><ele>680.0</ele><time>2026-05-03T12:05:37Z</time></trkpt><trkpt lat="44.52839464553238" lon="9.240527603275373"><ele>680.0</ele><time>2026-05-03T12:05:38Z</time></trkpt><trkpt lat="44.52831836967138" lon="9.240529198433784"><ele>680.0</ele><time>2026-05-03T12:05:39Z</time></trkpt><trkpt lat="44.52824841519215" lon="9.24047761618714"><ele>680.0</ele><time>2026-05-03T12:05:40Z</time></trkpt><trkpt lat="44.52814948613686" lon="9.240435636568897"><ele>680.0</ele><time>2026-05-03T12:05:41Z</time></trkpt><trkpt lat="44.528007816474286" lon="9.240432320174849"><ele>680.0</ele><time>2026-05-03T12:05:42Z</time></trkpt><trkpt lat="44.527861328505985" lon="9.240526331695648"><ele>680.0</ele><time>2026-05-03T12:05:43Z</time></trkpt><trkpt lat="44.52771424991348" lon="9.2406202099756"><ele>680.0</ele><time>2026-05-03T12:05:44Z</time></trkpt><trkpt lat="44.527544695804146" lon="9.240745455750575"><ele>680.0</ele><time>2026-05-03T12:05:45Z</time></trkpt><trkpt lat="44.527383211208836" lon="9.240836656953856"><ele>680.0</ele><time>2026-05-03T12:05:46Z</time></trkpt><trkpt lat="44.5272239107095" lon="9.240871690991945"><ele>680.0</ele><time>2026-05-03T12:05:47Z</time></trkpt><trkpt lat="44.5270936061244" lon="9.240976095831732"><ele>680.0</ele><time>2026-05-03T12:05:48Z</time></trkpt><trkpt lat="44.52696461857399" lon="9.241043364145941"><ele>680.0</ele><time>2026-05-03T12:05:49Z</time></trkpt><trkpt lat="44.526826677347245" lon="9.241105791315128"><ele>680.0</ele><time>2026-05-03T12:05:50Z</time></trkpt><trkpt lat="44.52670931515047" lon="9.241190652309257"><ele>677.6</ele><time>2026-05-03T12:05:51Z</time></trkpt><trkpt lat="44.52659056740778" lon="9.24125383239473"><ele>675.2</ele><time>2026-05-03T12:05:52Z</time></trkpt><trkpt lat="44.52648291633269" lon="9.241306017800289"><ele>672.8</ele><time>2026-05-03T12:05:53Z</time></trkpt><trkpt lat="44.5263891325724" lon="9.24132635677849"><ele>670.4</ele><time>2026-05-03T12:05:54Z</time></trkpt><trkpt lat="44.52631799684301" lon="9.241368192456568"><ele>668.0</ele><time>2026-05-03T12:05:55Z</time></trkpt><trkpt lat="44.5262886879278" lon="9.241450569587828"><ele>667.5</ele><time>2026-05-03T12:05:56Z</time></trkpt><trkpt lat="44.526264880560824" lon="9.241578957416044"><ele>667.0</ele><time>2026-05-03T12:05:57Z</time></trkpt><trkpt lat="44.526244636015825" lon="9.241751884500003"><ele>666.5</ele><time>2026-05-03T12:05:58Z</time></trkpt><trkpt lat="44.52623570166408" lon="9.241950254396505"><ele>666.0</ele><time>2026-05-03T12:05:59Z</time></trkpt><trkpt lat="44.52621765175312" lon="9.242181535522645"><ele>665.3333333333334</ele><time>2026-05-03T12:06:00Z</time></trkpt><trkpt lat="44.52619592412341" lon="9.24240866759868"><ele>664.6666666666667</ele><time>2026-05-03T12:06:01Z</time></trkpt><trkpt lat="44.5261755324631" lon="9.242650823353603"><ele>664.0</ele><time>2026-05-03T12:06:02Z</time></trkpt><trkpt lat="44.52614792392216" lon="9.242913218412413"><ele>665.6666666666667</ele><time>2026-05-03T12:06:03Z</time></trkpt><trkpt lat="44.52608090814462" lon="9.243155475604487"><ele>667.3333333333334</ele><time>2026-05-03T12:06:04Z</time></trkpt><trkpt lat="44.525972693286164" lon="9.243322859296788"><ele>669.0</ele><time>2026-05-03T12:06:05Z</time></trkpt><trkpt lat="44.52585463499389" lon="9.243527733765921"><ele>669.0</ele><time>2026-05-03T12:06:06Z</time></trkpt><trkpt lat="44.52576572578298" lon="9.243744231731652"><ele>669.0</ele><time>2026-05-03T12:06:07Z</time></trkpt><trkpt lat="44.525698259480706" lon="9.244014928856771"><ele>669.0</ele><time>2026-05-03T12:06:08Z</time></trkpt><trkpt lat="44.52562898168861" lon="9.244305974442712"><ele>671.3333333333334</ele><time>2026-05-03T12:06:09Z</time></trkpt><trkpt lat="44.52554921717544" lon="9.244566236961932"><ele>673.6666666666667</ele><time>2026-05-03T12:06:10Z</time></trkpt><trkpt lat="44.52546486226192" lon="9.244839714933619"><ele>676.0</ele><time>2026-05-03T12:06:11Z</time></trkpt><trkpt lat="44.525401766155106" lon="9.24507429803276"><ele>670.3333333333334</ele><time>2026-05-03T12:06:12Z</time></trkpt><trkpt lat="44.525350205053606" lon="9.245308915892945"><ele>664.6666666666666</ele><time>2026-05-03T12:06:13Z</time></trkpt><trkpt lat="44.525308268252545" lon="9.245529027267805"><ele>659.0</ele><time>2026-05-03T12:06:14Z</time></trkpt><trkpt lat="44.52529529338594" lon="9.245739200507762"><ele>659.0</ele><time>2026-05-03T12:06:15Z</time></trkpt><trkpt lat="44.52528006778701" lon="9.245956378675807"><ele>659.0</ele><time>2026-05-03T12:06:16Z</time></trkpt><trkpt lat="44.52525359047872" lon="9.246171537457537"><ele>659.0</ele><time>2026-05-03T12:06:17Z</time></trkpt><trkpt lat="44.52520430194125" lon="9.246352315845865"><ele>659.0</ele><time>2026-05-03T12:06:18Z</time></trkpt><trkpt lat="44.52516789650424" lon="9.24653107639928"><ele>659.5</ele><time>2026-05-03T12:06:19Z</time></trkpt><trkpt lat="44.52516658951429" lon="9.246696431325244"><ele>660.0</ele><time>2026-05-03T12:06:20Z</time></trkpt><trkpt lat="44.525198339236134" lon="9.24687308778508"><ele>660.5</ele><time>2026-05-03T12:06:21Z</time></trkpt><trkpt lat="44.52526682008433" lon="9.24704210920199"><ele>661.0</ele><time>2026-05-03T12:06:22Z</time></trkpt><trkpt lat="44.52534096197925" lon="9.24719436951088"><ele>662.5</ele><time>2026-05-03T12:06:23Z</time></trkpt><trkpt lat="44.52542378170533" lon="9.247322421124746"><ele>664.0</ele><time>2026-05-03T12:06:24Z</time></trkpt><trkpt lat="44.52549122493141" lon="9.247435223717018"><ele>665.5</ele><time>2026-05-03T12:06:25Z</time></trkpt><trkpt lat="44.52556004674543" lon="9.247551222037693"><ele>667.0</ele><time>2026-05-03T12:06:26Z</time></trkpt><trkpt lat="44.525634392384575" lon="9.247687661334606"><ele>667.0</ele><time>2026-05-03T12:06:27Z</time></trkpt><trkpt lat="44.52568083365301" lon="9.247800085508374"><ele>667.0</ele><time>2026-05-03T12:06:28Z</time></trkpt><trkpt lat="44.52573551943224" lon="9.247914726424515"><ele>667.0</ele><time>2026-05-03T12:06:29Z</time></trkpt><trkpt lat="44.525769879303674" lon="9.247989421168649"><ele>667.0</ele><time>2026-05-03T12:06:30Z</time></trkpt><trkpt lat="44.525816012430504" lon="9.2480897256042"><ele>667.0</ele><time>2026-05-03T12:06:31Z</time></trkpt><trkpt lat="44.52585560178782" lon="9.248167928287039"><ele>667.0</ele><time>2026-05-03T12:06:32Z</time></trkpt><trkpt lat="44.525924309116505" lon="9.24831076720269"><ele>666.3333333333334</ele><time>2026-05-03T12:06:34Z</time></trkpt><trkpt lat="44.525985029252624" lon="9.24843685465147"><ele>665.6666666666667</ele><time>2026-05-03T12:06:36Z</time></trkpt><trkpt lat="44.52603509330606" lon="9.248540579724324"><ele>665.0</ele><time>2026-05-03T12:06:40Z</time></trkpt><trkpt lat="44.52607379116677" lon="9.248620755795598"><ele>664.3333333333334</ele><time>2026-05-03T12:06:42Z</time></trkpt><trkpt lat="44.52613345460574" lon="9.248722249016229"><ele>663.6666666666666</ele><time>2026-05-03T12:06:45Z</time></trkpt><trkpt lat="44.52617512690857" lon="9.24879623792103"><ele>663.0</ele><time>2026-05-03T12:06:47Z</time></trkpt><trkpt lat="44.52611507226876" lon="9.24872925614086"><ele>663.0</ele><time>2026-05-03T12:08:40Z</time></trkpt><trkpt lat="44.52608035476445" lon="9.248639650694164"><ele>663.0</ele><time>2026-05-03T12:08:45Z</time></trkpt><trkpt lat="44.52603268794807" lon="9.248575188316563"><ele>663.0</ele><time>2026-05-03T12:08:51.999Z</time></trkpt><trkpt lat="44.52600894311332" lon="9.248404262949133"><ele>663.0</ele><time>2026-05-03T12:13:59.723Z</time></trkpt><trkpt lat="44.526315451836766" lon="9.248548629372122"><ele>663.0</ele><time>2026-05-03T12:18:32.016Z</time></trkpt><trkpt lat="44.52613445492022" lon="9.248489876887831"><ele>663.0</ele><time>2026-05-03T12:18:39.016Z</time></trkpt><trkpt lat="44.526008243080575" lon="9.248396730072571"><ele>663.0</ele><time>2026-05-03T12:26:04.44Z</time></trkpt><trkpt lat="44.52599406262367" lon="9.248507849398976"><ele>663.0</ele><time>2026-05-03T12:33:52.986Z</time></trkpt><trkpt lat="44.52607796527766" lon="9.248629637384411"><ele>663.0</ele><time>2026-05-03T12:34:21.002Z</time></trkpt><trkpt lat="44.52612787484892" lon="9.248689689116226"><ele>663.0</ele><time>2026-05-03T12:39:23.998Z</time></trkpt><trkpt lat="44.526179569903526" lon="9.248745694245166"><ele>663.0</ele><time>2026-05-03T12:39:29.998Z</time></trkpt><trkpt lat="44.52619119705727" lon="9.248842693273971"><ele>663.0</ele><time>2026-05-03T12:41:57.998Z</time></trkpt><trkpt lat="44.526256209090825" lon="9.248945115557406"><ele>663.0</ele><time>2026-05-03T12:41:59.998Z</time></trkpt><trkpt lat="44.52628910317129" lon="9.249055445418609"><ele>663.0</ele><time>2026-05-03T12:42:00.998Z</time></trkpt><trkpt lat="44.526327640830125" lon="9.249148709501307"><ele>663.4</ele><time>2026-05-03T12:42:01.998Z</time></trkpt><trkpt lat="44.526394369390864" lon="9.249238564730927"><ele>663.8</ele><time>2026-05-03T12:42:02.998Z</time></trkpt><trkpt lat="44.52646102335202" lon="9.249344786657385"><ele>664.2</ele><time>2026-05-03T12:42:03.998Z</time></trkpt><trkpt lat="44.526530915643896" lon="9.249459949405633"><ele>664.6</ele><time>2026-05-03T12:42:04.998Z</time></trkpt><trkpt lat="44.52660445523133" lon="9.249571597937173"><ele>665.0</ele><time>2026-05-03T12:42:05.998Z</time></trkpt><trkpt lat="44.52668327576651" lon="9.249692454529038"><ele>665.2</ele><time>2026-05-03T12:42:06.998Z</time></trkpt><trkpt lat="44.52675706889424" lon="9.24980271789148"><ele>665.4</ele><time>2026-05-03T12:42:07.998Z</time></trkpt><trkpt lat="44.52683309316864" lon="9.249914082568583"><ele>665.5999999999999</ele><time>2026-05-03T12:42:08.998Z</time></trkpt><trkpt lat="44.52691179220091" lon="9.250026926863429"><ele>665.8</ele><time>2026-05-03T12:42:09.998Z</time></trkpt><trkpt lat="44.52698770239236" lon="9.250140397890746"><ele>666.0</ele><time>2026-05-03T12:42:10.998Z</time></trkpt><trkpt lat="44.527068311373526" lon="9.25024787823942"><ele>666.0</ele><time>2026-05-03T12:42:11.998Z</time></trkpt><trkpt lat="44.52714972271671" lon="9.250357059532162"><ele>666.0</ele><time>2026-05-03T12:42:12.998Z</time></trkpt><trkpt lat="44.52723080861411" lon="9.250473380218848"><ele>666.0</ele><time>2026-05-03T12:42:13.998Z</time></trkpt><trkpt lat="44.527309668546195" lon="9.250583453316645"><ele>666.0</ele><time>2026-05-03T12:42:14.998Z</time></trkpt><trkpt lat="44.52738173398863" lon="9.250685007436653"><ele>666.0</ele><time>2026-05-03T12:42:15.998Z</time></trkpt><trkpt lat="44.527449706977094" lon="9.250779322701083"><ele>663.5</ele><time>2026-05-03T12:42:16.999Z</time></trkpt><trkpt lat="44.52751193615727" lon="9.250868148300144"><ele>661.0</ele><time>2026-05-03T12:42:17.999Z</time></trkpt><trkpt lat="44.527547285689685" lon="9.250974553381296"><ele>658.5</ele><time>2026-05-03T12:42:18.999Z</time></trkpt><trkpt lat="44.527409147319794" lon="9.251121389707059"><ele>656.0</ele><time>2026-05-03T12:42:20.999Z</time></trkpt><trkpt lat="44.52733359419086" lon="9.251221922546748"><ele>656.0</ele><time>2026-05-03T12:42:21.999Z</time></trkpt><trkpt lat="44.5272493657191" lon="9.251333444128242"><ele>656.0</ele><time>2026-05-03T12:42:22.999Z</time></trkpt><trkpt lat="44.52714931037004" lon="9.251465921094905"><ele>656.0</ele><time>2026-05-03T12:42:23.999Z</time></trkpt><trkpt lat="44.52705583096796" lon="9.251575017973645"><ele>656.0</ele><time>2026-05-03T12:42:24.999Z</time></trkpt><trkpt lat="44.52697115193387" lon="9.251640543708435"><ele>655.5</ele><time>2026-05-03T12:42:25.999Z</time></trkpt><trkpt lat="44.52688102089718" lon="9.251611506564515"><ele>655.0</ele><time>2026-05-03T12:42:26.999Z</time></trkpt><trkpt lat="44.52677430689876" lon="9.251560740534321"><ele>654.5</ele><time>2026-05-03T12:42:27.999Z</time></trkpt><trkpt lat="44.526666090026346" lon="9.251483505541918"><ele>654.0</ele><time>2026-05-03T12:42:28.999Z</time></trkpt><trkpt lat="44.52655350728933" lon="9.251394262982515"><ele>654.0</ele><time>2026-05-03T12:42:29.999Z</time></trkpt><trkpt lat="44.5264341806115" lon="9.251297820858406"><ele>654.0</ele><time>2026-05-03T12:42:30.999Z</time></trkpt><trkpt lat="44.526294573348984" lon="9.251183605234006"><ele>654.0</ele><time>2026-05-03T12:42:31.999Z</time></trkpt><trkpt lat="44.52613750242673" lon="9.251054533151526"><ele>657.0</ele><time>2026-05-03T12:42:32.999Z</time></trkpt><trkpt lat="44.52598340219069" lon="9.250928347589898"><ele>660.0</ele><time>2026-05-03T12:42:33.999Z</time></trkpt><trkpt lat="44.52581620582945" lon="9.25079241515213"><ele>663.0</ele><time>2026-05-03T12:42:34.999Z</time></trkpt><trkpt lat="44.525643796436945" lon="9.250650532957174"><ele>663.6666666666666</ele><time>2026-05-03T12:42:35.999Z</time></trkpt><trkpt lat="44.52546821148359" lon="9.250504683691613"><ele>664.3333333333333</ele><time>2026-05-03T12:42:36.999Z</time></trkpt><trkpt lat="44.52527858216751" lon="9.250380194287969"><ele>665.0</ele><time>2026-05-03T12:42:37.999Z</time></trkpt><trkpt lat="44.525098591505426" lon="9.250226045471312"><ele>665.0</ele><time>2026-05-03T12:42:38.999Z</time></trkpt><trkpt lat="44.52495044622194" lon="9.250058675054165"><ele>665.0</ele><time>2026-05-03T12:42:39.999Z</time></trkpt><trkpt lat="44.524823727772144" lon="9.249880619111034"><ele>665.0</ele><time>2026-05-03T12:42:40.999Z</time></trkpt><trkpt lat="44.524713505680616" lon="9.24967035230466"><ele>664.0</ele><time>2026-05-03T12:42:41.999Z</time></trkpt><trkpt lat="44.524626969689926" lon="9.2494466849457"><ele>663.0</ele><time>2026-05-03T12:42:42.999Z</time></trkpt><trkpt lat="44.52455862774225" lon="9.249193975749717"><ele>662.0</ele><time>2026-05-03T12:42:43.999Z</time></trkpt><trkpt lat="44.52452103927162" lon="9.248923666918225"><ele>662.0</ele><time>2026-05-03T12:42:44.999Z</time></trkpt><trkpt lat="44.52446835488668" lon="9.248650398030165"><ele>662.0</ele><time>2026-05-03T12:42:45.999Z</time></trkpt><trkpt lat="44.52443768437122" lon="9.248373459779753"><ele>662.0</ele><time>2026-05-03T12:42:46.999Z</time></trkpt><trkpt lat="44.524403371580085" lon="9.248124620746905"><ele>661.0</ele><time>2026-05-03T12:42:47.999Z</time></trkpt><trkpt lat="44.524369811257785" lon="9.247899603802326"><ele>660.0</ele><time>2026-05-03T12:42:48.999Z</time></trkpt><trkpt lat="44.52433846410087" lon="9.247688573162836"><ele>659.0</ele><time>2026-05-03T12:42:49.999Z</time></trkpt><trkpt lat="44.52430975291409" lon="9.247512825919049"><ele>658.0</ele><time>2026-05-03T12:42:50.999Z</time></trkpt><trkpt lat="44.524264966035425" lon="9.247374144820068"><ele>659.25</ele><time>2026-05-03T12:42:51.999Z</time></trkpt><trkpt lat="44.52418877071967" lon="9.247242659322156"><ele>660.5</ele><time>2026-05-03T12:42:52.999Z</time></trkpt><trkpt lat="44.52408164630168" lon="9.247128583349847"><ele>661.75</ele><time>2026-05-03T12:42:53.999Z</time></trkpt><trkpt lat="44.52396915810922" lon="9.247004328309394"><ele>663.0</ele><time>2026-05-03T12:42:54.999Z</time></trkpt><trkpt lat="44.52389129987943" lon="9.246871490471412"><ele>663.0</ele><time>2026-05-03T12:42:55.999Z</time></trkpt><trkpt lat="44.52388498859758" lon="9.246718226895485"><ele>663.0</ele><time>2026-05-03T12:42:56.999Z</time></trkpt><trkpt lat="44.52386020765794" lon="9.24654963348146"><ele>663.0</ele><time>2026-05-03T12:42:57.999Z</time></trkpt><trkpt lat="44.5238216138089" lon="9.246361466249514"><ele>663.0</ele><time>2026-05-03T12:42:58.999Z</time></trkpt><trkpt lat="44.52379660911162" lon="9.246145782954047"><ele>664.0</ele><time>2026-05-03T12:42:59.999Z</time></trkpt><trkpt lat="44.523779086978585" lon="9.24593084117337"><ele>665.0</ele><time>2026-05-03T12:43:00.999Z</time></trkpt><trkpt lat="44.52380266152204" lon="9.245704568500955"><ele>666.0</ele><time>2026-05-03T12:43:01.999Z</time></trkpt><trkpt lat="44.52380789929286" lon="9.24546178040489"><ele>668.0</ele><time>2026-05-03T12:43:02.999Z</time></trkpt><trkpt lat="44.523843905878024" lon="9.245213455570278"><ele>670.0</ele><time>2026-05-03T12:43:03.999Z</time></trkpt><trkpt lat="44.5238885966098" lon="9.244963756285863"><ele>672.0</ele><time>2026-05-03T12:43:04.999Z</time></trkpt><trkpt lat="44.52392603548419" lon="9.24471845297891"><ele>674.3333333333334</ele><time>2026-05-03T12:43:05.999Z</time></trkpt><trkpt lat="44.52393834312003" lon="9.244457578813245"><ele>676.6666666666667</ele><time>2026-05-03T12:43:06.999Z</time></trkpt><trkpt lat="44.523945504946305" lon="9.244203923815169"><ele>679.0</ele><time>2026-05-03T12:43:07.999Z</time></trkpt><trkpt lat="44.52403339482145" lon="9.244014269936459"><ele>685.3333333333334</ele><time>2026-05-03T12:43:08.999Z</time></trkpt><trkpt lat="44.52412573323285" lon="9.24379463965365"><ele>691.6666666666666</ele><time>2026-05-03T12:43:09.999Z</time></trkpt><trkpt lat="44.52420602057598" lon="9.243559023028759"><ele>698.0</ele><time>2026-05-03T12:43:10.999Z</time></trkpt><trkpt lat="44.52429379168467" lon="9.24334667623139"><ele>698.0</ele><time>2026-05-03T12:43:11.999Z</time></trkpt><trkpt lat="44.524365402153656" lon="9.243162458350103"><ele>698.0</ele><time>2026-05-03T12:43:12.999Z</time></trkpt><trkpt lat="44.52440217691372" lon="9.24298931049241"><ele>698.0</ele><time>2026-05-03T12:43:13.999Z</time></trkpt><trkpt lat="44.52438423288154" lon="9.242797510044982"><ele>698.0</ele><time>2026-05-03T12:43:14.999Z</time></trkpt><trkpt lat="44.52435365938438" lon="9.242605351739053"><ele>701.25</ele><time>2026-05-03T12:43:15.999Z</time></trkpt><trkpt lat="44.52436010561513" lon="9.24243047941521"><ele>704.5</ele><time>2026-05-03T12:43:16.999Z</time></trkpt><trkpt lat="44.52442671840876" lon="9.242306281879642"><ele>707.75</ele><time>2026-05-03T12:43:17.999Z</time></trkpt><trkpt lat="44.52449242719819" lon="9.242165708208505"><ele>711.0</ele><time>2026-05-03T12:43:18.999Z</time></trkpt><trkpt lat="44.524533469980824" lon="9.242044919396385"><ele>713.5</ele><time>2026-05-03T12:43:19.999Z</time></trkpt><trkpt lat="44.524497809086505" lon="9.241916476426058"><ele>716.0</ele><time>2026-05-03T12:43:20.999Z</time></trkpt><trkpt lat="44.52442703056968" lon="9.241783397990794"><ele>718.5</ele><time>2026-05-03T12:43:21.999Z</time></trkpt><trkpt lat="44.524397358623496" lon="9.241612890289064"><ele>721.0</ele><time>2026-05-03T12:43:22.999Z</time></trkpt><trkpt lat="44.524400746458504" lon="9.241458127539556"><ele>721.75</ele><time>2026-05-03T12:43:23.999Z</time></trkpt><trkpt lat="44.524450012229224" lon="9.2412608280836"><ele>722.5</ele><time>2026-05-03T12:43:24.999Z</time></trkpt><trkpt lat="44.52445962022815" lon="9.241050295556693"><ele>723.25</ele><time>2026-05-03T12:43:25.999Z</time></trkpt><trkpt lat="44.52446576200102" lon="9.240847601143516"><ele>724.0</ele><time>2026-05-03T12:43:26.998Z</time></trkpt><trkpt lat="44.52444099102321" lon="9.240676346490517"><ele>725.6666666666667</ele><time>2026-05-03T12:43:27.998Z</time></trkpt><trkpt lat="44.524398040708725" lon="9.24043550953431"><ele>727.3333333333334</ele><time>2026-05-03T12:43:28.998Z</time></trkpt><trkpt lat="44.52435694945718" lon="9.240171796092675"><ele>729.0</ele><time>2026-05-03T12:43:29.998Z</time></trkpt><trkpt lat="44.52432292525057" lon="9.239922965529631"><ele>731.0</ele><time>2026-05-03T12:43:30.998Z</time></trkpt><trkpt lat="44.524322919227544" lon="9.239725100841532"><ele>733.0</ele><time>2026-05-03T12:43:31.998Z</time></trkpt><trkpt lat="44.52435186977929" lon="9.239581974635378"><ele>735.0</ele><time>2026-05-03T12:43:32.998Z</time></trkpt><trkpt lat="44.52442329084662" lon="9.239490903891522"><ele>737.0</ele><time>2026-05-03T12:43:33.998Z</time></trkpt><trkpt lat="44.524537717491626" lon="9.239446058630653"><ele>731.6</ele><time>2026-05-03T12:43:34.998Z</time></trkpt><trkpt lat="44.524667437996904" lon="9.239404701152981"><ele>726.2</ele><time>2026-05-03T12:43:35.998Z</time></trkpt><trkpt lat="44.52479670212741" lon="9.2393502825783"><ele>720.8</ele><time>2026-05-03T12:43:36.998Z</time></trkpt><trkpt lat="44.52487482638815" lon="9.239281279849436"><ele>715.4</ele><time>2026-05-03T12:43:37.998Z</time></trkpt><trkpt lat="44.52488579910834" lon="9.239168413537858"><ele>710.0</ele><time>2026-05-03T12:43:38.998Z</time></trkpt><trkpt lat="44.52482986650544" lon="9.239070101383131"><ele>710.0</ele><time>2026-05-03T12:43:39.998Z</time></trkpt><trkpt lat="44.52472748140431" lon="9.239036684226244"><ele>710.0</ele><time>2026-05-03T12:43:40.998Z</time></trkpt><trkpt lat="44.524589800437994" lon="9.239085003033823"><ele>710.0</ele><time>2026-05-03T12:43:41.998Z</time></trkpt><trkpt lat="44.524473911376724" lon="9.239133465794037"><ele>710.0</ele><time>2026-05-03T12:43:42.998Z</time></trkpt><trkpt lat="44.524363009342245" lon="9.239184137255037"><ele>719.0</ele><time>2026-05-03T12:43:43.998Z</time></trkpt><trkpt lat="44.52422010543928" lon="9.239310082944568"><ele>728.0</ele><time>2026-05-03T12:43:44.998Z</time></trkpt><trkpt lat="44.524110841794915" lon="9.239436742878498"><ele>737.0</ele><time>2026-05-03T12:43:45.998Z</time></trkpt><trkpt lat="44.52400876436196" lon="9.23959220180985"><ele>737.0</ele><time>2026-05-03T12:43:46.998Z</time></trkpt><trkpt lat="44.52394085092936" lon="9.239779231550058"><ele>737.0</ele><time>2026-05-03T12:43:47.998Z</time></trkpt><trkpt lat="44.52386793677702" lon="9.240017576994468"><ele>737.0</ele><time>2026-05-03T12:43:48.998Z</time></trkpt><trkpt lat="44.52382096217394" lon="9.240304057212567"><ele>734.3333333333333</ele><time>2026-05-03T12:43:49.998Z</time></trkpt><trkpt lat="44.52375875551899" lon="9.240568948502426"><ele>731.6666666666666</ele><time>2026-05-03T12:43:50.998Z</time></trkpt><trkpt lat="44.52366246392329" lon="9.240799728567223"><ele>729.0</ele><time>2026-05-03T12:43:51.998Z</time></trkpt><trkpt lat="44.52358089666874" lon="9.241033301249203"><ele>740.6666666666666</ele><time>2026-05-03T12:43:52.998Z</time></trkpt><trkpt lat="44.52350962858244" lon="9.241273033549053"><ele>752.3333333333333</ele><time>2026-05-03T12:43:53.998Z</time></trkpt><trkpt lat="44.52349771832296" lon="9.241538807717378"><ele>764.0</ele><time>2026-05-03T12:43:54.998Z</time></trkpt><trkpt lat="44.52348910640175" lon="9.241807931838009"><ele>764.0</ele><time>2026-05-03T12:43:55.998Z</time></trkpt><trkpt lat="44.52343652517903" lon="9.242066818499087"><ele>764.0</ele><time>2026-05-03T12:43:56.998Z</time></trkpt><trkpt lat="44.52335273390871" lon="9.24231042536604"><ele>764.0</ele><time>2026-05-03T12:43:57.998Z</time></trkpt><trkpt lat="44.52326477944088" lon="9.242558696890871"><ele>763.3333333333333</ele><time>2026-05-03T12:43:58.998Z</time></trkpt><trkpt lat="44.523183251481655" lon="9.242816899150089"><ele>762.6666666666666</ele><time>2026-05-03T12:43:59.998Z</time></trkpt><trkpt lat="44.52310880848424" lon="9.243064977004765"><ele>762.0</ele><time>2026-05-03T12:44:00.998Z</time></trkpt><trkpt lat="44.5230521659439" lon="9.243283334702374"><ele>756.0</ele><time>2026-05-03T12:44:01.998Z</time></trkpt><trkpt lat="44.52293545886929" lon="9.243454166678195"><ele>750.0</ele><time>2026-05-03T12:44:02.998Z</time></trkpt><trkpt lat="44.52280970962267" lon="9.243641127365017"><ele>744.0</ele><time>2026-05-03T12:44:03.998Z</time></trkpt><trkpt lat="44.52268474304929" lon="9.243839785342233"><ele>748.25</ele><time>2026-05-03T12:44:04.998Z</time></trkpt><trkpt lat="44.52258287723762" lon="9.244019399279852"><ele>752.5</ele><time>2026-05-03T12:44:05.998Z</time></trkpt><trkpt lat="44.52251242645707" lon="9.244143683608627"><ele>756.75</ele><time>2026-05-03T12:44:06.998Z</time></trkpt><trkpt lat="44.522455514597084" lon="9.244201497577592"><ele>761.0</ele><time>2026-05-03T12:44:07.998Z</time></trkpt><trkpt lat="44.522337814163116" lon="9.244070625859663"><ele>766.0</ele><time>2026-05-03T12:44:09.998Z</time></trkpt><trkpt lat="44.5222688652354" lon="9.243948721234666"><ele>771.0</ele><time>2026-05-03T12:44:10.998Z</time></trkpt><trkpt lat="44.52219145252856" lon="9.243795762607503"><ele>776.0</ele><time>2026-05-03T12:44:11.998Z</time></trkpt><trkpt lat="44.522114261709056" lon="9.243601396450149"><ele>781.0</ele><time>2026-05-03T12:44:12.998Z</time></trkpt><trkpt lat="44.52202207858205" lon="9.243417691431276"><ele>781.0</ele><time>2026-05-03T12:44:13.998Z</time></trkpt><trkpt lat="44.52191606206228" lon="9.24328993765298"><ele>781.0</ele><time>2026-05-03T12:44:14.998Z</time></trkpt><trkpt lat="44.52176584023976" lon="9.243271834591043"><ele>781.0</ele><time>2026-05-03T12:44:15.998Z</time></trkpt><trkpt lat="44.52162372553926" lon="9.243251779170974"><ele>781.0</ele><time>2026-05-03T12:44:16.998Z</time></trkpt><trkpt lat="44.521521640193036" lon="9.243221489929647"><ele>789.75</ele><time>2026-05-03T12:44:17.998Z</time></trkpt><trkpt lat="44.521479587227674" lon="9.243112596213026"><ele>798.5</ele><time>2026-05-03T12:44:18.998Z</time></trkpt><trkpt lat="44.52139614709325" lon="9.242949923119868"><ele>807.25</ele><time>2026-05-03T12:44:19.998Z</time></trkpt><trkpt lat="44.52130755091721" lon="9.242798696210109"><ele>816.0</ele><time>2026-05-03T12:44:20.998Z</time></trkpt><trkpt lat="44.52123272542603" lon="9.242714312795114"><ele>812.75</ele><time>2026-05-03T12:44:21.998Z</time></trkpt><trkpt lat="44.521083534901976" lon="9.242749082558358"><ele>809.5</ele><time>2026-05-03T12:44:22.999Z</time></trkpt><trkpt lat="44.52094946811421" lon="9.242818586897304"><ele>806.25</ele><time>2026-05-03T12:44:23.999Z</time></trkpt><trkpt lat="44.52081349962114" lon="9.242815731791843"><ele>803.0</ele><time>2026-05-03T12:44:24.999Z</time></trkpt><trkpt lat="44.52068444905331" lon="9.242756412684153"><ele>803.0</ele><time>2026-05-03T12:44:25.999Z</time></trkpt><trkpt lat="44.52056796868495" lon="9.242620410669899"><ele>803.0</ele><time>2026-05-03T12:44:26.999Z</time></trkpt><trkpt lat="44.52038411374568" lon="9.242611353741184"><ele>803.0</ele><time>2026-05-03T12:44:27.999Z</time></trkpt><trkpt lat="44.52026031577001" lon="9.242624749527659"><ele>799.75</ele><time>2026-05-03T12:44:28.999Z</time></trkpt><trkpt lat="44.520106135967005" lon="9.242585086132436"><ele>796.5</ele><time>2026-05-03T12:44:29.999Z</time></trkpt><trkpt lat="44.52002923844009" lon="9.242467346587361"><ele>793.25</ele><time>2026-05-03T12:44:30.999Z</time></trkpt><trkpt lat="44.51992752758292" lon="9.24233760380983"><ele>790.0</ele><time>2026-05-03T12:44:31.999Z</time></trkpt><trkpt lat="44.51983105218364" lon="9.242173444771137"><ele>794.25</ele><time>2026-05-03T12:44:32.999Z</time></trkpt><trkpt lat="44.519699430073565" lon="9.241996065888545"><ele>798.5</ele><time>2026-05-03T12:44:33.999Z</time></trkpt><trkpt lat="44.519595859583795" lon="9.241876917031192"><ele>802.75</ele><time>2026-05-03T12:44:34.999Z</time></trkpt><trkpt lat="44.519532747870926" lon="9.241794005275734"><ele>807.0</ele><time>2026-05-03T12:44:35.999Z</time></trkpt><trkpt lat="44.51958488899618" lon="9.24165434346906"><ele>810.6</ele><time>2026-05-03T12:44:37.999Z</time></trkpt><trkpt lat="44.51965041790767" lon="9.24173335429814"><ele>814.2</ele><time>2026-05-03T12:44:38.999Z</time></trkpt><trkpt lat="44.519667325919464" lon="9.241836846151974"><ele>817.8</ele><time>2026-05-03T12:44:39.999Z</time></trkpt><trkpt lat="44.51976990471952" lon="9.241965764251388"><ele>821.4</ele><time>2026-05-03T12:44:40.999Z</time></trkpt><trkpt lat="44.51986073508645" lon="9.242079089897988"><ele>825.0</ele><time>2026-05-03T12:44:41.999Z</time></trkpt><trkpt lat="44.5199435529171" lon="9.242180035792808"><ele>825.0</ele><time>2026-05-03T12:44:42.999Z</time></trkpt><trkpt lat="44.52004422120054" lon="9.242289466858049"><ele>825.0</ele><time>2026-05-03T12:44:43.999Z</time></trkpt><trkpt lat="44.5201701910119" lon="9.242353023328327"><ele>825.0</ele><time>2026-05-03T12:44:44.999Z</time></trkpt><trkpt lat="44.520296054066144" lon="9.24236012510512"><ele>825.0</ele><time>2026-05-03T12:44:45.999Z</time></trkpt><trkpt lat="44.52042055912203" lon="9.242302167933847"><ele>829.25</ele><time>2026-05-03T12:44:46.999Z</time></trkpt><trkpt lat="44.52056291618421" lon="9.24223113396584"><ele>833.5</ele><time>2026-05-03T12:44:47.999Z</time></trkpt><trkpt lat="44.52070127105514" lon="9.242261457767176"><ele>837.75</ele><time>2026-05-03T12:44:48.999Z</time></trkpt><trkpt lat="44.52083946577761" lon="9.242325055259245"><ele>842.0</ele><time>2026-05-03T12:44:49.999Z</time></trkpt><trkpt lat="44.52097209354429" lon="9.242301344919612"><ele>842.0</ele><time>2026-05-03T12:44:50.999Z</time></trkpt><trkpt lat="44.52107901680412" lon="9.242238750044828"><ele>842.0</ele><time>2026-05-03T12:44:51.999Z</time></trkpt><trkpt lat="44.52122535324602" lon="9.24220240264691"><ele>842.0</ele><time>2026-05-03T12:44:52.999Z</time></trkpt><trkpt lat="44.52136875469793" lon="9.242147134221602"><ele>842.0</ele><time>2026-05-03T12:44:53.999Z</time></trkpt><trkpt lat="44.521465325499115" lon="9.242162232460936"><ele>841.75</ele><time>2026-05-03T12:44:54.999Z</time></trkpt><trkpt lat="44.52156203230992" lon="9.24224625654531"><ele>841.5</ele><time>2026-05-03T12:44:55.999Z</time></trkpt><trkpt lat="44.521670877089626" lon="9.242343231334962"><ele>841.25</ele><time>2026-05-03T12:44:56.999Z</time></trkpt><trkpt lat="44.52178384183879" lon="9.242439450488279"><ele>841.0</ele><time>2026-05-03T12:44:57.999Z</time></trkpt><trkpt lat="44.52193288557951" lon="9.242505862214783"><ele>840.9999999999999</ele><time>2026-05-03T12:44:58.999Z</time></trkpt><trkpt lat="44.522054260930155" lon="9.242528273418381"><ele>841.0</ele><time>2026-05-03T12:44:59.999Z</time></trkpt><trkpt lat="44.522119099400676" lon="9.242512015276192"><ele>841.0</ele><time>2026-05-03T12:45:00.999Z</time></trkpt><trkpt lat="44.522153886952744" lon="9.24242662415855"><ele>841.0</ele><time>2026-05-03T12:45:01.999Z</time></trkpt><trkpt lat="44.52214420820927" lon="9.242319972349037"><ele>840.9999999999999</ele><time>2026-05-03T12:45:02.999Z</time></trkpt><trkpt lat="44.5220817297192" lon="9.242256756773319"><ele>841.0</ele><time>2026-05-03T12:45:03.999Z</time></trkpt><trkpt lat="44.52198970479644" lon="9.242281690206854"><ele>841.0</ele><time>2026-05-03T12:45:04.999Z</time></trkpt><trkpt lat="44.52188907295834" lon="9.242344494151745"><ele>841.0</ele><time>2026-05-03T12:45:05.999Z</time></trkpt><trkpt lat="44.52180019539555" lon="9.242263066181073"><ele>841.0</ele><time>2026-05-03T12:45:06.999Z</time></trkpt><trkpt lat="44.52172455652556" lon="9.242127461418194"><ele>841.0</ele><time>2026-05-03T12:45:07.999Z</time></trkpt><trkpt lat="44.521619660210234" lon="9.241990864055488"><ele>841.0</ele><time>2026-05-03T12:45:08.999Z</time></trkpt><trkpt lat="44.52152899836682" lon="9.241877505763634"><ele>841.0</ele><time>2026-05-03T12:45:09.999Z</time></trkpt><trkpt lat="44.52141371486792" lon="9.241764977896908"><ele>841.0</ele><time>2026-05-03T12:45:10.999Z</time></trkpt><trkpt lat="44.52127072727944" lon="9.241726200048547"><ele>841.0</ele><time>2026-05-03T12:45:11.999Z</time></trkpt><trkpt lat="44.52114250829218" lon="9.241733889735189"><ele>841.3333333333333</ele><time>2026-05-03T12:45:12.999Z</time></trkpt><trkpt lat="44.52097410141981" lon="9.241695254057229"><ele>841.6666666666667</ele><time>2026-05-03T12:45:13.999Z</time></trkpt><trkpt lat="44.520833565271" lon="9.241613538639152"><ele>842.0</ele><time>2026-05-03T12:45:14.999Z</time></trkpt><trkpt lat="44.52068971217861" lon="9.241503945449214"><ele>846.6666666666667</ele><time>2026-05-03T12:45:15.999Z</time></trkpt><trkpt lat="44.520513340663015" lon="9.241441366678856"><ele>851.3333333333333</ele><time>2026-05-03T12:45:16.999Z</time></trkpt><trkpt lat="44.52034943121873" lon="9.24137836508022"><ele>856.0</ele><time>2026-05-03T12:45:17.999Z</time></trkpt><trkpt lat="44.520236347468284" lon="9.241299141066706"><ele>856.0</ele><time>2026-05-03T12:45:18.999Z</time></trkpt><trkpt lat="44.52015376020046" lon="9.24118920179078"><ele>856.0</ele><time>2026-05-03T12:45:19.999Z</time></trkpt><trkpt lat="44.520027089276645" lon="9.241032274226175"><ele>856.0</ele><time>2026-05-03T12:45:20.999Z</time></trkpt><trkpt lat="44.519911517357976" lon="9.240857997429915"><ele>856.0</ele><time>2026-05-03T12:45:21.999Z</time></trkpt><trkpt lat="44.519812548074874" lon="9.240669725093404"><ele>856.0</ele><time>2026-05-03T12:45:22.999Z</time></trkpt><trkpt lat="44.51974027303312" lon="9.240557519637854"><ele>856.0</ele><time>2026-05-03T12:45:23.999Z</time></trkpt><trkpt lat="44.51966912096393" lon="9.240496598609443"><ele>856.0</ele><time>2026-05-03T12:45:24.999Z</time></trkpt><trkpt lat="44.51952355749867" lon="9.240447536023316"><ele>860.0</ele><time>2026-05-03T12:45:25.999Z</time></trkpt><trkpt lat="44.51936841767877" lon="9.240398062651032"><ele>864.0</ele><time>2026-05-03T12:45:26.999Z</time></trkpt><trkpt lat="44.519234857888634" lon="9.240314799880647"><ele>868.0</ele><time>2026-05-03T12:45:27.999Z</time></trkpt><trkpt lat="44.519084326096774" lon="9.240230346872497"><ele>868.0</ele><time>2026-05-03T12:45:28.999Z</time></trkpt><trkpt lat="44.518952562330604" lon="9.240091758578183"><ele>868.0</ele><time>2026-05-03T12:45:29.999Z</time></trkpt><trkpt lat="44.518774599095906" lon="9.23998561217277"><ele>868.0</ele><time>2026-05-03T12:45:30.999Z</time></trkpt><trkpt lat="44.518654037636715" lon="9.239918678949376"><ele>869.5</ele><time>2026-05-03T12:45:31.999Z</time></trkpt><trkpt lat="44.51852475990262" lon="9.239839995775238"><ele>871.0</ele><time>2026-05-03T12:45:32.999Z</time></trkpt><trkpt lat="44.518449695826256" lon="9.239804951341386"><ele>872.5</ele><time>2026-05-03T12:45:33.999Z</time></trkpt><trkpt lat="44.51837832109242" lon="9.23987181554981"><ele>874.0</ele><time>2026-05-03T12:45:34.999Z</time></trkpt><trkpt lat="44.51830403177355" lon="9.24004882012803"><ele>874.0</ele><time>2026-05-03T12:45:35.999Z</time></trkpt><trkpt lat="44.51818376534446" lon="9.24020447922667"><ele>874.0</ele><time>2026-05-03T12:45:36.999Z</time></trkpt><trkpt lat="44.518074524766135" lon="9.2403368388156"><ele>874.0</ele><time>2026-05-03T12:45:37.999Z</time></trkpt><trkpt lat="44.517965945676224" lon="9.240509722044221"><ele>874.8000000000001</ele><time>2026-05-03T12:45:38.999Z</time></trkpt><trkpt lat="44.5178724107065" lon="9.240636882412897"><ele>875.6000000000001</ele><time>2026-05-03T12:45:39.999Z</time></trkpt><trkpt lat="44.51779861007276" lon="9.240698601183086"><ele>876.4</ele><time>2026-05-03T12:45:40.999Z</time></trkpt><trkpt lat="44.517731861993944" lon="9.240661199745672"><ele>877.2</ele><time>2026-05-03T12:45:41.999Z</time></trkpt><trkpt lat="44.51770470933067" lon="9.240462312587315"><ele>878.0</ele><time>2026-05-03T12:45:43.998Z</time></trkpt><trkpt lat="44.51763173383036" lon="9.240302664614125"><ele>878.0</ele><time>2026-05-03T12:45:44.998Z</time></trkpt><trkpt lat="44.51756793378219" lon="9.240152939862122"><ele>878.0</ele><time>2026-05-03T12:45:45.998Z</time></trkpt><trkpt lat="44.51750223857574" lon="9.239983208956922"><ele>878.0</ele><time>2026-05-03T12:45:46.998Z</time></trkpt><trkpt lat="44.51742501418146" lon="9.239818771458856"><ele>878.0</ele><time>2026-05-03T12:45:47.998Z</time></trkpt><trkpt lat="44.5172960363523" lon="9.239671329660974"><ele>883.3333333333334</ele><time>2026-05-03T12:45:48.998Z</time></trkpt><trkpt lat="44.51717004926782" lon="9.239570031099907"><ele>888.6666666666667</ele><time>2026-05-03T12:45:49.998Z</time></trkpt><trkpt lat="44.51704005334514" lon="9.239446023490085"><ele>894.0</ele><time>2026-05-03T12:45:50.998Z</time></trkpt><trkpt lat="44.51691279472574" lon="9.239297244277873"><ele>894.0</ele><time>2026-05-03T12:45:51.998Z</time></trkpt><trkpt lat="44.516773591016424" lon="9.239197285322032"><ele>894.0</ele><time>2026-05-03T12:45:52.998Z</time></trkpt><trkpt lat="44.51661526367034" lon="9.239173053178497"><ele>894.0</ele><time>2026-05-03T12:45:53.998Z</time></trkpt><trkpt lat="44.516458707759334" lon="9.239199611647319"><ele>894.0</ele><time>2026-05-03T12:45:54.998Z</time></trkpt><trkpt lat="44.516328448673704" lon="9.239099549949403"><ele>894.0</ele><time>2026-05-03T12:45:55.998Z</time></trkpt><trkpt lat="44.51617597763282" lon="9.239026014564601"><ele>894.0</ele><time>2026-05-03T12:45:56.998Z</time></trkpt><trkpt lat="44.51601165827465" lon="9.238982357857672"><ele>896.3333333333333</ele><time>2026-05-03T12:45:57.998Z</time></trkpt><trkpt lat="44.515872553662724" lon="9.23888424972275"><ele>898.6666666666666</ele><time>2026-05-03T12:45:58.998Z</time></trkpt><trkpt lat="44.51576617776266" lon="9.238770151808588"><ele>901.0</ele><time>2026-05-03T12:45:59.998Z</time></trkpt><trkpt lat="44.51560209727085" lon="9.23862384859107"><ele>901.0</ele><time>2026-05-03T12:46:00.998Z</time></trkpt><trkpt lat="44.51548496749403" lon="9.238493829555646"><ele>901.0</ele><time>2026-05-03T12:46:01.998Z</time></trkpt><trkpt lat="44.51540703337578" lon="9.238367102225883"><ele>901.0</ele><time>2026-05-03T12:46:02.998Z</time></trkpt><trkpt lat="44.51534968088518" lon="9.238183017090991"><ele>901.0</ele><time>2026-05-03T12:46:03.998Z</time></trkpt><trkpt lat="44.51527546037728" lon="9.23807520214447"><ele>899.8</ele><time>2026-05-03T12:46:04.998Z</time></trkpt><trkpt lat="44.515212483389774" lon="9.238011354424282"><ele>898.5999999999999</ele><time>2026-05-03T12:46:05.998Z</time></trkpt><trkpt lat="44.51511388177631" lon="9.238023146972324"><ele>897.4</ele><time>2026-05-03T12:46:06.998Z</time></trkpt><trkpt lat="44.5149930807248" lon="9.238078717174266"><ele>896.2</ele><time>2026-05-03T12:46:07.998Z</time></trkpt><trkpt lat="44.51486230493745" lon="9.238005730611725"><ele>895.0</ele><time>2026-05-03T12:46:08.998Z</time></trkpt><trkpt lat="44.51475831251258" lon="9.237880275538997"><ele>895.0</ele><time>2026-05-03T12:46:09.998Z</time></trkpt><trkpt lat="44.51466566779633" lon="9.237742224463418"><ele>895.0</ele><time>2026-05-03T12:46:10.998Z</time></trkpt><trkpt lat="44.51453050971558" lon="9.237564401221634"><ele>895.0</ele><time>2026-05-03T12:46:11.998Z</time></trkpt><trkpt lat="44.514418093811535" lon="9.23738308034044"><ele>893.75</ele><time>2026-05-03T12:46:12.998Z</time></trkpt><trkpt lat="44.51433280736549" lon="9.237261765509274"><ele>892.5</ele><time>2026-05-03T12:46:13.998Z</time></trkpt><trkpt lat="44.51419444741029" lon="9.237213477573334"><ele>891.25</ele><time>2026-05-03T12:46:15.998Z</time></trkpt><trkpt lat="44.51406147735027" lon="9.237344107251747"><ele>890.0</ele><time>2026-05-03T12:46:16.998Z</time></trkpt><trkpt lat="44.51394335885997" lon="9.237372337159616"><ele>896.0</ele><time>2026-05-03T12:46:17.998Z</time></trkpt><trkpt lat="44.51382740896112" lon="9.237398599179038"><ele>902.0</ele><time>2026-05-03T12:46:18.998Z</time></trkpt><trkpt lat="44.5136855430219" lon="9.237451099147902"><ele>908.0</ele><time>2026-05-03T12:46:19.998Z</time></trkpt><trkpt lat="44.513525182273256" lon="9.237482022241235"><ele>914.0</ele><time>2026-05-03T12:46:20.998Z</time></trkpt><trkpt lat="44.51335862890438" lon="9.237547081659686"><ele>914.3333333333334</ele><time>2026-05-03T12:46:21.998Z</time></trkpt><trkpt lat="44.513201977451274" lon="9.237624100100255"><ele>914.6666666666667</ele><time>2026-05-03T12:46:22.998Z</time></trkpt><trkpt lat="44.513041187566024" lon="9.237713023860946"><ele>915.0</ele><time>2026-05-03T12:46:23.998Z</time></trkpt><trkpt lat="44.51286463929762" lon="9.237803558753908"><ele>915.6666666666667</ele><time>2026-05-03T12:46:24.998Z</time></trkpt><trkpt lat="44.512699807658905" lon="9.237861515585005"><ele>916.3333333333334</ele><time>2026-05-03T12:46:25.998Z</time></trkpt><trkpt lat="44.51253871772185" lon="9.237861383105795"><ele>917.0</ele><time>2026-05-03T12:46:26.998Z</time></trkpt><trkpt lat="44.51236207781149" lon="9.237834076871264"><ele>917.0</ele><time>2026-05-03T12:46:27.998Z</time></trkpt><trkpt lat="44.51219302682774" lon="9.237795351908511"><ele>917.0</ele><time>2026-05-03T12:46:28.999Z</time></trkpt><trkpt lat="44.51200884504597" lon="9.237779148877395"><ele>917.0</ele><time>2026-05-03T12:46:29.999Z</time></trkpt><trkpt lat="44.511832934941275" lon="9.237793157120544"><ele>924.0</ele><time>2026-05-03T12:46:30.999Z</time></trkpt><trkpt lat="44.51166485517645" lon="9.237816820357942"><ele>931.0</ele><time>2026-05-03T12:46:31.999Z</time></trkpt><trkpt lat="44.5115063726604" lon="9.237911784620813"><ele>938.0</ele><time>2026-05-03T12:46:32.999Z</time></trkpt><trkpt lat="44.51135255726374" lon="9.23800770656894"><ele>937.2</ele><time>2026-05-03T12:46:33.999Z</time></trkpt><trkpt lat="44.51123645075786" lon="9.238083033169373"><ele>936.4</ele><time>2026-05-03T12:46:34.999Z</time></trkpt><trkpt lat="44.511115631144925" lon="9.23815995918365"><ele>935.6000000000001</ele><time>2026-05-03T12:46:35.999Z</time></trkpt><trkpt lat="44.51104178944732" lon="9.23814674500315"><ele>934.8000000000001</ele><time>2026-05-03T12:46:36.999Z</time></trkpt><trkpt lat="44.511010589130855" lon="9.238056748324183"><ele>934.0</ele><time>2026-05-03T12:46:37.999Z</time></trkpt><trkpt lat="44.51098121138479" lon="9.237960854571682"><ele>938.5</ele><time>2026-05-03T12:46:38.999Z</time></trkpt><trkpt lat="44.51089532716982" lon="9.23788489589729"><ele>943.0</ele><time>2026-05-03T12:46:39.999Z</time></trkpt><trkpt lat="44.51078815938528" lon="9.237779668151557"><ele>947.5</ele><time>2026-05-03T12:46:40.999Z</time></trkpt><trkpt lat="44.51065504658864" lon="9.237742826099412"><ele>952.0</ele><time>2026-05-03T12:46:41.999Z</time></trkpt><trkpt lat="44.51051010980405" lon="9.23772603368762"><ele>953.0</ele><time>2026-05-03T12:46:42.999Z</time></trkpt><trkpt lat="44.51036685291935" lon="9.237683871702476"><ele>954.0</ele><time>2026-05-03T12:46:43.999Z</time></trkpt><trkpt lat="44.51023737053341" lon="9.23763250940719"><ele>955.0</ele><time>2026-05-03T12:46:44.999Z</time></trkpt><trkpt lat="44.51008225145079" lon="9.237611739923857"><ele>956.0</ele><time>2026-05-03T12:46:45.999Z</time></trkpt><trkpt lat="44.509920968825554" lon="9.237588588759767"><ele>956.0</ele><time>2026-05-03T12:46:46.999Z</time></trkpt><trkpt lat="44.5097594011048" lon="9.237528038615928"><ele>956.0</ele><time>2026-05-03T12:46:47.999Z</time></trkpt><trkpt lat="44.50960808898897" lon="9.237442369872712"><ele>956.0</ele><time>2026-05-03T12:46:48.999Z</time></trkpt><trkpt lat="44.50944402390109" lon="9.237323160273899"><ele>957.0</ele><time>2026-05-03T12:46:49.999Z</time></trkpt><trkpt lat="44.50925230384476" lon="9.237260213761934"><ele>958.0</ele><time>2026-05-03T12:46:50.999Z</time></trkpt><trkpt lat="44.50907081337533" lon="9.23717088298518"><ele>959.0</ele><time>2026-05-03T12:46:51.999Z</time></trkpt><trkpt lat="44.508930459008056" lon="9.237078184683893"><ele>959.0</ele><time>2026-05-03T12:46:52.999Z</time></trkpt><trkpt lat="44.50880231325669" lon="9.236999435325899"><ele>959.0</ele><time>2026-05-03T12:46:53.999Z</time></trkpt><trkpt lat="44.50868531597641" lon="9.236913672146676"><ele>959.0</ele><time>2026-05-03T12:46:54.999Z</time></trkpt><trkpt lat="44.508631743060896" lon="9.236782175631578"><ele>959.0</ele><time>2026-05-03T12:46:55.999Z</time></trkpt><trkpt lat="44.5085744061045" lon="9.236614022515777"><ele>958.8000000000001</ele><time>2026-05-03T12:46:56.999Z</time></trkpt><trkpt lat="44.508550309946074" lon="9.236426728211704"><ele>958.6000000000001</ele><time>2026-05-03T12:46:57.999Z</time></trkpt><trkpt lat="44.50857989969935" lon="9.2362530932276"><ele>958.4</ele><time>2026-05-03T12:46:58.999Z</time></trkpt><trkpt lat="44.50857914854618" lon="9.236114965613949"><ele>958.2</ele><time>2026-05-03T12:46:59.999Z</time></trkpt><trkpt lat="44.5085456797645" lon="9.236017065882953"><ele>958.0</ele><time>2026-05-03T12:47:00.999Z</time></trkpt><trkpt lat="44.508469901004325" lon="9.236002605323653"><ele>958.0</ele><time>2026-05-03T12:47:01.999Z</time></trkpt><trkpt lat="44.50837238421524" lon="9.236061060889158"><ele>958.0</ele><time>2026-05-03T12:47:02.999Z</time></trkpt><trkpt lat="44.50828130066539" lon="9.236180853903814"><ele>958.0</ele><time>2026-05-03T12:47:03.999Z</time></trkpt><trkpt lat="44.50816900338821" lon="9.23627900870742"><ele>958.0</ele><time>2026-05-03T12:47:04.999Z</time></trkpt><trkpt lat="44.508050783455076" lon="9.236372061093437"><ele>958.0</ele><time>2026-05-03T12:47:05.999Z</time></trkpt><trkpt lat="44.50791133655316" lon="9.236431869946077"><ele>958.0</ele><time>2026-05-03T12:47:06.999Z</time></trkpt><trkpt lat="44.50777979080967" lon="9.236527006491166"><ele>958.0</ele><time>2026-05-03T12:47:07.999Z</time></trkpt><trkpt lat="44.507656441429866" lon="9.236641581161491"><ele>958.0</ele><time>2026-05-03T12:47:08.999Z</time></trkpt><trkpt lat="44.50757105964462" lon="9.23682633966689"><ele>963.6666666666666</ele><time>2026-05-03T12:47:09.999Z</time></trkpt><trkpt lat="44.507488232993744" lon="9.23702437289803"><ele>969.3333333333333</ele><time>2026-05-03T12:47:10.999Z</time></trkpt><trkpt lat="44.50743013328661" lon="9.237258956437017"><ele>975.0</ele><time>2026-05-03T12:47:11.999Z</time></trkpt><trkpt lat="44.50731531852115" lon="9.23744860820978"><ele>976.6666666666667</ele><time>2026-05-03T12:47:12.999Z</time></trkpt><trkpt lat="44.507194610224516" lon="9.237582065151377"><ele>978.3333333333334</ele><time>2026-05-03T12:47:13.999Z</time></trkpt><trkpt lat="44.507053997564455" lon="9.237682787131671"><ele>980.0</ele><time>2026-05-03T12:47:14.999Z</time></trkpt><trkpt lat="44.506896971658385" lon="9.237808794042607"><ele>980.0</ele><time>2026-05-03T12:47:15.999Z</time></trkpt><trkpt lat="44.50674609863062" lon="9.23792470739318"><ele>980.0</ele><time>2026-05-03T12:47:16.999Z</time></trkpt><trkpt lat="44.506578210165955" lon="9.237961602931957"><ele>980.0</ele><time>2026-05-03T12:47:17.999Z</time></trkpt><trkpt lat="44.50639951752876" lon="9.238003237782813"><ele>977.3333333333334</ele><time>2026-05-03T12:47:18.999Z</time></trkpt><trkpt lat="44.506229439351074" lon="9.23807573497313"><ele>974.6666666666667</ele><time>2026-05-03T12:47:19.999Z</time></trkpt><trkpt lat="44.506059500162515" lon="9.238151919420083"><ele>972.0</ele><time>2026-05-03T12:47:20.999Z</time></trkpt><trkpt lat="44.50591279644312" lon="9.238191578842185"><ele>977.4000000000001</ele><time>2026-05-03T12:47:21.999Z</time></trkpt><trkpt lat="44.505777516859155" lon="9.238200826522192"><ele>982.8000000000001</ele><time>2026-05-03T12:47:22.999Z</time></trkpt><trkpt lat="44.50568792447701" lon="9.238245553981768"><ele>988.2</ele><time>2026-05-03T12:47:23.999Z</time></trkpt><trkpt lat="44.50561066620716" lon="9.238321947144216"><ele>993.6</ele><time>2026-05-03T12:47:24.999Z</time></trkpt><trkpt lat="44.50556668191193" lon="9.23848376771261"><ele>999.0</ele><time>2026-05-03T12:47:25.999Z</time></trkpt><trkpt lat="44.5055358945806" lon="9.238676953534583"><ele>999.0</ele><time>2026-05-03T12:47:26.999Z</time></trkpt><trkpt lat="44.505448406858925" lon="9.238840932878382"><ele>999.0</ele><time>2026-05-03T12:47:27.999Z</time></trkpt><trkpt lat="44.50533686341558" lon="9.238977686586955"><ele>999.0</ele><time>2026-05-03T12:47:28.999Z</time></trkpt><trkpt lat="44.50520573028138" lon="9.23911461564367"><ele>999.3333333333333</ele><time>2026-05-03T12:47:29.999Z</time></trkpt><trkpt lat="44.5050551969305" lon="9.23925037801361"><ele>999.6666666666666</ele><time>2026-05-03T12:47:30.999Z</time></trkpt><trkpt lat="44.504900090940055" lon="9.239405688611221"><ele>1000.0</ele><time>2026-05-03T12:47:31.999Z</time></trkpt><trkpt lat="44.504770022915615" lon="9.239589454842003"><ele>1000.0</ele><time>2026-05-03T12:47:32.999Z</time></trkpt><trkpt lat="44.504649486898586" lon="9.239746654231205"><ele>1000.0</ele><time>2026-05-03T12:47:33.999Z</time></trkpt><trkpt lat="44.50450968310615" lon="9.239832012773693"><ele>1000.0</ele><time>2026-05-03T12:47:34.999Z</time></trkpt><trkpt lat="44.5043376741308" lon="9.239893688286063"><ele>1003.6666666666666</ele><time>2026-05-03T12:47:35.999Z</time></trkpt><trkpt lat="44.50416115180505" lon="9.239970515928752"><ele>1007.3333333333333</ele><time>2026-05-03T12:47:36.999Z</time></trkpt><trkpt lat="44.50397161504784" lon="9.240056802010772"><ele>1011.0</ele><time>2026-05-03T12:47:37.999Z</time></trkpt><trkpt lat="44.50379867245883" lon="9.240097059820226"><ele>1012.6666666666667</ele><time>2026-05-03T12:47:38.999Z</time></trkpt><trkpt lat="44.503635762706615" lon="9.240070748618734"><ele>1014.3333333333334</ele><time>2026-05-03T12:47:39.999Z</time></trkpt><trkpt lat="44.503445694909225" lon="9.240042757502074"><ele>1016.0</ele><time>2026-05-03T12:47:40.999Z</time></trkpt><trkpt lat="44.50329193268388" lon="9.239998309194645"><ele>1016.0</ele><time>2026-05-03T12:47:41.999Z</time></trkpt><trkpt lat="44.50316669583184" lon="9.239918128120001"><ele>1016.0</ele><time>2026-05-03T12:47:42.999Z</time></trkpt><trkpt lat="44.50307640751881" lon="9.239787964083238"><ele>1016.0</ele><time>2026-05-03T12:47:43.999Z</time></trkpt><trkpt lat="44.502969862703566" lon="9.239728326545515"><ele>1016.0</ele><time>2026-05-03T12:47:44.999Z</time></trkpt><trkpt lat="44.50286511519732" lon="9.23969610194266"><ele>1017.5</ele><time>2026-05-03T12:47:45.999Z</time></trkpt><trkpt lat="44.50276875346331" lon="9.239738094232878"><ele>1019.0</ele><time>2026-05-03T12:47:46.999Z</time></trkpt><trkpt lat="44.502663981976475" lon="9.23986266873562"><ele>1020.5</ele><time>2026-05-03T12:47:47.999Z</time></trkpt><trkpt lat="44.502547089694424" lon="9.23995587035596"><ele>1022.0</ele><time>2026-05-03T12:47:48.999Z</time></trkpt><trkpt lat="44.502418253208006" lon="9.240006070092928"><ele>1022.0</ele><time>2026-05-03T12:47:49.999Z</time></trkpt><trkpt lat="44.50227217612045" lon="9.240049547610772"><ele>1022.0</ele><time>2026-05-03T12:47:50.999Z</time></trkpt><trkpt lat="44.50213177486202" lon="9.240064655325593"><ele>1022.0</ele><time>2026-05-03T12:47:51.999Z</time></trkpt><trkpt lat="44.50197150071762" lon="9.240014715222376"><ele>1020.0</ele><time>2026-05-03T12:47:52.999Z</time></trkpt><trkpt lat="44.50181384119972" lon="9.239940151869929"><ele>1018.0</ele><time>2026-05-03T12:47:53.999Z</time></trkpt><trkpt lat="44.50169438449654" lon="9.239909009676577"><ele>1016.0</ele><time>2026-05-03T12:47:54.999Z</time></trkpt><trkpt lat="44.501600698957766" lon="9.239920283034499"><ele>1014.0</ele><time>2026-05-03T12:47:55.999Z</time></trkpt><trkpt lat="44.5015306016951" lon="9.239978373037165"><ele>1014.0</ele><time>2026-05-03T12:47:56.999Z</time></trkpt><trkpt lat="44.5015145554815" lon="9.240170647513375"><ele>1014.0</ele><time>2026-05-03T12:47:57.999Z</time></trkpt><trkpt lat="44.5015017187817" lon="9.240354328682066"><ele>1014.0</ele><time>2026-05-03T12:47:58.999Z</time></trkpt><trkpt lat="44.5014563763512" lon="9.240536873348885"><ele>1014.0</ele><time>2026-05-03T12:47:59.999Z</time></trkpt><trkpt lat="44.50139272514832" lon="9.240714657201666"><ele>1011.3333333333333</ele><time>2026-05-03T12:48:00.999Z</time></trkpt><trkpt lat="44.50129660819736" lon="9.240872656239612"><ele>1008.6666666666666</ele><time>2026-05-03T12:48:01.999Z</time></trkpt><trkpt lat="44.501172811376456" lon="9.241026650253328"><ele>1006.0</ele><time>2026-05-03T12:48:02.999Z</time></trkpt><trkpt lat="44.501028485327126" lon="9.241203742432466"><ele>1006.0</ele><time>2026-05-03T12:48:03.999Z</time></trkpt><trkpt lat="44.50088516245144" lon="9.241377133608443"><ele>1006.0</ele><time>2026-05-03T12:48:04.999Z</time></trkpt><trkpt lat="44.50073613704843" lon="9.241544953845574"><ele>1006.0</ele><time>2026-05-03T12:48:05.999Z</time></trkpt><trkpt lat="44.50056452686778" lon="9.2416817942638"><ele>1012.6666666666666</ele><time>2026-05-03T12:48:06.999Z</time></trkpt><trkpt lat="44.50036974613266" lon="9.24176096711248"><ele>1019.3333333333333</ele><time>2026-05-03T12:48:07.999Z</time></trkpt><trkpt lat="44.500154056712965" lon="9.241811490300876"><ele>1026.0</ele><time>2026-05-03T12:48:08.999Z</time></trkpt><trkpt lat="44.49995873469262" lon="9.241850847175312"><ele>1026.0</ele><time>2026-05-03T12:48:09.999Z</time></trkpt><trkpt lat="44.49979377085042" lon="9.24185701727808"><ele>1026.0</ele><time>2026-05-03T12:48:10.999Z</time></trkpt><trkpt lat="44.49964680280382" lon="9.241856580805411"><ele>1026.0</ele><time>2026-05-03T12:48:11.999Z</time></trkpt><trkpt lat="44.499526840367864" lon="9.241901343112442"><ele>1026.0</ele><time>2026-05-03T12:48:12.999Z</time></trkpt><trkpt lat="44.49941112841716" lon="9.242005549743013"><ele>1023.0</ele><time>2026-05-03T12:48:13.999Z</time></trkpt><trkpt lat="44.499299138478236" lon="9.242172614818038"><ele>1020.0</ele><time>2026-05-03T12:48:14.999Z</time></trkpt><trkpt lat="44.499204438294775" lon="9.242360078352963"><ele>1017.0</ele><time>2026-05-03T12:48:15.999Z</time></trkpt><trkpt lat="44.49909746964164" lon="9.242507441468371"><ele>1023.0</ele><time>2026-05-03T12:48:16.999Z</time></trkpt><trkpt lat="44.498947954207985" lon="9.242584207915073"><ele>1029.0</ele><time>2026-05-03T12:48:17.999Z</time></trkpt><trkpt lat="44.49883259746008" lon="9.24273696251769"><ele>1035.0</ele><time>2026-05-03T12:48:18.999Z</time></trkpt><trkpt lat="44.49869784180795" lon="9.242855318370623"><ele>1035.0</ele><time>2026-05-03T12:48:19.998Z</time></trkpt><trkpt lat="44.498542971210206" lon="9.242936414238919"><ele>1035.0</ele><time>2026-05-03T12:48:20.998Z</time></trkpt><trkpt lat="44.498385050406824" lon="9.242964932086366"><ele>1035.0</ele><time>2026-05-03T12:48:21.998Z</time></trkpt><trkpt lat="44.49823708088111" lon="9.242947033617567"><ele>1035.0</ele><time>2026-05-03T12:48:22.998Z</time></trkpt><trkpt lat="44.49811747059944" lon="9.242941690491843"><ele>1035.0</ele><time>2026-05-03T12:48:23.998Z</time></trkpt><trkpt lat="44.498029942632066" lon="9.242947393516422"><ele>1035.0</ele><time>2026-05-03T12:48:24.998Z</time></trkpt><trkpt lat="44.49796013379141" lon="9.243031589916507"><ele>1035.0</ele><time>2026-05-03T12:48:25.998Z</time></trkpt><trkpt lat="44.4978910282661" lon="9.243182102749422"><ele>1035.0</ele><time>2026-05-03T12:48:26.998Z</time></trkpt><trkpt lat="44.497792198819724" lon="9.243298699338606"><ele>1041.0</ele><time>2026-05-03T12:48:27.998Z</time></trkpt><trkpt lat="44.497676139082465" lon="9.24340287014402"><ele>1047.0</ele><time>2026-05-03T12:48:28.998Z</time></trkpt><trkpt lat="44.49754081816077" lon="9.243460138701701"><ele>1053.0</ele><time>2026-05-03T12:48:29.998Z</time></trkpt><trkpt lat="44.49740043210289" lon="9.243511676426316"><ele>1059.0</ele><time>2026-05-03T12:48:30.998Z</time></trkpt><trkpt lat="44.49729867224432" lon="9.243587195630763"><ele>1059.0</ele><time>2026-05-03T12:48:31.998Z</time></trkpt><trkpt lat="44.497220278860055" lon="9.243707933336266"><ele>1059.0</ele><time>2026-05-03T12:48:32.998Z</time></trkpt><trkpt lat="44.49711474943414" lon="9.243828361259862"><ele>1059.0</ele><time>2026-05-03T12:48:33.998Z</time></trkpt><trkpt lat="44.49699331720689" lon="9.243950958688886"><ele>1059.0</ele><time>2026-05-03T12:48:34.999Z</time></trkpt><trkpt lat="44.49686267441538" lon="9.244064489132837"><ele>1064.6666666666667</ele><time>2026-05-03T12:48:35.999Z</time></trkpt><trkpt lat="44.49671941213439" lon="9.244166421072809"><ele>1070.3333333333335</ele><time>2026-05-03T12:48:36.999Z</time></trkpt><trkpt lat="44.49656043254957" lon="9.2442484779685"><ele>1076.0</ele><time>2026-05-03T12:48:37.999Z</time></trkpt><trkpt lat="44.4963976743851" lon="9.24430578530327"><ele>1076.0</ele><time>2026-05-03T12:48:38.999Z</time></trkpt><trkpt lat="44.49627827043185" lon="9.244429903625388"><ele>1076.0</ele><time>2026-05-03T12:48:39.999Z</time></trkpt><trkpt lat="44.496159174522454" lon="9.244602327475661"><ele>1076.0</ele><time>2026-05-03T12:48:40.999Z</time></trkpt><trkpt lat="44.496041165719525" lon="9.244763885924028"><ele>1078.0</ele><time>2026-05-03T12:48:41.999Z</time></trkpt><trkpt lat="44.49593663492063" lon="9.244884898752257"><ele>1080.0</ele><time>2026-05-03T12:48:42.999Z</time></trkpt><trkpt lat="44.49580329949721" lon="9.244954143116747"><ele>1082.0</ele><time>2026-05-03T12:48:43.999Z</time></trkpt><trkpt lat="44.4956735516535" lon="9.245048155548094"><ele>1084.0</ele><time>2026-05-03T12:48:44.999Z</time></trkpt><trkpt lat="44.495545619316516" lon="9.245075780688273"><ele>1088.6666666666665</ele><time>2026-05-03T12:48:45.999Z</time></trkpt><trkpt lat="44.495395615938016" lon="9.24510869124505"><ele>1093.3333333333333</ele><time>2026-05-03T12:48:46.999Z</time></trkpt><trkpt lat="44.49523691734594" lon="9.24514235529309"><ele>1098.0</ele><time>2026-05-03T12:48:47.999Z</time></trkpt><trkpt lat="44.495060947921175" lon="9.24516796656185"><ele>1098.0</ele><time>2026-05-03T12:48:48.999Z</time></trkpt><trkpt lat="44.49488184797972" lon="9.245192237151787"><ele>1098.0</ele><time>2026-05-03T12:48:49.999Z</time></trkpt><trkpt lat="44.49472913693817" lon="9.245213193678588"><ele>1098.0</ele><time>2026-05-03T12:48:50.999Z</time></trkpt><trkpt lat="44.494621446537096" lon="9.245222042555703"><ele>1098.0</ele><time>2026-05-03T12:48:51.999Z</time></trkpt><trkpt lat="44.49454104849809" lon="9.245216961905946"><ele>1097.0</ele><time>2026-05-03T12:48:52.999Z</time></trkpt><trkpt lat="44.494476378509454" lon="9.245190070596246"><ele>1096.0</ele><time>2026-05-03T12:48:53.999Z</time></trkpt><trkpt lat="44.494399617589195" lon="9.24514947024783"><ele>1095.0</ele><time>2026-05-03T12:48:54.999Z</time></trkpt><trkpt lat="44.49431307113641" lon="9.24517665881185"><ele>1094.0</ele><time>2026-05-03T12:48:55.999Z</time></trkpt><trkpt lat="44.494212300265694" lon="9.24520948106861"><ele>1093.0</ele><time>2026-05-03T12:48:56.999Z</time></trkpt><trkpt lat="44.49409901434072" lon="9.245246284150008"><ele>1093.0</ele><time>2026-05-03T12:48:57.999Z</time></trkpt><trkpt lat="44.493996250829305" lon="9.245287902029444"><ele>1093.0</ele><time>2026-05-03T12:48:58.999Z</time></trkpt><trkpt lat="44.49387693961682" lon="9.245326309640769"><ele>1093.0</ele><time>2026-05-03T12:48:59.999Z</time></trkpt><trkpt lat="44.4937488353476" lon="9.245380986181573"><ele>1093.0</ele><time>2026-05-03T12:49:00.999Z</time></trkpt><trkpt lat="44.4936167992132" lon="9.24544222263589"><ele>1092.6</ele><time>2026-05-03T12:49:01.999Z</time></trkpt><trkpt lat="44.49348983720768" lon="9.245495956975825"><ele>1092.1999999999998</ele><time>2026-05-03T12:49:02.999Z</time></trkpt><trkpt lat="44.49338297653681" lon="9.245502344487283"><ele>1091.8</ele><time>2026-05-03T12:49:03.999Z</time></trkpt><trkpt lat="44.493293046062355" lon="9.24544438518461"><ele>1091.3999999999999</ele><time>2026-05-03T12:49:04.999Z</time></trkpt><trkpt lat="44.493206936937156" lon="9.24534702365416"><ele>1091.0</ele><time>2026-05-03T12:49:05.999Z</time></trkpt><trkpt lat="44.49311753554988" lon="9.24529228280473"><ele>1091.0</ele><time>2026-05-03T12:49:06.999Z</time></trkpt><trkpt lat="44.493014338808756" lon="9.24527545736358"><ele>1091.0</ele><time>2026-05-03T12:49:07.999Z</time></trkpt><trkpt lat="44.4928952921821" lon="9.245314022842077"><ele>1091.0</ele><time>2026-05-03T12:49:08.999Z</time></trkpt><trkpt lat="44.49277244891476" lon="9.245416170164486"><ele>1091.0</ele><time>2026-05-03T12:49:09.999Z</time></trkpt><trkpt lat="44.49264792593957" lon="9.245560405701717"><ele>1096.6666666666667</ele><time>2026-05-03T12:49:10.999Z</time></trkpt><trkpt lat="44.49251198179797" lon="9.245705353000671"><ele>1102.3333333333333</ele><time>2026-05-03T12:49:11.999Z</time></trkpt><trkpt lat="44.49236268162837" lon="9.245836838464554"><ele>1108.0</ele><time>2026-05-03T12:49:12.999Z</time></trkpt><trkpt lat="44.49220655799789" lon="9.245977076109368"><ele>1102.0</ele><time>2026-05-03T12:49:13.999Z</time></trkpt><trkpt lat="44.49204616820534" lon="9.246118766415194"><ele>1096.0</ele><time>2026-05-03T12:49:14.999Z</time></trkpt><trkpt lat="44.49189789799613" lon="9.246252828232068"><ele>1090.0</ele><time>2026-05-03T12:49:15.999Z</time></trkpt><trkpt lat="44.491754904671545" lon="9.246373026978167"><ele>1090.0</ele><time>2026-05-03T12:49:16.999Z</time></trkpt><trkpt lat="44.49162170954482" lon="9.24644651857751"><ele>1090.0</ele><time>2026-05-03T12:49:17.999Z</time></trkpt><trkpt lat="44.49147574627462" lon="9.246509297747"><ele>1090.0</ele><time>2026-05-03T12:49:18.999Z</time></trkpt><trkpt lat="44.491326908271006" lon="9.246508249037234"><ele>1090.0</ele><time>2026-05-03T12:49:19.999Z</time></trkpt><trkpt lat="44.49119294422699" lon="9.2464636010693"><ele>1094.25</ele><time>2026-05-03T12:49:20.999Z</time></trkpt><trkpt lat="44.49108116820453" lon="9.246364394970731"><ele>1098.5</ele><time>2026-05-03T12:49:21.999Z</time></trkpt><trkpt lat="44.490979629860995" lon="9.246303854729465"><ele>1102.75</ele><time>2026-05-03T12:49:22.999Z</time></trkpt><trkpt lat="44.49087583248098" lon="9.246242987034902"><ele>1107.0</ele><time>2026-05-03T12:49:23.999Z</time></trkpt><trkpt lat="44.49082236202628" lon="9.246117126613665"><ele>1107.0</ele><time>2026-05-03T12:49:24.999Z</time></trkpt><trkpt lat="44.49074747980056" lon="9.245952647114398"><ele>1107.0</ele><time>2026-05-03T12:49:25.999Z</time></trkpt><trkpt lat="44.49064076521311" lon="9.245829574420744"><ele>1107.0</ele><time>2026-05-03T12:49:26.999Z</time></trkpt><trkpt lat="44.49058919442947" lon="9.24566938515951"><ele>1107.0</ele><time>2026-05-03T12:49:27.999Z</time></trkpt><trkpt lat="44.490521856630814" lon="9.245531368238431"><ele>1107.75</ele><time>2026-05-03T12:49:28.999Z</time></trkpt><trkpt lat="44.490438988236406" lon="9.245406989486815"><ele>1108.5</ele><time>2026-05-03T12:49:29.999Z</time></trkpt><trkpt lat="44.490301338457094" lon="9.24532071427593"><ele>1109.25</ele><time>2026-05-03T12:49:30.999Z</time></trkpt><trkpt lat="44.49016450612663" lon="9.245217985874929"><ele>1110.0</ele><time>2026-05-03T12:49:31.999Z</time></trkpt><trkpt lat="44.49002939349381" lon="9.24510482541279"><ele>1110.0</ele><time>2026-05-03T12:49:32.999Z</time></trkpt><trkpt lat="44.48993894141151" lon="9.244899817664793"><ele>1110.0</ele><time>2026-05-03T12:49:33.999Z</time></trkpt><trkpt lat="44.489828683766326" lon="9.244703469304064"><ele>1110.0</ele><time>2026-05-03T12:49:34.999Z</time></trkpt><trkpt lat="44.48974965504537" lon="9.244470931092017"><ele>1104.6666666666667</ele><time>2026-05-03T12:49:35.999Z</time></trkpt><trkpt lat="44.48969867255634" lon="9.244197865866212"><ele>1099.3333333333335</ele><time>2026-05-03T12:49:36.999Z</time></trkpt><trkpt lat="44.48961094144055" lon="9.24398712613938"><ele>1094.0</ele><time>2026-05-03T12:49:37.999Z</time></trkpt><trkpt lat="44.48953237988574" lon="9.243790534697455"><ele>1103.3333333333335</ele><time>2026-05-03T12:49:38.999Z</time></trkpt><trkpt lat="44.48947174249667" lon="9.243554782234355"><ele>1112.6666666666667</ele><time>2026-05-03T12:49:39.999Z</time></trkpt><trkpt lat="44.489448427078564" lon="9.243322085551398"><ele>1122.0</ele><time>2026-05-03T12:49:40.999Z</time></trkpt><trkpt lat="44.48941790895907" lon="9.243071834175549"><ele>1122.0</ele><time>2026-05-03T12:49:41.999Z</time></trkpt><trkpt lat="44.48936144662947" lon="9.24283408406572"><ele>1122.0</ele><time>2026-05-03T12:49:42.999Z</time></trkpt><trkpt lat="44.48932804612711" lon="9.242607508425822"><ele>1122.0</ele><time>2026-05-03T12:49:43.999Z</time></trkpt><trkpt lat="44.48929839517986" lon="9.242388623584342"><ele>1117.8</ele><time>2026-05-03T12:49:44.999Z</time></trkpt><trkpt lat="44.48926149218812" lon="9.242186421963165"><ele>1113.6</ele><time>2026-05-03T12:49:45.999Z</time></trkpt><trkpt lat="44.489225488259066" lon="9.24202078109243"><ele>1109.3999999999999</ele><time>2026-05-03T12:49:46.999Z</time></trkpt><trkpt lat="44.48918034100016" lon="9.241900734409832"><ele>1105.2</ele><time>2026-05-03T12:49:47.999Z</time></trkpt><trkpt lat="44.489108318795125" lon="9.241862286594255"><ele>1101.0</ele><time>2026-05-03T12:49:48.999Z</time></trkpt><trkpt lat="44.4889968703602" lon="9.241903675112146"><ele>1101.0</ele><time>2026-05-03T12:49:49.999Z</time></trkpt><trkpt lat="44.48888867649752" lon="9.241931461027558"><ele>1101.0</ele><time>2026-05-03T12:49:50.999Z</time></trkpt><trkpt lat="44.48880904265579" lon="9.24190540474264"><ele>1101.0</ele><time>2026-05-03T12:49:51.999Z</time></trkpt><trkpt lat="44.48875562161156" lon="9.241769222768013"><ele>1101.0</ele><time>2026-05-03T12:49:52.999Z</time></trkpt><trkpt lat="44.488644859818486" lon="9.241666618582256"><ele>1101.0</ele><time>2026-05-03T12:49:53.999Z</time></trkpt><trkpt lat="44.48853389803647" lon="9.241584685594367"><ele>1101.25</ele><time>2026-05-03T12:49:54.999Z</time></trkpt><trkpt lat="44.48845857660254" lon="9.241421190739144"><ele>1101.5</ele><time>2026-05-03T12:49:55.999Z</time></trkpt><trkpt lat="44.48841571124901" lon="9.241220293063384"><ele>1101.75</ele><time>2026-05-03T12:49:56.999Z</time></trkpt><trkpt lat="44.48840665702981" lon="9.24104624381438"><ele>1102.0</ele><time>2026-05-03T12:49:57.999Z</time></trkpt><trkpt lat="44.488377444317095" lon="9.240960839143634"><ele>1102.0</ele><time>2026-05-03T12:49:58.999Z</time></trkpt><trkpt lat="44.48833025884044" lon="9.240866443296595"><ele>1102.0</ele><time>2026-05-03T12:49:59.999Z</time></trkpt><trkpt lat="44.488229702250294" lon="9.240765974665734"><ele>1102.0</ele><time>2026-05-03T12:50:00.999Z</time></trkpt><trkpt lat="44.48810171158922" lon="9.24062845100477"><ele>1102.0</ele><time>2026-05-03T12:50:01.999Z</time></trkpt><trkpt lat="44.487979333930504" lon="9.240492934946715"><ele>1100.75</ele><time>2026-05-03T12:50:02.999Z</time></trkpt><trkpt lat="44.487840859943" lon="9.240355864967137"><ele>1099.5</ele><time>2026-05-03T12:50:03.999Z</time></trkpt><trkpt lat="44.487739858841664" lon="9.24026112949974"><ele>1098.25</ele><time>2026-05-03T12:50:04.999Z</time></trkpt><trkpt lat="44.48765026889087" lon="9.24020570865285"><ele>1097.0</ele><time>2026-05-03T12:50:05.999Z</time></trkpt><trkpt lat="44.48756060256707" lon="9.240204362245223"><ele>1097.0</ele><time>2026-05-03T12:50:06.999Z</time></trkpt><trkpt lat="44.48750983756732" lon="9.240309263632701"><ele>1097.0</ele><time>2026-05-03T12:50:07.999Z</time></trkpt><trkpt lat="44.487428237121364" lon="9.240461915728174"><ele>1097.0</ele><time>2026-05-03T12:50:08.999Z</time></trkpt><trkpt lat="44.487312174030734" lon="9.240553978673903"><ele>1097.0</ele><time>2026-05-03T12:50:09.999Z</time></trkpt><trkpt lat="44.48723870790016" lon="9.240570949730401"><ele>1097.0</ele><time>2026-05-03T12:50:10.999Z</time></trkpt><trkpt lat="44.48713983334765" lon="9.240609366502845"><ele>1097.4</ele><time>2026-05-03T12:50:11.999Z</time></trkpt><trkpt lat="44.487042833728864" lon="9.240685787535059"><ele>1097.8000000000002</ele><time>2026-05-03T12:50:12.999Z</time></trkpt><trkpt lat="44.48699946990748" lon="9.240800785073025"><ele>1098.2</ele><time>2026-05-03T12:50:13.999Z</time></trkpt><trkpt lat="44.48696279699723" lon="9.24094360078229"><ele>1098.6000000000001</ele><time>2026-05-03T12:50:14.999Z</time></trkpt><trkpt lat="44.48686195165159" lon="9.240942223579298"><ele>1099.0</ele><time>2026-05-03T12:50:15.999Z</time></trkpt><trkpt lat="44.486754244598025" lon="9.240978044026104"><ele>1099.0</ele><time>2026-05-03T12:50:16.999Z</time></trkpt><trkpt lat="44.48666394983985" lon="9.241028573164447"><ele>1099.0</ele><time>2026-05-03T12:50:17.999Z</time></trkpt><trkpt lat="44.486595085773104" lon="9.241119106139589"><ele>1099.0</ele><time>2026-05-03T12:50:18.999Z</time></trkpt><trkpt lat="44.48657654167245" lon="9.241236450389456"><ele>1099.0</ele><time>2026-05-03T12:50:19.999Z</time></trkpt><trkpt lat="44.4865612197607" lon="9.241419037716827"><ele>1099.0</ele><time>2026-05-03T12:50:20.999Z</time></trkpt><trkpt lat="44.48653219453748" lon="9.241596767619955"><ele>1098.1666666666665</ele><time>2026-05-03T12:50:21.999Z</time></trkpt><trkpt lat="44.486460943305524" lon="9.241705208752924"><ele>1097.3333333333333</ele><time>2026-05-03T12:50:22.999Z</time></trkpt><trkpt lat="44.48637909387469" lon="9.241717537822858"><ele>1096.5</ele><time>2026-05-03T12:50:23.999Z</time></trkpt><trkpt lat="44.4863039456886" lon="9.2417071007765"><ele>1095.6666666666667</ele><time>2026-05-03T12:50:24.999Z</time></trkpt><trkpt lat="44.48622438946919" lon="9.241752582196277"><ele>1094.8333333333335</ele><time>2026-05-03T12:50:25.999Z</time></trkpt><trkpt lat="44.486152542823916" lon="9.241850900865554"><ele>1094.0</ele><time>2026-05-03T12:50:26.999Z</time></trkpt><trkpt lat="44.48612870560872" lon="9.242015822807055"><ele>1094.0</ele><time>2026-05-03T12:50:27.999Z</time></trkpt><trkpt lat="44.48614292084779" lon="9.242188593650393"><ele>1094.0</ele><time>2026-05-03T12:50:28.999Z</time></trkpt><trkpt lat="44.48614344988557" lon="9.242343018322996"><ele>1094.0</ele><time>2026-05-03T12:50:29.999Z</time></trkpt><trkpt lat="44.48607276937079" lon="9.24247166972881"><ele>1094.0</ele><time>2026-05-03T12:50:30.999Z</time></trkpt><trkpt lat="44.485974365975345" lon="9.242521494956174"><ele>1102.0</ele><time>2026-05-03T12:50:31.999Z</time></trkpt><trkpt lat="44.485889887566984" lon="9.242578320463913"><ele>1110.0</ele><time>2026-05-03T12:50:32.999Z</time></trkpt><trkpt lat="44.48574258931274" lon="9.242622383834174"><ele>1118.0</ele><time>2026-05-03T12:50:33.999Z</time></trkpt><trkpt lat="44.485586134945635" lon="9.242681311543619"><ele>1126.0</ele><time>2026-05-03T12:50:34.999Z</time></trkpt><trkpt lat="44.485466627994114" lon="9.242721129670233"><ele>1127.5</ele><time>2026-05-03T12:50:35.999Z</time></trkpt><trkpt lat="44.4854173129741" lon="9.242827164593178"><ele>1129.0</ele><time>2026-05-03T12:50:36.999Z</time></trkpt><trkpt lat="44.485366792859004" lon="9.24299530823138"><ele>1130.5</ele><time>2026-05-03T12:50:37.999Z</time></trkpt><trkpt lat="44.485289663973525" lon="9.243129752707285"><ele>1132.0</ele><time>2026-05-03T12:50:38.999Z</time></trkpt><trkpt lat="44.485155320209" lon="9.243175864541357"><ele>1132.0</ele><time>2026-05-03T12:50:39.999Z</time></trkpt><trkpt lat="44.485002141047005" lon="9.24319771856324"><ele>1132.0</ele><time>2026-05-03T12:50:40.999Z</time></trkpt><trkpt lat="44.48484267000885" lon="9.243166757327332"><ele>1132.0</ele><time>2026-05-03T12:50:41.999Z</time></trkpt><trkpt lat="44.48469494935482" lon="9.243105681977305"><ele>1123.75</ele><time>2026-05-03T12:50:42.999Z</time></trkpt><trkpt lat="44.48458866901512" lon="9.24299923056861"><ele>1115.5</ele><time>2026-05-03T12:50:43.999Z</time></trkpt><trkpt lat="44.484460560858565" lon="9.242895868965235"><ele>1107.25</ele><time>2026-05-03T12:50:44.999Z</time></trkpt><trkpt lat="44.48433722006838" lon="9.24284958190123"><ele>1099.0</ele><time>2026-05-03T12:50:45.999Z</time></trkpt><trkpt lat="44.48420955828982" lon="9.24280426981934"><ele>1099.0</ele><time>2026-05-03T12:50:46.999Z</time></trkpt><trkpt lat="44.484080884509396" lon="9.242800714239285"><ele>1099.0</ele><time>2026-05-03T12:50:48Z</time></trkpt><trkpt lat="44.48396222437187" lon="9.242857044597287"><ele>1099.0</ele><time>2026-05-03T12:50:49Z</time></trkpt><trkpt lat="44.483851728802385" lon="9.242967409123903"><ele>1099.0</ele><time>2026-05-03T12:50:50Z</time></trkpt><trkpt lat="44.48376550487" lon="9.243120661732352"><ele>1099.6000000000001</ele><time>2026-05-03T12:50:51Z</time></trkpt><trkpt lat="44.4836902481623" lon="9.243249094485849"><ele>1100.2</ele><time>2026-05-03T12:50:52Z</time></trkpt><trkpt lat="44.48360196120094" lon="9.243287914405387"><ele>1100.8000000000002</ele><time>2026-05-03T12:50:53Z</time></trkpt><trkpt lat="44.4835507035022" lon="9.24319938525301"><ele>1101.4</ele><time>2026-05-03T12:50:54Z</time></trkpt><trkpt lat="44.483453635614595" lon="9.243122914668886"><ele>1102.0</ele><time>2026-05-03T12:50:55Z</time></trkpt><trkpt lat="44.483313937373794" lon="9.243040359988859"><ele>1102.0</ele><time>2026-05-03T12:50:56Z</time></trkpt><trkpt lat="44.483158920948526" lon="9.242956610110962"><ele>1102.0</ele><time>2026-05-03T12:50:57Z</time></trkpt><trkpt lat="44.48298793605457" lon="9.242921900976611"><ele>1102.0</ele><time>2026-05-03T12:50:58Z</time></trkpt><trkpt lat="44.48281356250582" lon="9.242866326467137"><ele>1106.3333333333333</ele><time>2026-05-03T12:50:59Z</time></trkpt><trkpt lat="44.482646595266694" lon="9.242747508485188"><ele>1110.6666666666667</ele><time>2026-05-03T12:51:00Z</time></trkpt><trkpt lat="44.48247427354026" lon="9.242650737590779"><ele>1115.0</ele><time>2026-05-03T12:51:01Z</time></trkpt><trkpt lat="44.482286118773395" lon="9.242585148878177"><ele>1115.0</ele><time>2026-05-03T12:51:02Z</time></trkpt><trkpt lat="44.48209939747474" lon="9.242535468456772"><ele>1115.0</ele><time>2026-05-03T12:51:03Z</time></trkpt><trkpt lat="44.48191934567298" lon="9.242457983411358"><ele>1115.0</ele><time>2026-05-03T12:51:04Z</time></trkpt><trkpt lat="44.48177094318028" lon="9.24241234475054"><ele>1115.0</ele><time>2026-05-03T12:51:05Z</time></trkpt><trkpt lat="44.481633396404675" lon="9.242394363357018"><ele>1115.0</ele><time>2026-05-03T12:51:06Z</time></trkpt><trkpt lat="44.48150827632528" lon="9.24232484338855"><ele>1115.0</ele><time>2026-05-03T12:51:07Z</time></trkpt><trkpt lat="44.481364340076695" lon="9.242240306067396"><ele>1115.0</ele><time>2026-05-03T12:51:08Z</time></trkpt><trkpt lat="44.48122025965324" lon="9.242145038127171"><ele>1115.0</ele><time>2026-05-03T12:51:09Z</time></trkpt><trkpt lat="44.48109754321543" lon="9.242033021492523"><ele>1115.0</ele><time>2026-05-03T12:51:10Z</time></trkpt><trkpt lat="44.481008979332344" lon="9.241855388805694"><ele>1115.0</ele><time>2026-05-03T12:51:11Z</time></trkpt><trkpt lat="44.48091161757185" lon="9.24165514683933"><ele>1111.6666666666667</ele><time>2026-05-03T12:51:12Z</time></trkpt><trkpt lat="44.480809510457725" lon="9.24143426010768"><ele>1108.3333333333333</ele><time>2026-05-03T12:51:13Z</time></trkpt><trkpt lat="44.480702106704896" lon="9.241205445385212"><ele>1105.0</ele><time>2026-05-03T12:51:14Z</time></trkpt><trkpt lat="44.48060167798609" lon="9.240962384706107"><ele>1105.0</ele><time>2026-05-03T12:51:15Z</time></trkpt><trkpt lat="44.48052609372531" lon="9.240716650166444"><ele>1105.0</ele><time>2026-05-03T12:51:16Z</time></trkpt><trkpt lat="44.480429862257985" lon="9.240496750745367"><ele>1105.0</ele><time>2026-05-03T12:51:17Z</time></trkpt><trkpt lat="44.4803369039666" lon="9.240283063577959"><ele>1104.0</ele><time>2026-05-03T12:51:18Z</time></trkpt><trkpt lat="44.480216282128325" lon="9.24008605350356"><ele>1103.0</ele><time>2026-05-03T12:51:19Z</time></trkpt><trkpt lat="44.480108580740655" lon="9.239897965995583"><ele>1102.0</ele><time>2026-05-03T12:51:20Z</time></trkpt><trkpt lat="44.48003219790062" lon="9.239711507406607"><ele>1104.3333333333333</ele><time>2026-05-03T12:51:21Z</time></trkpt><trkpt lat="44.479987003056216" lon="9.239538917751906"><ele>1106.6666666666667</ele><time>2026-05-03T12:51:22Z</time></trkpt><trkpt lat="44.47994298827257" lon="9.239318091673562"><ele>1109.0</ele><time>2026-05-03T12:51:23Z</time></trkpt><trkpt lat="44.47985866608751" lon="9.239086128521405"><ele>1108.3333333333335</ele><time>2026-05-03T12:51:24Z</time></trkpt><trkpt lat="44.47977887737389" lon="9.238841124554233"><ele>1107.6666666666667</ele><time>2026-05-03T12:51:25Z</time></trkpt><trkpt lat="44.47968749724053" lon="9.238585112730298"><ele>1107.0</ele><time>2026-05-03T12:51:26Z</time></trkpt><trkpt lat="44.479602230084325" lon="9.23834092089736"><ele>1110.0</ele><time>2026-05-03T12:51:27Z</time></trkpt><trkpt lat="44.47950569762865" lon="9.238133682713645"><ele>1113.0</ele><time>2026-05-03T12:51:28Z</time></trkpt><trkpt lat="44.47937687400396" lon="9.237972440297744"><ele>1116.0</ele><time>2026-05-03T12:51:29Z</time></trkpt><trkpt lat="44.479224713611195" lon="9.237840983458714"><ele>1116.0</ele><time>2026-05-03T12:51:30Z</time></trkpt><trkpt lat="44.47906224158234" lon="9.237729046496957"><ele>1116.0</ele><time>2026-05-03T12:51:31Z</time></trkpt><trkpt lat="44.47893499218965" lon="9.237590231086095"><ele>1116.0</ele><time>2026-05-03T12:51:32Z</time></trkpt><trkpt lat="44.478834453606005" lon="9.23744784148807"><ele>1113.6666666666667</ele><time>2026-05-03T12:51:33Z</time></trkpt><trkpt lat="44.47874593620023" lon="9.237273034755454"><ele>1111.3333333333335</ele><time>2026-05-03T12:51:34Z</time></trkpt><trkpt lat="44.47862710155033" lon="9.23710509449085"><ele>1109.0</ele><time>2026-05-03T12:51:35Z</time></trkpt><trkpt lat="44.478523158277845" lon="9.23693480105423"><ele>1109.0</ele><time>2026-05-03T12:51:36Z</time></trkpt><trkpt lat="44.47841440562218" lon="9.236818793141829"><ele>1109.0</ele><time>2026-05-03T12:51:37Z</time></trkpt><trkpt lat="44.47834191725915" lon="9.236780449874217"><ele>1109.0</ele><time>2026-05-03T12:51:38Z</time></trkpt><trkpt lat="44.478257481304595" lon="9.236768321751628"><ele>1109.0</ele><time>2026-05-03T12:51:39Z</time></trkpt><trkpt lat="44.47814943279489" lon="9.236801163974935"><ele>1109.0</ele><time>2026-05-03T12:51:40Z</time></trkpt><trkpt lat="44.478025775435526" lon="9.236864999110896"><ele>1112.6666666666667</ele><time>2026-05-03T12:51:41Z</time></trkpt><trkpt lat="44.47787980309616" lon="9.236869484227222"><ele>1116.3333333333333</ele><time>2026-05-03T12:51:42Z</time></trkpt><trkpt lat="44.477732305970584" lon="9.236916351016236"><ele>1120.0</ele><time>2026-05-03T12:51:43Z</time></trkpt><trkpt lat="44.47756376171802" lon="9.236973724287147"><ele>1120.0</ele><time>2026-05-03T12:51:44Z</time></trkpt><trkpt lat="44.47742160986826" lon="9.237043528932361"><ele>1120.0</ele><time>2026-05-03T12:51:45Z</time></trkpt><trkpt lat="44.47729569303085" lon="9.237056138670757"><ele>1120.0</ele><time>2026-05-03T12:51:46Z</time></trkpt><trkpt lat="44.4771862071375" lon="9.237034351961658"><ele>1120.0</ele><time>2026-05-03T12:51:47Z</time></trkpt><trkpt lat="44.477094498600486" lon="9.23696319214139"><ele>1117.0</ele><time>2026-05-03T12:51:48Z</time></trkpt><trkpt lat="44.476992077305624" lon="9.23686289175736"><ele>1114.0</ele><time>2026-05-03T12:51:49Z</time></trkpt><trkpt lat="44.47689580948515" lon="9.236767351866915"><ele>1111.0</ele><time>2026-05-03T12:51:50Z</time></trkpt><trkpt lat="44.476681030672864" lon="9.236556118470691"><ele>1111.0</ele><time>2026-05-03T12:51:51Z</time></trkpt><trkpt lat="44.47655972076928" lon="9.236514371735865"><ele>1111.0</ele><time>2026-05-03T12:51:52Z</time></trkpt><trkpt lat="44.476474786485525" lon="9.236542028244893"><ele>1111.0</ele><time>2026-05-03T12:51:53Z</time></trkpt><trkpt lat="44.47635411759285" lon="9.236596521240038"><ele>1111.0</ele><time>2026-05-03T12:51:54Z</time></trkpt><trkpt lat="44.476224438189" lon="9.23658936475708"><ele>1116.25</ele><time>2026-05-03T12:51:55Z</time></trkpt><trkpt lat="44.476136160435836" lon="9.236429833323676"><ele>1121.5</ele><time>2026-05-03T12:51:56Z</time></trkpt><trkpt lat="44.47602781654416" lon="9.23632790304758"><ele>1126.75</ele><time>2026-05-03T12:51:57Z</time></trkpt><trkpt lat="44.47592893877544" lon="9.236253991823514"><ele>1132.0</ele><time>2026-05-03T12:51:58Z</time></trkpt><trkpt lat="44.475840422273365" lon="9.236297252490003"><ele>1132.0</ele><time>2026-05-03T12:51:58.999Z</time></trkpt><trkpt lat="44.47575845351065" lon="9.23642571572347"><ele>1132.0</ele><time>2026-05-03T12:51:59.999Z</time></trkpt><trkpt lat="44.475627619881706" lon="9.236535543727657"><ele>1132.0</ele><time>2026-05-03T12:52:00.999Z</time></trkpt><trkpt lat="44.47550119054511" lon="9.236639657201897"><ele>1132.0</ele><time>2026-05-03T12:52:01.999Z</time></trkpt><trkpt lat="44.47535137159161" lon="9.236739890896473"><ele>1127.3333333333333</ele><time>2026-05-03T12:52:02.999Z</time></trkpt><trkpt lat="44.47520599556013" lon="9.236858225196137"><ele>1122.6666666666667</ele><time>2026-05-03T12:52:03.999Z</time></trkpt><trkpt lat="44.475100880272464" lon="9.237024568520708"><ele>1118.0</ele><time>2026-05-03T12:52:04.999Z</time></trkpt><trkpt lat="44.4749875054515" lon="9.237228969778833"><ele>1111.6666666666667</ele><time>2026-05-03T12:52:05.999Z</time></trkpt><trkpt lat="44.47490007652934" lon="9.237444272060968"><ele>1105.3333333333333</ele><time>2026-05-03T12:52:06.999Z</time></trkpt><trkpt lat="44.47483919413239" lon="9.237660211921288"><ele>1099.0</ele><time>2026-05-03T12:52:07.999Z</time></trkpt><trkpt lat="44.474797517089996" lon="9.237859283583132"><ele>1099.0</ele><time>2026-05-03T12:52:08.999Z</time></trkpt><trkpt lat="44.47475399041815" lon="9.237982784613997"><ele>1099.0</ele><time>2026-05-03T12:52:09.999Z</time></trkpt><trkpt lat="44.47466510863161" lon="9.238102623593218"><ele>1099.0</ele><time>2026-05-03T12:52:10.999Z</time></trkpt><trkpt lat="44.47456244407684" lon="9.23812168685731"><ele>1099.0</ele><time>2026-05-03T12:52:11.999Z</time></trkpt><trkpt lat="44.474432139279976" lon="9.238180362234996"><ele>1100.0</ele><time>2026-05-03T12:52:12.999Z</time></trkpt><trkpt lat="44.4742783571797" lon="9.238257361167266"><ele>1101.0</ele><time>2026-05-03T12:52:13.999Z</time></trkpt><trkpt lat="44.474106470549124" lon="9.238320032130018"><ele>1102.0</ele><time>2026-05-03T12:52:14.999Z</time></trkpt><trkpt lat="44.47392763505517" lon="9.238376997286453"><ele>1100.25</ele><time>2026-05-03T12:52:15.999Z</time></trkpt><trkpt lat="44.47375690846093" lon="9.238406579974264"><ele>1098.5</ele><time>2026-05-03T12:52:16.999Z</time></trkpt><trkpt lat="44.473611826525904" lon="9.238439630047601"><ele>1096.75</ele><time>2026-05-03T12:52:17.999Z</time></trkpt><trkpt lat="44.4734952799303" lon="9.238520439154485"><ele>1095.0</ele><time>2026-05-03T12:52:18.999Z</time></trkpt><trkpt lat="44.47337656251076" lon="9.23862904818731"><ele>1095.0</ele><time>2026-05-03T12:52:19.999Z</time></trkpt><trkpt lat="44.4732662925568" lon="9.238697734833602"><ele>1095.0</ele><time>2026-05-03T12:52:20.999Z</time></trkpt><trkpt lat="44.47315113277511" lon="9.238698155693365"><ele>1095.0</ele><time>2026-05-03T12:52:21.999Z</time></trkpt><trkpt lat="44.47301414530711" lon="9.238630181170906"><ele>1095.0</ele><time>2026-05-03T12:52:22.999Z</time></trkpt><trkpt lat="44.472852182561375" lon="9.238585926400443"><ele>1091.75</ele><time>2026-05-03T12:52:23.999Z</time></trkpt><trkpt lat="44.47269649066536" lon="9.238543385150711"><ele>1088.5</ele><time>2026-05-03T12:52:24.999Z</time></trkpt><trkpt lat="44.47255636210753" lon="9.238535418691615"><ele>1085.25</ele><time>2026-05-03T12:52:25.999Z</time></trkpt><trkpt lat="44.4724468082927" lon="9.238511718572235"><ele>1082.0</ele><time>2026-05-03T12:52:26.999Z</time></trkpt><trkpt lat="44.47232819062977" lon="9.238533650441186"><ele>1082.0</ele><time>2026-05-03T12:52:27.999Z</time></trkpt><trkpt lat="44.472199865972094" lon="9.238646639464351"><ele>1082.0</ele><time>2026-05-03T12:52:28.999Z</time></trkpt><trkpt lat="44.47207454539866" lon="9.238752368914703"><ele>1082.0</ele><time>2026-05-03T12:52:29.999Z</time></trkpt><trkpt lat="44.4719839361737" lon="9.23882666947417"><ele>1082.0</ele><time>2026-05-03T12:52:30.999Z</time></trkpt><trkpt lat="44.47192161121513" lon="9.23894999137358"><ele>1077.3333333333335</ele><time>2026-05-03T12:52:31.999Z</time></trkpt><trkpt lat="44.47187414421361" lon="9.239148031588554"><ele>1072.6666666666667</ele><time>2026-05-03T12:52:32.999Z</time></trkpt><trkpt lat="44.471810168308366" lon="9.239354654499532"><ele>1068.0</ele><time>2026-05-03T12:52:33.999Z</time></trkpt><trkpt lat="44.47170446864346" lon="9.239555037115675"><ele>1068.0</ele><time>2026-05-03T12:52:34.999Z</time></trkpt><trkpt lat="44.47157355207206" lon="9.239730533616733"><ele>1068.0</ele><time>2026-05-03T12:52:35.999Z</time></trkpt><trkpt lat="44.47146711564518" lon="9.23986255147486"><ele>1068.0</ele><time>2026-05-03T12:52:36.999Z</time></trkpt><trkpt lat="44.47138719680333" lon="9.23998457450569"><ele>1068.0</ele><time>2026-05-03T12:52:37.999Z</time></trkpt><trkpt lat="44.47136091506173" lon="9.240119172264516"><ele>1068.0</ele><time>2026-05-03T12:52:38.999Z</time></trkpt><trkpt lat="44.4713884114585" lon="9.240253625010833"><ele>1068.0</ele><time>2026-05-03T12:52:39.999Z</time></trkpt><trkpt lat="44.47146705876673" lon="9.240339878795336"><ele>1068.0</ele><time>2026-05-03T12:52:40.999Z</time></trkpt><trkpt lat="44.4715645284477" lon="9.240336527072087"><ele>1068.0</ele><time>2026-05-03T12:52:41.999Z</time></trkpt><trkpt lat="44.47166636511641" lon="9.240248169812192"><ele>1068.0</ele><time>2026-05-03T12:52:42.999Z</time></trkpt><trkpt lat="44.47177797305588" lon="9.240130575057206"><ele>1068.0</ele><time>2026-05-03T12:52:43.999Z</time></trkpt><trkpt lat="44.47189246955987" lon="9.240049648850933"><ele>1068.0</ele><time>2026-05-03T12:52:44.999Z</time></trkpt><trkpt lat="44.472002130920956" lon="9.240033321157824"><ele>1068.0</ele><time>2026-05-03T12:52:45.999Z</time></trkpt><trkpt lat="44.47211430118872" lon="9.24007410238997"><ele>1068.0</ele><time>2026-05-03T12:52:47Z</time></trkpt><trkpt lat="44.47224816854898" lon="9.240207876427457"><ele>1071.6666666666667</ele><time>2026-05-03T12:52:48Z</time></trkpt><trkpt lat="44.47238012181029" lon="9.240298257238043"><ele>1075.3333333333335</ele><time>2026-05-03T12:52:49Z</time></trkpt><trkpt lat="44.472539242833456" lon="9.240311966544201"><ele>1079.0</ele><time>2026-05-03T12:52:50Z</time></trkpt><trkpt lat="44.47269065621083" lon="9.240331589085445"><ele>1079.0</ele><time>2026-05-03T12:52:51Z</time></trkpt><trkpt lat="44.4728258882652" lon="9.240370104872184"><ele>1079.0</ele><time>2026-05-03T12:52:52Z</time></trkpt><trkpt lat="44.47292400877882" lon="9.240408121667807"><ele>1079.0</ele><time>2026-05-03T12:52:53Z</time></trkpt><trkpt lat="44.472976647190016" lon="9.240468480641145"><ele>1079.0</ele><time>2026-05-03T12:52:54Z</time></trkpt><trkpt lat="44.47300258270584" lon="9.240730030965022"><ele>1079.0</ele><time>2026-05-03T12:52:56Z</time></trkpt><trkpt lat="44.47303518348455" lon="9.240867596593137"><ele>1079.0</ele><time>2026-05-03T12:52:57Z</time></trkpt><trkpt lat="44.47312256531509" lon="9.241038840681366"><ele>1079.0</ele><time>2026-05-03T12:52:58Z</time></trkpt><trkpt lat="44.473150322993526" lon="9.241188193894496"><ele>1079.0</ele><time>2026-05-03T12:52:59Z</time></trkpt><trkpt lat="44.47306735173625" lon="9.241324368143424"><ele>1076.25</ele><time>2026-05-03T12:53:00Z</time></trkpt><trkpt lat="44.47301627647005" lon="9.241477678212034"><ele>1073.5</ele><time>2026-05-03T12:53:01Z</time></trkpt><trkpt lat="44.47297144081867" lon="9.241622861761591"><ele>1070.75</ele><time>2026-05-03T12:53:02Z</time></trkpt><trkpt lat="44.47299219454892" lon="9.241776653060214"><ele>1068.0</ele><time>2026-05-03T12:53:03Z</time></trkpt><trkpt lat="44.47308531694256" lon="9.241876679247873"><ele>1068.0</ele><time>2026-05-03T12:53:04Z</time></trkpt><trkpt lat="44.4731918440524" lon="9.241961310263097"><ele>1068.0</ele><time>2026-05-03T12:53:05Z</time></trkpt><trkpt lat="44.47329891420067" lon="9.242063399256754"><ele>1068.0</ele><time>2026-05-03T12:53:06Z</time></trkpt><trkpt lat="44.47330327265661" lon="9.242211491539122"><ele>1068.0</ele><time>2026-05-03T12:53:07Z</time></trkpt><trkpt lat="44.47330391429949" lon="9.242384642733319"><ele>1065.0</ele><time>2026-05-03T12:53:08Z</time></trkpt><trkpt lat="44.4732826784089" lon="9.242590998694618"><ele>1062.0</ele><time>2026-05-03T12:53:09Z</time></trkpt><trkpt lat="44.473203529734825" lon="9.242739927918391"><ele>1059.0</ele><time>2026-05-03T12:53:10Z</time></trkpt><trkpt lat="44.473138463715586" lon="9.242866000842408"><ele>1056.0</ele><time>2026-05-03T12:53:11Z</time></trkpt><trkpt lat="44.473082054427486" lon="9.242979577796083"><ele>1056.0</ele><time>2026-05-03T12:53:12Z</time></trkpt><trkpt lat="44.47310368348811" lon="9.243096682271009"><ele>1056.0</ele><time>2026-05-03T12:53:13Z</time></trkpt><trkpt lat="44.47316031107555" lon="9.2432236461883"><ele>1056.0</ele><time>2026-05-03T12:53:14Z</time></trkpt><trkpt lat="44.47324932975558" lon="9.243312822529392"><ele>1056.0</ele><time>2026-05-03T12:53:15Z</time></trkpt><trkpt lat="44.47338564631175" lon="9.243438311093245"><ele>1053.75</ele><time>2026-05-03T12:53:16Z</time></trkpt><trkpt lat="44.47344508783315" lon="9.243597065506565"><ele>1051.5</ele><time>2026-05-03T12:53:17Z</time></trkpt><trkpt lat="44.47346468465524" lon="9.243784714729475"><ele>1049.25</ele><time>2026-05-03T12:53:18Z</time></trkpt><trkpt lat="44.473470579564335" lon="9.244002133770845"><ele>1047.0</ele><time>2026-05-03T12:53:19Z</time></trkpt><trkpt lat="44.47346832734536" lon="9.24422785570305"><ele>1043.5</ele><time>2026-05-03T12:53:20Z</time></trkpt><trkpt lat="44.473487553038" lon="9.244418698634059"><ele>1040.0</ele><time>2026-05-03T12:53:21Z</time></trkpt><trkpt lat="44.47353097807028" lon="9.244599218562652"><ele>1036.5</ele><time>2026-05-03T12:53:22Z</time></trkpt><trkpt lat="44.47353608189431" lon="9.244727322866561"><ele>1033.0</ele><time>2026-05-03T12:53:23Z</time></trkpt><trkpt lat="44.47347878716379" lon="9.244843236240932"><ele>1033.0</ele><time>2026-05-03T12:53:24Z</time></trkpt><trkpt lat="44.473425886247966" lon="9.244963673685762"><ele>1033.0</ele><time>2026-05-03T12:53:25Z</time></trkpt><trkpt lat="44.47335176288506" lon="9.245031763350557"><ele>1033.0</ele><time>2026-05-03T12:53:26Z</time></trkpt><trkpt lat="44.47324966911416" lon="9.245029495491307"><ele>1033.0</ele><time>2026-05-03T12:53:27Z</time></trkpt><trkpt lat="44.47318874175351" lon="9.244917641948959"><ele>1033.0</ele><time>2026-05-03T12:53:28Z</time></trkpt><trkpt lat="44.47322513661603" lon="9.24478106843236"><ele>1033.0</ele><time>2026-05-03T12:53:29Z</time></trkpt><trkpt lat="44.473284211681445" lon="9.2446948561238"><ele>1033.0</ele><time>2026-05-03T12:53:30Z</time></trkpt><trkpt lat="44.4733423806679" lon="9.24451907128627"><ele>1033.0</ele><time>2026-05-03T12:53:31Z</time></trkpt><trkpt lat="44.47336091531601" lon="9.244334798839272"><ele>1033.0</ele><time>2026-05-03T12:53:32Z</time></trkpt><trkpt lat="44.473321947933385" lon="9.244137814213065"><ele>1036.5</ele><time>2026-05-03T12:53:33Z</time></trkpt><trkpt lat="44.473265477016035" lon="9.243932327772539"><ele>1040.0</ele><time>2026-05-03T12:53:34Z</time></trkpt><trkpt lat="44.47325612050277" lon="9.243777235241323"><ele>1043.5</ele><time>2026-05-03T12:53:35Z</time></trkpt><trkpt lat="44.47322910676004" lon="9.243648761414612"><ele>1047.0</ele><time>2026-05-03T12:53:36Z</time></trkpt><trkpt lat="44.47318011382164" lon="9.243528259110736"><ele>1047.0</ele><time>2026-05-03T12:53:37Z</time></trkpt><trkpt lat="44.47305057721118" lon="9.243496653489803"><ele>1047.0</ele><time>2026-05-03T12:53:38Z</time></trkpt><trkpt lat="44.472900189971924" lon="9.243477782272013"><ele>1047.0</ele><time>2026-05-03T12:53:39Z</time></trkpt><trkpt lat="44.472765455184614" lon="9.243485125142696"><ele>1047.0</ele><time>2026-05-03T12:53:40Z</time></trkpt><trkpt lat="44.47267586201943" lon="9.243449350472144"><ele>1040.6</ele><time>2026-05-03T12:53:41Z</time></trkpt><trkpt lat="44.47261434057083" lon="9.243386514067359"><ele>1034.2</ele><time>2026-05-03T12:53:42Z</time></trkpt><trkpt lat="44.47258983873532" lon="9.243304448832136"><ele>1027.8</ele><time>2026-05-03T12:53:43Z</time></trkpt><trkpt lat="44.472622620447304" lon="9.243134220697169"><ele>1021.4</ele><time>2026-05-03T12:53:44Z</time></trkpt><trkpt lat="44.4726710768631" lon="9.2429581103623"><ele>1015.0</ele><time>2026-05-03T12:53:45Z</time></trkpt><trkpt lat="44.4727400342918" lon="9.242750524501806"><ele>1015.0</ele><time>2026-05-03T12:53:46Z</time></trkpt><trkpt lat="44.47277263248037" lon="9.242584512920153"><ele>1015.0</ele><time>2026-05-03T12:53:47Z</time></trkpt><trkpt lat="44.47276317323607" lon="9.242476079722008"><ele>1015.0</ele><time>2026-05-03T12:53:48Z</time></trkpt><trkpt lat="44.47269540117488" lon="9.24236621615386"><ele>1015.0</ele><time>2026-05-03T12:53:49Z</time></trkpt><trkpt lat="44.47256724592683" lon="9.242289939935617"><ele>1015.0</ele><time>2026-05-03T12:53:50Z</time></trkpt><trkpt lat="44.472421093713045" lon="9.242206641867662"><ele>1017.6</ele><time>2026-05-03T12:53:51Z</time></trkpt><trkpt lat="44.47230934294789" lon="9.242094673073078"><ele>1020.2</ele><time>2026-05-03T12:53:52Z</time></trkpt><trkpt lat="44.47225500065138" lon="9.242002048777689"><ele>1022.8</ele><time>2026-05-03T12:53:53Z</time></trkpt><trkpt lat="44.47229453540914" lon="9.241875154691595"><ele>1025.4</ele><time>2026-05-03T12:53:54Z</time></trkpt><trkpt lat="44.47234537658537" lon="9.241748198334173"><ele>1028.0</ele><time>2026-05-03T12:53:55Z</time></trkpt><trkpt lat="44.47236903237443" lon="9.241626273900497"><ele>1028.0</ele><time>2026-05-03T12:53:56Z</time></trkpt><trkpt lat="44.47231835538781" lon="9.241539633133602"><ele>1028.0</ele><time>2026-05-03T12:53:57Z</time></trkpt><trkpt lat="44.4722280644312" lon="9.241458689391937"><ele>1028.0</ele><time>2026-05-03T12:53:58Z</time></trkpt><trkpt lat="44.47211237424925" lon="9.241433787070598"><ele>1028.0</ele><time>2026-05-03T12:53:59Z</time></trkpt><trkpt lat="44.47201445724371" lon="9.241450351963952"><ele>1028.0</ele><time>2026-05-03T12:54:00Z</time></trkpt><trkpt lat="44.47194391744792" lon="9.241616089111238"><ele>1023.75</ele><time>2026-05-03T12:54:01Z</time></trkpt><trkpt lat="44.4718421283205" lon="9.241699686055497"><ele>1019.5</ele><time>2026-05-03T12:54:02Z</time></trkpt><trkpt lat="44.47172638315872" lon="9.241675810536815"><ele>1015.25</ele><time>2026-05-03T12:54:03Z</time></trkpt><trkpt lat="44.47157734547456" lon="9.241738884269001"><ele>1011.0</ele><time>2026-05-03T12:54:04Z</time></trkpt><trkpt lat="44.47142332311949" lon="9.241782026592237"><ele>1011.0</ele><time>2026-05-03T12:54:05Z</time></trkpt><trkpt lat="44.47127925480465" lon="9.24184037720101"><ele>1011.0</ele><time>2026-05-03T12:54:06Z</time></trkpt><trkpt lat="44.471153534429774" lon="9.24191550444805"><ele>1011.0</ele><time>2026-05-03T12:54:07Z</time></trkpt><trkpt lat="44.4710130430035" lon="9.24199660444555"><ele>1011.0</ele><time>2026-05-03T12:54:08Z</time></trkpt><trkpt lat="44.47091968833912" lon="9.242127396620901"><ele>1009.1999999999999</ele><time>2026-05-03T12:54:09Z</time></trkpt><trkpt lat="44.470822645951834" lon="9.24217436395534"><ele>1007.3999999999999</ele><time>2026-05-03T12:54:10Z</time></trkpt><trkpt lat="44.47075828439568" lon="9.24215846955816"><ele>1005.6</ele><time>2026-05-03T12:54:11Z</time></trkpt><trkpt lat="44.47073492325147" lon="9.242041069520544"><ele>1003.8</ele><time>2026-05-03T12:54:12Z</time></trkpt><trkpt lat="44.47072528608188" lon="9.241882088317276"><ele>1002.0</ele><time>2026-05-03T12:54:13Z</time></trkpt><trkpt lat="44.47065743353668" lon="9.241703325190088"><ele>1002.0</ele><time>2026-05-03T12:54:14Z</time></trkpt><trkpt lat="44.47054905478982" lon="9.241542545668555"><ele>1002.0</ele><time>2026-05-03T12:54:15Z</time></trkpt><trkpt lat="44.47043513826879" lon="9.241390619969131"><ele>1002.0</ele><time>2026-05-03T12:54:16Z</time></trkpt><trkpt lat="44.470330211360675" lon="9.241279081864981"><ele>1002.0</ele><time>2026-05-03T12:54:17Z</time></trkpt><trkpt lat="44.47026126267183" lon="9.241124907294054"><ele>999.3333333333333</ele><time>2026-05-03T12:54:18Z</time></trkpt><trkpt lat="44.47024894286802" lon="9.240944671036125"><ele>996.6666666666666</ele><time>2026-05-03T12:54:19Z</time></trkpt><trkpt lat="44.47021427262914" lon="9.240711455798849"><ele>994.0</ele><time>2026-05-03T12:54:19.999Z</time></trkpt><trkpt lat="44.47017004259859" lon="9.240488887386439"><ele>994.0</ele><time>2026-05-03T12:54:20.999Z</time></trkpt><trkpt lat="44.47003632017402" lon="9.240344432264322"><ele>994.0</ele><time>2026-05-03T12:54:21.999Z</time></trkpt><trkpt lat="44.46988684059631" lon="9.240132696525547"><ele>994.0</ele><time>2026-05-03T12:54:22.999Z</time></trkpt><trkpt lat="44.46978479500986" lon="9.239971509300545"><ele>994.0</ele><time>2026-05-03T12:54:23.999Z</time></trkpt><trkpt lat="44.469701302428035" lon="9.239840935758489"><ele>994.0000000000001</ele><time>2026-05-03T12:54:24.999Z</time></trkpt><trkpt lat="44.46964329464085" lon="9.239731336461777"><ele>994.0000000000001</ele><time>2026-05-03T12:54:25.999Z</time></trkpt><trkpt lat="44.469559809297465" lon="9.239631673508718"><ele>994.0</ele><time>2026-05-03T12:54:26.999Z</time></trkpt><trkpt lat="44.469486399076125" lon="9.239654564557153"><ele>994.0</ele><time>2026-05-03T12:54:27.999Z</time></trkpt><trkpt lat="44.469473772192224" lon="9.239776629740271"><ele>994.0</ele><time>2026-05-03T12:54:28.999Z</time></trkpt><trkpt lat="44.46948958652086" lon="9.23987055128192"><ele>994.0000000000001</ele><time>2026-05-03T12:54:29.999Z</time></trkpt><trkpt lat="44.469568670066806" lon="9.2399622068769"><ele>994.0000000000001</ele><time>2026-05-03T12:54:30.999Z</time></trkpt><trkpt lat="44.469663150321864" lon="9.24006779894163"><ele>994.0</ele><time>2026-05-03T12:54:31.999Z</time></trkpt><trkpt lat="44.46973448207231" lon="9.240187024928971"><ele>994.0</ele><time>2026-05-03T12:54:32.999Z</time></trkpt><trkpt lat="44.46980700024764" lon="9.240341220373656"><ele>994.0</ele><time>2026-05-03T12:54:33.999Z</time></trkpt><trkpt lat="44.469852314455025" lon="9.240554838574607"><ele>994.0</ele><time>2026-05-03T12:54:34.999Z</time></trkpt><trkpt lat="44.469912542366785" lon="9.240758970771028"><ele>994.0</ele><time>2026-05-03T12:54:35.999Z</time></trkpt><trkpt lat="44.46998395095518" lon="9.240904204452931"><ele>994.0</ele><time>2026-05-03T12:54:36.999Z</time></trkpt><trkpt lat="44.46999933838375" lon="9.241035807484606"><ele>990.25</ele><time>2026-05-03T12:54:37.999Z</time></trkpt><trkpt lat="44.46996418436102" lon="9.24117001700384"><ele>986.5</ele><time>2026-05-03T12:54:38.999Z</time></trkpt><trkpt lat="44.469949718910286" lon="9.241339743016995"><ele>982.75</ele><time>2026-05-03T12:54:39.999Z</time></trkpt><trkpt lat="44.47000115933659" lon="9.2415485274466"><ele>979.0</ele><time>2026-05-03T12:54:40.999Z</time></trkpt><trkpt lat="44.47008325983433" lon="9.2417369657573"><ele>977.0</ele><time>2026-05-03T12:54:41.999Z</time></trkpt><trkpt lat="44.47016898617823" lon="9.241878680695747"><ele>975.0</ele><time>2026-05-03T12:54:42.999Z</time></trkpt><trkpt lat="44.47026330090748" lon="9.241999834191303"><ele>973.0</ele><time>2026-05-03T12:54:43.999Z</time></trkpt><trkpt lat="44.4703341048665" lon="9.242140147671405"><ele>971.0</ele><time>2026-05-03T12:54:44.999Z</time></trkpt><trkpt lat="44.47031945352012" lon="9.242261406952434"><ele>968.75</ele><time>2026-05-03T12:54:45.999Z</time></trkpt><trkpt lat="44.470308228910305" lon="9.242440328910455"><ele>966.5</ele><time>2026-05-03T12:54:46.999Z</time></trkpt><trkpt lat="44.470283608766195" lon="9.242621417769284"><ele>964.25</ele><time>2026-05-03T12:54:47.999Z</time></trkpt><trkpt lat="44.47030717932736" lon="9.242852688661594"><ele>962.0</ele><time>2026-05-03T12:54:48.999Z</time></trkpt><trkpt lat="44.470324488015336" lon="9.243080179196728"><ele>960.75</ele><time>2026-05-03T12:54:49.999Z</time></trkpt><trkpt lat="44.470282700592115" lon="9.24329100855235"><ele>959.5</ele><time>2026-05-03T12:54:50.999Z</time></trkpt><trkpt lat="44.47027679697589" lon="9.243467707518658"><ele>958.25</ele><time>2026-05-03T12:54:51.999Z</time></trkpt><trkpt lat="44.47030095726114" lon="9.243606787008554"><ele>957.0</ele><time>2026-05-03T12:54:53Z</time></trkpt><trkpt lat="44.470363590523704" lon="9.243712947119688"><ele>958.75</ele><time>2026-05-03T12:54:54Z</time></trkpt><trkpt lat="44.47046084101318" lon="9.243758310781327"><ele>960.5</ele><time>2026-05-03T12:54:55Z</time></trkpt><trkpt lat="44.470569285131035" lon="9.243703042815893"><ele>962.25</ele><time>2026-05-03T12:54:56Z</time></trkpt><trkpt lat="44.470645786150705" lon="9.243642801096916"><ele>964.0</ele><time>2026-05-03T12:54:57Z</time></trkpt><trkpt lat="44.47095205558664" lon="9.243333969954294"><ele>964.0</ele><time>2026-05-03T12:54:59Z</time></trkpt><trkpt lat="44.47112060978541" lon="9.243269209690274"><ele>964.0</ele><time>2026-05-03T12:55:00Z</time></trkpt><trkpt lat="44.471265115945016" lon="9.243212411649353"><ele>964.0</ele><time>2026-05-03T12:55:01Z</time></trkpt><trkpt lat="44.471371265170646" lon="9.243169558734683"><ele>964.0</ele><time>2026-05-03T12:55:02Z</time></trkpt><trkpt lat="44.47143338082853" lon="9.243209133602623"><ele>964.0</ele><time>2026-05-03T12:55:03Z</time></trkpt><trkpt lat="44.471350852539985" lon="9.243372753894171"><ele>964.0</ele><time>2026-05-03T12:55:06Z</time></trkpt><trkpt lat="44.47127031736782" lon="9.243506744669242"><ele>964.0</ele><time>2026-05-03T12:55:07Z</time></trkpt><trkpt lat="44.47118552458955" lon="9.243685341647684"><ele>964.0</ele><time>2026-05-03T12:55:08Z</time></trkpt><trkpt lat="44.47109001795239" lon="9.243833747189544"><ele>961.75</ele><time>2026-05-03T12:55:09Z</time></trkpt><trkpt lat="44.47101461907033" lon="9.244005853299381"><ele>959.5</ele><time>2026-05-03T12:55:10Z</time></trkpt><trkpt lat="44.47093624072907" lon="9.244176577254382"><ele>957.25</ele><time>2026-05-03T12:55:11Z</time></trkpt><trkpt lat="44.470868320526286" lon="9.244327483500781"><ele>955.0</ele><time>2026-05-03T12:55:12Z</time></trkpt><trkpt lat="44.47082684177843" lon="9.24449347431529"><ele>955.0</ele><time>2026-05-03T12:55:13Z</time></trkpt><trkpt lat="44.470872590545554" lon="9.244678132520177"><ele>955.0</ele><time>2026-05-03T12:55:14Z</time></trkpt><trkpt lat="44.470928184748004" lon="9.24480935548497"><ele>955.0</ele><time>2026-05-03T12:55:15Z</time></trkpt><trkpt lat="44.47099814552966" lon="9.244862541359536"><ele>955.0</ele><time>2026-05-03T12:55:16Z</time></trkpt><trkpt lat="44.47116992898768" lon="9.244845355538464"><ele>954.0</ele><time>2026-05-03T12:55:18Z</time></trkpt><trkpt lat="44.47128305893638" lon="9.244829745838812"><ele>953.0</ele><time>2026-05-03T12:55:19Z</time></trkpt><trkpt lat="44.47137984418995" lon="9.24486836674267"><ele>952.0</ele><time>2026-05-03T12:55:20Z</time></trkpt><trkpt lat="44.47135849479211" lon="9.245027008603268"><ele>951.0</ele><time>2026-05-03T12:55:22Z</time></trkpt><trkpt lat="44.47125935482888" lon="9.245090411471885"><ele>950.0</ele><time>2026-05-03T12:55:23Z</time></trkpt><trkpt lat="44.471164555033965" lon="9.245211246037952"><ele>950.0</ele><time>2026-05-03T12:55:24Z</time></trkpt><trkpt lat="44.471129855680346" lon="9.245325812031059"><ele>950.0</ele><time>2026-05-03T12:55:25Z</time></trkpt><trkpt lat="44.471115467753954" lon="9.245431367996618"><ele>950.0</ele><time>2026-05-03T12:55:26Z</time></trkpt><trkpt lat="44.471136679760065" lon="9.245564026266692"><ele>950.0</ele><time>2026-05-03T12:55:27Z</time></trkpt><trkpt lat="44.47116382532463" lon="9.245816138736389"><ele>950.0</ele><time>2026-05-03T12:55:28Z</time></trkpt><trkpt lat="44.47121745166693" lon="9.246024829364906"><ele>949.6666666666667</ele><time>2026-05-03T12:55:29Z</time></trkpt><trkpt lat="44.47126243843207" lon="9.246245252668023"><ele>949.3333333333333</ele><time>2026-05-03T12:55:30Z</time></trkpt><trkpt lat="44.47133301445305" lon="9.24647406096044"><ele>949.0</ele><time>2026-05-03T12:55:31Z</time></trkpt><trkpt lat="44.47134303283872" lon="9.246695446240993"><ele>950.25</ele><time>2026-05-03T12:55:32Z</time></trkpt><trkpt lat="44.471391877422555" lon="9.246857642161775"><ele>951.5</ele><time>2026-05-03T12:55:33Z</time></trkpt><trkpt lat="44.47144206423687" lon="9.247016661482686"><ele>952.75</ele><time>2026-05-03T12:55:34Z</time></trkpt><trkpt lat="44.471496957055614" lon="9.247158349493738"><ele>954.0</ele><time>2026-05-03T12:55:35Z</time></trkpt><trkpt lat="44.471558194145594" lon="9.24725052971109"><ele>950.5</ele><time>2026-05-03T12:55:36Z</time></trkpt><trkpt lat="44.47164184192358" lon="9.24731882430724"><ele>947.0</ele><time>2026-05-03T12:55:37Z</time></trkpt><trkpt lat="44.47177814869404" lon="9.247382061382865"><ele>943.5</ele><time>2026-05-03T12:55:38Z</time></trkpt><trkpt lat="44.47194090276948" lon="9.2474580292747"><ele>940.0</ele><time>2026-05-03T12:55:39Z</time></trkpt><trkpt lat="44.47209449620642" lon="9.247559455556948"><ele>940.25</ele><time>2026-05-03T12:55:40Z</time></trkpt><trkpt lat="44.472216905406604" lon="9.247700343208002"><ele>940.5</ele><time>2026-05-03T12:55:41Z</time></trkpt><trkpt lat="44.47232867512002" lon="9.247811541423612"><ele>940.75</ele><time>2026-05-03T12:55:42Z</time></trkpt><trkpt lat="44.472394382693864" lon="9.247968083457465"><ele>941.0</ele><time>2026-05-03T12:55:43Z</time></trkpt><trkpt lat="44.47248341412859" lon="9.248129709242585"><ele>941.0</ele><time>2026-05-03T12:55:44Z</time></trkpt><trkpt lat="44.47256126815376" lon="9.248273105078956"><ele>941.0</ele><time>2026-05-03T12:55:45Z</time></trkpt><trkpt lat="44.47261367144104" lon="9.248432068396323"><ele>941.0</ele><time>2026-05-03T12:55:46Z</time></trkpt><trkpt lat="44.47262509489685" lon="9.24859837818162"><ele>941.0</ele><time>2026-05-03T12:55:47Z</time></trkpt><trkpt lat="44.472591515508874" lon="9.248733514190993"><ele>941.0</ele><time>2026-05-03T12:55:48Z</time></trkpt><trkpt lat="44.47257654721565" lon="9.248915847636201"><ele>941.0</ele><time>2026-05-03T12:55:49Z</time></trkpt><trkpt lat="44.47253656543862" lon="9.249091574472986"><ele>941.0</ele><time>2026-05-03T12:55:50Z</time></trkpt><trkpt lat="44.4725260324275" lon="9.249320471488696"><ele>941.0</ele><time>2026-05-03T12:55:51Z</time></trkpt><trkpt lat="44.47250205029042" lon="9.249514310879237"><ele>939.4</ele><time>2026-05-03T12:55:52Z</time></trkpt><trkpt lat="44.472491955492416" lon="9.249686132929412"><ele>937.8</ele><time>2026-05-03T12:55:53Z</time></trkpt><trkpt lat="44.472503165675334" lon="9.24983522658926"><ele>936.1999999999999</ele><time>2026-05-03T12:55:54Z</time></trkpt><trkpt lat="44.472529949504896" lon="9.249963234781525"><ele>934.5999999999999</ele><time>2026-05-03T12:55:55Z</time></trkpt><trkpt lat="44.4725288552761" lon="9.25006477922399"><ele>933.0</ele><time>2026-05-03T12:55:56Z</time></trkpt><trkpt lat="44.472495861447214" lon="9.250141848898446"><ele>932.0</ele><time>2026-05-03T12:55:57Z</time></trkpt><trkpt lat="44.472424070530316" lon="9.25020935321364"><ele>931.0</ele><time>2026-05-03T12:55:58Z</time></trkpt><trkpt lat="44.472299178667654" lon="9.250219875481259"><ele>930.0</ele><time>2026-05-03T12:55:59Z</time></trkpt><trkpt lat="44.47216970380234" lon="9.25021808550667"><ele>929.0</ele><time>2026-05-03T12:56:00Z</time></trkpt><trkpt lat="44.47209931935352" lon="9.250134326133304"><ele>928.0</ele><time>2026-05-03T12:56:01Z</time></trkpt><trkpt lat="44.472035507905936" lon="9.250027137700316"><ele>926.25</ele><time>2026-05-03T12:56:02Z</time></trkpt><trkpt lat="44.47199138172687" lon="9.2498735499322"><ele>924.5</ele><time>2026-05-03T12:56:03Z</time></trkpt><trkpt lat="44.47191021733519" lon="9.249648167106944"><ele>922.75</ele><time>2026-05-03T12:56:04Z</time></trkpt><trkpt lat="44.47184152553937" lon="9.249471056661406"><ele>921.0</ele><time>2026-05-03T12:56:05Z</time></trkpt><trkpt lat="44.47164795553611" lon="9.24918439822345"><ele>921.0</ele><time>2026-05-03T12:56:06Z</time></trkpt><trkpt lat="44.47149777290837" lon="9.249008901701218"><ele>921.0</ele><time>2026-05-03T12:56:07Z</time></trkpt><trkpt lat="44.47132876957706" lon="9.248862497937557"><ele>921.0</ele><time>2026-05-03T12:56:08Z</time></trkpt><trkpt lat="44.471166772989775" lon="9.248729245457799"><ele>917.0</ele><time>2026-05-03T12:56:09Z</time></trkpt><trkpt lat="44.47105091116793" lon="9.24855694101464"><ele>913.0</ele><time>2026-05-03T12:56:10Z</time></trkpt><trkpt lat="44.47092170665369" lon="9.24840660464092"><ele>909.0</ele><time>2026-05-03T12:56:11Z</time></trkpt><trkpt lat="44.47077425334077" lon="9.248287398091396"><ele>909.0</ele><time>2026-05-03T12:56:12Z</time></trkpt><trkpt lat="44.470648227167906" lon="9.248164159543148"><ele>909.0</ele><time>2026-05-03T12:56:13Z</time></trkpt><trkpt lat="44.470585260863665" lon="9.247966480321884"><ele>909.0</ele><time>2026-05-03T12:56:14Z</time></trkpt><trkpt lat="44.470505869582965" lon="9.247769130624604"><ele>900.3333333333333</ele><time>2026-05-03T12:56:15Z</time></trkpt><trkpt lat="44.47037899125326" lon="9.24760854623323"><ele>891.6666666666666</ele><time>2026-05-03T12:56:16Z</time></trkpt><trkpt lat="44.470243954667964" lon="9.247456604194369"><ele>883.0</ele><time>2026-05-03T12:56:17Z</time></trkpt><trkpt lat="44.47007128563037" lon="9.247313887282385"><ele>901.3333333333333</ele><time>2026-05-03T12:56:18Z</time></trkpt><trkpt lat="44.4699280416149" lon="9.24715810523114"><ele>919.6666666666667</ele><time>2026-05-03T12:56:19Z</time></trkpt><trkpt lat="44.46982641212539" lon="9.24695897322853"><ele>938.0</ele><time>2026-05-03T12:56:20Z</time></trkpt><trkpt lat="44.46971489195361" lon="9.24676866682844"><ele>938.6666666666667</ele><time>2026-05-03T12:56:21Z</time></trkpt><trkpt lat="44.469571317414236" lon="9.24662240472836"><ele>939.3333333333333</ele><time>2026-05-03T12:56:22Z</time></trkpt><trkpt lat="44.469397734469396" lon="9.24649241574933"><ele>940.0</ele><time>2026-05-03T12:56:23Z</time></trkpt><trkpt lat="44.469198578387385" lon="9.246385355530341"><ele>972.0</ele><time>2026-05-03T12:56:24Z</time></trkpt><trkpt lat="44.469221701237245" lon="9.245138959145915"><ele>972.0</ele><time>2026-05-03T12:56:28Z</time></trkpt><trkpt lat="44.46906411299615" lon="9.24492270940086"><ele>972.0</ele><time>2026-05-03T12:56:29Z</time></trkpt><trkpt lat="44.46811099935262" lon="9.245758228714713"><ele>942.6666666666667</ele><time>2026-05-03T12:56:30Z</time></trkpt><trkpt lat="44.467960252198836" lon="9.245755283279257"><ele>913.3333333333334</ele><time>2026-05-03T12:56:31Z</time></trkpt><trkpt lat="44.467792916276636" lon="9.245740938175842"><ele>884.0</ele><time>2026-05-03T12:56:32Z</time></trkpt><trkpt lat="44.46764001507182" lon="9.245729947361815"><ele>880.5</ele><time>2026-05-03T12:56:33Z</time></trkpt><trkpt lat="44.4675017996464" lon="9.245659825653306"><ele>877.0</ele><time>2026-05-03T12:56:34Z</time></trkpt><trkpt lat="44.46743076621019" lon="9.245500421638711"><ele>873.5</ele><time>2026-05-03T12:56:35Z</time></trkpt><trkpt lat="44.4674041857807" lon="9.245334114703304"><ele>870.0</ele><time>2026-05-03T12:56:36Z</time></trkpt><trkpt lat="44.467420952516605" lon="9.245176554973746"><ele>870.0</ele><time>2026-05-03T12:56:37Z</time></trkpt><trkpt lat="44.467451139081575" lon="9.244939265008943"><ele>870.0</ele><time>2026-05-03T12:56:38Z</time></trkpt><trkpt lat="44.46743383406555" lon="9.244690970303765"><ele>870.0</ele><time>2026-05-03T12:56:39Z</time></trkpt><trkpt lat="44.46737375938546" lon="9.244447308728642"><ele>873.3333333333333</ele><time>2026-05-03T12:56:40Z</time></trkpt><trkpt lat="44.46726324850969" lon="9.244213646828682"><ele>876.6666666666666</ele><time>2026-05-03T12:56:41Z</time></trkpt><trkpt lat="44.467145683987" lon="9.244017194113733"><ele>880.0</ele><time>2026-05-03T12:56:42Z</time></trkpt><trkpt lat="44.46701079314024" lon="9.243856089146984"><ele>865.3333333333333</ele><time>2026-05-03T12:56:43Z</time></trkpt><trkpt lat="44.466960697154875" lon="9.243658888222651"><ele>850.6666666666667</ele><time>2026-05-03T12:56:44Z</time></trkpt><trkpt lat="44.46693234972985" lon="9.243440610892572"><ele>836.0</ele><time>2026-05-03T12:56:45Z</time></trkpt><trkpt lat="44.46690772619888" lon="9.243240406395687"><ele>845.0</ele><time>2026-05-03T12:56:46Z</time></trkpt><trkpt lat="44.46688379865291" lon="9.243076257861917"><ele>854.0</ele><time>2026-05-03T12:56:47Z</time></trkpt><trkpt lat="44.46683000110106" lon="9.242922997685405"><ele>863.0</ele><time>2026-05-03T12:56:48Z</time></trkpt><trkpt lat="44.466599288709645" lon="9.242964154234095"><ele>863.0</ele><time>2026-05-03T12:56:49Z</time></trkpt><trkpt lat="44.466477955216824" lon="9.242863699603934"><ele>863.0</ele><time>2026-05-03T12:56:50Z</time></trkpt><trkpt lat="44.466466279158226" lon="9.242700676272595"><ele>863.0</ele><time>2026-05-03T12:56:51Z</time></trkpt><trkpt lat="44.46640456190414" lon="9.242514056327598"><ele>863.0</ele><time>2026-05-03T12:56:52Z</time></trkpt><trkpt lat="44.466306363324506" lon="9.24237803065616"><ele>863.6666666666667</ele><time>2026-05-03T12:56:53Z</time></trkpt><trkpt lat="44.4661690430388" lon="9.242295728837858"><ele>864.3333333333333</ele><time>2026-05-03T12:56:53.999Z</time></trkpt><trkpt lat="44.46601365246983" lon="9.242280112132915"><ele>865.0</ele><time>2026-05-03T12:56:54.999Z</time></trkpt><trkpt lat="44.46584436990202" lon="9.242285016843026"><ele>865.0</ele><time>2026-05-03T12:56:55.999Z</time></trkpt><trkpt lat="44.46566287174485" lon="9.242198618418271"><ele>865.0</ele><time>2026-05-03T12:56:56.999Z</time></trkpt><trkpt lat="44.465485090443224" lon="9.242132034795937"><ele>865.0</ele><time>2026-05-03T12:56:57.999Z</time></trkpt><trkpt lat="44.46531380011471" lon="9.242171761104595"><ele>861.25</ele><time>2026-05-03T12:56:59.001Z</time></trkpt><trkpt lat="44.46517432123431" lon="9.242275944578886"><ele>857.5</ele><time>2026-05-03T12:57:00.001Z</time></trkpt><trkpt lat="44.46503822272885" lon="9.242273086144174"><ele>853.75</ele><time>2026-05-03T12:57:01.001Z</time></trkpt><trkpt lat="44.46494855548667" lon="9.242187606276223"><ele>850.0</ele><time>2026-05-03T12:57:02.001Z</time></trkpt><trkpt lat="44.46481296842426" lon="9.242057795458395"><ele>850.0</ele><time>2026-05-03T12:57:03.001Z</time></trkpt><trkpt lat="44.4646856203829" lon="9.241990337637901"><ele>850.0</ele><time>2026-05-03T12:57:04.001Z</time></trkpt><trkpt lat="44.464549855873166" lon="9.24200652816982"><ele>850.0</ele><time>2026-05-03T12:57:05.001Z</time></trkpt><trkpt lat="44.46437526346212" lon="9.242115231512107"><ele>848.6666666666666</ele><time>2026-05-03T12:57:06.001Z</time></trkpt><trkpt lat="44.46420128823975" lon="9.242183028863895"><ele>847.3333333333333</ele><time>2026-05-03T12:57:07.001Z</time></trkpt><trkpt lat="44.464040292428095" lon="9.24223738288123"><ele>846.0</ele><time>2026-05-03T12:57:08.001Z</time></trkpt><trkpt lat="44.463908821421484" lon="9.242221124572135"><ele>842.6666666666667</ele><time>2026-05-03T12:57:09.001Z</time></trkpt><trkpt lat="44.46373600285567" lon="9.242138549492736"><ele>839.3333333333334</ele><time>2026-05-03T12:57:10.001Z</time></trkpt><trkpt lat="44.46355090967329" lon="9.242049433596016"><ele>836.0</ele><time>2026-05-03T12:57:11.001Z</time></trkpt><trkpt lat="44.463388813009864" lon="9.241959017024735"><ele>836.0</ele><time>2026-05-03T12:57:12.001Z</time></trkpt><trkpt lat="44.463228830956425" lon="9.241957144382631"><ele>836.0</ele><time>2026-05-03T12:57:13.001Z</time></trkpt><trkpt lat="44.46310370281863" lon="9.24202781407628"><ele>836.0</ele><time>2026-05-03T12:57:14.001Z</time></trkpt><trkpt lat="44.4629372734769" lon="9.242193382110147"><ele>825.6666666666667</ele><time>2026-05-03T12:57:15.001Z</time></trkpt><trkpt lat="44.46277204130797" lon="9.242376624290394"><ele>815.3333333333333</ele><time>2026-05-03T12:57:16.001Z</time></trkpt><trkpt lat="44.46260052126896" lon="9.24250100253519"><ele>805.0</ele><time>2026-05-03T12:57:17Z</time></trkpt><trkpt lat="44.46244508030704" lon="9.242636658523702"><ele>805.0</ele><time>2026-05-03T12:57:18Z</time></trkpt><trkpt lat="44.46229754818373" lon="9.24276541209056"><ele>805.0</ele><time>2026-05-03T12:57:19Z</time></trkpt><trkpt lat="44.4621691767391" lon="9.242858054336574"><ele>805.0</ele><time>2026-05-03T12:57:20Z</time></trkpt><trkpt lat="44.46202252254907" lon="9.242899798016282"><ele>808.6666666666666</ele><time>2026-05-03T12:57:21Z</time></trkpt><trkpt lat="44.461883303114874" lon="9.242868484271247"><ele>812.3333333333333</ele><time>2026-05-03T12:57:22Z</time></trkpt><trkpt lat="44.46172540899779" lon="9.242824602860864"><ele>816.0</ele><time>2026-05-03T12:57:23Z</time></trkpt><trkpt lat="44.46153630671379" lon="9.242797545446964"><ele>816.0</ele><time>2026-05-03T12:57:24Z</time></trkpt><trkpt lat="44.46141969275173" lon="9.242854316865804"><ele>816.0</ele><time>2026-05-03T12:57:25Z</time></trkpt><trkpt lat="44.46129645250647" lon="9.242997733179642"><ele>816.0</ele><time>2026-05-03T12:57:26Z</time></trkpt><trkpt lat="44.46120881430277" lon="9.24324087131762"><ele>806.0</ele><time>2026-05-03T12:57:27Z</time></trkpt><trkpt lat="44.46108762415088" lon="9.243379679866178"><ele>796.0</ele><time>2026-05-03T12:57:28Z</time></trkpt><trkpt lat="44.460956037031856" lon="9.24346470769983"><ele>786.0</ele><time>2026-05-03T12:57:29Z</time></trkpt><trkpt lat="44.4607941264426" lon="9.243476661994984"><ele>786.0</ele><time>2026-05-03T12:57:30Z</time></trkpt><trkpt lat="44.4606149029457" lon="9.243506737398961"><ele>786.0</ele><time>2026-05-03T12:57:31Z</time></trkpt><trkpt lat="44.46042018746087" lon="9.243570371986477"><ele>786.0</ele><time>2026-05-03T12:57:32Z</time></trkpt><trkpt lat="44.46023823937199" lon="9.243720721138319"><ele>793.5</ele><time>2026-05-03T12:57:33Z</time></trkpt><trkpt lat="44.46005797659408" lon="9.243929320381115"><ele>801.0</ele><time>2026-05-03T12:57:34Z</time></trkpt><trkpt lat="44.459878543433895" lon="9.244132126773586"><ele>797.0</ele><time>2026-05-03T12:57:35Z</time></trkpt><trkpt lat="44.45970832547459" lon="9.244331686747683"><ele>793.0</ele><time>2026-05-03T12:57:36Z</time></trkpt><trkpt lat="44.45958794714846" lon="9.244539401889977"><ele>789.0</ele><time>2026-05-03T12:57:37Z</time></trkpt><trkpt lat="44.45946191788508" lon="9.244762917748506"><ele>779.3333333333334</ele><time>2026-05-03T12:57:38Z</time></trkpt><trkpt lat="44.4593402939309" lon="9.244958739844067"><ele>769.6666666666667</ele><time>2026-05-03T12:57:39Z</time></trkpt><trkpt lat="44.459217044905856" lon="9.245108919052575"><ele>760.0</ele><time>2026-05-03T12:57:40Z</time></trkpt><trkpt lat="44.459104650406424" lon="9.245207141569333"><ele>760.0</ele><time>2026-05-03T12:57:41Z</time></trkpt><trkpt lat="44.459016285942525" lon="9.24530197064923"><ele>760.0</ele><time>2026-05-03T12:57:42Z</time></trkpt><trkpt lat="44.458950326042235" lon="9.245360252770976"><ele>760.0</ele><time>2026-05-03T12:57:43Z</time></trkpt><trkpt lat="44.45894742164212" lon="9.245466221501305"><ele>760.0</ele><time>2026-05-03T12:57:44Z</time></trkpt><trkpt lat="44.459009063364384" lon="9.245579407212505"><ele>760.0</ele><time>2026-05-03T12:57:45Z</time></trkpt><trkpt lat="44.45911664803807" lon="9.245637508550924"><ele>760.0</ele><time>2026-05-03T12:57:46Z</time></trkpt><trkpt lat="44.45923711970639" lon="9.24559165615541"><ele>760.0</ele><time>2026-05-03T12:57:47Z</time></trkpt><trkpt lat="44.45938056122513" lon="9.24550416301238"><ele>760.0</ele><time>2026-05-03T12:57:48Z</time></trkpt><trkpt lat="44.45953433583234" lon="9.24544406844413"><ele>760.0</ele><time>2026-05-03T12:57:49Z</time></trkpt><trkpt lat="44.4597166247157" lon="9.245410573392094"><ele>755.6666666666667</ele><time>2026-05-03T12:57:50Z</time></trkpt><trkpt lat="44.45991011011633" lon="9.245377789299253"><ele>751.3333333333334</ele><time>2026-05-03T12:57:51Z</time></trkpt><trkpt lat="44.46011628053446" lon="9.245315619161794"><ele>747.0</ele><time>2026-05-03T12:57:52Z</time></trkpt><trkpt lat="44.46030131258171" lon="9.245218389138822"><ele>741.0</ele><time>2026-05-03T12:57:53Z</time></trkpt><trkpt lat="44.46047266271427" lon="9.245104898318454"><ele>735.0</ele><time>2026-05-03T12:57:54Z</time></trkpt><trkpt lat="44.4606343021033" lon="9.244975173415535"><ele>729.0</ele><time>2026-05-03T12:57:55Z</time></trkpt><trkpt lat="44.460765007000724" lon="9.244821243527031"><ele>734.0</ele><time>2026-05-03T12:57:56Z</time></trkpt><trkpt lat="44.46087260878975" lon="9.244654585808611"><ele>739.0</ele><time>2026-05-03T12:57:57Z</time></trkpt><trkpt lat="44.4609698376383" lon="9.244539641274741"><ele>744.0</ele><time>2026-05-03T12:57:58Z</time></trkpt><trkpt lat="44.46102576365165" lon="9.244467779025102"><ele>749.0</ele><time>2026-05-03T12:57:59Z</time></trkpt><trkpt lat="44.461098731551466" lon="9.24442827329155"><ele>754.0</ele><time>2026-05-03T12:58:00Z</time></trkpt><trkpt lat="44.461159176472584" lon="9.244480781339655"><ele>754.0</ele><time>2026-05-03T12:58:01Z</time></trkpt><trkpt lat="44.461163472606074" lon="9.244612409073165"><ele>754.0</ele><time>2026-05-03T12:58:02Z</time></trkpt><trkpt lat="44.461073807907134" lon="9.244712985791285"><ele>754.0</ele><time>2026-05-03T12:58:03Z</time></trkpt><trkpt lat="44.46098701986592" lon="9.24486215294214"><ele>754.0</ele><time>2026-05-03T12:58:04Z</time></trkpt><trkpt lat="44.4608837239546" lon="9.24500994333481"><ele>745.6666666666667</ele><time>2026-05-03T12:58:05Z</time></trkpt><trkpt lat="44.4607654431971" lon="9.245182443106941"><ele>737.3333333333334</ele><time>2026-05-03T12:58:06Z</time></trkpt><trkpt lat="44.46061826400063" lon="9.245347531726239"><ele>729.0</ele><time>2026-05-03T12:58:07Z</time></trkpt><trkpt lat="44.460452863100436" lon="9.245506250062643"><ele>725.6666666666666</ele><time>2026-05-03T12:58:08Z</time></trkpt><trkpt lat="44.460276392203134" lon="9.245679616358565"><ele>722.3333333333333</ele><time>2026-05-03T12:58:09Z</time></trkpt><trkpt lat="44.46010501628058" lon="9.245828998296876"><ele>719.0</ele><time>2026-05-03T12:58:10Z</time></trkpt><trkpt lat="44.459950334555515" lon="9.245982513274058"><ele>719.0</ele><time>2026-05-03T12:58:11Z</time></trkpt><trkpt lat="44.459842281184464" lon="9.246152150795655"><ele>719.0</ele><time>2026-05-03T12:58:12Z</time></trkpt><trkpt lat="44.45974971638477" lon="9.24635472698374"><ele>719.0</ele><time>2026-05-03T12:58:13Z</time></trkpt><trkpt lat="44.45970566224017" lon="9.246571756253095"><ele>715.0</ele><time>2026-05-03T12:58:14Z</time></trkpt><trkpt lat="44.45963813926081" lon="9.246741774396337"><ele>711.0</ele><time>2026-05-03T12:58:15Z</time></trkpt><trkpt lat="44.45952757181735" lon="9.246834404047775"><ele>707.0</ele><time>2026-05-03T12:58:16Z</time></trkpt><trkpt lat="44.45938057215943" lon="9.24690776835859"><ele>703.0</ele><time>2026-05-03T12:58:17Z</time></trkpt><trkpt lat="44.45923706512665" lon="9.246873488671682"><ele>703.0</ele><time>2026-05-03T12:58:18Z</time></trkpt><trkpt lat="44.459081841373596" lon="9.246792512899235"><ele>703.0</ele><time>2026-05-03T12:58:19Z</time></trkpt><trkpt lat="44.458886178559915" lon="9.246700275458416"><ele>703.0</ele><time>2026-05-03T12:58:20Z</time></trkpt><trkpt lat="44.45870300618183" lon="9.246609304702751"><ele>708.3333333333334</ele><time>2026-05-03T12:58:21Z</time></trkpt><trkpt lat="44.45853785322058" lon="9.246478496170104"><ele>713.6666666666666</ele><time>2026-05-03T12:58:22Z</time></trkpt><trkpt lat="44.458374004494466" lon="9.246324819535458"><ele>719.0</ele><time>2026-05-03T12:58:23Z</time></trkpt><trkpt lat="44.45821241606473" lon="9.246156701285038"><ele>719.0</ele><time>2026-05-03T12:58:24Z</time></trkpt><trkpt lat="44.45805408758054" lon="9.246015997371371"><ele>719.0</ele><time>2026-05-03T12:58:25Z</time></trkpt><trkpt lat="44.457895617680364" lon="9.245990129391531"><ele>719.0</ele><time>2026-05-03T12:58:26Z</time></trkpt><trkpt lat="44.45772772831329" lon="9.246042245185237"><ele>711.6666666666666</ele><time>2026-05-03T12:58:27Z</time></trkpt><trkpt lat="44.45751128127891" lon="9.246084237004476"><ele>704.3333333333334</ele><time>2026-05-03T12:58:28Z</time></trkpt><trkpt lat="44.45730277355101" lon="9.246136870533611"><ele>697.0</ele><time>2026-05-03T12:58:29Z</time></trkpt><trkpt lat="44.45708808600775" lon="9.246233034316411"><ele>694.0</ele><time>2026-05-03T12:58:30Z</time></trkpt><trkpt lat="44.45688464353442" lon="9.24630950824421"><ele>691.0</ele><time>2026-05-03T12:58:31Z</time></trkpt><trkpt lat="44.4566964214756" lon="9.246419404785033"><ele>688.0</ele><time>2026-05-03T12:58:32Z</time></trkpt><trkpt lat="44.456517129227805" lon="9.246619111726577"><ele>682.6666666666667</ele><time>2026-05-03T12:58:33Z</time></trkpt><trkpt lat="44.4563559761961" lon="9.246763921575923"><ele>677.3333333333334</ele><time>2026-05-03T12:58:34Z</time></trkpt><trkpt lat="44.456251355217944" lon="9.24686576859598"><ele>672.0</ele><time>2026-05-03T12:58:35Z</time></trkpt><trkpt lat="44.4561441787261" lon="9.246981070983091"><ele>672.0</ele><time>2026-05-03T12:58:36Z</time></trkpt><trkpt lat="44.45610987648496" lon="9.247071952675148"><ele>672.0</ele><time>2026-05-03T12:58:37Z</time></trkpt><trkpt lat="44.456128553028485" lon="9.247212642342994"><ele>672.0</ele><time>2026-05-03T12:58:38Z</time></trkpt><trkpt lat="44.4561980663191" lon="9.247313151722677"><ele>672.0</ele><time>2026-05-03T12:58:39Z</time></trkpt><trkpt lat="44.45633278686115" lon="9.247318146044389"><ele>672.0</ele><time>2026-05-03T12:58:40Z</time></trkpt><trkpt lat="44.45646390592309" lon="9.247266724892446"><ele>672.0</ele><time>2026-05-03T12:58:41Z</time></trkpt><trkpt lat="44.45660039737944" lon="9.247189645340537"><ele>672.0</ele><time>2026-05-03T12:58:42Z</time></trkpt><trkpt lat="44.456769414663746" lon="9.247143826244095"><ele>672.0</ele><time>2026-05-03T12:58:43Z</time></trkpt><trkpt lat="44.456958591769585" lon="9.247179440377888"><ele>672.0</ele><time>2026-05-03T12:58:44Z</time></trkpt><trkpt lat="44.45717557004357" lon="9.247266668234221"><ele>672.0</ele><time>2026-05-03T12:58:45Z</time></trkpt><trkpt lat="44.457397032985206" lon="9.247276520526825"><ele>672.0</ele><time>2026-05-03T12:58:46Z</time></trkpt><trkpt lat="44.45761710687654" lon="9.247278925472424"><ele>672.0</ele><time>2026-05-03T12:58:47Z</time></trkpt><trkpt lat="44.457823682378844" lon="9.247292854617113"><ele>672.0</ele><time>2026-05-03T12:58:48Z</time></trkpt><trkpt lat="44.45800803666516" lon="9.2473738221165"><ele>672.0</ele><time>2026-05-03T12:58:49Z</time></trkpt><trkpt lat="44.458135889151336" lon="9.247420362694351"><ele>668.75</ele><time>2026-05-03T12:58:50Z</time></trkpt><trkpt lat="44.45827767835352" lon="9.247474602568694"><ele>665.5</ele><time>2026-05-03T12:58:51Z</time></trkpt><trkpt lat="44.45836330486106" lon="9.247526549913914"><ele>662.25</ele><time>2026-05-03T12:58:52Z</time></trkpt><trkpt lat="44.458389225399465" lon="9.247698331593044"><ele>659.0</ele><time>2026-05-03T12:58:54Z</time></trkpt><trkpt lat="44.45829939196481" lon="9.247770145174808"><ele>659.0</ele><time>2026-05-03T12:58:55Z</time></trkpt><trkpt lat="44.458173700709175" lon="9.247729120251204"><ele>659.0</ele><time>2026-05-03T12:58:56Z</time></trkpt><trkpt lat="44.45806037356232" lon="9.247718852593264"><ele>659.0</ele><time>2026-05-03T12:58:57Z</time></trkpt><trkpt lat="44.4578911761888" lon="9.247704889438191"><ele>659.0</ele><time>2026-05-03T12:58:58Z</time></trkpt><trkpt lat="44.457704001910365" lon="9.247701637651454"><ele>659.0</ele><time>2026-05-03T12:58:59Z</time></trkpt><trkpt lat="44.45749376077633" lon="9.247754389900392"><ele>659.0</ele><time>2026-05-03T12:59:00Z</time></trkpt><trkpt lat="44.45729773930737" lon="9.247856222090782"><ele>659.0</ele><time>2026-05-03T12:59:01Z</time></trkpt><trkpt lat="44.45708579098781" lon="9.24801092885978"><ele>649.0</ele><time>2026-05-03T12:59:02Z</time></trkpt><trkpt lat="44.45687559628823" lon="9.248146937130949"><ele>639.0</ele><time>2026-05-03T12:59:03Z</time></trkpt><trkpt lat="44.456680534270184" lon="9.248274081621382"><ele>629.0</ele><time>2026-05-03T12:59:04Z</time></trkpt><trkpt lat="44.4564943273654" lon="9.248398333902985"><ele>629.0</ele><time>2026-05-03T12:59:05.001Z</time></trkpt><trkpt lat="44.45630665573677" lon="9.248536235365327"><ele>629.0</ele><time>2026-05-03T12:59:06.001Z</time></trkpt><trkpt lat="44.45614241684898" lon="9.248742591383191"><ele>629.0</ele><time>2026-05-03T12:59:07.001Z</time></trkpt><trkpt lat="44.455980302109644" lon="9.248912936211742"><ele>622.6666666666666</ele><time>2026-05-03T12:59:08.001Z</time></trkpt><trkpt lat="44.45581643072392" lon="9.249093510514436"><ele>616.3333333333334</ele><time>2026-05-03T12:59:09.001Z</time></trkpt><trkpt lat="44.45565539062763" lon="9.249269966846667"><ele>610.0</ele><time>2026-05-03T12:59:10Z</time></trkpt><trkpt lat="44.45549483133889" lon="9.249433272533508"><ele>607.0</ele><time>2026-05-03T12:59:11Z</time></trkpt><trkpt lat="44.45531393234243" lon="9.24956206646656"><ele>604.0</ele><time>2026-05-03T12:59:12Z</time></trkpt><trkpt lat="44.45510526438161" lon="9.249699914152608"><ele>601.0</ele><time>2026-05-03T12:59:13Z</time></trkpt><trkpt lat="44.454888504701216" lon="9.249856582933685"><ele>601.0</ele><time>2026-05-03T12:59:14Z</time></trkpt><trkpt lat="44.454690296555555" lon="9.250045676703262"><ele>601.0</ele><time>2026-05-03T12:59:15.001Z</time></trkpt><trkpt lat="44.45450593760754" lon="9.250222449353096"><ele>599.6666666666667</ele><time>2026-05-03T12:59:16.001Z</time></trkpt><trkpt lat="44.45432931381659" lon="9.250391501897184"><ele>598.3333333333334</ele><time>2026-05-03T12:59:17.001Z</time></trkpt><trkpt lat="44.45417596388343" lon="9.250535726346438"><ele>597.0</ele><time>2026-05-03T12:59:18.001Z</time></trkpt><trkpt lat="44.454059848369695" lon="9.250644148480701"><ele>597.0</ele><time>2026-05-03T12:59:19.001Z</time></trkpt><trkpt lat="44.45397114391549" lon="9.250740411552078"><ele>597.0</ele><time>2026-05-03T12:59:20.001Z</time></trkpt><trkpt lat="44.453924270663265" lon="9.250878368383582"><ele>597.0</ele><time>2026-05-03T12:59:21.001Z</time></trkpt><trkpt lat="44.45392422815111" lon="9.251013939697225"><ele>597.0</ele><time>2026-05-03T12:59:22.001Z</time></trkpt><trkpt lat="44.453990853751" lon="9.251131342948467"><ele>597.0</ele><time>2026-05-03T12:59:23.001Z</time></trkpt><trkpt lat="44.454109642877704" lon="9.251176059842466"><ele>597.0</ele><time>2026-05-03T12:59:24.001Z</time></trkpt><trkpt lat="44.45423511329644" lon="9.251131206499009"><ele>597.0</ele><time>2026-05-03T12:59:25.001Z</time></trkpt><trkpt lat="44.454354446920924" lon="9.25098892194721"><ele>597.0</ele><time>2026-05-03T12:59:26.001Z</time></trkpt><trkpt lat="44.454485671090154" lon="9.25085186205787"><ele>598.3333333333334</ele><time>2026-05-03T12:59:27.001Z</time></trkpt><trkpt lat="44.45463671841323" lon="9.250703253823847"><ele>599.6666666666667</ele><time>2026-05-03T12:59:28.001Z</time></trkpt><trkpt lat="44.45478549966192" lon="9.250548214233055"><ele>601.0</ele><time>2026-05-03T12:59:29.001Z</time></trkpt><trkpt lat="44.45492386146486" lon="9.250375673745438"><ele>601.0</ele><time>2026-05-03T12:59:30.001Z</time></trkpt><trkpt lat="44.455061919543716" lon="9.250249263898498"><ele>601.0</ele><time>2026-05-03T12:59:31.001Z</time></trkpt><trkpt lat="44.45524066342447" lon="9.250169351623052"><ele>601.0</ele><time>2026-05-03T12:59:32.001Z</time></trkpt><trkpt lat="44.455431755885854" lon="9.250102416721454"><ele>593.0</ele><time>2026-05-03T12:59:33.001Z</time></trkpt><trkpt lat="44.455642006473816" lon="9.25006846317215"><ele>585.0</ele><time>2026-05-03T12:59:34.001Z</time></trkpt><trkpt lat="44.45584001568323" lon="9.250035429359372"><ele>577.0</ele><time>2026-05-03T12:59:35.001Z</time></trkpt><trkpt lat="44.45600459516778" lon="9.249961938673124"><ele>577.0</ele><time>2026-05-03T12:59:36.001Z</time></trkpt><trkpt lat="44.456155455089394" lon="9.24982829627008"><ele>577.0</ele><time>2026-05-03T12:59:37.001Z</time></trkpt><trkpt lat="44.456348884659405" lon="9.249741543522045"><ele>577.0</ele><time>2026-05-03T12:59:38.001Z</time></trkpt><trkpt lat="44.45655185836483" lon="9.249735503669083"><ele>572.6666666666667</ele><time>2026-05-03T12:59:39Z</time></trkpt><trkpt lat="44.45674432211541" lon="9.249764404099707"><ele>568.3333333333334</ele><time>2026-05-03T12:59:40Z</time></trkpt><trkpt lat="44.45694022737457" lon="9.249787914927902"><ele>564.0</ele><time>2026-05-03T12:59:41Z</time></trkpt><trkpt lat="44.45714312558194" lon="9.24985526894303"><ele>564.0</ele><time>2026-05-03T12:59:42Z</time></trkpt><trkpt lat="44.45736702181272" lon="9.249975670991056"><ele>564.0</ele><time>2026-05-03T12:59:43Z</time></trkpt><trkpt lat="44.45757010713684" lon="9.250070622357422"><ele>564.0</ele><time>2026-05-03T12:59:44Z</time></trkpt><trkpt lat="44.45777658922722" lon="9.250118975339932"><ele>564.0</ele><time>2026-05-03T12:59:45Z</time></trkpt><trkpt lat="44.457984718373766" lon="9.250170633449605"><ele>564.0</ele><time>2026-05-03T12:59:46Z</time></trkpt><trkpt lat="44.45817890384887" lon="9.25023422856656"><ele>566.0</ele><time>2026-05-03T12:59:47Z</time></trkpt><trkpt lat="44.45833749622862" lon="9.25032632534926"><ele>568.0</ele><time>2026-05-03T12:59:48Z</time></trkpt><trkpt lat="44.45848446391283" lon="9.25038988442975"><ele>570.0</ele><time>2026-05-03T12:59:49Z</time></trkpt><trkpt lat="44.45860716218468" lon="9.250442947694065"><ele>570.0</ele><time>2026-05-03T12:59:50Z</time></trkpt><trkpt lat="44.45870491590579" lon="9.250464227844805"><ele>570.0</ele><time>2026-05-03T12:59:51Z</time></trkpt><trkpt lat="44.458781034321554" lon="9.250527426202808"><ele>570.0</ele><time>2026-05-03T12:59:52Z</time></trkpt><trkpt lat="44.45880880202001" lon="9.250657043365095"><ele>570.0</ele><time>2026-05-03T12:59:53Z</time></trkpt><trkpt lat="44.45879223239846" lon="9.250809322651738"><ele>570.0</ele><time>2026-05-03T12:59:54Z</time></trkpt><trkpt lat="44.458764766845675" lon="9.250934569468733"><ele>563.3333333333334</ele><time>2026-05-03T12:59:55Z</time></trkpt><trkpt lat="44.4585869202754" lon="9.250852364797247"><ele>556.6666666666667</ele><time>2026-05-03T12:59:56Z</time></trkpt><trkpt lat="44.45842524743735" lon="9.250848696594916"><ele>550.0</ele><time>2026-05-03T12:59:57Z</time></trkpt><trkpt lat="44.45825784329537" lon="9.250796921211506"><ele>550.0</ele><time>2026-05-03T12:59:58Z</time></trkpt><trkpt lat="44.458105902433786" lon="9.250689412410914"><ele>550.0</ele><time>2026-05-03T12:59:59Z</time></trkpt><trkpt lat="44.45796211865084" lon="9.250587460549713"><ele>550.0</ele><time>2026-05-03T13:00:00Z</time></trkpt><trkpt lat="44.45783680737469" lon="9.25055209930143"><ele>548.0</ele><time>2026-05-03T13:00:01Z</time></trkpt><trkpt lat="44.45775539913145" lon="9.250533481904622"><ele>546.0</ele><time>2026-05-03T13:00:02Z</time></trkpt><trkpt lat="44.4576701743633" lon="9.250637567794135"><ele>544.0</ele><time>2026-05-03T13:00:03Z</time></trkpt><trkpt lat="44.45764565745253" lon="9.250750895759198"><ele>542.0</ele><time>2026-05-03T13:00:04Z</time></trkpt><trkpt lat="44.45767680440967" lon="9.25090068282581"><ele>540.0</ele><time>2026-05-03T13:00:05Z</time></trkpt><trkpt lat="44.45776451251295" lon="9.25101438561179"><ele>540.0</ele><time>2026-05-03T13:00:06Z</time></trkpt><trkpt lat="44.457909694423044" lon="9.251090472964416"><ele>540.0</ele><time>2026-05-03T13:00:07Z</time></trkpt><trkpt lat="44.45805122290911" lon="9.251151243923852"><ele>540.0</ele><time>2026-05-03T13:00:08Z</time></trkpt><trkpt lat="44.45818808005496" lon="9.251239003539352"><ele>537.3333333333334</ele><time>2026-05-03T13:00:09Z</time></trkpt><trkpt lat="44.45835623755127" lon="9.251344918993489"><ele>534.6666666666667</ele><time>2026-05-03T13:00:10Z</time></trkpt><trkpt lat="44.45855230919367" lon="9.25142528186673"><ele>532.0</ele><time>2026-05-03T13:00:11Z</time></trkpt><trkpt lat="44.4587656270279" lon="9.251505298092319"><ele>531.3333333333334</ele><time>2026-05-03T13:00:12Z</time></trkpt><trkpt lat="44.458947329391215" lon="9.251560280399262"><ele>530.6666666666666</ele><time>2026-05-03T13:00:13Z</time></trkpt><trkpt lat="44.459100666133885" lon="9.251593790046908"><ele>530.0</ele><time>2026-05-03T13:00:14Z</time></trkpt><trkpt lat="44.45924267033281" lon="9.251587703011738"><ele>530.0</ele><time>2026-05-03T13:00:15Z</time></trkpt><trkpt lat="44.45936140997474" lon="9.251475031864615"><ele>530.0</ele><time>2026-05-03T13:00:16Z</time></trkpt><trkpt lat="44.45951594730492" lon="9.251249097691636"><ele>530.0</ele><time>2026-05-03T13:00:17Z</time></trkpt><trkpt lat="44.45969561112843" lon="9.251150117283784"><ele>534.0</ele><time>2026-05-03T13:00:18Z</time></trkpt><trkpt lat="44.4598747073376" lon="9.251088544398243"><ele>538.0</ele><time>2026-05-03T13:00:19Z</time></trkpt><trkpt lat="44.460061499987354" lon="9.25102143813832"><ele>542.0</ele><time>2026-05-03T13:00:20Z</time></trkpt><trkpt lat="44.46024040932516" lon="9.250969946473589"><ele>542.0</ele><time>2026-05-03T13:00:21Z</time></trkpt><trkpt lat="44.460366069460896" lon="9.250891090195818"><ele>542.0</ele><time>2026-05-03T13:00:22Z</time></trkpt><trkpt lat="44.460471917148645" lon="9.250702449818142"><ele>542.0</ele><time>2026-05-03T13:00:23Z</time></trkpt><trkpt lat="44.4605328187677" lon="9.2505814873611"><ele>542.0</ele><time>2026-05-03T13:00:24Z</time></trkpt><trkpt lat="44.46058051929928" lon="9.250428121376407"><ele>541.0</ele><time>2026-05-03T13:00:25Z</time></trkpt><trkpt lat="44.46063673999837" lon="9.250330498236771"><ele>540.0</ele><time>2026-05-03T13:00:26Z</time></trkpt><trkpt lat="44.46073213765517" lon="9.25031043732401"><ele>539.0</ele><time>2026-05-03T13:00:27Z</time></trkpt><trkpt lat="44.46077788315691" lon="9.250563844552826"><ele>538.0</ele><time>2026-05-03T13:00:28Z</time></trkpt><trkpt lat="44.46072480922214" lon="9.250665000321273"><ele>539.3333333333334</ele><time>2026-05-03T13:00:29Z</time></trkpt><trkpt lat="44.46065622830263" lon="9.250774464694656"><ele>540.6666666666666</ele><time>2026-05-03T13:00:30Z</time></trkpt><trkpt lat="44.46056295863237" lon="9.250920327592786"><ele>542.0</ele><time>2026-05-03T13:00:31Z</time></trkpt><trkpt lat="44.460390971840695" lon="9.25110073989667"><ele>542.0</ele><time>2026-05-03T13:00:32Z</time></trkpt><trkpt lat="44.460241831375434" lon="9.251265675670856"><ele>542.0</ele><time>2026-05-03T13:00:33Z</time></trkpt><trkpt lat="44.46009541959858" lon="9.25142674191159"><ele>542.0</ele><time>2026-05-03T13:00:34Z</time></trkpt><trkpt lat="44.45995170204252" lon="9.251645641516852"><ele>533.3333333333333</ele><time>2026-05-03T13:00:35Z</time></trkpt><trkpt lat="44.45984351581206" lon="9.251935061227183"><ele>524.6666666666666</ele><time>2026-05-03T13:00:36Z</time></trkpt><trkpt lat="44.459768355304945" lon="9.252196757529077"><ele>516.0</ele><time>2026-05-03T13:00:37Z</time></trkpt><trkpt lat="44.459683143522966" lon="9.25245561913634"><ele>514.3333333333334</ele><time>2026-05-03T13:00:38Z</time></trkpt><trkpt lat="44.459573322518814" lon="9.252702640769739"><ele>512.6666666666667</ele><time>2026-05-03T13:00:39Z</time></trkpt><trkpt lat="44.4594416123647" lon="9.252879964774376"><ele>511.0</ele><time>2026-05-03T13:00:40Z</time></trkpt><trkpt lat="44.45932079371972" lon="9.252996296236342"><ele>511.0</ele><time>2026-05-03T13:00:41Z</time></trkpt><trkpt lat="44.459192610158034" lon="9.253030798211553"><ele>511.0</ele><time>2026-05-03T13:00:42Z</time></trkpt><trkpt lat="44.4590575850808" lon="9.253008009120283"><ele>511.0</ele><time>2026-05-03T13:00:43Z</time></trkpt><trkpt lat="44.45889179763467" lon="9.252966909665913"><ele>511.0</ele><time>2026-05-03T13:00:44Z</time></trkpt><trkpt lat="44.45867201754112" lon="9.252913056114847"><ele>507.6666666666667</ele><time>2026-05-03T13:00:45Z</time></trkpt><trkpt lat="44.45845860194735" lon="9.252859994883904"><ele>504.33333333333337</ele><time>2026-05-03T13:00:46Z</time></trkpt><trkpt lat="44.458246178840085" lon="9.252804501246272"><ele>501.0</ele><time>2026-05-03T13:00:47Z</time></trkpt><trkpt lat="44.45805602050873" lon="9.252750704017231"><ele>498.5</ele><time>2026-05-03T13:00:48Z</time></trkpt><trkpt lat="44.45790735690628" lon="9.252657533943275"><ele>496.0</ele><time>2026-05-03T13:00:49Z</time></trkpt><trkpt lat="44.457804779568406" lon="9.252500855831421"><ele>493.5</ele><time>2026-05-03T13:00:50Z</time></trkpt><trkpt lat="44.457708458797164" lon="9.252402209075425"><ele>491.0</ele><time>2026-05-03T13:00:51Z</time></trkpt><trkpt lat="44.45763670723197" lon="9.252355390946441"><ele>491.0</ele><time>2026-05-03T13:00:52Z</time></trkpt><trkpt lat="44.45753142302249" lon="9.252404948550254"><ele>491.0</ele><time>2026-05-03T13:00:53Z</time></trkpt><trkpt lat="44.45743116997169" lon="9.252552401591043"><ele>491.0</ele><time>2026-05-03T13:00:54Z</time></trkpt><trkpt lat="44.45734458776624" lon="9.25272026224298"><ele>491.0</ele><time>2026-05-03T13:00:55Z</time></trkpt><trkpt lat="44.45720951418877" lon="9.252849105123609"><ele>489.25</ele><time>2026-05-03T13:00:56Z</time></trkpt><trkpt lat="44.45707955164564" lon="9.252862700760142"><ele>487.5</ele><time>2026-05-03T13:00:57Z</time></trkpt><trkpt lat="44.456944797785816" lon="9.252928044125815"><ele>485.75</ele><time>2026-05-03T13:00:58Z</time></trkpt><trkpt lat="44.456877629162086" lon="9.253091946567812"><ele>484.0</ele><time>2026-05-03T13:00:59Z</time></trkpt><trkpt lat="44.45686183536055" lon="9.253280917537326"><ele>484.0</ele><time>2026-05-03T13:01:00Z</time></trkpt><trkpt lat="44.45681721608911" lon="9.253468275655145"><ele>484.0</ele><time>2026-05-03T13:01:01Z</time></trkpt><trkpt lat="44.45669569495745" lon="9.25361829051151"><ele>484.0</ele><time>2026-05-03T13:01:02Z</time></trkpt><trkpt lat="44.456548911493165" lon="9.253780848714388"><ele>484.0</ele><time>2026-05-03T13:01:03Z</time></trkpt><trkpt lat="44.45640420225291" lon="9.253938230852098"><ele>484.0</ele><time>2026-05-03T13:01:04Z</time></trkpt><trkpt lat="44.456260371590005" lon="9.25410338592666"><ele>484.0</ele><time>2026-05-03T13:01:05Z</time></trkpt><trkpt lat="44.456087934330434" lon="9.25418689075998"><ele>482.0</ele><time>2026-05-03T13:01:06Z</time></trkpt><trkpt lat="44.45592742438026" lon="9.254238251961226"><ele>480.0</ele><time>2026-05-03T13:01:07Z</time></trkpt><trkpt lat="44.4557710990579" lon="9.25425648982671"><ele>478.0</ele><time>2026-05-03T13:01:08Z</time></trkpt><trkpt lat="44.455670962907185" lon="9.25428145042343"><ele>476.0</ele><time>2026-05-03T13:01:09Z</time></trkpt><trkpt lat="44.45561685640482" lon="9.254338824352851"><ele>476.0</ele><time>2026-05-03T13:01:10Z</time></trkpt><trkpt lat="44.45563201066551" lon="9.254455372744696"><ele>476.0</ele><time>2026-05-03T13:01:11.001Z</time></trkpt><trkpt lat="44.455695351224165" lon="9.254544116599288"><ele>476.0</ele><time>2026-05-03T13:01:12.001Z</time></trkpt><trkpt lat="44.45579491139235" lon="9.254631650620272"><ele>476.0</ele><time>2026-05-03T13:01:13.001Z</time></trkpt><trkpt lat="44.455887654404584" lon="9.254617742805308"><ele>476.0</ele><time>2026-05-03T13:01:14.001Z</time></trkpt><trkpt lat="44.455993785428916" lon="9.25452966091375"><ele>476.0</ele><time>2026-05-03T13:01:15.001Z</time></trkpt><trkpt lat="44.45613922476362" lon="9.254452362473181"><ele>476.0</ele><time>2026-05-03T13:01:16.001Z</time></trkpt><trkpt lat="44.45631511949282" lon="9.254399047684755"><ele>476.0</ele><time>2026-05-03T13:01:17.001Z</time></trkpt><trkpt lat="44.4564971043664" lon="9.254394658724738"><ele>469.66666666666663</ele><time>2026-05-03T13:01:18.001Z</time></trkpt><trkpt lat="44.45665557149132" lon="9.254367065988488"><ele>463.33333333333337</ele><time>2026-05-03T13:01:19.001Z</time></trkpt><trkpt lat="44.45680663223692" lon="9.254252013533298"><ele>457.0</ele><time>2026-05-03T13:01:20.001Z</time></trkpt><trkpt lat="44.456946287365525" lon="9.254087921190564"><ele>459.0</ele><time>2026-05-03T13:01:21.001Z</time></trkpt><trkpt lat="44.45704532599937" lon="9.253913964680734"><ele>461.0</ele><time>2026-05-03T13:01:22.001Z</time></trkpt><trkpt lat="44.457144020747855" lon="9.253736870735478"><ele>463.0</ele><time>2026-05-03T13:01:23.001Z</time></trkpt><trkpt lat="44.457241152913326" lon="9.253618000100397"><ele>465.0</ele><time>2026-05-03T13:01:24.001Z</time></trkpt><trkpt lat="44.45737612862353" lon="9.25356202520351"><ele>465.0</ele><time>2026-05-03T13:01:25.001Z</time></trkpt><trkpt lat="44.45752207258544" lon="9.253501165102419"><ele>465.0</ele><time>2026-05-03T13:01:26.001Z</time></trkpt><trkpt lat="44.457623472402645" lon="9.253506380001248"><ele>465.0</ele><time>2026-05-03T13:01:27.001Z</time></trkpt><trkpt lat="44.4577222682162" lon="9.253577228634123"><ele>465.0</ele><time>2026-05-03T13:01:28.001Z</time></trkpt><trkpt lat="44.457753887413844" lon="9.253765997463896"><ele>465.0</ele><time>2026-05-03T13:01:29.001Z</time></trkpt><trkpt lat="44.45772485102485" lon="9.253941470813315"><ele>465.0</ele><time>2026-05-03T13:01:30.001Z</time></trkpt><trkpt lat="44.457756079013706" lon="9.254135665755392"><ele>465.0</ele><time>2026-05-03T13:01:31.001Z</time></trkpt><trkpt lat="44.457873831287365" lon="9.25422979918429"><ele>465.0</ele><time>2026-05-03T13:01:32.001Z</time></trkpt><trkpt lat="44.45802819233981" lon="9.254234777466635"><ele>458.0</ele><time>2026-05-03T13:01:33.001Z</time></trkpt><trkpt lat="44.45816763276767" lon="9.254222682900343"><ele>451.0</ele><time>2026-05-03T13:01:34.001Z</time></trkpt><trkpt lat="44.458324757082735" lon="9.254296290540927"><ele>444.0</ele><time>2026-05-03T13:01:35.001Z</time></trkpt><trkpt lat="44.458471617986355" lon="9.254410850507828"><ele>444.0</ele><time>2026-05-03T13:01:36.001Z</time></trkpt><trkpt lat="44.458636815529346" lon="9.2544314060486"><ele>444.0</ele><time>2026-05-03T13:01:37.001Z</time></trkpt><trkpt lat="44.45880533833318" lon="9.254396311941877"><ele>444.0</ele><time>2026-05-03T13:01:38.001Z</time></trkpt><trkpt lat="44.45896969234426" lon="9.254419480771775"><ele>444.0</ele><time>2026-05-03T13:01:39.001Z</time></trkpt><trkpt lat="44.45912852778427" lon="9.254448311049103"><ele>444.0</ele><time>2026-05-03T13:01:40.001Z</time></trkpt><trkpt lat="44.45925413208769" lon="9.254528907682937"><ele>444.0</ele><time>2026-05-03T13:01:41.001Z</time></trkpt><trkpt lat="44.459370248459514" lon="9.25458984737412"><ele>444.0</ele><time>2026-05-03T13:01:42.001Z</time></trkpt><trkpt lat="44.45944157968285" lon="9.254671287053185"><ele>444.0</ele><time>2026-05-03T13:01:43.001Z</time></trkpt><trkpt lat="44.459418960597304" lon="9.254762688962924"><ele>444.0</ele><time>2026-05-03T13:01:44.001Z</time></trkpt><trkpt lat="44.45934855486614" lon="9.254875729979151"><ele>444.0</ele><time>2026-05-03T13:01:45.001Z</time></trkpt><trkpt lat="44.459226092031145" lon="9.254908495799947"><ele>444.0</ele><time>2026-05-03T13:01:46.001Z</time></trkpt><trkpt lat="44.45905696385425" lon="9.254924007626332"><ele>437.5</ele><time>2026-05-03T13:01:47.001Z</time></trkpt><trkpt lat="44.458920490446936" lon="9.255012045233787"><ele>431.0</ele><time>2026-05-03T13:01:48.001Z</time></trkpt><trkpt lat="44.45880279191564" lon="9.255133198277308"><ele>424.5</ele><time>2026-05-03T13:01:49.001Z</time></trkpt><trkpt lat="44.45868398274357" lon="9.255222634926856"><ele>418.0</ele><time>2026-05-03T13:01:50.001Z</time></trkpt><trkpt lat="44.4585764817406" lon="9.255211755717387"><ele>417.0</ele><time>2026-05-03T13:01:51.001Z</time></trkpt><trkpt lat="44.458424551912174" lon="9.255185507637993"><ele>416.0</ele><time>2026-05-03T13:01:52.001Z</time></trkpt><trkpt lat="44.4582338652406" lon="9.255119980245302"><ele>415.0</ele><time>2026-05-03T13:01:53.001Z</time></trkpt><trkpt lat="44.45806954516297" lon="9.255095795419695"><ele>414.25</ele><time>2026-05-03T13:01:54.001Z</time></trkpt><trkpt lat="44.457942416584785" lon="9.254983416668626"><ele>413.5</ele><time>2026-05-03T13:01:55.001Z</time></trkpt><trkpt lat="44.457867846885556" lon="9.254858193813142"><ele>412.75</ele><time>2026-05-03T13:01:56Z</time></trkpt><trkpt lat="44.45777819888396" lon="9.254718349777233"><ele>412.0</ele><time>2026-05-03T13:01:57Z</time></trkpt><trkpt lat="44.45767952684565" lon="9.25461586656227"><ele>412.0</ele><time>2026-05-03T13:01:58Z</time></trkpt><trkpt lat="44.45757007891587" lon="9.254595103773127"><ele>412.0</ele><time>2026-05-03T13:01:59Z</time></trkpt><trkpt lat="44.45746432879726" lon="9.254697563205891"><ele>412.0</ele><time>2026-05-03T13:02:00Z</time></trkpt><trkpt lat="44.45740107548629" lon="9.254890441177677"><ele>412.0</ele><time>2026-05-03T13:02:01Z</time></trkpt><trkpt lat="44.45732952051243" lon="9.255124892142474"><ele>412.0</ele><time>2026-05-03T13:02:02Z</time></trkpt><trkpt lat="44.457262486262536" lon="9.255351033573016"><ele>412.0</ele><time>2026-05-03T13:02:03Z</time></trkpt><trkpt lat="44.457185901062985" lon="9.255551006725529"><ele>412.0</ele><time>2026-05-03T13:02:04Z</time></trkpt><trkpt lat="44.457079113956894" lon="9.255714581537802"><ele>409.6666666666667</ele><time>2026-05-03T13:02:05Z</time></trkpt><trkpt lat="44.45694086440821" lon="9.255821860184309"><ele>407.33333333333337</ele><time>2026-05-03T13:02:06Z</time></trkpt><trkpt lat="44.45677543543535" lon="9.255975561717053"><ele>405.0</ele><time>2026-05-03T13:02:07Z</time></trkpt><trkpt lat="44.456609095065176" lon="9.256121126602826"><ele>405.0</ele><time>2026-05-03T13:02:08Z</time></trkpt><trkpt lat="44.45647613858856" lon="9.25623561967552"><ele>405.0</ele><time>2026-05-03T13:02:09Z</time></trkpt><trkpt lat="44.45635024152517" lon="9.25629979529595"><ele>405.0</ele><time>2026-05-03T13:02:10Z</time></trkpt><trkpt lat="44.45624373717543" lon="9.256269068088502"><ele>405.0</ele><time>2026-05-03T13:02:11Z</time></trkpt><trkpt lat="44.45609619805342" lon="9.256132798164625"><ele>406.0</ele><time>2026-05-03T13:02:12Z</time></trkpt><trkpt lat="44.455908282681186" lon="9.256076688426141"><ele>407.0</ele><time>2026-05-03T13:02:13Z</time></trkpt><trkpt lat="44.45572384210963" lon="9.256071840092089"><ele>408.0</ele><time>2026-05-03T13:02:14Z</time></trkpt><trkpt lat="44.45558016777868" lon="9.256084555755246"><ele>408.0</ele><time>2026-05-03T13:02:15Z</time></trkpt><trkpt lat="44.45547199792338" lon="9.256083736902315"><ele>408.0</ele><time>2026-05-03T13:02:16Z</time></trkpt><trkpt lat="44.45540600833406" lon="9.256121008365264"><ele>408.0</ele><time>2026-05-03T13:02:17Z</time></trkpt><trkpt lat="44.45539491473709" lon="9.256371005769951"><ele>408.0</ele><time>2026-05-03T13:02:19Z</time></trkpt><trkpt lat="44.45546421145456" lon="9.256473456067278"><ele>408.0</ele><time>2026-05-03T13:02:20Z</time></trkpt><trkpt lat="44.45557386843087" lon="9.256496224099415"><ele>408.0</ele><time>2026-05-03T13:02:21Z</time></trkpt><trkpt lat="44.455692320283234" lon="9.256427685666631"><ele>408.0</ele><time>2026-05-03T13:02:22Z</time></trkpt><trkpt lat="44.45581546685345" lon="9.256344735226511"><ele>408.0</ele><time>2026-05-03T13:02:23Z</time></trkpt><trkpt lat="44.45593088884178" lon="9.256342227508718"><ele>408.0</ele><time>2026-05-03T13:02:24Z</time></trkpt><trkpt lat="44.45602872181839" lon="9.25644252561066"><ele>408.0</ele><time>2026-05-03T13:02:25Z</time></trkpt><trkpt lat="44.456103378865706" lon="9.256615454299501"><ele>408.0</ele><time>2026-05-03T13:02:26Z</time></trkpt><trkpt lat="44.45618856697919" lon="9.256741500983123"><ele>408.0</ele><time>2026-05-03T13:02:27Z</time></trkpt><trkpt lat="44.45629262251055" lon="9.256763204914197"><ele>396.6666666666667</ele><time>2026-05-03T13:02:28Z</time></trkpt><trkpt lat="44.45641107301497" lon="9.256688031097307"><ele>385.33333333333337</ele><time>2026-05-03T13:02:29Z</time></trkpt><trkpt lat="44.45654390671721" lon="9.256541835945406"><ele>374.0</ele><time>2026-05-03T13:02:30Z</time></trkpt><trkpt lat="44.45669609664181" lon="9.256505558041711"><ele>374.0</ele><time>2026-05-03T13:02:31Z</time></trkpt><trkpt lat="44.4568790307873" lon="9.256468454025661"><ele>374.0</ele><time>2026-05-03T13:02:32Z</time></trkpt><trkpt lat="44.45704859465674" lon="9.256433324537934"><ele>374.0</ele><time>2026-05-03T13:02:33Z</time></trkpt><trkpt lat="44.45719156995248" lon="9.256370580064871"><ele>377.75</ele><time>2026-05-03T13:02:34Z</time></trkpt><trkpt lat="44.45728486215965" lon="9.256284958269534"><ele>381.5</ele><time>2026-05-03T13:02:35Z</time></trkpt><trkpt lat="44.457348144879596" lon="9.256126000919735"><ele>385.25</ele><time>2026-05-03T13:02:36Z</time></trkpt><trkpt lat="44.457389154257434" lon="9.255929010892391"><ele>389.0</ele><time>2026-05-03T13:02:37Z</time></trkpt><trkpt lat="44.457468512372714" lon="9.255801829274112"><ele>389.0</ele><time>2026-05-03T13:02:38Z</time></trkpt><trkpt lat="44.457570681467985" lon="9.255707285542265"><ele>389.0</ele><time>2026-05-03T13:02:39Z</time></trkpt><trkpt lat="44.45767346350675" lon="9.255654981490324"><ele>389.0</ele><time>2026-05-03T13:02:40Z</time></trkpt><trkpt lat="44.45777285515204" lon="9.255713208205883"><ele>389.0</ele><time>2026-05-03T13:02:41Z</time></trkpt><trkpt lat="44.457873835843074" lon="9.255879743822183"><ele>389.0</ele><time>2026-05-03T13:02:42Z</time></trkpt><trkpt lat="44.45794490727501" lon="9.25605937897747"><ele>389.0</ele><time>2026-05-03T13:02:43Z</time></trkpt><trkpt lat="44.45803354190013" lon="9.256177597163756"><ele>389.0</ele><time>2026-05-03T13:02:44Z</time></trkpt><trkpt lat="44.458143796256664" lon="9.256187064521303"><ele>389.0</ele><time>2026-05-03T13:02:45Z</time></trkpt><trkpt lat="44.45830064161277" lon="9.25612639501772"><ele>389.0</ele><time>2026-05-03T13:02:46Z</time></trkpt><trkpt lat="44.45845689118765" lon="9.256099927915654"><ele>389.0</ele><time>2026-05-03T13:02:47Z</time></trkpt><trkpt lat="44.45861964049556" lon="9.256148909306056"><ele>389.0</ele><time>2026-05-03T13:02:48Z</time></trkpt><trkpt lat="44.45877691805355" lon="9.256238061910835"><ele>390.66666666666663</ele><time>2026-05-03T13:02:49Z</time></trkpt><trkpt lat="44.458942510309484" lon="9.256368412801763"><ele>392.33333333333337</ele><time>2026-05-03T13:02:50Z</time></trkpt><trkpt lat="44.459070350555066" lon="9.256449857441677"><ele>394.0</ele><time>2026-05-03T13:02:51Z</time></trkpt><trkpt lat="44.45919001994798" lon="9.256450196129235"><ele>394.0</ele><time>2026-05-03T13:02:52Z</time></trkpt><trkpt lat="44.45932789733244" lon="9.25641133508838"><ele>394.0</ele><time>2026-05-03T13:02:53Z</time></trkpt><trkpt lat="44.45948214881371" lon="9.25637202076647"><ele>394.0</ele><time>2026-05-03T13:02:54Z</time></trkpt><trkpt lat="44.45962832782496" lon="9.256411444250594"><ele>394.0</ele><time>2026-05-03T13:02:55Z</time></trkpt><trkpt lat="44.45969866380339" lon="9.256502823757739"><ele>391.2</ele><time>2026-05-03T13:02:56Z</time></trkpt><trkpt lat="44.45973267346904" lon="9.25663928113321"><ele>388.4</ele><time>2026-05-03T13:02:57Z</time></trkpt><trkpt lat="44.459778255776385" lon="9.256775186566495"><ele>385.6</ele><time>2026-05-03T13:02:58Z</time></trkpt><trkpt lat="44.459764103322065" lon="9.25689993555107"><ele>382.8</ele><time>2026-05-03T13:02:59Z</time></trkpt><trkpt lat="44.45978715689712" lon="9.257101475907263"><ele>380.0</ele><time>2026-05-03T13:03:00Z</time></trkpt><trkpt lat="44.45989012403899" lon="9.257349607873781"><ele>378.25</ele><time>2026-05-03T13:03:01Z</time></trkpt><trkpt lat="44.45995376168732" lon="9.25753011722577"><ele>376.5</ele><time>2026-05-03T13:03:02Z</time></trkpt><trkpt lat="44.45996937144761" lon="9.257720190981388"><ele>374.75</ele><time>2026-05-03T13:03:03Z</time></trkpt><trkpt lat="44.459942047208955" lon="9.257843308443706"><ele>373.0</ele><time>2026-05-03T13:03:04Z</time></trkpt><trkpt lat="44.459873429964695" lon="9.257992886695137"><ele>373.0</ele><time>2026-05-03T13:03:05Z</time></trkpt><trkpt lat="44.459757594415045" lon="9.258018078666764"><ele>373.0</ele><time>2026-05-03T13:03:06Z</time></trkpt><trkpt lat="44.459664526365565" lon="9.257966466741593"><ele>373.0</ele><time>2026-05-03T13:03:07Z</time></trkpt><trkpt lat="44.459577832435926" lon="9.257858421461236"><ele>373.0</ele><time>2026-05-03T13:03:08Z</time></trkpt><trkpt lat="44.45949232728981" lon="9.257703231183077"><ele>368.66666666666663</ele><time>2026-05-03T13:03:09Z</time></trkpt><trkpt lat="44.45935375352747" lon="9.257581501169447"><ele>364.3333333333333</ele><time>2026-05-03T13:03:10Z</time></trkpt><trkpt lat="44.45921217567562" lon="9.257503088969262"><ele>360.0</ele><time>2026-05-03T13:03:11Z</time></trkpt><trkpt lat="44.45899043864418" lon="9.257496376198672"><ele>360.0</ele><time>2026-05-03T13:03:12Z</time></trkpt><trkpt lat="44.458807811255795" lon="9.257536581174781"><ele>360.0</ele><time>2026-05-03T13:03:13Z</time></trkpt><trkpt lat="44.45865011023245" lon="9.257624602808844"><ele>360.0</ele><time>2026-05-03T13:03:14Z</time></trkpt><trkpt lat="44.45848947613605" lon="9.257786411065869"><ele>360.3333333333333</ele><time>2026-05-03T13:03:15Z</time></trkpt><trkpt lat="44.45834177432572" lon="9.257979552775794"><ele>360.66666666666663</ele><time>2026-05-03T13:03:16Z</time></trkpt><trkpt lat="44.458182213442484" lon="9.258202764612388"><ele>361.0</ele><time>2026-05-03T13:03:17.001Z</time></trkpt><trkpt lat="44.45802084713766" lon="9.258352995159962"><ele>355.3333333333333</ele><time>2026-05-03T13:03:18.001Z</time></trkpt><trkpt lat="44.457825436293966" lon="9.258435255743416"><ele>349.6666666666667</ele><time>2026-05-03T13:03:19.001Z</time></trkpt><trkpt lat="44.45761369212593" lon="9.25850604704977"><ele>344.0</ele><time>2026-05-03T13:03:20.001Z</time></trkpt><trkpt lat="44.45738309156424" lon="9.258591980572279"><ele>344.0</ele><time>2026-05-03T13:03:21.001Z</time></trkpt><trkpt lat="44.45717854506127" lon="9.258683232397551"><ele>344.0</ele><time>2026-05-03T13:03:22.001Z</time></trkpt><trkpt lat="44.45699254515683" lon="9.25878888903527"><ele>344.0</ele><time>2026-05-03T13:03:23.001Z</time></trkpt><trkpt lat="44.45681159222654" lon="9.258904094972745"><ele>343.0</ele><time>2026-05-03T13:03:24.001Z</time></trkpt><trkpt lat="44.45663084239723" lon="9.259077718612815"><ele>342.0</ele><time>2026-05-03T13:03:25.001Z</time></trkpt><trkpt lat="44.45645272061527" lon="9.259297964624102"><ele>342.0</ele><time>2026-05-03T13:03:26.001Z</time></trkpt><trkpt lat="44.456301512964984" lon="9.259467585270889"><ele>342.0</ele><time>2026-05-03T13:03:27.001Z</time></trkpt><trkpt lat="44.45614803089194" lon="9.259634766324355"><ele>342.0</ele><time>2026-05-03T13:03:28.001Z</time></trkpt><trkpt lat="44.45598484297402" lon="9.25976041222409"><ele>344.0</ele><time>2026-05-03T13:03:29.001Z</time></trkpt><trkpt lat="44.45578100723272" lon="9.259780593034753"><ele>346.0</ele><time>2026-05-03T13:03:30.001Z</time></trkpt><trkpt lat="44.455609728051186" lon="9.259867392639737"><ele>348.0</ele><time>2026-05-03T13:03:31.001Z</time></trkpt><trkpt lat="44.455449639618436" lon="9.259928976151762"><ele>343.2</ele><time>2026-05-03T13:03:32.001Z</time></trkpt><trkpt lat="44.45532449918442" lon="9.260000009517611"><ele>338.4</ele><time>2026-05-03T13:03:33.001Z</time></trkpt><trkpt lat="44.45524243067073" lon="9.260074629633378"><ele>333.59999999999997</ele><time>2026-05-03T13:03:34.001Z</time></trkpt><trkpt lat="44.45521039438301" lon="9.260192088752138"><ele>328.79999999999995</ele><time>2026-05-03T13:03:35.001Z</time></trkpt><trkpt lat="44.45523827666206" lon="9.260339765905263"><ele>324.0</ele><time>2026-05-03T13:03:36.001Z</time></trkpt><trkpt lat="44.455308846171945" lon="9.260508673126472"><ele>327.0</ele><time>2026-05-03T13:03:37.001Z</time></trkpt><trkpt lat="44.455365629516834" lon="9.260725403832483"><ele>330.0</ele><time>2026-05-03T13:03:38.001Z</time></trkpt><trkpt lat="44.455413919461115" lon="9.260916836780117"><ele>333.0</ele><time>2026-05-03T13:03:39.001Z</time></trkpt><trkpt lat="44.45543202165707" lon="9.261051293430564"><ele>336.0</ele><time>2026-05-03T13:03:40.001Z</time></trkpt><trkpt lat="44.4553940141031" lon="9.26115176392881"><ele>336.0</ele><time>2026-05-03T13:03:41.001Z</time></trkpt><trkpt lat="44.45530005042571" lon="9.261192692242478"><ele>336.0</ele><time>2026-05-03T13:03:42.001Z</time></trkpt><trkpt lat="44.455201251551834" lon="9.261131409459386"><ele>336.0</ele><time>2026-05-03T13:03:43.001Z</time></trkpt><trkpt lat="44.455117561856675" lon="9.260986278080438"><ele>336.0</ele><time>2026-05-03T13:03:44.001Z</time></trkpt><trkpt lat="44.455038572872226" lon="9.260796459726764"><ele>336.0</ele><time>2026-05-03T13:03:45.001Z</time></trkpt><trkpt lat="44.454938971591574" lon="9.260621403334126"><ele>336.0</ele><time>2026-05-03T13:03:46.001Z</time></trkpt><trkpt lat="44.45481502045813" lon="9.260459727992076"><ele>336.0</ele><time>2026-05-03T13:03:47.001Z</time></trkpt><trkpt lat="44.454677500214366" lon="9.260285898465776"><ele>330.3333333333333</ele><time>2026-05-03T13:03:48Z</time></trkpt><trkpt lat="44.45455508341879" lon="9.260116568931004"><ele>324.66666666666663</ele><time>2026-05-03T13:03:49Z</time></trkpt><trkpt lat="44.45444512709416" lon="9.25995759437477"><ele>319.0</ele><time>2026-05-03T13:03:50Z</time></trkpt><trkpt lat="44.45435361702862" lon="9.259837683876972"><ele>319.0</ele><time>2026-05-03T13:03:51Z</time></trkpt><trkpt lat="44.45425361667292" lon="9.259772261434634"><ele>319.0</ele><time>2026-05-03T13:03:52Z</time></trkpt><trkpt lat="44.45413819626701" lon="9.259778647291062"><ele>319.0</ele><time>2026-05-03T13:03:53Z</time></trkpt><trkpt lat="44.45399913022085" lon="9.259855759500278"><ele>319.0</ele><time>2026-05-03T13:03:54Z</time></trkpt><trkpt lat="44.45385973809081" lon="9.259937946874285"><ele>314.25</ele><time>2026-05-03T13:03:55Z</time></trkpt><trkpt lat="44.45374082538254" lon="9.260000372119157"><ele>309.5</ele><time>2026-05-03T13:03:56Z</time></trkpt><trkpt lat="44.45365081937869" lon="9.260085519551199"><ele>304.75</ele><time>2026-05-03T13:03:57Z</time></trkpt><trkpt lat="44.4535939681508" lon="9.26021710596052"><ele>300.0</ele><time>2026-05-03T13:03:58Z</time></trkpt><trkpt lat="44.45358775286094" lon="9.260397430348746"><ele>300.0</ele><time>2026-05-03T13:03:59Z</time></trkpt><trkpt lat="44.45361230105967" lon="9.260621247962737"><ele>300.0</ele><time>2026-05-03T13:04:00Z</time></trkpt><trkpt lat="44.45360954671782" lon="9.260852992466814"><ele>300.0</ele><time>2026-05-03T13:04:01Z</time></trkpt><trkpt lat="44.45361105228299" lon="9.26105822209051"><ele>300.0</ele><time>2026-05-03T13:04:02Z</time></trkpt><trkpt lat="44.45359134732608" lon="9.261233563480669"><ele>300.0</ele><time>2026-05-03T13:04:02.999Z</time></trkpt><trkpt lat="44.45353195916955" lon="9.261374131647178"><ele>300.0</ele><time>2026-05-03T13:04:03.999Z</time></trkpt><trkpt lat="44.45343467282596" lon="9.261480384427387"><ele>300.0</ele><time>2026-05-03T13:04:04.999Z</time></trkpt><trkpt lat="44.45329887131609" lon="9.261543466166342"><ele>300.0</ele><time>2026-05-03T13:04:05.999Z</time></trkpt><trkpt lat="44.45319351840525" lon="9.261527516607101"><ele>300.0</ele><time>2026-05-03T13:04:06.999Z</time></trkpt><trkpt lat="44.45310048147998" lon="9.261467649194113"><ele>300.0</ele><time>2026-05-03T13:04:07.999Z</time></trkpt><trkpt lat="44.45299193004501" lon="9.261370303561883"><ele>300.0</ele><time>2026-05-03T13:04:08.999Z</time></trkpt><trkpt lat="44.45293978646117" lon="9.261189390868887"><ele>301.6666666666667</ele><time>2026-05-03T13:04:09.999Z</time></trkpt><trkpt lat="44.45287853568386" lon="9.260984430344596"><ele>303.33333333333337</ele><time>2026-05-03T13:04:10.999Z</time></trkpt><trkpt lat="44.45284047364332" lon="9.26075163720092"><ele>305.0</ele><time>2026-05-03T13:04:11.999Z</time></trkpt><trkpt lat="44.45279354935359" lon="9.260514773482969"><ele>305.0</ele><time>2026-05-03T13:04:12.999Z</time></trkpt><trkpt lat="44.45273302446141" lon="9.260300336741436"><ele>305.0</ele><time>2026-05-03T13:04:13.999Z</time></trkpt><trkpt lat="44.45264590290025" lon="9.260123102727425"><ele>305.0</ele><time>2026-05-03T13:04:14.999Z</time></trkpt><trkpt lat="44.452573189223116" lon="9.259969053773254"><ele>305.0</ele><time>2026-05-03T13:04:15.999Z</time></trkpt><trkpt lat="44.452517183473155" lon="9.259837682735094"><ele>305.0</ele><time>2026-05-03T13:04:16.999Z</time></trkpt><trkpt lat="44.4525098074661" lon="9.259702780738639"><ele>305.0</ele><time>2026-05-03T13:04:17.999Z</time></trkpt><trkpt lat="44.45260182732084" lon="9.259585419553147"><ele>305.0</ele><time>2026-05-03T13:04:18.999Z</time></trkpt><trkpt lat="44.45265476045843" lon="9.259438913523661"><ele>305.0</ele><time>2026-05-03T13:04:19.999Z</time></trkpt><trkpt lat="44.45268986598141" lon="9.259283110862523"><ele>302.25</ele><time>2026-05-03T13:04:20.999Z</time></trkpt><trkpt lat="44.45274708628189" lon="9.259121384209731"><ele>299.5</ele><time>2026-05-03T13:04:21.999Z</time></trkpt><trkpt lat="44.452780943632746" lon="9.258997804847809"><ele>296.75</ele><time>2026-05-03T13:04:22.999Z</time></trkpt><trkpt lat="44.45277088011039" lon="9.258899626965773"><ele>294.0</ele><time>2026-05-03T13:04:23.999Z</time></trkpt><trkpt lat="44.45261036667238" lon="9.258742949605963"><ele>294.0</ele><time>2026-05-03T13:04:25.999Z</time></trkpt><trkpt lat="44.45253996511706" lon="9.258636400140023"><ele>294.0</ele><time>2026-05-03T13:04:26.999Z</time></trkpt><trkpt lat="44.45244012802054" lon="9.25848727647529"><ele>294.0</ele><time>2026-05-03T13:04:27.999Z</time></trkpt><trkpt lat="44.452332357208974" lon="9.25833409938595"><ele>294.0</ele><time>2026-05-03T13:04:28.999Z</time></trkpt><trkpt lat="44.452211564672076" lon="9.258149171029105"><ele>298.0</ele><time>2026-05-03T13:04:29.999Z</time></trkpt><trkpt lat="44.45206712562516" lon="9.257939132568643"><ele>302.0</ele><time>2026-05-03T13:04:30.999Z</time></trkpt><trkpt lat="44.45192878554153" lon="9.257775953562339"><ele>306.0</ele><time>2026-05-03T13:04:31.999Z</time></trkpt><trkpt lat="44.45178654306874" lon="9.257632451665934"><ele>306.0</ele><time>2026-05-03T13:04:32.999Z</time></trkpt><trkpt lat="44.451635154074374" lon="9.257498778695515"><ele>306.0</ele><time>2026-05-03T13:04:33.999Z</time></trkpt><trkpt lat="44.45150923412806" lon="9.25740776304678"><ele>306.0</ele><time>2026-05-03T13:04:34.999Z</time></trkpt><trkpt lat="44.45139122627448" lon="9.257398042653515"><ele>306.0</ele><time>2026-05-03T13:04:35.999Z</time></trkpt><trkpt lat="44.45121809067546" lon="9.257435900761124"><ele>302.0</ele><time>2026-05-03T13:04:36.999Z</time></trkpt><trkpt lat="44.451060034488336" lon="9.257450877829044"><ele>298.0</ele><time>2026-05-03T13:04:37.999Z</time></trkpt><trkpt lat="44.450865391811114" lon="9.257603244412016"><ele>294.0</ele><time>2026-05-03T13:04:38.999Z</time></trkpt><trkpt lat="44.450657868738375" lon="9.25761321033765"><ele>294.3333333333333</ele><time>2026-05-03T13:04:39.999Z</time></trkpt><trkpt lat="44.45043104307114" lon="9.257589248534792"><ele>294.66666666666663</ele><time>2026-05-03T13:04:40.999Z</time></trkpt><trkpt lat="44.45020912681466" lon="9.257590553189026"><ele>295.0</ele><time>2026-05-03T13:04:41.999Z</time></trkpt><trkpt lat="44.44999516701262" lon="9.257603827441109"><ele>295.0</ele><time>2026-05-03T13:04:42.999Z</time></trkpt><trkpt lat="44.44977224631461" lon="9.257612750417755"><ele>295.0</ele><time>2026-05-03T13:04:43.999Z</time></trkpt><trkpt lat="44.449542519065254" lon="9.25762752908168"><ele>293.3333333333333</ele><time>2026-05-03T13:04:44.999Z</time></trkpt><trkpt lat="44.44935182351671" lon="9.257616131891156"><ele>291.6666666666667</ele><time>2026-05-03T13:04:45.999Z</time></trkpt><trkpt lat="44.44915335183796" lon="9.257619523402942"><ele>290.0</ele><time>2026-05-03T13:04:46.999Z</time></trkpt><trkpt lat="44.448965026077474" lon="9.257584520759018"><ele>287.33333333333337</ele><time>2026-05-03T13:04:47.999Z</time></trkpt><trkpt lat="44.44877226591621" lon="9.257516442883697"><ele>284.6666666666667</ele><time>2026-05-03T13:04:48.999Z</time></trkpt><trkpt lat="44.44860950644576" lon="9.257441236387969"><ele>282.0</ele><time>2026-05-03T13:04:49.999Z</time></trkpt><trkpt lat="44.44844986745811" lon="9.257313984117433"><ele>282.5</ele><time>2026-05-03T13:04:50.999Z</time></trkpt><trkpt lat="44.44831349923643" lon="9.257198584831242"><ele>283.0</ele><time>2026-05-03T13:04:51.999Z</time></trkpt><trkpt lat="44.44821432984962" lon="9.257061558050216"><ele>283.5</ele><time>2026-05-03T13:04:52.999Z</time></trkpt><trkpt lat="44.44814602527426" lon="9.25689558917865"><ele>284.0</ele><time>2026-05-03T13:04:53.999Z</time></trkpt><trkpt lat="44.44807022750511" lon="9.256692147083974"><ele>284.0</ele><time>2026-05-03T13:04:54.999Z</time></trkpt><trkpt lat="44.44796033576994" lon="9.25648028372228"><ele>284.0</ele><time>2026-05-03T13:04:55.999Z</time></trkpt><trkpt lat="44.44780351456666" lon="9.256286386970388"><ele>284.0</ele><time>2026-05-03T13:04:56.999Z</time></trkpt><trkpt lat="44.447646567528835" lon="9.25608556016201"><ele>279.0</ele><time>2026-05-03T13:04:57.999Z</time></trkpt><trkpt lat="44.44751768800951" lon="9.255891447906006"><ele>274.0</ele><time>2026-05-03T13:04:58.999Z</time></trkpt><trkpt lat="44.44739937996705" lon="9.255738069129825"><ele>269.0</ele><time>2026-05-03T13:04:59.999Z</time></trkpt><trkpt lat="44.44725968281122" lon="9.255637734381057"><ele>273.6666666666667</ele><time>2026-05-03T13:05:00.999Z</time></trkpt><trkpt lat="44.44707613375958" lon="9.25558583836623"><ele>278.3333333333333</ele><time>2026-05-03T13:05:01.999Z</time></trkpt><trkpt lat="44.44685933682905" lon="9.25556734199384"><ele>283.0</ele><time>2026-05-03T13:05:02.999Z</time></trkpt><trkpt lat="44.44663693151563" lon="9.255567559059818"><ele>283.0</ele><time>2026-05-03T13:05:03.999Z</time></trkpt><trkpt lat="44.44642872594581" lon="9.255574363077235"><ele>283.0</ele><time>2026-05-03T13:05:04.999Z</time></trkpt><trkpt lat="44.446247071287054" lon="9.255596737668451"><ele>283.0</ele><time>2026-05-03T13:05:05.999Z</time></trkpt><trkpt lat="44.446086631649365" lon="9.255656784139397"><ele>275.66666666666663</ele><time>2026-05-03T13:05:06.999Z</time></trkpt><trkpt lat="44.445936650391" lon="9.255755014981188"><ele>268.3333333333333</ele><time>2026-05-03T13:05:07.999Z</time></trkpt><trkpt lat="44.44579446692672" lon="9.255838029275985"><ele>261.0</ele><time>2026-05-03T13:05:08.999Z</time></trkpt><trkpt lat="44.44566724987203" lon="9.25589523600402"><ele>261.0</ele><time>2026-05-03T13:05:09.999Z</time></trkpt><trkpt lat="44.445578119942056" lon="9.25594279933156"><ele>261.0</ele><time>2026-05-03T13:05:10.999Z</time></trkpt><trkpt lat="44.445519021565396" lon="9.255980202733078"><ele>261.0</ele><time>2026-05-03T13:05:11.999Z</time></trkpt><trkpt lat="44.44543938547968" lon="9.256043628846204"><ele>261.0</ele><time>2026-05-03T13:05:13.999Z</time></trkpt><trkpt lat="44.445327412577115" lon="9.256166082980775"><ele>261.0</ele><time>2026-05-03T13:05:15.999Z</time></trkpt><trkpt lat="44.445224062069016" lon="9.256254262986323"><ele>260.0</ele><time>2026-05-03T13:05:16.999Z</time></trkpt><trkpt lat="44.44510369000997" lon="9.256276058031819"><ele>259.0</ele><time>2026-05-03T13:05:17.999Z</time></trkpt><trkpt lat="44.444974472904136" lon="9.25618417588349"><ele>258.0</ele><time>2026-05-03T13:05:18.999Z</time></trkpt><trkpt lat="44.44482801992854" lon="9.256063612585987"><ele>257.0</ele><time>2026-05-03T13:05:19.999Z</time></trkpt><trkpt lat="44.44466929154619" lon="9.25593512935351"><ele>254.33333333333334</ele><time>2026-05-03T13:05:20.999Z</time></trkpt><trkpt lat="44.44450726887967" lon="9.255778023194903"><ele>251.66666666666669</ele><time>2026-05-03T13:05:22Z</time></trkpt><trkpt lat="44.444331333147765" lon="9.255648160856785"><ele>249.0</ele><time>2026-05-03T13:05:23Z</time></trkpt><trkpt lat="44.44412514574665" lon="9.255523803510236"><ele>258.0</ele><time>2026-05-03T13:05:24Z</time></trkpt><trkpt lat="44.4439318075826" lon="9.25543586961008"><ele>267.0</ele><time>2026-05-03T13:05:25Z</time></trkpt><trkpt lat="44.4437692062149" lon="9.255381001370546"><ele>276.0</ele><time>2026-05-03T13:05:26Z</time></trkpt><trkpt lat="44.44362976084426" lon="9.255384539569341"><ele>279.3333333333333</ele><time>2026-05-03T13:05:27Z</time></trkpt><trkpt lat="44.44349752064846" lon="9.25547127577178"><ele>282.66666666666663</ele><time>2026-05-03T13:05:28Z</time></trkpt><trkpt lat="44.44336835193604" lon="9.255606853452557"><ele>286.0</ele><time>2026-05-03T13:05:29Z</time></trkpt><trkpt lat="44.44324448462906" lon="9.255772224334502"><ele>278.5</ele><time>2026-05-03T13:05:30Z</time></trkpt><trkpt lat="44.44311475345603" lon="9.255928133547638"><ele>271.0</ele><time>2026-05-03T13:05:31Z</time></trkpt><trkpt lat="44.442988953026514" lon="9.256029451813582"><ele>263.5</ele><time>2026-05-03T13:05:32Z</time></trkpt><trkpt lat="44.44291224706564" lon="9.256034781009895"><ele>256.0</ele><time>2026-05-03T13:05:33Z</time></trkpt><trkpt lat="44.44281484482648" lon="9.255989020480996"><ele>256.0</ele><time>2026-05-03T13:05:34Z</time></trkpt><trkpt lat="44.442646970258764" lon="9.255930640910528"><ele>256.0</ele><time>2026-05-03T13:05:35Z</time></trkpt><trkpt lat="44.4424784821509" lon="9.255832208873285"><ele>256.0</ele><time>2026-05-03T13:05:36Z</time></trkpt><trkpt lat="44.442325000880146" lon="9.255763776831692"><ele>256.0</ele><time>2026-05-03T13:05:37Z</time></trkpt><trkpt lat="44.442203139601595" lon="9.255753433456567"><ele>256.0</ele><time>2026-05-03T13:05:38Z</time></trkpt><trkpt lat="44.44209743900699" lon="9.255839163755677"><ele>256.0</ele><time>2026-05-03T13:05:39Z</time></trkpt><trkpt lat="44.44200719696522" lon="9.2560022600963"><ele>256.0</ele><time>2026-05-03T13:05:40Z</time></trkpt><trkpt lat="44.44195013677904" lon="9.256190148496929"><ele>256.6</ele><time>2026-05-03T13:05:41Z</time></trkpt><trkpt lat="44.44194755111876" lon="9.25636828275197"><ele>257.20000000000005</ele><time>2026-05-03T13:05:42Z</time></trkpt><trkpt lat="44.44199793067235" lon="9.256516851651787"><ele>257.79999999999995</ele><time>2026-05-03T13:05:43Z</time></trkpt><trkpt lat="44.44203151538657" lon="9.256682022868905"><ele>258.4</ele><time>2026-05-03T13:05:44Z</time></trkpt><trkpt lat="44.44198001709742" lon="9.256771721064258"><ele>259.0</ele><time>2026-05-03T13:05:45Z</time></trkpt><trkpt lat="44.44188711065432" lon="9.256810681840518"><ele>259.0</ele><time>2026-05-03T13:05:46Z</time></trkpt><trkpt lat="44.44177047585787" lon="9.25677306079975"><ele>259.0</ele><time>2026-05-03T13:05:47Z</time></trkpt><trkpt lat="44.44167005190718" lon="9.256645193625463"><ele>259.0</ele><time>2026-05-03T13:05:48Z</time></trkpt><trkpt lat="44.44152078695754" lon="9.256532169022645"><ele>259.0</ele><time>2026-05-03T13:05:49Z</time></trkpt><trkpt lat="44.44136016332588" lon="9.256423212209327"><ele>259.3333333333333</ele><time>2026-05-03T13:05:50Z</time></trkpt><trkpt lat="44.44117812836644" lon="9.25636164758797"><ele>259.6666666666667</ele><time>2026-05-03T13:05:51Z</time></trkpt><trkpt lat="44.44103270707397" lon="9.256349113253275"><ele>260.0</ele><time>2026-05-03T13:05:52Z</time></trkpt><trkpt lat="44.44087479095816" lon="9.25642411269931"><ele>251.33333333333334</ele><time>2026-05-03T13:05:53Z</time></trkpt><trkpt lat="44.44072783948486" lon="9.25655386959183"><ele>242.66666666666669</ele><time>2026-05-03T13:05:54Z</time></trkpt><trkpt lat="44.44061028820925" lon="9.256726086017412"><ele>234.0</ele><time>2026-05-03T13:05:55Z</time></trkpt><trkpt lat="44.44052906290443" lon="9.25691115360074"><ele>234.0</ele><time>2026-05-03T13:05:56Z</time></trkpt><trkpt lat="44.44048007384305" lon="9.257124412838017"><ele>234.0</ele><time>2026-05-03T13:05:57Z</time></trkpt><trkpt lat="44.440421829322304" lon="9.257257640459489"><ele>234.0</ele><time>2026-05-03T13:05:58Z</time></trkpt><trkpt lat="44.440340051171376" lon="9.257340580032704"><ele>234.0</ele><time>2026-05-03T13:05:59Z</time></trkpt><trkpt lat="44.440226461691104" lon="9.25735694227964"><ele>231.75</ele><time>2026-05-03T13:06:00Z</time></trkpt><trkpt lat="44.44013443543189" lon="9.257263550816702"><ele>229.5</ele><time>2026-05-03T13:06:01Z</time></trkpt><trkpt lat="44.44003939791419" lon="9.257135005074725"><ele>227.25</ele><time>2026-05-03T13:06:02Z</time></trkpt><trkpt lat="44.44001548960355" lon="9.256951385981216"><ele>225.0</ele><time>2026-05-03T13:06:03Z</time></trkpt><trkpt lat="44.44002984025682" lon="9.25672718741167"><ele>225.0</ele><time>2026-05-03T13:06:04Z</time></trkpt><trkpt lat="44.44001702174817" lon="9.256495647668872"><ele>225.0</ele><time>2026-05-03T13:06:04.999Z</time></trkpt><trkpt lat="44.43996051935782" lon="9.256302839797113"><ele>225.0</ele><time>2026-05-03T13:06:05.999Z</time></trkpt><trkpt lat="44.43980458126756" lon="9.256130392442898"><ele>223.0</ele><time>2026-05-03T13:06:06.999Z</time></trkpt><trkpt lat="44.43962017892206" lon="9.25598213025491"><ele>221.0</ele><time>2026-05-03T13:06:07.999Z</time></trkpt><trkpt lat="44.43946965043193" lon="9.255821380075572"><ele>219.0</ele><time>2026-05-03T13:06:08.999Z</time></trkpt><trkpt lat="44.43932130164226" lon="9.255672193029923"><ele>223.0</ele><time>2026-05-03T13:06:09.999Z</time></trkpt><trkpt lat="44.4391264138467" lon="9.255587498327642"><ele>227.0</ele><time>2026-05-03T13:06:10.999Z</time></trkpt><trkpt lat="44.43895462934688" lon="9.255550585421522"><ele>231.0</ele><time>2026-05-03T13:06:11.999Z</time></trkpt><trkpt lat="44.438747844715536" lon="9.255590530211965"><ele>223.66666666666669</ele><time>2026-05-03T13:06:12.999Z</time></trkpt><trkpt lat="44.43854178728261" lon="9.255687175376016"><ele>216.33333333333334</ele><time>2026-05-03T13:06:13.999Z</time></trkpt><trkpt lat="44.43833954218025" lon="9.255707490070515"><ele>209.0</ele><time>2026-05-03T13:06:14.999Z</time></trkpt><trkpt lat="44.438159193346415" lon="9.255719881648231"><ele>209.0</ele><time>2026-05-03T13:06:15.999Z</time></trkpt><trkpt lat="44.43798680488456" lon="9.255770484828089"><ele>209.0</ele><time>2026-05-03T13:06:16.999Z</time></trkpt><trkpt lat="44.437831214833075" lon="9.25588669415972"><ele>209.0</ele><time>2026-05-03T13:06:17.999Z</time></trkpt><trkpt lat="44.43766554681899" lon="9.256011808277062"><ele>208.33333333333334</ele><time>2026-05-03T13:06:18.999Z</time></trkpt><trkpt lat="44.43745066980654" lon="9.256203230835869"><ele>207.66666666666669</ele><time>2026-05-03T13:06:19.999Z</time></trkpt><trkpt lat="44.43729854061034" lon="9.256358524426748"><ele>207.0</ele><time>2026-05-03T13:06:20.999Z</time></trkpt><trkpt lat="44.43721978412888" lon="9.256533643757109"><ele>207.0</ele><time>2026-05-03T13:06:21.999Z</time></trkpt><trkpt lat="44.43717697544593" lon="9.256742751674233"><ele>207.0</ele><time>2026-05-03T13:06:22.999Z</time></trkpt><trkpt lat="44.437108961537824" lon="9.256909373230174"><ele>207.0</ele><time>2026-05-03T13:06:23.999Z</time></trkpt><trkpt lat="44.43703369302805" lon="9.256991977853515"><ele>207.0</ele><time>2026-05-03T13:06:24.999Z</time></trkpt><trkpt lat="44.43690988026222" lon="9.257019428822375"><ele>206.75</ele><time>2026-05-03T13:06:25.999Z</time></trkpt><trkpt lat="44.43682250440543" lon="9.256986461722596"><ele>206.5</ele><time>2026-05-03T13:06:26.999Z</time></trkpt><trkpt lat="44.436713128966616" lon="9.256847739365995"><ele>206.25</ele><time>2026-05-03T13:06:27.999Z</time></trkpt><trkpt lat="44.43656991299665" lon="9.256740893635637"><ele>206.0</ele><time>2026-05-03T13:06:28.999Z</time></trkpt><trkpt lat="44.43637807355087" lon="9.256592060255729"><ele>209.0</ele><time>2026-05-03T13:06:29.999Z</time></trkpt><trkpt lat="44.43620643923787" lon="9.256425113965996"><ele>212.0</ele><time>2026-05-03T13:06:30.999Z</time></trkpt><trkpt lat="44.43602498107904" lon="9.256299974755956"><ele>215.0</ele><time>2026-05-03T13:06:31.999Z</time></trkpt><trkpt lat="44.43582658019177" lon="9.256119705326238"><ele>215.0</ele><time>2026-05-03T13:06:32.999Z</time></trkpt><trkpt lat="44.43562643662644" lon="9.255977264614769"><ele>215.0</ele><time>2026-05-03T13:06:33.999Z</time></trkpt><trkpt lat="44.43548674986515" lon="9.255858307590623"><ele>215.0</ele><time>2026-05-03T13:06:34.999Z</time></trkpt><trkpt lat="44.435340308196324" lon="9.255740288544809"><ele>214.33333333333334</ele><time>2026-05-03T13:06:35.999Z</time></trkpt><trkpt lat="44.43519935892202" lon="9.255745533999608"><ele>213.66666666666669</ele><time>2026-05-03T13:06:36.999Z</time></trkpt><trkpt lat="44.43504753614816" lon="9.255813262338135"><ele>213.0</ele><time>2026-05-03T13:06:37.999Z</time></trkpt><trkpt lat="44.43484859712775" lon="9.255906419471268"><ele>211.33333333333331</ele><time>2026-05-03T13:06:38.999Z</time></trkpt><trkpt lat="44.434632265303115" lon="9.256007850028412"><ele>209.66666666666666</ele><time>2026-05-03T13:06:39.999Z</time></trkpt><trkpt lat="44.434469494266" lon="9.256170591487045"><ele>208.0</ele><time>2026-05-03T13:06:40.999Z</time></trkpt><trkpt lat="44.434361035170284" lon="9.25635380421223"><ele>208.0</ele><time>2026-05-03T13:06:41.999Z</time></trkpt><trkpt lat="44.43428142507083" lon="9.256499786876455"><ele>208.0</ele><time>2026-05-03T13:06:42.999Z</time></trkpt><trkpt lat="44.434186864444875" lon="9.256537078894004"><ele>208.0</ele><time>2026-05-03T13:06:43.999Z</time></trkpt><trkpt lat="44.43410840811043" lon="9.256474789730284"><ele>208.0</ele><time>2026-05-03T13:06:44.999Z</time></trkpt><trkpt lat="44.43399798804954" lon="9.256394354563767"><ele>208.0</ele><time>2026-05-03T13:06:45.999Z</time></trkpt><trkpt lat="44.433942689472204" lon="9.256257297652983"><ele>208.0</ele><time>2026-05-03T13:06:46.999Z</time></trkpt><trkpt lat="44.43387137598548" lon="9.256083366585791"><ele>208.0</ele><time>2026-05-03T13:06:47.999Z</time></trkpt><trkpt lat="44.433754108747" lon="9.255854432563284"><ele>208.0</ele><time>2026-05-03T13:06:48.999Z</time></trkpt><trkpt lat="44.43359619597463" lon="9.25564786643014"><ele>209.75</ele><time>2026-05-03T13:06:49.999Z</time></trkpt><trkpt lat="44.43345037598799" lon="9.255469194123576"><ele>211.5</ele><time>2026-05-03T13:06:50.999Z</time></trkpt><trkpt lat="44.43333725244653" lon="9.255373127464312"><ele>213.25</ele><time>2026-05-03T13:06:51.999Z</time></trkpt><trkpt lat="44.433235873614315" lon="9.25537652263797"><ele>215.0</ele><time>2026-05-03T13:06:52.999Z</time></trkpt><trkpt lat="44.43309914279277" lon="9.255445274605998"><ele>216.66666666666669</ele><time>2026-05-03T13:06:53.999Z</time></trkpt><trkpt lat="44.432933703505455" lon="9.255510830965425"><ele>218.33333333333331</ele><time>2026-05-03T13:06:54.999Z</time></trkpt><trkpt lat="44.43277725273371" lon="9.255501527349919"><ele>220.0</ele><time>2026-05-03T13:06:55.999Z</time></trkpt><trkpt lat="44.4326163511097" lon="9.255505849537993"><ele>220.0</ele><time>2026-05-03T13:06:56.999Z</time></trkpt><trkpt lat="44.43244311670276" lon="9.255598786436671"><ele>220.0</ele><time>2026-05-03T13:06:57.999Z</time></trkpt><trkpt lat="44.43222660015144" lon="9.255734220465467"><ele>220.0</ele><time>2026-05-03T13:06:58.999Z</time></trkpt><trkpt lat="44.43212590556545" lon="9.255840444331378"><ele>216.75</ele><time>2026-05-03T13:06:59.999Z</time></trkpt><trkpt lat="44.432015388148855" lon="9.25593094432963"><ele>213.5</ele><time>2026-05-03T13:07:00.999Z</time></trkpt><trkpt lat="44.43193259957423" lon="9.256038671922617"><ele>210.25</ele><time>2026-05-03T13:07:01.999Z</time></trkpt><trkpt lat="44.43183705828353" lon="9.256128956133189"><ele>207.0</ele><time>2026-05-03T13:07:02.999Z</time></trkpt><trkpt lat="44.431713337703655" lon="9.25620151629779"><ele>207.0</ele><time>2026-05-03T13:07:03.999Z</time></trkpt><trkpt lat="44.431537395531876" lon="9.256294147738814"><ele>207.0</ele><time>2026-05-03T13:07:04.999Z</time></trkpt><trkpt lat="44.431398823013126" lon="9.256384804240579"><ele>207.0</ele><time>2026-05-03T13:07:05.999Z</time></trkpt><trkpt lat="44.431325487701706" lon="9.256532242238535"><ele>209.8</ele><time>2026-05-03T13:07:06.999Z</time></trkpt><trkpt lat="44.431282331276236" lon="9.256663956416942"><ele>212.6</ele><time>2026-05-03T13:07:07.999Z</time></trkpt><trkpt lat="44.43122988057822" lon="9.256776773414982"><ele>215.40000000000003</ele><time>2026-05-03T13:07:08.999Z</time></trkpt><trkpt lat="44.43120162161565" lon="9.25691864144037"><ele>218.20000000000002</ele><time>2026-05-03T13:07:09.999Z</time></trkpt><trkpt lat="44.43119617757705" lon="9.257034918570492"><ele>221.0</ele><time>2026-05-03T13:07:10.999Z</time></trkpt><trkpt lat="44.431242197367624" lon="9.257177840598203"><ele>211.5</ele><time>2026-05-03T13:07:11.999Z</time></trkpt><trkpt lat="44.431377061475445" lon="9.25739227233808"><ele>202.0</ele><time>2026-05-03T13:07:12.999Z</time></trkpt><trkpt lat="44.43146646501985" lon="9.257516730089266"><ele>192.5</ele><time>2026-05-03T13:07:13.999Z</time></trkpt><trkpt lat="44.43147868953817" lon="9.257647920677172"><ele>183.0</ele><time>2026-05-03T13:07:14.999Z</time></trkpt><trkpt lat="44.43145096640783" lon="9.257749981106166"><ele>183.0</ele><time>2026-05-03T13:07:15.999Z</time></trkpt><trkpt lat="44.431381604448354" lon="9.257800376889932"><ele>183.0</ele><time>2026-05-03T13:07:16.999Z</time></trkpt><trkpt lat="44.431307213866525" lon="9.25785942973515"><ele>183.0</ele><time>2026-05-03T13:07:17.999Z</time></trkpt><trkpt lat="44.43120906132622" lon="9.257838779893564"><ele>183.0</ele><time>2026-05-03T13:07:18.999Z</time></trkpt><trkpt lat="44.43108854545372" lon="9.257760629989322"><ele>183.0</ele><time>2026-05-03T13:07:19.999Z</time></trkpt><trkpt lat="44.43092594013777" lon="9.257669140399576"><ele>184.33333333333334</ele><time>2026-05-03T13:07:20.999Z</time></trkpt><trkpt lat="44.43074469884176" lon="9.257573677778112"><ele>185.66666666666669</ele><time>2026-05-03T13:07:21.999Z</time></trkpt><trkpt lat="44.43052920400988" lon="9.25748608893984"><ele>187.0</ele><time>2026-05-03T13:07:22.999Z</time></trkpt><trkpt lat="44.430314977165914" lon="9.257458465826568"><ele>187.0</ele><time>2026-05-03T13:07:23.999Z</time></trkpt><trkpt lat="44.43008673154405" lon="9.257457565550743"><ele>187.0</ele><time>2026-05-03T13:07:24.999Z</time></trkpt><trkpt lat="44.429847465649836" lon="9.257487207463942"><ele>187.0</ele><time>2026-05-03T13:07:25.999Z</time></trkpt><trkpt lat="44.42964512890414" lon="9.257505217996744"><ele>187.0</ele><time>2026-05-03T13:07:26.999Z</time></trkpt><trkpt lat="44.429477429840915" lon="9.257519300922242"><ele>187.0</ele><time>2026-05-03T13:07:28Z</time></trkpt><trkpt lat="44.42932669719264" lon="9.257589362952595"><ele>195.0</ele><time>2026-05-03T13:07:29Z</time></trkpt><trkpt lat="44.429199583164994" lon="9.257734775985211"><ele>203.0</ele><time>2026-05-03T13:07:30Z</time></trkpt><trkpt lat="44.42912163984959" lon="9.257917214315565"><ele>211.0</ele><time>2026-05-03T13:07:31Z</time></trkpt><trkpt lat="44.42908102624681" lon="9.258097088219488"><ele>196.5</ele><time>2026-05-03T13:07:32Z</time></trkpt><trkpt lat="44.42903973984926" lon="9.25849575671795"><ele>182.0</ele><time>2026-05-03T13:07:33Z</time></trkpt><trkpt lat="44.428984662554036" lon="9.25874127769378"><ele>182.0</ele><time>2026-05-03T13:07:34Z</time></trkpt><trkpt lat="44.42891507177545" lon="9.258859807987575"><ele>182.0</ele><time>2026-05-03T13:07:35Z</time></trkpt><trkpt lat="44.42883265375252" lon="9.258913142029641"><ele>182.0</ele><time>2026-05-03T13:07:36Z</time></trkpt><trkpt lat="44.42874202348344" lon="9.258897189562875"><ele>182.0</ele><time>2026-05-03T13:07:37Z</time></trkpt><trkpt lat="44.4286668533579" lon="9.25876898905213"><ele>182.0</ele><time>2026-05-03T13:07:38Z</time></trkpt><trkpt lat="44.42851500562511" lon="9.258584354335184"><ele>184.33333333333331</ele><time>2026-05-03T13:07:39Z</time></trkpt><trkpt lat="44.42837411523095" lon="9.258417254066622"><ele>186.66666666666666</ele><time>2026-05-03T13:07:40Z</time></trkpt><trkpt lat="44.42819455639583" lon="9.258319893337298"><ele>189.0</ele><time>2026-05-03T13:07:41Z</time></trkpt><trkpt lat="44.42804422507412" lon="9.258321340888376"><ele>193.0</ele><time>2026-05-03T13:07:42Z</time></trkpt><trkpt lat="44.427865372787295" lon="9.25837421151524"><ele>197.0</ele><time>2026-05-03T13:07:43Z</time></trkpt><trkpt lat="44.42766945339408" lon="9.258455642145092"><ele>201.0</ele><time>2026-05-03T13:07:44Z</time></trkpt><trkpt lat="44.427485685845724" lon="9.258579272720008"><ele>201.0</ele><time>2026-05-03T13:07:45Z</time></trkpt><trkpt lat="44.42730626714076" lon="9.25877366499405"><ele>201.0</ele><time>2026-05-03T13:07:46Z</time></trkpt><trkpt lat="44.42717094383747" lon="9.259039493492898"><ele>206.5</ele><time>2026-05-03T13:07:47Z</time></trkpt><trkpt lat="44.42707806433002" lon="9.259363333021472"><ele>212.0</ele><time>2026-05-03T13:07:48Z</time></trkpt><trkpt lat="44.42702774465681" lon="9.259675102056203"><ele>201.66666666666669</ele><time>2026-05-03T13:07:49Z</time></trkpt><trkpt lat="44.42695718091909" lon="9.259877755577081"><ele>191.33333333333334</ele><time>2026-05-03T13:07:50Z</time></trkpt><trkpt lat="44.426880966957725" lon="9.260051579684301"><ele>181.0</ele><time>2026-05-03T13:07:51Z</time></trkpt><trkpt lat="44.42675533625521" lon="9.260201450615872"><ele>181.0</ele><time>2026-05-03T13:07:52Z</time></trkpt><trkpt lat="44.42661433210618" lon="9.260292067136227"><ele>181.0</ele><time>2026-05-03T13:07:53Z</time></trkpt><trkpt lat="44.426449875228144" lon="9.260322487632306"><ele>181.0</ele><time>2026-05-03T13:07:54Z</time></trkpt><trkpt lat="44.42627778555072" lon="9.26030444853698"><ele>183.33333333333334</ele><time>2026-05-03T13:07:55Z</time></trkpt><trkpt lat="44.42609474397842" lon="9.260303651665696"><ele>185.66666666666666</ele><time>2026-05-03T13:07:56Z</time></trkpt><trkpt lat="44.425861507636206" lon="9.26030156495654"><ele>188.0</ele><time>2026-05-03T13:07:57Z</time></trkpt><trkpt lat="44.42561748907476" lon="9.260335630691445"><ele>186.33333333333331</ele><time>2026-05-03T13:07:58Z</time></trkpt><trkpt lat="44.42540518995067" lon="9.260375611132734"><ele>184.66666666666666</ele><time>2026-05-03T13:07:59Z</time></trkpt><trkpt lat="44.42520271542017" lon="9.26036881049265"><ele>183.0</ele><time>2026-05-03T13:08:00Z</time></trkpt><trkpt lat="44.42499470091914" lon="9.260344203688776"><ele>183.0</ele><time>2026-05-03T13:08:01Z</time></trkpt><trkpt lat="44.4247721128249" lon="9.26031356653833"><ele>183.0</ele><time>2026-05-03T13:08:02Z</time></trkpt><trkpt lat="44.42454719707691" lon="9.260283163155233"><ele>178.0</ele><time>2026-05-03T13:08:03Z</time></trkpt><trkpt lat="44.424359319898606" lon="9.26023961693439"><ele>173.0</ele><time>2026-05-03T13:08:04Z</time></trkpt><trkpt lat="44.42417547299682" lon="9.260163063677751"><ele>168.0</ele><time>2026-05-03T13:08:05Z</time></trkpt><trkpt lat="44.423995350309504" lon="9.260086278146314"><ele>168.0</ele><time>2026-05-03T13:08:06Z</time></trkpt><trkpt lat="44.423835225000275" lon="9.26000990685409"><ele>168.0</ele><time>2026-05-03T13:08:06.999Z</time></trkpt><trkpt lat="44.42371049770847" lon="9.259898516580106"><ele>168.0</ele><time>2026-05-03T13:08:07.999Z</time></trkpt><trkpt lat="44.42361104451952" lon="9.259754643255059"><ele>165.33333333333334</ele><time>2026-05-03T13:08:08.999Z</time></trkpt><trkpt lat="44.42352087499872" lon="9.259561028090408"><ele>162.66666666666669</ele><time>2026-05-03T13:08:09.999Z</time></trkpt><trkpt lat="44.42342964156168" lon="9.259329627449334"><ele>160.0</ele><time>2026-05-03T13:08:10.999Z</time></trkpt><trkpt lat="44.42338339620139" lon="9.259100711485182"><ele>168.33333333333334</ele><time>2026-05-03T13:08:11.999Z</time></trkpt><trkpt lat="44.423309807199146" lon="9.258913632197325"><ele>176.66666666666666</ele><time>2026-05-03T13:08:12.999Z</time></trkpt><trkpt lat="44.423209406385375" lon="9.258749448387153"><ele>185.0</ele><time>2026-05-03T13:08:13.999Z</time></trkpt><trkpt lat="44.42307300894388" lon="9.258600446751316"><ele>178.66666666666666</ele><time>2026-05-03T13:08:14.999Z</time></trkpt><trkpt lat="44.42293893511925" lon="9.258436814327963"><ele>172.33333333333334</ele><time>2026-05-03T13:08:15.999Z</time></trkpt><trkpt lat="44.422766271106866" lon="9.258221600791646"><ele>166.0</ele><time>2026-05-03T13:08:16.999Z</time></trkpt><trkpt lat="44.422677342470315" lon="9.258046646852128"><ele>166.0</ele><time>2026-05-03T13:08:17.999Z</time></trkpt><trkpt lat="44.42262457272149" lon="9.257815427413014"><ele>166.0</ele><time>2026-05-03T13:08:18.999Z</time></trkpt><trkpt lat="44.42251392955" lon="9.25763667987164"><ele>166.0</ele><time>2026-05-03T13:08:19.999Z</time></trkpt><trkpt lat="44.42239083971737" lon="9.257422003331449"><ele>158.0</ele><time>2026-05-03T13:08:20.999Z</time></trkpt><trkpt lat="44.42220703051698" lon="9.257222064427962"><ele>150.0</ele><time>2026-05-03T13:08:21.999Z</time></trkpt><trkpt lat="44.42204007204727" lon="9.256991920744525"><ele>150.0</ele><time>2026-05-03T13:08:22.999Z</time></trkpt><trkpt lat="44.4218962354158" lon="9.256792077852761"><ele>150.0</ele><time>2026-05-03T13:08:23.999Z</time></trkpt><trkpt lat="44.42176489472194" lon="9.256601885906669"><ele>150.0</ele><time>2026-05-03T13:08:24.999Z</time></trkpt><trkpt lat="44.42166527928474" lon="9.256422656808155"><ele>155.0</ele><time>2026-05-03T13:08:25.999Z</time></trkpt><trkpt lat="44.421585525510785" lon="9.256206735976788"><ele>160.0</ele><time>2026-05-03T13:08:26.999Z</time></trkpt><trkpt lat="44.42149479198535" lon="9.255948222909826"><ele>165.0</ele><time>2026-05-03T13:08:27.999Z</time></trkpt><trkpt lat="44.42138602766083" lon="9.255678348072014"><ele>158.0</ele><time>2026-05-03T13:08:28.999Z</time></trkpt><trkpt lat="44.4212500517802" lon="9.255441435170997"><ele>151.0</ele><time>2026-05-03T13:08:29.999Z</time></trkpt><trkpt lat="44.42108283504823" lon="9.25528510705402"><ele>144.0</ele><time>2026-05-03T13:08:30.999Z</time></trkpt><trkpt lat="44.42100453717863" lon="9.255083513327316"><ele>144.0</ele><time>2026-05-03T13:08:31.999Z</time></trkpt><trkpt lat="44.42090451411244" lon="9.254933796581883"><ele>144.0</ele><time>2026-05-03T13:08:32.999Z</time></trkpt><trkpt lat="44.420845069253545" lon="9.25475600279678"><ele>144.0</ele><time>2026-05-03T13:08:33.999Z</time></trkpt><trkpt lat="44.42061352014048" lon="9.254701546060295"><ele>144.66666666666666</ele><time>2026-05-03T13:08:34.999Z</time></trkpt><trkpt lat="44.4204085224218" lon="9.254612039371473"><ele>145.33333333333331</ele><time>2026-05-03T13:08:35.999Z</time></trkpt><trkpt lat="44.42019648394185" lon="9.254516402334678"><ele>146.0</ele><time>2026-05-03T13:08:36.999Z</time></trkpt><trkpt lat="44.420039451732706" lon="9.254417554348096"><ele>146.0</ele><time>2026-05-03T13:08:37.999Z</time></trkpt><trkpt lat="44.41989830268316" lon="9.254312397896278"><ele>146.0</ele><time>2026-05-03T13:08:38.999Z</time></trkpt><trkpt lat="44.41982533741575" lon="9.25417427821519"><ele>146.0</ele><time>2026-05-03T13:08:39.999Z</time></trkpt><trkpt lat="44.41979140929548" lon="9.253970515554451"><ele>146.0</ele><time>2026-05-03T13:08:40.999Z</time></trkpt><trkpt lat="44.419712015826406" lon="9.25375587716409"><ele>142.5</ele><time>2026-05-03T13:08:41.999Z</time></trkpt><trkpt lat="44.419592241470994" lon="9.253454401113315"><ele>139.0</ele><time>2026-05-03T13:08:42.999Z</time></trkpt><trkpt lat="44.41947511125906" lon="9.253192407449884"><ele>149.66666666666669</ele><time>2026-05-03T13:08:43.999Z</time></trkpt><trkpt lat="44.419344857634684" lon="9.25296502464744"><ele>160.33333333333334</ele><time>2026-05-03T13:08:44.999Z</time></trkpt><trkpt lat="44.41919081033439" lon="9.252798858507411"><ele>171.0</ele><time>2026-05-03T13:08:45.999Z</time></trkpt><trkpt lat="44.419051054171355" lon="9.252745027058081"><ele>171.0</ele><time>2026-05-03T13:08:46.999Z</time></trkpt><trkpt lat="44.4189028336045" lon="9.252782112593424"><ele>171.0</ele><time>2026-05-03T13:08:47.999Z</time></trkpt><trkpt lat="44.41873676060845" lon="9.252745577730233"><ele>171.0</ele><time>2026-05-03T13:08:48.999Z</time></trkpt><trkpt lat="44.41856880614197" lon="9.25268184207515"><ele>168.66666666666666</ele><time>2026-05-03T13:08:49.999Z</time></trkpt><trkpt lat="44.41840745347393" lon="9.252609691803974"><ele>166.33333333333331</ele><time>2026-05-03T13:08:50.999Z</time></trkpt><trkpt lat="44.418252280031616" lon="9.252621090359728"><ele>164.0</ele><time>2026-05-03T13:08:51.999Z</time></trkpt><trkpt lat="44.418106598249764" lon="9.25271997319102"><ele>163.33333333333331</ele><time>2026-05-03T13:08:52.999Z</time></trkpt><trkpt lat="44.417958180063714" lon="9.252863806357201"><ele>162.66666666666666</ele><time>2026-05-03T13:08:53.999Z</time></trkpt><trkpt lat="44.41784970991985" lon="9.25302496225239"><ele>162.0</ele><time>2026-05-03T13:08:54.999Z</time></trkpt><trkpt lat="44.41777709669979" lon="9.25325749009307"><ele>155.0</ele><time>2026-05-03T13:08:55.999Z</time></trkpt><trkpt lat="44.417656882770665" lon="9.253451320587548"><ele>148.0</ele><time>2026-05-03T13:08:56.999Z</time></trkpt><trkpt lat="44.41756820861923" lon="9.253574920346695"><ele>141.0</ele><time>2026-05-03T13:08:57.999Z</time></trkpt><trkpt lat="44.41745417904399" lon="9.253626720344979"><ele>134.0</ele><time>2026-05-03T13:08:58.999Z</time></trkpt><trkpt lat="44.417338819054535" lon="9.253610359129464"><ele>134.0</ele><time>2026-05-03T13:08:59.999Z</time></trkpt><trkpt lat="44.41717809997303" lon="9.253592478871767"><ele>134.0</ele><time>2026-05-03T13:09:00.999Z</time></trkpt><trkpt lat="44.41700079534726" lon="9.253554282713823"><ele>134.0</ele><time>2026-05-03T13:09:01.999Z</time></trkpt><trkpt lat="44.41684632127172" lon="9.253469023423982"><ele>131.66666666666666</ele><time>2026-05-03T13:09:02.999Z</time></trkpt><trkpt lat="44.41673059608778" lon="9.253322913722595"><ele>129.33333333333334</ele><time>2026-05-03T13:09:03.999Z</time></trkpt><trkpt lat="44.416645834401024" lon="9.25314665623932"><ele>127.0</ele><time>2026-05-03T13:09:04.999Z</time></trkpt><trkpt lat="44.416551992690565" lon="9.252924059831836"><ele>131.0</ele><time>2026-05-03T13:09:05.999Z</time></trkpt><trkpt lat="44.41643783776679" lon="9.252728576357635"><ele>135.0</ele><time>2026-05-03T13:09:06.999Z</time></trkpt><trkpt lat="44.41633589171113" lon="9.252595466201061"><ele>139.0</ele><time>2026-05-03T13:09:07.999Z</time></trkpt><trkpt lat="44.41620844340755" lon="9.252516095791554"><ele>139.0</ele><time>2026-05-03T13:09:08.999Z</time></trkpt><trkpt lat="44.41608380658586" lon="9.252455003789922"><ele>139.0</ele><time>2026-05-03T13:09:09.999Z</time></trkpt><trkpt lat="44.415956992750196" lon="9.252486724476691"><ele>139.0</ele><time>2026-05-03T13:09:10.999Z</time></trkpt><trkpt lat="44.41581625695009" lon="9.25256616089914"><ele>139.0</ele><time>2026-05-03T13:09:11.999Z</time></trkpt><trkpt lat="44.41561741502901" lon="9.252637421160367"><ele>137.33333333333334</ele><time>2026-05-03T13:09:12.999Z</time></trkpt><trkpt lat="44.41544818114262" lon="9.252668321678154"><ele>135.66666666666666</ele><time>2026-05-03T13:09:13.999Z</time></trkpt><trkpt lat="44.41530954933142" lon="9.252784462533338"><ele>134.0</ele><time>2026-05-03T13:09:14.999Z</time></trkpt><trkpt lat="44.415187609061505" lon="9.252956100963205"><ele>134.0</ele><time>2026-05-03T13:09:15.999Z</time></trkpt><trkpt lat="44.41508204995796" lon="9.253085014713788"><ele>134.0</ele><time>2026-05-03T13:09:16.999Z</time></trkpt><trkpt lat="44.414979951366014" lon="9.253126033775944"><ele>134.0</ele><time>2026-05-03T13:09:17.999Z</time></trkpt><trkpt lat="44.41484948078411" lon="9.253104240050495"><ele>134.0</ele><time>2026-05-03T13:09:18.999Z</time></trkpt><trkpt lat="44.41466197178082" lon="9.253074986291367"><ele>129.66666666666666</ele><time>2026-05-03T13:09:19.999Z</time></trkpt><trkpt lat="44.41445349701675" lon="9.253053492149581"><ele>125.33333333333334</ele><time>2026-05-03T13:09:20.999Z</time></trkpt><trkpt lat="44.4142190540498" lon="9.253032012979366"><ele>121.0</ele><time>2026-05-03T13:09:21.999Z</time></trkpt><trkpt lat="44.41403475401435" lon="9.252987515244246"><ele>121.0</ele><time>2026-05-03T13:09:22.999Z</time></trkpt><trkpt lat="44.41383217739052" lon="9.252961898079468"><ele>121.0</ele><time>2026-05-03T13:09:23.999Z</time></trkpt><trkpt lat="44.41361642361807" lon="9.252939506681527"><ele>121.0</ele><time>2026-05-03T13:09:24.999Z</time></trkpt><trkpt lat="44.41341463763799" lon="9.252903189952976"><ele>117.66666666666667</ele><time>2026-05-03T13:09:25.999Z</time></trkpt><trkpt lat="44.41323284231584" lon="9.252877411015083"><ele>114.33333333333334</ele><time>2026-05-03T13:09:26.999Z</time></trkpt><trkpt lat="44.41306647110207" lon="9.252833215829138"><ele>111.0</ele><time>2026-05-03T13:09:27.999Z</time></trkpt><trkpt lat="44.41294006558224" lon="9.252742471117928"><ele>108.33333333333334</ele><time>2026-05-03T13:09:28.999Z</time></trkpt><trkpt lat="44.41279207095353" lon="9.252609590447351"><ele>105.66666666666667</ele><time>2026-05-03T13:09:29.999Z</time></trkpt><trkpt lat="44.41265186076856" lon="9.252483973334517"><ele>103.0</ele><time>2026-05-03T13:09:30.999Z</time></trkpt><trkpt lat="44.41249941518553" lon="9.252383104359883"><ele>103.0</ele><time>2026-05-03T13:09:31.999Z</time></trkpt><trkpt lat="44.412313286753715" lon="9.252324659591665"><ele>103.0</ele><time>2026-05-03T13:09:32.999Z</time></trkpt><trkpt lat="44.412117915873104" lon="9.252263743609324"><ele>103.0</ele><time>2026-05-03T13:09:34Z</time></trkpt><trkpt lat="44.4119049440468" lon="9.252190846091155"><ele>107.0</ele><time>2026-05-03T13:09:35Z</time></trkpt><trkpt lat="44.41168282691982" lon="9.252139201015167"><ele>111.0</ele><time>2026-05-03T13:09:36Z</time></trkpt><trkpt lat="44.41146325412892" lon="9.25205835119931"><ele>109.0</ele><time>2026-05-03T13:09:37Z</time></trkpt><trkpt lat="44.41124994316014" lon="9.251987485014208"><ele>107.0</ele><time>2026-05-03T13:09:38Z</time></trkpt><trkpt lat="44.41106414800829" lon="9.251899023619085"><ele>105.0</ele><time>2026-05-03T13:09:39Z</time></trkpt><trkpt lat="44.41088368435382" lon="9.251837336913363"><ele>105.0</ele><time>2026-05-03T13:09:40Z</time></trkpt><trkpt lat="44.410718212263795" lon="9.251775201413361"><ele>105.0</ele><time>2026-05-03T13:09:41Z</time></trkpt><trkpt lat="44.410580947987306" lon="9.25168219872965"><ele>105.0</ele><time>2026-05-03T13:09:42Z</time></trkpt><trkpt lat="44.4104853144885" lon="9.251531200979752"><ele>103.0</ele><time>2026-05-03T13:09:43Z</time></trkpt><trkpt lat="44.410413752749875" lon="9.25133223070661"><ele>101.0</ele><time>2026-05-03T13:09:44Z</time></trkpt><trkpt lat="44.41034309107144" lon="9.251094587229773"><ele>99.0</ele><time>2026-05-03T13:09:45Z</time></trkpt><trkpt lat="44.410255264207784" lon="9.250841541474566"><ele>102.0</ele><time>2026-05-03T13:09:46Z</time></trkpt><trkpt lat="44.410175729231305" lon="9.250572238726066"><ele>105.0</ele><time>2026-05-03T13:09:47Z</time></trkpt><trkpt lat="44.41008636755943" lon="9.250293001905153"><ele>108.0</ele><time>2026-05-03T13:09:48Z</time></trkpt><trkpt lat="44.40998142482793" lon="9.250036453198982"><ele>108.0</ele><time>2026-05-03T13:09:49Z</time></trkpt><trkpt lat="44.409853847360395" lon="9.249827696275888"><ele>108.0</ele><time>2026-05-03T13:09:50Z</time></trkpt><trkpt lat="44.409715223778214" lon="9.24966318076583"><ele>108.0</ele><time>2026-05-03T13:09:51Z</time></trkpt><trkpt lat="44.40958016751493" lon="9.24946416267549"><ele>107.33333333333334</ele><time>2026-05-03T13:09:52Z</time></trkpt><trkpt lat="44.40945495028468" lon="9.249275866270214"><ele>106.66666666666667</ele><time>2026-05-03T13:09:53Z</time></trkpt><trkpt lat="44.40939010276195" lon="9.249061391181467"><ele>106.0</ele><time>2026-05-03T13:09:54Z</time></trkpt><trkpt lat="44.40934859315981" lon="9.248826492824707"><ele>106.0</ele><time>2026-05-03T13:09:55Z</time></trkpt><trkpt lat="44.40929353912335" lon="9.248571982481792"><ele>106.0</ele><time>2026-05-03T13:09:56Z</time></trkpt><trkpt lat="44.40925294073171" lon="9.248333859896801"><ele>106.0</ele><time>2026-05-03T13:09:57Z</time></trkpt><trkpt lat="44.40917343991596" lon="9.248163388412303"><ele>108.66666666666667</ele><time>2026-05-03T13:09:58Z</time></trkpt><trkpt lat="44.409036040685976" lon="9.248017059233458"><ele>111.33333333333334</ele><time>2026-05-03T13:09:59Z</time></trkpt><trkpt lat="44.408865504346444" lon="9.24791451633417"><ele>114.0</ele><time>2026-05-03T13:09:59.999Z</time></trkpt><trkpt lat="44.408680610424966" lon="9.24777040540435"><ele>103.5</ele><time>2026-05-03T13:10:00.999Z</time></trkpt><trkpt lat="44.40848542170508" lon="9.247618289741258"><ele>93.0</ele><time>2026-05-03T13:10:01.999Z</time></trkpt><trkpt lat="44.40828579923731" lon="9.247466040878455"><ele>93.0</ele><time>2026-05-03T13:10:02.999Z</time></trkpt><trkpt lat="44.4080974055198" lon="9.247342625075234"><ele>93.0</ele><time>2026-05-03T13:10:03.999Z</time></trkpt><trkpt lat="44.40798679019879" lon="9.247107512431663"><ele>93.0</ele><time>2026-05-03T13:10:04.999Z</time></trkpt><trkpt lat="44.407779603379" lon="9.247057890979187"><ele>99.0</ele><time>2026-05-03T13:10:05.999Z</time></trkpt><trkpt lat="44.40754720305338" lon="9.247045086126594"><ele>105.0</ele><time>2026-05-03T13:10:06.999Z</time></trkpt><trkpt lat="44.407329269869756" lon="9.247051442462332"><ele>105.0</ele><time>2026-05-03T13:10:07.999Z</time></trkpt><trkpt lat="44.40711497224348" lon="9.247113775963975"><ele>105.0</ele><time>2026-05-03T13:10:08.999Z</time></trkpt><trkpt lat="44.406923904857415" lon="9.247244792378918"><ele>105.0</ele><time>2026-05-03T13:10:09.999Z</time></trkpt><trkpt lat="44.40671652185201" lon="9.247349977050256"><ele>106.0</ele><time>2026-05-03T13:10:10.999Z</time></trkpt><trkpt lat="44.40652091441384" lon="9.247426869457213"><ele>107.0</ele><time>2026-05-03T13:10:11.999Z</time></trkpt><trkpt lat="44.406359094033064" lon="9.2475435342688"><ele>108.0</ele><time>2026-05-03T13:10:12.999Z</time></trkpt><trkpt lat="44.40621480874603" lon="9.247722409564862"><ele>108.0</ele><time>2026-05-03T13:10:13.999Z</time></trkpt><trkpt lat="44.406071593686924" lon="9.24798961096616"><ele>108.0</ele><time>2026-05-03T13:10:14.999Z</time></trkpt><trkpt lat="44.40594096981631" lon="9.248247144612234"><ele>102.0</ele><time>2026-05-03T13:10:15.999Z</time></trkpt><trkpt lat="44.405836797665934" lon="9.248567823449163"><ele>96.0</ele><time>2026-05-03T13:10:16.999Z</time></trkpt><trkpt lat="44.40572830161873" lon="9.248891534750596"><ele>97.33333333333334</ele><time>2026-05-03T13:10:17.999Z</time></trkpt><trkpt lat="44.405631058969966" lon="9.249166510951829"><ele>98.66666666666667</ele><time>2026-05-03T13:10:18.999Z</time></trkpt><trkpt lat="44.40553677979555" lon="9.249396062426847"><ele>100.0</ele><time>2026-05-03T13:10:19.999Z</time></trkpt><trkpt lat="44.40544690819765" lon="9.249625744320692"><ele>95.0</ele><time>2026-05-03T13:10:20.999Z</time></trkpt><trkpt lat="44.405347705568005" lon="9.249823094541156"><ele>90.0</ele><time>2026-05-03T13:10:21.999Z</time></trkpt><trkpt lat="44.40524428772231" lon="9.250003379276178"><ele>85.0</ele><time>2026-05-03T13:10:22.999Z</time></trkpt><trkpt lat="44.405138105869206" lon="9.250142591308776"><ele>85.0</ele><time>2026-05-03T13:10:23.999Z</time></trkpt><trkpt lat="44.405015438474216" lon="9.250198139378638"><ele>85.0</ele><time>2026-05-03T13:10:24.999Z</time></trkpt><trkpt lat="44.40488423556546" lon="9.250178100464991"><ele>85.0</ele><time>2026-05-03T13:10:25.999Z</time></trkpt><trkpt lat="44.404716508474706" lon="9.250159626340514"><ele>85.0</ele><time>2026-05-03T13:10:26.999Z</time></trkpt><trkpt lat="44.40453306219263" lon="9.250114537720188"><ele>85.0</ele><time>2026-05-03T13:10:27.999Z</time></trkpt><trkpt lat="44.404349638644085" lon="9.250084573778391"><ele>85.0</ele><time>2026-05-03T13:10:28.999Z</time></trkpt><trkpt lat="44.404165956035484" lon="9.250058791682937"><ele>85.0</ele><time>2026-05-03T13:10:29.999Z</time></trkpt><trkpt lat="44.40397905374619" lon="9.250025131496372"><ele>83.33333333333333</ele><time>2026-05-03T13:10:30.999Z</time></trkpt><trkpt lat="44.403799043701994" lon="9.249971885206254"><ele>81.66666666666667</ele><time>2026-05-03T13:10:31.999Z</time></trkpt><trkpt lat="44.403615560002606" lon="9.249953125715995"><ele>80.0</ele><time>2026-05-03T13:10:32.999Z</time></trkpt><trkpt lat="44.4034448192182" lon="9.249918484302489"><ele>80.0</ele><time>2026-05-03T13:10:33.999Z</time></trkpt><trkpt lat="44.40328882651849" lon="9.2498974493731"><ele>80.0</ele><time>2026-05-03T13:10:34.999Z</time></trkpt><trkpt lat="44.40314533752242" lon="9.249880588749814"><ele>80.0</ele><time>2026-05-03T13:10:35.999Z</time></trkpt><trkpt lat="44.40303216358525" lon="9.249847883065897"><ele>80.0</ele><time>2026-05-03T13:10:36.999Z</time></trkpt><trkpt lat="44.402931786868024" lon="9.249828820621929"><ele>79.8</ele><time>2026-05-03T13:10:37.999Z</time></trkpt><trkpt lat="44.40286099876563" lon="9.249784386088841"><ele>79.6</ele><time>2026-05-03T13:10:38.999Z</time></trkpt><trkpt lat="44.40280647454352" lon="9.249739157558682"><ele>79.4</ele><time>2026-05-03T13:10:39.999Z</time></trkpt><trkpt lat="44.40270937071659" lon="9.249708064099607"><ele>79.2</ele><time>2026-05-03T13:10:45.999Z</time></trkpt><trkpt lat="44.40262149052018" lon="9.249966583891707"><ele>79.0</ele><time>2026-05-03T13:10:46.999Z</time></trkpt><trkpt lat="44.40256123296959" lon="9.25013562071212"><ele>78.25</ele><time>2026-05-03T13:10:47.999Z</time></trkpt><trkpt lat="44.40250212532452" lon="9.250324155862337"><ele>77.5</ele><time>2026-05-03T13:10:48.999Z</time></trkpt><trkpt lat="44.40244824808826" lon="9.250504146128561"><ele>76.75</ele><time>2026-05-03T13:10:49.999Z</time></trkpt><trkpt lat="44.40237010613934" lon="9.250704179660584"><ele>76.0</ele><time>2026-05-03T13:10:50.999Z</time></trkpt><trkpt lat="44.40229759688145" lon="9.250915556105495"><ele>76.0</ele><time>2026-05-03T13:10:51.999Z</time></trkpt><trkpt lat="44.40222453332979" lon="9.251146533902427"><ele>76.0</ele><time>2026-05-03T13:10:52.999Z</time></trkpt><trkpt lat="44.40214907301215" lon="9.251374937357172"><ele>76.0</ele><time>2026-05-03T13:10:53.999Z</time></trkpt><trkpt lat="44.40206914252924" lon="9.251598573613116"><ele>76.0</ele><time>2026-05-03T13:10:54.999Z</time></trkpt><trkpt lat="44.40198978771494" lon="9.251822522537777"><ele>76.0</ele><time>2026-05-03T13:10:55.999Z</time></trkpt><trkpt lat="44.40191293198935" lon="9.25204193292284"><ele>76.0</ele><time>2026-05-03T13:10:56.999Z</time></trkpt><trkpt lat="44.40183996507224" lon="9.252269653769257"><ele>76.33333333333333</ele><time>2026-05-03T13:10:57.999Z</time></trkpt><trkpt lat="44.401761828088446" lon="9.252493620342136"><ele>76.66666666666667</ele><time>2026-05-03T13:10:58.999Z</time></trkpt><trkpt lat="44.401680746815494" lon="9.252721807258652"><ele>77.0</ele><time>2026-05-03T13:10:59.999Z</time></trkpt><trkpt lat="44.40160072081305" lon="9.252950392973252"><ele>77.66666666666667</ele><time>2026-05-03T13:11:00.999Z</time></trkpt><trkpt lat="44.40152109154868" lon="9.253181915069199"><ele>78.33333333333333</ele><time>2026-05-03T13:11:01.999Z</time></trkpt><trkpt lat="44.401438744989676" lon="9.253408702161574"><ele>79.0</ele><time>2026-05-03T13:11:02.999Z</time></trkpt><trkpt lat="44.40134926870964" lon="9.253640979048873"><ele>77.66666666666666</ele><time>2026-05-03T13:11:03.999Z</time></trkpt><trkpt lat="44.401268563881" lon="9.253875932704107"><ele>76.33333333333333</ele><time>2026-05-03T13:11:04.999Z</time></trkpt><trkpt lat="44.40119226721163" lon="9.25410785620495"><ele>75.0</ele><time>2026-05-03T13:11:05.999Z</time></trkpt><trkpt lat="44.40111316159345" lon="9.254338639145649"><ele>75.0</ele><time>2026-05-03T13:11:06.999Z</time></trkpt><trkpt lat="44.40103166389646" lon="9.254556909920815"><ele>75.0</ele><time>2026-05-03T13:11:07.999Z</time></trkpt><trkpt lat="44.400951606618335" lon="9.254775497911558"><ele>75.0</ele><time>2026-05-03T13:11:08.999Z</time></trkpt><trkpt lat="44.400874659234844" lon="9.254986500286545"><ele>75.0</ele><time>2026-05-03T13:11:09.999Z</time></trkpt><trkpt lat="44.400803328153366" lon="9.255185516828451"><ele>75.0</ele><time>2026-05-03T13:11:10.999Z</time></trkpt><trkpt lat="44.40074284693113" lon="9.255374242338611"><ele>75.0</ele><time>2026-05-03T13:11:11.999Z</time></trkpt><trkpt lat="44.400717209580534" lon="9.255576207883298"><ele>74.66666666666667</ele><time>2026-05-03T13:11:12.999Z</time></trkpt><trkpt lat="44.40073667926128" lon="9.255791836772303"><ele>74.33333333333334</ele><time>2026-05-03T13:11:13.999Z</time></trkpt><trkpt lat="44.40081059732965" lon="9.256017500004138"><ele>74.0</ele><time>2026-05-03T13:11:14.999Z</time></trkpt><trkpt lat="44.40086770084526" lon="9.256267889024366"><ele>73.66666666666667</ele><time>2026-05-03T13:11:15.999Z</time></trkpt><trkpt lat="44.400938402356076" lon="9.256544573474024"><ele>73.33333333333333</ele><time>2026-05-03T13:11:16.999Z</time></trkpt><trkpt lat="44.40101346759294" lon="9.256835922451899"><ele>73.0</ele><time>2026-05-03T13:11:17.999Z</time></trkpt><trkpt lat="44.401087895577916" lon="9.257100619812102"><ele>73.33333333333333</ele><time>2026-05-03T13:11:18.999Z</time></trkpt><trkpt lat="44.401139011870654" lon="9.25734276906826"><ele>73.66666666666667</ele><time>2026-05-03T13:11:19.999Z</time></trkpt><trkpt lat="44.40116924862123" lon="9.257575636461882"><ele>74.0</ele><time>2026-05-03T13:11:20.999Z</time></trkpt><trkpt lat="44.4011494503647" lon="9.25782336915135"><ele>74.0</ele><time>2026-05-03T13:11:21.999Z</time></trkpt><trkpt lat="44.40105688678838" lon="9.258039607739478"><ele>74.0</ele><time>2026-05-03T13:11:22.999Z</time></trkpt><trkpt lat="44.400937777718866" lon="9.258253547882502"><ele>74.0</ele><time>2026-05-03T13:11:23.999Z</time></trkpt><trkpt lat="44.40080764956534" lon="9.258457280116486"><ele>75.33333333333334</ele><time>2026-05-03T13:11:24.999Z</time></trkpt><trkpt lat="44.40069354249095" lon="9.25865549794712"><ele>76.66666666666667</ele><time>2026-05-03T13:11:25.999Z</time></trkpt><trkpt lat="44.40059135685936" lon="9.258826126829543"><ele>78.0</ele><time>2026-05-03T13:11:26.999Z</time></trkpt><trkpt lat="44.400515509053655" lon="9.258991447047592"><ele>77.5</ele><time>2026-05-03T13:11:27.998Z</time></trkpt><trkpt lat="44.400419197762545" lon="9.259119599030921"><ele>77.0</ele><time>2026-05-03T13:11:28.998Z</time></trkpt><trkpt lat="44.40032642503742" lon="9.259230660208384"><ele>76.5</ele><time>2026-05-03T13:11:29.998Z</time></trkpt><trkpt lat="44.40020974378803" lon="9.259318069677745"><ele>76.0</ele><time>2026-05-03T13:11:30.998Z</time></trkpt><trkpt lat="44.400079073623495" lon="9.259360544734726"><ele>76.0</ele><time>2026-05-03T13:11:31.998Z</time></trkpt><trkpt lat="44.3999477161249" lon="9.259403204011818"><ele>76.0</ele><time>2026-05-03T13:11:32.998Z</time></trkpt><trkpt lat="44.399826299142084" lon="9.259455227414664"><ele>76.0</ele><time>2026-05-03T13:11:33.998Z</time></trkpt><trkpt lat="44.39968927545477" lon="9.259489438464456"><ele>76.0</ele><time>2026-05-03T13:11:34.998Z</time></trkpt><trkpt lat="44.399538297336186" lon="9.259531146220985"><ele>73.66666666666666</ele><time>2026-05-03T13:11:35.998Z</time></trkpt><trkpt lat="44.39936724808486" lon="9.259587163193595"><ele>71.33333333333333</ele><time>2026-05-03T13:11:36.998Z</time></trkpt><trkpt lat="44.39917228235165" lon="9.259651012460944"><ele>69.0</ele><time>2026-05-03T13:11:37.998Z</time></trkpt><trkpt lat="44.398983614317444" lon="9.259710677249137"><ele>69.0</ele><time>2026-05-03T13:11:38.998Z</time></trkpt><trkpt lat="44.398798734688235" lon="9.259718338714848"><ele>69.0</ele><time>2026-05-03T13:11:39.999Z</time></trkpt><trkpt lat="44.398639303026044" lon="9.259622750374787"><ele>69.0</ele><time>2026-05-03T13:11:40.999Z</time></trkpt><trkpt lat="44.39844567143565" lon="9.259504636035754"><ele>69.0</ele><time>2026-05-03T13:11:41.999Z</time></trkpt><trkpt lat="44.39823916303803" lon="9.25942123966496"><ele>69.0</ele><time>2026-05-03T13:11:42.999Z</time></trkpt><trkpt lat="44.398024125634606" lon="9.259371270376949"><ele>69.0</ele><time>2026-05-03T13:11:43.999Z</time></trkpt><trkpt lat="44.39782009095906" lon="9.259347774844393"><ele>69.66666666666667</ele><time>2026-05-03T13:11:44.999Z</time></trkpt><trkpt lat="44.39763432679419" lon="9.25932683183432"><ele>70.33333333333334</ele><time>2026-05-03T13:11:45.999Z</time></trkpt><trkpt lat="44.39746105656625" lon="9.259298428763374"><ele>71.0</ele><time>2026-05-03T13:11:46.999Z</time></trkpt><trkpt lat="44.39727904981228" lon="9.259262753785942"><ele>71.0</ele><time>2026-05-03T13:11:47.999Z</time></trkpt><trkpt lat="44.39709206982748" lon="9.259230332595312"><ele>71.0</ele><time>2026-05-03T13:11:49Z</time></trkpt><trkpt lat="44.39690364946715" lon="9.259232082975524"><ele>71.0</ele><time>2026-05-03T13:11:50Z</time></trkpt><trkpt lat="44.396704367477476" lon="9.25927880770113"><ele>71.0</ele><time>2026-05-03T13:11:51Z</time></trkpt><trkpt lat="44.396491409043" lon="9.259345437039267"><ele>71.0</ele><time>2026-05-03T13:11:52Z</time></trkpt><trkpt lat="44.3962746985734" lon="9.25942066668267"><ele>71.0</ele><time>2026-05-03T13:11:53Z</time></trkpt><trkpt lat="44.3960575850711" lon="9.259511009692487"><ele>70.66666666666667</ele><time>2026-05-03T13:11:54Z</time></trkpt><trkpt lat="44.395838221298284" lon="9.259585089987153"><ele>70.33333333333333</ele><time>2026-05-03T13:11:55Z</time></trkpt><trkpt lat="44.395632093790724" lon="9.259670718283433"><ele>70.0</ele><time>2026-05-03T13:11:56Z</time></trkpt><trkpt lat="44.395451195106084" lon="9.259798973504216"><ele>70.0</ele><time>2026-05-03T13:11:57Z</time></trkpt><trkpt lat="44.39529300934668" lon="9.259993427311334"><ele>70.0</ele><time>2026-05-03T13:11:58Z</time></trkpt><trkpt lat="44.3951765005286" lon="9.260240869167738"><ele>70.0</ele><time>2026-05-03T13:11:59Z</time></trkpt><trkpt lat="44.39509275008865" lon="9.260522592827138"><ele>73.0</ele><time>2026-05-03T13:12:00Z</time></trkpt><trkpt lat="44.395002276540566" lon="9.2608110108723"><ele>76.0</ele><time>2026-05-03T13:12:01Z</time></trkpt><trkpt lat="44.39489992409506" lon="9.261094377447668"><ele>76.0</ele><time>2026-05-03T13:12:02Z</time></trkpt><trkpt lat="44.3947949178509" lon="9.261382010428834"><ele>76.0</ele><time>2026-05-03T13:12:03Z</time></trkpt><trkpt lat="44.394690825198566" lon="9.26167291322857"><ele>72.0</ele><time>2026-05-03T13:12:04Z</time></trkpt><trkpt lat="44.394601085440165" lon="9.26194307541187"><ele>68.0</ele><time>2026-05-03T13:12:05Z</time></trkpt><trkpt lat="44.394533987731734" lon="9.262234032168715"><ele>64.0</ele><time>2026-05-03T13:12:06Z</time></trkpt><trkpt lat="44.394523300850395" lon="9.26254122975716"><ele>64.0</ele><time>2026-05-03T13:12:07Z</time></trkpt><trkpt lat="44.394556698268666" lon="9.262846404546323"><ele>64.0</ele><time>2026-05-03T13:12:08Z</time></trkpt><trkpt lat="44.39463163398153" lon="9.263132853263066"><ele>64.0</ele><time>2026-05-03T13:12:09Z</time></trkpt><trkpt lat="44.39474551903236" lon="9.263421450734329"><ele>70.0</ele><time>2026-05-03T13:12:10Z</time></trkpt><trkpt lat="44.39486667577739" lon="9.263703593995993"><ele>76.0</ele><time>2026-05-03T13:12:11Z</time></trkpt><trkpt lat="44.394948105355475" lon="9.263983380954734"><ele>76.0</ele><time>2026-05-03T13:12:12Z</time></trkpt><trkpt lat="44.3950172319204" lon="9.264261976527818"><ele>76.0</ele><time>2026-05-03T13:12:13Z</time></trkpt><trkpt lat="44.39505197599791" lon="9.264565424334403"><ele>76.0</ele><time>2026-05-03T13:12:14Z</time></trkpt><trkpt lat="44.39501247444551" lon="9.264866497690676"><ele>75.5</ele><time>2026-05-03T13:12:15Z</time></trkpt><trkpt lat="44.394969765803495" lon="9.265177919353636"><ele>75.0</ele><time>2026-05-03T13:12:16Z</time></trkpt><trkpt lat="44.39491935127099" lon="9.265506197445463"><ele>74.0</ele><time>2026-05-03T13:12:17Z</time></trkpt><trkpt lat="44.39486675471448" lon="9.265826508446686"><ele>73.0</ele><time>2026-05-03T13:12:18Z</time></trkpt><trkpt lat="44.394821122331614" lon="9.266174245258371"><ele>77.0</ele><time>2026-05-03T13:12:19Z</time></trkpt><trkpt lat="44.39477219675978" lon="9.266531283673762"><ele>81.0</ele><time>2026-05-03T13:12:20Z</time></trkpt><trkpt lat="44.39473085909026" lon="9.26686789792437"><ele>81.0</ele><time>2026-05-03T13:12:21Z</time></trkpt><trkpt lat="44.39469066177092" lon="9.267205131662507"><ele>81.0</ele><time>2026-05-03T13:12:22Z</time></trkpt><trkpt lat="44.39466120638182" lon="9.267524671527925"><ele>74.0</ele><time>2026-05-03T13:12:22.999Z</time></trkpt><trkpt lat="44.39463579679379" lon="9.267841742951125"><ele>67.0</ele><time>2026-05-03T13:12:23.999Z</time></trkpt><trkpt lat="44.39457700387738" lon="9.26816135981868"><ele>67.0</ele><time>2026-05-03T13:12:24.999Z</time></trkpt><trkpt lat="44.39452439948275" lon="9.268475063902073"><ele>67.0</ele><time>2026-05-03T13:12:25.999Z</time></trkpt><trkpt lat="44.39447062271924" lon="9.268803586540525"><ele>69.0</ele><time>2026-05-03T13:12:26.999Z</time></trkpt><trkpt lat="44.394431707538274" lon="9.269127216736617"><ele>71.0</ele><time>2026-05-03T13:12:27.999Z</time></trkpt><trkpt lat="44.39436630865952" lon="9.269450178078932"><ele>75.0</ele><time>2026-05-03T13:12:28.999Z</time></trkpt><trkpt lat="44.394291274745086" lon="9.269782925732917"><ele>79.0</ele><time>2026-05-03T13:12:29.999Z</time></trkpt><trkpt lat="44.394172783640926" lon="9.270069016155528"><ele>79.0</ele><time>2026-05-03T13:12:30.999Z</time></trkpt><trkpt lat="44.39405792591327" lon="9.270371205390992"><ele>79.0</ele><time>2026-05-03T13:12:31.999Z</time></trkpt><trkpt lat="44.39394664528852" lon="9.270666773256258"><ele>76.33333333333333</ele><time>2026-05-03T13:12:32.999Z</time></trkpt><trkpt lat="44.39384472327794" lon="9.270956631427268"><ele>73.66666666666667</ele><time>2026-05-03T13:12:33.999Z</time></trkpt><trkpt lat="44.39374507027462" lon="9.271221447614312"><ele>71.0</ele><time>2026-05-03T13:12:34.999Z</time></trkpt><trkpt lat="44.39365849491811" lon="9.271475802580992"><ele>71.0</ele><time>2026-05-03T13:12:35.999Z</time></trkpt><trkpt lat="44.39358187244997" lon="9.27171786329038"><ele>71.0</ele><time>2026-05-03T13:12:36.999Z</time></trkpt><trkpt lat="44.393498346057385" lon="9.271929548149734"><ele>71.0</ele><time>2026-05-03T13:12:37.999Z</time></trkpt><trkpt lat="44.39338439786625" lon="9.2720908779203"><ele>71.0</ele><time>2026-05-03T13:12:38.999Z</time></trkpt><trkpt lat="44.39322657841205" lon="9.272159239645365"><ele>71.0</ele><time>2026-05-03T13:12:39.999Z</time></trkpt><trkpt lat="44.39304039385313" lon="9.272187062046145"><ele>71.0</ele><time>2026-05-03T13:12:40.999Z</time></trkpt><trkpt lat="44.39284989838437" lon="9.27221319315959"><ele>71.25</ele><time>2026-05-03T13:12:41.999Z</time></trkpt><trkpt lat="44.39270313611623" lon="9.272258785052385"><ele>71.5</ele><time>2026-05-03T13:12:42.999Z</time></trkpt><trkpt lat="44.392583839714064" lon="9.272295704371102"><ele>71.75</ele><time>2026-05-03T13:12:43.999Z</time></trkpt><trkpt lat="44.39247550862781" lon="9.272329602210707"><ele>72.0</ele><time>2026-05-03T13:12:44.999Z</time></trkpt><trkpt lat="44.39236299876219" lon="9.272364979425314"><ele>72.0</ele><time>2026-05-03T13:12:45.999Z</time></trkpt><trkpt lat="44.39223974921751" lon="9.272420174136016"><ele>72.0</ele><time>2026-05-03T13:12:46.999Z</time></trkpt><trkpt lat="44.392126319623785" lon="9.272530431736893"><ele>72.0</ele><time>2026-05-03T13:12:47.999Z</time></trkpt><trkpt lat="44.39201941475474" lon="9.27267917922006"><ele>72.0</ele><time>2026-05-03T13:12:48.999Z</time></trkpt><trkpt lat="44.391917402729625" lon="9.272886129454273"><ele>70.66666666666667</ele><time>2026-05-03T13:12:49.999Z</time></trkpt><trkpt lat="44.391808896633826" lon="9.27311477335303"><ele>69.33333333333334</ele><time>2026-05-03T13:12:50.999Z</time></trkpt><trkpt lat="44.39167270087403" lon="9.27336306660309"><ele>68.0</ele><time>2026-05-03T13:12:51.999Z</time></trkpt><trkpt lat="44.39152249358293" lon="9.273609834940201"><ele>68.0</ele><time>2026-05-03T13:12:52.999Z</time></trkpt><trkpt lat="44.39137272874527" lon="9.273865041011398"><ele>68.0</ele><time>2026-05-03T13:12:53.999Z</time></trkpt><trkpt lat="44.391224022096665" lon="9.274174681612106"><ele>64.5</ele><time>2026-05-03T13:12:54.999Z</time></trkpt><trkpt lat="44.39109162112681" lon="9.27448059450403"><ele>61.0</ele><time>2026-05-03T13:12:55.999Z</time></trkpt><trkpt lat="44.390976388197615" lon="9.274827976359662"><ele>61.0</ele><time>2026-05-03T13:12:56.999Z</time></trkpt><trkpt lat="44.39088977236652" lon="9.27515428006036"><ele>61.0</ele><time>2026-05-03T13:12:57.999Z</time></trkpt><trkpt lat="44.39081204374396" lon="9.2754573284937"><ele>62.0</ele><time>2026-05-03T13:12:58.999Z</time></trkpt><trkpt lat="44.39073412529288" lon="9.275734566275228"><ele>63.0</ele><time>2026-05-03T13:12:59.999Z</time></trkpt><trkpt lat="44.390648710009145" lon="9.276006629764648"><ele>64.0</ele><time>2026-05-03T13:13:00.999Z</time></trkpt><trkpt lat="44.39055585430166" lon="9.276248436484812"><ele>62.0</ele><time>2026-05-03T13:13:01.999Z</time></trkpt><trkpt lat="44.39042871222658" lon="9.27648161401115"><ele>60.0</ele><time>2026-05-03T13:13:02.999Z</time></trkpt><trkpt lat="44.39025544857162" lon="9.276687571656959"><ele>58.0</ele><time>2026-05-03T13:13:03.999Z</time></trkpt><trkpt lat="44.390066815700145" lon="9.276902309846484"><ele>58.0</ele><time>2026-05-03T13:13:04.999Z</time></trkpt><trkpt lat="44.389909997357364" lon="9.277144863364674"><ele>58.0</ele><time>2026-05-03T13:13:05.999Z</time></trkpt><trkpt lat="44.389786942302166" lon="9.277426897068551"><ele>56.5</ele><time>2026-05-03T13:13:06.999Z</time></trkpt><trkpt lat="44.38969339120624" lon="9.277734278174611"><ele>55.0</ele><time>2026-05-03T13:13:07.999Z</time></trkpt><trkpt lat="44.389584335165715" lon="9.278023467201182"><ele>55.0</ele><time>2026-05-03T13:13:08.999Z</time></trkpt><trkpt lat="44.38942863606855" lon="9.278255847018164"><ele>55.0</ele><time>2026-05-03T13:13:09.999Z</time></trkpt><trkpt lat="44.38926992216342" lon="9.278474953757982"><ele>55.0</ele><time>2026-05-03T13:13:10.999Z</time></trkpt><trkpt lat="44.38915881713396" lon="9.278736536541746"><ele>55.0</ele><time>2026-05-03T13:13:11.999Z</time></trkpt><trkpt lat="44.38907463739677" lon="9.279008353319357"><ele>55.0</ele><time>2026-05-03T13:13:12.999Z</time></trkpt><trkpt lat="44.38894455411512" lon="9.279227184228775"><ele>53.0</ele><time>2026-05-03T13:13:13.999Z</time></trkpt><trkpt lat="44.388757763849824" lon="9.2794188914963"><ele>51.0</ele><time>2026-05-03T13:13:14.999Z</time></trkpt><trkpt lat="44.3885467755487" lon="9.279609064124491"><ele>54.5</ele><time>2026-05-03T13:13:15.999Z</time></trkpt><trkpt lat="44.388333799102156" lon="9.27980252747777"><ele>58.0</ele><time>2026-05-03T13:13:16.999Z</time></trkpt><trkpt lat="44.3881160691005" lon="9.280013954853917"><ele>54.0</ele><time>2026-05-03T13:13:17.999Z</time></trkpt><trkpt lat="44.38790953333489" lon="9.280218515609935"><ele>50.0</ele><time>2026-05-03T13:13:18.999Z</time></trkpt><trkpt lat="44.387729292043765" lon="9.280419793447377"><ele>50.333333333333336</ele><time>2026-05-03T13:13:19.999Z</time></trkpt><trkpt lat="44.38756011870424" lon="9.280612858238033"><ele>50.66666666666667</ele><time>2026-05-03T13:13:20.999Z</time></trkpt><trkpt lat="44.38738682439467" lon="9.280757786324584"><ele>51.0</ele><time>2026-05-03T13:13:21.999Z</time></trkpt><trkpt lat="44.387175284460334" lon="9.280819293393456"><ele>51.0</ele><time>2026-05-03T13:13:22.999Z</time></trkpt><trkpt lat="44.38695169484468" lon="9.280821864612184"><ele>51.0</ele><time>2026-05-03T13:13:23.999Z</time></trkpt><trkpt lat="44.3867219264536" lon="9.280812047329624"><ele>51.0</ele><time>2026-05-03T13:13:24.999Z</time></trkpt><trkpt lat="44.38651277455779" lon="9.280842006355453"><ele>51.0</ele><time>2026-05-03T13:13:25.999Z</time></trkpt><trkpt lat="44.386307076060646" lon="9.280943413710235"><ele>51.0</ele><time>2026-05-03T13:13:26.999Z</time></trkpt><trkpt lat="44.38610964350064" lon="9.281108965640424"><ele>51.0</ele><time>2026-05-03T13:13:27.999Z</time></trkpt><trkpt lat="44.38592101544092" lon="9.281328046307964"><ele>51.0</ele><time>2026-05-03T13:13:28.999Z</time></trkpt><trkpt lat="44.38570992270634" lon="9.281545265660357"><ele>52.5</ele><time>2026-05-03T13:13:29.999Z</time></trkpt><trkpt lat="44.385488606425774" lon="9.281745571310397"><ele>54.0</ele><time>2026-05-03T13:13:30.999Z</time></trkpt><trkpt lat="44.385279572188026" lon="9.28195221549561"><ele>54.0</ele><time>2026-05-03T13:13:31.999Z</time></trkpt><trkpt lat="44.385098787470675" lon="9.282147289599251"><ele>54.0</ele><time>2026-05-03T13:13:32.999Z</time></trkpt><trkpt lat="44.3849352680807" lon="9.282371820081575"><ele>54.5</ele><time>2026-05-03T13:13:33.999Z</time></trkpt><trkpt lat="44.38478693364801" lon="9.282629822113053"><ele>55.0</ele><time>2026-05-03T13:13:34.999Z</time></trkpt><trkpt lat="44.38463469186495" lon="9.282877529260626"><ele>55.0</ele><time>2026-05-03T13:13:35.999Z</time></trkpt><trkpt lat="44.38447430991971" lon="9.283103244035718"><ele>55.0</ele><time>2026-05-03T13:13:36.999Z</time></trkpt><trkpt lat="44.384300453179655" lon="9.283322498145656"><ele>55.0</ele><time>2026-05-03T13:13:37.999Z</time></trkpt><trkpt lat="44.38414417748416" lon="9.283507146741025"><ele>55.0</ele><time>2026-05-03T13:13:38.999Z</time></trkpt><trkpt lat="44.38399261839557" lon="9.283717215692"><ele>55.0</ele><time>2026-05-03T13:13:39.999Z</time></trkpt><trkpt lat="44.38382830065355" lon="9.28392144530187"><ele>54.0</ele><time>2026-05-03T13:13:40.999Z</time></trkpt><trkpt lat="44.383657035987135" lon="9.284089657316786"><ele>53.0</ele><time>2026-05-03T13:13:41.999Z</time></trkpt><trkpt lat="44.383485753801075" lon="9.284260639377129"><ele>52.0</ele><time>2026-05-03T13:13:42.999Z</time></trkpt><trkpt lat="44.383318967528744" lon="9.28443650211675"><ele>52.0</ele><time>2026-05-03T13:13:43.999Z</time></trkpt><trkpt lat="44.38316041646829" lon="9.284612449617455"><ele>52.0</ele><time>2026-05-03T13:13:44.999Z</time></trkpt><trkpt lat="44.38300093263755" lon="9.284779652458266"><ele>52.0</ele><time>2026-05-03T13:13:46Z</time></trkpt><trkpt lat="44.38283260807376" lon="9.284916841861799"><ele>51.666666666666664</ele><time>2026-05-03T13:13:47Z</time></trkpt><trkpt lat="44.38265838719694" lon="9.285041427939841"><ele>51.33333333333333</ele><time>2026-05-03T13:13:48Z</time></trkpt><trkpt lat="44.382504529827855" lon="9.285196902041363"><ele>51.0</ele><time>2026-05-03T13:13:49Z</time></trkpt><trkpt lat="44.38237105613052" lon="9.285378269887627"><ele>51.0</ele><time>2026-05-03T13:13:50Z</time></trkpt><trkpt lat="44.3822485309944" lon="9.285552535859013"><ele>51.0</ele><time>2026-05-03T13:13:51Z</time></trkpt><trkpt lat="44.38212700283879" lon="9.285709761764391"><ele>51.0</ele><time>2026-05-03T13:13:52Z</time></trkpt><trkpt lat="44.38200731348678" lon="9.28587424701295"><ele>52.0</ele><time>2026-05-03T13:13:53Z</time></trkpt><trkpt lat="44.38187888545193" lon="9.286044421635676"><ele>53.0</ele><time>2026-05-03T13:13:54Z</time></trkpt><trkpt lat="44.38174895943835" lon="9.286202944983287"><ele>54.0</ele><time>2026-05-03T13:13:55Z</time></trkpt><trkpt lat="44.381614079057066" lon="9.286358692105402"><ele>54.0</ele><time>2026-05-03T13:13:56Z</time></trkpt><trkpt lat="44.381469342439" lon="9.286499668112098"><ele>54.0</ele><time>2026-05-03T13:13:57Z</time></trkpt><trkpt lat="44.38132097077522" lon="9.286626268765177"><ele>54.0</ele><time>2026-05-03T13:13:58Z</time></trkpt><trkpt lat="44.38117438359064" lon="9.286746229945441"><ele>54.0</ele><time>2026-05-03T13:13:59Z</time></trkpt><trkpt lat="44.38103759359213" lon="9.286844179619546"><ele>54.0</ele><time>2026-05-03T13:14:00Z</time></trkpt><trkpt lat="44.380896397915095" lon="9.28693483214474"><ele>54.0</ele><time>2026-05-03T13:14:01Z</time></trkpt><trkpt lat="44.38074972949527" lon="9.287020138967296"><ele>54.0</ele><time>2026-05-03T13:14:02Z</time></trkpt><trkpt lat="44.38060202431506" lon="9.287117775098306"><ele>54.0</ele><time>2026-05-03T13:14:03Z</time></trkpt><trkpt lat="44.38044935616937" lon="9.287219749861007"><ele>54.0</ele><time>2026-05-03T13:14:04Z</time></trkpt><trkpt lat="44.38029996681721" lon="9.28733171461444"><ele>53.33333333333333</ele><time>2026-05-03T13:14:05Z</time></trkpt><trkpt lat="44.3801663441315" lon="9.28745816082891"><ele>52.666666666666664</ele><time>2026-05-03T13:14:06Z</time></trkpt><trkpt lat="44.38002107963973" lon="9.287575060934127"><ele>52.0</ele><time>2026-05-03T13:14:07Z</time></trkpt><trkpt lat="44.37989293309351" lon="9.287726649979447"><ele>52.0</ele><time>2026-05-03T13:14:08Z</time></trkpt><trkpt lat="44.379772566579305" lon="9.287862035618037"><ele>52.0</ele><time>2026-05-03T13:14:09Z</time></trkpt><trkpt lat="44.37964603132004" lon="9.28798354740729"><ele>52.0</ele><time>2026-05-03T13:14:10Z</time></trkpt><trkpt lat="44.37952127915017" lon="9.288108732707506"><ele>51.5</ele><time>2026-05-03T13:14:11Z</time></trkpt><trkpt lat="44.379405350780054" lon="9.288233072231137"><ele>51.0</ele><time>2026-05-03T13:14:12Z</time></trkpt><trkpt lat="44.379286540895706" lon="9.288363281924555"><ele>50.5</ele><time>2026-05-03T13:14:13Z</time></trkpt><trkpt lat="44.37917955763155" lon="9.288493565009189"><ele>50.0</ele><time>2026-05-03T13:14:14Z</time></trkpt><trkpt lat="44.379066068096286" lon="9.28863860869569"><ele>50.0</ele><time>2026-05-03T13:14:14.999Z</time></trkpt><trkpt lat="44.37895360117273" lon="9.288808983715978"><ele>50.0</ele><time>2026-05-03T13:14:15.999Z</time></trkpt><trkpt lat="44.378835023718246" lon="9.28899257953289"><ele>50.0</ele><time>2026-05-03T13:14:16.999Z</time></trkpt><trkpt lat="44.37870894269305" lon="9.289186441046295"><ele>50.0</ele><time>2026-05-03T13:14:17.999Z</time></trkpt><trkpt lat="44.37857632092451" lon="9.28938532963495"><ele>50.0</ele><time>2026-05-03T13:14:18.999Z</time></trkpt><trkpt lat="44.378449106729484" lon="9.289614033385025"><ele>50.0</ele><time>2026-05-03T13:14:19.999Z</time></trkpt><trkpt lat="44.378328830290876" lon="9.289875830100886"><ele>49.0</ele><time>2026-05-03T13:14:20.999Z</time></trkpt><trkpt lat="44.37821866312568" lon="9.290136896820156"><ele>48.0</ele><time>2026-05-03T13:14:21.999Z</time></trkpt><trkpt lat="44.37810922053625" lon="9.290422614226458"><ele>47.0</ele><time>2026-05-03T13:14:22.999Z</time></trkpt><trkpt lat="44.378009103363325" lon="9.290682993713354"><ele>47.0</ele><time>2026-05-03T13:14:23.999Z</time></trkpt><trkpt lat="44.37791776374094" lon="9.290905075645558"><ele>47.0</ele><time>2026-05-03T13:14:24.999Z</time></trkpt><trkpt lat="44.377825708028205" lon="9.291128638611648"><ele>47.0</ele><time>2026-05-03T13:14:25.999Z</time></trkpt><trkpt lat="44.377747657565536" lon="9.291334795538004"><ele>49.75</ele><time>2026-05-03T13:14:26.999Z</time></trkpt><trkpt lat="44.37767545375803" lon="9.291532212270074"><ele>52.5</ele><time>2026-05-03T13:14:27.999Z</time></trkpt><trkpt lat="44.377608984409534" lon="9.291706031965559"><ele>55.25</ele><time>2026-05-03T13:14:28.999Z</time></trkpt><trkpt lat="44.37755207706948" lon="9.291858247131575"><ele>58.0</ele><time>2026-05-03T13:14:29.999Z</time></trkpt><trkpt lat="44.37750226915609" lon="9.29199210744767"><ele>58.0</ele><time>2026-05-03T13:14:30.999Z</time></trkpt><trkpt lat="44.37743690372873" lon="9.292113843474995"><ele>58.0</ele><time>2026-05-03T13:14:31.999Z</time></trkpt><trkpt lat="44.37739144355962" lon="9.292269827461777"><ele>58.0</ele><time>2026-05-03T13:14:32.999Z</time></trkpt><trkpt lat="44.37732612548731" lon="9.292439019936944"><ele>58.0</ele><time>2026-05-03T13:14:33.999Z</time></trkpt><trkpt lat="44.377256745146326" lon="9.292626992683655"><ele>56.666666666666664</ele><time>2026-05-03T13:14:34.999Z</time></trkpt><trkpt lat="44.37717817399202" lon="9.292824949509848"><ele>55.33333333333333</ele><time>2026-05-03T13:14:35.999Z</time></trkpt><trkpt lat="44.37708231989531" lon="9.293047707428144"><ele>54.0</ele><time>2026-05-03T13:14:36.999Z</time></trkpt><trkpt lat="44.37696290546436" lon="9.293267282731929"><ele>54.0</ele><time>2026-05-03T13:14:37.999Z</time></trkpt><trkpt lat="44.37683177699716" lon="9.293492323595663"><ele>54.0</ele><time>2026-05-03T13:14:38.999Z</time></trkpt><trkpt lat="44.37668337368988" lon="9.293730613480058"><ele>54.0</ele><time>2026-05-03T13:14:39.999Z</time></trkpt><trkpt lat="44.376520578323365" lon="9.293996998886854"><ele>57.0</ele><time>2026-05-03T13:14:40.999Z</time></trkpt><trkpt lat="44.376370483094" lon="9.294243240664777"><ele>60.0</ele><time>2026-05-03T13:14:41.999Z</time></trkpt><trkpt lat="44.37625734888181" lon="9.294428915975582"><ele>63.0</ele><time>2026-05-03T13:14:42.999Z</time></trkpt><trkpt lat="44.37616819037591" lon="9.294606688905846"><ele>59.0</ele><time>2026-05-03T13:14:43.999Z</time></trkpt><trkpt lat="44.376070593928304" lon="9.29477166313469"><ele>55.0</ele><time>2026-05-03T13:14:44.999Z</time></trkpt><trkpt lat="44.37597544573869" lon="9.294929857798985"><ele>51.0</ele><time>2026-05-03T13:14:45.999Z</time></trkpt><trkpt lat="44.375870143180684" lon="9.295067623705542"><ele>47.0</ele><time>2026-05-03T13:14:46.999Z</time></trkpt><trkpt lat="44.37576806916442" lon="9.295235669310385"><ele>47.0</ele><time>2026-05-03T13:14:47.999Z</time></trkpt><trkpt lat="44.375644727775914" lon="9.295436421610429"><ele>47.0</ele><time>2026-05-03T13:14:48.999Z</time></trkpt><trkpt lat="44.375532851450345" lon="9.295649988794464"><ele>47.0</ele><time>2026-05-03T13:14:49.999Z</time></trkpt><trkpt lat="44.37541771400248" lon="9.295840636114148"><ele>47.33333333333333</ele><time>2026-05-03T13:14:50.999Z</time></trkpt><trkpt lat="44.37527315391595" lon="9.296047425073732"><ele>47.666666666666664</ele><time>2026-05-03T13:14:51.999Z</time></trkpt><trkpt lat="44.37515740935111" lon="9.29627373467619"><ele>48.0</ele><time>2026-05-03T13:14:52.999Z</time></trkpt><trkpt lat="44.37505107637558" lon="9.296443647281608"><ele>48.0</ele><time>2026-05-03T13:14:53.999Z</time></trkpt><trkpt lat="44.374974830560674" lon="9.296613116692612"><ele>48.0</ele><time>2026-05-03T13:14:54.999Z</time></trkpt><trkpt lat="44.37492048878862" lon="9.296819344833782"><ele>48.0</ele><time>2026-05-03T13:14:55.999Z</time></trkpt><trkpt lat="44.37484139057471" lon="9.29706921134816"><ele>48.33333333333333</ele><time>2026-05-03T13:14:56.999Z</time></trkpt><trkpt lat="44.374776134260955" lon="9.297358077126548"><ele>48.666666666666664</ele><time>2026-05-03T13:14:57.999Z</time></trkpt><trkpt lat="44.374711183620725" lon="9.297657752878985"><ele>49.0</ele><time>2026-05-03T13:14:58.999Z</time></trkpt><trkpt lat="44.374648706917306" lon="9.297959485540222"><ele>45.5</ele><time>2026-05-03T13:14:59.999Z</time></trkpt><trkpt lat="44.37457642913405" lon="9.29829573435226"><ele>42.0</ele><time>2026-05-03T13:15:00.999Z</time></trkpt><trkpt lat="44.37449691993973" lon="9.298641236074042"><ele>43.5</ele><time>2026-05-03T13:15:01.999Z</time></trkpt><trkpt lat="44.374399397930866" lon="9.298992598522096"><ele>45.0</ele><time>2026-05-03T13:15:02.999Z</time></trkpt><trkpt lat="44.37429440730438" lon="9.299353492438287"><ele>45.0</ele><time>2026-05-03T13:15:03.999Z</time></trkpt><trkpt lat="44.37421113165253" lon="9.299681695438123"><ele>45.0</ele><time>2026-05-03T13:15:04.999Z</time></trkpt><trkpt lat="44.37411831707365" lon="9.29997059111563"><ele>46.5</ele><time>2026-05-03T13:15:05.999Z</time></trkpt><trkpt lat="44.37403098206892" lon="9.300270709630041"><ele>48.0</ele><time>2026-05-03T13:15:06.999Z</time></trkpt><trkpt lat="44.37394207000068" lon="9.300575886351758"><ele>45.0</ele><time>2026-05-03T13:15:07.999Z</time></trkpt><trkpt lat="44.37385594819362" lon="9.30088393885406"><ele>42.0</ele><time>2026-05-03T13:15:08.999Z</time></trkpt><trkpt lat="44.373777384740144" lon="9.301185563767664"><ele>42.5</ele><time>2026-05-03T13:15:09.999Z</time></trkpt><trkpt lat="44.37370906318795" lon="9.30149302388957"><ele>43.0</ele><time>2026-05-03T13:15:10.999Z</time></trkpt><trkpt lat="44.373647633880324" lon="9.30179801041757"><ele>43.0</ele><time>2026-05-03T13:15:11.999Z</time></trkpt><trkpt lat="44.37358776737959" lon="9.302118422766709"><ele>43.0</ele><time>2026-05-03T13:15:12.999Z</time></trkpt><trkpt lat="44.373536117808264" lon="9.302443811256223"><ele>44.5</ele><time>2026-05-03T13:15:13.999Z</time></trkpt><trkpt lat="44.37347388897997" lon="9.302758302303431"><ele>46.0</ele><time>2026-05-03T13:15:14.999Z</time></trkpt><trkpt lat="44.37337593116077" lon="9.303043898958297"><ele>49.0</ele><time>2026-05-03T13:15:15.999Z</time></trkpt><trkpt lat="44.37327858123092" lon="9.303301817098077"><ele>52.0</ele><time>2026-05-03T13:15:16.999Z</time></trkpt><trkpt lat="44.373164187382784" lon="9.303531442483962"><ele>55.0</ele><time>2026-05-03T13:15:17.999Z</time></trkpt><trkpt lat="44.37302277656848" lon="9.303720554513138"><ele>52.5</ele><time>2026-05-03T13:15:18.999Z</time></trkpt><trkpt lat="44.37284025417529" lon="9.303883643750662"><ele>50.0</ele><time>2026-05-03T13:15:19.999Z</time></trkpt><trkpt lat="44.37263698036789" lon="9.304046497180657"><ele>50.0</ele><time>2026-05-03T13:15:20.999Z</time></trkpt><trkpt lat="44.37240555639867" lon="9.304173973408968"><ele>50.0</ele><time>2026-05-03T13:15:21.999Z</time></trkpt><trkpt lat="44.372159096695405" lon="9.304318021962214"><ele>46.5</ele><time>2026-05-03T13:15:22.999Z</time></trkpt><trkpt lat="44.37192527392" lon="9.304480232063224"><ele>43.0</ele><time>2026-05-03T13:15:23.999Z</time></trkpt><trkpt lat="44.37169422032279" lon="9.304641559275101"><ele>41.0</ele><time>2026-05-03T13:15:24.999Z</time></trkpt><trkpt lat="44.37150088254179" lon="9.304806502214285"><ele>39.0</ele><time>2026-05-03T13:15:25.999Z</time></trkpt><trkpt lat="44.371316230526205" lon="9.305023830122643"><ele>39.0</ele><time>2026-05-03T13:15:26.999Z</time></trkpt><trkpt lat="44.37114669743917" lon="9.305264077406918"><ele>39.0</ele><time>2026-05-03T13:15:27.999Z</time></trkpt><trkpt lat="44.37097665827049" lon="9.305508526568019"><ele>46.5</ele><time>2026-05-03T13:15:28.999Z</time></trkpt><trkpt lat="44.370814922520715" lon="9.30575153525297"><ele>54.0</ele><time>2026-05-03T13:15:29.999Z</time></trkpt><trkpt lat="44.370676441849255" lon="9.305981139512244"><ele>54.0</ele><time>2026-05-03T13:15:30.999Z</time></trkpt><trkpt lat="44.37056990335458" lon="9.306223845088322"><ele>54.0</ele><time>2026-05-03T13:15:31.999Z</time></trkpt><trkpt lat="44.370496814145056" lon="9.306478787971322"><ele>54.0</ele><time>2026-05-03T13:15:32.999Z</time></trkpt><trkpt lat="44.37046060774744" lon="9.306763294907316"><ele>55.33333333333333</ele><time>2026-05-03T13:15:33.999Z</time></trkpt><trkpt lat="44.37046692350588" lon="9.307055977149368"><ele>56.666666666666664</ele><time>2026-05-03T13:15:34.999Z</time></trkpt><trkpt lat="44.37049624701113" lon="9.307366907638924"><ele>58.0</ele><time>2026-05-03T13:15:35.999Z</time></trkpt><trkpt lat="44.37056420401116" lon="9.307669729885063"><ele>58.0</ele><time>2026-05-03T13:15:36.999Z</time></trkpt><trkpt lat="44.37067378587105" lon="9.30796510178492"><ele>58.0</ele><time>2026-05-03T13:15:37.999Z</time></trkpt><trkpt lat="44.37081205647625" lon="9.308260906242046"><ele>52.0</ele><time>2026-05-03T13:15:38.999Z</time></trkpt><trkpt lat="44.37094773608149" lon="9.308561289444773"><ele>46.0</ele><time>2026-05-03T13:15:39.999Z</time></trkpt><trkpt lat="44.371083815404646" lon="9.308883665527151"><ele>42.5</ele><time>2026-05-03T13:15:40.999Z</time></trkpt><trkpt lat="44.371218195928314" lon="9.309204316055487"><ele>39.0</ele><time>2026-05-03T13:15:41.999Z</time></trkpt><trkpt lat="44.371354161807474" lon="9.309517057417114"><ele>43.33333333333333</ele><time>2026-05-03T13:15:42.999Z</time></trkpt><trkpt lat="44.37147707894513" lon="9.309798948399385"><ele>47.666666666666664</ele><time>2026-05-03T13:15:43.999Z</time></trkpt><trkpt lat="44.371586075048484" lon="9.310055448420593"><ele>52.0</ele><time>2026-05-03T13:15:44.999Z</time></trkpt><trkpt lat="44.37168638779384" lon="9.310305577174821"><ele>52.0</ele><time>2026-05-03T13:15:45.999Z</time></trkpt><trkpt lat="44.37177857910913" lon="9.310567786808857"><ele>52.0</ele><time>2026-05-03T13:15:46.999Z</time></trkpt><trkpt lat="44.37182325373101" lon="9.310834037234807"><ele>52.0</ele><time>2026-05-03T13:15:47.999Z</time></trkpt><trkpt lat="44.371812727858114" lon="9.311128507572153"><ele>47.0</ele><time>2026-05-03T13:15:48.999Z</time></trkpt><trkpt lat="44.37176486857047" lon="9.31143934046248"><ele>42.0</ele><time>2026-05-03T13:15:49.999Z</time></trkpt><trkpt lat="44.37172109138639" lon="9.311770521881543"><ele>42.0</ele><time>2026-05-03T13:15:50.999Z</time></trkpt><trkpt lat="44.37168648314062" lon="9.312108296023533"><ele>42.0</ele><time>2026-05-03T13:15:51.999Z</time></trkpt><trkpt lat="44.371657135604444" lon="9.312455454770898"><ele>43.0</ele><time>2026-05-03T13:15:52.999Z</time></trkpt><trkpt lat="44.371631271518766" lon="9.312797673326987"><ele>44.0</ele><time>2026-05-03T13:15:53.999Z</time></trkpt><trkpt lat="44.3716030679924" lon="9.313131045184601"><ele>45.0</ele><time>2026-05-03T13:15:54.999Z</time></trkpt><trkpt lat="44.37157190358679" lon="9.313459460831007"><ele>46.0</ele><time>2026-05-03T13:15:55.999Z</time></trkpt><trkpt lat="44.371530088444345" lon="9.313784533557307"><ele>54.0</ele><time>2026-05-03T13:15:56.999Z</time></trkpt><trkpt lat="44.37146713925062" lon="9.314088714652714"><ele>62.0</ele><time>2026-05-03T13:15:57.999Z</time></trkpt><trkpt lat="44.37137342385816" lon="9.314381630951003"><ele>57.0</ele><time>2026-05-03T13:15:58.999Z</time></trkpt><trkpt lat="44.371246027531505" lon="9.314654432420967"><ele>52.0</ele><time>2026-05-03T13:15:59.999Z</time></trkpt><trkpt lat="44.37108051388712" lon="9.314902307475869"><ele>52.0</ele><time>2026-05-03T13:16:00.999Z</time></trkpt><trkpt lat="44.37088822893912" lon="9.3151127363403"><ele>52.0</ele><time>2026-05-03T13:16:01.999Z</time></trkpt><trkpt lat="44.370681607927324" lon="9.31531212677745"><ele>48.0</ele><time>2026-05-03T13:16:02.999Z</time></trkpt><trkpt lat="44.37048038281842" lon="9.315498883090557"><ele>44.0</ele><time>2026-05-03T13:16:03.999Z</time></trkpt><trkpt lat="44.370290921938306" lon="9.315686629302826"><ele>44.0</ele><time>2026-05-03T13:16:04.999Z</time></trkpt><trkpt lat="44.37011379100438" lon="9.315857211232265"><ele>44.0</ele><time>2026-05-03T13:16:05.999Z</time></trkpt><trkpt lat="44.36994598848376" lon="9.316018158741022"><ele>44.0</ele><time>2026-05-03T13:16:06.999Z</time></trkpt><trkpt lat="44.369785044663466" lon="9.316154767776801"><ele>41.666666666666664</ele><time>2026-05-03T13:16:07.999Z</time></trkpt><trkpt lat="44.3696241480078" lon="9.316245316471479"><ele>39.333333333333336</ele><time>2026-05-03T13:16:08.999Z</time></trkpt><trkpt lat="44.36945521663485" lon="9.316289988565298"><ele>37.0</ele><time>2026-05-03T13:16:09.999Z</time></trkpt><trkpt lat="44.36927714326567" lon="9.316328704173749"><ele>38.0</ele><time>2026-05-03T13:16:10.999Z</time></trkpt><trkpt lat="44.36888462266021" lon="9.316438522833614"><ele>39.0</ele><time>2026-05-03T13:16:12.999Z</time></trkpt><trkpt lat="44.3686908552933" lon="9.316556907232618"><ele>39.0</ele><time>2026-05-03T13:16:13.999Z</time></trkpt><trkpt lat="44.36850349047659" lon="9.316743593370116"><ele>39.0</ele><time>2026-05-03T13:16:14.999Z</time></trkpt><trkpt lat="44.36833518405015" lon="9.31699325690585"><ele>39.0</ele><time>2026-05-03T13:16:15.999Z</time></trkpt><trkpt lat="44.36813878489045" lon="9.31722722933123"><ele>39.0</ele><time>2026-05-03T13:16:16.999Z</time></trkpt><trkpt lat="44.367960366260604" lon="9.317445207983987"><ele>38.0</ele><time>2026-05-03T13:16:17.999Z</time></trkpt><trkpt lat="44.367775584559034" lon="9.31765746918198"><ele>37.0</ele><time>2026-05-03T13:16:18.999Z</time></trkpt><trkpt lat="44.367569436330406" lon="9.317859722474386"><ele>37.0</ele><time>2026-05-03T13:16:19.999Z</time></trkpt><trkpt lat="44.36733599724143" lon="9.317999042774296"><ele>37.0</ele><time>2026-05-03T13:16:20.999Z</time></trkpt><trkpt lat="44.367087256037046" lon="9.318129573813883"><ele>40.0</ele><time>2026-05-03T13:16:21.999Z</time></trkpt><trkpt lat="44.36684997730283" lon="9.318242806070824"><ele>43.0</ele><time>2026-05-03T13:16:22.999Z</time></trkpt><trkpt lat="44.3666161379604" lon="9.318387428760024"><ele>43.0</ele><time>2026-05-03T13:16:23.999Z</time></trkpt><trkpt lat="44.36639014859921" lon="9.31855358820185"><ele>43.0</ele><time>2026-05-03T13:16:24.999Z</time></trkpt><trkpt lat="44.36616870839574" lon="9.31873947015599"><ele>44.5</ele><time>2026-05-03T13:16:25.999Z</time></trkpt><trkpt lat="44.36594822625719" lon="9.318925863488705"><ele>46.0</ele><time>2026-05-03T13:16:26.999Z</time></trkpt><trkpt lat="44.36573393085963" lon="9.319123227994712"><ele>46.0</ele><time>2026-05-03T13:16:27.999Z</time></trkpt><trkpt lat="44.36553005119918" lon="9.319328712249456"><ele>46.0</ele><time>2026-05-03T13:16:28.999Z</time></trkpt><trkpt lat="44.365350055039144" lon="9.31955071803723"><ele>44.0</ele><time>2026-05-03T13:16:29.999Z</time></trkpt><trkpt lat="44.365193157858684" lon="9.319768727075523"><ele>42.0</ele><time>2026-05-03T13:16:30.999Z</time></trkpt><trkpt lat="44.36507689265315" lon="9.32001161257152"><ele>40.0</ele><time>2026-05-03T13:16:31.999Z</time></trkpt><trkpt lat="44.36500485547234" lon="9.32029318133298"><ele>41.5</ele><time>2026-05-03T13:16:32.999Z</time></trkpt><trkpt lat="44.36496288650282" lon="9.320625442449968"><ele>43.0</ele><time>2026-05-03T13:16:33.999Z</time></trkpt><trkpt lat="44.364957660155596" lon="9.320982417852605"><ele>43.0</ele><time>2026-05-03T13:16:34.999Z</time></trkpt><trkpt lat="44.36496110152672" lon="9.321336575734595"><ele>43.0</ele><time>2026-05-03T13:16:35.999Z</time></trkpt><trkpt lat="44.364950027860004" lon="9.321698300459454"><ele>43.5</ele><time>2026-05-03T13:16:36.999Z</time></trkpt><trkpt lat="44.364931621363795" lon="9.322058487697031"><ele>44.0</ele><time>2026-05-03T13:16:37.999Z</time></trkpt><trkpt lat="44.36491282996219" lon="9.322414535069578"><ele>44.0</ele><time>2026-05-03T13:16:38.999Z</time></trkpt><trkpt lat="44.36490913961573" lon="9.322751914770516"><ele>44.0</ele><time>2026-05-03T13:16:39.999Z</time></trkpt><trkpt lat="44.36494044538147" lon="9.32307757087487"><ele>45.5</ele><time>2026-05-03T13:16:40.999Z</time></trkpt><trkpt lat="44.36500675263207" lon="9.323398436271683"><ele>47.0</ele><time>2026-05-03T13:16:41.999Z</time></trkpt><trkpt lat="44.36507540577638" lon="9.323728321636217"><ele>43.5</ele><time>2026-05-03T13:16:42.999Z</time></trkpt><trkpt lat="44.36514179903127" lon="9.324058304297346"><ele>40.0</ele><time>2026-05-03T13:16:43.999Z</time></trkpt><trkpt lat="44.36522522476417" lon="9.3243467188965"><ele>40.0</ele><time>2026-05-03T13:16:44.999Z</time></trkpt><trkpt lat="44.3653381329681" lon="9.324589683312627"><ele>40.0</ele><time>2026-05-03T13:16:45.999Z</time></trkpt><trkpt lat="44.36542950082715" lon="9.324833253094933"><ele>40.0</ele><time>2026-05-03T13:16:46.999Z</time></trkpt><trkpt lat="44.36541875133735" lon="9.325104823494943"><ele>38.333333333333336</ele><time>2026-05-03T13:16:47.999Z</time></trkpt><trkpt lat="44.365387445268205" lon="9.325398873855242"><ele>36.666666666666664</ele><time>2026-05-03T13:16:48.999Z</time></trkpt><trkpt lat="44.36535441897824" lon="9.325674945231183"><ele>35.0</ele><time>2026-05-03T13:16:49.999Z</time></trkpt><trkpt lat="44.36532917307194" lon="9.32589230028418"><ele>35.0</ele><time>2026-05-03T13:16:50.999Z</time></trkpt><trkpt lat="44.36538352632435" lon="9.326119723723954"><ele>35.0</ele><time>2026-05-03T13:16:51.999Z</time></trkpt><trkpt lat="44.365476030527425" lon="9.326307069428763"><ele>35.0</ele><time>2026-05-03T13:16:52.999Z</time></trkpt><trkpt lat="44.36567379227166" lon="9.326679512110259"><ele>35.0</ele><time>2026-05-03T13:16:53.999Z</time></trkpt><trkpt lat="44.36580550316059" lon="9.32693656931466"><ele>35.0</ele><time>2026-05-03T13:16:54.999Z</time></trkpt><trkpt lat="44.36595195398193" lon="9.327130789211667"><ele>35.0</ele><time>2026-05-03T13:16:55.999Z</time></trkpt><trkpt lat="44.366114929282396" lon="9.327268969235407"><ele>35.0</ele><time>2026-05-03T13:16:56.999Z</time></trkpt><trkpt lat="44.36626393354797" lon="9.327426398380902"><ele>35.0</ele><time>2026-05-03T13:16:57.999Z</time></trkpt><trkpt lat="44.366324429883534" lon="9.327609495470233"><ele>35.0</ele><time>2026-05-03T13:16:58.999Z</time></trkpt><trkpt lat="44.36638151122241" lon="9.327846327051496"><ele>37.0</ele><time>2026-05-03T13:16:59.999Z</time></trkpt><trkpt lat="44.3664229855528" lon="9.328093525197158"><ele>39.0</ele><time>2026-05-03T13:17:00.999Z</time></trkpt><trkpt lat="44.3664967520368" lon="9.328417046805797"><ele>41.0</ele><time>2026-05-03T13:17:01.999Z</time></trkpt><trkpt lat="44.36656571538158" lon="9.328737939537596"><ele>40.5</ele><time>2026-05-03T13:17:02.999Z</time></trkpt><trkpt lat="44.36659506347916" lon="9.329090370588307"><ele>40.0</ele><time>2026-05-03T13:17:03.999Z</time></trkpt><trkpt lat="44.3666000439059" lon="9.32945082659134"><ele>37.5</ele><time>2026-05-03T13:17:04.999Z</time></trkpt><trkpt lat="44.36659132338296" lon="9.329794139229335"><ele>35.0</ele><time>2026-05-03T13:17:05.999Z</time></trkpt><trkpt lat="44.36658273901689" lon="9.330111499401475"><ele>35.0</ele><time>2026-05-03T13:17:06.999Z</time></trkpt><trkpt lat="44.366572146073416" lon="9.330390373426237"><ele>35.0</ele><time>2026-05-03T13:17:07.999Z</time></trkpt><trkpt lat="44.3665604197351" lon="9.330651488821951"><ele>35.0</ele><time>2026-05-03T13:17:08.999Z</time></trkpt><trkpt lat="44.36650318405299" lon="9.330917818350517"><ele>36.0</ele><time>2026-05-03T13:17:09.999Z</time></trkpt><trkpt lat="44.36642709428819" lon="9.331184015011454"><ele>37.0</ele><time>2026-05-03T13:17:10.999Z</time></trkpt><trkpt lat="44.36634139516968" lon="9.331482856632192"><ele>38.0</ele><time>2026-05-03T13:17:11.999Z</time></trkpt><trkpt lat="44.36627035429375" lon="9.331777446240041"><ele>36.666666666666664</ele><time>2026-05-03T13:17:12.999Z</time></trkpt><trkpt lat="44.36618305464789" lon="9.332021921770615"><ele>35.333333333333336</ele><time>2026-05-03T13:17:13.999Z</time></trkpt><trkpt lat="44.36610911222724" lon="9.332264666878752"><ele>34.0</ele><time>2026-05-03T13:17:14.999Z</time></trkpt><trkpt lat="44.36602667554318" lon="9.332566216720547"><ele>34.0</ele><time>2026-05-03T13:17:15.999Z</time></trkpt><trkpt lat="44.36596914505688" lon="9.332872393315236"><ele>34.0</ele><time>2026-05-03T13:17:16.999Z</time></trkpt><trkpt lat="44.36590141360963" lon="9.333107783935565"><ele>34.0</ele><time>2026-05-03T13:17:17.999Z</time></trkpt><trkpt lat="44.365852765950436" lon="9.333325728760824"><ele>33.0</ele><time>2026-05-03T13:17:18.999Z</time></trkpt><trkpt lat="44.3657628278986" lon="9.333496550936339"><ele>32.0</ele><time>2026-05-03T13:17:19.999Z</time></trkpt><trkpt lat="44.36566082607141" lon="9.33363660349744"><ele>31.0</ele><time>2026-05-03T13:17:20.999Z</time></trkpt><trkpt lat="44.36551955934258" lon="9.333767681575653"><ele>36.333333333333336</ele><time>2026-05-03T13:17:21.999Z</time></trkpt><trkpt lat="44.36533503569958" lon="9.333934419530925"><ele>41.666666666666664</ele><time>2026-05-03T13:17:22.999Z</time></trkpt><trkpt lat="44.3651469593468" lon="9.334109033225712"><ele>47.0</ele><time>2026-05-03T13:17:23.999Z</time></trkpt><trkpt lat="44.36494279558253" lon="9.334270290512666"><ele>47.0</ele><time>2026-05-03T13:17:24.999Z</time></trkpt><trkpt lat="44.364709145263966" lon="9.334394450183087"><ele>47.0</ele><time>2026-05-03T13:17:25.999Z</time></trkpt><trkpt lat="44.364452242213" lon="9.334489312231872"><ele>39.5</ele><time>2026-05-03T13:17:26.999Z</time></trkpt><trkpt lat="44.36422674427984" lon="9.334568664519438"><ele>32.0</ele><time>2026-05-03T13:17:27.999Z</time></trkpt><trkpt lat="44.36401140640968" lon="9.334654275940018"><ele>34.5</ele><time>2026-05-03T13:17:28.999Z</time></trkpt><trkpt lat="44.363791059007696" lon="9.3347458631024"><ele>37.0</ele><time>2026-05-03T13:17:29.999Z</time></trkpt><trkpt lat="44.36357190857596" lon="9.334839090415239"><ele>37.0</ele><time>2026-05-03T13:17:30.999Z</time></trkpt><trkpt lat="44.36335577639677" lon="9.334932829207046"><ele>37.0</ele><time>2026-05-03T13:17:31.999Z</time></trkpt><trkpt lat="44.36315381862337" lon="9.335021607812507"><ele>37.0</ele><time>2026-05-03T13:17:32.999Z</time></trkpt><trkpt lat="44.36294589434492" lon="9.33511392108168"><ele>35.5</ele><time>2026-05-03T13:17:33.999Z</time></trkpt><trkpt lat="44.362729105616296" lon="9.335214053610802"><ele>34.0</ele><time>2026-05-03T13:17:34.999Z</time></trkpt><trkpt lat="44.36251087589212" lon="9.33536007730986"><ele>34.0</ele><time>2026-05-03T13:17:35.999Z</time></trkpt><trkpt lat="44.36227781633368" lon="9.335474689968734"><ele>34.0</ele><time>2026-05-03T13:17:36.999Z</time></trkpt><trkpt lat="44.36208751124036" lon="9.335585896162419"><ele>35.66666666666667</ele><time>2026-05-03T13:17:37.999Z</time></trkpt><trkpt lat="44.36192168089481" lon="9.335680001751868"><ele>37.333333333333336</ele><time>2026-05-03T13:17:38.999Z</time></trkpt><trkpt lat="44.36178068165115" lon="9.335771937516112"><ele>39.0</ele><time>2026-05-03T13:17:39.999Z</time></trkpt><trkpt lat="44.36166585580187" lon="9.335874077413125"><ele>39.0</ele><time>2026-05-03T13:17:40.999Z</time></trkpt><trkpt lat="44.36156889559061" lon="9.3360223356084"><ele>39.0</ele><time>2026-05-03T13:17:41.999Z</time></trkpt><trkpt lat="44.36150779751701" lon="9.336184998290616"><ele>39.0</ele><time>2026-05-03T13:17:42.999Z</time></trkpt><trkpt lat="44.36145710321841" lon="9.336326063692743"><ele>39.0</ele><time>2026-05-03T13:17:43.999Z</time></trkpt><trkpt lat="44.36141703620904" lon="9.336450403952343"><ele>36.5</ele><time>2026-05-03T13:17:44.999Z</time></trkpt><trkpt lat="44.36137251033646" lon="9.336580253330123"><ele>34.0</ele><time>2026-05-03T13:17:45.999Z</time></trkpt><trkpt lat="44.36133739611724" lon="9.336737354158048"><ele>31.5</ele><time>2026-05-03T13:17:46.999Z</time></trkpt><trkpt lat="44.36132471903769" lon="9.336900446435367"><ele>29.0</ele><time>2026-05-03T13:17:47.999Z</time></trkpt><trkpt lat="44.361345411569864" lon="9.337062122478224"><ele>33.25</ele><time>2026-05-03T13:17:48.999Z</time></trkpt><trkpt lat="44.361397436165376" lon="9.33722070497153"><ele>37.5</ele><time>2026-05-03T13:17:49.999Z</time></trkpt><trkpt lat="44.361464915166856" lon="9.337357034774"><ele>41.75</ele><time>2026-05-03T13:17:50.999Z</time></trkpt><trkpt lat="44.361526599444474" lon="9.337486805087673"><ele>46.0</ele><time>2026-05-03T13:17:51.999Z</time></trkpt><trkpt lat="44.361593530892286" lon="9.337627875417681"><ele>46.0</ele><time>2026-05-03T13:17:52.999Z</time></trkpt><trkpt lat="44.36166309635298" lon="9.337783358235699"><ele>46.0</ele><time>2026-05-03T13:17:53.999Z</time></trkpt><trkpt lat="44.36173253007892" lon="9.337944357878392"><ele>46.0</ele><time>2026-05-03T13:17:54.999Z</time></trkpt><trkpt lat="44.361794185943566" lon="9.338095968264179"><ele>46.0</ele><time>2026-05-03T13:17:55.999Z</time></trkpt><trkpt lat="44.3618523092424" lon="9.338240464223363"><ele>43.75</ele><time>2026-05-03T13:17:56.999Z</time></trkpt><trkpt lat="44.361915115696576" lon="9.338382584338747"><ele>41.5</ele><time>2026-05-03T13:17:57.999Z</time></trkpt><trkpt lat="44.361991385453145" lon="9.33854862944218"><ele>39.25</ele><time>2026-05-03T13:17:58.999Z</time></trkpt><trkpt lat="44.362066872348166" lon="9.338759597383024"><ele>37.0</ele><time>2026-05-03T13:17:59.999Z</time></trkpt><trkpt lat="44.36216824968913" lon="9.338994881776507"><ele>37.333333333333336</ele><time>2026-05-03T13:18:00.999Z</time></trkpt><trkpt lat="44.36227295233449" lon="9.339244750872474"><ele>37.666666666666664</ele><time>2026-05-03T13:18:01.999Z</time></trkpt><trkpt lat="44.36238489494084" lon="9.339507648957829"><ele>38.0</ele><time>2026-05-03T13:18:02.999Z</time></trkpt><trkpt lat="44.362479054273464" lon="9.339757838039766"><ele>38.0</ele><time>2026-05-03T13:18:03.999Z</time></trkpt><trkpt lat="44.36255237354513" lon="9.339980062245068"><ele>38.0</ele><time>2026-05-03T13:18:04.999Z</time></trkpt><trkpt lat="44.362506354163955" lon="9.340195060925623"><ele>38.0</ele><time>2026-05-03T13:18:05.999Z</time></trkpt><trkpt lat="44.36243493641149" lon="9.34039019994975"><ele>40.0</ele><time>2026-05-03T13:18:06.999Z</time></trkpt><trkpt lat="44.36229994049177" lon="9.340576383248578"><ele>42.0</ele><time>2026-05-03T13:18:07.999Z</time></trkpt><trkpt lat="44.36216039701162" lon="9.340781922312672"><ele>44.0</ele><time>2026-05-03T13:18:08.999Z</time></trkpt><trkpt lat="44.36201147819638" lon="9.340950885622007"><ele>40.33333333333333</ele><time>2026-05-03T13:18:09.999Z</time></trkpt><trkpt lat="44.36190917973934" lon="9.341121560295171"><ele>36.666666666666664</ele><time>2026-05-03T13:18:10.999Z</time></trkpt><trkpt lat="44.3618722650566" lon="9.341316614936252"><ele>33.0</ele><time>2026-05-03T13:18:11.999Z</time></trkpt><trkpt lat="44.361903679754505" lon="9.34152802059497"><ele>33.0</ele><time>2026-05-03T13:18:12.999Z</time></trkpt><trkpt lat="44.36197447460656" lon="9.341735027626585"><ele>33.0</ele><time>2026-05-03T13:18:13.999Z</time></trkpt><trkpt lat="44.362008222310905" lon="9.34194761457971"><ele>33.0</ele><time>2026-05-03T13:18:14.999Z</time></trkpt><trkpt lat="44.36197357634171" lon="9.342183585798503"><ele>33.666666666666664</ele><time>2026-05-03T13:18:15.999Z</time></trkpt><trkpt lat="44.361896043852724" lon="9.342465169518931"><ele>34.33333333333333</ele><time>2026-05-03T13:18:16.999Z</time></trkpt><trkpt lat="44.3618441671182" lon="9.342754260717527"><ele>35.0</ele><time>2026-05-03T13:18:17.999Z</time></trkpt><trkpt lat="44.36178780386264" lon="9.343026356430476"><ele>37.33333333333333</ele><time>2026-05-03T13:18:18.999Z</time></trkpt><trkpt lat="44.36172973388586" lon="9.343133657880193"><ele>39.666666666666664</ele><time>2026-05-03T13:18:19.999Z</time></trkpt><trkpt lat="44.36159893909537" lon="9.343303243204161"><ele>42.0</ele><time>2026-05-03T13:18:20.999Z</time></trkpt><trkpt lat="44.361440817704526" lon="9.343505785052502"><ele>36.5</ele><time>2026-05-03T13:18:21.999Z</time></trkpt><trkpt lat="44.36123261156318" lon="9.343705049579587"><ele>31.0</ele><time>2026-05-03T13:18:22.999Z</time></trkpt><trkpt lat="44.36103990514723" lon="9.343870197473908"><ele>41.5</ele><time>2026-05-03T13:18:23.999Z</time></trkpt><trkpt lat="44.36081401058923" lon="9.343981718784905"><ele>52.0</ele><time>2026-05-03T13:18:24.999Z</time></trkpt><trkpt lat="44.360562346642865" lon="9.344027402747782"><ele>50.0</ele><time>2026-05-03T13:18:25.999Z</time></trkpt><trkpt lat="44.36027468535715" lon="9.344043715703592"><ele>48.0</ele><time>2026-05-03T13:18:26.999Z</time></trkpt><trkpt lat="44.35999647183974" lon="9.344064873960763"><ele>48.0</ele><time>2026-05-03T13:18:27.999Z</time></trkpt><trkpt lat="44.35971652598112" lon="9.344047282593298"><ele>48.0</ele><time>2026-05-03T13:18:28.999Z</time></trkpt><trkpt lat="44.35942987513936" lon="9.343959007265116"><ele>39.0</ele><time>2026-05-03T13:18:29.999Z</time></trkpt><trkpt lat="44.3591562867378" lon="9.343859721385174"><ele>30.0</ele><time>2026-05-03T13:18:30.999Z</time></trkpt><trkpt lat="44.3588920375045" lon="9.343778969309112"><ele>32.0</ele><time>2026-05-03T13:18:31.999Z</time></trkpt><trkpt lat="44.35865227516213" lon="9.343689773726085"><ele>34.0</ele><time>2026-05-03T13:18:32.999Z</time></trkpt><trkpt lat="44.35841565666438" lon="9.343580298642726"><ele>34.0</ele><time>2026-05-03T13:18:33.999Z</time></trkpt><trkpt lat="44.35818215655254" lon="9.343488025629643"><ele>34.0</ele><time>2026-05-03T13:18:34.999Z</time></trkpt><trkpt lat="44.35794404357683" lon="9.34342165943833"><ele>38.0</ele><time>2026-05-03T13:18:35.999Z</time></trkpt><trkpt lat="44.35771130510361" lon="9.343335263289775"><ele>42.0</ele><time>2026-05-03T13:18:36.999Z</time></trkpt><trkpt lat="44.35746841418268" lon="9.343293297525051"><ele>42.0</ele><time>2026-05-03T13:18:37.999Z</time></trkpt><trkpt lat="44.357221750996224" lon="9.343268014059044"><ele>42.0</ele><time>2026-05-03T13:18:38.999Z</time></trkpt><trkpt lat="44.35697973234925" lon="9.34323996108028"><ele>38.0</ele><time>2026-05-03T13:18:39.999Z</time></trkpt><trkpt lat="44.35673540637665" lon="9.343215456516555"><ele>34.0</ele><time>2026-05-03T13:18:40.999Z</time></trkpt><trkpt lat="44.35648777502834" lon="9.343194669470996"><ele>34.5</ele><time>2026-05-03T13:18:41.999Z</time></trkpt><trkpt lat="44.35623894664774" lon="9.34318270126623"><ele>35.0</ele><time>2026-05-03T13:18:42.999Z</time></trkpt><trkpt lat="44.35599125659367" lon="9.343154798126973"><ele>35.0</ele><time>2026-05-03T13:18:43.999Z</time></trkpt><trkpt lat="44.35574452876946" lon="9.343131495877595"><ele>35.0</ele><time>2026-05-03T13:18:44.999Z</time></trkpt><trkpt lat="44.35549570305098" lon="9.343114086882881"><ele>33.5</ele><time>2026-05-03T13:18:45.999Z</time></trkpt><trkpt lat="44.35525106948535" lon="9.343108832158329"><ele>32.0</ele><time>2026-05-03T13:18:46.999Z</time></trkpt><trkpt lat="44.35500362466597" lon="9.343122827218924"><ele>32.0</ele><time>2026-05-03T13:18:47.999Z</time></trkpt><trkpt lat="44.35475292850102" lon="9.34313940316922"><ele>32.0</ele><time>2026-05-03T13:18:48.999Z</time></trkpt><trkpt lat="44.35450341723174" lon="9.343160479699032"><ele>29.0</ele><time>2026-05-03T13:18:49.999Z</time></trkpt><trkpt lat="44.354253199433934" lon="9.343184114870192"><ele>26.0</ele><time>2026-05-03T13:18:50.999Z</time></trkpt><trkpt lat="44.35401133709253" lon="9.343208089494752"><ele>26.333333333333332</ele><time>2026-05-03T13:18:51.999Z</time></trkpt><trkpt lat="44.353789649366334" lon="9.343228783065854"><ele>26.666666666666664</ele><time>2026-05-03T13:18:52.999Z</time></trkpt><trkpt lat="44.35358827756405" lon="9.343265565695331"><ele>27.0</ele><time>2026-05-03T13:18:53.999Z</time></trkpt><trkpt lat="44.35338382329109" lon="9.343317902587854"><ele>27.0</ele><time>2026-05-03T13:18:54.999Z</time></trkpt><trkpt lat="44.35319293949251" lon="9.343366040405144"><ele>27.0</ele><time>2026-05-03T13:18:55.999Z</time></trkpt><trkpt lat="44.3530461424887" lon="9.343407254520729"><ele>27.0</ele><time>2026-05-03T13:18:56.999Z</time></trkpt><trkpt lat="44.35292318341791" lon="9.343427719133754"><ele>26.75</ele><time>2026-05-03T13:18:57.999Z</time></trkpt><trkpt lat="44.35281871402776" lon="9.34344806679496"><ele>26.5</ele><time>2026-05-03T13:18:58.999Z</time></trkpt><trkpt lat="44.35272484039718" lon="9.34346817185856"><ele>26.25</ele><time>2026-05-03T13:18:59.999Z</time></trkpt><trkpt lat="44.3525947472202" lon="9.343479107193975"><ele>26.0</ele><time>2026-05-03T13:19:00.999Z</time></trkpt><trkpt lat="44.35241867230392" lon="9.343520932055771"><ele>26.0</ele><time>2026-05-03T13:19:01.999Z</time></trkpt><trkpt lat="44.352244986485" lon="9.343550122516719"><ele>26.0</ele><time>2026-05-03T13:19:02.999Z</time></trkpt><trkpt lat="44.35208783314594" lon="9.343520788864998"><ele>26.0</ele><time>2026-05-03T13:19:03.999Z</time></trkpt><trkpt lat="44.351929437142445" lon="9.343446512367196"><ele>26.333333333333332</ele><time>2026-05-03T13:19:04.999Z</time></trkpt><trkpt lat="44.35176501108965" lon="9.343330583806253"><ele>26.666666666666664</ele><time>2026-05-03T13:19:05.999Z</time></trkpt><trkpt lat="44.35159668627001" lon="9.34321130897533"><ele>27.0</ele><time>2026-05-03T13:19:06.999Z</time></trkpt><trkpt lat="44.35141839819858" lon="9.343090484804765"><ele>26.666666666666664</ele><time>2026-05-03T13:19:07.999Z</time></trkpt><trkpt lat="44.35125056210121" lon="9.342990103198723"><ele>26.333333333333332</ele><time>2026-05-03T13:19:08.999Z</time></trkpt><trkpt lat="44.351103598689086" lon="9.342886065093422"><ele>26.0</ele><time>2026-05-03T13:19:09.999Z</time></trkpt><trkpt lat="44.35095788101474" lon="9.342820633858446"><ele>26.0</ele><time>2026-05-03T13:19:10.999Z</time></trkpt><trkpt lat="44.350811958388" lon="9.342799798690898"><ele>26.0</ele><time>2026-05-03T13:19:11.999Z</time></trkpt><trkpt lat="44.350676182683536" lon="9.342815760583328"><ele>26.0</ele><time>2026-05-03T13:19:12.999Z</time></trkpt><trkpt lat="44.350554581972006" lon="9.34285832763957"><ele>26.0</ele><time>2026-05-03T13:19:13.999Z</time></trkpt><trkpt lat="44.35046255003875" lon="9.342918764392287"><ele>25.857142857142858</ele><time>2026-05-03T13:19:14.999Z</time></trkpt><trkpt lat="44.350399202834076" lon="9.342983121974838"><ele>25.714285714285715</ele><time>2026-05-03T13:19:15.999Z</time></trkpt><trkpt lat="44.35032722442873" lon="9.343009011124522"><ele>25.571428571428573</ele><time>2026-05-03T13:19:17.999Z</time></trkpt><trkpt lat="44.35033850164243" lon="9.342896109867356"><ele>25.42857142857143</ele><time>2026-05-03T13:19:19.999Z</time></trkpt><trkpt lat="44.350345206156234" lon="9.342792691197156"><ele>25.285714285714285</ele><time>2026-05-03T13:19:21.999Z</time></trkpt><trkpt lat="44.35036759218594" lon="9.342706766485525"><ele>25.142857142857146</ele><time>2026-05-03T13:20:37Z</time></trkpt><trkpt lat="44.350405385862864" lon="9.342620360437227"><ele>25.0</ele><time>2026-05-03T13:21:02.999Z</time></trkpt><trkpt lat="44.350374800848556" lon="9.342532940037795"><ele>25.0</ele><time>2026-05-03T13:21:08.999Z</time></trkpt><trkpt lat="44.35034674015405" lon="9.34278195364798"><ele>25.0</ele><time>2026-05-03T13:21:37.453Z</time></trkpt><trkpt lat="44.35039003373219" lon="9.342695452724259"><ele>25.0</ele><time>2026-05-03T13:56:46.985Z</time></trkpt><trkpt lat="44.35032929078014" lon="9.342736963387708"><ele>25.0</ele><time>2026-05-03T13:57:18.003Z</time></trkpt><trkpt lat="44.350323029297115" lon="9.342902431073467"><ele>25.0</ele><time>2026-05-03T13:57:20.003Z</time></trkpt><trkpt lat="44.350324467027676" lon="9.342994061304173"><ele>25.5</ele><time>2026-05-03T13:57:21.003Z</time></trkpt><trkpt lat="44.350309632959245" lon="9.343082709630835"><ele>26.0</ele><time>2026-05-03T13:57:22.002Z</time></trkpt><trkpt lat="44.35026658330017" lon="9.343212124352391"><ele>26.5</ele><time>2026-05-03T13:57:23.002Z</time></trkpt><trkpt lat="44.35017716973484" lon="9.34335884463006"><ele>27.0</ele><time>2026-05-03T13:57:24.002Z</time></trkpt><trkpt lat="44.35015350902808" lon="9.343605506234082"><ele>27.0</ele><time>2026-05-03T13:57:25.002Z</time></trkpt><trkpt lat="44.35010963651919" lon="9.343859178542212"><ele>27.0</ele><time>2026-05-03T13:57:26.001Z</time></trkpt><trkpt lat="44.35007623485201" lon="9.344131663235368"><ele>27.0</ele><time>2026-05-03T13:57:27.001Z</time></trkpt><trkpt lat="44.35005513004452" lon="9.344381580425566"><ele>27.0</ele><time>2026-05-03T13:57:28.001Z</time></trkpt><trkpt lat="44.35003474824481" lon="9.34461995288842"><ele>27.0</ele><time>2026-05-03T13:57:29.001Z</time></trkpt><trkpt lat="44.350011848673574" lon="9.344886760404616"><ele>27.0</ele><time>2026-05-03T13:57:30.001Z</time></trkpt><trkpt lat="44.34998817341237" lon="9.34516260518294"><ele>27.0</ele><time>2026-05-03T13:57:31.001Z</time></trkpt><trkpt lat="44.34996441123112" lon="9.345439393603778"><ele>27.0</ele><time>2026-05-03T13:57:32Z</time></trkpt><trkpt lat="44.3499411436324" lon="9.345710286148043"><ele>27.0</ele><time>2026-05-03T13:57:33Z</time></trkpt><trkpt lat="44.34991702407476" lon="9.345991097630561"><ele>27.0</ele><time>2026-05-03T13:57:34Z</time></trkpt><trkpt lat="44.34989254077394" lon="9.346276145138294"><ele>27.0</ele><time>2026-05-03T13:57:35Z</time></trkpt><trkpt lat="44.34987066589706" lon="9.34652682652695"><ele>27.0</ele><time>2026-05-03T13:57:36Z</time></trkpt><trkpt lat="44.349849532904116" lon="9.346769610162418"><ele>27.0</ele><time>2026-05-03T13:57:37Z</time></trkpt><trkpt lat="44.34984022284924" lon="9.347006835466374"><ele>27.0</ele><time>2026-05-03T13:57:38Z</time></trkpt><trkpt lat="44.349772873439136" lon="9.347215249103023"><ele>27.0</ele><time>2026-05-03T13:57:39Z</time></trkpt><trkpt lat="44.34965565003864" lon="9.347390614108464"><ele>25.333333333333332</ele><time>2026-05-03T13:57:40Z</time></trkpt><trkpt lat="44.34952523435227" lon="9.34747844133624"><ele>23.666666666666664</ele><time>2026-05-03T13:57:40.999Z</time></trkpt><trkpt lat="44.3493683241102" lon="9.34749955563765"><ele>22.0</ele><time>2026-05-03T13:57:41.999Z</time></trkpt><trkpt lat="44.349187821596615" lon="9.347544121149948"><ele>22.0</ele><time>2026-05-03T13:57:42.999Z</time></trkpt><trkpt lat="44.348990355513415" lon="9.34758885874407"><ele>22.0</ele><time>2026-05-03T13:57:43.999Z</time></trkpt><trkpt lat="44.348801500131984" lon="9.347649401352989"><ele>22.0</ele><time>2026-05-03T13:57:44.999Z</time></trkpt><trkpt lat="44.34860309370587" lon="9.347706369948185"><ele>22.333333333333332</ele><time>2026-05-03T13:57:45.999Z</time></trkpt><trkpt lat="44.348415796643785" lon="9.347757523644342"><ele>22.666666666666668</ele><time>2026-05-03T13:57:46.999Z</time></trkpt><trkpt lat="44.34823649418125" lon="9.347807151906379"><ele>23.0</ele><time>2026-05-03T13:57:47.999Z</time></trkpt><trkpt lat="44.34807257002455" lon="9.347851498335478"><ele>22.666666666666668</ele><time>2026-05-03T13:57:48.999Z</time></trkpt><trkpt lat="44.34791455125913" lon="9.347899483883687"><ele>22.333333333333332</ele><time>2026-05-03T13:57:49.999Z</time></trkpt><trkpt lat="44.34775665789723" lon="9.347937579931106"><ele>22.0</ele><time>2026-05-03T13:57:50.999Z</time></trkpt><trkpt lat="44.34761235077366" lon="9.347971944280749"><ele>22.0</ele><time>2026-05-03T13:57:51.999Z</time></trkpt><trkpt lat="44.347486506102896" lon="9.347996190718241"><ele>22.0</ele><time>2026-05-03T13:57:52.999Z</time></trkpt><trkpt lat="44.34737828780459" lon="9.348018512760463"><ele>22.0</ele><time>2026-05-03T13:57:53.999Z</time></trkpt><trkpt lat="44.34728418434674" lon="9.34804041435107"><ele>22.0</ele><time>2026-05-03T13:57:54.999Z</time></trkpt><trkpt lat="44.34721147870998" lon="9.348052462599513"><ele>22.0</ele><time>2026-05-03T13:57:55.999Z</time></trkpt><trkpt lat="44.34711130756144" lon="9.34807532380273"><ele>21.5</ele><time>2026-05-03T13:59:08Z</time></trkpt><trkpt lat="44.34702793759941" lon="9.348091692731234"><ele>21.0</ele><time>2026-05-03T13:59:09Z</time></trkpt><trkpt lat="44.34691889595317" lon="9.348114509699297"><ele>20.5</ele><time>2026-05-03T13:59:10Z</time></trkpt><trkpt lat="44.34680752067686" lon="9.348139610147804"><ele>20.0</ele><time>2026-05-03T13:59:11Z</time></trkpt><trkpt lat="44.34666589972946" lon="9.348173898255064"><ele>20.0</ele><time>2026-05-03T13:59:12Z</time></trkpt><trkpt lat="44.34651132433041" lon="9.348212342811046"><ele>20.0</ele><time>2026-05-03T13:59:13Z</time></trkpt><trkpt lat="44.34633327453685" lon="9.34825644869764"><ele>20.0</ele><time>2026-05-03T13:59:14Z</time></trkpt><trkpt lat="44.34613448251459" lon="9.348305692883077"><ele>20.0</ele><time>2026-05-03T13:59:15Z</time></trkpt><trkpt lat="44.345954246912584" lon="9.348349772901583"><ele>20.0</ele><time>2026-05-03T13:59:16Z</time></trkpt><trkpt lat="44.345787031083034" lon="9.348393067225334"><ele>20.0</ele><time>2026-05-03T13:59:17Z</time></trkpt><trkpt lat="44.34564646306685" lon="9.348449915376783"><ele>24.25</ele><time>2026-05-03T13:59:18Z</time></trkpt><trkpt lat="44.34552992810793" lon="9.34849580711371"><ele>28.5</ele><time>2026-05-03T13:59:19Z</time></trkpt><trkpt lat="44.34541936014583" lon="9.348487129939853"><ele>32.75</ele><time>2026-05-03T13:59:20Z</time></trkpt><trkpt lat="44.34530981609925" lon="9.348560296465624"><ele>37.0</ele><time>2026-05-03T13:59:21Z</time></trkpt><trkpt lat="44.34524616891851" lon="9.348818024635317"><ele>34.333333333333336</ele><time>2026-05-03T13:59:22Z</time></trkpt><trkpt lat="44.34512094090546" lon="9.348956974291266"><ele>31.666666666666664</ele><time>2026-05-03T13:59:23Z</time></trkpt><trkpt lat="44.344975111636614" lon="9.349133485753018"><ele>29.0</ele><time>2026-05-03T13:59:24Z</time></trkpt><trkpt lat="44.34483188256219" lon="9.349289717092025"><ele>30.666666666666664</ele><time>2026-05-03T13:59:24.999Z</time></trkpt><trkpt lat="44.344697156270634" lon="9.349415518951647"><ele>32.333333333333336</ele><time>2026-05-03T13:59:25.999Z</time></trkpt><trkpt lat="44.34452961440188" lon="9.349496611445913"><ele>34.0</ele><time>2026-05-03T13:59:26.999Z</time></trkpt><trkpt lat="44.34434374788424" lon="9.349558408595732"><ele>34.0</ele><time>2026-05-03T13:59:27.999Z</time></trkpt><trkpt lat="44.34415666399062" lon="9.349641677102563"><ele>34.0</ele><time>2026-05-03T13:59:28.999Z</time></trkpt><trkpt lat="44.34394702852761" lon="9.349726012065116"><ele>34.0</ele><time>2026-05-03T13:59:29.999Z</time></trkpt><trkpt lat="44.34372680519656" lon="9.349792728594517"><ele>37.0</ele><time>2026-05-03T13:59:30.999Z</time></trkpt><trkpt lat="44.343488190752176" lon="9.349882326500516"><ele>40.0</ele><time>2026-05-03T13:59:31.999Z</time></trkpt><trkpt lat="44.343275493054065" lon="9.349962018465416"><ele>40.0</ele><time>2026-05-03T13:59:32.999Z</time></trkpt><trkpt lat="44.34307999794391" lon="9.350039391373597"><ele>40.0</ele><time>2026-05-03T13:59:33.999Z</time></trkpt><trkpt lat="44.342904008016944" lon="9.350103276253796"><ele>40.0</ele><time>2026-05-03T13:59:34.999Z</time></trkpt><trkpt lat="44.34275895828847" lon="9.35014040433863"><ele>37.333333333333336</ele><time>2026-05-03T13:59:35.999Z</time></trkpt><trkpt lat="44.34262160320018" lon="9.350088874137146"><ele>34.666666666666664</ele><time>2026-05-03T13:59:36.999Z</time></trkpt><trkpt lat="44.34248904165564" lon="9.349971759148083"><ele>32.0</ele><time>2026-05-03T13:59:37.999Z</time></trkpt><trkpt lat="44.34234804347289" lon="9.349813011113975"><ele>29.666666666666664</ele><time>2026-05-03T13:59:38.999Z</time></trkpt><trkpt lat="44.34219136504344" lon="9.349628846075474"><ele>27.333333333333336</ele><time>2026-05-03T13:59:39.999Z</time></trkpt><trkpt lat="44.34204298900919" lon="9.349472297256291"><ele>25.0</ele><time>2026-05-03T13:59:40.999Z</time></trkpt><trkpt lat="44.34191832244351" lon="9.34931726046818"><ele>25.0</ele><time>2026-05-03T13:59:41.999Z</time></trkpt><trkpt lat="44.34182542164672" lon="9.349146035478082"><ele>25.0</ele><time>2026-05-03T13:59:42.999Z</time></trkpt><trkpt lat="44.34175668051541" lon="9.348949296516217"><ele>25.0</ele><time>2026-05-03T13:59:43.999Z</time></trkpt><trkpt lat="44.34169343914511" lon="9.34878981433385"><ele>25.0</ele><time>2026-05-03T13:59:44.999Z</time></trkpt><trkpt lat="44.341596427840564" lon="9.348681842898639"><ele>27.25</ele><time>2026-05-03T13:59:45.999Z</time></trkpt><trkpt lat="44.341485072803074" lon="9.348643408531927"><ele>29.5</ele><time>2026-05-03T13:59:46.999Z</time></trkpt><trkpt lat="44.34138425619395" lon="9.348679142514836"><ele>31.75</ele><time>2026-05-03T13:59:47.999Z</time></trkpt><trkpt lat="44.34128947901052" lon="9.348747384167977"><ele>34.0</ele><time>2026-05-03T13:59:48.999Z</time></trkpt><trkpt lat="44.341247606670365" lon="9.348928737300312"><ele>34.0</ele><time>2026-05-03T13:59:49.999Z</time></trkpt><trkpt lat="44.34129056628442" lon="9.349121458181266"><ele>34.0</ele><time>2026-05-03T13:59:50.999Z</time></trkpt><trkpt lat="44.34133247912679" lon="9.349324583890487"><ele>34.0</ele><time>2026-05-03T13:59:51.999Z</time></trkpt><trkpt lat="44.34137874072251" lon="9.349557432762543"><ele>30.5</ele><time>2026-05-03T13:59:52.999Z</time></trkpt><trkpt lat="44.34141233146675" lon="9.34974892539733"><ele>27.0</ele><time>2026-05-03T13:59:53.999Z</time></trkpt><trkpt lat="44.341418996851246" lon="9.34990802352071"><ele>23.5</ele><time>2026-05-03T13:59:54.999Z</time></trkpt><trkpt lat="44.34140518534844" lon="9.350055506602489"><ele>20.0</ele><time>2026-05-03T13:59:55.999Z</time></trkpt><trkpt lat="44.34130294014855" lon="9.350172186295822"><ele>20.0</ele><time>2026-05-03T13:59:56.999Z</time></trkpt><trkpt lat="44.341189672538476" lon="9.35019765335498"><ele>20.0</ele><time>2026-05-03T13:59:57.999Z</time></trkpt><trkpt lat="44.341052748910165" lon="9.350155285749027"><ele>20.0</ele><time>2026-05-03T13:59:58.999Z</time></trkpt><trkpt lat="44.34091531503969" lon="9.350050683168039"><ele>20.0</ele><time>2026-05-03T13:59:59.999Z</time></trkpt><trkpt lat="44.340748259079035" lon="9.349952838631115"><ele>20.0</ele><time>2026-05-03T14:00:00.999Z</time></trkpt><trkpt lat="44.34056131909419" lon="9.349826065990404"><ele>20.0</ele><time>2026-05-03T14:00:01.999Z</time></trkpt><trkpt lat="44.34040560220803" lon="9.349654274180251"><ele>20.0</ele><time>2026-05-03T14:00:02.999Z</time></trkpt><trkpt lat="44.3402421677589" lon="9.349420442582105"><ele>19.666666666666668</ele><time>2026-05-03T14:00:03.999Z</time></trkpt><trkpt lat="44.340082179637065" lon="9.34925571448363"><ele>19.333333333333332</ele><time>2026-05-03T14:00:04.999Z</time></trkpt><trkpt lat="44.33992567980043" lon="9.349129159077851"><ele>19.0</ele><time>2026-05-03T14:00:05.999Z</time></trkpt><trkpt lat="44.33976808277962" lon="9.34904871308824"><ele>17.666666666666664</ele><time>2026-05-03T14:00:06.999Z</time></trkpt><trkpt lat="44.33960479237867" lon="9.349005213754376"><ele>16.333333333333332</ele><time>2026-05-03T14:00:07.999Z</time></trkpt><trkpt lat="44.33945054690902" lon="9.348971512106537"><ele>15.0</ele><time>2026-05-03T14:00:08.999Z</time></trkpt><trkpt lat="44.33928599949935" lon="9.348954064675015"><ele>15.0</ele><time>2026-05-03T14:00:09.999Z</time></trkpt><trkpt lat="44.33912773495915" lon="9.348931913843046"><ele>15.0</ele><time>2026-05-03T14:00:10.999Z</time></trkpt><trkpt lat="44.338978760492125" lon="9.348841169261775"><ele>15.0</ele><time>2026-05-03T14:00:11.999Z</time></trkpt><trkpt lat="44.338824689194745" lon="9.348792398592732"><ele>17.25</ele><time>2026-05-03T14:00:12.999Z</time></trkpt><trkpt lat="44.33867853052753" lon="9.348746483492318"><ele>19.5</ele><time>2026-05-03T14:00:13.999Z</time></trkpt><trkpt lat="44.33855350120605" lon="9.348707185328495"><ele>21.75</ele><time>2026-05-03T14:00:14.999Z</time></trkpt><trkpt lat="44.33842879581243" lon="9.348670610096784"><ele>24.0</ele><time>2026-05-03T14:00:15.999Z</time></trkpt><trkpt lat="44.33830275164299" lon="9.348694431814243"><ele>24.0</ele><time>2026-05-03T14:00:16.999Z</time></trkpt><trkpt lat="44.33817757568682" lon="9.348677901241699"><ele>24.0</ele><time>2026-05-03T14:00:17.999Z</time></trkpt><trkpt lat="44.33805851685803" lon="9.34867660795808"><ele>24.0</ele><time>2026-05-03T14:00:18.998Z</time></trkpt><trkpt lat="44.33794399935156" lon="9.348669173462307"><ele>24.0</ele><time>2026-05-03T14:00:19.998Z</time></trkpt><trkpt lat="44.33782790393451" lon="9.34865613442079"><ele>22.75</ele><time>2026-05-03T14:00:20.998Z</time></trkpt><trkpt lat="44.33770993797648" lon="9.348637688776009"><ele>21.5</ele><time>2026-05-03T14:00:21.998Z</time></trkpt><trkpt lat="44.33759286334723" lon="9.348607281827965"><ele>20.25</ele><time>2026-05-03T14:00:22.998Z</time></trkpt><trkpt lat="44.337474897272564" lon="9.34856024307096"><ele>19.0</ele><time>2026-05-03T14:00:23.998Z</time></trkpt><trkpt lat="44.33735717353188" lon="9.348509511381884"><ele>19.0</ele><time>2026-05-03T14:00:24.998Z</time></trkpt><trkpt lat="44.33725100012183" lon="9.348452962407723"><ele>19.0</ele><time>2026-05-03T14:00:25.998Z</time></trkpt><trkpt lat="44.337142164469675" lon="9.348383696579045"><ele>19.0</ele><time>2026-05-03T14:00:26.998Z</time></trkpt><trkpt lat="44.337036026647795" lon="9.348316120192706"><ele>19.0</ele><time>2026-05-03T14:00:27.998Z</time></trkpt><trkpt lat="44.336925994429684" lon="9.348239420073483"><ele>18.75</ele><time>2026-05-03T14:00:28.998Z</time></trkpt><trkpt lat="44.33681724446587" lon="9.34817026368056"><ele>18.5</ele><time>2026-05-03T14:00:29.998Z</time></trkpt><trkpt lat="44.33670383265035" lon="9.34809579183207"><ele>18.25</ele><time>2026-05-03T14:00:30.998Z</time></trkpt><trkpt lat="44.33658905869394" lon="9.348018266725903"><ele>18.0</ele><time>2026-05-03T14:00:31.998Z</time></trkpt><trkpt lat="44.33647170533114" lon="9.347942393196515"><ele>16.5</ele><time>2026-05-03T14:00:32.998Z</time></trkpt><trkpt lat="44.33635106155642" lon="9.347870403625844"><ele>15.0</ele><time>2026-05-03T14:00:33.998Z</time></trkpt><trkpt lat="44.33622754995627" lon="9.347795736674342"><ele>13.5</ele><time>2026-05-03T14:00:34.998Z</time></trkpt><trkpt lat="44.33610216657268" lon="9.347726047983244"><ele>12.0</ele><time>2026-05-03T14:00:35.998Z</time></trkpt><trkpt lat="44.33597576620964" lon="9.347644823118994"><ele>12.0</ele><time>2026-05-03T14:00:36.998Z</time></trkpt><trkpt lat="44.3358503293976" lon="9.347558986658191"><ele>12.0</ele><time>2026-05-03T14:00:37.998Z</time></trkpt><trkpt lat="44.33573049987277" lon="9.34746275637756"><ele>12.0</ele><time>2026-05-03T14:00:38.998Z</time></trkpt><trkpt lat="44.33563308849158" lon="9.347355619687672"><ele>12.0</ele><time>2026-05-03T14:00:39.998Z</time></trkpt><trkpt lat="44.33555300836039" lon="9.347244566984624"><ele>11.8</ele><time>2026-05-03T14:00:40.998Z</time></trkpt><trkpt lat="44.33548739197553" lon="9.34714590848456"><ele>11.6</ele><time>2026-05-03T14:00:41.998Z</time></trkpt><trkpt lat="44.33543530887376" lon="9.347063166298675"><ele>11.4</ele><time>2026-05-03T14:00:42.998Z</time></trkpt><trkpt lat="44.33540554313092" lon="9.346946734382831"><ele>11.200000000000001</ele><time>2026-05-03T14:00:44.998Z</time></trkpt><trkpt lat="44.33550783807827" lon="9.346789591732662"><ele>11.0</ele><time>2026-05-03T14:00:46.998Z</time></trkpt><trkpt lat="44.335576617753546" lon="9.346680100904102"><ele>11.5</ele><time>2026-05-03T14:00:47.998Z</time></trkpt><trkpt lat="44.33561811693005" lon="9.346599770234027"><ele>12.0</ele><time>2026-05-03T14:00:48.998Z</time></trkpt><trkpt lat="44.335684003390654" lon="9.346501391791852"><ele>12.5</ele><time>2026-05-03T14:00:50.998Z</time></trkpt><trkpt lat="44.335749035304474" lon="9.3463951101293"><ele>13.0</ele><time>2026-05-03T14:00:52.998Z</time></trkpt><trkpt lat="44.33579327930303" lon="9.346326269313302"><ele>13.500000000000002</ele><time>2026-05-03T14:01:06Z</time></trkpt><trkpt lat="44.335759765128095" lon="9.346403940033934"><ele>14.0</ele><time>2026-05-03T14:01:19Z</time></trkpt><trkpt lat="44.3358231735952" lon="9.346340355838471"><ele>14.0</ele><time>2026-05-03T14:01:27Z</time></trkpt><trkpt lat="44.33577271517774" lon="9.346405063959658"><ele>14.0</ele><time>2026-05-03T14:01:40.999Z</time></trkpt><trkpt lat="44.33593363650795" lon="9.346591712885678"><ele>14.0</ele><time>2026-05-03T14:01:48.999Z</time></trkpt><trkpt lat="44.335626297109364" lon="9.34668800062086"><ele>14.0</ele><time>2026-05-03T14:02:06.034Z</time></trkpt><trkpt lat="44.33587659109053" lon="9.346500834254318"><ele>14.0</ele><time>2026-05-03T14:02:20.058Z</time></trkpt><trkpt lat="44.33593894401365" lon="9.34647131041834"><ele>14.0</ele><time>2026-05-03T14:02:27.998Z</time></trkpt><trkpt lat="44.33592070890679" lon="9.346378968207224"><ele>14.0</ele><time>2026-05-03T14:03:22Z</time></trkpt><trkpt lat="44.33586852010608" lon="9.346487743454805"><ele>14.000000000000002</ele><time>2026-05-03T14:03:28Z</time></trkpt><trkpt lat="44.33583330376812" lon="9.346564175011538"><ele>14.0</ele><time>2026-05-03T14:03:34Z</time></trkpt><trkpt lat="44.335808306807074" lon="9.34664509902403"><ele>14.0</ele><time>2026-05-03T14:03:38Z</time></trkpt><trkpt lat="44.33577579360212" lon="9.346736864472437"><ele>14.0</ele><time>2026-05-03T14:03:41Z</time></trkpt><trkpt lat="44.335753590983856" lon="9.346827823011411"><ele>14.000000000000002</ele><time>2026-05-03T14:03:43Z</time></trkpt><trkpt lat="44.33571426573275" lon="9.3469364027502"><ele>14.0</ele><time>2026-05-03T14:03:47.027Z</time></trkpt><trkpt lat="44.33585873185439" lon="9.34669119548875"><ele>14.0</ele><time>2026-05-03T14:03:59.094Z</time></trkpt><trkpt lat="44.33600637947239" lon="9.346509881607721"><ele>14.0</ele><time>2026-05-03T14:04:02.799Z</time></trkpt></trkseg></trk></gpx>